<?xml version='1.0' encoding='UTF-8'?><gpx version="1.1" creator="JPX - https://github.com/jenetics/jpx" xmlns="http://www.topografix.com/GPX/1/1"><trk><trkseg><trkpt lat="21.86346301864048" lon="-102.32269077870998"><ele>1836.0</ele><time>2026-03-22T13:00:22.999Z</time></trkpt><trkpt lat="21.863492442084805" lon="-102.32262342055002"><ele>1836.0</ele><time>2026-03-22T13:00:27.999Z</time></trkpt><trkpt lat="21.863506125113577" lon="-102.32254679397577"><ele>1836.0</ele><time>2026-03-22T13:00:32Z</time></trkpt><trkpt lat="21.863537412170835" lon="-102.32248411101362"><ele>1836.0</ele><time>2026-03-22T13:00:36Z</time></trkpt><trkpt lat="21.863566424055293" lon="-102.32241605869964"><ele>1836.0</ele><time>2026-03-22T13:00:38Z</time></trkpt><trkpt lat="21.863600646544118" lon="-102.32234054384061"><ele>1836.0</ele><time>2026-03-22T13:00:41Z</time></trkpt><trkpt lat="21.86364735023845" lon="-102.3222578755613"><ele>1836.0</ele><time>2026-03-22T13:00:43Z</time></trkpt><trkpt lat="21.863695181898017" lon="-102.32216188672749"><ele>1836.4</ele><time>2026-03-22T13:00:45Z</time></trkpt><trkpt lat="21.863745766082356" lon="-102.32205790264743"><ele>1836.8</ele><time>2026-03-22T13:00:47Z</time></trkpt><trkpt lat="21.863789970860495" lon="-102.32197289794348"><ele>1837.2000000000003</ele><time>2026-03-22T13:00:49Z</time></trkpt><trkpt lat="21.86372421001978" lon="-102.32185379300853"><ele>1837.6000000000001</ele><time>2026-03-22T13:00:51Z</time></trkpt><trkpt lat="21.86360949445749" lon="-102.32183375730929"><ele>1838.0</ele><time>2026-03-22T13:00:52Z</time></trkpt><trkpt lat="21.86353996254991" lon="-102.32179516723254"><ele>1837.4</ele><time>2026-03-22T13:00:53Z</time></trkpt><trkpt lat="21.863432215668862" lon="-102.32181536788772"><ele>1836.8000000000002</ele><time>2026-03-22T13:00:55Z</time></trkpt><trkpt lat="21.863364342614428" lon="-102.3218193099384"><ele>1836.2</ele><time>2026-03-22T13:00:56Z</time></trkpt><trkpt lat="21.86326233120043" lon="-102.3217510052734"><ele>1835.6</ele><time>2026-03-22T13:00:59Z</time></trkpt><trkpt lat="21.863185007873394" lon="-102.32167426523962"><ele>1835.0</ele><time>2026-03-22T13:01:01Z</time></trkpt><trkpt lat="21.8631650207536" lon="-102.32151553082707"><ele>1835.0</ele><time>2026-03-22T13:01:03Z</time></trkpt><trkpt lat="21.863194463977873" lon="-102.32141423008004"><ele>1835.0</ele><time>2026-03-22T13:01:05Z</time></trkpt><trkpt lat="21.863226729278086" lon="-102.32133478425416"><ele>1835.0</ele><time>2026-03-22T13:01:06Z</time></trkpt><trkpt lat="21.86329218974092" lon="-102.32129089028292"><ele>1835.0</ele><time>2026-03-22T13:01:07Z</time></trkpt><trkpt lat="21.863409191698786" lon="-102.32124022755809"><ele>1835.0</ele><time>2026-03-22T13:01:09Z</time></trkpt><trkpt lat="21.863719282118687" lon="-102.32130814319251"><ele>1835.6</ele><time>2026-03-22T13:01:13Z</time></trkpt><trkpt lat="21.86376024786576" lon="-102.32136517170665"><ele>1836.2</ele><time>2026-03-22T13:01:14Z</time></trkpt><trkpt lat="21.863799117133876" lon="-102.32142832402418"><ele>1836.8000000000002</ele><time>2026-03-22T13:01:15Z</time></trkpt><trkpt lat="21.863867968823318" lon="-102.32151132155849"><ele>1837.4</ele><time>2026-03-22T13:01:17Z</time></trkpt><trkpt lat="21.863987390418263" lon="-102.32154220364013"><ele>1838.0</ele><time>2026-03-22T13:01:19Z</time></trkpt><trkpt lat="21.864073889700826" lon="-102.32158524582503"><ele>1838.0</ele><time>2026-03-22T13:01:21Z</time></trkpt><trkpt lat="21.86415579407256" lon="-102.32164048299256"><ele>1838.0</ele><time>2026-03-22T13:01:23Z</time></trkpt><trkpt lat="21.864150679906125" lon="-102.3219223108518"><ele>1838.0</ele><time>2026-03-22T13:01:28Z</time></trkpt><trkpt lat="21.86410605915315" lon="-102.32199719242166"><ele>1838.0</ele><time>2026-03-22T13:01:29Z</time></trkpt><trkpt lat="21.86406302912879" lon="-102.32207289024849"><ele>1838.0</ele><time>2026-03-22T13:01:30Z</time></trkpt><trkpt lat="21.86405160030961" lon="-102.32220018883555"><ele>1838.0000000000002</ele><time>2026-03-22T13:01:31Z</time></trkpt><trkpt lat="21.864002721410497" lon="-102.32230349992744"><ele>1838.0000000000002</ele><time>2026-03-22T13:01:32Z</time></trkpt><trkpt lat="21.863954004743604" lon="-102.32238374822694"><ele>1838.0</ele><time>2026-03-22T13:01:33Z</time></trkpt><trkpt lat="21.863900933199584" lon="-102.32248546693472"><ele>1838.0</ele><time>2026-03-22T13:01:34Z</time></trkpt><trkpt lat="21.863862606011573" lon="-102.32260548246765"><ele>1837.6000000000001</ele><time>2026-03-22T13:01:35Z</time></trkpt><trkpt lat="21.86381298532975" lon="-102.32267987456068"><ele>1837.2000000000003</ele><time>2026-03-22T13:01:36Z</time></trkpt><trkpt lat="21.863816233463215" lon="-102.32279811247129"><ele>1836.8</ele><time>2026-03-22T13:01:37Z</time></trkpt><trkpt lat="21.863771671932337" lon="-102.32289935717617"><ele>1836.4</ele><time>2026-03-22T13:01:38Z</time></trkpt><trkpt lat="21.86371732461975" lon="-102.32304674834889"><ele>1836.0</ele><time>2026-03-22T13:01:40Z</time></trkpt><trkpt lat="21.8637060693789" lon="-102.32312008929932"><ele>1836.8333333333333</ele><time>2026-03-22T13:01:41Z</time></trkpt><trkpt lat="21.863683811125654" lon="-102.32320333233996"><ele>1837.6666666666665</ele><time>2026-03-22T13:01:42Z</time></trkpt><trkpt lat="21.863648589795606" lon="-102.32327946580621"><ele>1838.5</ele><time>2026-03-22T13:01:43Z</time></trkpt><trkpt lat="21.863622479536843" lon="-102.32335695178121"><ele>1839.3333333333333</ele><time>2026-03-22T13:01:44Z</time></trkpt><trkpt lat="21.863581978125286" lon="-102.32342645992071"><ele>1840.1666666666665</ele><time>2026-03-22T13:01:45Z</time></trkpt><trkpt lat="21.86352957537242" lon="-102.32348830141218"><ele>1841.0</ele><time>2026-03-22T13:01:46Z</time></trkpt><trkpt lat="21.863483512629237" lon="-102.32355958630927"><ele>1841.0</ele><time>2026-03-22T13:01:47Z</time></trkpt><trkpt lat="21.86342711248134" lon="-102.32364421521363"><ele>1841.0</ele><time>2026-03-22T13:01:48Z</time></trkpt><trkpt lat="21.86333911840139" lon="-102.32372358361185"><ele>1841.0</ele><time>2026-03-22T13:01:50Z</time></trkpt><trkpt lat="21.863292486902925" lon="-102.32382590834519"><ele>1841.0</ele><time>2026-03-22T13:01:51Z</time></trkpt><trkpt lat="21.863249502272023" lon="-102.32392027919516"><ele>1841.0</ele><time>2026-03-22T13:01:52Z</time></trkpt><trkpt lat="21.863194940132473" lon="-102.32403342713924"><ele>1841.4</ele><time>2026-03-22T13:01:53Z</time></trkpt><trkpt lat="21.86314649776843" lon="-102.3241341915428"><ele>1841.8</ele><time>2026-03-22T13:01:54Z</time></trkpt><trkpt lat="21.863090080550023" lon="-102.3242755913317"><ele>1842.2000000000003</ele><time>2026-03-22T13:01:55Z</time></trkpt><trkpt lat="21.863046982869914" lon="-102.32435809222467"><ele>1842.6000000000001</ele><time>2026-03-22T13:01:56Z</time></trkpt><trkpt lat="21.862999368085674" lon="-102.32443414497776"><ele>1843.0</ele><time>2026-03-22T13:01:57Z</time></trkpt><trkpt lat="21.862955079445648" lon="-102.324523266793"><ele>1843.0000000000002</ele><time>2026-03-22T13:01:58Z</time></trkpt><trkpt lat="21.862933022357403" lon="-102.32460627291137"><ele>1843.0</ele><time>2026-03-22T13:01:59Z</time></trkpt><trkpt lat="21.862875006678095" lon="-102.32471965161304"><ele>1843.0</ele><time>2026-03-22T13:02:00Z</time></trkpt><trkpt lat="21.86283116361008" lon="-102.32480359716416"><ele>1843.0</ele><time>2026-03-22T13:02:01Z</time></trkpt><trkpt lat="21.862801104257674" lon="-102.32488529758989"><ele>1843.0000000000002</ele><time>2026-03-22T13:02:02Z</time></trkpt><trkpt lat="21.862756777156815" lon="-102.32494815033799"><ele>1843.0</ele><time>2026-03-22T13:02:03Z</time></trkpt><trkpt lat="21.8627387416024" lon="-102.32503141984674"><ele>1842.8000000000002</ele><time>2026-03-22T13:02:04Z</time></trkpt><trkpt lat="21.86269796386364" lon="-102.32512151943733"><ele>1842.6000000000001</ele><time>2026-03-22T13:02:05Z</time></trkpt><trkpt lat="21.862666169008595" lon="-102.3252035102949"><ele>1842.3999999999999</ele><time>2026-03-22T13:02:06Z</time></trkpt><trkpt lat="21.86262177501906" lon="-102.32528671627189"><ele>1842.1999999999998</ele><time>2026-03-22T13:02:07Z</time></trkpt><trkpt lat="21.86256660174592" lon="-102.32536854581262"><ele>1842.0</ele><time>2026-03-22T13:02:08Z</time></trkpt><trkpt lat="21.862549370857405" lon="-102.32551210043967"><ele>1842.3333333333333</ele><time>2026-03-22T13:02:10Z</time></trkpt><trkpt lat="21.862523785898116" lon="-102.3255787974806"><ele>1842.6666666666665</ele><time>2026-03-22T13:02:11Z</time></trkpt><trkpt lat="21.862502823228997" lon="-102.32566533065732"><ele>1843.0</ele><time>2026-03-22T13:02:12Z</time></trkpt><trkpt lat="21.8624860494949" lon="-102.32575373281544"><ele>1843.3333333333333</ele><time>2026-03-22T13:02:13Z</time></trkpt><trkpt lat="21.862472170849514" lon="-102.32582775227623"><ele>1843.6666666666665</ele><time>2026-03-22T13:02:14Z</time></trkpt><trkpt lat="21.862453544793077" lon="-102.32593211813051"><ele>1844.0</ele><time>2026-03-22T13:02:15Z</time></trkpt><trkpt lat="21.86243350214435" lon="-102.32605914556419"><ele>1843.9999999999998</ele><time>2026-03-22T13:02:17Z</time></trkpt><trkpt lat="21.862423873386906" lon="-102.32612848557794"><ele>1844.0</ele><time>2026-03-22T13:02:18Z</time></trkpt><trkpt lat="21.862414917316354" lon="-102.32621332768109"><ele>1844.0</ele><time>2026-03-22T13:02:19Z</time></trkpt><trkpt lat="21.8624027299504" lon="-102.32634944029878"><ele>1844.0</ele><time>2026-03-22T13:02:21Z</time></trkpt><trkpt lat="21.86239550634646" lon="-102.3264279240602"><ele>1843.9999999999998</ele><time>2026-03-22T13:02:22Z</time></trkpt><trkpt lat="21.862398612778623" lon="-102.32650017340258"><ele>1844.0</ele><time>2026-03-22T13:02:23Z</time></trkpt><trkpt lat="21.862395334489314" lon="-102.3265746225262"><ele>1844.6</ele><time>2026-03-22T13:02:24Z</time></trkpt><trkpt lat="21.862395871954284" lon="-102.32665900449136"><ele>1845.2</ele><time>2026-03-22T13:02:25Z</time></trkpt><trkpt lat="21.862397311398905" lon="-102.32679683052788"><ele>1845.7999999999997</ele><time>2026-03-22T13:02:27Z</time></trkpt><trkpt lat="21.862405252767093" lon="-102.32693593276939"><ele>1846.3999999999999</ele><time>2026-03-22T13:02:29Z</time></trkpt><trkpt lat="21.86240874370562" lon="-102.32701185566785"><ele>1847.0</ele><time>2026-03-22T13:02:30Z</time></trkpt><trkpt lat="21.862421008945997" lon="-102.32708753413384"><ele>1846.9999999999998</ele><time>2026-03-22T13:02:31Z</time></trkpt><trkpt lat="21.862415528677204" lon="-102.32716570143653"><ele>1847.0</ele><time>2026-03-22T13:02:32Z</time></trkpt><trkpt lat="21.86241668343341" lon="-102.32724748782755"><ele>1847.0</ele><time>2026-03-22T13:02:33Z</time></trkpt><trkpt lat="21.862417298701164" lon="-102.32733390823408"><ele>1847.0</ele><time>2026-03-22T13:02:35Z</time></trkpt><trkpt lat="21.862429373230587" lon="-102.32741923448174"><ele>1846.9999999999998</ele><time>2026-03-22T13:02:37Z</time></trkpt><trkpt lat="21.862447574650282" lon="-102.32750080523967"><ele>1847.0</ele><time>2026-03-22T13:02:39Z</time></trkpt><trkpt lat="21.862454810057052" lon="-102.32762566903308"><ele>1846.8333333333333</ele><time>2026-03-22T13:02:41Z</time></trkpt><trkpt lat="21.86246848554243" lon="-102.32769595396634"><ele>1846.6666666666665</ele><time>2026-03-22T13:02:42Z</time></trkpt><trkpt lat="21.86248334884758" lon="-102.32782863743896"><ele>1846.5</ele><time>2026-03-22T13:02:44Z</time></trkpt><trkpt lat="21.862491677844982" lon="-102.3279023937323"><ele>1846.3333333333335</ele><time>2026-03-22T13:02:45Z</time></trkpt><trkpt lat="21.862499671171374" lon="-102.3279752929062"><ele>1846.1666666666667</ele><time>2026-03-22T13:02:46Z</time></trkpt><trkpt lat="21.862497342293814" lon="-102.32806015511738"><ele>1846.0</ele><time>2026-03-22T13:02:47Z</time></trkpt><trkpt lat="21.862538584338427" lon="-102.32816987348441"><ele>1846.0000000000002</ele><time>2026-03-22T13:02:49Z</time></trkpt><trkpt lat="21.862553376403994" lon="-102.32829134074942"><ele>1846.0</ele><time>2026-03-22T13:02:51Z</time></trkpt><trkpt lat="21.862564453641877" lon="-102.32837915008461"><ele>1846.0</ele><time>2026-03-22T13:02:52Z</time></trkpt><trkpt lat="21.862572985990163" lon="-102.32844942448016"><ele>1846.0</ele><time>2026-03-22T13:02:53Z</time></trkpt><trkpt lat="21.862581263635224" lon="-102.32851908164676"><ele>1846.0000000000002</ele><time>2026-03-22T13:02:54Z</time></trkpt><trkpt lat="21.8625967279722" lon="-102.32864696063783"><ele>1846.0</ele><time>2026-03-22T13:02:56Z</time></trkpt><trkpt lat="21.862605517847634" lon="-102.32871629805757"><ele>1846.0000000000002</ele><time>2026-03-22T13:02:57Z</time></trkpt><trkpt lat="21.86261445274557" lon="-102.32878616083912"><ele>1846.0</ele><time>2026-03-22T13:02:58Z</time></trkpt><trkpt lat="21.86263929244258" lon="-102.32885696373287"><ele>1846.0</ele><time>2026-03-22T13:02:59Z</time></trkpt><trkpt lat="21.862656553141953" lon="-102.32900369334592"><ele>1846.0</ele><time>2026-03-22T13:03:01Z</time></trkpt><trkpt lat="21.86266637694181" lon="-102.32907535209333"><ele>1846.0000000000002</ele><time>2026-03-22T13:03:02Z</time></trkpt><trkpt lat="21.86267917867201" lon="-102.32914197425335"><ele>1846.0</ele><time>2026-03-22T13:03:03Z</time></trkpt><trkpt lat="21.86268964965275" lon="-102.3292094629863"><ele>1846.6</ele><time>2026-03-22T13:03:04Z</time></trkpt><trkpt lat="21.862701606728844" lon="-102.32927766328372"><ele>1847.1999999999998</ele><time>2026-03-22T13:03:05Z</time></trkpt><trkpt lat="21.86272298108419" lon="-102.32943267180283"><ele>1847.8000000000002</ele><time>2026-03-22T13:03:07Z</time></trkpt><trkpt lat="21.862742347893086" lon="-102.32956368970034"><ele>1848.4</ele><time>2026-03-22T13:03:09Z</time></trkpt><trkpt lat="21.862752888797548" lon="-102.32964414718467"><ele>1849.0</ele><time>2026-03-22T13:03:10Z</time></trkpt><trkpt lat="21.862768714251935" lon="-102.32971923558158"><ele>1848.5000000000002</ele><time>2026-03-22T13:03:11Z</time></trkpt><trkpt lat="21.862794292487386" lon="-102.32981747196499"><ele>1848.0</ele><time>2026-03-22T13:03:13Z</time></trkpt><trkpt lat="21.862784994782327" lon="-102.32990932121312"><ele>1847.5</ele><time>2026-03-22T13:03:14Z</time></trkpt><trkpt lat="21.86279965482677" lon="-102.32999200552906"><ele>1847.0</ele><time>2026-03-22T13:03:15Z</time></trkpt><trkpt lat="21.8628078827893" lon="-102.3300676882732"><ele>1846.5000000000002</ele><time>2026-03-22T13:03:16Z</time></trkpt><trkpt lat="21.862824424185177" lon="-102.33016210396093"><ele>1846.0</ele><time>2026-03-22T13:03:17Z</time></trkpt><trkpt lat="21.862924919924705" lon="-102.33029106384356"><ele>1846.0</ele><time>2026-03-22T13:03:18Z</time></trkpt><trkpt lat="21.86292573238233" lon="-102.33041811750667"><ele>1846.0</ele><time>2026-03-22T13:03:20Z</time></trkpt><trkpt lat="21.862885979740245" lon="-102.33051033236818"><ele>1846.0</ele><time>2026-03-22T13:03:21Z</time></trkpt><trkpt lat="21.862875080769484" lon="-102.33065045905143"><ele>1846.0</ele><time>2026-03-22T13:03:23Z</time></trkpt><trkpt lat="21.86289946362542" lon="-102.33076544437148"><ele>1846.8</ele><time>2026-03-22T13:03:24Z</time></trkpt><trkpt lat="21.86291200782249" lon="-102.330869558463"><ele>1847.6</ele><time>2026-03-22T13:03:25Z</time></trkpt><trkpt lat="21.862925786026345" lon="-102.3309907240515"><ele>1848.4</ele><time>2026-03-22T13:03:26Z</time></trkpt><trkpt lat="21.862928684525468" lon="-102.3310615050446"><ele>1849.2</ele><time>2026-03-22T13:03:27Z</time></trkpt><trkpt lat="21.862920985905966" lon="-102.33114600765784"><ele>1850.0</ele><time>2026-03-22T13:03:28Z</time></trkpt><trkpt lat="21.862934701363805" lon="-102.33125605784208"><ele>1849.9999999999998</ele><time>2026-03-22T13:03:30Z</time></trkpt><trkpt lat="21.862943661779582" lon="-102.33132795453967"><ele>1850.0</ele><time>2026-03-22T13:03:31Z</time></trkpt><trkpt lat="21.862952062477845" lon="-102.33139536054453"><ele>1850.0</ele><time>2026-03-22T13:03:32Z</time></trkpt><trkpt lat="21.862958893173918" lon="-102.33151275137661"><ele>1850.0</ele><time>2026-03-22T13:03:34Z</time></trkpt><trkpt lat="21.862981244065505" lon="-102.33163169119618"><ele>1849.9999999999998</ele><time>2026-03-22T13:03:36Z</time></trkpt><trkpt lat="21.86299097532211" lon="-102.33171036957523"><ele>1850.0</ele><time>2026-03-22T13:03:37Z</time></trkpt><trkpt lat="21.86301800509728" lon="-102.33179268563659"><ele>1850.4</ele><time>2026-03-22T13:03:38Z</time></trkpt><trkpt lat="21.86302627948314" lon="-102.33186472619158"><ele>1850.8</ele><time>2026-03-22T13:03:39Z</time></trkpt><trkpt lat="21.86304209501377" lon="-102.3319908404555"><ele>1851.1999999999998</ele><time>2026-03-22T13:03:41Z</time></trkpt><trkpt lat="21.863065666931824" lon="-102.33210574450037"><ele>1851.6</ele><time>2026-03-22T13:03:43Z</time></trkpt><trkpt lat="21.86308633875174" lon="-102.3322142946749"><ele>1852.0</ele><time>2026-03-22T13:03:45Z</time></trkpt><trkpt lat="21.863098754540015" lon="-102.33233421464087"><ele>1852.1999999999998</ele><time>2026-03-22T13:03:47Z</time></trkpt><trkpt lat="21.863100486140304" lon="-102.33243565338314"><ele>1852.3999999999999</ele><time>2026-03-22T13:03:49Z</time></trkpt><trkpt lat="21.863109964514088" lon="-102.33251350713687"><ele>1852.6000000000001</ele><time>2026-03-22T13:03:50Z</time></trkpt><trkpt lat="21.863126528344925" lon="-102.33265805398935"><ele>1852.8000000000002</ele><time>2026-03-22T13:03:52Z</time></trkpt><trkpt lat="21.8631383982131" lon="-102.3327761784106"><ele>1853.0</ele><time>2026-03-22T13:03:54Z</time></trkpt><trkpt lat="21.863156242905394" lon="-102.33285634488469"><ele>1853.0</ele><time>2026-03-22T13:03:56Z</time></trkpt><trkpt lat="21.863157836350613" lon="-102.33293510907197"><ele>1853.0000000000002</ele><time>2026-03-22T13:03:57Z</time></trkpt><trkpt lat="21.863172122941947" lon="-102.33301873489052"><ele>1853.0000000000002</ele><time>2026-03-22T13:03:59Z</time></trkpt><trkpt lat="21.863180695141647" lon="-102.3330889129982"><ele>1853.0</ele><time>2026-03-22T13:04:00Z</time></trkpt><trkpt lat="21.863211794561916" lon="-102.3332303926156"><ele>1853.0</ele><time>2026-03-22T13:04:02Z</time></trkpt><trkpt lat="21.863239328555625" lon="-102.33335246948869"><ele>1853.9999999999998</ele><time>2026-03-22T13:04:04Z</time></trkpt><trkpt lat="21.86326975635776" lon="-102.33346611545346"><ele>1855.0</ele><time>2026-03-22T13:04:06Z</time></trkpt><trkpt lat="21.86323909844415" lon="-102.33335153719985"><ele>1856.0</ele><time>2026-03-22T13:04:07Z</time></trkpt><trkpt lat="21.863265697518077" lon="-102.33343354433705"><ele>1857.0</ele><time>2026-03-22T13:04:13Z</time></trkpt><trkpt lat="21.863282928406228" lon="-102.333511220937"><ele>1857.9999999999998</ele><time>2026-03-22T13:04:16Z</time></trkpt><trkpt lat="21.863304063460106" lon="-102.3335781155364"><ele>1859.0</ele><time>2026-03-22T13:04:18Z</time></trkpt><trkpt lat="21.86332891376478" lon="-102.33365471883721"><ele>1859.0</ele><time>2026-03-22T13:04:21Z</time></trkpt><trkpt lat="21.863361434828136" lon="-102.33373171661304"><ele>1859.0</ele><time>2026-03-22T13:04:25Z</time></trkpt><trkpt lat="21.863402080463988" lon="-102.33381756287741"><ele>1859.0</ele><time>2026-03-22T13:04:28Z</time></trkpt><trkpt lat="21.863625878603084" lon="-102.33379210720898"><ele>1859.0</ele><time>2026-03-22T13:04:33Z</time></trkpt><trkpt lat="21.863708772513196" lon="-102.3338425630756"><ele>1858.0</ele><time>2026-03-22T13:04:34Z</time></trkpt><trkpt lat="21.863986495517324" lon="-102.33394611204906"><ele>1857.0</ele><time>2026-03-22T13:04:38Z</time></trkpt><trkpt lat="21.864215216688457" lon="-102.33389133946417"><ele>1855.0</ele><time>2026-03-22T13:04:42Z</time></trkpt><trkpt lat="21.864363991096894" lon="-102.33385025873622"><ele>1853.0</ele><time>2026-03-22T13:04:44Z</time></trkpt><trkpt lat="21.864420135570843" lon="-102.33374467860368"><ele>1851.0</ele><time>2026-03-22T13:04:46Z</time></trkpt><trkpt lat="21.864451300548698" lon="-102.33367433612425"><ele>1849.0</ele><time>2026-03-22T13:04:47Z</time></trkpt><trkpt lat="21.86453658908488" lon="-102.33351437494319"><ele>1849.0</ele><time>2026-03-22T13:04:49Z</time></trkpt><trkpt lat="21.86459456804425" lon="-102.33343081696829"><ele>1849.0</ele><time>2026-03-22T13:04:50Z</time></trkpt><trkpt lat="21.86465186733352" lon="-102.33330640270445"><ele>1849.0</ele><time>2026-03-22T13:04:51Z</time></trkpt><trkpt lat="21.864687657028057" lon="-102.3332440098878"><ele>1849.0</ele><time>2026-03-22T13:04:52Z</time></trkpt><trkpt lat="21.86471832949699" lon="-102.33316241397847"><ele>1849.0</ele><time>2026-03-22T13:04:53Z</time></trkpt><trkpt lat="21.864765272155136" lon="-102.33306869323246"><ele>1849.5</ele><time>2026-03-22T13:04:54Z</time></trkpt><trkpt lat="21.86482800461019" lon="-102.33294413423063"><ele>1850.0</ele><time>2026-03-22T13:04:55Z</time></trkpt><trkpt lat="21.864878611408226" lon="-102.33284395203663"><ele>1850.5</ele><time>2026-03-22T13:04:56Z</time></trkpt><trkpt lat="21.86493483615203" lon="-102.33273277797178"><ele>1851.0</ele><time>2026-03-22T13:04:57Z</time></trkpt><trkpt lat="21.86499636233955" lon="-102.33264101320857"><ele>1851.0</ele><time>2026-03-22T13:04:58Z</time></trkpt><trkpt lat="21.865044835642145" lon="-102.33253640095751"><ele>1851.0</ele><time>2026-03-22T13:04:59Z</time></trkpt><trkpt lat="21.865092496733705" lon="-102.33243437042229"><ele>1851.0</ele><time>2026-03-22T13:05:00Z</time></trkpt><trkpt lat="21.86514105402306" lon="-102.33232801235671"><ele>1851.0</ele><time>2026-03-22T13:05:01Z</time></trkpt><trkpt lat="21.86520179619826" lon="-102.33218356684026"><ele>1850.3333333333335</ele><time>2026-03-22T13:05:02Z</time></trkpt><trkpt lat="21.865266426614276" lon="-102.33205543948193"><ele>1849.6666666666667</ele><time>2026-03-22T13:05:03Z</time></trkpt><trkpt lat="21.86531545822611" lon="-102.33195259144432"><ele>1849.0</ele><time>2026-03-22T13:05:04Z</time></trkpt><trkpt lat="21.865507986589986" lon="-102.33154518517983"><ele>1849.0</ele><time>2026-03-22T13:05:07Z</time></trkpt><trkpt lat="21.86555114168423" lon="-102.3314954272547"><ele>1849.0</ele><time>2026-03-22T13:05:08Z</time></trkpt><trkpt lat="21.865608214062178" lon="-102.33135572232345"><ele>1849.0</ele><time>2026-03-22T13:05:09Z</time></trkpt><trkpt lat="21.86564033603741" lon="-102.33126109519046"><ele>1849.0</ele><time>2026-03-22T13:05:10Z</time></trkpt><trkpt lat="21.865728643522637" lon="-102.33112553958343"><ele>1848.8000000000002</ele><time>2026-03-22T13:05:11Z</time></trkpt><trkpt lat="21.865764163654305" lon="-102.33104634515942"><ele>1848.6000000000001</ele><time>2026-03-22T13:05:12Z</time></trkpt><trkpt lat="21.865812044476257" lon="-102.33095161171413"><ele>1848.4</ele><time>2026-03-22T13:05:13Z</time></trkpt><trkpt lat="21.865876124735674" lon="-102.33086377017081"><ele>1848.2</ele><time>2026-03-22T13:05:14Z</time></trkpt><trkpt lat="21.865927588720574" lon="-102.33073261920742"><ele>1848.0</ele><time>2026-03-22T13:05:15Z</time></trkpt><trkpt lat="21.86599848803105" lon="-102.33058503062003"><ele>1847.75</ele><time>2026-03-22T13:05:16Z</time></trkpt><trkpt lat="21.866071163163504" lon="-102.33045523294855"><ele>1847.5</ele><time>2026-03-22T13:05:17Z</time></trkpt><trkpt lat="21.866095769137747" lon="-102.33037734097479"><ele>1847.25</ele><time>2026-03-22T13:05:18Z</time></trkpt><trkpt lat="21.86617315502319" lon="-102.33022332835601"><ele>1847.0</ele><time>2026-03-22T13:05:20Z</time></trkpt><trkpt lat="21.866230364225743" lon="-102.33015528088801"><ele>1847.0</ele><time>2026-03-22T13:05:21Z</time></trkpt><trkpt lat="21.866309885029874" lon="-102.33008010350454"><ele>1847.0</ele><time>2026-03-22T13:05:22Z</time></trkpt><trkpt lat="21.866421245307414" lon="-102.33000016014498"><ele>1847.0</ele><time>2026-03-22T13:05:23Z</time></trkpt><trkpt lat="21.866503007961057" lon="-102.32988428127928"><ele>1847.0</ele><time>2026-03-22T13:05:24Z</time></trkpt><trkpt lat="21.866586340056593" lon="-102.32980574958086"><ele>1847.0</ele><time>2026-03-22T13:05:25Z</time></trkpt><trkpt lat="21.86663981652449" lon="-102.32973076863435"><ele>1846.9999999999998</ele><time>2026-03-22T13:05:26Z</time></trkpt><trkpt lat="21.866685072794755" lon="-102.32957191050984"><ele>1846.9999999999998</ele><time>2026-03-22T13:05:27Z</time></trkpt><trkpt lat="21.86672813484554" lon="-102.32951306608807"><ele>1847.0</ele><time>2026-03-22T13:05:28Z</time></trkpt><trkpt lat="21.866806377729954" lon="-102.3294023469926"><ele>1847.0</ele><time>2026-03-22T13:05:29Z</time></trkpt><trkpt lat="21.866865566741204" lon="-102.32928337446236"><ele>1846.6</ele><time>2026-03-22T13:05:30Z</time></trkpt><trkpt lat="21.86692558010904" lon="-102.3291897073359"><ele>1846.1999999999998</ele><time>2026-03-22T13:05:31Z</time></trkpt><trkpt lat="21.866969955785116" lon="-102.32913644563656"><ele>1845.8</ele><time>2026-03-22T13:05:32Z</time></trkpt><trkpt lat="21.867078535004268" lon="-102.32910639482085"><ele>1845.4</ele><time>2026-03-22T13:05:33Z</time></trkpt><trkpt lat="21.867170979270373" lon="-102.32899562844885"><ele>1845.0</ele><time>2026-03-22T13:05:35Z</time></trkpt><trkpt lat="21.86722001909419" lon="-102.32893014739184"><ele>1845.0</ele><time>2026-03-22T13:05:36Z</time></trkpt><trkpt lat="21.867294560959554" lon="-102.32881989817032"><ele>1845.0</ele><time>2026-03-22T13:05:37Z</time></trkpt><trkpt lat="21.86740663209061" lon="-102.32864681638542"><ele>1845.0</ele><time>2026-03-22T13:05:39Z</time></trkpt><trkpt lat="21.86752812067282" lon="-102.32857457710217"><ele>1845.0</ele><time>2026-03-22T13:05:40Z</time></trkpt><trkpt lat="21.867588596158242" lon="-102.3284853596634"><ele>1845.0</ele><time>2026-03-22T13:05:41Z</time></trkpt><trkpt lat="21.86766102448802" lon="-102.3284096190104"><ele>1845.0</ele><time>2026-03-22T13:05:42Z</time></trkpt><trkpt lat="21.86772023902419" lon="-102.32832080085875"><ele>1845.0</ele><time>2026-03-22T13:05:43Z</time></trkpt><trkpt lat="21.86776734515825" lon="-102.32827454651516"><ele>1845.0</ele><time>2026-03-22T13:05:44Z</time></trkpt><trkpt lat="21.867831589168876" lon="-102.32822723742913"><ele>1845.0</ele><time>2026-03-22T13:05:45Z</time></trkpt><trkpt lat="21.867879482419646" lon="-102.32816874861729"><ele>1844.5</ele><time>2026-03-22T13:05:46Z</time></trkpt><trkpt lat="21.867935517701408" lon="-102.32808799529441"><ele>1844.0</ele><time>2026-03-22T13:05:47Z</time></trkpt><trkpt lat="21.86806582111997" lon="-102.32808054430592"><ele>1843.5</ele><time>2026-03-22T13:05:48Z</time></trkpt><trkpt lat="21.868106241738168" lon="-102.32802251686834"><ele>1843.0</ele><time>2026-03-22T13:05:49Z</time></trkpt><trkpt lat="21.86797052283194" lon="-102.32781262240377"><ele>1843.0</ele><time>2026-03-22T13:05:50Z</time></trkpt><trkpt lat="21.868041414812897" lon="-102.3276926619571"><ele>1843.0</ele><time>2026-03-22T13:05:51Z</time></trkpt><trkpt lat="21.868130833257815" lon="-102.32754027384485"><ele>1843.0</ele><time>2026-03-22T13:05:52Z</time></trkpt><trkpt lat="21.86821467272228" lon="-102.32739528296203"><ele>1843.0</ele><time>2026-03-22T13:05:54Z</time></trkpt><trkpt lat="21.86828115444232" lon="-102.32728143559858"><ele>1843.0</ele><time>2026-03-22T13:05:55Z</time></trkpt><trkpt lat="21.868340681875324" lon="-102.3271802708028"><ele>1843.0</ele><time>2026-03-22T13:05:56Z</time></trkpt><trkpt lat="21.868415506876403" lon="-102.32705750755412"><ele>1843.0</ele><time>2026-03-22T13:05:57Z</time></trkpt><trkpt lat="21.868468220079873" lon="-102.32697296868388"><ele>1842.6666666666667</ele><time>2026-03-22T13:05:58Z</time></trkpt><trkpt lat="21.868723310840195" lon="-102.32690490764453"><ele>1842.3333333333335</ele><time>2026-03-22T13:06:00Z</time></trkpt><trkpt lat="21.868765438790483" lon="-102.32682470314185"><ele>1842.0</ele><time>2026-03-22T13:06:01Z</time></trkpt><trkpt lat="21.868699493153983" lon="-102.32660146289034"><ele>1842.0</ele><time>2026-03-22T13:06:03Z</time></trkpt><trkpt lat="21.868752842287446" lon="-102.32651397613245"><ele>1842.0</ele><time>2026-03-22T13:06:04Z</time></trkpt><trkpt lat="21.86880770816477" lon="-102.32642400219014"><ele>1842.0</ele><time>2026-03-22T13:06:05Z</time></trkpt><trkpt lat="21.86887190321926" lon="-102.32628357171137"><ele>1842.0</ele><time>2026-03-22T13:06:07Z</time></trkpt><trkpt lat="21.868957845071947" lon="-102.32615745246879"><ele>1843.0</ele><time>2026-03-22T13:06:08Z</time></trkpt><trkpt lat="21.86901092783972" lon="-102.32607641202937"><ele>1844.0</ele><time>2026-03-22T13:06:09Z</time></trkpt><trkpt lat="21.869040611802046" lon="-102.32599299004161"><ele>1845.0</ele><time>2026-03-22T13:06:10Z</time></trkpt><trkpt lat="21.869109672723564" lon="-102.32587702375369"><ele>1846.0</ele><time>2026-03-22T13:06:11Z</time></trkpt><trkpt lat="21.869277611439504" lon="-102.32568933689737"><ele>1846.0</ele><time>2026-03-22T13:06:13Z</time></trkpt><trkpt lat="21.869406578234962" lon="-102.32558933995955"><ele>1846.0</ele><time>2026-03-22T13:06:14Z</time></trkpt><trkpt lat="21.869437329481457" lon="-102.32548238145779"><ele>1846.0</ele><time>2026-03-22T13:06:15Z</time></trkpt><trkpt lat="21.869544564187525" lon="-102.3253808817941"><ele>1846.0</ele><time>2026-03-22T13:06:17Z</time></trkpt><trkpt lat="21.86959302908923" lon="-102.32523817365939"><ele>1846.5</ele><time>2026-03-22T13:06:19Z</time></trkpt><trkpt lat="21.86966138794411" lon="-102.32513085390354"><ele>1847.0</ele><time>2026-03-22T13:06:20Z</time></trkpt><trkpt lat="21.869733954170666" lon="-102.32502735212586"><ele>1847.5</ele><time>2026-03-22T13:06:22Z</time></trkpt><trkpt lat="21.86964809808422" lon="-102.32490544002498"><ele>1848.0</ele><time>2026-03-22T13:06:23Z</time></trkpt><trkpt lat="21.869679203796352" lon="-102.32482557544093"><ele>1847.2</ele><time>2026-03-22T13:06:24Z</time></trkpt><trkpt lat="21.86973074357196" lon="-102.32472410948166"><ele>1846.4</ele><time>2026-03-22T13:06:25Z</time></trkpt><trkpt lat="21.869757831233837" lon="-102.32462709018093"><ele>1845.6000000000001</ele><time>2026-03-22T13:06:26Z</time></trkpt><trkpt lat="21.869803341510497" lon="-102.32450375388743"><ele>1844.8000000000002</ele><time>2026-03-22T13:06:27Z</time></trkpt><trkpt lat="21.869841251787747" lon="-102.32439980234061"><ele>1844.0</ele><time>2026-03-22T13:06:28Z</time></trkpt><trkpt lat="21.869875314919238" lon="-102.32428612717818"><ele>1844.0</ele><time>2026-03-22T13:06:29Z</time></trkpt><trkpt lat="21.869898459534756" lon="-102.32417686119048"><ele>1844.0</ele><time>2026-03-22T13:06:30Z</time></trkpt><trkpt lat="21.86992637000918" lon="-102.32408305930872"><ele>1844.0</ele><time>2026-03-22T13:06:31Z</time></trkpt><trkpt lat="21.869969601841504" lon="-102.32394017441071"><ele>1844.0</ele><time>2026-03-22T13:06:32Z</time></trkpt><trkpt lat="21.869991091295358" lon="-102.32387121630286"><ele>1844.0</ele><time>2026-03-22T13:06:33Z</time></trkpt><trkpt lat="21.870033723243328" lon="-102.32374095635022"><ele>1844.2</ele><time>2026-03-22T13:06:35Z</time></trkpt><trkpt lat="21.870061798432776" lon="-102.3236597183024"><ele>1844.4</ele><time>2026-03-22T13:06:36Z</time></trkpt><trkpt lat="21.87009162105968" lon="-102.32357540049563"><ele>1844.6</ele><time>2026-03-22T13:06:37Z</time></trkpt><trkpt lat="21.87013625255481" lon="-102.32349827958669"><ele>1844.8</ele><time>2026-03-22T13:06:38Z</time></trkpt><trkpt lat="21.87017634106861" lon="-102.32339159793945"><ele>1845.0</ele><time>2026-03-22T13:06:39Z</time></trkpt><trkpt lat="21.87023523158752" lon="-102.32326460389329"><ele>1845.0</ele><time>2026-03-22T13:06:40Z</time></trkpt><trkpt lat="21.870289956873904" lon="-102.32315337418864"><ele>1845.0</ele><time>2026-03-22T13:06:41Z</time></trkpt><trkpt lat="21.870373911819136" lon="-102.32310646328774"><ele>1845.0</ele><time>2026-03-22T13:06:42Z</time></trkpt><trkpt lat="21.870455404297754" lon="-102.32300638728672"><ele>1845.0</ele><time>2026-03-22T13:06:43Z</time></trkpt><trkpt lat="21.870542822272128" lon="-102.32292528645785"><ele>1845.0</ele><time>2026-03-22T13:06:44Z</time></trkpt><trkpt lat="21.87062470197348" lon="-102.32285264656433"><ele>1845.0</ele><time>2026-03-22T13:06:45Z</time></trkpt><trkpt lat="21.870676414318485" lon="-102.32279371445004"><ele>1845.0</ele><time>2026-03-22T13:06:46Z</time></trkpt><trkpt lat="21.870717864258367" lon="-102.32271230557194"><ele>1845.0</ele><time>2026-03-22T13:06:47Z</time></trkpt><trkpt lat="21.870706345315323" lon="-102.3226093655475"><ele>1845.0</ele><time>2026-03-22T13:06:48Z</time></trkpt><trkpt lat="21.870798850015095" lon="-102.32255824374423"><ele>1845.0</ele><time>2026-03-22T13:06:49Z</time></trkpt><trkpt lat="21.870868850777534" lon="-102.32252545122073"><ele>1845.0</ele><time>2026-03-22T13:06:50Z</time></trkpt><trkpt lat="21.870918206407826" lon="-102.32246746993586"><ele>1845.0</ele><time>2026-03-22T13:06:52Z</time></trkpt><trkpt lat="21.870983220555797" lon="-102.3224113557997"><ele>1845.0</ele><time>2026-03-22T13:06:53Z</time></trkpt><trkpt lat="21.871067988236295" lon="-102.32238095820635"><ele>1845.0</ele><time>2026-03-22T13:06:54Z</time></trkpt><trkpt lat="21.87110495715116" lon="-102.32227863964255"><ele>1845.0</ele><time>2026-03-22T13:06:55Z</time></trkpt><trkpt lat="21.87118744804037" lon="-102.32219688950862"><ele>1844.8</ele><time>2026-03-22T13:06:57Z</time></trkpt><trkpt lat="21.871281451024313" lon="-102.32222416236115"><ele>1844.6</ele><time>2026-03-22T13:06:58Z</time></trkpt><trkpt lat="21.87134662121153" lon="-102.32231327812613"><ele>1844.4</ele><time>2026-03-22T13:06:59Z</time></trkpt><trkpt lat="21.871446109073407" lon="-102.32240456994569"><ele>1844.2</ele><time>2026-03-22T13:07:01Z</time></trkpt><trkpt lat="21.871459569458953" lon="-102.32251979538954"><ele>1844.0</ele><time>2026-03-22T13:07:02Z</time></trkpt><trkpt lat="21.87150215344512" lon="-102.32263154421459"><ele>1844.3333333333333</ele><time>2026-03-22T13:07:03Z</time></trkpt><trkpt lat="21.871469217556992" lon="-102.32275197971762"><ele>1844.6666666666665</ele><time>2026-03-22T13:07:04Z</time></trkpt><trkpt lat="21.871452246532723" lon="-102.32282098190962"><ele>1845.0</ele><time>2026-03-22T13:07:05Z</time></trkpt><trkpt lat="21.8714474571567" lon="-102.32291876642479"><ele>1845.3333333333335</ele><time>2026-03-22T13:07:06Z</time></trkpt><trkpt lat="21.871451868092375" lon="-102.32299011916757"><ele>1845.6666666666667</ele><time>2026-03-22T13:07:07Z</time></trkpt><trkpt lat="21.871499861923816" lon="-102.32308020853324"><ele>1846.0</ele><time>2026-03-22T13:07:08Z</time></trkpt><trkpt lat="21.87151326732367" lon="-102.32316437128996"><ele>1846.25</ele><time>2026-03-22T13:07:09Z</time></trkpt><trkpt lat="21.87154431492223" lon="-102.32328638438182"><ele>1846.5</ele><time>2026-03-22T13:07:10Z</time></trkpt><trkpt lat="21.87158059005268" lon="-102.32338280606838"><ele>1846.75</ele><time>2026-03-22T13:07:12Z</time></trkpt><trkpt lat="21.87160368538169" lon="-102.32355424455416"><ele>1847.0</ele><time>2026-03-22T13:07:14Z</time></trkpt><trkpt lat="21.871618441018263" lon="-102.32366499882674"><ele>1847.0</ele><time>2026-03-22T13:07:16Z</time></trkpt><trkpt lat="21.871643755290258" lon="-102.32376195322927"><ele>1846.9999999999998</ele><time>2026-03-22T13:07:17Z</time></trkpt><trkpt lat="21.871644677206575" lon="-102.32386470778926"><ele>1846.9999999999998</ele><time>2026-03-22T13:07:18Z</time></trkpt><trkpt lat="21.87166445875709" lon="-102.32401528424683"><ele>1847.0</ele><time>2026-03-22T13:07:20Z</time></trkpt><trkpt lat="21.871686475400903" lon="-102.32412408301055"><ele>1847.0</ele><time>2026-03-22T13:07:21Z</time></trkpt><trkpt lat="21.87170208259577" lon="-102.32429509317332"><ele>1846.8</ele><time>2026-03-22T13:07:23Z</time></trkpt><trkpt lat="21.871714904237653" lon="-102.32439219235349"><ele>1846.6</ele><time>2026-03-22T13:07:24Z</time></trkpt><trkpt lat="21.871725581874603" lon="-102.32447173588318"><ele>1846.3999999999999</ele><time>2026-03-22T13:07:25Z</time></trkpt><trkpt lat="21.871736702145533" lon="-102.3245564420699"><ele>1846.1999999999998</ele><time>2026-03-22T13:07:26Z</time></trkpt><trkpt lat="21.871751510692082" lon="-102.32466924295916"><ele>1846.0</ele><time>2026-03-22T13:07:28Z</time></trkpt><trkpt lat="21.87176689164992" lon="-102.32478328399338"><ele>1846.0</ele><time>2026-03-22T13:07:29Z</time></trkpt><trkpt lat="21.871783754170178" lon="-102.3249040302031"><ele>1846.0</ele><time>2026-03-22T13:07:30Z</time></trkpt><trkpt lat="21.871798998879093" lon="-102.32501319197978"><ele>1846.0</ele><time>2026-03-22T13:07:32Z</time></trkpt><trkpt lat="21.871815861973044" lon="-102.32513394232913"><ele>1846.0</ele><time>2026-03-22T13:07:33Z</time></trkpt><trkpt lat="21.871847001664403" lon="-102.32527239420425"><ele>1846.0000000000002</ele><time>2026-03-22T13:07:35Z</time></trkpt><trkpt lat="21.871851102802413" lon="-102.32537571818159"><ele>1846.0</ele><time>2026-03-22T13:07:36Z</time></trkpt><trkpt lat="21.871863830901216" lon="-102.32546198204099"><ele>1846.0</ele><time>2026-03-22T13:07:37Z</time></trkpt><trkpt lat="21.871877836423867" lon="-102.32555690355262"><ele>1846.0</ele><time>2026-03-22T13:07:38Z</time></trkpt><trkpt lat="21.871890723009635" lon="-102.32564424148235"><ele>1846.0000000000002</ele><time>2026-03-22T13:07:39Z</time></trkpt><trkpt lat="21.87190106499231" lon="-102.32571556886872"><ele>1846.0</ele><time>2026-03-22T13:07:40Z</time></trkpt><trkpt lat="21.871911254018066" lon="-102.32578560268962"><ele>1846.8333333333335</ele><time>2026-03-22T13:07:41Z</time></trkpt><trkpt lat="21.87193479415235" lon="-102.32589792904021"><ele>1847.6666666666667</ele><time>2026-03-22T13:07:43Z</time></trkpt><trkpt lat="21.87194253156786" lon="-102.32597882801024"><ele>1848.5</ele><time>2026-03-22T13:07:44Z</time></trkpt><trkpt lat="21.871949343750124" lon="-102.32605526137279"><ele>1849.3333333333335</ele><time>2026-03-22T13:07:45Z</time></trkpt><trkpt lat="21.87195510198663" lon="-102.32613043940574"><ele>1850.1666666666667</ele><time>2026-03-22T13:07:46Z</time></trkpt><trkpt lat="21.87196453540506" lon="-102.32620839030697"><ele>1851.0</ele><time>2026-03-22T13:07:47Z</time></trkpt><trkpt lat="21.871970976436813" lon="-102.32628128238792"><ele>1851.0</ele><time>2026-03-22T13:07:48Z</time></trkpt><trkpt lat="21.87197300422404" lon="-102.32635436573905"><ele>1851.0</ele><time>2026-03-22T13:07:49Z</time></trkpt><trkpt lat="21.87222650149085" lon="-102.32650709099869"><ele>1851.0</ele><time>2026-03-22T13:07:51Z</time></trkpt><trkpt lat="21.87223780696785" lon="-102.32658866034178"><ele>1851.0</ele><time>2026-03-22T13:07:52Z</time></trkpt><trkpt lat="21.872206838523176" lon="-102.32673296211999"><ele>1852.0</ele><time>2026-03-22T13:07:53Z</time></trkpt><trkpt lat="21.872058774958887" lon="-102.32685071934155"><ele>1853.0</ele><time>2026-03-22T13:07:54Z</time></trkpt><trkpt lat="21.87207256268084" lon="-102.32692767565848"><ele>1854.0</ele><time>2026-03-22T13:07:56Z</time></trkpt><trkpt lat="21.872084772991812" lon="-102.32699582760634"><ele>1855.0</ele><time>2026-03-22T13:07:57Z</time></trkpt><trkpt lat="21.87210443620269" lon="-102.32714077832352"><ele>1854.6</ele><time>2026-03-22T13:08:00Z</time></trkpt><trkpt lat="21.87212947147778" lon="-102.32729944241679"><ele>1854.2</ele><time>2026-03-22T13:08:02Z</time></trkpt><trkpt lat="21.872142028297823" lon="-102.3273782190688"><ele>1853.8000000000002</ele><time>2026-03-22T13:08:03Z</time></trkpt><trkpt lat="21.872155460181283" lon="-102.32746043301803"><ele>1853.4</ele><time>2026-03-22T13:08:04Z</time></trkpt><trkpt lat="21.872184066953675" lon="-102.32758699538911"><ele>1853.0</ele><time>2026-03-22T13:08:06Z</time></trkpt><trkpt lat="21.872205110275168" lon="-102.32768365992861"><ele>1853.0</ele><time>2026-03-22T13:08:08Z</time></trkpt><trkpt lat="21.872243519249132" lon="-102.32778292859132"><ele>1853.0</ele><time>2026-03-22T13:08:10Z</time></trkpt><trkpt lat="21.87232234832245" lon="-102.32780944414364"><ele>1853.0</ele><time>2026-03-22T13:08:12Z</time></trkpt><trkpt lat="21.87244925544556" lon="-102.32799013178705"><ele>1853.0</ele><time>2026-03-22T13:08:14Z</time></trkpt><trkpt lat="21.87245812126873" lon="-102.32806972503828"><ele>1853.0</ele><time>2026-03-22T13:08:15Z</time></trkpt><trkpt lat="21.87244029561367" lon="-102.32818641965139"><ele>1853.0000000000002</ele><time>2026-03-22T13:08:16Z</time></trkpt><trkpt lat="21.872346528658756" lon="-102.32819297485743"><ele>1853.0000000000002</ele><time>2026-03-22T13:08:17Z</time></trkpt><trkpt lat="21.87227974446345" lon="-102.32827230125311"><ele>1853.0</ele><time>2026-03-22T13:08:18Z</time></trkpt><trkpt lat="21.872306486120326" lon="-102.32834933718243"><ele>1853.0</ele><time>2026-03-22T13:08:19Z</time></trkpt><trkpt lat="21.872347968642597" lon="-102.32842706530056"><ele>1852.9999999999998</ele><time>2026-03-22T13:08:20Z</time></trkpt><trkpt lat="21.87239595796258" lon="-102.32847876499386"><ele>1853.0</ele><time>2026-03-22T13:08:21Z</time></trkpt><trkpt lat="21.872420664769194" lon="-102.32856403442034"><ele>1853.0</ele><time>2026-03-22T13:08:22Z</time></trkpt><trkpt lat="21.87243771151567" lon="-102.32863284909988"><ele>1853.0</ele><time>2026-03-22T13:08:23Z</time></trkpt><trkpt lat="21.872450475382628" lon="-102.32873522141804"><ele>1852.9999999999998</ele><time>2026-03-22T13:08:24Z</time></trkpt><trkpt lat="21.872487102871318" lon="-102.32880340896469"><ele>1853.0</ele><time>2026-03-22T13:08:25Z</time></trkpt><trkpt lat="21.872516490208955" lon="-102.32891114333434"><ele>1853.25</ele><time>2026-03-22T13:08:27Z</time></trkpt><trkpt lat="21.872537063705877" lon="-102.32898656606253"><ele>1853.5</ele><time>2026-03-22T13:08:28Z</time></trkpt><trkpt lat="21.872568476438946" lon="-102.32910716125889"><ele>1853.75</ele><time>2026-03-22T13:08:31Z</time></trkpt><trkpt lat="21.872594684027483" lon="-102.32920988604926"><ele>1854.0</ele><time>2026-03-22T13:08:32Z</time></trkpt><trkpt lat="21.872637963171098" lon="-102.32937952527269"><ele>1854.0</ele><time>2026-03-22T13:08:34Z</time></trkpt><trkpt lat="21.872666320856766" lon="-102.32948539836957"><ele>1854.0</ele><time>2026-03-22T13:08:35Z</time></trkpt><trkpt lat="21.872704186657035" lon="-102.32961174848421"><ele>1854.0</ele><time>2026-03-22T13:08:36Z</time></trkpt><trkpt lat="21.872725448207664" lon="-102.32968269372262"><ele>1854.0</ele><time>2026-03-22T13:08:37Z</time></trkpt><trkpt lat="21.87274246556662" lon="-102.32977245631324"><ele>1854.0</ele><time>2026-03-22T13:08:38Z</time></trkpt><trkpt lat="21.872779255170215" lon="-102.32992944876587"><ele>1853.75</ele><time>2026-03-22T13:08:40Z</time></trkpt><trkpt lat="21.872811694451528" lon="-102.3300302074849"><ele>1853.5</ele><time>2026-03-22T13:08:42Z</time></trkpt><trkpt lat="21.87283375982281" lon="-102.33011217122977"><ele>1853.25</ele><time>2026-03-22T13:08:43Z</time></trkpt><trkpt lat="21.872860388365755" lon="-102.33029314142553"><ele>1853.0</ele><time>2026-03-22T13:08:44Z</time></trkpt><trkpt lat="21.872876307883637" lon="-102.33043237613661"><ele>1853.25</ele><time>2026-03-22T13:08:45Z</time></trkpt><trkpt lat="21.87292759314703" lon="-102.33062263519896"><ele>1853.5</ele><time>2026-03-22T13:08:46Z</time></trkpt><trkpt lat="21.872940443136" lon="-102.33073928713917"><ele>1853.75</ele><time>2026-03-22T13:08:47Z</time></trkpt><trkpt lat="21.872964927335328" lon="-102.33085918880674"><ele>1854.0</ele><time>2026-03-22T13:08:50Z</time></trkpt><trkpt lat="21.872987465927462" lon="-102.33094216869868"><ele>1854.0</ele><time>2026-03-22T13:08:51Z</time></trkpt><trkpt lat="21.8730300611269" lon="-102.3310989906135"><ele>1854.0</ele><time>2026-03-22T13:08:53Z</time></trkpt><trkpt lat="21.873065568565426" lon="-102.33115579641884"><ele>1854.0</ele><time>2026-03-22T13:08:54Z</time></trkpt><trkpt lat="21.873114320838123" lon="-102.33133767053737"><ele>1854.0</ele><time>2026-03-22T13:08:56Z</time></trkpt><trkpt lat="21.873115897329434" lon="-102.33140713270402"><ele>1853.8000000000002</ele><time>2026-03-22T13:08:57Z</time></trkpt><trkpt lat="21.87313501422724" lon="-102.33151549067253"><ele>1853.6000000000001</ele><time>2026-03-22T13:08:58Z</time></trkpt><trkpt lat="21.873161846647875" lon="-102.33160928888341"><ele>1853.4</ele><time>2026-03-22T13:08:59Z</time></trkpt><trkpt lat="21.873210729853064" lon="-102.3316889084893"><ele>1853.2</ele><time>2026-03-22T13:09:00Z</time></trkpt><trkpt lat="21.873228751290842" lon="-102.33180222405224"><ele>1853.0</ele><time>2026-03-22T13:09:01Z</time></trkpt><trkpt lat="21.873274822136768" lon="-102.33189472786306"><ele>1853.0</ele><time>2026-03-22T13:09:02Z</time></trkpt><trkpt lat="21.873322372284516" lon="-102.33196847622307"><ele>1853.0000000000002</ele><time>2026-03-22T13:09:03Z</time></trkpt><trkpt lat="21.8733504126661" lon="-102.33207825031802"><ele>1853.0000000000002</ele><time>2026-03-22T13:09:04Z</time></trkpt><trkpt lat="21.873381859150115" lon="-102.33219205664263"><ele>1853.0</ele><time>2026-03-22T13:09:05Z</time></trkpt><trkpt lat="21.873410678726955" lon="-102.33229635605674"><ele>1853.0</ele><time>2026-03-22T13:09:06Z</time></trkpt><trkpt lat="21.87343653481687" lon="-102.33238993051158"><ele>1853.0</ele><time>2026-03-22T13:09:07Z</time></trkpt><trkpt lat="21.873460222763164" lon="-102.33252347637666"><ele>1853.0000000000002</ele><time>2026-03-22T13:09:09Z</time></trkpt><trkpt lat="21.87345223321875" lon="-102.3326092016039"><ele>1853.0000000000002</ele><time>2026-03-22T13:09:10Z</time></trkpt><trkpt lat="21.87350794545447" lon="-102.33269165785684"><ele>1853.0</ele><time>2026-03-22T13:09:11Z</time></trkpt><trkpt lat="21.873546052967125" lon="-102.33277322097015"><ele>1853.0</ele><time>2026-03-22T13:09:12Z</time></trkpt><trkpt lat="21.873567636325692" lon="-102.33284841912175"><ele>1853.0</ele><time>2026-03-22T13:09:13Z</time></trkpt><trkpt lat="21.873589584132517" lon="-102.33292481678731"><ele>1853.0000000000002</ele><time>2026-03-22T13:09:14Z</time></trkpt><trkpt lat="21.873616243090684" lon="-102.33301683440443"><ele>1853.0000000000002</ele><time>2026-03-22T13:09:15Z</time></trkpt><trkpt lat="21.8736482412705" lon="-102.33312728119165"><ele>1853.0</ele><time>2026-03-22T13:09:16Z</time></trkpt><trkpt lat="21.87369737277863" lon="-102.33329686637605"><ele>1853.0</ele><time>2026-03-22T13:09:18Z</time></trkpt><trkpt lat="21.873740533655926" lon="-102.33344584298223"><ele>1853.0</ele><time>2026-03-22T13:09:19Z</time></trkpt><trkpt lat="21.873767946401653" lon="-102.33354046237584"><ele>1853.0000000000002</ele><time>2026-03-22T13:09:21Z</time></trkpt><trkpt lat="21.873794736716775" lon="-102.33363293339802"><ele>1853.0000000000002</ele><time>2026-03-22T13:09:22Z</time></trkpt><trkpt lat="21.873827962718366" lon="-102.33372353661086"><ele>1853.0</ele><time>2026-03-22T13:09:23Z</time></trkpt><trkpt lat="21.873846432243464" lon="-102.33382548397667"><ele>1853.0</ele><time>2026-03-22T13:09:24Z</time></trkpt><trkpt lat="21.873888864666466" lon="-102.33391515421071"><ele>1853.2</ele><time>2026-03-22T13:09:25Z</time></trkpt><trkpt lat="21.873920698495965" lon="-102.33405962053855"><ele>1853.4</ele><time>2026-03-22T13:09:27Z</time></trkpt><trkpt lat="21.873940873239846" lon="-102.33413595072876"><ele>1853.6000000000001</ele><time>2026-03-22T13:09:28Z</time></trkpt><trkpt lat="21.87395905779336" lon="-102.33422337352783"><ele>1853.8000000000002</ele><time>2026-03-22T13:09:29Z</time></trkpt><trkpt lat="21.873980944744858" lon="-102.33431240758723"><ele>1854.0</ele><time>2026-03-22T13:09:30Z</time></trkpt><trkpt lat="21.874003143320177" lon="-102.33440501748922"><ele>1854.0</ele><time>2026-03-22T13:09:31Z</time></trkpt><trkpt lat="21.87402992009261" lon="-102.33447110759927"><ele>1854.0</ele><time>2026-03-22T13:09:32Z</time></trkpt><trkpt lat="21.874041872182158" lon="-102.33454938505766"><ele>1854.0</ele><time>2026-03-22T13:09:33Z</time></trkpt><trkpt lat="21.87406341427737" lon="-102.33463370846415"><ele>1854.0</ele><time>2026-03-22T13:09:34Z</time></trkpt><trkpt lat="21.874086894989606" lon="-102.334713053726"><ele>1854.0</ele><time>2026-03-22T13:09:35Z</time></trkpt><trkpt lat="21.874123881011975" lon="-102.33482646554265"><ele>1854.0</ele><time>2026-03-22T13:09:36Z</time></trkpt><trkpt lat="21.87413591044916" lon="-102.33494779885541"><ele>1854.2</ele><time>2026-03-22T13:09:38Z</time></trkpt><trkpt lat="21.874128670841415" lon="-102.33509717467115"><ele>1854.4</ele><time>2026-03-22T13:09:39Z</time></trkpt><trkpt lat="21.874146741393023" lon="-102.33518703258049"><ele>1854.6</ele><time>2026-03-22T13:09:40Z</time></trkpt><trkpt lat="21.874157381813145" lon="-102.3352731600307"><ele>1854.8</ele><time>2026-03-22T13:09:41Z</time></trkpt><trkpt lat="21.87416402435718" lon="-102.33539396883515"><ele>1855.0</ele><time>2026-03-22T13:09:42Z</time></trkpt><trkpt lat="21.874184071559167" lon="-102.33545833378024"><ele>1854.5</ele><time>2026-03-22T13:09:43Z</time></trkpt><trkpt lat="21.874013262433472" lon="-102.33570393365272"><ele>1854.0</ele><time>2026-03-22T13:09:44Z</time></trkpt><trkpt lat="21.874135296509316" lon="-102.33583067041386"><ele>1854.0</ele><time>2026-03-22T13:09:47Z</time></trkpt><trkpt lat="21.8742234139183" lon="-102.33586620123637"><ele>1854.0</ele><time>2026-03-22T13:09:48Z</time></trkpt><trkpt lat="21.874259046814007" lon="-102.33598697877774"><ele>1854.0</ele><time>2026-03-22T13:09:50Z</time></trkpt><trkpt lat="21.874305636686536" lon="-102.33606269481274"><ele>1854.0</ele><time>2026-03-22T13:09:51Z</time></trkpt><trkpt lat="21.8743073400059" lon="-102.33617331115926"><ele>1854.0</ele><time>2026-03-22T13:09:52Z</time></trkpt><trkpt lat="21.87436011545212" lon="-102.33627472385419"><ele>1855.0</ele><time>2026-03-22T13:09:53Z</time></trkpt><trkpt lat="21.87441758740863" lon="-102.33642555236067"><ele>1856.0</ele><time>2026-03-22T13:09:55Z</time></trkpt><trkpt lat="21.874441746191625" lon="-102.33659200288706"><ele>1857.0</ele><time>2026-03-22T13:09:57Z</time></trkpt><trkpt lat="21.874499202147867" lon="-102.33667067079162"><ele>1858.0</ele><time>2026-03-22T13:09:58Z</time></trkpt><trkpt lat="21.874474601381436" lon="-102.33678755743058"><ele>1858.0</ele><time>2026-03-22T13:09:59Z</time></trkpt><trkpt lat="21.87451289470578" lon="-102.33686502958533"><ele>1858.0000000000002</ele><time>2026-03-22T13:10:00Z</time></trkpt><trkpt lat="21.874575766595047" lon="-102.3369484144226"><ele>1858.0000000000002</ele><time>2026-03-22T13:10:01Z</time></trkpt><trkpt lat="21.874582017993824" lon="-102.33706422813401"><ele>1858.0</ele><time>2026-03-22T13:10:02Z</time></trkpt><trkpt lat="21.87467168071274" lon="-102.33718381326119"><ele>1858.0</ele><time>2026-03-22T13:10:04Z</time></trkpt><trkpt lat="21.874717445909543" lon="-102.33729130611152"><ele>1857.8000000000002</ele><time>2026-03-22T13:10:05Z</time></trkpt><trkpt lat="21.874732979412947" lon="-102.33740094461122"><ele>1857.6000000000001</ele><time>2026-03-22T13:10:06Z</time></trkpt><trkpt lat="21.87471333293178" lon="-102.33750244091964"><ele>1857.3999999999999</ele><time>2026-03-22T13:10:07Z</time></trkpt><trkpt lat="21.8747624449974" lon="-102.3376049276386"><ele>1857.1999999999998</ele><time>2026-03-22T13:10:08Z</time></trkpt><trkpt lat="21.874807637610594" lon="-102.33772142757695"><ele>1857.0</ele><time>2026-03-22T13:10:09Z</time></trkpt><trkpt lat="21.874820729056246" lon="-102.33779723283897"><ele>1857.0</ele><time>2026-03-22T13:10:10Z</time></trkpt><trkpt lat="21.874855637282476" lon="-102.33792034825962"><ele>1857.0</ele><time>2026-03-22T13:10:11Z</time></trkpt><trkpt lat="21.875008789434762" lon="-102.33797948346486"><ele>1857.0</ele><time>2026-03-22T13:10:12Z</time></trkpt><trkpt lat="21.875084958407246" lon="-102.33804477615253"><ele>1857.0</ele><time>2026-03-22T13:10:13Z</time></trkpt><trkpt lat="21.87514841615941" lon="-102.33810300414193"><ele>1856.3999999999999</ele><time>2026-03-22T13:10:15Z</time></trkpt><trkpt lat="21.875181120138453" lon="-102.33824336465861"><ele>1855.7999999999997</ele><time>2026-03-22T13:10:17Z</time></trkpt><trkpt lat="21.875173779703918" lon="-102.33833669385682"><ele>1855.2</ele><time>2026-03-22T13:10:18Z</time></trkpt><trkpt lat="21.875218788339684" lon="-102.33839146403746"><ele>1854.6</ele><time>2026-03-22T13:10:19Z</time></trkpt><trkpt lat="21.875237354067096" lon="-102.33850081653283"><ele>1854.0</ele><time>2026-03-22T13:10:20Z</time></trkpt><trkpt lat="21.875257747689464" lon="-102.3387248583765"><ele>1854.0</ele><time>2026-03-22T13:10:21Z</time></trkpt><trkpt lat="21.8752657554023" lon="-102.33880689535516"><ele>1854.0</ele><time>2026-03-22T13:10:22Z</time></trkpt><trkpt lat="21.87519270273524" lon="-102.33897476923013"><ele>1854.0</ele><time>2026-03-22T13:10:23Z</time></trkpt><trkpt lat="21.87528731855402" lon="-102.33907153750633"><ele>1854.0</ele><time>2026-03-22T13:10:25Z</time></trkpt><trkpt lat="21.875323836777696" lon="-102.3391439805419"><ele>1854.6</ele><time>2026-03-22T13:10:26Z</time></trkpt><trkpt lat="21.875391976577898" lon="-102.33919869647262"><ele>1855.2</ele><time>2026-03-22T13:10:27Z</time></trkpt><trkpt lat="21.87542363498353" lon="-102.33930864482973"><ele>1855.7999999999997</ele><time>2026-03-22T13:10:28Z</time></trkpt><trkpt lat="21.87549092147706" lon="-102.33941491430562"><ele>1856.3999999999999</ele><time>2026-03-22T13:10:30Z</time></trkpt><trkpt lat="21.87549541612325" lon="-102.33956270167754"><ele>1857.0</ele><time>2026-03-22T13:10:31Z</time></trkpt><trkpt lat="21.87555397605119" lon="-102.33966852216474"><ele>1857.3999999999999</ele><time>2026-03-22T13:10:33Z</time></trkpt><trkpt lat="21.875612096780625" lon="-102.33973641358995"><ele>1857.7999999999997</ele><time>2026-03-22T13:10:34Z</time></trkpt><trkpt lat="21.875436738695484" lon="-102.33987932771417"><ele>1858.2</ele><time>2026-03-22T13:10:35Z</time></trkpt><trkpt lat="21.87545874837588" lon="-102.33996023285735"><ele>1858.6</ele><time>2026-03-22T13:10:36Z</time></trkpt><trkpt lat="21.875477522315478" lon="-102.34002713022448"><ele>1859.0</ele><time>2026-03-22T13:10:37Z</time></trkpt><trkpt lat="21.87551645971415" lon="-102.34017119031007"><ele>1858.9999999999998</ele><time>2026-03-22T13:10:39Z</time></trkpt><trkpt lat="21.87553806934101" lon="-102.34025114136612"><ele>1859.0</ele><time>2026-03-22T13:10:40Z</time></trkpt><trkpt lat="21.875557335065896" lon="-102.34032242048315"><ele>1859.0</ele><time>2026-03-22T13:10:41Z</time></trkpt><trkpt lat="21.875604539531608" lon="-102.34044558150158"><ele>1859.0</ele><time>2026-03-22T13:10:42Z</time></trkpt><trkpt lat="21.875622830245074" lon="-102.34053668436044"><ele>1858.9999999999998</ele><time>2026-03-22T13:10:43Z</time></trkpt><trkpt lat="21.875636553186826" lon="-102.34061045393742"><ele>1859.0</ele><time>2026-03-22T13:10:44Z</time></trkpt><trkpt lat="21.87566163474719" lon="-102.34076371432552"><ele>1859.8000000000002</ele><time>2026-03-22T13:10:46Z</time></trkpt><trkpt lat="21.875661424178496" lon="-102.34089366323174"><ele>1860.6000000000001</ele><time>2026-03-22T13:10:48Z</time></trkpt><trkpt lat="21.87569403255368" lon="-102.34099302598293"><ele>1861.4</ele><time>2026-03-22T13:10:49Z</time></trkpt><trkpt lat="21.875735329098013" lon="-102.34107135761643"><ele>1862.2</ele><time>2026-03-22T13:10:50Z</time></trkpt><trkpt lat="21.87573961949742" lon="-102.34115953456866"><ele>1863.0</ele><time>2026-03-22T13:10:51Z</time></trkpt><trkpt lat="21.87577442993843" lon="-102.34123348743091"><ele>1863.0</ele><time>2026-03-22T13:10:52Z</time></trkpt><trkpt lat="21.87581278723641" lon="-102.34133262930143"><ele>1863.0</ele><time>2026-03-22T13:10:53Z</time></trkpt><trkpt lat="21.875804387704687" lon="-102.34148753042489"><ele>1863.0</ele><time>2026-03-22T13:10:54Z</time></trkpt><trkpt lat="21.875878418916404" lon="-102.34188453661618"><ele>1862.5</ele><time>2026-03-22T13:10:59Z</time></trkpt><trkpt lat="21.875893458951648" lon="-102.3419749378669"><ele>1862.0</ele><time>2026-03-22T13:11:00Z</time></trkpt><trkpt lat="21.875913674529148" lon="-102.34207224734772"><ele>1861.5</ele><time>2026-03-22T13:11:01Z</time></trkpt><trkpt lat="21.87593945362527" lon="-102.3421689745287"><ele>1861.0</ele><time>2026-03-22T13:11:02Z</time></trkpt><trkpt lat="21.87594879105744" lon="-102.34224799003958"><ele>1860.5</ele><time>2026-03-22T13:11:03Z</time></trkpt><trkpt lat="21.87597779427915" lon="-102.34234432181411"><ele>1860.0</ele><time>2026-03-22T13:11:04Z</time></trkpt><trkpt lat="21.876012759060952" lon="-102.34245504075459"><ele>1859.6</ele><time>2026-03-22T13:11:05Z</time></trkpt><trkpt lat="21.876084193941285" lon="-102.34251246296033"><ele>1859.2</ele><time>2026-03-22T13:11:06Z</time></trkpt><trkpt lat="21.87614062732142" lon="-102.34260632436406"><ele>1858.8000000000002</ele><time>2026-03-22T13:11:07Z</time></trkpt><trkpt lat="21.8761954979528" lon="-102.34271023395851"><ele>1858.4</ele><time>2026-03-22T13:11:08Z</time></trkpt><trkpt lat="21.876239315323613" lon="-102.34281286807284"><ele>1858.0</ele><time>2026-03-22T13:11:09Z</time></trkpt><trkpt lat="21.876264701980116" lon="-102.34293367825691"><ele>1858.0</ele><time>2026-03-22T13:11:10Z</time></trkpt><trkpt lat="21.876286986330303" lon="-102.34304685750321"><ele>1858.0000000000002</ele><time>2026-03-22T13:11:11Z</time></trkpt><trkpt lat="21.876316290456174" lon="-102.34315887763208"><ele>1858.0000000000002</ele><time>2026-03-22T13:11:12Z</time></trkpt><trkpt lat="21.876333388931652" lon="-102.3432733284811"><ele>1858.0</ele><time>2026-03-22T13:11:13Z</time></trkpt><trkpt lat="21.87634343077368" lon="-102.34337716787826"><ele>1858.0</ele><time>2026-03-22T13:11:14Z</time></trkpt><trkpt lat="21.876377559742828" lon="-102.34346435495071"><ele>1858.0</ele><time>2026-03-22T13:11:15Z</time></trkpt><trkpt lat="21.876247100465136" lon="-102.34354122240362"><ele>1858.0</ele><time>2026-03-22T13:11:16Z</time></trkpt><trkpt lat="21.876346043258476" lon="-102.34359955685429"><ele>1858.0</ele><time>2026-03-22T13:11:17Z</time></trkpt><trkpt lat="21.87641346733839" lon="-102.34375707988161"><ele>1858.0</ele><time>2026-03-22T13:11:19Z</time></trkpt><trkpt lat="21.876497744584036" lon="-102.34390465070454"><ele>1858.0</ele><time>2026-03-22T13:11:20Z</time></trkpt><trkpt lat="21.87658436200487" lon="-102.34399327298347"><ele>1858.0000000000002</ele><time>2026-03-22T13:11:21Z</time></trkpt><trkpt lat="21.876617050737504" lon="-102.34409618726391"><ele>1858.0000000000002</ele><time>2026-03-22T13:11:22Z</time></trkpt><trkpt lat="21.876649674079484" lon="-102.3441787384279"><ele>1858.0</ele><time>2026-03-22T13:11:23Z</time></trkpt><trkpt lat="21.876679680176004" lon="-102.3442735977231"><ele>1858.0</ele><time>2026-03-22T13:11:24Z</time></trkpt><trkpt lat="21.876714893710353" lon="-102.34437032568516"><ele>1858.0000000000002</ele><time>2026-03-22T13:11:25Z</time></trkpt><trkpt lat="21.876731819504794" lon="-102.34446086896065"><ele>1858.0</ele><time>2026-03-22T13:11:26Z</time></trkpt><trkpt lat="21.876753421368186" lon="-102.34454948851517"><ele>1858.0</ele><time>2026-03-22T13:11:27Z</time></trkpt><trkpt lat="21.87675998853562" lon="-102.34464344015338"><ele>1858.0</ele><time>2026-03-22T13:11:28Z</time></trkpt><trkpt lat="21.876792157226767" lon="-102.34471888414132"><ele>1858.0000000000002</ele><time>2026-03-22T13:11:29Z</time></trkpt><trkpt lat="21.87681361556471" lon="-102.34482953283752"><ele>1858.0</ele><time>2026-03-22T13:11:30Z</time></trkpt><trkpt lat="21.876831674346427" lon="-102.34489725615614"><ele>1857.8000000000002</ele><time>2026-03-22T13:11:31Z</time></trkpt><trkpt lat="21.876834554266615" lon="-102.34498974132299"><ele>1857.6000000000001</ele><time>2026-03-22T13:11:32Z</time></trkpt><trkpt lat="21.876838489833" lon="-102.34510506503854"><ele>1857.3999999999999</ele><time>2026-03-22T13:11:33Z</time></trkpt><trkpt lat="21.87684628075719" lon="-102.34519901013499"><ele>1857.1999999999998</ele><time>2026-03-22T13:11:34Z</time></trkpt><trkpt lat="21.876877528684844" lon="-102.34528355747635"><ele>1857.0</ele><time>2026-03-22T13:11:35Z</time></trkpt><trkpt lat="21.876888948001433" lon="-102.34537884984167"><ele>1857.0</ele><time>2026-03-22T13:11:36Z</time></trkpt><trkpt lat="21.87690824208331" lon="-102.34546867580936"><ele>1856.9999999999998</ele><time>2026-03-22T13:11:37Z</time></trkpt><trkpt lat="21.876913144372185" lon="-102.3455524914672"><ele>1856.9999999999998</ele><time>2026-03-22T13:11:38Z</time></trkpt><trkpt lat="21.876915865171632" lon="-102.34565769461389"><ele>1857.0</ele><time>2026-03-22T13:11:39Z</time></trkpt><trkpt lat="21.87693463913693" lon="-102.34573793425916"><ele>1857.0</ele><time>2026-03-22T13:11:40Z</time></trkpt><trkpt lat="21.876965017046455" lon="-102.34585820969029"><ele>1856.6666666666665</ele><time>2026-03-22T13:11:41Z</time></trkpt><trkpt lat="21.876991907884243" lon="-102.34597416898637"><ele>1856.3333333333333</ele><time>2026-03-22T13:11:42Z</time></trkpt><trkpt lat="21.876977356072032" lon="-102.34615276907412"><ele>1856.0</ele><time>2026-03-22T13:11:43Z</time></trkpt><trkpt lat="21.87675247128686" lon="-102.34628063731171"><ele>1855.5</ele><time>2026-03-22T13:11:44Z</time></trkpt><trkpt lat="21.87715161444048" lon="-102.34643449904222"><ele>1855.0</ele><time>2026-03-22T13:11:45Z</time></trkpt><trkpt lat="21.877172133029173" lon="-102.34651388758074"><ele>1855.0</ele><time>2026-03-22T13:11:47Z</time></trkpt><trkpt lat="21.87720593261507" lon="-102.34663956717921"><ele>1855.0</ele><time>2026-03-22T13:11:48Z</time></trkpt><trkpt lat="21.877233469515378" lon="-102.34674061802522"><ele>1855.0</ele><time>2026-03-22T13:11:49Z</time></trkpt><trkpt lat="21.87726356149869" lon="-102.34685222920403"><ele>1855.0</ele><time>2026-03-22T13:11:50Z</time></trkpt><trkpt lat="21.87728624816511" lon="-102.34693621536222"><ele>1855.0</ele><time>2026-03-22T13:11:51Z</time></trkpt><trkpt lat="21.877318614377632" lon="-102.34703250164758"><ele>1855.0</ele><time>2026-03-22T13:11:52Z</time></trkpt><trkpt lat="21.877345740753658" lon="-102.34714717170337"><ele>1855.0</ele><time>2026-03-22T13:11:53Z</time></trkpt><trkpt lat="21.877362962270322" lon="-102.34724615362744"><ele>1855.0</ele><time>2026-03-22T13:11:54Z</time></trkpt><trkpt lat="21.87738503506561" lon="-102.34736001458855"><ele>1855.0</ele><time>2026-03-22T13:11:55Z</time></trkpt><trkpt lat="21.8774036891522" lon="-102.34743563673554"><ele>1855.0</ele><time>2026-03-22T13:11:56Z</time></trkpt><trkpt lat="21.87743943258946" lon="-102.34755724348592"><ele>1855.4</ele><time>2026-03-22T13:11:58Z</time></trkpt><trkpt lat="21.877462013654654" lon="-102.34766219585417"><ele>1855.8</ele><time>2026-03-22T13:11:59Z</time></trkpt><trkpt lat="21.877481972975556" lon="-102.34777055205862"><ele>1856.1999999999998</ele><time>2026-03-22T13:12:00Z</time></trkpt><trkpt lat="21.877512314525863" lon="-102.34788110697883"><ele>1856.6</ele><time>2026-03-22T13:12:01Z</time></trkpt><trkpt lat="21.877539264368572" lon="-102.34798735912409"><ele>1857.0</ele><time>2026-03-22T13:12:02Z</time></trkpt><trkpt lat="21.877564888500086" lon="-102.34809562939185"><ele>1857.0</ele><time>2026-03-22T13:12:03Z</time></trkpt><trkpt lat="21.87759593173747" lon="-102.34820618250164"><ele>1856.9999999999998</ele><time>2026-03-22T13:12:04Z</time></trkpt><trkpt lat="21.87761895126899" lon="-102.3483171518139"><ele>1856.9999999999998</ele><time>2026-03-22T13:12:05Z</time></trkpt><trkpt lat="21.877643395314358" lon="-102.34842232977164"><ele>1857.0</ele><time>2026-03-22T13:12:06Z</time></trkpt><trkpt lat="21.877663506291736" lon="-102.34851326365002"><ele>1857.0</ele><time>2026-03-22T13:12:07Z</time></trkpt><trkpt lat="21.877719616874767" lon="-102.34854846672808"><ele>1857.0</ele><time>2026-03-22T13:12:08Z</time></trkpt><trkpt lat="21.877708893483668" lon="-102.34877035787125"><ele>1857.0</ele><time>2026-03-22T13:12:09Z</time></trkpt><trkpt lat="21.877821256600495" lon="-102.34892751298796"><ele>1857.0</ele><time>2026-03-22T13:12:10Z</time></trkpt><trkpt lat="21.87787017750181" lon="-102.34910418065384"><ele>1857.0</ele><time>2026-03-22T13:12:11Z</time></trkpt><trkpt lat="21.877912012318447" lon="-102.34925510195332"><ele>1857.0</ele><time>2026-03-22T13:12:12Z</time></trkpt><trkpt lat="21.87794051902239" lon="-102.34935770194596"><ele>1857.0</ele><time>2026-03-22T13:12:13Z</time></trkpt><trkpt lat="21.877976279786083" lon="-102.34948641047154"><ele>1857.0</ele><time>2026-03-22T13:12:15Z</time></trkpt><trkpt lat="21.878001985976066" lon="-102.34957893096595"><ele>1857.0</ele><time>2026-03-22T13:12:16Z</time></trkpt><trkpt lat="21.87802796295437" lon="-102.34967242614911"><ele>1856.9999999999998</ele><time>2026-03-22T13:12:17Z</time></trkpt><trkpt lat="21.878052163361904" lon="-102.34975952712108"><ele>1856.9999999999998</ele><time>2026-03-22T13:12:18Z</time></trkpt><trkpt lat="21.8780827315471" lon="-102.34984611953811"><ele>1857.0</ele><time>2026-03-22T13:12:20Z</time></trkpt><trkpt lat="21.87810589027023" lon="-102.35000439900053"><ele>1857.0</ele><time>2026-03-22T13:12:22Z</time></trkpt><trkpt lat="21.878125543781035" lon="-102.35008525618302"><ele>1856.8333333333333</ele><time>2026-03-22T13:12:23Z</time></trkpt><trkpt lat="21.878146479668395" lon="-102.35017344957748"><ele>1856.6666666666665</ele><time>2026-03-22T13:12:24Z</time></trkpt><trkpt lat="21.878162164100296" lon="-102.35025157845953"><ele>1856.5</ele><time>2026-03-22T13:12:25Z</time></trkpt><trkpt lat="21.87818232163939" lon="-102.35033472506171"><ele>1856.3333333333333</ele><time>2026-03-22T13:12:26Z</time></trkpt><trkpt lat="21.87820355284078" lon="-102.3504214238255"><ele>1856.1666666666665</ele><time>2026-03-22T13:12:27Z</time></trkpt><trkpt lat="21.878224568532843" lon="-102.35051406758544"><ele>1856.0</ele><time>2026-03-22T13:12:28Z</time></trkpt><trkpt lat="21.878247334586142" lon="-102.35060317805026"><ele>1856.6</ele><time>2026-03-22T13:12:29Z</time></trkpt><trkpt lat="21.87826940131797" lon="-102.35069928589968"><ele>1857.1999999999998</ele><time>2026-03-22T13:12:30Z</time></trkpt><trkpt lat="21.878313377910406" lon="-102.35084275703849"><ele>1857.8000000000002</ele><time>2026-03-22T13:12:32Z</time></trkpt><trkpt lat="21.87833492698427" lon="-102.35093154525426"><ele>1858.4</ele><time>2026-03-22T13:12:33Z</time></trkpt><trkpt lat="21.878356492850866" lon="-102.35102086173349"><ele>1859.0</ele><time>2026-03-22T13:12:34Z</time></trkpt><trkpt lat="21.878388363131656" lon="-102.35111995436166"><ele>1858.9999999999998</ele><time>2026-03-22T13:12:35Z</time></trkpt><trkpt lat="21.878413796991058" lon="-102.35119451618964"><ele>1859.0</ele><time>2026-03-22T13:12:36Z</time></trkpt><trkpt lat="21.878430558170567" lon="-102.35127357334882"><ele>1859.0</ele><time>2026-03-22T13:12:37Z</time></trkpt><trkpt lat="21.878448426426772" lon="-102.35136929234397"><ele>1859.0</ele><time>2026-03-22T13:12:38Z</time></trkpt><trkpt lat="21.878472744047098" lon="-102.35146196840995"><ele>1858.9999999999998</ele><time>2026-03-22T13:12:39Z</time></trkpt><trkpt lat="21.87845255260014" lon="-102.35156035521773"><ele>1859.0</ele><time>2026-03-22T13:12:40Z</time></trkpt><trkpt lat="21.878478647118328" lon="-102.35166362970136"><ele>1858.75</ele><time>2026-03-22T13:12:41Z</time></trkpt><trkpt lat="21.878493264658516" lon="-102.35174713662832"><ele>1858.5</ele><time>2026-03-22T13:12:42Z</time></trkpt><trkpt lat="21.87852935841123" lon="-102.35182798933114"><ele>1858.25</ele><time>2026-03-22T13:12:43Z</time></trkpt><trkpt lat="21.878533896544614" lon="-102.35208223013056"><ele>1858.0</ele><time>2026-03-22T13:12:44Z</time></trkpt><trkpt lat="21.878824070214474" lon="-102.35210452115638"><ele>1858.0</ele><time>2026-03-22T13:12:46Z</time></trkpt><trkpt lat="21.87889554673324" lon="-102.35218702764199"><ele>1858.0</ele><time>2026-03-22T13:12:47Z</time></trkpt><trkpt lat="21.87896704413537" lon="-102.35228067019453"><ele>1858.0</ele><time>2026-03-22T13:12:48Z</time></trkpt><trkpt lat="21.87898993692336" lon="-102.35243109678134"><ele>1858.0</ele><time>2026-03-22T13:12:49Z</time></trkpt><trkpt lat="21.8790568596782" lon="-102.35252412083264"><ele>1858.0</ele><time>2026-03-22T13:12:51Z</time></trkpt><trkpt lat="21.879050800325263" lon="-102.35264395581694"><ele>1858.0</ele><time>2026-03-22T13:12:53Z</time></trkpt><trkpt lat="21.87904399847123" lon="-102.35280466498716"><ele>1858.0</ele><time>2026-03-22T13:12:54Z</time></trkpt><trkpt lat="21.87905154582303" lon="-102.35289907023436"><ele>1858.0</ele><time>2026-03-22T13:12:55Z</time></trkpt><trkpt lat="21.879110784061996" lon="-102.35300385366627"><ele>1858.2</ele><time>2026-03-22T13:12:56Z</time></trkpt><trkpt lat="21.87911828832468" lon="-102.35310818854369"><ele>1858.4</ele><time>2026-03-22T13:12:57Z</time></trkpt><trkpt lat="21.879117720563883" lon="-102.35317922658686"><ele>1858.6000000000001</ele><time>2026-03-22T13:12:59Z</time></trkpt><trkpt lat="21.87912617779705" lon="-102.35325165290696"><ele>1858.8000000000002</ele><time>2026-03-22T13:13:00Z</time></trkpt><trkpt lat="21.879138737391575" lon="-102.35333252198043"><ele>1859.0</ele><time>2026-03-22T13:13:01Z</time></trkpt><trkpt lat="21.87903930074186" lon="-102.35344588762585"><ele>1858.9999999999998</ele><time>2026-03-22T13:13:02Z</time></trkpt><trkpt lat="21.879058960846308" lon="-102.35352224610273"><ele>1859.0</ele><time>2026-03-22T13:13:03Z</time></trkpt><trkpt lat="21.87907963085357" lon="-102.35361443143381"><ele>1859.0</ele><time>2026-03-22T13:13:04Z</time></trkpt><trkpt lat="21.87909942053042" lon="-102.35371832311604"><ele>1859.0</ele><time>2026-03-22T13:13:05Z</time></trkpt><trkpt lat="21.87911306440984" lon="-102.35379907872931"><ele>1858.9999999999998</ele><time>2026-03-22T13:13:06Z</time></trkpt><trkpt lat="21.879129855596602" lon="-102.3539042289702"><ele>1859.0</ele><time>2026-03-22T13:13:07Z</time></trkpt><trkpt lat="21.879146941431404" lon="-102.35399274930398"><ele>1859.0</ele><time>2026-03-22T13:13:08Z</time></trkpt><trkpt lat="21.879164327380032" lon="-102.35407871965292"><ele>1859.0</ele><time>2026-03-22T13:13:09Z</time></trkpt><trkpt lat="21.879242863043228" lon="-102.35421444811193"><ele>1859.0</ele><time>2026-03-22T13:13:11Z</time></trkpt><trkpt lat="21.87927995891233" lon="-102.35435179319222"><ele>1859.0</ele><time>2026-03-22T13:13:12Z</time></trkpt><trkpt lat="21.87929932001793" lon="-102.35442351163054"><ele>1859.0</ele><time>2026-03-22T13:13:13Z</time></trkpt><trkpt lat="21.87935196254173" lon="-102.3544793167915"><ele>1858.4999999999998</ele><time>2026-03-22T13:13:14Z</time></trkpt><trkpt lat="21.879378983543592" lon="-102.35455386223853"><ele>1858.0</ele><time>2026-03-22T13:13:15Z</time></trkpt><trkpt lat="21.87940432298784" lon="-102.3546347082366"><ele>1857.5</ele><time>2026-03-22T13:13:16Z</time></trkpt><trkpt lat="21.879385843289214" lon="-102.35470318727889"><ele>1857.0</ele><time>2026-03-22T13:13:17Z</time></trkpt><trkpt lat="21.879434751759206" lon="-102.3547718900854"><ele>1856.4999999999998</ele><time>2026-03-22T13:13:18Z</time></trkpt><trkpt lat="21.879454680797952" lon="-102.35485052744023"><ele>1856.0</ele><time>2026-03-22T13:13:19Z</time></trkpt><trkpt lat="21.879548124067696" lon="-102.35493623942888"><ele>1856.0</ele><time>2026-03-22T13:13:20Z</time></trkpt><trkpt lat="21.87960763290425" lon="-102.35502355622327"><ele>1856.0</ele><time>2026-03-22T13:13:21Z</time></trkpt><trkpt lat="21.879643063740815" lon="-102.3550995307459"><ele>1856.0</ele><time>2026-03-22T13:13:22Z</time></trkpt><trkpt lat="21.879698464103953" lon="-102.35523159949808"><ele>1856.0</ele><time>2026-03-22T13:13:23Z</time></trkpt><trkpt lat="21.87972434904617" lon="-102.35541011186598"><ele>1855.9999999999998</ele><time>2026-03-22T13:13:25Z</time></trkpt><trkpt lat="21.879743219138618" lon="-102.35549614349841"><ele>1856.0</ele><time>2026-03-22T13:13:26Z</time></trkpt><trkpt lat="21.87976240984863" lon="-102.35558865305987"><ele>1856.0</ele><time>2026-03-22T13:13:27Z</time></trkpt><trkpt lat="21.87978397611025" lon="-102.355678431658"><ele>1856.0</ele><time>2026-03-22T13:13:28Z</time></trkpt><trkpt lat="21.879838233798722" lon="-102.35578337701835"><ele>1855.9999999999998</ele><time>2026-03-22T13:13:30Z</time></trkpt><trkpt lat="21.87985752726422" lon="-102.35586368201072"><ele>1856.0</ele><time>2026-03-22T13:13:31Z</time></trkpt><trkpt lat="21.879871715306653" lon="-102.35593916705218"><ele>1856.4</ele><time>2026-03-22T13:13:32Z</time></trkpt><trkpt lat="21.879889641234815" lon="-102.35600973886771"><ele>1856.8</ele><time>2026-03-22T13:13:33Z</time></trkpt><trkpt lat="21.87989565151011" lon="-102.35611524203877"><ele>1857.2000000000003</ele><time>2026-03-22T13:13:34Z</time></trkpt><trkpt lat="21.87990034376523" lon="-102.35628119320204"><ele>1857.6000000000001</ele><time>2026-03-22T13:13:36Z</time></trkpt><trkpt lat="21.879928827423637" lon="-102.35636462603875"><ele>1858.0</ele><time>2026-03-22T13:13:37Z</time></trkpt><trkpt lat="21.879947029392692" lon="-102.35644154861879"><ele>1858.6000000000001</ele><time>2026-03-22T13:13:38Z</time></trkpt><trkpt lat="21.879953054547276" lon="-102.35651534124626"><ele>1859.2000000000003</ele><time>2026-03-22T13:13:39Z</time></trkpt><trkpt lat="21.879975910841885" lon="-102.35658352476996"><ele>1859.8</ele><time>2026-03-22T13:13:40Z</time></trkpt><trkpt lat="21.87999464081688" lon="-102.35665662892585"><ele>1860.4</ele><time>2026-03-22T13:13:41Z</time></trkpt><trkpt lat="21.87997873939803" lon="-102.35678591499487"><ele>1861.0</ele><time>2026-03-22T13:13:43Z</time></trkpt><trkpt lat="21.879954744338807" lon="-102.35694270600499"><ele>1861.0</ele><time>2026-03-22T13:13:45Z</time></trkpt><trkpt lat="21.879988717971838" lon="-102.35700430288504"><ele>1861.0</ele><time>2026-03-22T13:13:46Z</time></trkpt><trkpt lat="21.880036743452344" lon="-102.35705773807472"><ele>1861.0</ele><time>2026-03-22T13:13:47Z</time></trkpt><trkpt lat="21.88001962040512" lon="-102.35712321891359"><ele>1861.0</ele><time>2026-03-22T13:13:48Z</time></trkpt><trkpt lat="21.87995385355681" lon="-102.35716141414629"><ele>1861.0</ele><time>2026-03-22T13:13:49Z</time></trkpt><trkpt lat="21.879839413431434" lon="-102.35733510563398"><ele>1861.0</ele><time>2026-03-22T13:13:51Z</time></trkpt><trkpt lat="21.88018745012293" lon="-102.35740347093353"><ele>1861.0</ele><time>2026-03-22T13:13:52Z</time></trkpt><trkpt lat="21.880263366524165" lon="-102.35744601160842"><ele>1861.0</ele><time>2026-03-22T13:13:55Z</time></trkpt><trkpt lat="21.880312062802577" lon="-102.35750884932312"><ele>1861.0</ele><time>2026-03-22T13:13:57Z</time></trkpt><trkpt lat="21.880312533522048" lon="-102.35760438332487"><ele>1861.0</ele><time>2026-03-22T13:13:59Z</time></trkpt><trkpt lat="21.880121978517046" lon="-102.35769374214871"><ele>1861.0</ele><time>2026-03-22T13:14:00Z</time></trkpt><trkpt lat="21.880080938531044" lon="-102.35781900339508"><ele>1861.0</ele><time>2026-03-22T13:14:01Z</time></trkpt><trkpt lat="21.8801381133508" lon="-102.35790382388132"><ele>1861.0000000000002</ele><time>2026-03-22T13:14:03Z</time></trkpt><trkpt lat="21.880103236476824" lon="-102.357991815976"><ele>1861.0</ele><time>2026-03-22T13:14:04Z</time></trkpt><trkpt lat="21.88013868231684" lon="-102.35807275838009"><ele>1861.0</ele><time>2026-03-22T13:14:05Z</time></trkpt><trkpt lat="21.880163758155323" lon="-102.35815220618434"><ele>1861.0</ele><time>2026-03-22T13:14:06Z</time></trkpt><trkpt lat="21.88016013004306" lon="-102.35827142879488"><ele>1861.0000000000002</ele><time>2026-03-22T13:14:08Z</time></trkpt><trkpt lat="21.880166338207186" lon="-102.35834427742326"><ele>1861.0</ele><time>2026-03-22T13:14:09Z</time></trkpt><trkpt lat="21.880172142234922" lon="-102.3584431514438"><ele>1862.6666666666667</ele><time>2026-03-22T13:14:10Z</time></trkpt><trkpt lat="21.880269705288523" lon="-102.35850140618763"><ele>1864.3333333333335</ele><time>2026-03-22T13:14:11Z</time></trkpt><trkpt lat="21.880536953075605" lon="-102.35852852843811"><ele>1866.0</ele><time>2026-03-22T13:14:13Z</time></trkpt><trkpt lat="21.880575823389087" lon="-102.35862399147155"><ele>1866.0</ele><time>2026-03-22T13:14:14Z</time></trkpt><trkpt lat="21.880662305901073" lon="-102.35877095706513"><ele>1866.0</ele><time>2026-03-22T13:14:15Z</time></trkpt><trkpt lat="21.880652865279806" lon="-102.35889009963554"><ele>1866.0</ele><time>2026-03-22T13:14:17Z</time></trkpt><trkpt lat="21.880658517501946" lon="-102.35896267320202"><ele>1866.0</ele><time>2026-03-22T13:14:19Z</time></trkpt><trkpt lat="21.880728275652714" lon="-102.35907961064484"><ele>1866.8</ele><time>2026-03-22T13:14:21Z</time></trkpt><trkpt lat="21.8807390948644" lon="-102.35917943761211"><ele>1867.6</ele><time>2026-03-22T13:14:23Z</time></trkpt><trkpt lat="21.880763583807514" lon="-102.35925496629851"><ele>1868.4</ele><time>2026-03-22T13:14:24Z</time></trkpt><trkpt lat="21.8807942066219" lon="-102.3594263052315"><ele>1869.2</ele><time>2026-03-22T13:14:26Z</time></trkpt><trkpt lat="21.880836013182428" lon="-102.35954364183817"><ele>1870.0</ele><time>2026-03-22T13:14:28Z</time></trkpt><trkpt lat="21.88077845135786" lon="-102.35958131689978"><ele>1870.0</ele><time>2026-03-22T13:14:29Z</time></trkpt><trkpt lat="21.880819691576896" lon="-102.3596942446156"><ele>1870.0</ele><time>2026-03-22T13:14:30Z</time></trkpt><trkpt lat="21.88082742321743" lon="-102.3597801999355"><ele>1870.0</ele><time>2026-03-22T13:14:31Z</time></trkpt><trkpt lat="21.880876520387236" lon="-102.35985949725406"><ele>1870.0</ele><time>2026-03-22T13:14:32Z</time></trkpt><trkpt lat="21.880794851433006" lon="-102.35995971381793"><ele>1870.0</ele><time>2026-03-22T13:14:34Z</time></trkpt><trkpt lat="21.880826583480044" lon="-102.36007503396266"><ele>1870.1666666666667</ele><time>2026-03-22T13:14:35Z</time></trkpt><trkpt lat="21.880844776447024" lon="-102.36014115065811"><ele>1870.3333333333335</ele><time>2026-03-22T13:14:37Z</time></trkpt><trkpt lat="21.880865849530437" lon="-102.36021773411558"><ele>1870.5</ele><time>2026-03-22T13:14:38Z</time></trkpt><trkpt lat="21.880893413006227" lon="-102.360317905011"><ele>1870.6666666666665</ele><time>2026-03-22T13:14:39Z</time></trkpt><trkpt lat="21.880913985745124" lon="-102.36039267019909"><ele>1870.8333333333333</ele><time>2026-03-22T13:14:40Z</time></trkpt><trkpt lat="21.880937513806536" lon="-102.36047817554615"><ele>1871.0</ele><time>2026-03-22T13:14:42Z</time></trkpt><trkpt lat="21.88095661155927" lon="-102.36054758019917"><ele>1870.5</ele><time>2026-03-22T13:14:45Z</time></trkpt><trkpt lat="21.880990451725786" lon="-102.36068755145517"><ele>1870.0</ele><time>2026-03-22T13:14:46Z</time></trkpt><trkpt lat="21.881144095693124" lon="-102.36072127457429"><ele>1869.5</ele><time>2026-03-22T13:14:47Z</time></trkpt><trkpt lat="21.88120297614539" lon="-102.36085282150061"><ele>1869.0</ele><time>2026-03-22T13:14:48Z</time></trkpt><trkpt lat="21.881253356584608" lon="-102.36101222356079"><ele>1869.0</ele><time>2026-03-22T13:14:50Z</time></trkpt><trkpt lat="21.881258067638964" lon="-102.36109499204997"><ele>1869.0</ele><time>2026-03-22T13:14:51Z</time></trkpt><trkpt lat="21.881300680970828" lon="-102.3612052631153"><ele>1869.0</ele><time>2026-03-22T13:14:52Z</time></trkpt><trkpt lat="21.881355123287815" lon="-102.36128534105404"><ele>1869.0</ele><time>2026-03-22T13:14:54Z</time></trkpt><trkpt lat="21.88131360610813" lon="-102.36136246714703"><ele>1869.0</ele><time>2026-03-22T13:14:56Z</time></trkpt><trkpt lat="21.881275126413097" lon="-102.36147181519262"><ele>1869.6666666666665</ele><time>2026-03-22T13:14:57Z</time></trkpt><trkpt lat="21.88136315976207" lon="-102.36163291498548"><ele>1870.3333333333333</ele><time>2026-03-22T13:14:59Z</time></trkpt><trkpt lat="21.88128215880166" lon="-102.36182973008596"><ele>1871.0</ele><time>2026-03-22T13:15:01Z</time></trkpt><trkpt lat="21.881306717011487" lon="-102.36191743448106"><ele>1871.0</ele><time>2026-03-22T13:15:03Z</time></trkpt><trkpt lat="21.881483733934477" lon="-102.36192237869591"><ele>1871.0</ele><time>2026-03-22T13:15:04Z</time></trkpt><trkpt lat="21.881504901880074" lon="-102.36200936927195"><ele>1871.0</ele><time>2026-03-22T13:15:05Z</time></trkpt><trkpt lat="21.881513593149677" lon="-102.36209559998956"><ele>1871.0</ele><time>2026-03-22T13:15:06Z</time></trkpt><trkpt lat="21.881383076003527" lon="-102.36220713345061"><ele>1871.6</ele><time>2026-03-22T13:15:07Z</time></trkpt><trkpt lat="21.88140219604732" lon="-102.36228232452103"><ele>1872.1999999999998</ele><time>2026-03-22T13:15:09Z</time></trkpt><trkpt lat="21.881582561298647" lon="-102.36236147769714"><ele>1872.8000000000002</ele><time>2026-03-22T13:15:11Z</time></trkpt><trkpt lat="21.881598293085016" lon="-102.36243304380746"><ele>1873.4</ele><time>2026-03-22T13:15:12Z</time></trkpt><trkpt lat="21.881614519188894" lon="-102.36250789824346"><ele>1874.0</ele><time>2026-03-22T13:15:13Z</time></trkpt><trkpt lat="21.881627948284276" lon="-102.36257698222525"><ele>1873.9999999999998</ele><time>2026-03-22T13:15:14Z</time></trkpt><trkpt lat="21.88164583848067" lon="-102.36264217447204"><ele>1874.0</ele><time>2026-03-22T13:15:15Z</time></trkpt><trkpt lat="21.881661444785287" lon="-102.36271282717206"><ele>1874.0</ele><time>2026-03-22T13:15:16Z</time></trkpt><trkpt lat="21.881684579253406" lon="-102.36278180454887"><ele>1874.0</ele><time>2026-03-22T13:15:17Z</time></trkpt><trkpt lat="21.881723967482664" lon="-102.36289888667672"><ele>1873.9999999999998</ele><time>2026-03-22T13:15:19Z</time></trkpt><trkpt lat="21.881740511963518" lon="-102.36296528759475"><ele>1874.0</ele><time>2026-03-22T13:15:20Z</time></trkpt><trkpt lat="21.881765818876378" lon="-102.36307786496232"><ele>1874.0</ele><time>2026-03-22T13:15:22Z</time></trkpt><trkpt lat="21.88176279891664" lon="-102.36317608519289"><ele>1874.0</ele><time>2026-03-22T13:15:23Z</time></trkpt><trkpt lat="21.881598563383967" lon="-102.36343334406635"><ele>1874.0</ele><time>2026-03-22T13:15:24Z</time></trkpt><trkpt lat="21.88188223434013" lon="-102.36343203238881"><ele>1874.0</ele><time>2026-03-22T13:15:26Z</time></trkpt><trkpt lat="21.881902210060396" lon="-102.36356115813763"><ele>1874.0</ele><time>2026-03-22T13:15:27Z</time></trkpt><trkpt lat="21.88187481995329" lon="-102.36363556193336"><ele>1874.0</ele><time>2026-03-22T13:15:28Z</time></trkpt><trkpt lat="21.881892136483167" lon="-102.36375292910213"><ele>1874.0</ele><time>2026-03-22T13:15:29Z</time></trkpt><trkpt lat="21.881907758562853" lon="-102.3638708952187"><ele>1874.0</ele><time>2026-03-22T13:15:31Z</time></trkpt><trkpt lat="21.882002937661102" lon="-102.36401605438205"><ele>1874.2</ele><time>2026-03-22T13:15:34Z</time></trkpt><trkpt lat="21.882062344258767" lon="-102.36405885038995"><ele>1874.4</ele><time>2026-03-22T13:15:35Z</time></trkpt><trkpt lat="21.882108872109047" lon="-102.36413967174813"><ele>1874.6</ele><time>2026-03-22T13:15:37Z</time></trkpt><trkpt lat="21.882119787942436" lon="-102.3642463003487"><ele>1874.8</ele><time>2026-03-22T13:15:38Z</time></trkpt><trkpt lat="21.882141436899982" lon="-102.36433232297686"><ele>1875.0</ele><time>2026-03-22T13:15:39Z</time></trkpt><trkpt lat="21.882137389541455" lon="-102.36444846165793"><ele>1875.0</ele><time>2026-03-22T13:15:41Z</time></trkpt><trkpt lat="21.88214029875382" lon="-102.3645210452926"><ele>1875.0</ele><time>2026-03-22T13:15:42Z</time></trkpt><trkpt lat="21.882177386817798" lon="-102.36457651112968"><ele>1875.0</ele><time>2026-03-22T13:15:43Z</time></trkpt><trkpt lat="21.88217417182099" lon="-102.36466305760204"><ele>1875.0</ele><time>2026-03-22T13:15:44Z</time></trkpt><trkpt lat="21.882193113512816" lon="-102.36482907401512"><ele>1875.0</ele><time>2026-03-22T13:15:46Z</time></trkpt><trkpt lat="21.8822554196112" lon="-102.36488587461206"><ele>1875.0</ele><time>2026-03-22T13:15:48Z</time></trkpt><trkpt lat="21.882243577498382" lon="-102.36496164864583"><ele>1875.5</ele><time>2026-03-22T13:15:49Z</time></trkpt><trkpt lat="21.8822554488635" lon="-102.36505553435107"><ele>1876.0</ele><time>2026-03-22T13:15:50Z</time></trkpt><trkpt lat="21.882300488254412" lon="-102.3651174356652"><ele>1876.5</ele><time>2026-03-22T13:15:51Z</time></trkpt><trkpt lat="21.882203993975875" lon="-102.36526725274459"><ele>1877.0</ele><time>2026-03-22T13:15:53Z</time></trkpt><trkpt lat="21.88223929997219" lon="-102.36540420376751"><ele>1878.6666666666665</ele><time>2026-03-22T13:15:55Z</time></trkpt><trkpt lat="21.88225950460602" lon="-102.36554686815617"><ele>1880.3333333333333</ele><time>2026-03-22T13:15:57Z</time></trkpt><trkpt lat="21.882290881781433" lon="-102.36564905268519"><ele>1882.0</ele><time>2026-03-22T13:15:59Z</time></trkpt><trkpt lat="21.882255531105685" lon="-102.36571700909244"><ele>1883.6666666666665</ele><time>2026-03-22T13:16:04Z</time></trkpt><trkpt lat="21.882302422255727" lon="-102.36577890712482"><ele>1885.3333333333333</ele><time>2026-03-22T13:16:06Z</time></trkpt><trkpt lat="21.882356610398514" lon="-102.36581766237057"><ele>1887.0</ele><time>2026-03-22T13:16:07Z</time></trkpt><trkpt lat="21.882374869517225" lon="-102.3658963233639"><ele>1887.0</ele><time>2026-03-22T13:16:08Z</time></trkpt><trkpt lat="21.88239913271199" lon="-102.36601555691509"><ele>1887.0</ele><time>2026-03-22T13:16:09Z</time></trkpt><trkpt lat="21.882432740603402" lon="-102.36614098981774"><ele>1887.0</ele><time>2026-03-22T13:16:10Z</time></trkpt><trkpt lat="21.88245060949474" lon="-102.36627839925617"><ele>1887.0</ele><time>2026-03-22T13:16:11Z</time></trkpt><trkpt lat="21.882455563006662" lon="-102.3663914948983"><ele>1886.6666666666665</ele><time>2026-03-22T13:16:12Z</time></trkpt><trkpt lat="21.882459685352565" lon="-102.36650603205396"><ele>1886.3333333333333</ele><time>2026-03-22T13:16:13Z</time></trkpt><trkpt lat="21.882479891759463" lon="-102.36658394595067"><ele>1886.0</ele><time>2026-03-22T13:16:14Z</time></trkpt><trkpt lat="21.882575075231973" lon="-102.36691520166643"><ele>1885.8</ele><time>2026-03-22T13:16:20Z</time></trkpt><trkpt lat="21.882610441204825" lon="-102.36701055467901"><ele>1885.6</ele><time>2026-03-22T13:16:22Z</time></trkpt><trkpt lat="21.882615894156263" lon="-102.36708142836873"><ele>1885.4</ele><time>2026-03-22T13:16:23Z</time></trkpt><trkpt lat="21.882691893080715" lon="-102.3670888796532"><ele>1885.2</ele><time>2026-03-22T13:16:24Z</time></trkpt><trkpt lat="21.882708871913657" lon="-102.36719550909878"><ele>1885.0</ele><time>2026-03-22T13:16:26Z</time></trkpt><trkpt lat="21.882798132351613" lon="-102.36736447310382"><ele>1885.3333333333335</ele><time>2026-03-22T13:16:28Z</time></trkpt><trkpt lat="21.88282252931902" lon="-102.36743388556118"><ele>1885.6666666666667</ele><time>2026-03-22T13:16:29Z</time></trkpt><trkpt lat="21.88282846071689" lon="-102.36756651496894"><ele>1886.0</ele><time>2026-03-22T13:16:30Z</time></trkpt><trkpt lat="21.882848535492943" lon="-102.3676404624454"><ele>1886.3333333333335</ele><time>2026-03-22T13:16:32Z</time></trkpt><trkpt lat="21.88283881956572" lon="-102.3677258753583"><ele>1886.6666666666667</ele><time>2026-03-22T13:16:34Z</time></trkpt><trkpt lat="21.882813673924105" lon="-102.36781547282997"><ele>1887.0</ele><time>2026-03-22T13:16:36Z</time></trkpt><trkpt lat="21.882825731776915" lon="-102.36794158031815"><ele>1888.0</ele><time>2026-03-22T13:16:38Z</time></trkpt><trkpt lat="21.88290100562254" lon="-102.36805586372554"><ele>1889.0</ele><time>2026-03-22T13:16:40Z</time></trkpt><trkpt lat="21.882929349384632" lon="-102.36817675727133"><ele>1890.0</ele><time>2026-03-22T13:16:42Z</time></trkpt><trkpt lat="21.88291111671026" lon="-102.36827704470035"><ele>1891.0</ele><time>2026-03-22T13:16:44Z</time></trkpt><trkpt lat="21.883107563966075" lon="-102.36831270788812"><ele>1891.0</ele><time>2026-03-22T13:16:46Z</time></trkpt><trkpt lat="21.88317940591508" lon="-102.36833737028041"><ele>1891.0</ele><time>2026-03-22T13:16:47Z</time></trkpt><trkpt lat="21.88323418944146" lon="-102.36837563445093"><ele>1891.0</ele><time>2026-03-22T13:16:49Z</time></trkpt><trkpt lat="21.88331548047012" lon="-102.36838980363216"><ele>1891.0</ele><time>2026-03-22T13:16:51Z</time></trkpt><trkpt lat="21.88338799469636" lon="-102.36843294209656"><ele>1891.0</ele><time>2026-03-22T13:16:53Z</time></trkpt><trkpt lat="21.883336229137218" lon="-102.36908237524212"><ele>1891.0</ele><time>2026-03-22T13:16:54Z</time></trkpt><trkpt lat="21.88347573575456" lon="-102.3693107310939"><ele>1891.0</ele><time>2026-03-22T13:17:00Z</time></trkpt><trkpt lat="21.883461847599676" lon="-102.36943080573377"><ele>1891.0</ele><time>2026-03-22T13:17:03Z</time></trkpt><trkpt lat="21.88335898240863" lon="-102.36951175092126"><ele>1891.0</ele><time>2026-03-22T13:17:04Z</time></trkpt><trkpt lat="21.883369329456336" lon="-102.369606381281"><ele>1891.0</ele><time>2026-03-22T13:17:06Z</time></trkpt><trkpt lat="21.88335563302876" lon="-102.36968746085998"><ele>1891.0</ele><time>2026-03-22T13:17:07Z</time></trkpt><trkpt lat="21.88334246998903" lon="-102.36977644267468"><ele>1891.0</ele><time>2026-03-22T13:17:08Z</time></trkpt><trkpt lat="21.883330448157064" lon="-102.36985192878221"><ele>1891.0</ele><time>2026-03-22T13:17:09Z</time></trkpt><trkpt lat="21.883486675331625" lon="-102.36986072790535"><ele>1891.0</ele><time>2026-03-22T13:17:10Z</time></trkpt><trkpt lat="21.88342262522174" lon="-102.36991662525706"><ele>1891.0</ele><time>2026-03-22T13:17:11Z</time></trkpt><trkpt lat="21.88344483194417" lon="-102.37002492666959"><ele>1891.0</ele><time>2026-03-22T13:17:12Z</time></trkpt><trkpt lat="21.883449805653676" lon="-102.37011977533795"><ele>1891.0</ele><time>2026-03-22T13:17:14Z</time></trkpt><trkpt lat="21.883463991820598" lon="-102.37024107744138"><ele>1891.0</ele><time>2026-03-22T13:17:16Z</time></trkpt><trkpt lat="21.88350679644616" lon="-102.37034247876427"><ele>1890.8</ele><time>2026-03-22T13:17:18Z</time></trkpt><trkpt lat="21.883509014097395" lon="-102.370440670672"><ele>1890.6</ele><time>2026-03-22T13:17:20Z</time></trkpt><trkpt lat="21.883543360551542" lon="-102.37055909803281"><ele>1890.4</ele><time>2026-03-22T13:17:22Z</time></trkpt><trkpt lat="21.883552480538658" lon="-102.37067683675285"><ele>1890.2</ele><time>2026-03-22T13:17:24Z</time></trkpt><trkpt lat="21.88355722757759" lon="-102.37079847448368"><ele>1890.0</ele><time>2026-03-22T13:17:26Z</time></trkpt><trkpt lat="21.88368073759451" lon="-102.37089013450922"><ele>1890.75</ele><time>2026-03-22T13:17:28Z</time></trkpt><trkpt lat="21.883725480641782" lon="-102.37106121508349"><ele>1891.5</ele><time>2026-03-22T13:17:30Z</time></trkpt><trkpt lat="21.883757737425736" lon="-102.37118293881299"><ele>1892.25</ele><time>2026-03-22T13:17:31Z</time></trkpt><trkpt lat="21.88379310547429" lon="-102.37125954307612"><ele>1893.0</ele><time>2026-03-22T13:17:34Z</time></trkpt><trkpt lat="21.883813487824554" lon="-102.37139558292749"><ele>1893.3333333333333</ele><time>2026-03-22T13:17:35Z</time></trkpt><trkpt lat="21.883839559955398" lon="-102.37149832914481"><ele>1893.6666666666665</ele><time>2026-03-22T13:17:36Z</time></trkpt><trkpt lat="21.88385976013841" lon="-102.37157792603634"><ele>1894.0</ele><time>2026-03-22T13:17:46Z</time></trkpt><trkpt lat="21.88388089086516" lon="-102.37165837373517"><ele>1894.3333333333333</ele><time>2026-03-22T13:17:50Z</time></trkpt><trkpt lat="21.883900973185757" lon="-102.37173482999027"><ele>1894.6666666666665</ele><time>2026-03-22T13:17:53Z</time></trkpt><trkpt lat="21.883941685892545" lon="-102.37180959005244"><ele>1895.0</ele><time>2026-03-22T13:17:57Z</time></trkpt><trkpt lat="21.8839884904413" lon="-102.37192100330074"><ele>1894.9999999999998</ele><time>2026-03-22T13:17:59Z</time></trkpt><trkpt lat="21.883992677973186" lon="-102.37200045078745"><ele>1895.0</ele><time>2026-03-22T13:18:00Z</time></trkpt><trkpt lat="21.884014658937293" lon="-102.37207622472634"><ele>1895.0</ele><time>2026-03-22T13:18:01Z</time></trkpt><trkpt lat="21.884038132640313" lon="-102.37215855794405"><ele>1895.0</ele><time>2026-03-22T13:18:02Z</time></trkpt><trkpt lat="21.88406801948661" lon="-102.37226360080216"><ele>1894.9999999999998</ele><time>2026-03-22T13:18:03Z</time></trkpt><trkpt lat="21.884093273861588" lon="-102.37234965076526"><ele>1895.0</ele><time>2026-03-22T13:18:04Z</time></trkpt><trkpt lat="21.884124985338882" lon="-102.37245197424733"><ele>1895.5</ele><time>2026-03-22T13:18:05Z</time></trkpt><trkpt lat="21.88414495625379" lon="-102.3725165966223"><ele>1896.0</ele><time>2026-03-22T13:18:06Z</time></trkpt><trkpt lat="21.884267000226533" lon="-102.37303582185896"><ele>1896.0</ele><time>2026-03-22T13:18:07Z</time></trkpt><trkpt lat="21.884280690656894" lon="-102.37317670140864"><ele>1896.0</ele><time>2026-03-22T13:18:08Z</time></trkpt><trkpt lat="21.884317538794505" lon="-102.37330831524739"><ele>1896.0</ele><time>2026-03-22T13:18:09Z</time></trkpt><trkpt lat="21.88436439167881" lon="-102.37339027304122"><ele>1896.0</ele><time>2026-03-22T13:18:10Z</time></trkpt><trkpt lat="21.884375782693855" lon="-102.37347736536367"><ele>1896.0</ele><time>2026-03-22T13:18:11Z</time></trkpt><trkpt lat="21.884389026772027" lon="-102.37355823174455"><ele>1896.0</ele><time>2026-03-22T13:18:12Z</time></trkpt><trkpt lat="21.88440509028094" lon="-102.3736434662974"><ele>1896.0</ele><time>2026-03-22T13:18:13Z</time></trkpt><trkpt lat="21.884411155852995" lon="-102.37371312251746"><ele>1896.0</ele><time>2026-03-22T13:18:14Z</time></trkpt><trkpt lat="21.884425788463282" lon="-102.37378137188041"><ele>1896.0</ele><time>2026-03-22T13:18:15Z</time></trkpt><trkpt lat="21.884489002542544" lon="-102.37387399430926"><ele>1896.0</ele><time>2026-03-22T13:18:17Z</time></trkpt><trkpt lat="21.884449452388562" lon="-102.37393896875304"><ele>1896.0</ele><time>2026-03-22T13:18:18Z</time></trkpt><trkpt lat="21.884658279448356" lon="-102.3740873242181"><ele>1896.6</ele><time>2026-03-22T13:18:20Z</time></trkpt><trkpt lat="21.884714462648805" lon="-102.37421160792722"><ele>1897.1999999999998</ele><time>2026-03-22T13:18:21Z</time></trkpt><trkpt lat="21.88479769969325" lon="-102.37427141378556"><ele>1897.8000000000002</ele><time>2026-03-22T13:18:24Z</time></trkpt><trkpt lat="21.884836413786932" lon="-102.37434956552322"><ele>1898.4</ele><time>2026-03-22T13:18:26Z</time></trkpt><trkpt lat="21.88485173784043" lon="-102.3744402899469"><ele>1899.0</ele><time>2026-03-22T13:18:28Z</time></trkpt><trkpt lat="21.88487590759283" lon="-102.37453975747432"><ele>1899.0</ele><time>2026-03-22T13:18:30Z</time></trkpt><trkpt lat="21.88488395817944" lon="-102.37464409141536"><ele>1899.0</ele><time>2026-03-22T13:18:32Z</time></trkpt><trkpt lat="21.884934960120166" lon="-102.37454650861011"><ele>1899.0</ele><time>2026-03-22T13:18:34Z</time></trkpt><trkpt lat="21.884883941869717" lon="-102.37459778070881"><ele>1899.0</ele><time>2026-03-22T13:18:36Z</time></trkpt><trkpt lat="21.884948645934294" lon="-102.37464551166796"><ele>1899.0</ele><time>2026-03-22T13:18:39Z</time></trkpt><trkpt lat="21.884965818091075" lon="-102.37471370403028"><ele>1899.0</ele><time>2026-03-22T13:18:41Z</time></trkpt><trkpt lat="21.884982585258125" lon="-102.37479965110003"><ele>1899.8000000000002</ele><time>2026-03-22T13:18:45Z</time></trkpt><trkpt lat="21.885026024752616" lon="-102.37485056395344"><ele>1900.6000000000001</ele><time>2026-03-22T13:18:47Z</time></trkpt><trkpt lat="21.885036471202646" lon="-102.37492364441921"><ele>1901.4</ele><time>2026-03-22T13:18:48Z</time></trkpt><trkpt lat="21.885180427187255" lon="-102.37495432285898"><ele>1902.2</ele><time>2026-03-22T13:18:49Z</time></trkpt><trkpt lat="21.885267594169175" lon="-102.37510507738598"><ele>1903.0</ele><time>2026-03-22T13:18:50Z</time></trkpt><trkpt lat="21.88524868329103" lon="-102.37527186260456"><ele>1903.0</ele><time>2026-03-22T13:18:51Z</time></trkpt><trkpt lat="21.88526612714265" lon="-102.37534038551702"><ele>1903.0</ele><time>2026-03-22T13:18:52Z</time></trkpt><trkpt lat="21.88527368765597" lon="-102.37545099581376"><ele>1903.0</ele><time>2026-03-22T13:18:53Z</time></trkpt><trkpt lat="21.88529705486926" lon="-102.37573812061285"><ele>1903.0</ele><time>2026-03-22T13:18:54Z</time></trkpt><trkpt lat="21.885284536900226" lon="-102.37582654757806"><ele>1903.0</ele><time>2026-03-22T13:18:56Z</time></trkpt><trkpt lat="21.885259301942778" lon="-102.37590529761559"><ele>1903.0000000000002</ele><time>2026-03-22T13:18:57Z</time></trkpt><trkpt lat="21.885254411234055" lon="-102.3760847432093"><ele>1903.0000000000002</ele><time>2026-03-22T13:18:58Z</time></trkpt><trkpt lat="21.885253190704766" lon="-102.37617707324688"><ele>1903.0</ele><time>2026-03-22T13:18:59Z</time></trkpt><trkpt lat="21.885250716248002" lon="-102.37626788036278"><ele>1903.0</ele><time>2026-03-22T13:19:00Z</time></trkpt><trkpt lat="21.885258736450776" lon="-102.3763821080625"><ele>1903.0</ele><time>2026-03-22T13:19:01Z</time></trkpt><trkpt lat="21.885256170899734" lon="-102.3764619288772"><ele>1903.0000000000002</ele><time>2026-03-22T13:19:02Z</time></trkpt><trkpt lat="21.88527303587799" lon="-102.37656089628277"><ele>1903.0000000000002</ele><time>2026-03-22T13:19:03Z</time></trkpt><trkpt lat="21.885229159896813" lon="-102.3767026154656"><ele>1903.0</ele><time>2026-03-22T13:19:05Z</time></trkpt><trkpt lat="21.885267145655064" lon="-102.3767773791887"><ele>1903.0</ele><time>2026-03-22T13:19:06Z</time></trkpt><trkpt lat="21.8852228076747" lon="-102.37697341508168"><ele>1903.0000000000002</ele><time>2026-03-22T13:19:08Z</time></trkpt><trkpt lat="21.885317930199086" lon="-102.37702940092704"><ele>1903.0</ele><time>2026-03-22T13:19:10Z</time></trkpt><trkpt lat="21.88531804170438" lon="-102.37711917311515"><ele>1903.0</ele><time>2026-03-22T13:19:11Z</time></trkpt><trkpt lat="21.885332098528803" lon="-102.37718790123179"><ele>1903.0</ele><time>2026-03-22T13:19:12Z</time></trkpt><trkpt lat="21.88534392901412" lon="-102.37725606402938"><ele>1903.0000000000002</ele><time>2026-03-22T13:19:13Z</time></trkpt><trkpt lat="21.88535972552103" lon="-102.37737198104963"><ele>1903.0</ele><time>2026-03-22T13:19:15Z</time></trkpt><trkpt lat="21.88537844255566" lon="-102.37749153823184"><ele>1903.4</ele><time>2026-03-22T13:19:17Z</time></trkpt><trkpt lat="21.885387290464877" lon="-102.37760996386469"><ele>1903.8000000000002</ele><time>2026-03-22T13:19:19Z</time></trkpt><trkpt lat="21.885402868915275" lon="-102.37775030264802"><ele>1904.2</ele><time>2026-03-22T13:19:21Z</time></trkpt><trkpt lat="21.88542727782452" lon="-102.3778157464152"><ele>1904.6</ele><time>2026-03-22T13:19:22Z</time></trkpt><trkpt lat="21.885471986962045" lon="-102.37789844902714"><ele>1905.0</ele><time>2026-03-22T13:19:24Z</time></trkpt><trkpt lat="21.88553030427893" lon="-102.37797312046177"><ele>1905.8</ele><time>2026-03-22T13:19:25Z</time></trkpt><trkpt lat="21.88558262748162" lon="-102.37806415768176"><ele>1906.6</ele><time>2026-03-22T13:19:27Z</time></trkpt><trkpt lat="21.885574339594363" lon="-102.37815171329255"><ele>1907.4</ele><time>2026-03-22T13:19:28Z</time></trkpt><trkpt lat="21.885576860000924" lon="-102.37828663471905"><ele>1908.2</ele><time>2026-03-22T13:19:30Z</time></trkpt><trkpt lat="21.885571792449753" lon="-102.37842503270093"><ele>1909.0</ele><time>2026-03-22T13:19:32Z</time></trkpt><trkpt lat="21.885602523998894" lon="-102.37853488379322"><ele>1909.0</ele><time>2026-03-22T13:19:34Z</time></trkpt><trkpt lat="21.885593058898845" lon="-102.37862758568228"><ele>1909.0</ele><time>2026-03-22T13:19:35Z</time></trkpt><trkpt lat="21.885578350394844" lon="-102.37870643515609"><ele>1909.0</ele><time>2026-03-22T13:19:36Z</time></trkpt><trkpt lat="21.885373719600064" lon="-102.37920884965516"><ele>1909.6</ele><time>2026-03-22T13:19:37Z</time></trkpt><trkpt lat="21.885406919976308" lon="-102.37930719998703"><ele>1910.2</ele><time>2026-03-22T13:19:39Z</time></trkpt><trkpt lat="21.885426191756768" lon="-102.37922810847935"><ele>1910.7999999999997</ele><time>2026-03-22T13:19:40Z</time></trkpt><trkpt lat="21.88557438984131" lon="-102.37925925830257"><ele>1911.3999999999999</ele><time>2026-03-22T13:19:42Z</time></trkpt><trkpt lat="21.885549926782424" lon="-102.37932528882436"><ele>1912.0</ele><time>2026-03-22T13:19:44Z</time></trkpt><trkpt lat="21.88560626284368" lon="-102.37940983042289"><ele>1912.0</ele><time>2026-03-22T13:19:45Z</time></trkpt><trkpt lat="21.885653366794735" lon="-102.37950819258948"><ele>1912.0</ele><time>2026-03-22T13:19:47Z</time></trkpt><trkpt lat="21.88570279960965" lon="-102.37960673546738"><ele>1912.0</ele><time>2026-03-22T13:19:49Z</time></trkpt><trkpt lat="21.885765181384212" lon="-102.37971580086761"><ele>1912.0</ele><time>2026-03-22T13:19:51Z</time></trkpt><trkpt lat="21.885985542926257" lon="-102.37977623904146"><ele>1911.8</ele><time>2026-03-22T13:19:53Z</time></trkpt><trkpt lat="21.886022484448766" lon="-102.37990021648908"><ele>1911.6</ele><time>2026-03-22T13:19:56Z</time></trkpt><trkpt lat="21.88604817093006" lon="-102.37996480680023"><ele>1911.3999999999999</ele><time>2026-03-22T13:19:57Z</time></trkpt><trkpt lat="21.886074658704118" lon="-102.38003852401195"><ele>1911.1999999999998</ele><time>2026-03-22T13:19:59Z</time></trkpt><trkpt lat="21.886106952298697" lon="-102.38014355582354"><ele>1911.0</ele><time>2026-03-22T13:20:01Z</time></trkpt><trkpt lat="21.88614593324141" lon="-102.38026235948081"><ele>1911.0</ele><time>2026-03-22T13:20:03Z</time></trkpt><trkpt lat="21.88616272332619" lon="-102.38033135362754"><ele>1911.0</ele><time>2026-03-22T13:20:04Z</time></trkpt><trkpt lat="21.886195020328252" lon="-102.38040142500104"><ele>1911.0</ele><time>2026-03-22T13:20:05Z</time></trkpt><trkpt lat="21.88615901753294" lon="-102.38025868351824"><ele>1911.0</ele><time>2026-03-22T13:20:07Z</time></trkpt><trkpt lat="21.886173687661937" lon="-102.380496197017"><ele>1911.25</ele><time>2026-03-22T13:20:10Z</time></trkpt><trkpt lat="21.886187428590166" lon="-102.38060628461565"><ele>1911.5</ele><time>2026-03-22T13:20:11Z</time></trkpt><trkpt lat="21.886231565828112" lon="-102.38071486175177"><ele>1911.75</ele><time>2026-03-22T13:20:13Z</time></trkpt><trkpt lat="21.886224497776432" lon="-102.38079962065122"><ele>1912.0</ele><time>2026-03-22T13:20:16Z</time></trkpt><trkpt lat="21.886345694773546" lon="-102.38111364632022"><ele>1912.0000000000002</ele><time>2026-03-22T13:20:18Z</time></trkpt><trkpt lat="21.886428720518364" lon="-102.38123151563607"><ele>1912.0</ele><time>2026-03-22T13:20:19Z</time></trkpt><trkpt lat="21.886487392633555" lon="-102.38127471344595"><ele>1912.0</ele><time>2026-03-22T13:20:20Z</time></trkpt><trkpt lat="21.886475542357278" lon="-102.38136981770309"><ele>1912.0</ele><time>2026-03-22T13:20:21Z</time></trkpt><trkpt lat="21.886496298115887" lon="-102.3814477841871"><ele>1912.0000000000002</ele><time>2026-03-22T13:20:22Z</time></trkpt><trkpt lat="21.886517053091715" lon="-102.38152574723134"><ele>1912.0</ele><time>2026-03-22T13:20:23Z</time></trkpt><trkpt lat="21.886534690119255" lon="-102.38159193758202"><ele>1912.0000000000002</ele><time>2026-03-22T13:20:24Z</time></trkpt><trkpt lat="21.88657167434974" lon="-102.38173002485111"><ele>1912.0</ele><time>2026-03-22T13:20:26Z</time></trkpt><trkpt lat="21.886589649394175" lon="-102.3817971376315"><ele>1912.0</ele><time>2026-03-22T13:20:27Z</time></trkpt><trkpt lat="21.886608762810614" lon="-102.38186850080766"><ele>1912.0</ele><time>2026-03-22T13:20:28Z</time></trkpt><trkpt lat="21.88662988783516" lon="-102.3819473746659"><ele>1912.0000000000002</ele><time>2026-03-22T13:20:29Z</time></trkpt><trkpt lat="21.88664872698002" lon="-102.38201682640049"><ele>1912.0</ele><time>2026-03-22T13:20:30Z</time></trkpt><trkpt lat="21.8866833448653" lon="-102.38214429578065"><ele>1912.3333333333335</ele><time>2026-03-22T13:20:32Z</time></trkpt><trkpt lat="21.886722209754428" lon="-102.38222671666439"><ele>1912.6666666666667</ele><time>2026-03-22T13:20:33Z</time></trkpt><trkpt lat="21.88673941599241" lon="-102.38229448141512"><ele>1913.0</ele><time>2026-03-22T13:20:34Z</time></trkpt><trkpt lat="21.886743180106038" lon="-102.38237601380871"><ele>1913.3333333333335</ele><time>2026-03-22T13:20:35Z</time></trkpt><trkpt lat="21.886764056090968" lon="-102.38246726638943"><ele>1913.6666666666667</ele><time>2026-03-22T13:20:36Z</time></trkpt><trkpt lat="21.886764491097843" lon="-102.3825732724437"><ele>1914.0</ele><time>2026-03-22T13:20:37Z</time></trkpt><trkpt lat="21.886785641145945" lon="-102.38276304078525"><ele>1914.4</ele><time>2026-03-22T13:20:39Z</time></trkpt><trkpt lat="21.886817753926394" lon="-102.38287920375096"><ele>1914.8000000000002</ele><time>2026-03-22T13:20:41Z</time></trkpt><trkpt lat="21.886828164230476" lon="-102.38300573197112"><ele>1915.1999999999998</ele><time>2026-03-22T13:20:43Z</time></trkpt><trkpt lat="21.886863500465548" lon="-102.38309633255592"><ele>1915.6</ele><time>2026-03-22T13:20:45Z</time></trkpt><trkpt lat="21.886886354911116" lon="-102.3831693894366"><ele>1916.0</ele><time>2026-03-22T13:20:46Z</time></trkpt><trkpt lat="21.88683204821844" lon="-102.38337683747163"><ele>1917.0</ele><time>2026-03-22T13:20:47Z</time></trkpt><trkpt lat="21.886709282122943" lon="-102.38351706036397"><ele>1918.0</ele><time>2026-03-22T13:20:48Z</time></trkpt><trkpt lat="21.886612213686156" lon="-102.38355029433629"><ele>1919.0</ele><time>2026-03-22T13:20:49Z</time></trkpt><trkpt lat="21.88695252352416" lon="-102.38337110259718"><ele>1919.0</ele><time>2026-03-22T13:20:50Z</time></trkpt><trkpt lat="21.887078935120282" lon="-102.38342593239534"><ele>1919.0</ele><time>2026-03-22T13:20:55Z</time></trkpt><trkpt lat="21.887137784127727" lon="-102.38348818903411"><ele>1919.0</ele><time>2026-03-22T13:20:57Z</time></trkpt><trkpt lat="21.887188028067627" lon="-102.38356300859614"><ele>1919.0</ele><time>2026-03-22T13:20:59Z</time></trkpt><trkpt lat="21.887209273506567" lon="-102.38362838167424"><ele>1919.0</ele><time>2026-03-22T13:21:01Z</time></trkpt><trkpt lat="21.88696983878607" lon="-102.38371677068382"><ele>1915.0</ele><time>2026-03-22T13:21:02Z</time></trkpt><trkpt lat="21.886888239265645" lon="-102.38422163634822"><ele>1915.0000000000002</ele><time>2026-03-22T13:21:03Z</time></trkpt><trkpt lat="21.886841024277004" lon="-102.38430758541894"><ele>1915.0</ele><time>2026-03-22T13:21:04Z</time></trkpt><trkpt lat="21.886826283100874" lon="-102.38439154603108"><ele>1915.0</ele><time>2026-03-22T13:21:05Z</time></trkpt><trkpt lat="21.886812803753912" lon="-102.38447510327273"><ele>1915.0</ele><time>2026-03-22T13:21:06Z</time></trkpt><trkpt lat="21.886802661606026" lon="-102.38455852716433"><ele>1915.0000000000002</ele><time>2026-03-22T13:21:07Z</time></trkpt><trkpt lat="21.88678865951237" lon="-102.38464019042014"><ele>1915.0</ele><time>2026-03-22T13:21:08Z</time></trkpt><trkpt lat="21.886775146006496" lon="-102.384723551368"><ele>1915.0</ele><time>2026-03-22T13:21:09Z</time></trkpt><trkpt lat="21.886759234861433" lon="-102.38480692433285"><ele>1915.0</ele><time>2026-03-22T13:21:10Z</time></trkpt><trkpt lat="21.887301170178677" lon="-102.38456630649036"><ele>1915.0</ele><time>2026-03-22T13:21:12Z</time></trkpt><trkpt lat="21.88735686232086" lon="-102.38462584601358"><ele>1915.0</ele><time>2026-03-22T13:21:14Z</time></trkpt><trkpt lat="21.887379966173512" lon="-102.38472626152917"><ele>1915.0</ele><time>2026-03-22T13:21:17Z</time></trkpt><trkpt lat="21.887408883489087" lon="-102.38483304601584"><ele>1915.0</ele><time>2026-03-22T13:21:19Z</time></trkpt><trkpt lat="21.887437998303973" lon="-102.38494096200553"><ele>1915.0</ele><time>2026-03-22T13:21:21Z</time></trkpt><trkpt lat="21.887466478443685" lon="-102.38505039470533"><ele>1915.5000000000002</ele><time>2026-03-22T13:21:23Z</time></trkpt><trkpt lat="21.887494873140678" lon="-102.38515673840926"><ele>1916.0</ele><time>2026-03-22T13:21:25Z</time></trkpt><trkpt lat="21.887522981103146" lon="-102.38526205248805"><ele>1916.5</ele><time>2026-03-22T13:21:26Z</time></trkpt><trkpt lat="21.8875426811156" lon="-102.38533613798306"><ele>1917.0</ele><time>2026-03-22T13:21:27Z</time></trkpt><trkpt lat="21.88756059272777" lon="-102.38540349789477"><ele>1917.5000000000002</ele><time>2026-03-22T13:21:28Z</time></trkpt><trkpt lat="21.887578706427608" lon="-102.38547161780056"><ele>1918.0</ele><time>2026-03-22T13:21:29Z</time></trkpt><trkpt lat="21.88759951164433" lon="-102.38554968762645"><ele>1919.5</ele><time>2026-03-22T13:21:30Z</time></trkpt><trkpt lat="21.887640814170307" lon="-102.38570463713585"><ele>1921.0</ele><time>2026-03-22T13:21:32Z</time></trkpt><trkpt lat="21.887678052699254" lon="-102.38584541542187"><ele>1922.5</ele><time>2026-03-22T13:21:34Z</time></trkpt><trkpt lat="21.88767634210978" lon="-102.38593072687944"><ele>1924.0</ele><time>2026-03-22T13:21:35Z</time></trkpt><trkpt lat="21.8876758015706" lon="-102.38609985732444"><ele>1924.0000000000002</ele><time>2026-03-22T13:21:36Z</time></trkpt><trkpt lat="21.88769314327115" lon="-102.38616527582862"><ele>1924.0</ele><time>2026-03-22T13:21:37Z</time></trkpt><trkpt lat="21.88771126690986" lon="-102.38627592836669"><ele>1924.0</ele><time>2026-03-22T13:21:39Z</time></trkpt><trkpt lat="21.887730225381052" lon="-102.38634827061894"><ele>1924.0</ele><time>2026-03-22T13:21:40Z</time></trkpt><trkpt lat="21.887748019656616" lon="-102.38641784541034"><ele>1924.0000000000002</ele><time>2026-03-22T13:21:41Z</time></trkpt><trkpt lat="21.887772152174563" lon="-102.38648949429725"><ele>1924.0</ele><time>2026-03-22T13:21:42Z</time></trkpt><trkpt lat="21.887799075213998" lon="-102.38658212424815"><ele>1923.8333333333335</ele><time>2026-03-22T13:21:43Z</time></trkpt><trkpt lat="21.88784374894647" lon="-102.3866322488669"><ele>1923.6666666666667</ele><time>2026-03-22T13:21:44Z</time></trkpt><trkpt lat="21.887868208859903" lon="-102.38670187833621"><ele>1923.5</ele><time>2026-03-22T13:21:45Z</time></trkpt><trkpt lat="21.887928043377176" lon="-102.38674223988114"><ele>1923.3333333333335</ele><time>2026-03-22T13:21:46Z</time></trkpt><trkpt lat="21.88794173482766" lon="-102.38683445996506"><ele>1923.1666666666667</ele><time>2026-03-22T13:21:47Z</time></trkpt><trkpt lat="21.88798237990641" lon="-102.38698476189495"><ele>1923.0</ele><time>2026-03-22T13:21:48Z</time></trkpt><trkpt lat="21.8880058136348" lon="-102.38707141777076"><ele>1923.3333333333335</ele><time>2026-03-22T13:21:49Z</time></trkpt><trkpt lat="21.888059904518222" lon="-102.38727144128606"><ele>1923.6666666666667</ele><time>2026-03-22T13:21:51Z</time></trkpt><trkpt lat="21.888092000164452" lon="-102.38749250289416"><ele>1924.0</ele><time>2026-03-22T13:21:55Z</time></trkpt><trkpt lat="21.888103927900758" lon="-102.38756877310048"><ele>1924.0000000000002</ele><time>2026-03-22T13:21:56Z</time></trkpt><trkpt lat="21.888118077115095" lon="-102.3876473824586"><ele>1924.0</ele><time>2026-03-22T13:21:57Z</time></trkpt><trkpt lat="21.888122590334024" lon="-102.3877200561388"><ele>1924.0</ele><time>2026-03-22T13:21:58Z</time></trkpt><trkpt lat="21.88813973865539" lon="-102.38779146676389"><ele>1924.0</ele><time>2026-03-22T13:21:59Z</time></trkpt><trkpt lat="21.888153595197217" lon="-102.38786421112789"><ele>1924.0000000000002</ele><time>2026-03-22T13:22:00Z</time></trkpt><trkpt lat="21.88817976737407" lon="-102.3879997884452"><ele>1924.0</ele><time>2026-03-22T13:22:02Z</time></trkpt><trkpt lat="21.888203533370792" lon="-102.38812553474584"><ele>1924.1666666666667</ele><time>2026-03-22T13:22:04Z</time></trkpt><trkpt lat="21.888242325478952" lon="-102.3882076459065"><ele>1924.3333333333335</ele><time>2026-03-22T13:22:05Z</time></trkpt><trkpt lat="21.888240984236234" lon="-102.38828064203179"><ele>1924.5</ele><time>2026-03-22T13:22:06Z</time></trkpt><trkpt lat="21.888267006320792" lon="-102.38838493794758"><ele>1924.6666666666665</ele><time>2026-03-22T13:22:07Z</time></trkpt><trkpt lat="21.88832256757038" lon="-102.38844709456252"><ele>1924.8333333333333</ele><time>2026-03-22T13:22:08Z</time></trkpt><trkpt lat="21.88834945902497" lon="-102.38851610178506"><ele>1925.0</ele><time>2026-03-22T13:22:09Z</time></trkpt><trkpt lat="21.88833755093227" lon="-102.38861086220851"><ele>1924.9999999999998</ele><time>2026-03-22T13:22:10Z</time></trkpt><trkpt lat="21.888361030959167" lon="-102.38868518234433"><ele>1925.0</ele><time>2026-03-22T13:22:11Z</time></trkpt><trkpt lat="21.888382595215933" lon="-102.3887781372083"><ele>1925.0</ele><time>2026-03-22T13:22:12Z</time></trkpt><trkpt lat="21.888397110475815" lon="-102.3888914606382"><ele>1925.0</ele><time>2026-03-22T13:22:13Z</time></trkpt><trkpt lat="21.888404940060735" lon="-102.38897352018381"><ele>1924.9999999999998</ele><time>2026-03-22T13:22:14Z</time></trkpt><trkpt lat="21.888396531526936" lon="-102.38905318854259"><ele>1925.0</ele><time>2026-03-22T13:22:15Z</time></trkpt><trkpt lat="21.88851239967174" lon="-102.38922422556234"><ele>1924.5</ele><time>2026-03-22T13:22:16Z</time></trkpt><trkpt lat="21.888559126328715" lon="-102.3893801612611"><ele>1924.0</ele><time>2026-03-22T13:22:18Z</time></trkpt><trkpt lat="21.888586086377593" lon="-102.38947401977947"><ele>1923.5</ele><time>2026-03-22T13:22:19Z</time></trkpt><trkpt lat="21.888633134410824" lon="-102.38963839377912"><ele>1923.0</ele><time>2026-03-22T13:22:21Z</time></trkpt><trkpt lat="21.88865845100502" lon="-102.38972736824667"><ele>1923.0</ele><time>2026-03-22T13:22:23Z</time></trkpt><trkpt lat="21.88869084602528" lon="-102.38984345740751"><ele>1923.0000000000002</ele><time>2026-03-22T13:22:24Z</time></trkpt><trkpt lat="21.888711886426826" lon="-102.38997965668457"><ele>1923.0000000000002</ele><time>2026-03-22T13:22:26Z</time></trkpt><trkpt lat="21.888755628268694" lon="-102.39007212783459"><ele>1923.0</ele><time>2026-03-22T13:22:27Z</time></trkpt><trkpt lat="21.888783493371154" lon="-102.3901697800546"><ele>1923.0</ele><time>2026-03-22T13:22:28Z</time></trkpt><trkpt lat="21.888816709780574" lon="-102.39028730812609"><ele>1923.0</ele><time>2026-03-22T13:22:30Z</time></trkpt><trkpt lat="21.888849298662503" lon="-102.39040709402342"><ele>1923.0000000000002</ele><time>2026-03-22T13:22:32Z</time></trkpt><trkpt lat="21.888862314258873" lon="-102.39051725840874"><ele>1923.0000000000002</ele><time>2026-03-22T13:22:33Z</time></trkpt><trkpt lat="21.888897238971293" lon="-102.39059098575443"><ele>1923.0</ele><time>2026-03-22T13:22:34Z</time></trkpt><trkpt lat="21.88891649281647" lon="-102.39066562042386"><ele>1923.0</ele><time>2026-03-22T13:22:35Z</time></trkpt><trkpt lat="21.888953232923352" lon="-102.39080769902758"><ele>1923.4</ele><time>2026-03-22T13:22:37Z</time></trkpt><trkpt lat="21.888971958773727" lon="-102.3908798981592"><ele>1923.8000000000002</ele><time>2026-03-22T13:22:38Z</time></trkpt><trkpt lat="21.888986806862466" lon="-102.39100395404057"><ele>1924.2</ele><time>2026-03-22T13:22:39Z</time></trkpt><trkpt lat="21.889034038081324" lon="-102.3911068404634"><ele>1924.6</ele><time>2026-03-22T13:22:41Z</time></trkpt><trkpt lat="21.889054126623645" lon="-102.39117370450984"><ele>1925.0</ele><time>2026-03-22T13:22:42Z</time></trkpt><trkpt lat="21.889082773376252" lon="-102.39127186315645"><ele>1925.8333333333333</ele><time>2026-03-22T13:22:43Z</time></trkpt><trkpt lat="21.88910245725803" lon="-102.39135176205446"><ele>1926.6666666666665</ele><time>2026-03-22T13:22:44Z</time></trkpt><trkpt lat="21.88912649673109" lon="-102.39144848951422"><ele>1927.5</ele><time>2026-03-22T13:22:45Z</time></trkpt><trkpt lat="21.88914669666436" lon="-102.39152732997398"><ele>1928.3333333333335</ele><time>2026-03-22T13:22:46Z</time></trkpt><trkpt lat="21.88915027414323" lon="-102.3916009355717"><ele>1929.1666666666667</ele><time>2026-03-22T13:22:47Z</time></trkpt><trkpt lat="21.88918254962833" lon="-102.39167166956659"><ele>1930.0</ele><time>2026-03-22T13:22:48Z</time></trkpt><trkpt lat="21.88920022172709" lon="-102.39174310741366"><ele>1930.0000000000002</ele><time>2026-03-22T13:22:49Z</time></trkpt><trkpt lat="21.889196099270446" lon="-102.3918718277101"><ele>1930.0</ele><time>2026-03-22T13:22:50Z</time></trkpt><trkpt lat="21.889228877094038" lon="-102.39197651834093"><ele>1930.0</ele><time>2026-03-22T13:22:52Z</time></trkpt><trkpt lat="21.889250469509445" lon="-102.39206200094809"><ele>1930.0</ele><time>2026-03-22T13:22:53Z</time></trkpt><trkpt lat="21.889263296595544" lon="-102.3921331299898"><ele>1930.0000000000002</ele><time>2026-03-22T13:22:54Z</time></trkpt><trkpt lat="21.889298675038745" lon="-102.39219812101099"><ele>1930.0</ele><time>2026-03-22T13:22:55Z</time></trkpt><trkpt lat="21.889347098986214" lon="-102.39230653470068"><ele>1929.5000000000002</ele><time>2026-03-22T13:22:56Z</time></trkpt><trkpt lat="21.889343533061485" lon="-102.39237788384119"><ele>1929.0</ele><time>2026-03-22T13:22:57Z</time></trkpt><trkpt lat="21.88941126010653" lon="-102.39242911889284"><ele>1928.5</ele><time>2026-03-22T13:22:58Z</time></trkpt><trkpt lat="21.88945093717647" lon="-102.39250999629405"><ele>1928.0</ele><time>2026-03-22T13:22:59Z</time></trkpt><trkpt lat="21.889482444203036" lon="-102.39259290341056"><ele>1927.5000000000002</ele><time>2026-03-22T13:23:00Z</time></trkpt><trkpt lat="21.889495201359438" lon="-102.3927338721928"><ele>1927.0</ele><time>2026-03-22T13:23:02Z</time></trkpt><trkpt lat="21.88951558987059" lon="-102.39280575851294"><ele>1927.0</ele><time>2026-03-22T13:23:03Z</time></trkpt><trkpt lat="21.889558793493197" lon="-102.3928717453638"><ele>1927.0</ele><time>2026-03-22T13:23:04Z</time></trkpt><trkpt lat="21.889528327682317" lon="-102.39298907377415"><ele>1927.0</ele><time>2026-03-22T13:23:05Z</time></trkpt><trkpt lat="21.88928446399458" lon="-102.39339310292831"><ele>1928.0</ele><time>2026-03-22T13:23:06Z</time></trkpt><trkpt lat="21.889070796324777" lon="-102.39353214778436"><ele>1929.0</ele><time>2026-03-22T13:23:07Z</time></trkpt><trkpt lat="21.88923189569231" lon="-102.39360764614149"><ele>1930.0</ele><time>2026-03-22T13:23:09Z</time></trkpt><trkpt lat="21.88930685373216" lon="-102.39367920126746"><ele>1930.0</ele><time>2026-03-22T13:23:11Z</time></trkpt><trkpt lat="21.88938218507408" lon="-102.39378203397187"><ele>1930.0</ele><time>2026-03-22T13:23:13Z</time></trkpt><trkpt lat="21.889418393790017" lon="-102.39387093265545"><ele>1930.0</ele><time>2026-03-22T13:23:14Z</time></trkpt><trkpt lat="21.88945842752957" lon="-102.39396031609802"><ele>1930.0</ele><time>2026-03-22T13:23:15Z</time></trkpt><trkpt lat="21.889475790712215" lon="-102.39406912347847"><ele>1930.0</ele><time>2026-03-22T13:23:16Z</time></trkpt><trkpt lat="21.88983508037999" lon="-102.3941355345835"><ele>1930.0000000000002</ele><time>2026-03-22T13:23:18Z</time></trkpt><trkpt lat="21.889852170854212" lon="-102.39420236597098"><ele>1930.0</ele><time>2026-03-22T13:23:19Z</time></trkpt><trkpt lat="21.88987422691992" lon="-102.3942886148692"><ele>1930.0</ele><time>2026-03-22T13:23:21Z</time></trkpt><trkpt lat="21.889907073575383" lon="-102.39441705996177"><ele>1930.0</ele><time>2026-03-22T13:23:22Z</time></trkpt><trkpt lat="21.889928600489313" lon="-102.39449791854865"><ele>1930.0000000000002</ele><time>2026-03-22T13:23:23Z</time></trkpt><trkpt lat="21.889950148366744" lon="-102.39457895270208"><ele>1930.0</ele><time>2026-03-22T13:23:24Z</time></trkpt><trkpt lat="21.88996988434343" lon="-102.39465305758698"><ele>1929.5</ele><time>2026-03-22T13:23:25Z</time></trkpt><trkpt lat="21.890005477182008" lon="-102.39478519597188"><ele>1929.0</ele><time>2026-03-22T13:23:26Z</time></trkpt><trkpt lat="21.890034519724964" lon="-102.39489301636694"><ele>1928.5</ele><time>2026-03-22T13:23:28Z</time></trkpt><trkpt lat="21.890060949406973" lon="-102.39499113661088"><ele>1928.0</ele><time>2026-03-22T13:23:29Z</time></trkpt><trkpt lat="21.890098510134933" lon="-102.39513073868466"><ele>1927.2</ele><time>2026-03-22T13:23:31Z</time></trkpt><trkpt lat="21.890127199247022" lon="-102.39523748518754"><ele>1926.4</ele><time>2026-03-22T13:23:32Z</time></trkpt><trkpt lat="21.89014974273655" lon="-102.39532155563687"><ele>1925.6000000000001</ele><time>2026-03-22T13:23:33Z</time></trkpt><trkpt lat="21.89018844116745" lon="-102.39546602223777"><ele>1924.8000000000002</ele><time>2026-03-22T13:23:34Z</time></trkpt><trkpt lat="21.89021842042777" lon="-102.39557718753598"><ele>1924.0</ele><time>2026-03-22T13:23:35Z</time></trkpt><trkpt lat="21.88996755742684" lon="-102.3957696632608"><ele>1924.0</ele><time>2026-03-22T13:23:36Z</time></trkpt><trkpt lat="21.890016804978877" lon="-102.39588671793719"><ele>1924.0</ele><time>2026-03-22T13:23:37Z</time></trkpt><trkpt lat="21.890046691337854" lon="-102.39600181933048"><ele>1924.0</ele><time>2026-03-22T13:23:38Z</time></trkpt><trkpt lat="21.890070065462446" lon="-102.39609506490041"><ele>1924.0</ele><time>2026-03-22T13:23:39Z</time></trkpt><trkpt lat="21.89021096497308" lon="-102.39619526894946"><ele>1923.5</ele><time>2026-03-22T13:23:40Z</time></trkpt><trkpt lat="21.89027325657284" lon="-102.3963033403574"><ele>1923.0</ele><time>2026-03-22T13:23:41Z</time></trkpt><trkpt lat="21.890335264967934" lon="-102.39645405500067"><ele>1922.5</ele><time>2026-03-22T13:23:42Z</time></trkpt><trkpt lat="21.890442582131016" lon="-102.39657376720287"><ele>1922.0</ele><time>2026-03-22T13:23:43Z</time></trkpt><trkpt lat="21.890517511686483" lon="-102.39671951269665"><ele>1922.0</ele><time>2026-03-22T13:23:44Z</time></trkpt><trkpt lat="21.890552206991245" lon="-102.39680156325792"><ele>1921.9999999999998</ele><time>2026-03-22T13:23:45Z</time></trkpt><trkpt lat="21.890570479368986" lon="-102.39690568884708"><ele>1921.9999999999998</ele><time>2026-03-22T13:23:46Z</time></trkpt><trkpt lat="21.890604343570253" lon="-102.39704621362282"><ele>1922.0</ele><time>2026-03-22T13:23:47Z</time></trkpt><trkpt lat="21.890626527641974" lon="-102.3971250945114"><ele>1922.0</ele><time>2026-03-22T13:23:48Z</time></trkpt><trkpt lat="21.89068703770382" lon="-102.3972786563558"><ele>1923.5</ele><time>2026-03-22T13:23:49Z</time></trkpt><trkpt lat="21.890697407410222" lon="-102.39739894616352"><ele>1925.0</ele><time>2026-03-22T13:23:50Z</time></trkpt><trkpt lat="21.89073859684234" lon="-102.39757195319903"><ele>1926.5</ele><time>2026-03-22T13:23:52Z</time></trkpt><trkpt lat="21.89077649333103" lon="-102.39772199717962"><ele>1928.0</ele><time>2026-03-22T13:23:54Z</time></trkpt><trkpt lat="21.89083512424959" lon="-102.39790017317418"><ele>1928.2</ele><time>2026-03-22T13:23:56Z</time></trkpt><trkpt lat="21.890866065750043" lon="-102.39800840187472"><ele>1928.4</ele><time>2026-03-22T13:23:57Z</time></trkpt><trkpt lat="21.89087759663786" lon="-102.39809221429164"><ele>1928.6000000000001</ele><time>2026-03-22T13:23:58Z</time></trkpt><trkpt lat="21.890911047672564" lon="-102.39817728161198"><ele>1928.8000000000002</ele><time>2026-03-22T13:23:59Z</time></trkpt><trkpt lat="21.890944621132117" lon="-102.39828770680934"><ele>1929.0</ele><time>2026-03-22T13:24:00Z</time></trkpt><trkpt lat="21.890967341166547" lon="-102.39836975272472"><ele>1928.8333333333333</ele><time>2026-03-22T13:24:01Z</time></trkpt><trkpt lat="21.890991630902906" lon="-102.3984472637473"><ele>1928.6666666666665</ele><time>2026-03-22T13:24:02Z</time></trkpt><trkpt lat="21.8910134342304" lon="-102.39854112003268"><ele>1928.5</ele><time>2026-03-22T13:24:03Z</time></trkpt><trkpt lat="21.891044058193888" lon="-102.3986135467097"><ele>1928.3333333333333</ele><time>2026-03-22T13:24:04Z</time></trkpt><trkpt lat="21.891078289941817" lon="-102.39871908040706"><ele>1928.1666666666665</ele><time>2026-03-22T13:24:05Z</time></trkpt><trkpt lat="21.89109523038036" lon="-102.39881532681493"><ele>1928.0</ele><time>2026-03-22T13:24:06Z</time></trkpt><trkpt lat="21.89111902098981" lon="-102.39889746273737"><ele>1928.0</ele><time>2026-03-22T13:24:07Z</time></trkpt><trkpt lat="21.891150302646338" lon="-102.39898490580296"><ele>1928.0000000000002</ele><time>2026-03-22T13:24:08.02Z</time></trkpt><trkpt lat="21.891177348911313" lon="-102.39907341796557"><ele>1928.0000000000002</ele><time>2026-03-22T13:24:09.021Z</time></trkpt><trkpt lat="21.891204194288118" lon="-102.39916205586997"><ele>1928.0</ele><time>2026-03-22T13:24:10.021Z</time></trkpt><trkpt lat="21.891230071646092" lon="-102.39925205236197"><ele>1928.0</ele><time>2026-03-22T13:24:11.021Z</time></trkpt><trkpt lat="21.891242933444296" lon="-102.39937893284109"><ele>1928.0</ele><time>2026-03-22T13:24:13Z</time></trkpt><trkpt lat="21.891254857575916" lon="-102.39945262199937"><ele>1928.0000000000002</ele><time>2026-03-22T13:24:14Z</time></trkpt><trkpt lat="21.89128772269165" lon="-102.39957071692159"><ele>1928.0000000000002</ele><time>2026-03-22T13:24:16Z</time></trkpt><trkpt lat="21.891311189482554" lon="-102.39965166971696"><ele>1928.0</ele><time>2026-03-22T13:24:17Z</time></trkpt><trkpt lat="21.891277993008977" lon="-102.39952835654638"><ele>1928.0</ele><time>2026-03-22T13:24:18Z</time></trkpt><trkpt lat="21.891327446904306" lon="-102.39971206115322"><ele>1928.75</ele><time>2026-03-22T13:24:21Z</time></trkpt><trkpt lat="21.891376635099526" lon="-102.39989418581315"><ele>1929.5</ele><time>2026-03-22T13:24:24Z</time></trkpt><trkpt lat="21.891404510829837" lon="-102.39999681900575"><ele>1930.25</ele><time>2026-03-22T13:24:25Z</time></trkpt><trkpt lat="21.891417655579385" lon="-102.40010720279865"><ele>1931.0</ele><time>2026-03-22T13:24:27Z</time></trkpt><trkpt lat="21.891484093745966" lon="-102.40034565176948"><ele>1931.0</ele><time>2026-03-22T13:24:29Z</time></trkpt><trkpt lat="21.89155815571927" lon="-102.40039506132881"><ele>1931.0</ele><time>2026-03-22T13:24:30Z</time></trkpt><trkpt lat="21.891551200549394" lon="-102.40052232534545"><ele>1931.0</ele><time>2026-03-22T13:24:31Z</time></trkpt><trkpt lat="21.891589929959757" lon="-102.40068025681786"><ele>1931.0</ele><time>2026-03-22T13:24:33Z</time></trkpt><trkpt lat="21.891611552443113" lon="-102.4007598361014"><ele>1931.0</ele><time>2026-03-22T13:24:34Z</time></trkpt><trkpt lat="21.89164157094885" lon="-102.40087072010554"><ele>1931.4999999999998</ele><time>2026-03-22T13:24:37Z</time></trkpt><trkpt lat="21.89165796273486" lon="-102.40095065013324"><ele>1932.0</ele><time>2026-03-22T13:24:39Z</time></trkpt><trkpt lat="21.89167309133094" lon="-102.4010278601799"><ele>1932.5</ele><time>2026-03-22T13:24:42Z</time></trkpt><trkpt lat="21.891689299424215" lon="-102.40112256651936"><ele>1933.0</ele><time>2026-03-22T13:24:45Z</time></trkpt><trkpt lat="21.891687827057034" lon="-102.40121692995417"><ele>1933.4999999999998</ele><time>2026-03-22T13:24:53Z</time></trkpt><trkpt lat="21.891731327944328" lon="-102.401292748819"><ele>1934.0</ele><time>2026-03-22T13:24:57Z</time></trkpt><trkpt lat="21.891801575879903" lon="-102.40132378136704"><ele>1936.1666666666665</ele><time>2026-03-22T13:24:58Z</time></trkpt><trkpt lat="21.8917661041965" lon="-102.40140062191682"><ele>1938.3333333333333</ele><time>2026-03-22T13:25:00Z</time></trkpt><trkpt lat="21.89181003107654" lon="-102.40146635249516"><ele>1940.5</ele><time>2026-03-22T13:25:03Z</time></trkpt><trkpt lat="21.891785763200232" lon="-102.40156508416969"><ele>1942.6666666666665</ele><time>2026-03-22T13:25:05Z</time></trkpt><trkpt lat="21.89178900738789" lon="-102.4016463380474"><ele>1944.8333333333333</ele><time>2026-03-22T13:25:08Z</time></trkpt><trkpt lat="21.89185352331672" lon="-102.40168034613458"><ele>1947.0</ele><time>2026-03-22T13:25:09Z</time></trkpt><trkpt lat="21.891843264280332" lon="-102.40175131019784"><ele>1947.0000000000002</ele><time>2026-03-22T13:25:12Z</time></trkpt><trkpt lat="21.891827284432058" lon="-102.40183465617172"><ele>1947.0</ele><time>2026-03-22T13:25:15Z</time></trkpt><trkpt lat="21.89185033726244" lon="-102.40190635436586"><ele>1947.0000000000002</ele><time>2026-03-22T13:25:20Z</time></trkpt><trkpt lat="21.891909301470964" lon="-102.4019615665414"><ele>1947.0000000000002</ele><time>2026-03-22T13:25:24Z</time></trkpt><trkpt lat="21.89193473299048" lon="-102.4020286347556"><ele>1947.0</ele><time>2026-03-22T13:25:28Z</time></trkpt><trkpt lat="21.891975978053754" lon="-102.40208172496274"><ele>1947.0000000000002</ele><time>2026-03-22T13:25:31Z</time></trkpt><trkpt lat="21.89205785200272" lon="-102.40212160483655"><ele>1947.0000000000002</ele><time>2026-03-22T13:25:33Z</time></trkpt><trkpt lat="21.892112594667772" lon="-102.40218742502051"><ele>1948.1999999999998</ele><time>2026-03-22T13:25:35Z</time></trkpt><trkpt lat="21.892174418587214" lon="-102.40226585982074"><ele>1949.3999999999999</ele><time>2026-03-22T13:25:37Z</time></trkpt><trkpt lat="21.892175550441827" lon="-102.40240702675023"><ele>1950.6000000000001</ele><time>2026-03-22T13:25:39Z</time></trkpt><trkpt lat="21.89221571167786" lon="-102.40246556593756"><ele>1951.8000000000002</ele><time>2026-03-22T13:25:40Z</time></trkpt><trkpt lat="21.89217749665306" lon="-102.40256533375278"><ele>1953.0</ele><time>2026-03-22T13:25:41Z</time></trkpt><trkpt lat="21.892102803897462" lon="-102.40241817331028"><ele>1953.0</ele><time>2026-03-22T13:25:42Z</time></trkpt><trkpt lat="21.892161165642342" lon="-102.40244973091815"><ele>1953.0000000000002</ele><time>2026-03-22T13:25:43Z</time></trkpt><trkpt lat="21.892240842806057" lon="-102.4024747765788"><ele>1953.0000000000002</ele><time>2026-03-22T13:25:44Z</time></trkpt><trkpt lat="21.89214327319356" lon="-102.40258555977621"><ele>1953.0</ele><time>2026-03-22T13:25:45Z</time></trkpt><trkpt lat="21.892189658819905" lon="-102.40266016447227"><ele>1953.0</ele><time>2026-03-22T13:25:48Z</time></trkpt><trkpt lat="21.89221920717584" lon="-102.40279985228977"><ele>1953.0</ele><time>2026-03-22T13:25:50Z</time></trkpt><trkpt lat="21.892277401956942" lon="-102.40285779300787"><ele>1953.0</ele><time>2026-03-22T13:25:56Z</time></trkpt><trkpt lat="21.892349984196525" lon="-102.40292973394479"><ele>1953.0</ele><time>2026-03-22T13:25:59Z</time></trkpt><trkpt lat="21.892407742527332" lon="-102.40301536496527"><ele>1953.0</ele><time>2026-03-22T13:26:01Z</time></trkpt><trkpt lat="21.892447869074232" lon="-102.40308931496081"><ele>1953.0</ele><time>2026-03-22T13:26:02Z</time></trkpt><trkpt lat="21.89242626714025" lon="-102.40316503523574"><ele>1953.0</ele><time>2026-03-22T13:26:07Z</time></trkpt><trkpt lat="21.892390572068297" lon="-102.40326891174693"><ele>1953.4</ele><time>2026-03-22T13:26:08Z</time></trkpt><trkpt lat="21.892406137645615" lon="-102.40335008647367"><ele>1953.8000000000002</ele><time>2026-03-22T13:26:12Z</time></trkpt><trkpt lat="21.89230181329469" lon="-102.40346345860385"><ele>1954.2</ele><time>2026-03-22T13:26:13Z</time></trkpt><trkpt lat="21.892317358909352" lon="-102.40360346033017"><ele>1954.6</ele><time>2026-03-22T13:26:14Z</time></trkpt><trkpt lat="21.892370763749238" lon="-102.40364279213041"><ele>1955.0</ele><time>2026-03-22T13:26:21Z</time></trkpt><trkpt lat="21.892488710421652" lon="-102.40372669181689"><ele>1955.0</ele><time>2026-03-22T13:26:22Z</time></trkpt><trkpt lat="21.892543099482044" lon="-102.40381519962439"><ele>1955.0</ele><time>2026-03-22T13:26:24Z</time></trkpt><trkpt lat="21.892575520348675" lon="-102.40394196909801"><ele>1955.0</ele><time>2026-03-22T13:26:26Z</time></trkpt><trkpt lat="21.89259819260743" lon="-102.40404304602595"><ele>1955.0</ele><time>2026-03-22T13:26:27Z</time></trkpt><trkpt lat="21.892616385105036" lon="-102.40411644230021"><ele>1955.0</ele><time>2026-03-22T13:26:28Z</time></trkpt><trkpt lat="21.892635624089625" lon="-102.40427695971017"><ele>1954.6</ele><time>2026-03-22T13:26:29Z</time></trkpt><trkpt lat="21.892653433725684" lon="-102.40436075486167"><ele>1954.2</ele><time>2026-03-22T13:26:30Z</time></trkpt><trkpt lat="21.89263111138061" lon="-102.40444888289213"><ele>1953.8000000000002</ele><time>2026-03-22T13:26:31Z</time></trkpt><trkpt lat="21.89263931042032" lon="-102.40454348387038"><ele>1953.4</ele><time>2026-03-22T13:26:32Z</time></trkpt><trkpt lat="21.8925722295094" lon="-102.40437557502081"><ele>1953.0</ele><time>2026-03-22T13:26:33Z</time></trkpt><trkpt lat="21.892640268724342" lon="-102.4044156291351"><ele>1954.5</ele><time>2026-03-22T13:26:35Z</time></trkpt><trkpt lat="21.892667980870293" lon="-102.40448071283505"><ele>1956.0</ele><time>2026-03-22T13:26:38Z</time></trkpt><trkpt lat="21.892691574848747" lon="-102.40456248976157"><ele>1957.5</ele><time>2026-03-22T13:26:39Z</time></trkpt><trkpt lat="21.892699896249066" lon="-102.40466772067136"><ele>1959.0</ele><time>2026-03-22T13:26:40Z</time></trkpt><trkpt lat="21.892729770806728" lon="-102.40472933803356"><ele>1960.5</ele><time>2026-03-22T13:26:42Z</time></trkpt><trkpt lat="21.892782433619036" lon="-102.40481469364893"><ele>1962.0</ele><time>2026-03-22T13:26:45Z</time></trkpt><trkpt lat="21.892826841759444" lon="-102.40497164561542"><ele>1962.1999999999998</ele><time>2026-03-22T13:26:47Z</time></trkpt><trkpt lat="21.892856706953335" lon="-102.40508037313813"><ele>1962.3999999999999</ele><time>2026-03-22T13:26:49Z</time></trkpt><trkpt lat="21.89290562677456" lon="-102.405258470894"><ele>1962.6000000000001</ele><time>2026-03-22T13:26:51Z</time></trkpt><trkpt lat="21.892928375623274" lon="-102.40534192674453"><ele>1962.8000000000002</ele><time>2026-03-22T13:26:53Z</time></trkpt><trkpt lat="21.892946079210265" lon="-102.4054070524438"><ele>1963.0</ele><time>2026-03-22T13:26:56Z</time></trkpt><trkpt lat="21.89296771399478" lon="-102.40548547668278"><ele>1963.0</ele><time>2026-03-22T13:26:58Z</time></trkpt><trkpt lat="21.89301538340519" lon="-102.4055506498263"><ele>1963.0000000000002</ele><time>2026-03-22T13:27:02Z</time></trkpt><trkpt lat="21.893057353607368" lon="-102.40565655387961"><ele>1963.0000000000002</ele><time>2026-03-22T13:27:05Z</time></trkpt><trkpt lat="21.89310078532539" lon="-102.40578237534349"><ele>1963.0</ele><time>2026-03-22T13:27:06Z</time></trkpt><trkpt lat="21.893112223506254" lon="-102.40591846419727"><ele>1963.0</ele><time>2026-03-22T13:27:08Z</time></trkpt><trkpt lat="21.893144798386054" lon="-102.40601672418195"><ele>1963.0</ele><time>2026-03-22T13:27:10Z</time></trkpt><trkpt lat="21.893165330382455" lon="-102.40608239677942"><ele>1963.0000000000002</ele><time>2026-03-22T13:27:11Z</time></trkpt><trkpt lat="21.893189945831306" lon="-102.40617001140629"><ele>1963.0000000000002</ele><time>2026-03-22T13:27:13Z</time></trkpt><trkpt lat="21.89321161046757" lon="-102.40625581704182"><ele>1963.0</ele><time>2026-03-22T13:27:14Z</time></trkpt><trkpt lat="21.893263797423625" lon="-102.40640133528777"><ele>1963.0</ele><time>2026-03-22T13:27:15Z</time></trkpt><trkpt lat="21.89331180578798" lon="-102.40663213632587"><ele>1963.5</ele><time>2026-03-22T13:27:16Z</time></trkpt><trkpt lat="21.893321847740076" lon="-102.40681623605094"><ele>1964.0</ele><time>2026-03-22T13:27:17Z</time></trkpt><trkpt lat="21.893346907357376" lon="-102.40690893087326"><ele>1964.5</ele><time>2026-03-22T13:27:18Z</time></trkpt><trkpt lat="21.89339158763744" lon="-102.40703878130556"><ele>1965.0</ele><time>2026-03-22T13:27:19Z</time></trkpt><trkpt lat="21.89343890189504" lon="-102.40730652544958"><ele>1964.0</ele><time>2026-03-22T13:27:20Z</time></trkpt><trkpt lat="21.89346797478363" lon="-102.4074781542467"><ele>1963.0</ele><time>2026-03-22T13:27:21Z</time></trkpt><trkpt lat="21.89348891463077" lon="-102.40755102580823"><ele>1962.0</ele><time>2026-03-22T13:27:22Z</time></trkpt><trkpt lat="21.893506048534793" lon="-102.40762034858756"><ele>1961.0</ele><time>2026-03-22T13:27:23Z</time></trkpt><trkpt lat="21.89355129670479" lon="-102.40769019392609"><ele>1960.0</ele><time>2026-03-22T13:27:24Z</time></trkpt><trkpt lat="21.893521710589813" lon="-102.40775653624496"><ele>1959.0</ele><time>2026-03-22T13:27:25Z</time></trkpt><trkpt lat="21.893532780662586" lon="-102.40783436139813"><ele>1959.0</ele><time>2026-03-22T13:27:26Z</time></trkpt><trkpt lat="21.89352526732893" lon="-102.40793270727572"><ele>1959.0</ele><time>2026-03-22T13:27:27Z</time></trkpt><trkpt lat="21.893491496432098" lon="-102.40805724342492"><ele>1959.0</ele><time>2026-03-22T13:27:28Z</time></trkpt><trkpt lat="21.893859676038325" lon="-102.40819209274946"><ele>1960.0</ele><time>2026-03-22T13:27:31Z</time></trkpt><trkpt lat="21.893905939502076" lon="-102.4082800185099"><ele>1961.0</ele><time>2026-03-22T13:27:32Z</time></trkpt><trkpt lat="21.893923918083814" lon="-102.40836492304223"><ele>1962.0</ele><time>2026-03-22T13:27:33Z</time></trkpt><trkpt lat="21.893937927582943" lon="-102.40843840200779"><ele>1963.0</ele><time>2026-03-22T13:27:34Z</time></trkpt><trkpt lat="21.89397047293434" lon="-102.40855614484202"><ele>1964.0</ele><time>2026-03-22T13:27:36Z</time></trkpt><trkpt lat="21.893972087425514" lon="-102.40867397535"><ele>1964.0</ele><time>2026-03-22T13:27:38Z</time></trkpt><trkpt lat="21.893986173110843" lon="-102.40881117388862"><ele>1964.0</ele><time>2026-03-22T13:27:40Z</time></trkpt><trkpt lat="21.893999461074635" lon="-102.40890249398919"><ele>1964.0</ele><time>2026-03-22T13:27:41Z</time></trkpt><trkpt lat="21.894022677808934" lon="-102.40896601668065"><ele>1964.0</ele><time>2026-03-22T13:27:43Z</time></trkpt><trkpt lat="21.894061949242342" lon="-102.40910459307054"><ele>1964.0</ele><time>2026-03-22T13:27:45Z</time></trkpt><trkpt lat="21.894097147772214" lon="-102.40922998712162"><ele>1964.2</ele><time>2026-03-22T13:27:47Z</time></trkpt><trkpt lat="21.894100593971203" lon="-102.40931701163144"><ele>1964.4</ele><time>2026-03-22T13:27:48Z</time></trkpt><trkpt lat="21.894128838182223" lon="-102.40940190198184"><ele>1964.6</ele><time>2026-03-22T13:27:49Z</time></trkpt><trkpt lat="21.894183499275872" lon="-102.4095243617464"><ele>1964.8</ele><time>2026-03-22T13:27:51Z</time></trkpt><trkpt lat="21.894260896099293" lon="-102.4095755285566"><ele>1965.0</ele><time>2026-03-22T13:27:52Z</time></trkpt><trkpt lat="21.894255320503518" lon="-102.40968473032137"><ele>1965.0</ele><time>2026-03-22T13:27:54Z</time></trkpt><trkpt lat="21.89427951640128" lon="-102.40975427490892"><ele>1965.0</ele><time>2026-03-22T13:27:55Z</time></trkpt><trkpt lat="21.894293641962292" lon="-102.40985769214709"><ele>1965.0</ele><time>2026-03-22T13:27:57Z</time></trkpt><trkpt lat="21.89432689419255" lon="-102.40998191572804"><ele>1965.0</ele><time>2026-03-22T13:27:59Z</time></trkpt><trkpt lat="21.894335414238537" lon="-102.410050435266"><ele>1965.0</ele><time>2026-03-22T13:28:00Z</time></trkpt><trkpt lat="21.8944412384244" lon="-102.41009570488883"><ele>1965.0</ele><time>2026-03-22T13:28:02Z</time></trkpt><trkpt lat="21.894496901787935" lon="-102.41015986306246"><ele>1965.0</ele><time>2026-03-22T13:28:03Z</time></trkpt><trkpt lat="21.894537824525255" lon="-102.41026747549095"><ele>1965.0</ele><time>2026-03-22T13:28:05Z</time></trkpt><trkpt lat="21.894509696447606" lon="-102.41035942616627"><ele>1965.0</ele><time>2026-03-22T13:28:06Z</time></trkpt><trkpt lat="21.894549704736082" lon="-102.41049983402628"><ele>1965.0</ele><time>2026-03-22T13:28:08Z</time></trkpt><trkpt lat="21.894703503579073" lon="-102.41058427968919"><ele>1966.25</ele><time>2026-03-22T13:28:10Z</time></trkpt><trkpt lat="21.894752766678465" lon="-102.41073605900833"><ele>1967.5</ele><time>2026-03-22T13:28:12Z</time></trkpt><trkpt lat="21.89466106833416" lon="-102.41087201596251"><ele>1968.75</ele><time>2026-03-22T13:28:13Z</time></trkpt><trkpt lat="21.894664177891155" lon="-102.410961420029"><ele>1970.0</ele><time>2026-03-22T13:28:14Z</time></trkpt><trkpt lat="21.894650767153447" lon="-102.41110760936007"><ele>1970.0</ele><time>2026-03-22T13:28:16Z</time></trkpt><trkpt lat="21.89467336284638" lon="-102.41122205849388"><ele>1970.0</ele><time>2026-03-22T13:28:18Z</time></trkpt><trkpt lat="21.894655601961755" lon="-102.41131858581087"><ele>1970.0</ele><time>2026-03-22T13:28:19Z</time></trkpt><trkpt lat="21.894603992442185" lon="-102.41141445739483"><ele>1970.0</ele><time>2026-03-22T13:28:20Z</time></trkpt><trkpt lat="21.894632450001165" lon="-102.41151855021431"><ele>1970.0</ele><time>2026-03-22T13:28:22Z</time></trkpt><trkpt lat="21.894652951193653" lon="-102.41158926786835"><ele>1970.2</ele><time>2026-03-22T13:28:23Z</time></trkpt><trkpt lat="21.894671721790026" lon="-102.41165476520354"><ele>1970.4</ele><time>2026-03-22T13:28:24Z</time></trkpt><trkpt lat="21.894706189723898" lon="-102.4117784128764"><ele>1970.6</ele><time>2026-03-22T13:28:26Z</time></trkpt><trkpt lat="21.89473946137291" lon="-102.41185623555857"><ele>1970.8</ele><time>2026-03-22T13:28:27Z</time></trkpt><trkpt lat="21.89476685819481" lon="-102.4119898473279"><ele>1971.0</ele><time>2026-03-22T13:28:29Z</time></trkpt><trkpt lat="21.894791176278122" lon="-102.41212033179985"><ele>1971.0</ele><time>2026-03-22T13:28:31Z</time></trkpt><trkpt lat="21.89477963897807" lon="-102.41204413830654"><ele>1970.9999999999998</ele><time>2026-03-22T13:28:33Z</time></trkpt><trkpt lat="21.894799887793624" lon="-102.4121129831578"><ele>1971.0</ele><time>2026-03-22T13:28:38Z</time></trkpt><trkpt lat="21.894785446870454" lon="-102.41218193391221"><ele>1971.0</ele><time>2026-03-22T13:28:40Z</time></trkpt><trkpt lat="21.89482428576764" lon="-102.41225691238016"><ele>1970.9999999999998</ele><time>2026-03-22T13:28:42Z</time></trkpt><trkpt lat="21.894883814389388" lon="-102.41230915054932"><ele>1971.0</ele><time>2026-03-22T13:28:43Z</time></trkpt><trkpt lat="21.894853396064505" lon="-102.41223905153946"><ele>1971.0</ele><time>2026-03-22T13:28:44Z</time></trkpt><trkpt lat="21.894826528076813" lon="-102.41230681875848"><ele>1971.0</ele><time>2026-03-22T13:28:46Z</time></trkpt><trkpt lat="21.894895483315235" lon="-102.41233694253162"><ele>1971.0</ele><time>2026-03-22T13:28:47Z</time></trkpt><trkpt lat="21.89496298690686" lon="-102.41236790297029"><ele>1971.0</ele><time>2026-03-22T13:28:48Z</time></trkpt><trkpt lat="21.89502504407707" lon="-102.41252929888438"><ele>1971.0</ele><time>2026-03-22T13:28:51Z</time></trkpt><trkpt lat="21.89499673145488" lon="-102.41262396347491"><ele>1971.0</ele><time>2026-03-22T13:28:52Z</time></trkpt><trkpt lat="21.894939288960718" lon="-102.41273298712046"><ele>1971.0</ele><time>2026-03-22T13:28:53Z</time></trkpt><trkpt lat="21.894904928681225" lon="-102.41282974321686"><ele>1971.0</ele><time>2026-03-22T13:28:54Z</time></trkpt><trkpt lat="21.89494309872477" lon="-102.4128993219753"><ele>1971.0</ele><time>2026-03-22T13:28:55Z</time></trkpt><trkpt lat="21.894937397211585" lon="-102.41299376118526"><ele>1971.0</ele><time>2026-03-22T13:28:56Z</time></trkpt><trkpt lat="21.894963192383074" lon="-102.41314017301448"><ele>1971.0</ele><time>2026-03-22T13:28:58Z</time></trkpt><trkpt lat="21.894895933432228" lon="-102.41300464827799"><ele>1971.75</ele><time>2026-03-22T13:28:59Z</time></trkpt><trkpt lat="21.894960019627728" lon="-102.41300866559173"><ele>1972.5</ele><time>2026-03-22T13:29:03Z</time></trkpt><trkpt lat="21.894910605954664" lon="-102.4131301963177"><ele>1973.25</ele><time>2026-03-22T13:29:07Z</time></trkpt><trkpt lat="21.894877525166486" lon="-102.41324677321703"><ele>1974.0</ele><time>2026-03-22T13:29:08Z</time></trkpt><trkpt lat="21.894981121243966" lon="-102.41336950259087"><ele>1974.0</ele><time>2026-03-22T13:29:09Z</time></trkpt><trkpt lat="21.895241241363944" lon="-102.41348582910047"><ele>1974.0</ele><time>2026-03-22T13:29:10Z</time></trkpt><trkpt lat="21.895284145622366" lon="-102.41355415647462"><ele>1974.0</ele><time>2026-03-22T13:29:11Z</time></trkpt><trkpt lat="21.895323490330913" lon="-102.4136079086659"><ele>1974.0</ele><time>2026-03-22T13:29:12Z</time></trkpt><trkpt lat="21.89546076669546" lon="-102.41372655535125"><ele>1975.5</ele><time>2026-03-22T13:29:13Z</time></trkpt><trkpt lat="21.89549492262587" lon="-102.41382320592432"><ele>1977.0</ele><time>2026-03-22T13:29:14Z</time></trkpt><trkpt lat="21.8954224427706" lon="-102.41401752241728"><ele>1978.5</ele><time>2026-03-22T13:29:15Z</time></trkpt><trkpt lat="21.895433364818157" lon="-102.41412307411365"><ele>1980.0</ele><time>2026-03-22T13:29:16Z</time></trkpt><trkpt lat="21.8954458288069" lon="-102.41422743015566"><ele>1980.0</ele><time>2026-03-22T13:29:17Z</time></trkpt><trkpt lat="21.895465867489463" lon="-102.41429829974072"><ele>1980.0</ele><time>2026-03-22T13:29:18Z</time></trkpt><trkpt lat="21.895627044684144" lon="-102.4146526750253"><ele>1980.0</ele><time>2026-03-22T13:29:19Z</time></trkpt><trkpt lat="21.895436941044583" lon="-102.41487183768666"><ele>1981.25</ele><time>2026-03-22T13:29:21Z</time></trkpt><trkpt lat="21.895401162106683" lon="-102.41493142260312"><ele>1982.5</ele><time>2026-03-22T13:29:22Z</time></trkpt><trkpt lat="21.89534995822863" lon="-102.4150444299835"><ele>1983.75</ele><time>2026-03-22T13:29:23Z</time></trkpt><trkpt lat="21.895215062621322" lon="-102.41520499029043"><ele>1985.0</ele><time>2026-03-22T13:29:24Z</time></trkpt><trkpt lat="21.895200168465358" lon="-102.41529581160226"><ele>1985.0</ele><time>2026-03-22T13:29:25Z</time></trkpt><trkpt lat="21.895188766436362" lon="-102.41542158209225"><ele>1985.0</ele><time>2026-03-22T13:29:27Z</time></trkpt><trkpt lat="21.895204188796775" lon="-102.41555036990246"><ele>1985.0</ele><time>2026-03-22T13:29:29Z</time></trkpt><trkpt lat="21.895220026031335" lon="-102.4156674655553"><ele>1985.0</ele><time>2026-03-22T13:29:31Z</time></trkpt><trkpt lat="21.895254165958168" lon="-102.41576567199704"><ele>1985.0</ele><time>2026-03-22T13:29:33Z</time></trkpt><trkpt lat="21.895328989570142" lon="-102.41596237297148"><ele>1984.8</ele><time>2026-03-22T13:29:35Z</time></trkpt><trkpt lat="21.895382776133385" lon="-102.4160751361587"><ele>1984.6</ele><time>2026-03-22T13:29:37Z</time></trkpt><trkpt lat="21.89541456419194" lon="-102.4161509782873"><ele>1984.4</ele><time>2026-03-22T13:29:39Z</time></trkpt><trkpt lat="21.89543494452619" lon="-102.41627245609034"><ele>1984.2</ele><time>2026-03-22T13:29:40Z</time></trkpt><trkpt lat="21.895453404339975" lon="-102.4163782910531"><ele>1984.0</ele><time>2026-03-22T13:29:41Z</time></trkpt><trkpt lat="21.895498207512922" lon="-102.41646945558728"><ele>1983.2</ele><time>2026-03-22T13:29:42Z</time></trkpt><trkpt lat="21.8955423246638" lon="-102.41653525379915"><ele>1982.4</ele><time>2026-03-22T13:29:43Z</time></trkpt><trkpt lat="21.89557872106924" lon="-102.4166119780841"><ele>1981.6</ele><time>2026-03-22T13:29:44Z</time></trkpt><trkpt lat="21.89561053590354" lon="-102.4167139496809"><ele>1980.8</ele><time>2026-03-22T13:29:46Z</time></trkpt><trkpt lat="21.895642358330154" lon="-102.41678416039416"><ele>1980.0</ele><time>2026-03-22T13:29:47Z</time></trkpt><trkpt lat="21.895746799673685" lon="-102.41688750993063"><ele>1980.0</ele><time>2026-03-22T13:29:49Z</time></trkpt><trkpt lat="21.895785819313012" lon="-102.41697617188312"><ele>1980.0</ele><time>2026-03-22T13:29:50Z</time></trkpt><trkpt lat="21.895831066244472" lon="-102.41714244857864"><ele>1980.0</ele><time>2026-03-22T13:29:52Z</time></trkpt><trkpt lat="21.895818357965904" lon="-102.41724607064351"><ele>1980.0</ele><time>2026-03-22T13:29:53Z</time></trkpt><trkpt lat="21.895874010343935" lon="-102.41731454109241"><ele>1980.0</ele><time>2026-03-22T13:29:54Z</time></trkpt><trkpt lat="21.895851074168696" lon="-102.41743896377834"><ele>1979.6666666666667</ele><time>2026-03-22T13:29:55Z</time></trkpt><trkpt lat="21.895840093044907" lon="-102.41755482523936"><ele>1979.3333333333335</ele><time>2026-03-22T13:29:56Z</time></trkpt><trkpt lat="21.895894993665554" lon="-102.41762957063328"><ele>1979.0</ele><time>2026-03-22T13:29:57Z</time></trkpt><trkpt lat="21.895909406248606" lon="-102.4177351321677"><ele>1978.6666666666667</ele><time>2026-03-22T13:29:58Z</time></trkpt><trkpt lat="21.895964676900082" lon="-102.41779578164534"><ele>1978.3333333333335</ele><time>2026-03-22T13:29:59Z</time></trkpt><trkpt lat="21.89596586084776" lon="-102.41787547755088"><ele>1978.0</ele><time>2026-03-22T13:30:00Z</time></trkpt><trkpt lat="21.896009918913407" lon="-102.4180048171748"><ele>1976.4</ele><time>2026-03-22T13:30:01Z</time></trkpt><trkpt lat="21.89606871941589" lon="-102.41805748482636"><ele>1974.8000000000002</ele><time>2026-03-22T13:30:02Z</time></trkpt><trkpt lat="21.896088772131613" lon="-102.41814165001868"><ele>1973.2</ele><time>2026-03-22T13:30:03Z</time></trkpt><trkpt lat="21.896141819286367" lon="-102.41825439993758"><ele>1971.6</ele><time>2026-03-22T13:30:04Z</time></trkpt><trkpt lat="21.89615387166709" lon="-102.41837775304015"><ele>1970.0</ele><time>2026-03-22T13:30:05Z</time></trkpt><trkpt lat="21.89619413629496" lon="-102.41849194022235"><ele>1970.0</ele><time>2026-03-22T13:30:06Z</time></trkpt><trkpt lat="21.896222721287945" lon="-102.41858068933595"><ele>1970.0</ele><time>2026-03-22T13:30:07Z</time></trkpt><trkpt lat="21.896219053170572" lon="-102.41871841324489"><ele>1970.0</ele><time>2026-03-22T13:30:08Z</time></trkpt><trkpt lat="21.89631003729054" lon="-102.41877412083971"><ele>1970.0</ele><time>2026-03-22T13:30:09Z</time></trkpt><trkpt lat="21.896371553549493" lon="-102.41887430467042"><ele>1970.0</ele><time>2026-03-22T13:30:10Z</time></trkpt><trkpt lat="21.896381105858875" lon="-102.4189717983061"><ele>1970.4</ele><time>2026-03-22T13:30:11Z</time></trkpt><trkpt lat="21.8963841852821" lon="-102.41908457730815"><ele>1970.8</ele><time>2026-03-22T13:30:12Z</time></trkpt><trkpt lat="21.896398434032136" lon="-102.4191817948929"><ele>1971.1999999999998</ele><time>2026-03-22T13:30:13Z</time></trkpt><trkpt lat="21.896467167093483" lon="-102.41927510913222"><ele>1971.6</ele><time>2026-03-22T13:30:14Z</time></trkpt><trkpt lat="21.896454596167537" lon="-102.41939255933676"><ele>1972.0</ele><time>2026-03-22T13:30:15Z</time></trkpt><trkpt lat="21.896474115125976" lon="-102.4194937167013"><ele>1972.0</ele><time>2026-03-22T13:30:16Z</time></trkpt><trkpt lat="21.896532695859293" lon="-102.41961604231155"><ele>1972.0</ele><time>2026-03-22T13:30:17Z</time></trkpt><trkpt lat="21.896544884710195" lon="-102.41971014176131"><ele>1972.0</ele><time>2026-03-22T13:30:18Z</time></trkpt><trkpt lat="21.896571262662867" lon="-102.41980645240768"><ele>1972.0</ele><time>2026-03-22T13:30:19Z</time></trkpt><trkpt lat="21.896606609904374" lon="-102.41996459604175"><ele>1973.0</ele><time>2026-03-22T13:30:21Z</time></trkpt><trkpt lat="21.896603129834414" lon="-102.42009770630831"><ele>1973.9999999999998</ele><time>2026-03-22T13:30:22Z</time></trkpt><trkpt lat="21.89664884094234" lon="-102.42020211779892"><ele>1974.9999999999998</ele><time>2026-03-22T13:30:23Z</time></trkpt><trkpt lat="21.89661511188423" lon="-102.420272183783"><ele>1976.0</ele><time>2026-03-22T13:30:24Z</time></trkpt><trkpt lat="21.89664866480374" lon="-102.42034790452657"><ele>1977.0</ele><time>2026-03-22T13:30:25Z</time></trkpt><trkpt lat="21.89670182557826" lon="-102.42046166298844"><ele>1976.25</ele><time>2026-03-22T13:30:26Z</time></trkpt><trkpt lat="21.896760522256155" lon="-102.42063785447121"><ele>1975.5</ele><time>2026-03-22T13:30:28Z</time></trkpt><trkpt lat="21.89679627562787" lon="-102.42075901297721"><ele>1974.75</ele><time>2026-03-22T13:30:29Z</time></trkpt><trkpt lat="21.89688037678632" lon="-102.42084011718265"><ele>1974.0</ele><time>2026-03-22T13:30:30Z</time></trkpt><trkpt lat="21.896887803747127" lon="-102.4209361556956"><ele>1974.0</ele><time>2026-03-22T13:30:31Z</time></trkpt><trkpt lat="21.896873100040285" lon="-102.42108612748977"><ele>1974.0</ele><time>2026-03-22T13:30:33Z</time></trkpt><trkpt lat="21.896887468730856" lon="-102.42119027372884"><ele>1974.0</ele><time>2026-03-22T13:30:34Z</time></trkpt><trkpt lat="21.89695301350465" lon="-102.42129176591506"><ele>1974.0</ele><time>2026-03-22T13:30:35Z</time></trkpt><trkpt lat="21.89697989887746" lon="-102.42139470533861"><ele>1973.75</ele><time>2026-03-22T13:30:36Z</time></trkpt><trkpt lat="21.897015740488747" lon="-102.4215715098394"><ele>1973.5</ele><time>2026-03-22T13:30:38Z</time></trkpt><trkpt lat="21.897052669278114" lon="-102.42168736569923"><ele>1973.25</ele><time>2026-03-22T13:30:39Z</time></trkpt><trkpt lat="21.897013490631206" lon="-102.42177775905009"><ele>1973.0</ele><time>2026-03-22T13:30:40Z</time></trkpt><trkpt lat="21.897053834914136" lon="-102.42184908392468"><ele>1973.0</ele><time>2026-03-22T13:30:41Z</time></trkpt><trkpt lat="21.89709981285801" lon="-102.42194038165708"><ele>1973.0</ele><time>2026-03-22T13:30:42Z</time></trkpt><trkpt lat="21.897142864006447" lon="-102.42206952707174"><ele>1973.0</ele><time>2026-03-22T13:30:43Z</time></trkpt><trkpt lat="21.89716075377195" lon="-102.42223095670661"><ele>1973.0</ele><time>2026-03-22T13:30:45Z</time></trkpt><trkpt lat="21.8972144138788" lon="-102.42235560722139"><ele>1973.3333333333333</ele><time>2026-03-22T13:30:47Z</time></trkpt><trkpt lat="21.897233142690162" lon="-102.42243509508594"><ele>1973.6666666666665</ele><time>2026-03-22T13:30:48Z</time></trkpt><trkpt lat="21.897248074372836" lon="-102.42251963761751"><ele>1974.0</ele><time>2026-03-22T13:30:49Z</time></trkpt><trkpt lat="21.897259087161256" lon="-102.42259644022677"><ele>1974.3333333333335</ele><time>2026-03-22T13:30:50Z</time></trkpt><trkpt lat="21.897284352809987" lon="-102.4226778620387"><ele>1974.6666666666667</ele><time>2026-03-22T13:30:51Z</time></trkpt><trkpt lat="21.89730463029264" lon="-102.42275192843118"><ele>1975.0</ele><time>2026-03-22T13:30:52Z</time></trkpt><trkpt lat="21.897599571803937" lon="-102.42287502049123"><ele>1976.0000000000002</ele><time>2026-03-22T13:30:54Z</time></trkpt><trkpt lat="21.897603337454417" lon="-102.42296168124277"><ele>1977.0</ele><time>2026-03-22T13:30:55Z</time></trkpt><trkpt lat="21.897605914270105" lon="-102.42305065288285"><ele>1978.0</ele><time>2026-03-22T13:30:56Z</time></trkpt><trkpt lat="21.897607898996668" lon="-102.42313051737231"><ele>1979.0</ele><time>2026-03-22T13:30:57Z</time></trkpt><trkpt lat="21.897606702262344" lon="-102.42321623692555"><ele>1980.0000000000002</ele><time>2026-03-22T13:30:58Z</time></trkpt><trkpt lat="21.89760365015868" lon="-102.42334682694116"><ele>1981.0</ele><time>2026-03-22T13:31:00Z</time></trkpt><trkpt lat="21.89758848440131" lon="-102.42346651501907"><ele>1981.1999999999998</ele><time>2026-03-22T13:31:01Z</time></trkpt><trkpt lat="21.897558742392178" lon="-102.42354828685014"><ele>1981.3999999999999</ele><time>2026-03-22T13:31:03Z</time></trkpt><trkpt lat="21.897581300380267" lon="-102.42364369544131"><ele>1981.6</ele><time>2026-03-22T13:31:05Z</time></trkpt><trkpt lat="21.897570567740694" lon="-102.42374191690372"><ele>1981.8</ele><time>2026-03-22T13:31:06Z</time></trkpt><trkpt lat="21.89755808449253" lon="-102.42383789814247"><ele>1982.0</ele><time>2026-03-22T13:31:07Z</time></trkpt><trkpt lat="21.89752644257106" lon="-102.42396399117939"><ele>1982.0</ele><time>2026-03-22T13:31:08Z</time></trkpt><trkpt lat="21.8975014545141" lon="-102.42414591821986"><ele>1982.0</ele><time>2026-03-22T13:31:10Z</time></trkpt><trkpt lat="21.897489159736832" lon="-102.42425629745179"><ele>1982.0</ele><time>2026-03-22T13:31:11Z</time></trkpt><trkpt lat="21.897475486421904" lon="-102.42434500126444"><ele>1982.0</ele><time>2026-03-22T13:31:12Z</time></trkpt><trkpt lat="21.897477073986593" lon="-102.424445760991"><ele>1982.0</ele><time>2026-03-22T13:31:13Z</time></trkpt><trkpt lat="21.897431095387002" lon="-102.42452299993963"><ele>1981.9999999999998</ele><time>2026-03-22T13:31:14Z</time></trkpt><trkpt lat="21.897419740920082" lon="-102.42459745277985"><ele>1981.9999999999998</ele><time>2026-03-22T13:31:15Z</time></trkpt><trkpt lat="21.89743150019661" lon="-102.42466844975348"><ele>1982.0</ele><time>2026-03-22T13:31:16Z</time></trkpt><trkpt lat="21.897420206923222" lon="-102.42481593732313"><ele>1982.0</ele><time>2026-03-22T13:31:19Z</time></trkpt><trkpt lat="21.897393149840237" lon="-102.42491930887427"><ele>1983.0</ele><time>2026-03-22T13:31:21Z</time></trkpt><trkpt lat="21.89737125065915" lon="-102.4250052503775"><ele>1983.9999999999998</ele><time>2026-03-22T13:31:22Z</time></trkpt><trkpt lat="21.89734957880901" lon="-102.42509000853508"><ele>1984.9999999999998</ele><time>2026-03-22T13:31:23Z</time></trkpt><trkpt lat="21.897316396740273" lon="-102.42521909772097"><ele>1986.0</ele><time>2026-03-22T13:31:25Z</time></trkpt><trkpt lat="21.8972960593746" lon="-102.42530013755997"><ele>1987.0</ele><time>2026-03-22T13:31:26Z</time></trkpt><trkpt lat="21.89725897825465" lon="-102.42544805588305"><ele>1987.6</ele><time>2026-03-22T13:31:28Z</time></trkpt><trkpt lat="21.89722518627177" lon="-102.42558607260116"><ele>1988.1999999999998</ele><time>2026-03-22T13:31:30Z</time></trkpt><trkpt lat="21.897217867244038" lon="-102.42568709593564"><ele>1988.8</ele><time>2026-03-22T13:31:32Z</time></trkpt><trkpt lat="21.897171696673936" lon="-102.42580238164342"><ele>1989.4</ele><time>2026-03-22T13:31:34Z</time></trkpt><trkpt lat="21.89715475225268" lon="-102.4258698917927"><ele>1990.0</ele><time>2026-03-22T13:31:35Z</time></trkpt><trkpt lat="21.89713588077866" lon="-102.42594481310061"><ele>1990.0000000000002</ele><time>2026-03-22T13:31:36Z</time></trkpt><trkpt lat="21.897118717159994" lon="-102.42601248113994"><ele>1990.0</ele><time>2026-03-22T13:31:37Z</time></trkpt><trkpt lat="21.897101648428837" lon="-102.42607977499416"><ele>1990.0</ele><time>2026-03-22T13:31:38Z</time></trkpt><trkpt lat="21.897084523283862" lon="-102.42614729145163"><ele>1990.0</ele><time>2026-03-22T13:31:39Z</time></trkpt><trkpt lat="21.897056020611053" lon="-102.42625710006608"><ele>1990.0000000000002</ele><time>2026-03-22T13:31:41Z</time></trkpt><trkpt lat="21.897024746980005" lon="-102.42638068678991"><ele>1990.0</ele><time>2026-03-22T13:31:43Z</time></trkpt><trkpt lat="21.896999778583492" lon="-102.42645671813045"><ele>1991.0</ele><time>2026-03-22T13:31:45Z</time></trkpt><trkpt lat="21.896974918427997" lon="-102.42656236044508"><ele>1992.0</ele><time>2026-03-22T13:31:47Z</time></trkpt><trkpt lat="21.897020699164347" lon="-102.42639699134148"><ele>1993.0</ele><time>2026-03-22T13:31:48Z</time></trkpt><trkpt lat="21.89698955662212" lon="-102.42651937865874"><ele>1994.0</ele><time>2026-03-22T13:31:53Z</time></trkpt><trkpt lat="21.897011042558656" lon="-102.42663174607445"><ele>1993.9999999999998</ele><time>2026-03-22T13:31:55Z</time></trkpt><trkpt lat="21.89693986888599" lon="-102.42671464993977"><ele>1994.0</ele><time>2026-03-22T13:31:56Z</time></trkpt><trkpt lat="21.896909629259" lon="-102.42683349073609"><ele>1994.0</ele><time>2026-03-22T13:31:57Z</time></trkpt><trkpt lat="21.89689212884729" lon="-102.42690226685902"><ele>1994.0</ele><time>2026-03-22T13:31:58Z</time></trkpt><trkpt lat="21.896870334682554" lon="-102.4269879171889"><ele>1993.9999999999998</ele><time>2026-03-22T13:31:59Z</time></trkpt><trkpt lat="21.89685243037912" lon="-102.42705828058833"><ele>1994.0</ele><time>2026-03-22T13:32:00Z</time></trkpt><trkpt lat="21.896833893935334" lon="-102.42713112813853"><ele>1994.4999999999998</ele><time>2026-03-22T13:32:01Z</time></trkpt><trkpt lat="21.896815903598625" lon="-102.42720182970211"><ele>1995.0</ele><time>2026-03-22T13:32:02Z</time></trkpt><trkpt lat="21.89679615369223" lon="-102.42727806931279"><ele>1995.5</ele><time>2026-03-22T13:32:03Z</time></trkpt><trkpt lat="21.896776335044592" lon="-102.42735587813519"><ele>1996.0</ele><time>2026-03-22T13:32:04Z</time></trkpt><trkpt lat="21.89676112285442" lon="-102.4274801151075"><ele>1996.4999999999998</ele><time>2026-03-22T13:32:05Z</time></trkpt><trkpt lat="21.89674159695807" lon="-102.42755122549686"><ele>1997.0</ele><time>2026-03-22T13:32:06Z</time></trkpt><trkpt lat="21.8967173545574" lon="-102.42764077547855"><ele>1995.8</ele><time>2026-03-22T13:32:07Z</time></trkpt><trkpt lat="21.896692414530246" lon="-102.42773624033238"><ele>1994.6</ele><time>2026-03-22T13:32:09Z</time></trkpt><trkpt lat="21.89664514342959" lon="-102.42784738365714"><ele>1993.3999999999999</ele><time>2026-03-22T13:32:11Z</time></trkpt><trkpt lat="21.896626539373084" lon="-102.42791752303526"><ele>1992.1999999999998</ele><time>2026-03-22T13:32:12Z</time></trkpt><trkpt lat="21.896586340525758" lon="-102.428065311059"><ele>1991.0</ele><time>2026-03-22T13:32:14Z</time></trkpt><trkpt lat="21.89655646780246" lon="-102.42813120063457"><ele>1990.9999999999998</ele><time>2026-03-22T13:32:15Z</time></trkpt><trkpt lat="21.896518383564693" lon="-102.42820021465194"><ele>1991.0</ele><time>2026-03-22T13:32:17Z</time></trkpt><trkpt lat="21.896514761716606" lon="-102.4282916623149"><ele>1991.0</ele><time>2026-03-22T13:32:19Z</time></trkpt><trkpt lat="21.896486362815015" lon="-102.42838966191626"><ele>1991.0</ele><time>2026-03-22T13:32:21Z</time></trkpt><trkpt lat="21.896452687953044" lon="-102.42849155693672"><ele>1990.9999999999998</ele><time>2026-03-22T13:32:23Z</time></trkpt><trkpt lat="21.896465145254993" lon="-102.42857309109318"><ele>1991.0</ele><time>2026-03-22T13:32:24Z</time></trkpt><trkpt lat="21.896460180415595" lon="-102.42866897737228"><ele>1991.0</ele><time>2026-03-22T13:32:27Z</time></trkpt><trkpt lat="21.89640839819642" lon="-102.42873273239483"><ele>1991.0</ele><time>2026-03-22T13:32:29Z</time></trkpt><trkpt lat="21.896393195418472" lon="-102.42880113625856"><ele>1991.0</ele><time>2026-03-22T13:32:30Z</time></trkpt><trkpt lat="21.896167122104494" lon="-102.42891238592021"><ele>1991.0</ele><time>2026-03-22T13:32:35Z</time></trkpt><trkpt lat="21.896251122515853" lon="-102.42893743351844"><ele>1991.9999999999998</ele><time>2026-03-22T13:32:36Z</time></trkpt><trkpt lat="21.896345940273708" lon="-102.4289890004703"><ele>1993.0</ele><time>2026-03-22T13:32:37Z</time></trkpt><trkpt lat="21.89633189994881" lon="-102.42906910312782"><ele>1994.0</ele><time>2026-03-22T13:32:38Z</time></trkpt><trkpt lat="21.896272167539017" lon="-102.42912968218765"><ele>1995.0</ele><time>2026-03-22T13:32:40Z</time></trkpt><trkpt lat="21.896219613684096" lon="-102.42917666510559"><ele>1995.9999999999998</ele><time>2026-03-22T13:32:41Z</time></trkpt><trkpt lat="21.89627893927708" lon="-102.4292362844036"><ele>1997.0</ele><time>2026-03-22T13:32:43Z</time></trkpt><trkpt lat="21.896305407062393" lon="-102.42933365100285"><ele>1996.9999999999998</ele><time>2026-03-22T13:32:46Z</time></trkpt><trkpt lat="21.89624852731696" lon="-102.42938726926346"><ele>1997.0</ele><time>2026-03-22T13:32:47Z</time></trkpt><trkpt lat="21.896321152881928" lon="-102.42944501778268"><ele>1997.0</ele><time>2026-03-22T13:32:49Z</time></trkpt><trkpt lat="21.89624412006719" lon="-102.429501045539"><ele>1997.0</ele><time>2026-03-22T13:32:51Z</time></trkpt><trkpt lat="21.896202326468703" lon="-102.429616064213"><ele>1996.9999999999998</ele><time>2026-03-22T13:32:55Z</time></trkpt><trkpt lat="21.896169105735876" lon="-102.42968002107038"><ele>1997.0</ele><time>2026-03-22T13:32:57Z</time></trkpt><trkpt lat="21.89620830355916" lon="-102.42973872250569"><ele>1997.6666666666665</ele><time>2026-03-22T13:32:59Z</time></trkpt><trkpt lat="21.89614039964172" lon="-102.4298272121529"><ele>1998.3333333333333</ele><time>2026-03-22T13:33:02Z</time></trkpt><trkpt lat="21.896173905671116" lon="-102.42989994815024"><ele>1999.0</ele><time>2026-03-22T13:33:04Z</time></trkpt><trkpt lat="21.89617155074907" lon="-102.43003233826525"><ele>1999.6666666666665</ele><time>2026-03-22T13:33:06Z</time></trkpt><trkpt lat="21.896139947794325" lon="-102.43009986558134"><ele>2000.3333333333333</ele><time>2026-03-22T13:33:07Z</time></trkpt><trkpt lat="21.89611531843403" lon="-102.43016674196939"><ele>2001.0</ele><time>2026-03-22T13:33:08Z</time></trkpt><trkpt lat="21.896177498035744" lon="-102.430273491346"><ele>2001.0</ele><time>2026-03-22T13:33:11Z</time></trkpt><trkpt lat="21.89623342176331" lon="-102.43035647028547"><ele>2001.0</ele><time>2026-03-22T13:33:12Z</time></trkpt><trkpt lat="21.8961548678048" lon="-102.43042694639772"><ele>2001.0</ele><time>2026-03-22T13:33:13Z</time></trkpt><trkpt lat="21.896130516383305" lon="-102.43051831595085"><ele>2001.0</ele><time>2026-03-22T13:33:14Z</time></trkpt><trkpt lat="21.89604403637384" lon="-102.430486978883"><ele>2001.0</ele><time>2026-03-22T13:33:15Z</time></trkpt><trkpt lat="21.896098602356716" lon="-102.43057091560088"><ele>2001.1999999999998</ele><time>2026-03-22T13:33:17Z</time></trkpt><trkpt lat="21.895989028961072" lon="-102.43068711068256"><ele>2001.3999999999999</ele><time>2026-03-22T13:33:19Z</time></trkpt><trkpt lat="21.896044966925206" lon="-102.4307684660111"><ele>2001.6</ele><time>2026-03-22T13:33:21Z</time></trkpt><trkpt lat="21.89602726076724" lon="-102.43083956495936"><ele>2001.8</ele><time>2026-03-22T13:33:24Z</time></trkpt><trkpt lat="21.895945075671865" lon="-102.43091856874682"><ele>2002.0</ele><time>2026-03-22T13:33:27Z</time></trkpt><trkpt lat="21.89593690347559" lon="-102.43101308955849"><ele>2002.0</ele><time>2026-03-22T13:33:30Z</time></trkpt><trkpt lat="21.895875687461892" lon="-102.43107638782944"><ele>2001.9999999999998</ele><time>2026-03-22T13:33:32Z</time></trkpt><trkpt lat="21.895895280525263" lon="-102.43117839272755"><ele>2001.9999999999998</ele><time>2026-03-22T13:33:36Z</time></trkpt><trkpt lat="21.895988065132972" lon="-102.43124348016359"><ele>2002.0</ele><time>2026-03-22T13:33:37Z</time></trkpt><trkpt lat="21.895951708332017" lon="-102.43130603562902"><ele>2002.0</ele><time>2026-03-22T13:33:40Z</time></trkpt><trkpt lat="21.89598170887414" lon="-102.43140143721784"><ele>2002.0</ele><time>2026-03-22T13:33:43Z</time></trkpt><trkpt lat="21.895934532596563" lon="-102.4314625563946"><ele>2001.9999999999998</ele><time>2026-03-22T13:33:46Z</time></trkpt><trkpt lat="21.895893981028323" lon="-102.431577197926"><ele>2001.9999999999998</ele><time>2026-03-22T13:33:48Z</time></trkpt><trkpt lat="21.895867919859803" lon="-102.43165753977142"><ele>2002.0</ele><time>2026-03-22T13:33:49Z</time></trkpt><trkpt lat="21.895818958889727" lon="-102.43172445330073"><ele>2002.0</ele><time>2026-03-22T13:33:50Z</time></trkpt><trkpt lat="21.89565167224421" lon="-102.43180718900727"><ele>2002.3333333333335</ele><time>2026-03-22T13:33:52Z</time></trkpt><trkpt lat="21.895633055860284" lon="-102.43188982284475"><ele>2002.6666666666667</ele><time>2026-03-22T13:33:53Z</time></trkpt><trkpt lat="21.8955355501479" lon="-102.43195780449557"><ele>2003.0</ele><time>2026-03-22T13:33:54Z</time></trkpt><trkpt lat="21.895516156534534" lon="-102.4320340848566"><ele>2003.3333333333335</ele><time>2026-03-22T13:33:55Z</time></trkpt><trkpt lat="21.89549677460239" lon="-102.43211500773972"><ele>2003.6666666666667</ele><time>2026-03-22T13:33:56Z</time></trkpt><trkpt lat="21.89547181124743" lon="-102.43221360752354"><ele>2004.0</ele><time>2026-03-22T13:33:57Z</time></trkpt><trkpt lat="21.895452767265752" lon="-102.43228882818003"><ele>2004.0</ele><time>2026-03-22T13:33:58Z</time></trkpt><trkpt lat="21.895431749829246" lon="-102.43237425924855"><ele>2004.0</ele><time>2026-03-22T13:33:59Z</time></trkpt><trkpt lat="21.895376210243054" lon="-102.43250227889904"><ele>2004.0</ele><time>2026-03-22T13:34:00Z</time></trkpt><trkpt lat="21.895338587715262" lon="-102.43261585300723"><ele>2004.0</ele><time>2026-03-22T13:34:01Z</time></trkpt><trkpt lat="21.895287923907862" lon="-102.43275319642414"><ele>2004.0</ele><time>2026-03-22T13:34:02Z</time></trkpt><trkpt lat="21.89527106884558" lon="-102.43283019626567"><ele>2004.0</ele><time>2026-03-22T13:34:03Z</time></trkpt><trkpt lat="21.89521102975706" lon="-102.43298514334313"><ele>2004.0</ele><time>2026-03-22T13:34:04Z</time></trkpt><trkpt lat="21.895123272314034" lon="-102.43309507403598"><ele>2004.0</ele><time>2026-03-22T13:34:05Z</time></trkpt><trkpt lat="21.895123590430842" lon="-102.43318792133613"><ele>2004.6</ele><time>2026-03-22T13:34:06Z</time></trkpt><trkpt lat="21.895075629092855" lon="-102.43328108818726"><ele>2005.2</ele><time>2026-03-22T13:34:07Z</time></trkpt><trkpt lat="21.89495134159221" lon="-102.43337727211407"><ele>2005.7999999999997</ele><time>2026-03-22T13:34:08Z</time></trkpt><trkpt lat="21.894937663172843" lon="-102.43344406406966"><ele>2006.3999999999999</ele><time>2026-03-22T13:34:09Z</time></trkpt><trkpt lat="21.89488268652299" lon="-102.43352413247942"><ele>2007.0</ele><time>2026-03-22T13:34:10Z</time></trkpt><trkpt lat="21.89495185954815" lon="-102.43362523993629"><ele>2007.0</ele><time>2026-03-22T13:34:11Z</time></trkpt><trkpt lat="21.894967592373902" lon="-102.43371792037878"><ele>2007.0</ele><time>2026-03-22T13:34:12Z</time></trkpt><trkpt lat="21.895002153656748" lon="-102.43377795491494"><ele>2007.0</ele><time>2026-03-22T13:34:13Z</time></trkpt><trkpt lat="21.895201934867067" lon="-102.43392880642203"><ele>2007.0</ele><time>2026-03-22T13:34:14Z</time></trkpt><trkpt lat="21.89517499095393" lon="-102.43403836029097"><ele>2007.0</ele><time>2026-03-22T13:34:16Z</time></trkpt><trkpt lat="21.895135186171764" lon="-102.43416311899976"><ele>2006.9999999999998</ele><time>2026-03-22T13:34:18Z</time></trkpt><trkpt lat="21.895022505862702" lon="-102.43423614434742"><ele>2006.9999999999998</ele><time>2026-03-22T13:34:19Z</time></trkpt><trkpt lat="21.895093202762414" lon="-102.43433117919585"><ele>2007.0</ele><time>2026-03-22T13:34:21Z</time></trkpt><trkpt lat="21.895069797143318" lon="-102.43440967455803"><ele>2007.0</ele><time>2026-03-22T13:34:22Z</time></trkpt><trkpt lat="21.894893756709454" lon="-102.43438103087303"><ele>2007.0</ele><time>2026-03-22T13:34:23Z</time></trkpt><trkpt lat="21.894856574593543" lon="-102.43446999036537"><ele>2007.0</ele><time>2026-03-22T13:34:24Z</time></trkpt><trkpt lat="21.89481742356815" lon="-102.43453701562483"><ele>2007.0</ele><time>2026-03-22T13:34:25Z</time></trkpt><trkpt lat="21.89485982572695" lon="-102.43464213745163"><ele>2007.0</ele><time>2026-03-22T13:34:26Z</time></trkpt><trkpt lat="21.894839594215032" lon="-102.43472257713688"><ele>2007.0</ele><time>2026-03-22T13:34:27Z</time></trkpt><trkpt lat="21.894819633528545" lon="-102.434801939463"><ele>2007.0</ele><time>2026-03-22T13:34:29Z</time></trkpt><trkpt lat="21.894796282972553" lon="-102.43489664766788"><ele>2007.1666666666667</ele><time>2026-03-22T13:34:31Z</time></trkpt><trkpt lat="21.89477593940144" lon="-102.43496781266236"><ele>2007.3333333333335</ele><time>2026-03-22T13:34:32Z</time></trkpt><trkpt lat="21.894756712918653" lon="-102.43503519117772"><ele>2007.5</ele><time>2026-03-22T13:34:33Z</time></trkpt><trkpt lat="21.894749647641106" lon="-102.43511227772191"><ele>2007.6666666666667</ele><time>2026-03-22T13:34:34Z</time></trkpt><trkpt lat="21.894710195294874" lon="-102.4351851014132"><ele>2007.8333333333335</ele><time>2026-03-22T13:34:35Z</time></trkpt><trkpt lat="21.894692483279137" lon="-102.43530984185138"><ele>2008.0</ele><time>2026-03-22T13:34:37Z</time></trkpt><trkpt lat="21.89475225439495" lon="-102.43536815327678"><ele>2008.0000000000002</ele><time>2026-03-22T13:34:38Z</time></trkpt><trkpt lat="21.894736351064473" lon="-102.43543688126725"><ele>2008.0</ele><time>2026-03-22T13:34:39Z</time></trkpt><trkpt lat="21.89468767039271" lon="-102.43550383932829"><ele>2008.0</ele><time>2026-03-22T13:34:40Z</time></trkpt><trkpt lat="21.89470843750382" lon="-102.43558709634115"><ele>2008.0</ele><time>2026-03-22T13:34:41Z</time></trkpt><trkpt lat="21.894643558842176" lon="-102.43562746208201"><ele>2008.0000000000002</ele><time>2026-03-22T13:34:42Z</time></trkpt><trkpt lat="21.894623128132395" lon="-102.43569975141315"><ele>2008.0</ele><time>2026-03-22T13:34:43Z</time></trkpt><trkpt lat="21.894582796213" lon="-102.43578105442562"><ele>2007.8000000000002</ele><time>2026-03-22T13:34:44Z</time></trkpt><trkpt lat="21.894557046500196" lon="-102.43585695515972"><ele>2007.6000000000001</ele><time>2026-03-22T13:34:45Z</time></trkpt><trkpt lat="21.894530384057447" lon="-102.43593403554965"><ele>2007.3999999999999</ele><time>2026-03-22T13:34:46Z</time></trkpt><trkpt lat="21.89450343195752" lon="-102.43606041444878"><ele>2007.1999999999998</ele><time>2026-03-22T13:34:48Z</time></trkpt><trkpt lat="21.89446529387776" lon="-102.43621145106863"><ele>2007.0</ele><time>2026-03-22T13:34:50Z</time></trkpt><trkpt lat="21.894443990288206" lon="-102.43629741039508"><ele>2006.8</ele><time>2026-03-22T13:34:51Z</time></trkpt><trkpt lat="21.894418533121335" lon="-102.4363952443783"><ele>2006.6</ele><time>2026-03-22T13:34:52Z</time></trkpt><trkpt lat="21.894380897194768" lon="-102.43648210652043"><ele>2006.3999999999999</ele><time>2026-03-22T13:34:53Z</time></trkpt><trkpt lat="21.894416676788968" lon="-102.43654082173565"><ele>2006.1999999999998</ele><time>2026-03-22T13:34:54Z</time></trkpt><trkpt lat="21.89443662099202" lon="-102.43663516915662"><ele>2006.0</ele><time>2026-03-22T13:34:55Z</time></trkpt><trkpt lat="21.894392859948237" lon="-102.43679810464404"><ele>2006.0</ele><time>2026-03-22T13:34:57Z</time></trkpt><trkpt lat="21.89437014248801" lon="-102.4368867296299"><ele>2006.0</ele><time>2026-03-22T13:34:58Z</time></trkpt><trkpt lat="21.89434525854977" lon="-102.43698371318752"><ele>2006.0</ele><time>2026-03-22T13:34:59Z</time></trkpt><trkpt lat="21.894315750698738" lon="-102.43709771854245"><ele>2006.0</ele><time>2026-03-22T13:35:01Z</time></trkpt><trkpt lat="21.89427669989115" lon="-102.43727592310853"><ele>2006.6</ele><time>2026-03-22T13:35:03Z</time></trkpt><trkpt lat="21.894252227369336" lon="-102.43733893422488"><ele>2007.1999999999998</ele><time>2026-03-22T13:35:04Z</time></trkpt><trkpt lat="21.894215376609765" lon="-102.43740333621798"><ele>2007.8000000000002</ele><time>2026-03-22T13:35:05Z</time></trkpt><trkpt lat="21.894197825378274" lon="-102.43748017165684"><ele>2008.4</ele><time>2026-03-22T13:35:06Z</time></trkpt><trkpt lat="21.894178566795087" lon="-102.43763707121965"><ele>2009.0</ele><time>2026-03-22T13:35:08Z</time></trkpt><trkpt lat="21.894091395525127" lon="-102.43769663852157"><ele>2008.9999999999998</ele><time>2026-03-22T13:35:09Z</time></trkpt><trkpt lat="21.8940480348928" lon="-102.43778109439765"><ele>2009.0</ele><time>2026-03-22T13:35:10Z</time></trkpt><trkpt lat="21.894029846311533" lon="-102.4378841437608"><ele>2009.0</ele><time>2026-03-22T13:35:11Z</time></trkpt><trkpt lat="21.89400688166674" lon="-102.43797051516056"><ele>2009.0</ele><time>2026-03-22T13:35:12Z</time></trkpt><trkpt lat="21.893985296968776" lon="-102.43806106196485"><ele>2008.9999999999998</ele><time>2026-03-22T13:35:13Z</time></trkpt><trkpt lat="21.89396476273496" lon="-102.43814549067449"><ele>2009.0</ele><time>2026-03-22T13:35:14Z</time></trkpt><trkpt lat="21.89393338861667" lon="-102.43827345124838"><ele>2008.6</ele><time>2026-03-22T13:35:16Z</time></trkpt><trkpt lat="21.893915645142197" lon="-102.43834480006339"><ele>2008.2</ele><time>2026-03-22T13:35:17Z</time></trkpt><trkpt lat="21.893899194720994" lon="-102.43841237946081"><ele>2007.7999999999997</ele><time>2026-03-22T13:35:18Z</time></trkpt><trkpt lat="21.893867160991956" lon="-102.43853990000815"><ele>2007.3999999999999</ele><time>2026-03-22T13:35:20Z</time></trkpt><trkpt lat="21.893849280792008" lon="-102.43861107793587"><ele>2007.0</ele><time>2026-03-22T13:35:21Z</time></trkpt><trkpt lat="21.893717297684194" lon="-102.43866709618524"><ele>2007.0</ele><time>2026-03-22T13:35:22Z</time></trkpt><trkpt lat="21.893808147486933" lon="-102.4387850667761"><ele>2007.0</ele><time>2026-03-22T13:35:23Z</time></trkpt><trkpt lat="21.89387041233356" lon="-102.43903121621325"><ele>2007.0</ele><time>2026-03-22T13:35:24Z</time></trkpt><trkpt lat="21.893646039862354" lon="-102.43902278337751"><ele>2006.8</ele><time>2026-03-22T13:35:25Z</time></trkpt><trkpt lat="21.893570214682008" lon="-102.43910377621465"><ele>2006.6</ele><time>2026-03-22T13:35:26Z</time></trkpt><trkpt lat="21.89351859816514" lon="-102.43918893656847"><ele>2006.3999999999999</ele><time>2026-03-22T13:35:27Z</time></trkpt><trkpt lat="21.893587769695234" lon="-102.43929795873079"><ele>2006.1999999999998</ele><time>2026-03-22T13:35:28Z</time></trkpt><trkpt lat="21.893585498480288" lon="-102.43938800453155"><ele>2006.0</ele><time>2026-03-22T13:35:29Z</time></trkpt><trkpt lat="21.893545709627347" lon="-102.43947385701122"><ele>2006.0</ele><time>2026-03-22T13:35:30Z</time></trkpt><trkpt lat="21.89350167516325" lon="-102.43954589577508"><ele>2006.0</ele><time>2026-03-22T13:35:31Z</time></trkpt><trkpt lat="21.893455165129478" lon="-102.43968307495247"><ele>2006.0</ele><time>2026-03-22T13:35:32Z</time></trkpt><trkpt lat="21.89341931200036" lon="-102.43980289768837"><ele>2006.0</ele><time>2026-03-22T13:35:33Z</time></trkpt><trkpt lat="21.893389778706762" lon="-102.43991346184026"><ele>2006.0</ele><time>2026-03-22T13:35:34Z</time></trkpt><trkpt lat="21.893363911630342" lon="-102.44003372121418"><ele>2006.25</ele><time>2026-03-22T13:35:35Z</time></trkpt><trkpt lat="21.893305546779253" lon="-102.44011247450524"><ele>2006.5</ele><time>2026-03-22T13:35:36Z</time></trkpt><trkpt lat="21.893169648998178" lon="-102.44034331186181"><ele>2006.75</ele><time>2026-03-22T13:35:37Z</time></trkpt><trkpt lat="21.89316448571862" lon="-102.44044426078888"><ele>2007.0</ele><time>2026-03-22T13:35:38Z</time></trkpt><trkpt lat="21.893115708508812" lon="-102.44058679365136"><ele>2006.1999999999998</ele><time>2026-03-22T13:35:39Z</time></trkpt><trkpt lat="21.893082742057306" lon="-102.44070042825427"><ele>2005.3999999999999</ele><time>2026-03-22T13:35:40Z</time></trkpt><trkpt lat="21.89306669333323" lon="-102.44080810914897"><ele>2004.6000000000001</ele><time>2026-03-22T13:35:41Z</time></trkpt><trkpt lat="21.893045044434647" lon="-102.44090415992184"><ele>2003.8000000000002</ele><time>2026-03-22T13:35:42Z</time></trkpt><trkpt lat="21.89302041653914" lon="-102.44099876023381"><ele>2003.0</ele><time>2026-03-22T13:35:43Z</time></trkpt><trkpt lat="21.89300285838285" lon="-102.44109475239627"><ele>2003.0</ele><time>2026-03-22T13:35:44Z</time></trkpt><trkpt lat="21.89299302946606" lon="-102.44119519678559"><ele>2003.0</ele><time>2026-03-22T13:35:45Z</time></trkpt><trkpt lat="21.89315535662368" lon="-102.44133778415791"><ele>2003.0</ele><time>2026-03-22T13:35:46Z</time></trkpt><trkpt lat="21.893134152739673" lon="-102.44141891512882"><ele>2003.0</ele><time>2026-03-22T13:35:47Z</time></trkpt><trkpt lat="21.893105450338574" lon="-102.44152943271389"><ele>2002.4</ele><time>2026-03-22T13:35:48Z</time></trkpt><trkpt lat="21.89308036807823" lon="-102.44162690187885"><ele>2001.8000000000002</ele><time>2026-03-22T13:35:49Z</time></trkpt><trkpt lat="21.893044549904374" lon="-102.44175332783493"><ele>2001.2</ele><time>2026-03-22T13:35:50Z</time></trkpt><trkpt lat="21.89302657756277" lon="-102.44186786653334"><ele>2000.6</ele><time>2026-03-22T13:35:51Z</time></trkpt><trkpt lat="21.893000520754097" lon="-102.4419972907419"><ele>2000.0</ele><time>2026-03-22T13:35:52Z</time></trkpt><trkpt lat="21.89298723193526" lon="-102.44212607162856"><ele>1998.75</ele><time>2026-03-22T13:35:53Z</time></trkpt><trkpt lat="21.892962638437275" lon="-102.44219635382001"><ele>1997.5</ele><time>2026-03-22T13:35:54Z</time></trkpt><trkpt lat="21.892908486601335" lon="-102.44233221073345"><ele>1996.25</ele><time>2026-03-22T13:35:55Z</time></trkpt><trkpt lat="21.892880465471702" lon="-102.442447887712"><ele>1995.0</ele><time>2026-03-22T13:35:56Z</time></trkpt><trkpt lat="21.892841692998427" lon="-102.44260059779192"><ele>1995.0</ele><time>2026-03-22T13:35:57Z</time></trkpt><trkpt lat="21.892801769804688" lon="-102.44275081627907"><ele>1995.0</ele><time>2026-03-22T13:35:58Z</time></trkpt><trkpt lat="21.892767011640654" lon="-102.44288620703892"><ele>1995.0</ele><time>2026-03-22T13:35:59Z</time></trkpt><trkpt lat="21.89273247033817" lon="-102.44302134950016"><ele>1995.0</ele><time>2026-03-22T13:36:00Z</time></trkpt><trkpt lat="21.892698906614694" lon="-102.44316095966751"><ele>1994.25</ele><time>2026-03-22T13:36:01Z</time></trkpt><trkpt lat="21.892661639710347" lon="-102.44331307309741"><ele>1993.5</ele><time>2026-03-22T13:36:02Z</time></trkpt><trkpt lat="21.8926220339396" lon="-102.44347391967607"><ele>1992.75</ele><time>2026-03-22T13:36:03Z</time></trkpt><trkpt lat="21.892585886744033" lon="-102.44361662537109"><ele>1992.0</ele><time>2026-03-22T13:36:04Z</time></trkpt><trkpt lat="21.892546714940675" lon="-102.44377196754918"><ele>1990.25</ele><time>2026-03-22T13:36:05Z</time></trkpt><trkpt lat="21.892512896613745" lon="-102.44390607951071"><ele>1988.5</ele><time>2026-03-22T13:36:06Z</time></trkpt><trkpt lat="21.89250308155233" lon="-102.44407112885109"><ele>1986.75</ele><time>2026-03-22T13:36:07Z</time></trkpt><trkpt lat="21.892471147916986" lon="-102.44424607737807"><ele>1985.0</ele><time>2026-03-22T13:36:08Z</time></trkpt><trkpt lat="21.89243464860416" lon="-102.44441509570801"><ele>1985.0</ele><time>2026-03-22T13:36:09Z</time></trkpt><trkpt lat="21.892413829105628" lon="-102.4445785985101"><ele>1985.0</ele><time>2026-03-22T13:36:10Z</time></trkpt><trkpt lat="21.89239167446846" lon="-102.44473623367689"><ele>1985.0</ele><time>2026-03-22T13:36:11Z</time></trkpt><trkpt lat="21.892391392307353" lon="-102.44487493530646"><ele>1985.0</ele><time>2026-03-22T13:36:12Z</time></trkpt><trkpt lat="21.892351780255378" lon="-102.44503950842233"><ele>1983.25</ele><time>2026-03-22T13:36:13Z</time></trkpt><trkpt lat="21.892297930438108" lon="-102.44516660947868"><ele>1981.5</ele><time>2026-03-22T13:36:14Z</time></trkpt><trkpt lat="21.89223810188353" lon="-102.44532113994626"><ele>1979.75</ele><time>2026-03-22T13:36:15Z</time></trkpt><trkpt lat="21.89220118950704" lon="-102.4454685861992"><ele>1978.0</ele><time>2026-03-22T13:36:16Z</time></trkpt><trkpt lat="21.892150499735475" lon="-102.4456169350394"><ele>1976.75</ele><time>2026-03-22T13:36:17Z</time></trkpt><trkpt lat="21.892106028250602" lon="-102.44577085805625"><ele>1975.5</ele><time>2026-03-22T13:36:18Z</time></trkpt><trkpt lat="21.892070577775552" lon="-102.44590736492482"><ele>1974.25</ele><time>2026-03-22T13:36:19Z</time></trkpt><trkpt lat="21.89201928134951" lon="-102.44603999706041"><ele>1973.0</ele><time>2026-03-22T13:36:20Z</time></trkpt><trkpt lat="21.891976415146246" lon="-102.44617526116171"><ele>1973.3333333333333</ele><time>2026-03-22T13:36:21Z</time></trkpt><trkpt lat="21.891967594594643" lon="-102.44631009545294"><ele>1973.6666666666665</ele><time>2026-03-22T13:36:22Z</time></trkpt><trkpt lat="21.891935728878675" lon="-102.4464131456269"><ele>1974.0</ele><time>2026-03-22T13:36:23Z</time></trkpt><trkpt lat="21.89188473022662" lon="-102.44668525206247"><ele>1974.0</ele><time>2026-03-22T13:36:24Z</time></trkpt><trkpt lat="21.89179773070926" lon="-102.44679518517195"><ele>1974.0</ele><time>2026-03-22T13:36:25Z</time></trkpt><trkpt lat="21.89173677477161" lon="-102.4470042379938"><ele>1974.0</ele><time>2026-03-22T13:36:26Z</time></trkpt><trkpt lat="21.891696849730184" lon="-102.44713243079228"><ele>1976.4</ele><time>2026-03-22T13:36:27Z</time></trkpt><trkpt lat="21.891663652689726" lon="-102.44725615210052"><ele>1978.8000000000002</ele><time>2026-03-22T13:36:28Z</time></trkpt><trkpt lat="21.89163043950769" lon="-102.44736643737318"><ele>1981.1999999999998</ele><time>2026-03-22T13:36:29Z</time></trkpt><trkpt lat="21.89160785241053" lon="-102.44746803625351"><ele>1983.6</ele><time>2026-03-22T13:36:30Z</time></trkpt><trkpt lat="21.891580375794106" lon="-102.44756995816753"><ele>1986.0</ele><time>2026-03-22T13:36:31Z</time></trkpt><trkpt lat="21.891559064270638" lon="-102.44766799710929"><ele>1986.0</ele><time>2026-03-22T13:36:32Z</time></trkpt><trkpt lat="21.891533798311094" lon="-102.44776718365979"><ele>1986.0</ele><time>2026-03-22T13:36:33Z</time></trkpt><trkpt lat="21.891518943070416" lon="-102.44784588177437"><ele>1986.0</ele><time>2026-03-22T13:36:34Z</time></trkpt><trkpt lat="21.89148865866825" lon="-102.44791438039279"><ele>1986.0</ele><time>2026-03-22T13:36:35Z</time></trkpt><trkpt lat="21.891494862536387" lon="-102.44799689242487"><ele>1986.0</ele><time>2026-03-22T13:36:36Z</time></trkpt><trkpt lat="21.891473074665868" lon="-102.44807660714321"><ele>1986.0</ele><time>2026-03-22T13:36:37Z</time></trkpt><trkpt lat="21.891481354381398" lon="-102.4481651690562"><ele>1987.0</ele><time>2026-03-22T13:36:38Z</time></trkpt><trkpt lat="21.89145864589247" lon="-102.4482426462382"><ele>1988.0</ele><time>2026-03-22T13:36:39Z</time></trkpt><trkpt lat="21.89139924413418" lon="-102.44837146197366"><ele>1989.0</ele><time>2026-03-22T13:36:41Z</time></trkpt><trkpt lat="21.891380603275962" lon="-102.44844513579834"><ele>1990.0</ele><time>2026-03-22T13:36:42Z</time></trkpt><trkpt lat="21.891396016383773" lon="-102.4485243821738"><ele>1991.0</ele><time>2026-03-22T13:36:43Z</time></trkpt><trkpt lat="21.891363900481963" lon="-102.44858278736505"><ele>1992.0</ele><time>2026-03-22T13:36:44Z</time></trkpt><trkpt lat="21.891349916324486" lon="-102.4486552849484"><ele>1992.0</ele><time>2026-03-22T13:36:45Z</time></trkpt><trkpt lat="21.891332227533173" lon="-102.44872659483822"><ele>1991.9999999999998</ele><time>2026-03-22T13:36:46Z</time></trkpt><trkpt lat="21.89127987332633" lon="-102.44883757200729"><ele>1991.9999999999998</ele><time>2026-03-22T13:36:48Z</time></trkpt><trkpt lat="21.891242300497623" lon="-102.44896147418235"><ele>1992.0</ele><time>2026-03-22T13:36:50Z</time></trkpt><trkpt lat="21.891196212112245" lon="-102.44902948505892"><ele>1992.0</ele><time>2026-03-22T13:36:51Z</time></trkpt><trkpt lat="21.891211427386768" lon="-102.44915434452568"><ele>1992.3999999999999</ele><time>2026-03-22T13:36:53Z</time></trkpt><trkpt lat="21.89116286572343" lon="-102.44923512948777"><ele>1992.7999999999997</ele><time>2026-03-22T13:36:54Z</time></trkpt><trkpt lat="21.891152180432943" lon="-102.449335615683"><ele>1993.2</ele><time>2026-03-22T13:36:57Z</time></trkpt><trkpt lat="21.89118979726476" lon="-102.44947114915603"><ele>1993.6</ele><time>2026-03-22T13:36:59Z</time></trkpt><trkpt lat="21.89110603870878" lon="-102.44949348707817"><ele>1994.0</ele><time>2026-03-22T13:37:00Z</time></trkpt><trkpt lat="21.891069348080762" lon="-102.44960027610485"><ele>1993.9999999999998</ele><time>2026-03-22T13:37:02Z</time></trkpt><trkpt lat="21.89109748705024" lon="-102.44948834282279"><ele>1994.0</ele><time>2026-03-22T13:37:03Z</time></trkpt><trkpt lat="21.891117900898653" lon="-102.44958074356865"><ele>1994.0</ele><time>2026-03-22T13:37:06Z</time></trkpt><trkpt lat="21.89110342824677" lon="-102.4496660344246"><ele>1994.0</ele><time>2026-03-22T13:37:09Z</time></trkpt><trkpt lat="21.891097934395543" lon="-102.44974205485583"><ele>1993.9999999999998</ele><time>2026-03-22T13:37:11Z</time></trkpt><trkpt lat="21.891048552062287" lon="-102.44982997669419"><ele>1994.0</ele><time>2026-03-22T13:37:13Z</time></trkpt><trkpt lat="21.891003006804873" lon="-102.44989291123318"><ele>1994.3333333333333</ele><time>2026-03-22T13:37:16Z</time></trkpt><trkpt lat="21.890955867871124" lon="-102.44994143506827"><ele>1994.6666666666665</ele><time>2026-03-22T13:37:17Z</time></trkpt><trkpt lat="21.890975956140366" lon="-102.45003316032467"><ele>1995.0</ele><time>2026-03-22T13:37:18Z</time></trkpt><trkpt lat="21.890936311771345" lon="-102.45013072453354"><ele>1995.3333333333335</ele><time>2026-03-22T13:37:20Z</time></trkpt><trkpt lat="21.890912970018448" lon="-102.45021087898124"><ele>1995.6666666666667</ele><time>2026-03-22T13:37:21Z</time></trkpt><trkpt lat="21.890877586244166" lon="-102.45032264527794"><ele>1996.0</ele><time>2026-03-22T13:37:22Z</time></trkpt><trkpt lat="21.890849390029516" lon="-102.45041859404103"><ele>1995.6666666666667</ele><time>2026-03-22T13:37:23Z</time></trkpt><trkpt lat="21.890852328995773" lon="-102.45051583503884"><ele>1995.3333333333335</ele><time>2026-03-22T13:37:24Z</time></trkpt><trkpt lat="21.89087614279264" lon="-102.45063083866825"><ele>1995.0</ele><time>2026-03-22T13:37:25Z</time></trkpt><trkpt lat="21.890838356490406" lon="-102.45069717774047"><ele>1994.6666666666665</ele><time>2026-03-22T13:37:26Z</time></trkpt><trkpt lat="21.89082222313301" lon="-102.45077807682746"><ele>1994.3333333333333</ele><time>2026-03-22T13:37:27Z</time></trkpt><trkpt lat="21.890807345706353" lon="-102.45084954849979"><ele>1994.0</ele><time>2026-03-22T13:37:28Z</time></trkpt><trkpt lat="21.890755797877897" lon="-102.45091466527616"><ele>1994.0</ele><time>2026-03-22T13:37:29Z</time></trkpt><trkpt lat="21.890686055687162" lon="-102.45098061019557"><ele>1994.0</ele><time>2026-03-22T13:37:30Z</time></trkpt><trkpt lat="21.89066350804126" lon="-102.45112412936636"><ele>1994.0</ele><time>2026-03-22T13:37:31Z</time></trkpt><trkpt lat="21.89061828845244" lon="-102.4512332033451"><ele>1994.0</ele><time>2026-03-22T13:37:32Z</time></trkpt><trkpt lat="21.890590370600606" lon="-102.45130494792306"><ele>1994.0</ele><time>2026-03-22T13:37:33Z</time></trkpt><trkpt lat="21.890517386618985" lon="-102.45142582522092"><ele>1994.4999999999998</ele><time>2026-03-22T13:37:35Z</time></trkpt><trkpt lat="21.890456981112365" lon="-102.4514879645444"><ele>1995.0</ele><time>2026-03-22T13:37:36Z</time></trkpt><trkpt lat="21.890462786739963" lon="-102.45158262654869"><ele>1995.5</ele><time>2026-03-22T13:37:37Z</time></trkpt><trkpt lat="21.890437190717368" lon="-102.45168127484567"><ele>1996.0</ele><time>2026-03-22T13:37:38Z</time></trkpt><trkpt lat="21.890396412965362" lon="-102.45174906131028"><ele>1996.4999999999998</ele><time>2026-03-22T13:37:39Z</time></trkpt><trkpt lat="21.890385712698873" lon="-102.45185010075774"><ele>1997.0</ele><time>2026-03-22T13:37:40Z</time></trkpt><trkpt lat="21.890455872381626" lon="-102.4520388925774"><ele>1997.0</ele><time>2026-03-22T13:37:41Z</time></trkpt><trkpt lat="21.89048143680288" lon="-102.45211161576933"><ele>1996.9999999999998</ele><time>2026-03-22T13:37:42Z</time></trkpt><trkpt lat="21.890612706869376" lon="-102.45222954432897"><ele>1996.9999999999998</ele><time>2026-03-22T13:37:43Z</time></trkpt><trkpt lat="21.890584616831134" lon="-102.45231097788991"><ele>1997.0</ele><time>2026-03-22T13:37:44Z</time></trkpt><trkpt lat="21.89060181309186" lon="-102.45238464645693"><ele>1997.0</ele><time>2026-03-22T13:37:45Z</time></trkpt><trkpt lat="21.890571033973483" lon="-102.45246743369445"><ele>1997.1999999999998</ele><time>2026-03-22T13:37:46Z</time></trkpt><trkpt lat="21.890482540344625" lon="-102.45253500463362"><ele>1997.3999999999999</ele><time>2026-03-22T13:37:47Z</time></trkpt><trkpt lat="21.890468371569252" lon="-102.4526170145334"><ele>1997.6000000000001</ele><time>2026-03-22T13:37:48Z</time></trkpt><trkpt lat="21.890513463352676" lon="-102.45273738397174"><ele>1997.8000000000002</ele><time>2026-03-22T13:37:50Z</time></trkpt><trkpt lat="21.890442063193213" lon="-102.45279132050187"><ele>1998.0</ele><time>2026-03-22T13:37:51Z</time></trkpt><trkpt lat="21.890404507315992" lon="-102.45286638817028"><ele>1998.0</ele><time>2026-03-22T13:37:52Z</time></trkpt><trkpt lat="21.8904134968242" lon="-102.45293698978891"><ele>1998.0</ele><time>2026-03-22T13:37:53Z</time></trkpt><trkpt lat="21.890414366530244" lon="-102.45300595127772"><ele>1998.0</ele><time>2026-03-22T13:37:54Z</time></trkpt><trkpt lat="21.890370138185887" lon="-102.45307428795547"><ele>1998.0</ele><time>2026-03-22T13:37:55Z</time></trkpt><trkpt lat="21.89026497815323" lon="-102.45316401151531"><ele>1998.0</ele><time>2026-03-22T13:37:57Z</time></trkpt><trkpt lat="21.890293530855836" lon="-102.45323188215771"><ele>1998.0</ele><time>2026-03-22T13:37:58Z</time></trkpt><trkpt lat="21.89028481811491" lon="-102.45330265510547"><ele>1997.75</ele><time>2026-03-22T13:37:59Z</time></trkpt><trkpt lat="21.890200894370352" lon="-102.45336408443201"><ele>1997.5</ele><time>2026-03-22T13:38:00Z</time></trkpt><trkpt lat="21.890171633769334" lon="-102.45344389363446"><ele>1997.25</ele><time>2026-03-22T13:38:01Z</time></trkpt><trkpt lat="21.890157091877224" lon="-102.45351280124565"><ele>1997.0</ele><time>2026-03-22T13:38:02Z</time></trkpt><trkpt lat="21.890343634716636" lon="-102.45376405261975"><ele>1997.5</ele><time>2026-03-22T13:38:03Z</time></trkpt><trkpt lat="21.890221127139633" lon="-102.4538396332925"><ele>1998.0</ele><time>2026-03-22T13:38:04Z</time></trkpt><trkpt lat="21.890063301243202" lon="-102.45387618400582"><ele>1998.5</ele><time>2026-03-22T13:38:05Z</time></trkpt><trkpt lat="21.890037171005506" lon="-102.45397802511566"><ele>1999.0</ele><time>2026-03-22T13:38:07Z</time></trkpt><trkpt lat="21.89000799103478" lon="-102.45408798227969"><ele>1999.0</ele><time>2026-03-22T13:38:08Z</time></trkpt><trkpt lat="21.889983671829263" lon="-102.45417960113892"><ele>1999.0</ele><time>2026-03-22T13:38:09Z</time></trkpt><trkpt lat="21.889963667657323" lon="-102.45425527150888"><ele>1999.0</ele><time>2026-03-22T13:38:10Z</time></trkpt><trkpt lat="21.890179423002113" lon="-102.45438351439228"><ele>1999.0</ele><time>2026-03-22T13:38:11Z</time></trkpt><trkpt lat="21.890166712098228" lon="-102.45447713381088"><ele>1999.6666666666667</ele><time>2026-03-22T13:38:12Z</time></trkpt><trkpt lat="21.889884936124577" lon="-102.45455309196541"><ele>2000.3333333333335</ele><time>2026-03-22T13:38:14Z</time></trkpt><trkpt lat="21.889848779715276" lon="-102.4546898621236"><ele>2001.0</ele><time>2026-03-22T13:38:15Z</time></trkpt><trkpt lat="21.88978336092486" lon="-102.45493600748584"><ele>2000.0</ele><time>2026-03-22T13:38:16Z</time></trkpt><trkpt lat="21.889749258842325" lon="-102.45506749282195"><ele>1999.0</ele><time>2026-03-22T13:38:17Z</time></trkpt><trkpt lat="21.889721018269963" lon="-102.45517993680592"><ele>1998.0</ele><time>2026-03-22T13:38:18Z</time></trkpt><trkpt lat="21.889698992894044" lon="-102.45528518060425"><ele>1997.0</ele><time>2026-03-22T13:38:19Z</time></trkpt><trkpt lat="21.889672506345214" lon="-102.455377553501"><ele>1996.0</ele><time>2026-03-22T13:38:20Z</time></trkpt><trkpt lat="21.889650621837088" lon="-102.45547155983871"><ele>1996.0</ele><time>2026-03-22T13:38:21Z</time></trkpt><trkpt lat="21.889623120518003" lon="-102.45556894141471"><ele>1996.0</ele><time>2026-03-22T13:38:22Z</time></trkpt><trkpt lat="21.88959390452397" lon="-102.4557077159783"><ele>1996.0</ele><time>2026-03-22T13:38:23Z</time></trkpt><trkpt lat="21.889575986592217" lon="-102.45579878313366"><ele>1996.0</ele><time>2026-03-22T13:38:24Z</time></trkpt><trkpt lat="21.889544051832146" lon="-102.45588927455431"><ele>1996.0</ele><time>2026-03-22T13:38:25Z</time></trkpt><trkpt lat="21.889533483802904" lon="-102.45596912931681"><ele>1996.0000000000002</ele><time>2026-03-22T13:38:26Z</time></trkpt><trkpt lat="21.889502836102416" lon="-102.45604946898438"><ele>1996.0</ele><time>2026-03-22T13:38:27Z</time></trkpt><trkpt lat="21.889485739600165" lon="-102.45611953356246"><ele>1996.0</ele><time>2026-03-22T13:38:28Z</time></trkpt><trkpt lat="21.889439470010974" lon="-102.4562034026825"><ele>1996.0</ele><time>2026-03-22T13:38:29Z</time></trkpt><trkpt lat="21.889397883730044" lon="-102.45629352723279"><ele>1996.0000000000002</ele><time>2026-03-22T13:38:30Z</time></trkpt><trkpt lat="21.88938780005246" lon="-102.4563650282346"><ele>1996.0</ele><time>2026-03-22T13:38:31Z</time></trkpt><trkpt lat="21.889335271391253" lon="-102.4564665508425"><ele>1995.8</ele><time>2026-03-22T13:38:32Z</time></trkpt><trkpt lat="21.889339256580175" lon="-102.45654372322431"><ele>1995.6</ele><time>2026-03-22T13:38:33Z</time></trkpt><trkpt lat="21.889325212436233" lon="-102.45662847410956"><ele>1995.4</ele><time>2026-03-22T13:38:34Z</time></trkpt><trkpt lat="21.889328338236837" lon="-102.45674441356891"><ele>1995.2</ele><time>2026-03-22T13:38:35Z</time></trkpt><trkpt lat="21.889287488642115" lon="-102.4568182421151"><ele>1995.0</ele><time>2026-03-22T13:38:36Z</time></trkpt><trkpt lat="21.889252970191905" lon="-102.45693193968289"><ele>1995.0</ele><time>2026-03-22T13:38:37Z</time></trkpt><trkpt lat="21.889216061877345" lon="-102.45707182489858"><ele>1995.0</ele><time>2026-03-22T13:38:38Z</time></trkpt><trkpt lat="21.88920939810203" lon="-102.4571727209571"><ele>1995.0</ele><time>2026-03-22T13:38:39Z</time></trkpt><trkpt lat="21.88918364861917" lon="-102.45727228545795"><ele>1995.0</ele><time>2026-03-22T13:38:40Z</time></trkpt><trkpt lat="21.889135061083834" lon="-102.45735333732426"><ele>1995.0</ele><time>2026-03-22T13:38:41Z</time></trkpt><trkpt lat="21.889116820444073" lon="-102.45746947563401"><ele>1994.4</ele><time>2026-03-22T13:38:42Z</time></trkpt><trkpt lat="21.889096685232058" lon="-102.45755479338894"><ele>1993.8</ele><time>2026-03-22T13:38:43Z</time></trkpt><trkpt lat="21.889050930154784" lon="-102.45762680403263"><ele>1993.1999999999998</ele><time>2026-03-22T13:38:44Z</time></trkpt><trkpt lat="21.88904628121325" lon="-102.45770801320296"><ele>1992.6</ele><time>2026-03-22T13:38:45Z</time></trkpt><trkpt lat="21.888978115231463" lon="-102.4578002602047"><ele>1992.0</ele><time>2026-03-22T13:38:46Z</time></trkpt><trkpt lat="21.889016908998368" lon="-102.45792330258443"><ele>1992.0</ele><time>2026-03-22T13:38:47Z</time></trkpt><trkpt lat="21.88897282616107" lon="-102.4579997935765"><ele>1991.9999999999998</ele><time>2026-03-22T13:38:48Z</time></trkpt><trkpt lat="21.888943617789238" lon="-102.45809807172934"><ele>1991.9999999999998</ele><time>2026-03-22T13:38:49Z</time></trkpt><trkpt lat="21.88891648033775" lon="-102.4582048083672"><ele>1992.0</ele><time>2026-03-22T13:38:50Z</time></trkpt><trkpt lat="21.88890853812884" lon="-102.45830727951522"><ele>1992.0</ele><time>2026-03-22T13:38:51Z</time></trkpt><trkpt lat="21.88884104438388" lon="-102.4583613670207"><ele>1992.0</ele><time>2026-03-22T13:38:52Z</time></trkpt><trkpt lat="21.888801460776484" lon="-102.4584797706395"><ele>1992.0</ele><time>2026-03-22T13:38:53Z</time></trkpt><trkpt lat="21.888780688589907" lon="-102.45858460553876"><ele>1992.0</ele><time>2026-03-22T13:38:54Z</time></trkpt><trkpt lat="21.88877731119982" lon="-102.4587523997442"><ele>1992.0</ele><time>2026-03-22T13:38:55Z</time></trkpt><trkpt lat="21.888745155545664" lon="-102.45886818949155"><ele>1992.0</ele><time>2026-03-22T13:38:56Z</time></trkpt><trkpt lat="21.888680987173423" lon="-102.45894567428519"><ele>1991.9999999999998</ele><time>2026-03-22T13:38:57Z</time></trkpt><trkpt lat="21.8886656396698" lon="-102.45904446209269"><ele>1991.9999999999998</ele><time>2026-03-22T13:38:59Z</time></trkpt><trkpt lat="21.888638577523462" lon="-102.45915223798275"><ele>1992.0</ele><time>2026-03-22T13:39:00Z</time></trkpt><trkpt lat="21.88863341504984" lon="-102.45924474318613"><ele>1992.0</ele><time>2026-03-22T13:39:01Z</time></trkpt><trkpt lat="21.88859681466839" lon="-102.4593580486377"><ele>1992.0</ele><time>2026-03-22T13:39:02Z</time></trkpt><trkpt lat="21.88855659146036" lon="-102.45947691654891"><ele>1992.0</ele><time>2026-03-22T13:39:03Z</time></trkpt><trkpt lat="21.88851080578523" lon="-102.45960066571823"><ele>1992.0</ele><time>2026-03-22T13:39:04Z</time></trkpt><trkpt lat="21.88847704883272" lon="-102.45979261746675"><ele>1992.0</ele><time>2026-03-22T13:39:05Z</time></trkpt><trkpt lat="21.88844443979496" lon="-102.45992138796079"><ele>1991.1999999999998</ele><time>2026-03-22T13:39:06Z</time></trkpt><trkpt lat="21.88847454835534" lon="-102.46005757747342"><ele>1990.3999999999999</ele><time>2026-03-22T13:39:07Z</time></trkpt><trkpt lat="21.88846444475475" lon="-102.46014967459907"><ele>1989.6000000000001</ele><time>2026-03-22T13:39:08Z</time></trkpt><trkpt lat="21.8884377854357" lon="-102.46025545465598"><ele>1988.8000000000002</ele><time>2026-03-22T13:39:09Z</time></trkpt><trkpt lat="21.888422637668658" lon="-102.46035156458306"><ele>1988.0</ele><time>2026-03-22T13:39:10Z</time></trkpt><trkpt lat="21.88838629492165" lon="-102.46044200393615"><ele>1988.6000000000001</ele><time>2026-03-22T13:39:11Z</time></trkpt><trkpt lat="21.888352467300525" lon="-102.46057204709784"><ele>1989.2000000000003</ele><time>2026-03-22T13:39:12Z</time></trkpt><trkpt lat="21.8883142464272" lon="-102.4607024218169"><ele>1989.8</ele><time>2026-03-22T13:39:13Z</time></trkpt><trkpt lat="21.88828727094717" lon="-102.46079662803187"><ele>1990.4</ele><time>2026-03-22T13:39:14Z</time></trkpt><trkpt lat="21.88826253591315" lon="-102.46089063303057"><ele>1991.0</ele><time>2026-03-22T13:39:15Z</time></trkpt><trkpt lat="21.888238269898242" lon="-102.46098870985378"><ele>1990.9999999999998</ele><time>2026-03-22T13:39:16Z</time></trkpt><trkpt lat="21.888211046021222" lon="-102.46109874127573"><ele>1991.0</ele><time>2026-03-22T13:39:17Z</time></trkpt><trkpt lat="21.888192765629512" lon="-102.461170429139"><ele>1991.0</ele><time>2026-03-22T13:39:18Z</time></trkpt><trkpt lat="21.888171880007164" lon="-102.4612537546455"><ele>1991.0</ele><time>2026-03-22T13:39:19Z</time></trkpt><trkpt lat="21.88816537098091" lon="-102.46134784549191"><ele>1990.9999999999998</ele><time>2026-03-22T13:39:20Z</time></trkpt><trkpt lat="21.888128342474854" lon="-102.46142783615804"><ele>1991.0</ele><time>2026-03-22T13:39:21Z</time></trkpt><trkpt lat="21.88810480209751" lon="-102.46152258872297"><ele>1991.8333333333333</ele><time>2026-03-22T13:39:22Z</time></trkpt><trkpt lat="21.888084128094032" lon="-102.46160583847725"><ele>1992.6666666666665</ele><time>2026-03-22T13:39:23Z</time></trkpt><trkpt lat="21.888064182106426" lon="-102.46169357515045"><ele>1993.5</ele><time>2026-03-22T13:39:24Z</time></trkpt><trkpt lat="21.88802457077206" lon="-102.46177636995434"><ele>1994.3333333333335</ele><time>2026-03-22T13:39:25Z</time></trkpt><trkpt lat="21.888006128557596" lon="-102.46186266887358"><ele>1995.1666666666667</ele><time>2026-03-22T13:39:26Z</time></trkpt><trkpt lat="21.887993934951414" lon="-102.46196280656442"><ele>1996.0</ele><time>2026-03-22T13:39:27Z</time></trkpt><trkpt lat="21.88798692756591" lon="-102.46204772840002"><ele>1996.0</ele><time>2026-03-22T13:39:28Z</time></trkpt><trkpt lat="21.887927202666866" lon="-102.46211656583196"><ele>1996.0</ele><time>2026-03-22T13:39:29Z</time></trkpt><trkpt lat="21.887878363501112" lon="-102.46219813040425"><ele>1996.0</ele><time>2026-03-22T13:39:30Z</time></trkpt><trkpt lat="21.887846590010337" lon="-102.46228251601416"><ele>1996.0</ele><time>2026-03-22T13:39:31Z</time></trkpt><trkpt lat="21.887865906795817" lon="-102.46239709393805"><ele>1996.0</ele><time>2026-03-22T13:39:32Z</time></trkpt><trkpt lat="21.88785659911491" lon="-102.46251138556697"><ele>1996.0</ele><time>2026-03-22T13:39:33Z</time></trkpt><trkpt lat="21.88782636842475" lon="-102.46260906486721"><ele>1996.0</ele><time>2026-03-22T13:39:34Z</time></trkpt><trkpt lat="21.887801401070348" lon="-102.46270002781907"><ele>1996.0</ele><time>2026-03-22T13:39:35Z</time></trkpt><trkpt lat="21.887785996100966" lon="-102.46280334380495"><ele>1996.0</ele><time>2026-03-22T13:39:36Z</time></trkpt><trkpt lat="21.88774417272152" lon="-102.46291831214921"><ele>1996.0</ele><time>2026-03-22T13:39:37Z</time></trkpt><trkpt lat="21.88771116371829" lon="-102.46303862504011"><ele>1995.4</ele><time>2026-03-22T13:39:38Z</time></trkpt><trkpt lat="21.887698304889135" lon="-102.46313469905567"><ele>1994.8</ele><time>2026-03-22T13:39:39Z</time></trkpt><trkpt lat="21.8876634441772" lon="-102.46322664645083"><ele>1994.2000000000003</ele><time>2026-03-22T13:39:40Z</time></trkpt><trkpt lat="21.887654971515115" lon="-102.46333821501946"><ele>1993.6000000000001</ele><time>2026-03-22T13:39:41Z</time></trkpt><trkpt lat="21.887613988058497" lon="-102.46344229441102"><ele>1993.0</ele><time>2026-03-22T13:39:42Z</time></trkpt><trkpt lat="21.887589964350354" lon="-102.46353958714951"><ele>1992.8000000000002</ele><time>2026-03-22T13:39:43Z</time></trkpt><trkpt lat="21.887563098309318" lon="-102.46364839090411"><ele>1992.6000000000001</ele><time>2026-03-22T13:39:44Z</time></trkpt><trkpt lat="21.88754851268972" lon="-102.46376089714984"><ele>1992.3999999999999</ele><time>2026-03-22T13:39:45Z</time></trkpt><trkpt lat="21.887510379311284" lon="-102.46387339998749"><ele>1992.1999999999998</ele><time>2026-03-22T13:39:46Z</time></trkpt><trkpt lat="21.887490069194417" lon="-102.46398008097108"><ele>1992.0</ele><time>2026-03-22T13:39:47Z</time></trkpt><trkpt lat="21.887464488871583" lon="-102.46407733556318"><ele>1991.0</ele><time>2026-03-22T13:39:48Z</time></trkpt><trkpt lat="21.887418091802285" lon="-102.46418262309447"><ele>1990.0</ele><time>2026-03-22T13:39:49Z</time></trkpt><trkpt lat="21.887400456664583" lon="-102.46429428628186"><ele>1989.0</ele><time>2026-03-22T13:39:50Z</time></trkpt><trkpt lat="21.887364432487125" lon="-102.46442359628398"><ele>1988.0</ele><time>2026-03-22T13:39:51Z</time></trkpt><trkpt lat="21.887335925107283" lon="-102.4646013906911"><ele>1986.5</ele><time>2026-03-22T13:39:52Z</time></trkpt><trkpt lat="21.887269345421227" lon="-102.46470550332498"><ele>1985.0</ele><time>2026-03-22T13:39:53Z</time></trkpt><trkpt lat="21.88726691449346" lon="-102.46480872987308"><ele>1983.5</ele><time>2026-03-22T13:39:54Z</time></trkpt><trkpt lat="21.887195285760065" lon="-102.46493070160254"><ele>1982.0</ele><time>2026-03-22T13:39:55Z</time></trkpt><trkpt lat="21.887133110435197" lon="-102.46503382648025"><ele>1982.0</ele><time>2026-03-22T13:39:56Z</time></trkpt><trkpt lat="21.88712832266391" lon="-102.46513386598102"><ele>1981.9999999999998</ele><time>2026-03-22T13:39:57Z</time></trkpt><trkpt lat="21.887081232191825" lon="-102.46524181018115"><ele>1981.9999999999998</ele><time>2026-03-22T13:39:58Z</time></trkpt><trkpt lat="21.8870553664785" lon="-102.46534476042237"><ele>1982.0</ele><time>2026-03-22T13:39:59Z</time></trkpt><trkpt lat="21.887033731491606" lon="-102.46543007250203"><ele>1982.0</ele><time>2026-03-22T13:40:00Z</time></trkpt><trkpt lat="21.88700697890032" lon="-102.46553843925156"><ele>1982.0</ele><time>2026-03-22T13:40:01Z</time></trkpt><trkpt lat="21.8869783849731" lon="-102.46565272265467"><ele>1981.9999999999998</ele><time>2026-03-22T13:40:02Z</time></trkpt><trkpt lat="21.88695196016457" lon="-102.46575731041929"><ele>1981.9999999999998</ele><time>2026-03-22T13:40:03Z</time></trkpt><trkpt lat="21.886927714273035" lon="-102.46585489814208"><ele>1982.0</ele><time>2026-03-22T13:40:04Z</time></trkpt><trkpt lat="21.886903184683376" lon="-102.46593028853707"><ele>1982.0</ele><time>2026-03-22T13:40:05Z</time></trkpt><trkpt lat="21.886885598101205" lon="-102.46602683918283"><ele>1982.0</ele><time>2026-03-22T13:40:06Z</time></trkpt><trkpt lat="21.88688165858564" lon="-102.46612536813916"><ele>1981.9999999999998</ele><time>2026-03-22T13:40:07Z</time></trkpt><trkpt lat="21.88686439967126" lon="-102.46622618827722"><ele>1981.9999999999998</ele><time>2026-03-22T13:40:08Z</time></trkpt><trkpt lat="21.886817155298974" lon="-102.46630676514769"><ele>1982.0</ele><time>2026-03-22T13:40:09Z</time></trkpt><trkpt lat="21.886793255650595" lon="-102.46640254603943"><ele>1982.0</ele><time>2026-03-22T13:40:10Z</time></trkpt><trkpt lat="21.886779248007493" lon="-102.46650842724038"><ele>1982.6</ele><time>2026-03-22T13:40:11Z</time></trkpt><trkpt lat="21.886761408489416" lon="-102.46666246808023"><ele>1983.1999999999998</ele><time>2026-03-22T13:40:12Z</time></trkpt><trkpt lat="21.886778480765415" lon="-102.4667599330842"><ele>1983.8</ele><time>2026-03-22T13:40:14Z</time></trkpt><trkpt lat="21.886760566965012" lon="-102.46685206323157"><ele>1984.4</ele><time>2026-03-22T13:40:15Z</time></trkpt><trkpt lat="21.88671014271694" lon="-102.4669048175724"><ele>1985.0</ele><time>2026-03-22T13:40:16Z</time></trkpt><trkpt lat="21.886694190656893" lon="-102.46697052438365"><ele>1985.8333333333333</ele><time>2026-03-22T13:40:17Z</time></trkpt><trkpt lat="21.886701632853356" lon="-102.46706569952552"><ele>1986.6666666666665</ele><time>2026-03-22T13:40:18Z</time></trkpt><trkpt lat="21.886684746347488" lon="-102.46713278353153"><ele>1987.5</ele><time>2026-03-22T13:40:19Z</time></trkpt><trkpt lat="21.886663037779922" lon="-102.4672189492592"><ele>1988.3333333333335</ele><time>2026-03-22T13:40:20Z</time></trkpt><trkpt lat="21.88664568450404" lon="-102.4672878277921"><ele>1989.1666666666667</ele><time>2026-03-22T13:40:21Z</time></trkpt><trkpt lat="21.886627678894307" lon="-102.46735929566779"><ele>1990.0</ele><time>2026-03-22T13:40:22Z</time></trkpt><trkpt lat="21.886606171580436" lon="-102.4675001086776"><ele>1990.6</ele><time>2026-03-22T13:40:24Z</time></trkpt><trkpt lat="21.886590487853663" lon="-102.46756717620995"><ele>1991.2</ele><time>2026-03-22T13:40:25Z</time></trkpt><trkpt lat="21.886556067656752" lon="-102.46769296605007"><ele>1991.8000000000002</ele><time>2026-03-22T13:40:27Z</time></trkpt><trkpt lat="21.886523111410856" lon="-102.4678123907557"><ele>1992.4</ele><time>2026-03-22T13:40:29Z</time></trkpt><trkpt lat="21.886485009103378" lon="-102.46796284788444"><ele>1993.0</ele><time>2026-03-22T13:40:31Z</time></trkpt><trkpt lat="21.886454364758688" lon="-102.4680276433722"><ele>1993.0</ele><time>2026-03-22T13:40:32Z</time></trkpt><trkpt lat="21.886433169459778" lon="-102.46810736543252"><ele>1993.0</ele><time>2026-03-22T13:40:33Z</time></trkpt><trkpt lat="21.886343562288996" lon="-102.46826191024597"><ele>1993.0</ele><time>2026-03-22T13:40:35Z</time></trkpt><trkpt lat="21.88633630074481" lon="-102.46837059158939"><ele>1993.0</ele><time>2026-03-22T13:40:36Z</time></trkpt><trkpt lat="21.886305076859404" lon="-102.46851733140831"><ele>1993.0</ele><time>2026-03-22T13:40:38Z</time></trkpt><trkpt lat="21.886336796089054" lon="-102.46858094910715"><ele>1993.0</ele><time>2026-03-22T13:40:39Z</time></trkpt><trkpt lat="21.886298804737446" lon="-102.46869266831824"><ele>1993.0</ele><time>2026-03-22T13:40:41Z</time></trkpt><trkpt lat="21.886263054890296" lon="-102.46883060707769"><ele>1993.0</ele><time>2026-03-22T13:40:43Z</time></trkpt><trkpt lat="21.88622315974779" lon="-102.46898454054536"><ele>1992.4</ele><time>2026-03-22T13:40:45Z</time></trkpt><trkpt lat="21.886201801134536" lon="-102.4690686230501"><ele>1991.8000000000002</ele><time>2026-03-22T13:40:46Z</time></trkpt><trkpt lat="21.886174535642102" lon="-102.46918930229234"><ele>1991.2</ele><time>2026-03-22T13:40:47Z</time></trkpt><trkpt lat="21.886139610242928" lon="-102.46934766373874"><ele>1990.6</ele><time>2026-03-22T13:40:49Z</time></trkpt><trkpt lat="21.886135018298354" lon="-102.46944362153461"><ele>1990.0</ele><time>2026-03-22T13:40:50Z</time></trkpt><trkpt lat="21.886118421801793" lon="-102.46951113911712"><ele>1990.0000000000002</ele><time>2026-03-22T13:40:51Z</time></trkpt><trkpt lat="21.886099628321222" lon="-102.46959669023487"><ele>1990.0</ele><time>2026-03-22T13:40:52Z</time></trkpt><trkpt lat="21.886080408150075" lon="-102.46968426335626"><ele>1990.0</ele><time>2026-03-22T13:40:53Z</time></trkpt><trkpt lat="21.886057794867344" lon="-102.4697634575048"><ele>1990.0</ele><time>2026-03-22T13:40:54Z</time></trkpt><trkpt lat="21.886036176368005" lon="-102.46985132528953"><ele>1990.0000000000002</ele><time>2026-03-22T13:40:55Z</time></trkpt><trkpt lat="21.88601851838474" lon="-102.46993544346532"><ele>1990.0</ele><time>2026-03-22T13:40:56Z</time></trkpt><trkpt lat="21.886001239756595" lon="-102.47002287754457"><ele>1990.25</ele><time>2026-03-22T13:40:57Z</time></trkpt><trkpt lat="21.885979512018665" lon="-102.4702038227511"><ele>1990.5</ele><time>2026-03-22T13:40:59Z</time></trkpt><trkpt lat="21.885969200418934" lon="-102.47032660427894"><ele>1990.75</ele><time>2026-03-22T13:41:01Z</time></trkpt><trkpt lat="21.88596665278246" lon="-102.4704556000814"><ele>1991.0</ele><time>2026-03-22T13:41:02Z</time></trkpt><trkpt lat="21.8859628321869" lon="-102.4705531011961"><ele>1991.0</ele><time>2026-03-22T13:41:03Z</time></trkpt><trkpt lat="21.88596445937071" lon="-102.47063850031388"><ele>1991.0</ele><time>2026-03-22T13:41:04Z</time></trkpt><trkpt lat="21.885958774957608" lon="-102.47073423245628"><ele>1991.0</ele><time>2026-03-22T13:41:05Z</time></trkpt><trkpt lat="21.885942573022152" lon="-102.47091005351312"><ele>1991.0</ele><time>2026-03-22T13:41:07Z</time></trkpt><trkpt lat="21.88592747432298" lon="-102.47104054981125"><ele>1991.1999999999998</ele><time>2026-03-22T13:41:08Z</time></trkpt><trkpt lat="21.885920559996574" lon="-102.47119169619585"><ele>1991.3999999999999</ele><time>2026-03-22T13:41:10Z</time></trkpt><trkpt lat="21.885916506605408" lon="-102.4713463723897"><ele>1991.6</ele><time>2026-03-22T13:41:12Z</time></trkpt><trkpt lat="21.885921288299382" lon="-102.47141925445945"><ele>1991.8</ele><time>2026-03-22T13:41:13Z</time></trkpt><trkpt lat="21.88597464914826" lon="-102.47148586153426"><ele>1992.0</ele><time>2026-03-22T13:41:14Z</time></trkpt><trkpt lat="21.88602185044563" lon="-102.47158033715823"><ele>1991.6</ele><time>2026-03-22T13:41:15Z</time></trkpt><trkpt lat="21.88598880564475" lon="-102.47168459833038"><ele>1991.1999999999998</ele><time>2026-03-22T13:41:16Z</time></trkpt><trkpt lat="21.88601310225054" lon="-102.47176168041926"><ele>1990.8</ele><time>2026-03-22T13:41:17Z</time></trkpt><trkpt lat="21.886078699995668" lon="-102.47186992525812"><ele>1990.4</ele><time>2026-03-22T13:41:18Z</time></trkpt><trkpt lat="21.886090025743616" lon="-102.47195217844713"><ele>1990.0</ele><time>2026-03-22T13:41:19Z</time></trkpt><trkpt lat="21.886143160612068" lon="-102.47208378977756"><ele>1989.6</ele><time>2026-03-22T13:41:20Z</time></trkpt><trkpt lat="21.88610655280019" lon="-102.47216422987722"><ele>1989.2</ele><time>2026-03-22T13:41:21Z</time></trkpt><trkpt lat="21.886098374505885" lon="-102.47227705906421"><ele>1988.8000000000002</ele><time>2026-03-22T13:41:22Z</time></trkpt><trkpt lat="21.886120421921532" lon="-102.47237025844659"><ele>1988.4</ele><time>2026-03-22T13:41:23Z</time></trkpt><trkpt lat="21.88614648614567" lon="-102.47246894268145"><ele>1988.0</ele><time>2026-03-22T13:41:24Z</time></trkpt><trkpt lat="21.886156165042355" lon="-102.47259471861408"><ele>1988.0</ele><time>2026-03-22T13:41:25Z</time></trkpt><trkpt lat="21.88613191639025" lon="-102.47272565991202"><ele>1988.0</ele><time>2026-03-22T13:41:26Z</time></trkpt><trkpt lat="21.886138286628" lon="-102.4728417940617"><ele>1988.0</ele><time>2026-03-22T13:41:27Z</time></trkpt><trkpt lat="21.886159088086483" lon="-102.47295150691157"><ele>1988.0</ele><time>2026-03-22T13:41:28Z</time></trkpt><trkpt lat="21.8861527952032" lon="-102.4730882999174"><ele>1987.25</ele><time>2026-03-22T13:41:29Z</time></trkpt><trkpt lat="21.88619555930513" lon="-102.47321242319939"><ele>1986.5</ele><time>2026-03-22T13:41:30Z</time></trkpt><trkpt lat="21.88617859598226" lon="-102.47334297912329"><ele>1985.75</ele><time>2026-03-22T13:41:31Z</time></trkpt><trkpt lat="21.88617156299428" lon="-102.47349535301869"><ele>1985.0</ele><time>2026-03-22T13:41:32Z</time></trkpt><trkpt lat="21.88619900142717" lon="-102.47361448025359"><ele>1985.0</ele><time>2026-03-22T13:41:33Z</time></trkpt><trkpt lat="21.886218077073515" lon="-102.47374993689762"><ele>1985.0</ele><time>2026-03-22T13:41:34Z</time></trkpt><trkpt lat="21.886232382070325" lon="-102.47387280069815"><ele>1985.0</ele><time>2026-03-22T13:41:35Z</time></trkpt><trkpt lat="21.886301211545206" lon="-102.47397620933303"><ele>1985.0</ele><time>2026-03-22T13:41:36Z</time></trkpt><trkpt lat="21.886295680239442" lon="-102.47409649450873"><ele>1984.6</ele><time>2026-03-22T13:41:37Z</time></trkpt><trkpt lat="21.886322762183887" lon="-102.47420864733029"><ele>1984.2</ele><time>2026-03-22T13:41:38Z</time></trkpt><trkpt lat="21.88638332007185" lon="-102.47431374722717"><ele>1983.8000000000002</ele><time>2026-03-22T13:41:39Z</time></trkpt><trkpt lat="21.886365806554856" lon="-102.47443164401557"><ele>1983.4</ele><time>2026-03-22T13:41:40Z</time></trkpt><trkpt lat="21.88641832823142" lon="-102.47453398345544"><ele>1983.0</ele><time>2026-03-22T13:41:41Z</time></trkpt><trkpt lat="21.88644689032374" lon="-102.47462724879429"><ele>1983.0</ele><time>2026-03-22T13:41:42Z</time></trkpt><trkpt lat="21.886456909305355" lon="-102.47475693769917"><ele>1983.0000000000002</ele><time>2026-03-22T13:41:43Z</time></trkpt><trkpt lat="21.886467933035554" lon="-102.474845734753"><ele>1983.0000000000002</ele><time>2026-03-22T13:41:44Z</time></trkpt><trkpt lat="21.88649211525811" lon="-102.47496944091594"><ele>1983.0</ele><time>2026-03-22T13:41:45Z</time></trkpt><trkpt lat="21.8864959865412" lon="-102.47508617294585"><ele>1983.0</ele><time>2026-03-22T13:41:46Z</time></trkpt><trkpt lat="21.886462288556437" lon="-102.4751853906576"><ele>1983.0</ele><time>2026-03-22T13:41:47Z</time></trkpt><trkpt lat="21.886471349761788" lon="-102.47528736177004"><ele>1983.0000000000002</ele><time>2026-03-22T13:41:48Z</time></trkpt><trkpt lat="21.8864866153071" lon="-102.475404528497"><ele>1983.0000000000002</ele><time>2026-03-22T13:41:49Z</time></trkpt><trkpt lat="21.886497675472185" lon="-102.47548941798948"><ele>1983.0</ele><time>2026-03-22T13:41:50Z</time></trkpt><trkpt lat="21.88651521657687" lon="-102.47561925745002"><ele>1983.0</ele><time>2026-03-22T13:41:51Z</time></trkpt><trkpt lat="21.886537180191084" lon="-102.47579690839143"><ele>1983.25</ele><time>2026-03-22T13:41:52Z</time></trkpt><trkpt lat="21.886563075061844" lon="-102.47591061637065"><ele>1983.5</ele><time>2026-03-22T13:41:53Z</time></trkpt><trkpt lat="21.886595276504927" lon="-102.47606511472654"><ele>1983.75</ele><time>2026-03-22T13:41:54Z</time></trkpt><trkpt lat="21.88661916648258" lon="-102.47618521055078"><ele>1984.0</ele><time>2026-03-22T13:41:55Z</time></trkpt><trkpt lat="21.886655346752637" lon="-102.47628968666436"><ele>1983.2</ele><time>2026-03-22T13:41:56Z</time></trkpt><trkpt lat="21.88665245624466" lon="-102.47637026800479"><ele>1982.4</ele><time>2026-03-22T13:41:57Z</time></trkpt><trkpt lat="21.886650279841696" lon="-102.47644713027711"><ele>1981.6</ele><time>2026-03-22T13:41:58Z</time></trkpt><trkpt lat="21.88668756680958" lon="-102.47653405354207"><ele>1980.8</ele><time>2026-03-22T13:41:59Z</time></trkpt><trkpt lat="21.88665812946676" lon="-102.47669377112913"><ele>1980.0</ele><time>2026-03-22T13:42:00Z</time></trkpt><trkpt lat="21.88669679339911" lon="-102.47677687489886"><ele>1980.0</ele><time>2026-03-22T13:42:01Z</time></trkpt><trkpt lat="21.88672006582838" lon="-102.47689210891797"><ele>1980.0</ele><time>2026-03-22T13:42:02Z</time></trkpt><trkpt lat="21.886736393719012" lon="-102.47700648575751"><ele>1980.0</ele><time>2026-03-22T13:42:03Z</time></trkpt><trkpt lat="21.886778067635877" lon="-102.47715406530925"><ele>1980.0</ele><time>2026-03-22T13:42:04Z</time></trkpt><trkpt lat="21.886792882084734" lon="-102.47725968587825"><ele>1981.25</ele><time>2026-03-22T13:42:05Z</time></trkpt><trkpt lat="21.886804005895264" lon="-102.47734907981857"><ele>1982.5</ele><time>2026-03-22T13:42:06Z</time></trkpt><trkpt lat="21.88681486731714" lon="-102.47744925549136"><ele>1983.75</ele><time>2026-03-22T13:42:07Z</time></trkpt><trkpt lat="21.8868262427776" lon="-102.47754273624844"><ele>1985.0</ele><time>2026-03-22T13:42:08Z</time></trkpt><trkpt lat="21.886748655408642" lon="-102.47795634718581"><ele>1986.0</ele><time>2026-03-22T13:42:09Z</time></trkpt><trkpt lat="21.886799433038814" lon="-102.47808588063785"><ele>1987.0</ele><time>2026-03-22T13:42:10Z</time></trkpt><trkpt lat="21.886857682889772" lon="-102.47817196896969"><ele>1988.0</ele><time>2026-03-22T13:42:12Z</time></trkpt><trkpt lat="21.88689698602497" lon="-102.47827399249846"><ele>1989.0</ele><time>2026-03-22T13:42:13Z</time></trkpt><trkpt lat="21.886919005484557" lon="-102.47836530839724"><ele>1990.0</ele><time>2026-03-22T13:42:14Z</time></trkpt><trkpt lat="21.886945117395214" lon="-102.47844879890766"><ele>1990.0</ele><time>2026-03-22T13:42:15Z</time></trkpt><trkpt lat="21.886941030838802" lon="-102.47853262933306"><ele>1990.0</ele><time>2026-03-22T13:42:16Z</time></trkpt><trkpt lat="21.88697562287276" lon="-102.47859502378387"><ele>1990.0</ele><time>2026-03-22T13:42:17Z</time></trkpt><trkpt lat="21.88699376461135" lon="-102.4787358120043"><ele>1990.0</ele><time>2026-03-22T13:42:19Z</time></trkpt><trkpt lat="21.887012235698055" lon="-102.47883350122571"><ele>1990.0</ele><time>2026-03-22T13:42:21Z</time></trkpt><trkpt lat="21.887004198336335" lon="-102.47893796810862"><ele>1990.0</ele><time>2026-03-22T13:42:23Z</time></trkpt><trkpt lat="21.88701567793196" lon="-102.47905652678361"><ele>1990.0</ele><time>2026-03-22T13:42:25Z</time></trkpt><trkpt lat="21.88703252012174" lon="-102.47926243026882"><ele>1990.0</ele><time>2026-03-22T13:42:26Z</time></trkpt><trkpt lat="21.88704288353424" lon="-102.47934496739184"><ele>1990.0</ele><time>2026-03-22T13:42:27Z</time></trkpt><trkpt lat="21.88706644120473" lon="-102.4794189222584"><ele>1990.0</ele><time>2026-03-22T13:42:28Z</time></trkpt><trkpt lat="21.887071955233214" lon="-102.47949645381854"><ele>1990.0</ele><time>2026-03-22T13:42:29Z</time></trkpt><trkpt lat="21.887083530839735" lon="-102.47960693569804"><ele>1990.0</ele><time>2026-03-22T13:42:31Z</time></trkpt><trkpt lat="21.88708718812624" lon="-102.47974258230576"><ele>1990.0</ele><time>2026-03-22T13:42:33Z</time></trkpt><trkpt lat="21.887090992728695" lon="-102.47981734255625"><ele>1990.0</ele><time>2026-03-22T13:42:34Z</time></trkpt><trkpt lat="21.887061967737836" lon="-102.479573433452"><ele>1991.0</ele><time>2026-03-22T13:42:36Z</time></trkpt><trkpt lat="21.887029281120828" lon="-102.47964701641709"><ele>1992.0</ele><time>2026-03-22T13:42:40Z</time></trkpt><trkpt lat="21.887014091435713" lon="-102.47974062661125"><ele>1993.0</ele><time>2026-03-22T13:42:43Z</time></trkpt><trkpt lat="21.88711270274891" lon="-102.48020036633739"><ele>1993.0000000000002</ele><time>2026-03-22T13:42:45Z</time></trkpt><trkpt lat="21.88709266460909" lon="-102.4803474268842"><ele>1993.0</ele><time>2026-03-22T13:42:46Z</time></trkpt><trkpt lat="21.887099744412183" lon="-102.48041994527833"><ele>1993.0</ele><time>2026-03-22T13:42:47Z</time></trkpt><trkpt lat="21.88712892758271" lon="-102.48052548601633"><ele>1993.0</ele><time>2026-03-22T13:42:49Z</time></trkpt><trkpt lat="21.887139071741032" lon="-102.48060185432108"><ele>1993.0000000000002</ele><time>2026-03-22T13:42:50Z</time></trkpt><trkpt lat="21.887148898563783" lon="-102.48067594860859"><ele>1993.0</ele><time>2026-03-22T13:42:51Z</time></trkpt><trkpt lat="21.887158965346675" lon="-102.48075191355507"><ele>1993.25</ele><time>2026-03-22T13:42:52Z</time></trkpt><trkpt lat="21.887169616579918" lon="-102.48083228881522"><ele>1993.5</ele><time>2026-03-22T13:42:53Z</time></trkpt><trkpt lat="21.88718010404953" lon="-102.4809184530215"><ele>1993.75</ele><time>2026-03-22T13:42:54Z</time></trkpt><trkpt lat="21.887178047878287" lon="-102.48102749761634"><ele>1994.0</ele><time>2026-03-22T13:42:55Z</time></trkpt><trkpt lat="21.887208584969517" lon="-102.48123487233524"><ele>1994.0</ele><time>2026-03-22T13:42:56Z</time></trkpt><trkpt lat="21.887222524996865" lon="-102.48133067044601"><ele>1994.0</ele><time>2026-03-22T13:42:57Z</time></trkpt><trkpt lat="21.88725413424459" lon="-102.48148244333844"><ele>1994.0</ele><time>2026-03-22T13:42:58Z</time></trkpt><trkpt lat="21.887302960693617" lon="-102.48155074857603"><ele>1994.0</ele><time>2026-03-22T13:43:00Z</time></trkpt><trkpt lat="21.8873201690768" lon="-102.48164937774409"><ele>1994.0</ele><time>2026-03-22T13:43:01Z</time></trkpt><trkpt lat="21.887320505224018" lon="-102.48174338999894"><ele>1993.9999999999998</ele><time>2026-03-22T13:43:02Z</time></trkpt><trkpt lat="21.887368710922146" lon="-102.4818156988967"><ele>1994.0</ele><time>2026-03-22T13:43:03Z</time></trkpt><trkpt lat="21.88739224914917" lon="-102.48188205729238"><ele>1994.0</ele><time>2026-03-22T13:43:04Z</time></trkpt><trkpt lat="21.887389354944204" lon="-102.48198382196165"><ele>1994.0</ele><time>2026-03-22T13:43:05Z</time></trkpt><trkpt lat="21.887419439284894" lon="-102.48210584822593"><ele>1993.9999999999998</ele><time>2026-03-22T13:43:06Z</time></trkpt><trkpt lat="21.887378940199028" lon="-102.48216748802167"><ele>1994.0</ele><time>2026-03-22T13:43:07Z</time></trkpt><trkpt lat="21.887380638042973" lon="-102.48228230512315"><ele>1994.0</ele><time>2026-03-22T13:43:08Z</time></trkpt><trkpt lat="21.887377915401828" lon="-102.4824315017095"><ele>1994.0</ele><time>2026-03-22T13:43:10Z</time></trkpt><trkpt lat="21.88740174808246" lon="-102.482501094802"><ele>1994.0</ele><time>2026-03-22T13:43:11Z</time></trkpt><trkpt lat="21.887415996501296" lon="-102.48261832074154"><ele>1994.0</ele><time>2026-03-22T13:43:12Z</time></trkpt><trkpt lat="21.887461548535782" lon="-102.48267794073334"><ele>1994.0</ele><time>2026-03-22T13:43:13Z</time></trkpt><trkpt lat="21.88748708972171" lon="-102.48274645072983"><ele>1993.9999999999998</ele><time>2026-03-22T13:43:14Z</time></trkpt><trkpt lat="21.88750149397763" lon="-102.48286133398688"><ele>1994.0</ele><time>2026-03-22T13:43:16Z</time></trkpt><trkpt lat="21.887510358512166" lon="-102.48296126931335"><ele>1994.0</ele><time>2026-03-22T13:43:17Z</time></trkpt><trkpt lat="21.887517109584735" lon="-102.48304328316314"><ele>1994.0</ele><time>2026-03-22T13:43:18Z</time></trkpt><trkpt lat="21.88752298819553" lon="-102.48312693899673"><ele>1993.9999999999998</ele><time>2026-03-22T13:43:19Z</time></trkpt><trkpt lat="21.887523966761627" lon="-102.48320558406975"><ele>1994.0</ele><time>2026-03-22T13:43:20Z</time></trkpt><trkpt lat="21.887531543610436" lon="-102.48328320171437"><ele>1994.1666666666665</ele><time>2026-03-22T13:43:21Z</time></trkpt><trkpt lat="21.887533999760475" lon="-102.48336307368716"><ele>1994.3333333333333</ele><time>2026-03-22T13:43:22Z</time></trkpt><trkpt lat="21.887538374745226" lon="-102.48343868118293"><ele>1994.5</ele><time>2026-03-22T13:43:23Z</time></trkpt><trkpt lat="21.88754283782621" lon="-102.48351949198975"><ele>1994.6666666666665</ele><time>2026-03-22T13:43:24Z</time></trkpt><trkpt lat="21.88755999911942" lon="-102.48359445484473"><ele>1994.8333333333333</ele><time>2026-03-22T13:43:25Z</time></trkpt><trkpt lat="21.887598065270012" lon="-102.4837139177951"><ele>1995.0</ele><time>2026-03-22T13:43:29Z</time></trkpt><trkpt lat="21.88760654549924" lon="-102.48378327224279"><ele>1995.0</ele><time>2026-03-22T13:43:30Z</time></trkpt><trkpt lat="21.887619452211773" lon="-102.48388408633957"><ele>1995.0</ele><time>2026-03-22T13:43:32Z</time></trkpt><trkpt lat="21.887638889896344" lon="-102.48399759760306"><ele>1995.0</ele><time>2026-03-22T13:43:34Z</time></trkpt><trkpt lat="21.887683301226346" lon="-102.48406533450732"><ele>1995.0</ele><time>2026-03-22T13:43:35Z</time></trkpt><trkpt lat="21.887675287670838" lon="-102.48415307572232"><ele>1995.0</ele><time>2026-03-22T13:43:37Z</time></trkpt><trkpt lat="21.887670028902928" lon="-102.48423158025534"><ele>1995.0</ele><time>2026-03-22T13:43:39Z</time></trkpt><trkpt lat="21.88765417264761" lon="-102.48431656813408"><ele>1995.0</ele><time>2026-03-22T13:43:40Z</time></trkpt><trkpt lat="21.887652250841583" lon="-102.48444249377819"><ele>1995.0</ele><time>2026-03-22T13:43:42Z</time></trkpt><trkpt lat="21.88763991272566" lon="-102.48454262745483"><ele>1995.0</ele><time>2026-03-22T13:43:43Z</time></trkpt><trkpt lat="21.887702415783334" lon="-102.4845975310164"><ele>1995.0</ele><time>2026-03-22T13:43:44Z</time></trkpt><trkpt lat="21.887772695018523" lon="-102.48462070856262"><ele>1995.0</ele><time>2026-03-22T13:43:45Z</time></trkpt><trkpt lat="21.88780469895585" lon="-102.4846998279108"><ele>1995.0</ele><time>2026-03-22T13:43:46Z</time></trkpt><trkpt lat="21.887778988863186" lon="-102.4848487367293"><ele>1995.4</ele><time>2026-03-22T13:43:48Z</time></trkpt><trkpt lat="21.88774585526671" lon="-102.48495632280452"><ele>1995.8</ele><time>2026-03-22T13:43:49Z</time></trkpt><trkpt lat="21.88779082418421" lon="-102.48506490751629"><ele>1996.1999999999998</ele><time>2026-03-22T13:43:50Z</time></trkpt><trkpt lat="21.88782679852072" lon="-102.48512393611675"><ele>1996.6</ele><time>2026-03-22T13:43:51Z</time></trkpt><trkpt lat="21.887859160924936" lon="-102.48527194692393"><ele>1997.0</ele><time>2026-03-22T13:43:53Z</time></trkpt><trkpt lat="21.887761066883872" lon="-102.48539149393062"><ele>1996.25</ele><time>2026-03-22T13:43:54Z</time></trkpt><trkpt lat="21.887752598105106" lon="-102.4855296327838"><ele>1995.5</ele><time>2026-03-22T13:43:56Z</time></trkpt><trkpt lat="21.88780544270469" lon="-102.48566448328133"><ele>1994.75</ele><time>2026-03-22T13:43:57Z</time></trkpt><trkpt lat="21.88782441999105" lon="-102.48576758692181"><ele>1994.0</ele><time>2026-03-22T13:43:58Z</time></trkpt><trkpt lat="21.887846100130993" lon="-102.48588894977475"><ele>1994.0</ele><time>2026-03-22T13:43:59Z</time></trkpt><trkpt lat="21.887832550999004" lon="-102.48602836428965"><ele>1994.0</ele><time>2026-03-22T13:44:00Z</time></trkpt><trkpt lat="21.887858347554975" lon="-102.48609650439873"><ele>1994.0</ele><time>2026-03-22T13:44:01Z</time></trkpt><trkpt lat="21.88786474151215" lon="-102.48621565355799"><ele>1994.0</ele><time>2026-03-22T13:44:02Z</time></trkpt><trkpt lat="21.88785346444642" lon="-102.48630227467036"><ele>1994.0</ele><time>2026-03-22T13:44:03Z</time></trkpt><trkpt lat="21.887873069542625" lon="-102.48639591385518"><ele>1993.2</ele><time>2026-03-22T13:44:04Z</time></trkpt><trkpt lat="21.887872415814417" lon="-102.48647951157905"><ele>1992.4</ele><time>2026-03-22T13:44:05Z</time></trkpt><trkpt lat="21.887884117182782" lon="-102.48659362807493"><ele>1991.6</ele><time>2026-03-22T13:44:06Z</time></trkpt><trkpt lat="21.887934397963086" lon="-102.48664898237605"><ele>1990.8</ele><time>2026-03-22T13:44:07Z</time></trkpt><trkpt lat="21.88793953257745" lon="-102.48680391193126"><ele>1990.0</ele><time>2026-03-22T13:44:09Z</time></trkpt><trkpt lat="21.88796617944357" lon="-102.48689318688632"><ele>1990.0</ele><time>2026-03-22T13:44:10Z</time></trkpt><trkpt lat="21.888015650658474" lon="-102.48702419134337"><ele>1990.0</ele><time>2026-03-22T13:44:11Z</time></trkpt><trkpt lat="21.888059624349196" lon="-102.48711911514046"><ele>1990.0</ele><time>2026-03-22T13:44:12Z</time></trkpt><trkpt lat="21.8880615755132" lon="-102.48721127456685"><ele>1990.0</ele><time>2026-03-22T13:44:13Z</time></trkpt><trkpt lat="21.88807545630864" lon="-102.48730229490941"><ele>1990.0</ele><time>2026-03-22T13:44:14Z</time></trkpt><trkpt lat="21.888084617982464" lon="-102.48740135317546"><ele>1990.4</ele><time>2026-03-22T13:44:15Z</time></trkpt><trkpt lat="21.888063904670833" lon="-102.48751089725654"><ele>1990.8</ele><time>2026-03-22T13:44:16Z</time></trkpt><trkpt lat="21.888117093754907" lon="-102.48762045460906"><ele>1991.1999999999998</ele><time>2026-03-22T13:44:17Z</time></trkpt><trkpt lat="21.888094283675905" lon="-102.48772990529976"><ele>1991.6</ele><time>2026-03-22T13:44:18Z</time></trkpt><trkpt lat="21.88810129274527" lon="-102.4878089935681"><ele>1992.0</ele><time>2026-03-22T13:44:19Z</time></trkpt><trkpt lat="21.88811399243977" lon="-102.48795514810399"><ele>1992.6666666666667</ele><time>2026-03-22T13:44:21Z</time></trkpt><trkpt lat="21.88810616829487" lon="-102.48804268825907"><ele>1993.3333333333335</ele><time>2026-03-22T13:44:22Z</time></trkpt><trkpt lat="21.88810838986153" lon="-102.48816147500038"><ele>1994.0</ele><time>2026-03-22T13:44:23Z</time></trkpt><trkpt lat="21.88809303308503" lon="-102.48824127346042"><ele>1994.6666666666667</ele><time>2026-03-22T13:44:24Z</time></trkpt><trkpt lat="21.888118282755798" lon="-102.48833117413031"><ele>1995.3333333333335</ele><time>2026-03-22T13:44:25Z</time></trkpt><trkpt lat="21.888100817181922" lon="-102.48841043577035"><ele>1996.0</ele><time>2026-03-22T13:44:26Z</time></trkpt><trkpt lat="21.888135948119018" lon="-102.4884885014241"><ele>1996.0000000000002</ele><time>2026-03-22T13:44:27Z</time></trkpt><trkpt lat="21.888229395256573" lon="-102.4885725487201"><ele>1996.0</ele><time>2026-03-22T13:44:28Z</time></trkpt><trkpt lat="21.88825015442209" lon="-102.48864269493912"><ele>1996.0</ele><time>2026-03-22T13:44:29Z</time></trkpt><trkpt lat="21.888247237433912" lon="-102.48873929621186"><ele>1996.0</ele><time>2026-03-22T13:44:30Z</time></trkpt><trkpt lat="21.8882740448909" lon="-102.4888266070564"><ele>1996.0000000000002</ele><time>2026-03-22T13:44:31Z</time></trkpt><trkpt lat="21.888245269726042" lon="-102.48891028550815"><ele>1996.0</ele><time>2026-03-22T13:44:33Z</time></trkpt><trkpt lat="21.88820684272773" lon="-102.48900618648788"><ele>1996.6666666666667</ele><time>2026-03-22T13:44:35Z</time></trkpt><trkpt lat="21.888262227970245" lon="-102.48906826901687"><ele>1997.3333333333335</ele><time>2026-03-22T13:44:36Z</time></trkpt><trkpt lat="21.888265479513535" lon="-102.4891467731949"><ele>1998.0</ele><time>2026-03-22T13:44:37Z</time></trkpt><trkpt lat="21.88823588630335" lon="-102.48923622684356"><ele>1998.6666666666665</ele><time>2026-03-22T13:44:38Z</time></trkpt><trkpt lat="21.888220355363323" lon="-102.48930932973008"><ele>1999.3333333333333</ele><time>2026-03-22T13:44:40Z</time></trkpt><trkpt lat="21.888216444141534" lon="-102.48944101968789"><ele>2000.0</ele><time>2026-03-22T13:44:42Z</time></trkpt><trkpt lat="21.88821399220725" lon="-102.48951301384969"><ele>2000.0</ele><time>2026-03-22T13:44:44Z</time></trkpt><trkpt lat="21.88819576136352" lon="-102.48958224021314"><ele>2000.0</ele><time>2026-03-22T13:44:46Z</time></trkpt><trkpt lat="21.88852895075888" lon="-102.4896729716433"><ele>2000.0</ele><time>2026-03-22T13:44:49Z</time></trkpt><trkpt lat="21.8884165476543" lon="-102.48982580775677"><ele>2000.75</ele><time>2026-03-22T13:44:51Z</time></trkpt><trkpt lat="21.888405137152503" lon="-102.48997718391126"><ele>2001.5</ele><time>2026-03-22T13:44:53Z</time></trkpt><trkpt lat="21.888434033315114" lon="-102.49017742031813"><ele>2002.25</ele><time>2026-03-22T13:44:55Z</time></trkpt><trkpt lat="21.888447397705907" lon="-102.49026867872122"><ele>2003.0</ele><time>2026-03-22T13:44:56Z</time></trkpt><trkpt lat="21.888460287276935" lon="-102.49035669468464"><ele>2003.4999999999998</ele><time>2026-03-22T13:45:00Z</time></trkpt><trkpt lat="21.888474027119965" lon="-102.49045051676188"><ele>2004.0</ele><time>2026-03-22T13:45:02Z</time></trkpt><trkpt lat="21.888484699269995" lon="-102.4905233911618"><ele>2004.5</ele><time>2026-03-22T13:45:03Z</time></trkpt><trkpt lat="21.888495202811438" lon="-102.49060622537391"><ele>2005.0</ele><time>2026-03-22T13:45:05Z</time></trkpt><trkpt lat="21.888528250624258" lon="-102.49070395378149"><ele>2005.4999999999998</ele><time>2026-03-22T13:45:07Z</time></trkpt><trkpt lat="21.88853559952528" lon="-102.49082033189383"><ele>2006.0</ele><time>2026-03-22T13:45:09Z</time></trkpt><trkpt lat="21.888550265235306" lon="-102.49094007865826"><ele>2005.9999999999998</ele><time>2026-03-22T13:45:11Z</time></trkpt><trkpt lat="21.8885538142197" lon="-102.4910225811526"><ele>2006.0</ele><time>2026-03-22T13:45:13Z</time></trkpt><trkpt lat="21.888564718627826" lon="-102.49110783131314"><ele>2006.0</ele><time>2026-03-22T13:45:15Z</time></trkpt><trkpt lat="21.88860172566686" lon="-102.4911912400382"><ele>2006.0</ele><time>2026-03-22T13:45:17Z</time></trkpt><trkpt lat="21.888570399770074" lon="-102.49128304627692"><ele>2005.9999999999998</ele><time>2026-03-22T13:45:19Z</time></trkpt><trkpt lat="21.888571941807207" lon="-102.49138926002658"><ele>2006.0</ele><time>2026-03-22T13:45:21Z</time></trkpt><trkpt lat="21.888615572457038" lon="-102.49147291105399"><ele>2006.75</ele><time>2026-03-22T13:45:23Z</time></trkpt><trkpt lat="21.888475794733267" lon="-102.49155090823596"><ele>2007.5</ele><time>2026-03-22T13:45:25Z</time></trkpt><trkpt lat="21.888413023025837" lon="-102.4916277326462"><ele>2008.25</ele><time>2026-03-22T13:45:36Z</time></trkpt><trkpt lat="21.888437596587288" lon="-102.49171698721182"><ele>2009.0</ele><time>2026-03-22T13:45:38Z</time></trkpt><trkpt lat="21.888427617962083" lon="-102.49207997847743"><ele>2009.25</ele><time>2026-03-22T13:45:40Z</time></trkpt><trkpt lat="21.88836377832053" lon="-102.49224058710678"><ele>2009.5</ele><time>2026-03-22T13:45:41Z</time></trkpt><trkpt lat="21.88831660033234" lon="-102.49234056993211"><ele>2009.75</ele><time>2026-03-22T13:45:42Z</time></trkpt><trkpt lat="21.88832030372244" lon="-102.49245039703284"><ele>2010.0</ele><time>2026-03-22T13:45:44Z</time></trkpt><trkpt lat="21.888269977014946" lon="-102.49257369137116"><ele>2010.0</ele><time>2026-03-22T13:45:46Z</time></trkpt><trkpt lat="21.8882859839212" lon="-102.49266269410352"><ele>2010.0</ele><time>2026-03-22T13:45:48Z</time></trkpt><trkpt lat="21.888311302185507" lon="-102.49276558794168"><ele>2010.0</ele><time>2026-03-22T13:45:50Z</time></trkpt><trkpt lat="21.888308339736884" lon="-102.49286488771864"><ele>2010.0</ele><time>2026-03-22T13:45:52Z</time></trkpt><trkpt lat="21.888242467930812" lon="-102.49290695452771"><ele>2010.0</ele><time>2026-03-22T13:45:59Z</time></trkpt><trkpt lat="21.887607995764395" lon="-102.49255056455603"><ele>2010.0</ele><time>2026-03-22T13:46:00Z</time></trkpt><trkpt lat="21.887443131695925" lon="-102.49257069944028"><ele>2010.0</ele><time>2026-03-22T13:46:02Z</time></trkpt><trkpt lat="21.887272136232628" lon="-102.49260850338229"><ele>2010.0</ele><time>2026-03-22T13:46:03Z</time></trkpt><trkpt lat="21.88716839879255" lon="-102.49261360333504"><ele>2010.0</ele><time>2026-03-22T13:46:05Z</time></trkpt><trkpt lat="21.887091093336828" lon="-102.49262261940018"><ele>2010.0</ele><time>2026-03-22T13:46:06Z</time></trkpt><trkpt lat="21.88701008299059" lon="-102.49263285832053"><ele>2010.0</ele><time>2026-03-22T13:46:07Z</time></trkpt><trkpt lat="21.886929069044474" lon="-102.49263844695906"><ele>2010.0</ele><time>2026-03-22T13:46:09Z</time></trkpt><trkpt lat="21.886835383868537" lon="-102.4926395140333"><ele>2010.0</ele><time>2026-03-22T13:46:11Z</time></trkpt><trkpt lat="21.88668101036627" lon="-102.49267325925119"><ele>2010.0</ele><time>2026-03-22T13:46:13Z</time></trkpt><trkpt lat="21.886601680337638" lon="-102.49268728162262"><ele>2010.2</ele><time>2026-03-22T13:46:14Z</time></trkpt><trkpt lat="21.886489120727408" lon="-102.49270724193127"><ele>2010.4</ele><time>2026-03-22T13:46:16Z</time></trkpt><trkpt lat="21.886382839204394" lon="-102.49272376193292"><ele>2010.6</ele><time>2026-03-22T13:46:18Z</time></trkpt><trkpt lat="21.88628821502032" lon="-102.49275114999728"><ele>2010.8</ele><time>2026-03-22T13:46:20Z</time></trkpt><trkpt lat="21.88620250968726" lon="-102.49276858743688"><ele>2011.0</ele><time>2026-03-22T13:46:22Z</time></trkpt><trkpt lat="21.88611624080137" lon="-102.49278429714319"><ele>2011.0</ele><time>2026-03-22T13:46:23Z</time></trkpt><trkpt lat="21.88600114430523" lon="-102.49278578093794"><ele>2011.0</ele><time>2026-03-22T13:46:25Z</time></trkpt><trkpt lat="21.885916471417833" lon="-102.4927919226998"><ele>2011.0</ele><time>2026-03-22T13:46:26Z</time></trkpt><trkpt lat="21.885847299153372" lon="-102.49280002092449"><ele>2011.0</ele><time>2026-03-22T13:46:27Z</time></trkpt><trkpt lat="21.885730402238135" lon="-102.49280482370571"><ele>2011.0</ele><time>2026-03-22T13:46:29Z</time></trkpt><trkpt lat="21.885632851160093" lon="-102.49282735712995"><ele>2011.1999999999998</ele><time>2026-03-22T13:46:30Z</time></trkpt><trkpt lat="21.88558978895746" lon="-102.49287929624354"><ele>2011.3999999999999</ele><time>2026-03-22T13:46:31Z</time></trkpt><trkpt lat="21.885482908609553" lon="-102.4928688514103"><ele>2011.6</ele><time>2026-03-22T13:46:33Z</time></trkpt><trkpt lat="21.885379117432546" lon="-102.49288339991372"><ele>2011.8</ele><time>2026-03-22T13:46:35Z</time></trkpt><trkpt lat="21.885260403188724" lon="-102.49290004019896"><ele>2012.0</ele><time>2026-03-22T13:46:37Z</time></trkpt><trkpt lat="21.885175816176798" lon="-102.49291189684108"><ele>2012.0</ele><time>2026-03-22T13:46:38Z</time></trkpt><trkpt lat="21.88508967530686" lon="-102.49292397125315"><ele>2011.9999999999998</ele><time>2026-03-22T13:46:39Z</time></trkpt><trkpt lat="21.884991128843648" lon="-102.49293778451096"><ele>2011.9999999999998</ele><time>2026-03-22T13:46:40Z</time></trkpt><trkpt lat="21.884877932720602" lon="-102.49295504822543"><ele>2012.0</ele><time>2026-03-22T13:46:42Z</time></trkpt><trkpt lat="21.884802464648367" lon="-102.49297263935269"><ele>2012.0</ele><time>2026-03-22T13:46:43Z</time></trkpt><trkpt lat="21.884725888103617" lon="-102.49296076859703"><ele>2012.0</ele><time>2026-03-22T13:46:44Z</time></trkpt><trkpt lat="21.884657567180746" lon="-102.49298588999505"><ele>2011.9999999999998</ele><time>2026-03-22T13:46:45Z</time></trkpt><trkpt lat="21.884557269501773" lon="-102.49298785168193"><ele>2011.9999999999998</ele><time>2026-03-22T13:46:47Z</time></trkpt><trkpt lat="21.884412262877827" lon="-102.49302675730222"><ele>2012.0</ele><time>2026-03-22T13:46:49Z</time></trkpt><trkpt lat="21.884325052589197" lon="-102.49303953543178"><ele>2012.0</ele><time>2026-03-22T13:46:50Z</time></trkpt><trkpt lat="21.884168656467107" lon="-102.49306287471518"><ele>2012.1999999999998</ele><time>2026-03-22T13:46:52Z</time></trkpt><trkpt lat="21.884095138743714" lon="-102.49307455633196"><ele>2012.3999999999999</ele><time>2026-03-22T13:46:53Z</time></trkpt><trkpt lat="21.883990013836993" lon="-102.49310789513471"><ele>2012.6000000000001</ele><time>2026-03-22T13:46:55Z</time></trkpt><trkpt lat="21.883876521498077" lon="-102.49311629632719"><ele>2012.8000000000002</ele><time>2026-03-22T13:46:57Z</time></trkpt><trkpt lat="21.88373569698349" lon="-102.4931472234489"><ele>2013.0</ele><time>2026-03-22T13:46:59Z</time></trkpt><trkpt lat="21.88366452497551" lon="-102.49314131488929"><ele>2013.0</ele><time>2026-03-22T13:47:00Z</time></trkpt><trkpt lat="21.883938763638486" lon="-102.49310171710262"><ele>2013.0</ele><time>2026-03-22T13:47:02Z</time></trkpt><trkpt lat="21.88379464332837" lon="-102.49312252677969"><ele>2013.0</ele><time>2026-03-22T13:47:05Z</time></trkpt><trkpt lat="21.883704164961237" lon="-102.49313559117513"><ele>2013.0</ele><time>2026-03-22T13:47:07Z</time></trkpt><trkpt lat="21.883506457450448" lon="-102.49316430895054"><ele>2013.0</ele><time>2026-03-22T13:47:09Z</time></trkpt><trkpt lat="21.88335280886331" lon="-102.49318678367254"><ele>2013.0</ele><time>2026-03-22T13:47:10Z</time></trkpt><trkpt lat="21.88324746618106" lon="-102.49320219250916"><ele>2013.2</ele><time>2026-03-22T13:47:11Z</time></trkpt><trkpt lat="21.883167010523614" lon="-102.4932139610266"><ele>2013.4</ele><time>2026-03-22T13:47:12Z</time></trkpt><trkpt lat="21.883044300329367" lon="-102.4932312844404"><ele>2013.6000000000001</ele><time>2026-03-22T13:47:13Z</time></trkpt><trkpt lat="21.88296522930595" lon="-102.49324274332268"><ele>2013.8000000000002</ele><time>2026-03-22T13:47:14Z</time></trkpt><trkpt lat="21.88287402905081" lon="-102.49327397155879"><ele>2014.0</ele><time>2026-03-22T13:47:15Z</time></trkpt><trkpt lat="21.882724980776363" lon="-102.49329235402992"><ele>2014.0</ele><time>2026-03-22T13:47:17Z</time></trkpt><trkpt lat="21.88265013989852" lon="-102.49330083293685"><ele>2014.0</ele><time>2026-03-22T13:47:18Z</time></trkpt><trkpt lat="21.88244121488106" lon="-102.4933191498226"><ele>2014.0</ele><time>2026-03-22T13:47:20Z</time></trkpt><trkpt lat="21.88233229653173" lon="-102.49333576530388"><ele>2014.0</ele><time>2026-03-22T13:47:21Z</time></trkpt><trkpt lat="21.882251866382177" lon="-102.49334781231425"><ele>2013.6</ele><time>2026-03-22T13:47:22Z</time></trkpt><trkpt lat="21.88234672900872" lon="-102.49333360361852"><ele>2013.2</ele><time>2026-03-22T13:47:23Z</time></trkpt><trkpt lat="21.882264956774247" lon="-102.49334585160096"><ele>2012.7999999999997</ele><time>2026-03-22T13:47:24Z</time></trkpt><trkpt lat="21.882158313588928" lon="-102.49336182484116"><ele>2012.3999999999999</ele><time>2026-03-22T13:47:26Z</time></trkpt><trkpt lat="21.882075706117213" lon="-102.49337419826897"><ele>2012.0</ele><time>2026-03-22T13:47:27Z</time></trkpt><trkpt lat="21.881878545595555" lon="-102.49340425361147"><ele>2012.0</ele><time>2026-03-22T13:47:28Z</time></trkpt><trkpt lat="21.88180633011401" lon="-102.49341519926696"><ele>2011.9999999999998</ele><time>2026-03-22T13:47:29Z</time></trkpt><trkpt lat="21.881656593531478" lon="-102.49345207220452"><ele>2011.9999999999998</ele><time>2026-03-22T13:47:30Z</time></trkpt><trkpt lat="21.88153285719297" lon="-102.493468365578"><ele>2012.0</ele><time>2026-03-22T13:47:31Z</time></trkpt><trkpt lat="21.88146086642503" lon="-102.49347450075047"><ele>2012.0</ele><time>2026-03-22T13:47:32Z</time></trkpt><trkpt lat="21.881362965283785" lon="-102.49348763713525"><ele>2011.8</ele><time>2026-03-22T13:47:33Z</time></trkpt><trkpt lat="21.881244285146686" lon="-102.49350301054555"><ele>2011.6</ele><time>2026-03-22T13:47:34Z</time></trkpt><trkpt lat="21.88115011055104" lon="-102.49350732925305"><ele>2011.3999999999999</ele><time>2026-03-22T13:47:35Z</time></trkpt><trkpt lat="21.88101508823064" lon="-102.49353427662537"><ele>2011.1999999999998</ele><time>2026-03-22T13:47:37Z</time></trkpt><trkpt lat="21.880929003612437" lon="-102.49354564066844"><ele>2011.0</ele><time>2026-03-22T13:47:38Z</time></trkpt><trkpt lat="21.88081208412539" lon="-102.493561809068"><ele>2011.0</ele><time>2026-03-22T13:47:39Z</time></trkpt><trkpt lat="21.880745679091522" lon="-102.4935709919805"><ele>2011.0</ele><time>2026-03-22T13:47:40Z</time></trkpt><trkpt lat="21.880615772664797" lon="-102.49360652950764"><ele>2011.0</ele><time>2026-03-22T13:47:42Z</time></trkpt><trkpt lat="21.880527139494774" lon="-102.49360155676668"><ele>2011.0</ele><time>2026-03-22T13:47:43Z</time></trkpt><trkpt lat="21.880452560649005" lon="-102.49361207946673"><ele>2011.0</ele><time>2026-03-22T13:47:44Z</time></trkpt><trkpt lat="21.88034933831996" lon="-102.49362664362538"><ele>2011.0</ele><time>2026-03-22T13:47:45Z</time></trkpt><trkpt lat="21.880273590286897" lon="-102.49363747512274"><ele>2011.0</ele><time>2026-03-22T13:47:46Z</time></trkpt><trkpt lat="21.880189298319923" lon="-102.493649646198"><ele>2011.0</ele><time>2026-03-22T13:47:47Z</time></trkpt><trkpt lat="21.880073815665156" lon="-102.49368390920007"><ele>2011.0</ele><time>2026-03-22T13:47:48Z</time></trkpt><trkpt lat="21.879948650927627" lon="-102.49370212979687"><ele>2011.0</ele><time>2026-03-22T13:47:49Z</time></trkpt><trkpt lat="21.87986315811922" lon="-102.4937138272832"><ele>2011.0</ele><time>2026-03-22T13:47:50Z</time></trkpt><trkpt lat="21.87970654675997" lon="-102.49372010033763"><ele>2011.0</ele><time>2026-03-22T13:47:51Z</time></trkpt><trkpt lat="21.879601871527697" lon="-102.4937530817283"><ele>2011.0</ele><time>2026-03-22T13:47:52Z</time></trkpt><trkpt lat="21.879497472981782" lon="-102.49375031465611"><ele>2011.0</ele><time>2026-03-22T13:47:53Z</time></trkpt><trkpt lat="21.87935177469476" lon="-102.49377143671482"><ele>2011.0000000000002</ele><time>2026-03-22T13:47:56Z</time></trkpt><trkpt lat="21.87926361539055" lon="-102.49378504450317"><ele>2011.0</ele><time>2026-03-22T13:47:57Z</time></trkpt><trkpt lat="21.879186109634016" lon="-102.49381394529405"><ele>2011.0</ele><time>2026-03-22T13:47:58Z</time></trkpt><trkpt lat="21.879122996746954" lon="-102.49379950131573"><ele>2011.0</ele><time>2026-03-22T13:47:59Z</time></trkpt><trkpt lat="21.879054201096896" lon="-102.49378892592627"><ele>2011.0000000000002</ele><time>2026-03-22T13:48:00Z</time></trkpt><trkpt lat="21.878960393619327" lon="-102.4938070480108"><ele>2011.0</ele><time>2026-03-22T13:48:01Z</time></trkpt><trkpt lat="21.87886575749741" lon="-102.49385558043961"><ele>2011.0000000000002</ele><time>2026-03-22T13:48:02Z</time></trkpt><trkpt lat="21.878781172220986" lon="-102.4938359693746"><ele>2011.0</ele><time>2026-03-22T13:48:03Z</time></trkpt><trkpt lat="21.878713177467564" lon="-102.49384533262463"><ele>2011.0</ele><time>2026-03-22T13:48:04Z</time></trkpt><trkpt lat="21.878645016871644" lon="-102.49385349781325"><ele>2011.0</ele><time>2026-03-22T13:48:05Z</time></trkpt><trkpt lat="21.87856701003796" lon="-102.49386383976966"><ele>2011.0000000000002</ele><time>2026-03-22T13:48:06Z</time></trkpt><trkpt lat="21.878464230647317" lon="-102.49387746601576"><ele>2011.0</ele><time>2026-03-22T13:48:07Z</time></trkpt><trkpt lat="21.878383006593" lon="-102.49388892595151"><ele>2010.8</ele><time>2026-03-22T13:48:08Z</time></trkpt><trkpt lat="21.878315546173873" lon="-102.49389866387139"><ele>2010.6</ele><time>2026-03-22T13:48:09Z</time></trkpt><trkpt lat="21.87823201131767" lon="-102.49391072213592"><ele>2010.4</ele><time>2026-03-22T13:48:10Z</time></trkpt><trkpt lat="21.87815372007164" lon="-102.49392202349013"><ele>2010.2</ele><time>2026-03-22T13:48:11Z</time></trkpt><trkpt lat="21.878032974786912" lon="-102.49394330879045"><ele>2010.0</ele><time>2026-03-22T13:48:13Z</time></trkpt><trkpt lat="21.8779159986845" lon="-102.49394667970286"><ele>2010.0</ele><time>2026-03-22T13:48:14Z</time></trkpt><trkpt lat="21.877836681869447" lon="-102.49396388411799"><ele>2010.0</ele><time>2026-03-22T13:48:15Z</time></trkpt><trkpt lat="21.877682672016395" lon="-102.49399883770731"><ele>2010.0</ele><time>2026-03-22T13:48:17Z</time></trkpt><trkpt lat="21.877609626716765" lon="-102.49401385692603"><ele>2010.0</ele><time>2026-03-22T13:48:18Z</time></trkpt><trkpt lat="21.877526266046964" lon="-102.49405049445059"><ele>2010.0</ele><time>2026-03-22T13:48:19Z</time></trkpt><trkpt lat="21.87744907910111" lon="-102.49405804332801"><ele>2009.8333333333333</ele><time>2026-03-22T13:48:20Z</time></trkpt><trkpt lat="21.877320086299836" lon="-102.49409783124985"><ele>2009.6666666666665</ele><time>2026-03-22T13:48:22Z</time></trkpt><trkpt lat="21.877242278457338" lon="-102.49411798448321"><ele>2009.5</ele><time>2026-03-22T13:48:23Z</time></trkpt><trkpt lat="21.877168435503066" lon="-102.49414133253289"><ele>2009.3333333333333</ele><time>2026-03-22T13:48:24Z</time></trkpt><trkpt lat="21.877115316271833" lon="-102.49417916819414"><ele>2009.1666666666665</ele><time>2026-03-22T13:48:25Z</time></trkpt><trkpt lat="21.877045089286277" lon="-102.49420625954309"><ele>2009.0</ele><time>2026-03-22T13:48:26Z</time></trkpt><trkpt lat="21.876967792121974" lon="-102.49424226639066"><ele>2009.0</ele><time>2026-03-22T13:48:27Z</time></trkpt><trkpt lat="21.876893006136335" lon="-102.49427646942482"><ele>2009.0</ele><time>2026-03-22T13:48:28Z</time></trkpt><trkpt lat="21.876811401496568" lon="-102.4943193864254"><ele>2009.0</ele><time>2026-03-22T13:48:29Z</time></trkpt><trkpt lat="21.876744064305896" lon="-102.49435559946733"><ele>2009.0</ele><time>2026-03-22T13:48:30Z</time></trkpt><trkpt lat="21.876636125251625" lon="-102.4944183048251"><ele>2009.0</ele><time>2026-03-22T13:48:31Z</time></trkpt><trkpt lat="21.876555866047855" lon="-102.49446568814817"><ele>2009.0</ele><time>2026-03-22T13:48:32Z</time></trkpt><trkpt lat="21.87648744981431" lon="-102.49451255714398"><ele>2009.0</ele><time>2026-03-22T13:48:33Z</time></trkpt><trkpt lat="21.876414235647005" lon="-102.4945620354592"><ele>2009.0</ele><time>2026-03-22T13:48:34Z</time></trkpt><trkpt lat="21.87635022275481" lon="-102.49460865297766"><ele>2009.0</ele><time>2026-03-22T13:48:35Z</time></trkpt><trkpt lat="21.876255520252744" lon="-102.49467822446"><ele>2009.0</ele><time>2026-03-22T13:48:36Z</time></trkpt><trkpt lat="21.876155476101616" lon="-102.49475389712659"><ele>2009.2</ele><time>2026-03-22T13:48:37Z</time></trkpt><trkpt lat="21.876030623909557" lon="-102.49484948866233"><ele>2009.4</ele><time>2026-03-22T13:48:39Z</time></trkpt><trkpt lat="21.87596780923465" lon="-102.49489769883377"><ele>2009.6</ele><time>2026-03-22T13:48:41Z</time></trkpt><trkpt lat="21.875878470145125" lon="-102.49495294678424"><ele>2009.8</ele><time>2026-03-22T13:48:43Z</time></trkpt><trkpt lat="21.875818603754258" lon="-102.49500324071025"><ele>2010.0</ele><time>2026-03-22T13:48:44Z</time></trkpt><trkpt lat="21.875735581127984" lon="-102.4950722118498"><ele>2010.0</ele><time>2026-03-22T13:48:45Z</time></trkpt><trkpt lat="21.875653830517912" lon="-102.49513688964886"><ele>2010.0</ele><time>2026-03-22T13:48:46Z</time></trkpt><trkpt lat="21.87559277587236" lon="-102.49518799305736"><ele>2010.0</ele><time>2026-03-22T13:48:47Z</time></trkpt><trkpt lat="21.875535198840407" lon="-102.49524275281026"><ele>2010.0</ele><time>2026-03-22T13:48:48Z</time></trkpt><trkpt lat="21.875469441505594" lon="-102.49529339067773"><ele>2010.0</ele><time>2026-03-22T13:48:49Z</time></trkpt><trkpt lat="21.875383340615564" lon="-102.49536912057899"><ele>2010.0</ele><time>2026-03-22T13:48:50Z</time></trkpt><trkpt lat="21.875313446671615" lon="-102.49542635419313"><ele>2010.0</ele><time>2026-03-22T13:48:51Z</time></trkpt><trkpt lat="21.87523633849464" lon="-102.495494384671"><ele>2010.0</ele><time>2026-03-22T13:48:52Z</time></trkpt><trkpt lat="21.875135685808168" lon="-102.49558614604378"><ele>2010.0</ele><time>2026-03-22T13:48:53Z</time></trkpt><trkpt lat="21.875078972981115" lon="-102.49562999789138"><ele>2010.0</ele><time>2026-03-22T13:48:54Z</time></trkpt><trkpt lat="21.874970075171863" lon="-102.4957161743562"><ele>2010.0</ele><time>2026-03-22T13:48:56Z</time></trkpt><trkpt lat="21.87490472659257" lon="-102.49576583327405"><ele>2010.2</ele><time>2026-03-22T13:48:57Z</time></trkpt><trkpt lat="21.874842512775167" lon="-102.49580992281453"><ele>2010.4</ele><time>2026-03-22T13:48:58Z</time></trkpt><trkpt lat="21.874728220756033" lon="-102.49589075491421"><ele>2010.6</ele><time>2026-03-22T13:49:00Z</time></trkpt><trkpt lat="21.87467447061391" lon="-102.49592988366399"><ele>2010.8</ele><time>2026-03-22T13:49:01Z</time></trkpt><trkpt lat="21.87457722579767" lon="-102.496000979149"><ele>2011.0</ele><time>2026-03-22T13:49:02Z</time></trkpt><trkpt lat="21.874510889657145" lon="-102.49605037768856"><ele>2011.0</ele><time>2026-03-22T13:49:03Z</time></trkpt><trkpt lat="21.87440996217545" lon="-102.49612700790468"><ele>2011.0</ele><time>2026-03-22T13:49:05Z</time></trkpt><trkpt lat="21.874521680723863" lon="-102.49644729766335"><ele>2011.0</ele><time>2026-03-22T13:49:06Z</time></trkpt><trkpt lat="21.87444496523105" lon="-102.4964377351219"><ele>2011.1999999999998</ele><time>2026-03-22T13:49:07Z</time></trkpt><trkpt lat="21.874388883274836" lon="-102.49648136141299"><ele>2011.3999999999999</ele><time>2026-03-22T13:49:08Z</time></trkpt><trkpt lat="21.87433702269643" lon="-102.49653541164257"><ele>2011.6</ele><time>2026-03-22T13:49:09Z</time></trkpt><trkpt lat="21.874246096231676" lon="-102.49651265483382"><ele>2011.8</ele><time>2026-03-22T13:49:10Z</time></trkpt><trkpt lat="21.87415067302305" lon="-102.49666495128436"><ele>2012.0</ele><time>2026-03-22T13:49:12Z</time></trkpt><trkpt lat="21.874054035251657" lon="-102.49669581356775"><ele>2011.3999999999999</ele><time>2026-03-22T13:49:13Z</time></trkpt><trkpt lat="21.8739943160906" lon="-102.49675110846702"><ele>2010.7999999999997</ele><time>2026-03-22T13:49:14Z</time></trkpt><trkpt lat="21.873866991208708" lon="-102.49675985689491"><ele>2010.2</ele><time>2026-03-22T13:49:15Z</time></trkpt><trkpt lat="21.873801953797535" lon="-102.49680632752006"><ele>2009.6</ele><time>2026-03-22T13:49:16Z</time></trkpt><trkpt lat="21.873697302950983" lon="-102.49681373341824"><ele>2009.0</ele><time>2026-03-22T13:49:17Z</time></trkpt><trkpt lat="21.873649341678032" lon="-102.49686166614387"><ele>2009.0</ele><time>2026-03-22T13:49:18Z</time></trkpt><trkpt lat="21.87354564492056" lon="-102.49685477180269"><ele>2009.0</ele><time>2026-03-22T13:49:19Z</time></trkpt><trkpt lat="21.873444791217757" lon="-102.4969265335194"><ele>2009.0</ele><time>2026-03-22T13:49:21Z</time></trkpt><trkpt lat="21.873362278390253" lon="-102.4969619162345"><ele>2009.0</ele><time>2026-03-22T13:49:22Z</time></trkpt><trkpt lat="21.873283899520676" lon="-102.49702510946366"><ele>2009.0</ele><time>2026-03-22T13:49:23Z</time></trkpt><trkpt lat="21.873248445902856" lon="-102.4971264731789"><ele>2009.2</ele><time>2026-03-22T13:49:24Z</time></trkpt><trkpt lat="21.873172846353174" lon="-102.49717042142984"><ele>2009.4</ele><time>2026-03-22T13:49:25Z</time></trkpt><trkpt lat="21.8731026902831" lon="-102.4972040866468"><ele>2009.6</ele><time>2026-03-22T13:49:26Z</time></trkpt><trkpt lat="21.873090266898082" lon="-102.4973330087637"><ele>2009.8</ele><time>2026-03-22T13:49:27Z</time></trkpt><trkpt lat="21.873049440006444" lon="-102.49740012101154"><ele>2010.0</ele><time>2026-03-22T13:49:28Z</time></trkpt><trkpt lat="21.872918007872553" lon="-102.49726807361077"><ele>2010.0</ele><time>2026-03-22T13:49:29Z</time></trkpt><trkpt lat="21.872841958887534" lon="-102.49732610260114"><ele>2010.0</ele><time>2026-03-22T13:49:30Z</time></trkpt><trkpt lat="21.87273833720571" lon="-102.4974209551513"><ele>2010.0</ele><time>2026-03-22T13:49:31Z</time></trkpt><trkpt lat="21.87264668258233" lon="-102.49747971775268"><ele>2010.0</ele><time>2026-03-22T13:49:33Z</time></trkpt><trkpt lat="21.87257859553114" lon="-102.49752850089337"><ele>2010.0</ele><time>2026-03-22T13:49:34Z</time></trkpt><trkpt lat="21.87246423389649" lon="-102.4976102773885"><ele>2009.8</ele><time>2026-03-22T13:49:36Z</time></trkpt><trkpt lat="21.87239119185418" lon="-102.49766642523866"><ele>2009.6</ele><time>2026-03-22T13:49:37Z</time></trkpt><trkpt lat="21.872308147986075" lon="-102.49773206810015"><ele>2009.4</ele><time>2026-03-22T13:49:38Z</time></trkpt><trkpt lat="21.872241931360026" lon="-102.49777730583305"><ele>2009.2</ele><time>2026-03-22T13:49:39Z</time></trkpt><trkpt lat="21.872164111048484" lon="-102.49783764376963"><ele>2009.0</ele><time>2026-03-22T13:49:40Z</time></trkpt><trkpt lat="21.872069253151743" lon="-102.49791792385925"><ele>2008.5</ele><time>2026-03-22T13:49:41Z</time></trkpt><trkpt lat="21.87197259243466" lon="-102.49800616065525"><ele>2008.0</ele><time>2026-03-22T13:49:42Z</time></trkpt><trkpt lat="21.871784065359694" lon="-102.49814109803265"><ele>2007.5</ele><time>2026-03-22T13:49:44Z</time></trkpt><trkpt lat="21.871717735990902" lon="-102.49819156437988"><ele>2007.0</ele><time>2026-03-22T13:49:45Z</time></trkpt><trkpt lat="21.871653672886175" lon="-102.49824110936163"><ele>2007.0</ele><time>2026-03-22T13:49:46Z</time></trkpt><trkpt lat="21.87157144858077" lon="-102.49830441877373"><ele>2007.0</ele><time>2026-03-22T13:49:47Z</time></trkpt><trkpt lat="21.871512970947496" lon="-102.49834900277193"><ele>2007.0</ele><time>2026-03-22T13:49:48Z</time></trkpt><trkpt lat="21.871434259328424" lon="-102.49840821210378"><ele>2007.0</ele><time>2026-03-22T13:49:49Z</time></trkpt><trkpt lat="21.871378192532827" lon="-102.49845038729626"><ele>2007.0</ele><time>2026-03-22T13:49:50Z</time></trkpt><trkpt lat="21.871290191033545" lon="-102.49851747708216"><ele>2007.0</ele><time>2026-03-22T13:49:52Z</time></trkpt><trkpt lat="21.871221402530495" lon="-102.49859279049872"><ele>2007.0</ele><time>2026-03-22T13:49:53Z</time></trkpt><trkpt lat="21.87113717477228" lon="-102.49865724417177"><ele>2006.9999999999998</ele><time>2026-03-22T13:49:54Z</time></trkpt><trkpt lat="21.871067305258045" lon="-102.49871023136872"><ele>2006.9999999999998</ele><time>2026-03-22T13:49:55Z</time></trkpt><trkpt lat="21.870990735952127" lon="-102.49876988207461"><ele>2007.0</ele><time>2026-03-22T13:49:56Z</time></trkpt><trkpt lat="21.870913560856845" lon="-102.49883006991594"><ele>2007.0</ele><time>2026-03-22T13:49:57Z</time></trkpt><trkpt lat="21.870844185506318" lon="-102.49886289435153"><ele>2007.0</ele><time>2026-03-22T13:49:58Z</time></trkpt><trkpt lat="21.87073037189804" lon="-102.49897071097207"><ele>2007.0</ele><time>2026-03-22T13:50:00Z</time></trkpt><trkpt lat="21.8706332213904" lon="-102.49901999834537"><ele>2007.0</ele><time>2026-03-22T13:50:01Z</time></trkpt><trkpt lat="21.870553659314556" lon="-102.49907409015636"><ele>2007.0</ele><time>2026-03-22T13:50:02Z</time></trkpt><trkpt lat="21.87046519552311" lon="-102.499153625537"><ele>2007.0</ele><time>2026-03-22T13:50:03Z</time></trkpt><trkpt lat="21.87039256697061" lon="-102.49921159997261"><ele>2006.9999999999998</ele><time>2026-03-22T13:50:04Z</time></trkpt><trkpt lat="21.870325651133456" lon="-102.4992689185187"><ele>2006.9999999999998</ele><time>2026-03-22T13:50:05Z</time></trkpt><trkpt lat="21.87026319831989" lon="-102.49932760393035"><ele>2007.0</ele><time>2026-03-22T13:50:06Z</time></trkpt><trkpt lat="21.87017986468243" lon="-102.49939239486929"><ele>2007.0</ele><time>2026-03-22T13:50:07Z</time></trkpt><trkpt lat="21.87007422916125" lon="-102.4994401137283"><ele>2007.0</ele><time>2026-03-22T13:50:08Z</time></trkpt><trkpt lat="21.87001427042249" lon="-102.49951349386991"><ele>2006.9999999999998</ele><time>2026-03-22T13:50:09Z</time></trkpt><trkpt lat="21.86989908606571" lon="-102.49959940895998"><ele>2006.9999999999998</ele><time>2026-03-22T13:50:10Z</time></trkpt><trkpt lat="21.869825358072934" lon="-102.49964775422112"><ele>2007.0</ele><time>2026-03-22T13:50:11Z</time></trkpt><trkpt lat="21.869748914798393" lon="-102.49971070538129"><ele>2007.0</ele><time>2026-03-22T13:50:12Z</time></trkpt><trkpt lat="21.869672370440906" lon="-102.49977117342068"><ele>2007.0</ele><time>2026-03-22T13:50:13Z</time></trkpt><trkpt lat="21.869598110057026" lon="-102.4998063463805"><ele>2007.0</ele><time>2026-03-22T13:50:14Z</time></trkpt><trkpt lat="21.869542678936757" lon="-102.49986987189581"><ele>2007.0</ele><time>2026-03-22T13:50:15Z</time></trkpt><trkpt lat="21.869456927890234" lon="-102.4999274594601"><ele>2007.0</ele><time>2026-03-22T13:50:16Z</time></trkpt><trkpt lat="21.869365989008156" lon="-102.4999926091668"><ele>2007.0</ele><time>2026-03-22T13:50:17Z</time></trkpt><trkpt lat="21.869311745863367" lon="-102.50003333584647"><ele>2007.0</ele><time>2026-03-22T13:50:18Z</time></trkpt><trkpt lat="21.869236945479674" lon="-102.50009107356951"><ele>2007.0</ele><time>2026-03-22T13:50:19Z</time></trkpt><trkpt lat="21.86914850908511" lon="-102.50014824291866"><ele>2007.0</ele><time>2026-03-22T13:50:20Z</time></trkpt><trkpt lat="21.869064469912285" lon="-102.50019429602924"><ele>2007.0</ele><time>2026-03-22T13:50:21Z</time></trkpt><trkpt lat="21.869005662846952" lon="-102.50023108048617"><ele>2007.0</ele><time>2026-03-22T13:50:22Z</time></trkpt><trkpt lat="21.8689034893566" lon="-102.50024257748109"><ele>2007.0</ele><time>2026-03-22T13:50:23Z</time></trkpt><trkpt lat="21.868846654143535" lon="-102.50027534132698"><ele>2007.0</ele><time>2026-03-22T13:50:24Z</time></trkpt><trkpt lat="21.86876012768788" lon="-102.50032522128004"><ele>2007.0</ele><time>2026-03-22T13:50:25Z</time></trkpt><trkpt lat="21.86870612388159" lon="-102.50037738369332"><ele>2006.9999999999998</ele><time>2026-03-22T13:50:26Z</time></trkpt><trkpt lat="21.86862551957313" lon="-102.50041778364299"><ele>2006.9999999999998</ele><time>2026-03-22T13:50:27Z</time></trkpt><trkpt lat="21.868540654466425" lon="-102.50046499476001"><ele>2007.0</ele><time>2026-03-22T13:50:28Z</time></trkpt><trkpt lat="21.86842421058162" lon="-102.50053432946457"><ele>2007.0</ele><time>2026-03-22T13:50:29Z</time></trkpt><trkpt lat="21.868296898670962" lon="-102.50060425003747"><ele>2006.8</ele><time>2026-03-22T13:50:31Z</time></trkpt><trkpt lat="21.868229941839864" lon="-102.50064281253707"><ele>2006.6</ele><time>2026-03-22T13:50:32Z</time></trkpt><trkpt lat="21.868098328789184" lon="-102.50067879340439"><ele>2006.3999999999999</ele><time>2026-03-22T13:50:34Z</time></trkpt><trkpt lat="21.86802125300151" lon="-102.50071388492343"><ele>2006.1999999999998</ele><time>2026-03-22T13:50:35Z</time></trkpt><trkpt lat="21.867930414631722" lon="-102.50075776072492"><ele>2006.0</ele><time>2026-03-22T13:50:36Z</time></trkpt><trkpt lat="21.867846075964867" lon="-102.50080632353354"><ele>2006.0</ele><time>2026-03-22T13:50:37Z</time></trkpt><trkpt lat="21.86776945648379" lon="-102.50085004132701"><ele>2006.0</ele><time>2026-03-22T13:50:38Z</time></trkpt><trkpt lat="21.86768988138322" lon="-102.50086971257102"><ele>2006.0</ele><time>2026-03-22T13:50:39Z</time></trkpt><trkpt lat="21.867704285706804" lon="-102.50098728020652"><ele>2006.0</ele><time>2026-03-22T13:50:40Z</time></trkpt><trkpt lat="21.867621739442164" lon="-102.5010326577895"><ele>2006.0</ele><time>2026-03-22T13:50:41Z</time></trkpt><trkpt lat="21.867492089570195" lon="-102.5010842062102"><ele>2005.9999999999998</ele><time>2026-03-22T13:50:43Z</time></trkpt><trkpt lat="21.86743311559653" lon="-102.5011278015564"><ele>2006.0</ele><time>2026-03-22T13:50:44Z</time></trkpt><trkpt lat="21.867369656637905" lon="-102.50122326338997"><ele>2006.0</ele><time>2026-03-22T13:50:45Z</time></trkpt><trkpt lat="21.867292179885894" lon="-102.50127112675766"><ele>2006.0</ele><time>2026-03-22T13:50:46Z</time></trkpt><trkpt lat="21.867224458340655" lon="-102.50130894146827"><ele>2005.9999999999998</ele><time>2026-03-22T13:50:47Z</time></trkpt><trkpt lat="21.867160585178155" lon="-102.50136789531184"><ele>2006.0</ele><time>2026-03-22T13:50:48Z</time></trkpt><trkpt lat="21.867055964355156" lon="-102.50142729922493"><ele>2005.5</ele><time>2026-03-22T13:50:49Z</time></trkpt><trkpt lat="21.86697509889771" lon="-102.50147645013134"><ele>2005.0</ele><time>2026-03-22T13:50:50Z</time></trkpt><trkpt lat="21.866882712645815" lon="-102.50146970922208"><ele>2004.5</ele><time>2026-03-22T13:50:51Z</time></trkpt><trkpt lat="21.866680886264867" lon="-102.5014917984099"><ele>2004.0</ele><time>2026-03-22T13:50:52Z</time></trkpt><trkpt lat="21.866621718152324" lon="-102.50152301146643"><ele>2004.0</ele><time>2026-03-22T13:50:53Z</time></trkpt><trkpt lat="21.86651104227434" lon="-102.50151393022375"><ele>2004.0</ele><time>2026-03-22T13:50:54Z</time></trkpt><trkpt lat="21.8664135360399" lon="-102.5015812141194"><ele>2004.0</ele><time>2026-03-22T13:50:55Z</time></trkpt><trkpt lat="21.866291602627953" lon="-102.50156670044257"><ele>2004.0</ele><time>2026-03-22T13:50:56Z</time></trkpt><trkpt lat="21.866214189887543" lon="-102.50160504767052"><ele>2004.0</ele><time>2026-03-22T13:50:57Z</time></trkpt><trkpt lat="21.86612503288592" lon="-102.50164384415575"><ele>2004.0</ele><time>2026-03-22T13:50:58Z</time></trkpt><trkpt lat="21.866044502233827" lon="-102.50169134687705"><ele>2004.0</ele><time>2026-03-22T13:50:59Z</time></trkpt><trkpt lat="21.865963492893247" lon="-102.501727356693"><ele>2004.0</ele><time>2026-03-22T13:51:00Z</time></trkpt><trkpt lat="21.865876081289308" lon="-102.50177209686261"><ele>2004.0</ele><time>2026-03-22T13:51:01Z</time></trkpt><trkpt lat="21.865791180717313" lon="-102.50180648755546"><ele>2004.0</ele><time>2026-03-22T13:51:02Z</time></trkpt><trkpt lat="21.865667269582993" lon="-102.50182557365753"><ele>2004.2</ele><time>2026-03-22T13:51:03Z</time></trkpt><trkpt lat="21.865583210518132" lon="-102.50185365808787"><ele>2004.4</ele><time>2026-03-22T13:51:04Z</time></trkpt><trkpt lat="21.8655084066343" lon="-102.50189642294565"><ele>2004.6</ele><time>2026-03-22T13:51:05Z</time></trkpt><trkpt lat="21.865533829591595" lon="-102.50197006377145"><ele>2004.8</ele><time>2026-03-22T13:51:06Z</time></trkpt><trkpt lat="21.865483987437525" lon="-102.50210159071409"><ele>2005.0</ele><time>2026-03-22T13:51:07Z</time></trkpt><trkpt lat="21.865426392202618" lon="-102.50224175852584"><ele>2004.0</ele><time>2026-03-22T13:51:08Z</time></trkpt><trkpt lat="21.86534924714275" lon="-102.50231828869073"><ele>2003.0</ele><time>2026-03-22T13:51:09Z</time></trkpt><trkpt lat="21.865286084605117" lon="-102.50240214908088"><ele>2002.0</ele><time>2026-03-22T13:51:10Z</time></trkpt><trkpt lat="21.86524556577677" lon="-102.50253149283323"><ele>2001.0</ele><time>2026-03-22T13:51:11Z</time></trkpt><trkpt lat="21.86520123284912" lon="-102.50261260089968"><ele>2000.0</ele><time>2026-03-22T13:51:12Z</time></trkpt><trkpt lat="21.86513733288824" lon="-102.50272636758801"><ele>2000.0</ele><time>2026-03-22T13:51:13Z</time></trkpt><trkpt lat="21.865063323205113" lon="-102.50290567529446"><ele>2000.0</ele><time>2026-03-22T13:51:14Z</time></trkpt><trkpt lat="21.8650451597817" lon="-102.50301201536624"><ele>2000.0</ele><time>2026-03-22T13:51:15Z</time></trkpt><trkpt lat="21.865007549763728" lon="-102.50313354739974"><ele>2000.0</ele><time>2026-03-22T13:51:16Z</time></trkpt><trkpt lat="21.86495765869879" lon="-102.50326666971726"><ele>2000.0</ele><time>2026-03-22T13:51:17Z</time></trkpt><trkpt lat="21.86491584805996" lon="-102.50338203209185"><ele>2000.0</ele><time>2026-03-22T13:51:18Z</time></trkpt><trkpt lat="21.864877243596062" lon="-102.50350630605502"><ele>2000.0</ele><time>2026-03-22T13:51:19Z</time></trkpt><trkpt lat="21.8648447693681" lon="-102.50360852346617"><ele>2000.0</ele><time>2026-03-22T13:51:20Z</time></trkpt><trkpt lat="21.864807300083864" lon="-102.50372890473336"><ele>1999.6</ele><time>2026-03-22T13:51:21Z</time></trkpt><trkpt lat="21.864774954991482" lon="-102.5038335675516"><ele>1999.2</ele><time>2026-03-22T13:51:22Z</time></trkpt><trkpt lat="21.864742921709276" lon="-102.50394164856802"><ele>1998.8000000000002</ele><time>2026-03-22T13:51:23Z</time></trkpt><trkpt lat="21.864709030879045" lon="-102.50404758364179"><ele>1998.4</ele><time>2026-03-22T13:51:24Z</time></trkpt><trkpt lat="21.864668235975728" lon="-102.50417667147045"><ele>1998.0</ele><time>2026-03-22T13:51:25Z</time></trkpt><trkpt lat="21.86461750781655" lon="-102.50433311970093"><ele>1998.0</ele><time>2026-03-22T13:51:26Z</time></trkpt><trkpt lat="21.864564141035267" lon="-102.50448657910187"><ele>1998.0</ele><time>2026-03-22T13:51:27Z</time></trkpt><trkpt lat="21.86451081567365" lon="-102.50460372895614"><ele>1998.0</ele><time>2026-03-22T13:51:28Z</time></trkpt><trkpt lat="21.864469778631445" lon="-102.50473576377271"><ele>1998.0</ele><time>2026-03-22T13:51:29Z</time></trkpt><trkpt lat="21.864429455158263" lon="-102.50486597770015"><ele>1997.0</ele><time>2026-03-22T13:51:30Z</time></trkpt><trkpt lat="21.864391882335973" lon="-102.50500631894147"><ele>1996.0</ele><time>2026-03-22T13:51:31Z</time></trkpt><trkpt lat="21.864354652593278" lon="-102.50514611964705"><ele>1995.0</ele><time>2026-03-22T13:51:32Z</time></trkpt><trkpt lat="21.864310163981393" lon="-102.50528514323409"><ele>1994.0</ele><time>2026-03-22T13:51:33Z</time></trkpt><trkpt lat="21.864260180045576" lon="-102.50541291150348"><ele>1994.0</ele><time>2026-03-22T13:51:34Z</time></trkpt><trkpt lat="21.864203815525414" lon="-102.50555580253521"><ele>1994.0</ele><time>2026-03-22T13:51:35Z</time></trkpt><trkpt lat="21.864168949057422" lon="-102.50569632246082"><ele>1994.0</ele><time>2026-03-22T13:51:36Z</time></trkpt><trkpt lat="21.864130919517265" lon="-102.50581325706113"><ele>1994.0</ele><time>2026-03-22T13:51:37Z</time></trkpt><trkpt lat="21.86409077751086" lon="-102.5059359324999"><ele>1994.0</ele><time>2026-03-22T13:51:38Z</time></trkpt><trkpt lat="21.86405211270934" lon="-102.50605409356288"><ele>1994.0</ele><time>2026-03-22T13:51:39Z</time></trkpt><trkpt lat="21.864011908429365" lon="-102.50617695929384"><ele>1994.0</ele><time>2026-03-22T13:51:40Z</time></trkpt><trkpt lat="21.863971911724065" lon="-102.50629919065555"><ele>1994.0</ele><time>2026-03-22T13:51:41Z</time></trkpt><trkpt lat="21.86393100320248" lon="-102.50642420863676"><ele>1992.75</ele><time>2026-03-22T13:51:42Z</time></trkpt><trkpt lat="21.86388874199784" lon="-102.5065548414381"><ele>1991.5</ele><time>2026-03-22T13:51:43Z</time></trkpt><trkpt lat="21.863837491439845" lon="-102.50666362541989"><ele>1990.25</ele><time>2026-03-22T13:51:44Z</time></trkpt><trkpt lat="21.863807688405238" lon="-102.50679908701639"><ele>1989.0</ele><time>2026-03-22T13:51:45Z</time></trkpt><trkpt lat="21.863766957336274" lon="-102.50692182538984"><ele>1989.0</ele><time>2026-03-22T13:51:46Z</time></trkpt><trkpt lat="21.86370946513614" lon="-102.50704288938246"><ele>1989.0</ele><time>2026-03-22T13:51:47Z</time></trkpt><trkpt lat="21.863667180144965" lon="-102.5071730666987"><ele>1989.0</ele><time>2026-03-22T13:51:48Z</time></trkpt><trkpt lat="21.863627055457755" lon="-102.50729924713785"><ele>1989.0</ele><time>2026-03-22T13:51:49Z</time></trkpt><trkpt lat="21.863594845699186" lon="-102.50742346370211"><ele>1988.5</ele><time>2026-03-22T13:51:50Z</time></trkpt><trkpt lat="21.863562083466203" lon="-102.50754052144053"><ele>1988.0</ele><time>2026-03-22T13:51:51Z</time></trkpt><trkpt lat="21.86351835822029" lon="-102.50766884515875"><ele>1987.5</ele><time>2026-03-22T13:51:52Z</time></trkpt><trkpt lat="21.86347263646935" lon="-102.5078082686463"><ele>1987.0</ele><time>2026-03-22T13:51:53Z</time></trkpt><trkpt lat="21.86344000782589" lon="-102.5079441281275"><ele>1987.0</ele><time>2026-03-22T13:51:54Z</time></trkpt><trkpt lat="21.86339712477495" lon="-102.50807928331524"><ele>1987.0</ele><time>2026-03-22T13:51:55Z</time></trkpt><trkpt lat="21.863362262880923" lon="-102.50820973168217"><ele>1987.0</ele><time>2026-03-22T13:51:56Z</time></trkpt><trkpt lat="21.86333172875029" lon="-102.50835498372587"><ele>1987.0</ele><time>2026-03-22T13:51:57Z</time></trkpt><trkpt lat="21.86327130586985" lon="-102.50848450293894"><ele>1987.0</ele><time>2026-03-22T13:51:58Z</time></trkpt><trkpt lat="21.863231814222804" lon="-102.50860377111886"><ele>1987.0</ele><time>2026-03-22T13:51:59Z</time></trkpt><trkpt lat="21.863187149012887" lon="-102.50873847348083"><ele>1987.0</ele><time>2026-03-22T13:52:00Z</time></trkpt><trkpt lat="21.863142617327025" lon="-102.50887123695664"><ele>1987.0</ele><time>2026-03-22T13:52:01Z</time></trkpt><trkpt lat="21.863104332701155" lon="-102.50898537582518"><ele>1986.0</ele><time>2026-03-22T13:52:02Z</time></trkpt><trkpt lat="21.863055397705867" lon="-102.50910925316666"><ele>1985.0</ele><time>2026-03-22T13:52:03Z</time></trkpt><trkpt lat="21.86301164597252" lon="-102.50924640010251"><ele>1984.0</ele><time>2026-03-22T13:52:04Z</time></trkpt><trkpt lat="21.862993264933966" lon="-102.50936789550784"><ele>1983.0</ele><time>2026-03-22T13:52:05Z</time></trkpt><trkpt lat="21.862947008739493" lon="-102.50946549849733"><ele>1982.25</ele><time>2026-03-22T13:52:06Z</time></trkpt><trkpt lat="21.86288235085003" lon="-102.50958743801957"><ele>1981.5</ele><time>2026-03-22T13:52:07Z</time></trkpt><trkpt lat="21.862825033991157" lon="-102.50970954878308"><ele>1980.75</ele><time>2026-03-22T13:52:08Z</time></trkpt><trkpt lat="21.862780471466905" lon="-102.50983501738749"><ele>1980.0</ele><time>2026-03-22T13:52:09Z</time></trkpt><trkpt lat="21.862737880294628" lon="-102.50995116731553"><ele>1980.0</ele><time>2026-03-22T13:52:10Z</time></trkpt><trkpt lat="21.862695826203467" lon="-102.51008272409912"><ele>1980.0</ele><time>2026-03-22T13:52:11Z</time></trkpt><trkpt lat="21.862640750056677" lon="-102.51022596155174"><ele>1980.0</ele><time>2026-03-22T13:52:12Z</time></trkpt><trkpt lat="21.8625802593845" lon="-102.5103402394573"><ele>1980.0</ele><time>2026-03-22T13:52:13Z</time></trkpt><trkpt lat="21.862535066590706" lon="-102.51048725288436"><ele>1980.5</ele><time>2026-03-22T13:52:14Z</time></trkpt><trkpt lat="21.86247640915639" lon="-102.51060041129865"><ele>1981.0</ele><time>2026-03-22T13:52:15Z</time></trkpt><trkpt lat="21.862396884612206" lon="-102.51071280910827"><ele>1981.5</ele><time>2026-03-22T13:52:16Z</time></trkpt><trkpt lat="21.86235323630016" lon="-102.51083595114181"><ele>1982.0</ele><time>2026-03-22T13:52:17Z</time></trkpt><trkpt lat="21.862298886919643" lon="-102.51094628789183"><ele>1982.0</ele><time>2026-03-22T13:52:18Z</time></trkpt><trkpt lat="21.8622416453604" lon="-102.51106361044036"><ele>1982.0</ele><time>2026-03-22T13:52:19Z</time></trkpt><trkpt lat="21.862184357853806" lon="-102.51115433314826"><ele>1982.0</ele><time>2026-03-22T13:52:20Z</time></trkpt><trkpt lat="21.862138355100512" lon="-102.51126350462953"><ele>1982.0</ele><time>2026-03-22T13:52:21Z</time></trkpt><trkpt lat="21.862082560735544" lon="-102.51140014376801"><ele>1981.0</ele><time>2026-03-22T13:52:22Z</time></trkpt><trkpt lat="21.862019711017055" lon="-102.51153000558025"><ele>1980.0</ele><time>2026-03-22T13:52:23Z</time></trkpt><trkpt lat="21.86196949008582" lon="-102.51166144444522"><ele>1979.0</ele><time>2026-03-22T13:52:24Z</time></trkpt><trkpt lat="21.86190757386428" lon="-102.51178045030362"><ele>1978.0</ele><time>2026-03-22T13:52:25Z</time></trkpt><trkpt lat="21.861849116799466" lon="-102.51189340687083"><ele>1978.0</ele><time>2026-03-22T13:52:26Z</time></trkpt><trkpt lat="21.861788505298218" lon="-102.51201136386851"><ele>1978.0</ele><time>2026-03-22T13:52:27Z</time></trkpt><trkpt lat="21.861729362811626" lon="-102.51212646192684"><ele>1978.0</ele><time>2026-03-22T13:52:28Z</time></trkpt><trkpt lat="21.861667333729805" lon="-102.51224732178902"><ele>1978.0</ele><time>2026-03-22T13:52:29Z</time></trkpt><trkpt lat="21.86160523861565" lon="-102.51236881726487"><ele>1978.25</ele><time>2026-03-22T13:52:30Z</time></trkpt><trkpt lat="21.861558012964174" lon="-102.51249699570661"><ele>1978.5</ele><time>2026-03-22T13:52:31Z</time></trkpt><trkpt lat="21.86149074602703" lon="-102.51262977316878"><ele>1978.75</ele><time>2026-03-22T13:52:32Z</time></trkpt><trkpt lat="21.861425936019174" lon="-102.51275490283473"><ele>1979.0</ele><time>2026-03-22T13:52:33Z</time></trkpt><trkpt lat="21.861357785188613" lon="-102.51288113673928"><ele>1977.3333333333333</ele><time>2026-03-22T13:52:34Z</time></trkpt><trkpt lat="21.861283031161427" lon="-102.51302193399546"><ele>1975.6666666666665</ele><time>2026-03-22T13:52:35Z</time></trkpt><trkpt lat="21.86120403121362" lon="-102.51318145220415"><ele>1974.0</ele><time>2026-03-22T13:52:36Z</time></trkpt><trkpt lat="21.861139077510273" lon="-102.51332208357593"><ele>1974.0</ele><time>2026-03-22T13:52:37Z</time></trkpt><trkpt lat="21.861062423230663" lon="-102.51345776213873"><ele>1974.0</ele><time>2026-03-22T13:52:38Z</time></trkpt><trkpt lat="21.860992680171734" lon="-102.5136043787257"><ele>1974.0</ele><time>2026-03-22T13:52:39Z</time></trkpt><trkpt lat="21.860924177905737" lon="-102.51374295189153"><ele>1974.0</ele><time>2026-03-22T13:52:40Z</time></trkpt><trkpt lat="21.860823710687622" lon="-102.51386710476602"><ele>1972.25</ele><time>2026-03-22T13:52:41Z</time></trkpt><trkpt lat="21.86075598343153" lon="-102.51400412527435"><ele>1970.5</ele><time>2026-03-22T13:52:42Z</time></trkpt><trkpt lat="21.860648486767566" lon="-102.51411198694764"><ele>1968.75</ele><time>2026-03-22T13:52:43Z</time></trkpt><trkpt lat="21.860577723211126" lon="-102.51423158859807"><ele>1967.0</ele><time>2026-03-22T13:52:44Z</time></trkpt><trkpt lat="21.86049607886825" lon="-102.51434608041988"><ele>1967.0</ele><time>2026-03-22T13:52:45Z</time></trkpt><trkpt lat="21.860394751084726" lon="-102.51443250239352"><ele>1967.0</ele><time>2026-03-22T13:52:46Z</time></trkpt><trkpt lat="21.86028459022548" lon="-102.51454458829403"><ele>1967.0</ele><time>2026-03-22T13:52:47Z</time></trkpt><trkpt lat="21.860188955444986" lon="-102.51463848716219"><ele>1967.0</ele><time>2026-03-22T13:52:48Z</time></trkpt><trkpt lat="21.86007994835956" lon="-102.5147458221508"><ele>1965.5</ele><time>2026-03-22T13:52:49Z</time></trkpt><trkpt lat="21.859981076331007" lon="-102.51484161549227"><ele>1964.0</ele><time>2026-03-22T13:52:50Z</time></trkpt><trkpt lat="21.8598813617368" lon="-102.5149349317204"><ele>1962.5</ele><time>2026-03-22T13:52:51Z</time></trkpt><trkpt lat="21.859780480936376" lon="-102.51502869770384"><ele>1961.0</ele><time>2026-03-22T13:52:52Z</time></trkpt><trkpt lat="21.8596777737729" lon="-102.51514267377439"><ele>1961.0</ele><time>2026-03-22T13:52:53Z</time></trkpt><trkpt lat="21.859550000045253" lon="-102.51520182545165"><ele>1961.0</ele><time>2026-03-22T13:52:54Z</time></trkpt><trkpt lat="21.859474295541155" lon="-102.51529521614266"><ele>1961.0</ele><time>2026-03-22T13:52:55Z</time></trkpt><trkpt lat="21.85937080147001" lon="-102.51539395159443"><ele>1961.0</ele><time>2026-03-22T13:52:56Z</time></trkpt><trkpt lat="21.859292158857357" lon="-102.51547996990715"><ele>1960.25</ele><time>2026-03-22T13:52:57Z</time></trkpt><trkpt lat="21.859198482083134" lon="-102.51558300940322"><ele>1959.5</ele><time>2026-03-22T13:52:58Z</time></trkpt><trkpt lat="21.859117278497262" lon="-102.5156688145513"><ele>1958.75</ele><time>2026-03-22T13:52:59Z</time></trkpt><trkpt lat="21.85900896453876" lon="-102.51578011590013"><ele>1958.0</ele><time>2026-03-22T13:53:00Z</time></trkpt><trkpt lat="21.858908772930512" lon="-102.51588020442311"><ele>1958.0</ele><time>2026-03-22T13:53:01Z</time></trkpt><trkpt lat="21.85881440992764" lon="-102.51596453851693"><ele>1958.0</ele><time>2026-03-22T13:53:02Z</time></trkpt><trkpt lat="21.858709366334754" lon="-102.51605657005446"><ele>1958.0</ele><time>2026-03-22T13:53:03Z</time></trkpt><trkpt lat="21.85860921649068" lon="-102.51614805337796"><ele>1958.0</ele><time>2026-03-22T13:53:04Z</time></trkpt><trkpt lat="21.858542094365376" lon="-102.51624656424356"><ele>1957.5</ele><time>2026-03-22T13:53:05Z</time></trkpt><trkpt lat="21.858456473863377" lon="-102.51635999350133"><ele>1957.0</ele><time>2026-03-22T13:53:06Z</time></trkpt><trkpt lat="21.858370488969168" lon="-102.51645651630407"><ele>1956.5</ele><time>2026-03-22T13:53:07Z</time></trkpt><trkpt lat="21.85829669502319" lon="-102.51655490825736"><ele>1956.0</ele><time>2026-03-22T13:53:08Z</time></trkpt><trkpt lat="21.858219227055592" lon="-102.51666613954082"><ele>1956.0</ele><time>2026-03-22T13:53:09Z</time></trkpt><trkpt lat="21.85814308262433" lon="-102.5167897016605"><ele>1956.0</ele><time>2026-03-22T13:53:10Z</time></trkpt><trkpt lat="21.858076960971648" lon="-102.51690088774069"><ele>1956.0</ele><time>2026-03-22T13:53:11Z</time></trkpt><trkpt lat="21.85802484800909" lon="-102.51699368023785"><ele>1956.0</ele><time>2026-03-22T13:53:12Z</time></trkpt><trkpt lat="21.85797152108776" lon="-102.51713035036781"><ele>1955.0</ele><time>2026-03-22T13:53:13Z</time></trkpt><trkpt lat="21.857899421364465" lon="-102.51724361575698"><ele>1954.0</ele><time>2026-03-22T13:53:14Z</time></trkpt><trkpt lat="21.857838266147148" lon="-102.5173614397298"><ele>1953.0</ele><time>2026-03-22T13:53:15Z</time></trkpt><trkpt lat="21.8577798935" lon="-102.51749900156425"><ele>1952.0</ele><time>2026-03-22T13:53:16Z</time></trkpt><trkpt lat="21.857727371059074" lon="-102.5176341242018"><ele>1952.0</ele><time>2026-03-22T13:53:17Z</time></trkpt><trkpt lat="21.8577023581843" lon="-102.51778955142981"><ele>1952.0</ele><time>2026-03-22T13:53:18Z</time></trkpt><trkpt lat="21.85767266020051" lon="-102.51791697791842"><ele>1952.0</ele><time>2026-03-22T13:53:19Z</time></trkpt><trkpt lat="21.857636510496302" lon="-102.51807334776666"><ele>1952.0</ele><time>2026-03-22T13:53:20Z</time></trkpt><trkpt lat="21.857601293560915" lon="-102.51823355910943"><ele>1950.3333333333333</ele><time>2026-03-22T13:53:21Z</time></trkpt><trkpt lat="21.857567976322986" lon="-102.51839641788487"><ele>1948.6666666666665</ele><time>2026-03-22T13:53:22Z</time></trkpt><trkpt lat="21.857536810636585" lon="-102.5185468159414"><ele>1947.0</ele><time>2026-03-22T13:53:23Z</time></trkpt><trkpt lat="21.85750148501215" lon="-102.51871605271613"><ele>1945.3333333333335</ele><time>2026-03-22T13:53:24Z</time></trkpt><trkpt lat="21.857466558291186" lon="-102.51886821599099"><ele>1943.6666666666667</ele><time>2026-03-22T13:53:25Z</time></trkpt><trkpt lat="21.857431973365316" lon="-102.51904796562192"><ele>1942.0</ele><time>2026-03-22T13:53:26Z</time></trkpt><trkpt lat="21.85739730105722" lon="-102.51921344615471"><ele>1942.0</ele><time>2026-03-22T13:53:27Z</time></trkpt><trkpt lat="21.857360062737843" lon="-102.51940284889324"><ele>1942.0</ele><time>2026-03-22T13:53:28Z</time></trkpt><trkpt lat="21.857326129716473" lon="-102.51957262315103"><ele>1942.0</ele><time>2026-03-22T13:53:29Z</time></trkpt><trkpt lat="21.85729023015408" lon="-102.5197394036812"><ele>1940.0</ele><time>2026-03-22T13:53:30Z</time></trkpt><trkpt lat="21.857251655891204" lon="-102.5199157976917"><ele>1938.0</ele><time>2026-03-22T13:53:31Z</time></trkpt><trkpt lat="21.856990940239502" lon="-102.51993305503876"><ele>1936.0</ele><time>2026-03-22T13:53:32Z</time></trkpt><trkpt lat="21.856974794178853" lon="-102.52009388593763"><ele>1936.0</ele><time>2026-03-22T13:53:33Z</time></trkpt><trkpt lat="21.856949656028853" lon="-102.52026542955848"><ele>1936.0</ele><time>2026-03-22T13:53:34Z</time></trkpt><trkpt lat="21.856907838639906" lon="-102.52042792998506"><ele>1936.0</ele><time>2026-03-22T13:53:35Z</time></trkpt><trkpt lat="21.856870761891955" lon="-102.52059688136299"><ele>1933.6666666666667</ele><time>2026-03-22T13:53:36Z</time></trkpt><trkpt lat="21.856869025223016" lon="-102.52076626412317"><ele>1931.3333333333335</ele><time>2026-03-22T13:53:37Z</time></trkpt><trkpt lat="21.85686791719236" lon="-102.52093651944374"><ele>1929.0</ele><time>2026-03-22T13:53:38Z</time></trkpt><trkpt lat="21.856860984840296" lon="-102.52110313163425"><ele>1928.3333333333335</ele><time>2026-03-22T13:53:39Z</time></trkpt><trkpt lat="21.85682338259271" lon="-102.52125282617381"><ele>1927.6666666666667</ele><time>2026-03-22T13:53:40Z</time></trkpt><trkpt lat="21.85689963569293" lon="-102.52143205771053"><ele>1927.0</ele><time>2026-03-22T13:53:41Z</time></trkpt><trkpt lat="21.856869482033133" lon="-102.52157069162877"><ele>1927.0</ele><time>2026-03-22T13:53:42Z</time></trkpt><trkpt lat="21.856837125093957" lon="-102.52171986465305"><ele>1927.0</ele><time>2026-03-22T13:53:43Z</time></trkpt><trkpt lat="21.856800625655424" lon="-102.52187729409664"><ele>1927.0</ele><time>2026-03-22T13:53:44Z</time></trkpt><trkpt lat="21.856761464726166" lon="-102.52201534701807"><ele>1927.0</ele><time>2026-03-22T13:53:45Z</time></trkpt><trkpt lat="21.85672392869816" lon="-102.52214471935955"><ele>1926.75</ele><time>2026-03-22T13:53:46Z</time></trkpt><trkpt lat="21.856705995776654" lon="-102.52228981579667"><ele>1926.5</ele><time>2026-03-22T13:53:47Z</time></trkpt><trkpt lat="21.856679433022737" lon="-102.52241474992283"><ele>1926.25</ele><time>2026-03-22T13:53:48Z</time></trkpt><trkpt lat="21.856637982937453" lon="-102.5225286274326"><ele>1926.0</ele><time>2026-03-22T13:53:49Z</time></trkpt><trkpt lat="21.856614513249266" lon="-102.52265764426502"><ele>1926.0</ele><time>2026-03-22T13:53:50Z</time></trkpt><trkpt lat="21.856614530617108" lon="-102.52280047260437"><ele>1926.0</ele><time>2026-03-22T13:53:51Z</time></trkpt><trkpt lat="21.856586617065766" lon="-102.52292698183747"><ele>1926.0</ele><time>2026-03-22T13:53:52Z</time></trkpt><trkpt lat="21.8565593528531" lon="-102.52305327321243"><ele>1926.0</ele><time>2026-03-22T13:53:53Z</time></trkpt><trkpt lat="21.856529396593434" lon="-102.52319203459669"><ele>1925.8</ele><time>2026-03-22T13:53:54Z</time></trkpt><trkpt lat="21.856507615405718" lon="-102.52329292793627"><ele>1925.6</ele><time>2026-03-22T13:53:55Z</time></trkpt><trkpt lat="21.856484611683424" lon="-102.52339669119783"><ele>1925.4</ele><time>2026-03-22T13:53:56Z</time></trkpt><trkpt lat="21.856459356455467" lon="-102.52351246908857"><ele>1925.2</ele><time>2026-03-22T13:53:57Z</time></trkpt><trkpt lat="21.85643421565008" lon="-102.52362863577147"><ele>1925.0</ele><time>2026-03-22T13:53:58Z</time></trkpt><trkpt lat="21.856408657719435" lon="-102.5237467299323"><ele>1924.4</ele><time>2026-03-22T13:53:59Z</time></trkpt><trkpt lat="21.856388466447555" lon="-102.52383678096898"><ele>1923.8</ele><time>2026-03-22T13:54:00Z</time></trkpt><trkpt lat="21.856363046367814" lon="-102.52394885812785"><ele>1923.1999999999998</ele><time>2026-03-22T13:54:01Z</time></trkpt><trkpt lat="21.856337976589018" lon="-102.52406399203448"><ele>1922.6</ele><time>2026-03-22T13:54:02Z</time></trkpt><trkpt lat="21.856322351454647" lon="-102.52420422279498"><ele>1922.0</ele><time>2026-03-22T13:54:03Z</time></trkpt><trkpt lat="21.856272482134887" lon="-102.52435629524072"><ele>1922.0</ele><time>2026-03-22T13:54:04Z</time></trkpt><trkpt lat="21.85623440429136" lon="-102.5244833547746"><ele>1922.0</ele><time>2026-03-22T13:54:05Z</time></trkpt><trkpt lat="21.8561942392693" lon="-102.52462661005919"><ele>1922.0</ele><time>2026-03-22T13:54:06Z</time></trkpt><trkpt lat="21.85617405973629" lon="-102.52476819327215"><ele>1922.0</ele><time>2026-03-22T13:54:07Z</time></trkpt><trkpt lat="21.85614115380647" lon="-102.52491510102763"><ele>1921.5</ele><time>2026-03-22T13:54:08Z</time></trkpt><trkpt lat="21.856109909741154" lon="-102.52505440117012"><ele>1921.0</ele><time>2026-03-22T13:54:09Z</time></trkpt><trkpt lat="21.856074987984574" lon="-102.52521124635548"><ele>1920.5</ele><time>2026-03-22T13:54:10Z</time></trkpt><trkpt lat="21.856043365754733" lon="-102.5253544257092"><ele>1920.0</ele><time>2026-03-22T13:54:11Z</time></trkpt><trkpt lat="21.85601338866996" lon="-102.5254889059218"><ele>1920.0</ele><time>2026-03-22T13:54:12Z</time></trkpt><trkpt lat="21.855968352918616" lon="-102.52562601074601"><ele>1920.0</ele><time>2026-03-22T13:54:13Z</time></trkpt><trkpt lat="21.8559442497257" lon="-102.52574620262311"><ele>1920.0</ele><time>2026-03-22T13:54:14Z</time></trkpt><trkpt lat="21.855912952903264" lon="-102.52588911468838"><ele>1920.0</ele><time>2026-03-22T13:54:15Z</time></trkpt><trkpt lat="21.855885625067547" lon="-102.52602862973058"><ele>1920.0</ele><time>2026-03-22T13:54:16Z</time></trkpt><trkpt lat="21.855852460710313" lon="-102.52617355997485"><ele>1920.0</ele><time>2026-03-22T13:54:17Z</time></trkpt><trkpt lat="21.855837580161328" lon="-102.52630243919243"><ele>1920.0</ele><time>2026-03-22T13:54:18Z</time></trkpt><trkpt lat="21.855794999606026" lon="-102.52641635033767"><ele>1920.0</ele><time>2026-03-22T13:54:19Z</time></trkpt><trkpt lat="21.855761067912013" lon="-102.52656817972955"><ele>1919.5</ele><time>2026-03-22T13:54:20Z</time></trkpt><trkpt lat="21.855750341061984" lon="-102.52670035160719"><ele>1919.0</ele><time>2026-03-22T13:54:21Z</time></trkpt><trkpt lat="21.855683965647568" lon="-102.52686217036323"><ele>1918.5</ele><time>2026-03-22T13:54:22Z</time></trkpt><trkpt lat="21.855639896324504" lon="-102.52698630459463"><ele>1918.0</ele><time>2026-03-22T13:54:23Z</time></trkpt><trkpt lat="21.85561811062616" lon="-102.52710743730321"><ele>1917.5</ele><time>2026-03-22T13:54:24Z</time></trkpt><trkpt lat="21.855570249722888" lon="-102.52722461515533"><ele>1917.0</ele><time>2026-03-22T13:54:25Z</time></trkpt><trkpt lat="21.855507454012727" lon="-102.52732961722694"><ele>1916.5</ele><time>2026-03-22T13:54:26Z</time></trkpt><trkpt lat="21.855660226760993" lon="-102.5274781273932"><ele>1916.0</ele><time>2026-03-22T13:54:27Z</time></trkpt><trkpt lat="21.85564969614202" lon="-102.52761195132068"><ele>1916.0</ele><time>2026-03-22T13:54:28Z</time></trkpt><trkpt lat="21.855645306758827" lon="-102.52771556552389"><ele>1916.0</ele><time>2026-03-22T13:54:29Z</time></trkpt><trkpt lat="21.855635678243143" lon="-102.5278642722973"><ele>1916.0</ele><time>2026-03-22T13:54:31Z</time></trkpt><trkpt lat="21.855631518500186" lon="-102.52796440054588"><ele>1916.0</ele><time>2026-03-22T13:54:32Z</time></trkpt><trkpt lat="21.85501161550655" lon="-102.52803552034553"><ele>1915.5</ele><time>2026-03-22T13:54:33Z</time></trkpt><trkpt lat="21.854782799116727" lon="-102.52806890908634"><ele>1915.0</ele><time>2026-03-22T13:54:34Z</time></trkpt><trkpt lat="21.854705276150767" lon="-102.52814915270004"><ele>1914.5</ele><time>2026-03-22T13:54:35Z</time></trkpt><trkpt lat="21.854623066573232" lon="-102.52821344386602"><ele>1914.0</ele><time>2026-03-22T13:54:36Z</time></trkpt><trkpt lat="21.854562132107812" lon="-102.52828872225705"><ele>1914.0</ele><time>2026-03-22T13:54:37Z</time></trkpt><trkpt lat="21.85449412358369" lon="-102.5283704235344"><ele>1914.0</ele><time>2026-03-22T13:54:38Z</time></trkpt><trkpt lat="21.854409250675353" lon="-102.52843300200549"><ele>1914.0</ele><time>2026-03-22T13:54:39Z</time></trkpt><trkpt lat="21.854304071444904" lon="-102.5284642857807"><ele>1914.0</ele><time>2026-03-22T13:54:40Z</time></trkpt><trkpt lat="21.85419596817473" lon="-102.52848191848508"><ele>1914.0</ele><time>2026-03-22T13:54:41Z</time></trkpt><trkpt lat="21.853976656528776" lon="-102.52843798239246"><ele>1913.5</ele><time>2026-03-22T13:54:42Z</time></trkpt><trkpt lat="21.853895593375288" lon="-102.52840936713154"><ele>1913.0</ele><time>2026-03-22T13:54:43Z</time></trkpt><trkpt lat="21.853771179536594" lon="-102.52847187501763"><ele>1912.5</ele><time>2026-03-22T13:54:44Z</time></trkpt><trkpt lat="21.853646885076177" lon="-102.52848247005852"><ele>1912.0</ele><time>2026-03-22T13:54:45Z</time></trkpt><trkpt lat="21.853458280488734" lon="-102.52831550391353"><ele>1912.1999999999998</ele><time>2026-03-22T13:54:46Z</time></trkpt><trkpt lat="21.853383323551867" lon="-102.52834597086559"><ele>1912.3999999999999</ele><time>2026-03-22T13:54:47Z</time></trkpt><trkpt lat="21.85328639945471" lon="-102.52839388409024"><ele>1912.6000000000001</ele><time>2026-03-22T13:54:48Z</time></trkpt><trkpt lat="21.85321399505507" lon="-102.52841332544274"><ele>1912.8000000000002</ele><time>2026-03-22T13:54:49Z</time></trkpt><trkpt lat="21.853118840495167" lon="-102.5284438695271"><ele>1913.0</ele><time>2026-03-22T13:54:50Z</time></trkpt><trkpt lat="21.853000747510357" lon="-102.52848461140519"><ele>1913.0</ele><time>2026-03-22T13:54:51Z</time></trkpt><trkpt lat="21.852925571269793" lon="-102.52851921994781"><ele>1913.0</ele><time>2026-03-22T13:54:52Z</time></trkpt><trkpt lat="21.85284603875163" lon="-102.52856096428944"><ele>1913.0</ele><time>2026-03-22T13:54:53Z</time></trkpt><trkpt lat="21.85271964517864" lon="-102.52861589998678"><ele>1913.0</ele><time>2026-03-22T13:54:54Z</time></trkpt><trkpt lat="21.852545392491066" lon="-102.52868514554989"><ele>1912.25</ele><time>2026-03-22T13:54:55Z</time></trkpt><trkpt lat="21.85244729682146" lon="-102.5287429931056"><ele>1911.5</ele><time>2026-03-22T13:54:56Z</time></trkpt><trkpt lat="21.852316419343616" lon="-102.52877613700402"><ele>1910.75</ele><time>2026-03-22T13:54:58Z</time></trkpt><trkpt lat="21.852188675807426" lon="-102.52885535612313"><ele>1910.0</ele><time>2026-03-22T13:54:59Z</time></trkpt><trkpt lat="21.85209321973154" lon="-102.52889512790435"><ele>1910.0</ele><time>2026-03-22T13:55:00Z</time></trkpt><trkpt lat="21.851982614638782" lon="-102.52894532350858"><ele>1910.0</ele><time>2026-03-22T13:55:01Z</time></trkpt><trkpt lat="21.85187663682169" lon="-102.52899215560748"><ele>1910.0</ele><time>2026-03-22T13:55:02Z</time></trkpt><trkpt lat="21.851729267089947" lon="-102.52904005959269"><ele>1910.0</ele><time>2026-03-22T13:55:03Z</time></trkpt><trkpt lat="21.85163571510195" lon="-102.52907623028618"><ele>1909.75</ele><time>2026-03-22T13:55:04Z</time></trkpt><trkpt lat="21.85154274473126" lon="-102.52910871747135"><ele>1909.5</ele><time>2026-03-22T13:55:05Z</time></trkpt><trkpt lat="21.85143640707379" lon="-102.5291629710378"><ele>1909.25</ele><time>2026-03-22T13:55:06Z</time></trkpt><trkpt lat="21.851332189535654" lon="-102.52921672475517"><ele>1909.0</ele><time>2026-03-22T13:55:07Z</time></trkpt><trkpt lat="21.851206641174503" lon="-102.52926106574398"><ele>1909.0</ele><time>2026-03-22T13:55:08Z</time></trkpt><trkpt lat="21.851089240460105" lon="-102.52928243636043"><ele>1909.0</ele><time>2026-03-22T13:55:09Z</time></trkpt><trkpt lat="21.85099070538453" lon="-102.5293279854533"><ele>1909.0</ele><time>2026-03-22T13:55:10Z</time></trkpt><trkpt lat="21.850907345023874" lon="-102.52939142685732"><ele>1909.0</ele><time>2026-03-22T13:55:11Z</time></trkpt><trkpt lat="21.850773821476906" lon="-102.52943546216676"><ele>1908.75</ele><time>2026-03-22T13:55:12Z</time></trkpt><trkpt lat="21.85067143558173" lon="-102.52948729695919"><ele>1908.5</ele><time>2026-03-22T13:55:13Z</time></trkpt><trkpt lat="21.85059796683615" lon="-102.52956135198528"><ele>1908.25</ele><time>2026-03-22T13:55:14Z</time></trkpt><trkpt lat="21.850456400890426" lon="-102.52963026589991"><ele>1908.0</ele><time>2026-03-22T13:55:15Z</time></trkpt><trkpt lat="21.850396738810826" lon="-102.52970939693424"><ele>1908.0</ele><time>2026-03-22T13:55:16Z</time></trkpt><trkpt lat="21.850287397302605" lon="-102.52973417865495"><ele>1908.0000000000002</ele><time>2026-03-22T13:55:17Z</time></trkpt><trkpt lat="21.85022206195633" lon="-102.52978861878498"><ele>1908.0000000000002</ele><time>2026-03-22T13:55:18Z</time></trkpt><trkpt lat="21.850142318119715" lon="-102.52980274274024"><ele>1908.0</ele><time>2026-03-22T13:55:19Z</time></trkpt><trkpt lat="21.85006532085145" lon="-102.52979138958567"><ele>1908.0</ele><time>2026-03-22T13:55:20Z</time></trkpt><trkpt lat="21.84997060298133" lon="-102.5298155421612"><ele>1908.4</ele><time>2026-03-22T13:55:21Z</time></trkpt><trkpt lat="21.849854071243044" lon="-102.52980695792766"><ele>1908.8000000000002</ele><time>2026-03-22T13:55:23Z</time></trkpt><trkpt lat="21.849779404655163" lon="-102.52982966331597"><ele>1909.2</ele><time>2026-03-22T13:55:24Z</time></trkpt><trkpt lat="21.849644449182048" lon="-102.52990086404749"><ele>1909.6</ele><time>2026-03-22T13:55:25Z</time></trkpt><trkpt lat="21.849569599298857" lon="-102.52994083753445"><ele>1910.0</ele><time>2026-03-22T13:55:26Z</time></trkpt><trkpt lat="21.849458555650997" lon="-102.52995276916609"><ele>1910.0</ele><time>2026-03-22T13:55:27Z</time></trkpt><trkpt lat="21.849343760669043" lon="-102.52999413557352"><ele>1910.0</ele><time>2026-03-22T13:55:28Z</time></trkpt><trkpt lat="21.849249232571324" lon="-102.53000945569224"><ele>1910.0</ele><time>2026-03-22T13:55:29Z</time></trkpt><trkpt lat="21.849122396406408" lon="-102.53012841868637"><ele>1910.0</ele><time>2026-03-22T13:55:30Z</time></trkpt><trkpt lat="21.8490482278846" lon="-102.53007976495061"><ele>1909.8333333333333</ele><time>2026-03-22T13:55:31Z</time></trkpt><trkpt lat="21.848945160298996" lon="-102.53009317600191"><ele>1909.6666666666665</ele><time>2026-03-22T13:55:32Z</time></trkpt><trkpt lat="21.84892181014521" lon="-102.53017895921086"><ele>1909.5</ele><time>2026-03-22T13:55:33Z</time></trkpt><trkpt lat="21.84885277329068" lon="-102.53024068209423"><ele>1909.3333333333335</ele><time>2026-03-22T13:55:34Z</time></trkpt><trkpt lat="21.84877462196342" lon="-102.53023275969451"><ele>1909.1666666666667</ele><time>2026-03-22T13:55:35Z</time></trkpt><trkpt lat="21.848687733075742" lon="-102.5302712832033"><ele>1909.0</ele><time>2026-03-22T13:55:36Z</time></trkpt><trkpt lat="21.848606109821045" lon="-102.5303457102256"><ele>1909.0</ele><time>2026-03-22T13:55:37Z</time></trkpt><trkpt lat="21.848515787021636" lon="-102.5303552381274"><ele>1909.0</ele><time>2026-03-22T13:55:38Z</time></trkpt><trkpt lat="21.84842345934085" lon="-102.53038107909586"><ele>1909.0</ele><time>2026-03-22T13:55:39Z</time></trkpt><trkpt lat="21.848339320142873" lon="-102.53049122101342"><ele>1909.0</ele><time>2026-03-22T13:55:40Z</time></trkpt><trkpt lat="21.848245670077056" lon="-102.53053940835592"><ele>1909.0</ele><time>2026-03-22T13:55:41Z</time></trkpt><trkpt lat="21.848143696781108" lon="-102.53056039107078"><ele>1909.6666666666667</ele><time>2026-03-22T13:55:42Z</time></trkpt><trkpt lat="21.848037307338643" lon="-102.53054114624523"><ele>1910.3333333333335</ele><time>2026-03-22T13:55:43Z</time></trkpt><trkpt lat="21.848012203435133" lon="-102.53064374069122"><ele>1911.0</ele><time>2026-03-22T13:55:45Z</time></trkpt><trkpt lat="21.847943844511015" lon="-102.53067534766846"><ele>1911.6666666666665</ele><time>2026-03-22T13:55:46Z</time></trkpt><trkpt lat="21.847859206738082" lon="-102.5307160469324"><ele>1912.3333333333333</ele><time>2026-03-22T13:55:47Z</time></trkpt><trkpt lat="21.847795522650028" lon="-102.53075983114681"><ele>1913.0</ele><time>2026-03-22T13:55:48Z</time></trkpt><trkpt lat="21.847710641783028" lon="-102.53079758172498"><ele>1913.0</ele><time>2026-03-22T13:55:49Z</time></trkpt><trkpt lat="21.847634039233306" lon="-102.53083361650275"><ele>1913.0000000000002</ele><time>2026-03-22T13:55:50Z</time></trkpt><trkpt lat="21.847563087887128" lon="-102.53085757699525"><ele>1913.0000000000002</ele><time>2026-03-22T13:55:51Z</time></trkpt><trkpt lat="21.8474381156764" lon="-102.53093924989962"><ele>1913.0</ele><time>2026-03-22T13:55:53Z</time></trkpt><trkpt lat="21.84748888804769" lon="-102.53100649144052"><ele>1913.0</ele><time>2026-03-22T13:55:54Z</time></trkpt><trkpt lat="21.847563825735737" lon="-102.53120517596902"><ele>1914.0</ele><time>2026-03-22T13:55:55Z</time></trkpt><trkpt lat="21.84745478129942" lon="-102.53120900388846"><ele>1915.0</ele><time>2026-03-22T13:55:56Z</time></trkpt><trkpt lat="21.847422599123313" lon="-102.5312673487778"><ele>1916.0</ele><time>2026-03-22T13:55:57Z</time></trkpt><trkpt lat="21.84722178968582" lon="-102.53130766823236"><ele>1917.0</ele><time>2026-03-22T13:55:59Z</time></trkpt><trkpt lat="21.847181383653478" lon="-102.53137934558589"><ele>1917.0</ele><time>2026-03-22T13:56:01Z</time></trkpt><trkpt lat="21.847512018063227" lon="-102.53134477431684"><ele>1917.0</ele><time>2026-03-22T13:56:02Z</time></trkpt><trkpt lat="21.847592002598443" lon="-102.53139280805158"><ele>1917.0</ele><time>2026-03-22T13:56:04Z</time></trkpt><trkpt lat="21.84758448777355" lon="-102.53146679879995"><ele>1917.0</ele><time>2026-03-22T13:56:07Z</time></trkpt><trkpt lat="21.847485369759333" lon="-102.53156540609575"><ele>1917.0</ele><time>2026-03-22T13:56:10Z</time></trkpt><trkpt lat="21.84744204639871" lon="-102.5316594754419"><ele>1917.0</ele><time>2026-03-22T13:56:12Z</time></trkpt><trkpt lat="21.847389581702963" lon="-102.53177439080642"><ele>1917.0</ele><time>2026-03-22T13:56:14Z</time></trkpt><trkpt lat="21.847288941927566" lon="-102.53195392066927"><ele>1917.0</ele><time>2026-03-22T13:56:16Z</time></trkpt><trkpt lat="21.84722603659708" lon="-102.5320553499753"><ele>1916.9999999999998</ele><time>2026-03-22T13:56:18Z</time></trkpt><trkpt lat="21.847185115844947" lon="-102.53212077677094"><ele>1916.9999999999998</ele><time>2026-03-22T13:56:19Z</time></trkpt><trkpt lat="21.84712553686871" lon="-102.532179878784"><ele>1917.0</ele><time>2026-03-22T13:56:20Z</time></trkpt><trkpt lat="21.847080513404034" lon="-102.53225096758442"><ele>1917.0</ele><time>2026-03-22T13:56:21Z</time></trkpt><trkpt lat="21.846978000704517" lon="-102.53231725172112"><ele>1917.1999999999998</ele><time>2026-03-22T13:56:22Z</time></trkpt><trkpt lat="21.846873923883383" lon="-102.53242814762825"><ele>1917.3999999999999</ele><time>2026-03-22T13:56:24Z</time></trkpt><trkpt lat="21.846828652766245" lon="-102.53247915378554"><ele>1917.6000000000001</ele><time>2026-03-22T13:56:25Z</time></trkpt><trkpt lat="21.846786699332966" lon="-102.53241425008613"><ele>1917.8000000000002</ele><time>2026-03-22T13:56:27Z</time></trkpt><trkpt lat="21.846711302374565" lon="-102.53237915524008"><ele>1918.0</ele><time>2026-03-22T13:56:28Z</time></trkpt><trkpt lat="21.846627666081027" lon="-102.53240547331508"><ele>1918.6000000000001</ele><time>2026-03-22T13:56:31Z</time></trkpt><trkpt lat="21.846509518345837" lon="-102.53239104899814"><ele>1919.2000000000003</ele><time>2026-03-22T13:56:32Z</time></trkpt><trkpt lat="21.846441144106425" lon="-102.5324313490638"><ele>1919.8</ele><time>2026-03-22T13:56:34Z</time></trkpt><trkpt lat="21.84646485059276" lon="-102.53251141464534"><ele>1920.4</ele><time>2026-03-22T13:56:37Z</time></trkpt><trkpt lat="21.84636831026498" lon="-102.53249488279775"><ele>1921.0</ele><time>2026-03-22T13:56:38Z</time></trkpt><trkpt lat="21.846209941828732" lon="-102.5324769891636"><ele>1921.0</ele><time>2026-03-22T13:56:40Z</time></trkpt><trkpt lat="21.846017323987947" lon="-102.53245644795585"><ele>1921.0</ele><time>2026-03-22T13:56:41Z</time></trkpt><trkpt lat="21.84582963061491" lon="-102.53237669497678"><ele>1921.0</ele><time>2026-03-22T13:56:42Z</time></trkpt><trkpt lat="21.845751575897086" lon="-102.5323628922666"><ele>1921.0</ele><time>2026-03-22T13:56:43Z</time></trkpt><trkpt lat="21.84568378117673" lon="-102.53237269569185"><ele>1921.0</ele><time>2026-03-22T13:56:44Z</time></trkpt><trkpt lat="21.84568865098679" lon="-102.53251304596503"><ele>1921.0</ele><time>2026-03-22T13:56:45Z</time></trkpt><trkpt lat="21.845628474521842" lon="-102.53253479726429"><ele>1921.0</ele><time>2026-03-22T13:56:46Z</time></trkpt><trkpt lat="21.845547596759502" lon="-102.53255372637395"><ele>1921.0</ele><time>2026-03-22T13:56:47Z</time></trkpt><trkpt lat="21.84544391212653" lon="-102.53257691457775"><ele>1921.0</ele><time>2026-03-22T13:56:48Z</time></trkpt><trkpt lat="21.845376749228063" lon="-102.53258347477362"><ele>1921.0</ele><time>2026-03-22T13:56:49Z</time></trkpt><trkpt lat="21.845288480526445" lon="-102.53258112424611"><ele>1921.0</ele><time>2026-03-22T13:56:50Z</time></trkpt><trkpt lat="21.845185326266684" lon="-102.53260527014109"><ele>1921.0</ele><time>2026-03-22T13:56:51Z</time></trkpt><trkpt lat="21.845106080483372" lon="-102.53263252806126"><ele>1921.0</ele><time>2026-03-22T13:56:52Z</time></trkpt><trkpt lat="21.845007963918928" lon="-102.53269056851227"><ele>1921.0</ele><time>2026-03-22T13:56:53Z</time></trkpt><trkpt lat="21.844934602064363" lon="-102.53266007259448"><ele>1921.0</ele><time>2026-03-22T13:56:54Z</time></trkpt><trkpt lat="21.844859726898488" lon="-102.53259503422647"><ele>1921.0</ele><time>2026-03-22T13:56:55Z</time></trkpt><trkpt lat="21.844791675839502" lon="-102.5325183608237"><ele>1921.0</ele><time>2026-03-22T13:56:56Z</time></trkpt><trkpt lat="21.844709382005625" lon="-102.53253576803185"><ele>1921.0</ele><time>2026-03-22T13:56:57Z</time></trkpt><trkpt lat="21.844774816869258" lon="-102.53227550463093"><ele>1921.0000000000002</ele><time>2026-03-22T13:56:58Z</time></trkpt><trkpt lat="21.84471075263812" lon="-102.53224203945523"><ele>1921.0</ele><time>2026-03-22T13:56:59Z</time></trkpt><trkpt lat="21.84461863648991" lon="-102.5322498874252"><ele>1921.0</ele><time>2026-03-22T13:57:00Z</time></trkpt><trkpt lat="21.844544116788068" lon="-102.53223483819944"><ele>1921.0</ele><time>2026-03-22T13:57:01Z</time></trkpt><trkpt lat="21.844474768220422" lon="-102.53221447802663"><ele>1921.0000000000002</ele><time>2026-03-22T13:57:02Z</time></trkpt><trkpt lat="21.844398046048514" lon="-102.53218297581348"><ele>1921.0</ele><time>2026-03-22T13:57:03Z</time></trkpt><trkpt lat="21.84430834858409" lon="-102.53217533349867"><ele>1920.6</ele><time>2026-03-22T13:57:04Z</time></trkpt><trkpt lat="21.8442162516809" lon="-102.53217343182409"><ele>1920.1999999999998</ele><time>2026-03-22T13:57:05Z</time></trkpt><trkpt lat="21.844123842479497" lon="-102.53217237341539"><ele>1919.8000000000002</ele><time>2026-03-22T13:57:06Z</time></trkpt><trkpt lat="21.84403376063033" lon="-102.53215760322435"><ele>1919.4</ele><time>2026-03-22T13:57:07Z</time></trkpt><trkpt lat="21.84394693120391" lon="-102.53215236964927"><ele>1919.0</ele><time>2026-03-22T13:57:08Z</time></trkpt><trkpt lat="21.84385669948745" lon="-102.5321661198073"><ele>1919.0</ele><time>2026-03-22T13:57:09Z</time></trkpt><trkpt lat="21.84371836354334" lon="-102.53214546874023"><ele>1919.0</ele><time>2026-03-22T13:57:10Z</time></trkpt><trkpt lat="21.84360096841493" lon="-102.53213688846982"><ele>1919.0</ele><time>2026-03-22T13:57:11Z</time></trkpt><trkpt lat="21.84350540665786" lon="-102.53216309402069"><ele>1919.0</ele><time>2026-03-22T13:57:12Z</time></trkpt><trkpt lat="21.84340403141462" lon="-102.53218212185548"><ele>1918.5</ele><time>2026-03-22T13:57:13Z</time></trkpt><trkpt lat="21.843245180007784" lon="-102.53221318293062"><ele>1918.0</ele><time>2026-03-22T13:57:15Z</time></trkpt><trkpt lat="21.843173463352095" lon="-102.5322490569454"><ele>1917.5</ele><time>2026-03-22T13:57:16Z</time></trkpt><trkpt lat="21.843066978976655" lon="-102.53231263812475"><ele>1917.0</ele><time>2026-03-22T13:57:17Z</time></trkpt><trkpt lat="21.842980416924433" lon="-102.53238378491378"><ele>1917.0</ele><time>2026-03-22T13:57:18Z</time></trkpt><trkpt lat="21.842886906549545" lon="-102.53237619387279"><ele>1916.9999999999998</ele><time>2026-03-22T13:57:19Z</time></trkpt><trkpt lat="21.842801228219944" lon="-102.53240602624327"><ele>1916.9999999999998</ele><time>2026-03-22T13:57:20Z</time></trkpt><trkpt lat="21.84270487956958" lon="-102.53243496769244"><ele>1917.0</ele><time>2026-03-22T13:57:21Z</time></trkpt><trkpt lat="21.842566440330188" lon="-102.53247758125656"><ele>1917.0</ele><time>2026-03-22T13:57:22Z</time></trkpt><trkpt lat="21.842505428166593" lon="-102.53253427452584"><ele>1917.0</ele><time>2026-03-22T13:57:23Z</time></trkpt><trkpt lat="21.84242078651212" lon="-102.53256389729766"><ele>1917.0</ele><time>2026-03-22T13:57:24Z</time></trkpt><trkpt lat="21.842294410696326" lon="-102.53267046978011"><ele>1917.0</ele><time>2026-03-22T13:57:25Z</time></trkpt><trkpt lat="21.84221519170958" lon="-102.5328550480636"><ele>1917.0</ele><time>2026-03-22T13:57:26Z</time></trkpt><trkpt lat="21.842166143634696" lon="-102.53302111040101"><ele>1917.0</ele><time>2026-03-22T13:57:27Z</time></trkpt><trkpt lat="21.84210896664266" lon="-102.53314755928294"><ele>1916.9999999999998</ele><time>2026-03-22T13:57:28Z</time></trkpt><trkpt lat="21.842049259805375" lon="-102.5332331652311"><ele>1916.9999999999998</ele><time>2026-03-22T13:57:29Z</time></trkpt><trkpt lat="21.84200487463455" lon="-102.53332600666377"><ele>1917.0</ele><time>2026-03-22T13:57:30Z</time></trkpt><trkpt lat="21.841906863187738" lon="-102.5333737141253"><ele>1917.0</ele><time>2026-03-22T13:57:31Z</time></trkpt><trkpt lat="21.841826952028217" lon="-102.53345945362874"><ele>1917.0</ele><time>2026-03-22T13:57:32Z</time></trkpt><trkpt lat="21.84175225794001" lon="-102.53352266916177"><ele>1916.9999999999998</ele><time>2026-03-22T13:57:33Z</time></trkpt><trkpt lat="21.841694823906412" lon="-102.53363541341636"><ele>1916.9999999999998</ele><time>2026-03-22T13:57:34Z</time></trkpt><trkpt lat="21.84162321596079" lon="-102.53370827434259"><ele>1917.0</ele><time>2026-03-22T13:57:35Z</time></trkpt><trkpt lat="21.841551220565538" lon="-102.533780241975"><ele>1917.0</ele><time>2026-03-22T13:57:36Z</time></trkpt><trkpt lat="21.84148194933241" lon="-102.53382152762069"><ele>1917.0</ele><time>2026-03-22T13:57:37Z</time></trkpt><trkpt lat="21.841418947199305" lon="-102.53389644299241"><ele>1916.9999999999998</ele><time>2026-03-22T13:57:38Z</time></trkpt><trkpt lat="21.84133419081973" lon="-102.53394804927213"><ele>1916.9999999999998</ele><time>2026-03-22T13:57:39Z</time></trkpt><trkpt lat="21.841332818459392" lon="-102.53407179757774"><ele>1917.0</ele><time>2026-03-22T13:57:40Z</time></trkpt><trkpt lat="21.841265050189225" lon="-102.53415169026069"><ele>1917.0</ele><time>2026-03-22T13:57:41Z</time></trkpt><trkpt lat="21.841196545236308" lon="-102.53421958810708"><ele>1917.0</ele><time>2026-03-22T13:57:42Z</time></trkpt><trkpt lat="21.84112253027415" lon="-102.53427718596474"><ele>1917.0</ele><time>2026-03-22T13:57:43Z</time></trkpt><trkpt lat="21.84109403813167" lon="-102.53435073091093"><ele>1917.0</ele><time>2026-03-22T13:57:44Z</time></trkpt><trkpt lat="21.84103392148019" lon="-102.53440784476057"><ele>1917.0</ele><time>2026-03-22T13:57:45Z</time></trkpt><trkpt lat="21.840959175872598" lon="-102.53446429051591"><ele>1917.0</ele><time>2026-03-22T13:57:46Z</time></trkpt><trkpt lat="21.840882835394204" lon="-102.53451274366739"><ele>1917.0</ele><time>2026-03-22T13:57:47Z</time></trkpt><trkpt lat="21.840819798131818" lon="-102.53457804271041"><ele>1917.5</ele><time>2026-03-22T13:57:48Z</time></trkpt><trkpt lat="21.840791681537482" lon="-102.53465085357435"><ele>1918.0</ele><time>2026-03-22T13:57:49Z</time></trkpt><trkpt lat="21.840745364360743" lon="-102.53472469375362"><ele>1918.5</ele><time>2026-03-22T13:57:50Z</time></trkpt><trkpt lat="21.840672791525584" lon="-102.53479150245731"><ele>1919.0</ele><time>2026-03-22T13:57:51Z</time></trkpt><trkpt lat="21.840587986928448" lon="-102.5348198809603"><ele>1919.5</ele><time>2026-03-22T13:57:52Z</time></trkpt><trkpt lat="21.840513352461404" lon="-102.53486220360207"><ele>1920.0</ele><time>2026-03-22T13:57:53Z</time></trkpt><trkpt lat="21.840445189173913" lon="-102.53490120770299"><ele>1920.0</ele><time>2026-03-22T13:57:54Z</time></trkpt><trkpt lat="21.840371112848935" lon="-102.5350280986529"><ele>1920.0</ele><time>2026-03-22T13:57:56Z</time></trkpt><trkpt lat="21.840272845720275" lon="-102.53509931950663"><ele>1920.0</ele><time>2026-03-22T13:57:57Z</time></trkpt><trkpt lat="21.840245933425383" lon="-102.5351717537484"><ele>1920.0</ele><time>2026-03-22T13:57:58Z</time></trkpt><trkpt lat="21.840261784136114" lon="-102.53530579960295"><ele>1919.8</ele><time>2026-03-22T13:57:59Z</time></trkpt><trkpt lat="21.840324054970235" lon="-102.53542902456162"><ele>1919.6</ele><time>2026-03-22T13:58:00Z</time></trkpt><trkpt lat="21.840269935728603" lon="-102.53547780960457"><ele>1919.4</ele><time>2026-03-22T13:58:01Z</time></trkpt><trkpt lat="21.840218975107106" lon="-102.5355436559987"><ele>1919.2</ele><time>2026-03-22T13:58:02Z</time></trkpt><trkpt lat="21.840169062609522" lon="-102.53560757436713"><ele>1919.0</ele><time>2026-03-22T13:58:03Z</time></trkpt><trkpt lat="21.840090620589926" lon="-102.53568445120115"><ele>1919.0</ele><time>2026-03-22T13:58:05Z</time></trkpt><trkpt lat="21.840005804099277" lon="-102.53572130501757"><ele>1919.0</ele><time>2026-03-22T13:58:06Z</time></trkpt><trkpt lat="21.839937496311496" lon="-102.53580199668251"><ele>1919.0</ele><time>2026-03-22T13:58:09Z</time></trkpt><trkpt lat="21.83986561684472" lon="-102.53588048816023"><ele>1919.0</ele><time>2026-03-22T13:58:10Z</time></trkpt><trkpt lat="21.839509860753246" lon="-102.53572567424696"><ele>1919.0</ele><time>2026-03-22T13:58:12Z</time></trkpt><trkpt lat="21.839305955665512" lon="-102.53569144483008"><ele>1919.0</ele><time>2026-03-22T13:58:13Z</time></trkpt><trkpt lat="21.839144571299745" lon="-102.53563806687163"><ele>1919.0</ele><time>2026-03-22T13:58:14Z</time></trkpt><trkpt lat="21.839029383003844" lon="-102.5355857311416"><ele>1919.75</ele><time>2026-03-22T13:58:16Z</time></trkpt><trkpt lat="21.838963611583413" lon="-102.53562322687698"><ele>1920.5</ele><time>2026-03-22T13:58:18Z</time></trkpt><trkpt lat="21.838878614452153" lon="-102.53562631024245"><ele>1921.25</ele><time>2026-03-22T13:58:19Z</time></trkpt><trkpt lat="21.83868653733836" lon="-102.53556333161224"><ele>1922.0</ele><time>2026-03-22T13:58:21Z</time></trkpt><trkpt lat="21.838556470133575" lon="-102.53550734439105"><ele>1922.0</ele><time>2026-03-22T13:58:22Z</time></trkpt><trkpt lat="21.838477018895524" lon="-102.53546162411617"><ele>1922.0</ele><time>2026-03-22T13:58:23Z</time></trkpt><trkpt lat="21.83834822316888" lon="-102.5354094241814"><ele>1922.0</ele><time>2026-03-22T13:58:25Z</time></trkpt><trkpt lat="21.838220857097223" lon="-102.535431804266"><ele>1922.0</ele><time>2026-03-22T13:58:27Z</time></trkpt><trkpt lat="21.83809709141343" lon="-102.53539085662824"><ele>1921.8333333333333</ele><time>2026-03-22T13:58:29Z</time></trkpt><trkpt lat="21.838040508840283" lon="-102.53535473036781"><ele>1921.6666666666665</ele><time>2026-03-22T13:58:30Z</time></trkpt><trkpt lat="21.83797639901308" lon="-102.53535501944656"><ele>1921.5</ele><time>2026-03-22T13:58:31Z</time></trkpt><trkpt lat="21.837852661847144" lon="-102.5353260228389"><ele>1921.3333333333335</ele><time>2026-03-22T13:58:33Z</time></trkpt><trkpt lat="21.83778841123349" lon="-102.5353119345496"><ele>1921.1666666666667</ele><time>2026-03-22T13:58:34Z</time></trkpt><trkpt lat="21.837736143222656" lon="-102.53526694014855"><ele>1921.0</ele><time>2026-03-22T13:58:35Z</time></trkpt><trkpt lat="21.83767836141442" lon="-102.53532466211959"><ele>1921.8</ele><time>2026-03-22T13:58:36Z</time></trkpt><trkpt lat="21.837628575202004" lon="-102.53519604813295"><ele>1922.6</ele><time>2026-03-22T13:58:37Z</time></trkpt><trkpt lat="21.8375600928904" lon="-102.53519051326539"><ele>1923.4</ele><time>2026-03-22T13:58:38Z</time></trkpt><trkpt lat="21.83748938313754" lon="-102.53516959706452"><ele>1924.2</ele><time>2026-03-22T13:58:40Z</time></trkpt><trkpt lat="21.83740150636046" lon="-102.53516894860883"><ele>1925.0</ele><time>2026-03-22T13:58:42Z</time></trkpt><trkpt lat="21.837310906604046" lon="-102.53517393684746"><ele>1925.0</ele><time>2026-03-22T13:58:43Z</time></trkpt><trkpt lat="21.837187074505035" lon="-102.53510963759214"><ele>1925.0</ele><time>2026-03-22T13:58:45Z</time></trkpt><trkpt lat="21.837114963823144" lon="-102.53512075375947"><ele>1925.0</ele><time>2026-03-22T13:58:46Z</time></trkpt><trkpt lat="21.837004113269167" lon="-102.53516748880537"><ele>1925.0</ele><time>2026-03-22T13:58:48Z</time></trkpt><trkpt lat="21.83689651311724" lon="-102.53514901763755"><ele>1925.0</ele><time>2026-03-22T13:58:50Z</time></trkpt><trkpt lat="21.836829807202133" lon="-102.5351777222234"><ele>1925.0</ele><time>2026-03-22T13:58:51Z</time></trkpt><trkpt lat="21.836869825180877" lon="-102.53510774424025"><ele>1925.0</ele><time>2026-03-22T13:58:52Z</time></trkpt><trkpt lat="21.836777498427473" lon="-102.535074131992"><ele>1925.0</ele><time>2026-03-22T13:58:54Z</time></trkpt><trkpt lat="21.836660563129758" lon="-102.53505876889442"><ele>1925.0</ele><time>2026-03-22T13:58:56Z</time></trkpt><trkpt lat="21.836576292901487" lon="-102.53502477842737"><ele>1925.0</ele><time>2026-03-22T13:58:57Z</time></trkpt><trkpt lat="21.836487707936467" lon="-102.5349869363222"><ele>1925.6666666666665</ele><time>2026-03-22T13:58:58Z</time></trkpt><trkpt lat="21.836386014935748" lon="-102.53493246615267"><ele>1926.3333333333333</ele><time>2026-03-22T13:58:59Z</time></trkpt><trkpt lat="21.836316878903762" lon="-102.53492335297334"><ele>1927.0</ele><time>2026-03-22T13:59:00Z</time></trkpt><trkpt lat="21.836250644520696" lon="-102.53491054995558"><ele>1927.6666666666665</ele><time>2026-03-22T13:59:01Z</time></trkpt><trkpt lat="21.83617754782555" lon="-102.53488005901085"><ele>1928.3333333333333</ele><time>2026-03-22T13:59:02Z</time></trkpt><trkpt lat="21.836059445323716" lon="-102.5348658547338"><ele>1929.0</ele><time>2026-03-22T13:59:04Z</time></trkpt><trkpt lat="21.835982624386922" lon="-102.53485458905915"><ele>1929.2</ele><time>2026-03-22T13:59:05Z</time></trkpt><trkpt lat="21.835904011309484" lon="-102.53475770966875"><ele>1929.4</ele><time>2026-03-22T13:59:07Z</time></trkpt><trkpt lat="21.83582883486412" lon="-102.53473679631541"><ele>1929.6</ele><time>2026-03-22T13:59:08Z</time></trkpt><trkpt lat="21.835693030513394" lon="-102.53467901484954"><ele>1929.8</ele><time>2026-03-22T13:59:10Z</time></trkpt><trkpt lat="21.835623420955915" lon="-102.5346603133356"><ele>1930.0</ele><time>2026-03-22T13:59:11Z</time></trkpt><trkpt lat="21.83555659331395" lon="-102.53465733392079"><ele>1930.0000000000002</ele><time>2026-03-22T13:59:12Z</time></trkpt><trkpt lat="21.83549236515292" lon="-102.53469116096603"><ele>1930.0</ele><time>2026-03-22T13:59:13Z</time></trkpt><trkpt lat="21.835411893393974" lon="-102.53469326775786"><ele>1930.0</ele><time>2026-03-22T13:59:15Z</time></trkpt><trkpt lat="21.835328056777787" lon="-102.53466273780435"><ele>1930.0</ele><time>2026-03-22T13:59:16Z</time></trkpt><trkpt lat="21.83523803700585" lon="-102.534664559832"><ele>1930.0000000000002</ele><time>2026-03-22T13:59:17Z</time></trkpt><trkpt lat="21.835155049262507" lon="-102.53467918022181"><ele>1930.0</ele><time>2026-03-22T13:59:18Z</time></trkpt><trkpt lat="21.835071630148864" lon="-102.5346281072833"><ele>1930.0000000000002</ele><time>2026-03-22T13:59:19Z</time></trkpt><trkpt lat="21.834992020927732" lon="-102.53463531215338"><ele>1930.0</ele><time>2026-03-22T13:59:20Z</time></trkpt><trkpt lat="21.83491826284553" lon="-102.53461684969203"><ele>1930.0</ele><time>2026-03-22T13:59:21Z</time></trkpt><trkpt lat="21.83485224102844" lon="-102.5346212838423"><ele>1930.0</ele><time>2026-03-22T13:59:22Z</time></trkpt><trkpt lat="21.834786864990974" lon="-102.53461030761481"><ele>1930.0000000000002</ele><time>2026-03-22T13:59:23Z</time></trkpt><trkpt lat="21.834700148479254" lon="-102.53454935366386"><ele>1930.0</ele><time>2026-03-22T13:59:24Z</time></trkpt><trkpt lat="21.834627535368767" lon="-102.53453475549931"><ele>1930.0000000000002</ele><time>2026-03-22T13:59:25Z</time></trkpt><trkpt lat="21.83455532095238" lon="-102.53453697542237"><ele>1930.0</ele><time>2026-03-22T13:59:26Z</time></trkpt><trkpt lat="21.834495669413588" lon="-102.53448813150568"><ele>1930.0</ele><time>2026-03-22T13:59:27Z</time></trkpt><trkpt lat="21.83440889098373" lon="-102.53446354289275"><ele>1930.0</ele><time>2026-03-22T13:59:28Z</time></trkpt><trkpt lat="21.834326608050006" lon="-102.53447197373583"><ele>1930.0000000000002</ele><time>2026-03-22T13:59:29Z</time></trkpt><trkpt lat="21.834248548972994" lon="-102.53445841066235"><ele>1930.0</ele><time>2026-03-22T13:59:30Z</time></trkpt><trkpt lat="21.83417880462883" lon="-102.53442208336267"><ele>1929.8</ele><time>2026-03-22T13:59:31Z</time></trkpt><trkpt lat="21.83411390304285" lon="-102.53437872210158"><ele>1929.6</ele><time>2026-03-22T13:59:32Z</time></trkpt><trkpt lat="21.83400180528611" lon="-102.53436004851673"><ele>1929.4</ele><time>2026-03-22T13:59:34Z</time></trkpt><trkpt lat="21.833928679539035" lon="-102.53433821404316"><ele>1929.2</ele><time>2026-03-22T13:59:35Z</time></trkpt><trkpt lat="21.833841941477008" lon="-102.53433422814747"><ele>1929.0</ele><time>2026-03-22T13:59:36Z</time></trkpt><trkpt lat="21.83375655309556" lon="-102.53425820001414"><ele>1929.0</ele><time>2026-03-22T13:59:37Z</time></trkpt><trkpt lat="21.833628415938772" lon="-102.53424086819494"><ele>1929.0</ele><time>2026-03-22T13:59:39Z</time></trkpt><trkpt lat="21.83351606533008" lon="-102.53421369185881"><ele>1929.0</ele><time>2026-03-22T13:59:40Z</time></trkpt><trkpt lat="21.833412342360326" lon="-102.53415051145849"><ele>1929.0</ele><time>2026-03-22T13:59:41Z</time></trkpt><trkpt lat="21.833340446994498" lon="-102.53413383016021"><ele>1929.0</ele><time>2026-03-22T13:59:42Z</time></trkpt><trkpt lat="21.83326498273855" lon="-102.53415563631995"><ele>1929.1666666666667</ele><time>2026-03-22T13:59:43Z</time></trkpt><trkpt lat="21.83320909797624" lon="-102.53410754545143"><ele>1929.3333333333335</ele><time>2026-03-22T13:59:44Z</time></trkpt><trkpt lat="21.833128644365733" lon="-102.53409960828998"><ele>1929.5</ele><time>2026-03-22T13:59:45Z</time></trkpt><trkpt lat="21.833050572436683" lon="-102.53407094041889"><ele>1929.6666666666667</ele><time>2026-03-22T13:59:46Z</time></trkpt><trkpt lat="21.83295667373196" lon="-102.53407812615147"><ele>1929.8333333333335</ele><time>2026-03-22T13:59:47Z</time></trkpt><trkpt lat="21.832884145654713" lon="-102.53406325379059"><ele>1930.0</ele><time>2026-03-22T13:59:48Z</time></trkpt><trkpt lat="21.832739721753384" lon="-102.53407421121075"><ele>1930.2</ele><time>2026-03-22T13:59:50Z</time></trkpt><trkpt lat="21.832635541015602" lon="-102.5340596224837"><ele>1930.4</ele><time>2026-03-22T13:59:51Z</time></trkpt><trkpt lat="21.832565458720104" lon="-102.53410235197939"><ele>1930.6</ele><time>2026-03-22T13:59:52Z</time></trkpt><trkpt lat="21.832476506891794" lon="-102.53405861427481"><ele>1930.8</ele><time>2026-03-22T13:59:53Z</time></trkpt><trkpt lat="21.832387875104" lon="-102.53399868551399"><ele>1931.0</ele><time>2026-03-22T13:59:54Z</time></trkpt><trkpt lat="21.832253553903634" lon="-102.5339760531172"><ele>1930.9999999999998</ele><time>2026-03-22T13:59:56Z</time></trkpt><trkpt lat="21.832180360532018" lon="-102.53395615071726"><ele>1931.0</ele><time>2026-03-22T13:59:57Z</time></trkpt><trkpt lat="21.83208013587925" lon="-102.53392013765557"><ele>1931.0</ele><time>2026-03-22T13:59:58Z</time></trkpt><trkpt lat="21.83199049976518" lon="-102.5338633066949"><ele>1931.0</ele><time>2026-03-22T13:59:59Z</time></trkpt><trkpt lat="21.831903583589867" lon="-102.53390100011877"><ele>1930.9999999999998</ele><time>2026-03-22T14:00:00Z</time></trkpt><trkpt lat="21.831842550252667" lon="-102.53387509653182"><ele>1931.0</ele><time>2026-03-22T14:00:01Z</time></trkpt><trkpt lat="21.831755969371184" lon="-102.53384135484863"><ele>1930.8333333333333</ele><time>2026-03-22T14:00:02Z</time></trkpt><trkpt lat="21.83167085395283" lon="-102.5338683197584"><ele>1930.6666666666665</ele><time>2026-03-22T14:00:03Z</time></trkpt><trkpt lat="21.83159207043328" lon="-102.53386821671724"><ele>1930.5</ele><time>2026-03-22T14:00:04Z</time></trkpt><trkpt lat="21.83151644044001" lon="-102.53385368454566"><ele>1930.3333333333335</ele><time>2026-03-22T14:00:05Z</time></trkpt><trkpt lat="21.831439170409976" lon="-102.53380076726815"><ele>1930.1666666666667</ele><time>2026-03-22T14:00:06Z</time></trkpt><trkpt lat="21.83136406624597" lon="-102.53376665320312"><ele>1930.0</ele><time>2026-03-22T14:00:07Z</time></trkpt><trkpt lat="21.83128272840114" lon="-102.53373420429718"><ele>1930.0000000000002</ele><time>2026-03-22T14:00:08Z</time></trkpt><trkpt lat="21.831211874700415" lon="-102.53367614477624"><ele>1930.0</ele><time>2026-03-22T14:00:09Z</time></trkpt><trkpt lat="21.83114224643347" lon="-102.53370051836593"><ele>1930.0</ele><time>2026-03-22T14:00:10Z</time></trkpt><trkpt lat="21.83106251799721" lon="-102.53363599362297"><ele>1930.0</ele><time>2026-03-22T14:00:11Z</time></trkpt><trkpt lat="21.83100867895091" lon="-102.5337004676923"><ele>1930.0000000000002</ele><time>2026-03-22T14:00:12Z</time></trkpt><trkpt lat="21.83093354941691" lon="-102.53369618507936"><ele>1930.0</ele><time>2026-03-22T14:00:13Z</time></trkpt><trkpt lat="21.830841766200628" lon="-102.53365544752765"><ele>1930.0000000000002</ele><time>2026-03-22T14:00:14Z</time></trkpt><trkpt lat="21.830768766408745" lon="-102.5336500541588"><ele>1930.0</ele><time>2026-03-22T14:00:15Z</time></trkpt><trkpt lat="21.830704882924756" lon="-102.5336266226637"><ele>1930.0</ele><time>2026-03-22T14:00:16Z</time></trkpt><trkpt lat="21.83063392417612" lon="-102.53357856527523"><ele>1930.0</ele><time>2026-03-22T14:00:17Z</time></trkpt><trkpt lat="21.830565063824913" lon="-102.53359905873938"><ele>1930.0000000000002</ele><time>2026-03-22T14:00:18Z</time></trkpt><trkpt lat="21.830450808794176" lon="-102.53359248629987"><ele>1930.0</ele><time>2026-03-22T14:00:20Z</time></trkpt><trkpt lat="21.83038605803298" lon="-102.53357153339914"><ele>1930.0000000000002</ele><time>2026-03-22T14:00:21Z</time></trkpt><trkpt lat="21.83027270704089" lon="-102.53352271856237"><ele>1930.0</ele><time>2026-03-22T14:00:23Z</time></trkpt><trkpt lat="21.830211270461263" lon="-102.53354045762335"><ele>1930.0</ele><time>2026-03-22T14:00:24Z</time></trkpt><trkpt lat="21.830151115079698" lon="-102.53351856926749"><ele>1930.0</ele><time>2026-03-22T14:00:25Z</time></trkpt><trkpt lat="21.8300667979243" lon="-102.53354398742611"><ele>1930.0000000000002</ele><time>2026-03-22T14:00:27Z</time></trkpt><trkpt lat="21.829962590147623" lon="-102.53351771468157"><ele>1930.0</ele><time>2026-03-22T14:00:29Z</time></trkpt><trkpt lat="21.829898347966754" lon="-102.5335196774863"><ele>1931.0</ele><time>2026-03-22T14:00:30Z</time></trkpt><trkpt lat="21.829834512702085" lon="-102.53352360836867"><ele>1932.0</ele><time>2026-03-22T14:00:31Z</time></trkpt><trkpt lat="21.82972282847723" lon="-102.53348290260925"><ele>1933.0</ele><time>2026-03-22T14:00:33Z</time></trkpt><trkpt lat="21.829603622738418" lon="-102.5334562662411"><ele>1934.0</ele><time>2026-03-22T14:00:35Z</time></trkpt><trkpt lat="21.82948256568452" lon="-102.53342787538101"><ele>1935.0</ele><time>2026-03-22T14:00:37Z</time></trkpt><trkpt lat="21.82937450219747" lon="-102.53335711044356"><ele>1935.6</ele><time>2026-03-22T14:00:39Z</time></trkpt><trkpt lat="21.829301537033942" lon="-102.5334096657368"><ele>1936.2</ele><time>2026-03-22T14:00:40Z</time></trkpt><trkpt lat="21.829206236472128" lon="-102.53335642283008"><ele>1936.8000000000002</ele><time>2026-03-22T14:00:41Z</time></trkpt><trkpt lat="21.82908093634944" lon="-102.53324578451716"><ele>1937.4</ele><time>2026-03-22T14:00:43Z</time></trkpt><trkpt lat="21.82901768152214" lon="-102.5332094456423"><ele>1938.0</ele><time>2026-03-22T14:00:44Z</time></trkpt><trkpt lat="21.8289383943365" lon="-102.53325959318505"><ele>1937.9999999999998</ele><time>2026-03-22T14:00:45Z</time></trkpt><trkpt lat="21.828869058907195" lon="-102.53329533169318"><ele>1938.0</ele><time>2026-03-22T14:00:47Z</time></trkpt><trkpt lat="21.82880411675569" lon="-102.533279104499"><ele>1937.9999999999998</ele><time>2026-03-22T14:00:49Z</time></trkpt><trkpt lat="21.82884525774525" lon="-102.53335180716817"><ele>1937.9999999999998</ele><time>2026-03-22T14:00:51Z</time></trkpt><trkpt lat="21.82876896726028" lon="-102.53335699444331"><ele>1938.0</ele><time>2026-03-22T14:00:55Z</time></trkpt><trkpt lat="21.828709317389734" lon="-102.53332341432241"><ele>1937.9999999999998</ele><time>2026-03-22T14:00:56Z</time></trkpt><trkpt lat="21.828643122838084" lon="-102.53335947881078"><ele>1937.9999999999998</ele><time>2026-03-22T14:01:00Z</time></trkpt><trkpt lat="21.828494191600864" lon="-102.53335684424088"><ele>1938.4</ele><time>2026-03-22T14:01:02Z</time></trkpt><trkpt lat="21.828417195493948" lon="-102.53333012630908"><ele>1938.8000000000002</ele><time>2026-03-22T14:01:03Z</time></trkpt><trkpt lat="21.828313515913226" lon="-102.53337639579931"><ele>1939.2</ele><time>2026-03-22T14:01:04Z</time></trkpt><trkpt lat="21.828219401401586" lon="-102.53323847677746"><ele>1939.6</ele><time>2026-03-22T14:01:05Z</time></trkpt><trkpt lat="21.828146308685216" lon="-102.5332329392911"><ele>1940.0</ele><time>2026-03-22T14:01:06Z</time></trkpt><trkpt lat="21.828082739164202" lon="-102.53322169776574"><ele>1939.9999999999998</ele><time>2026-03-22T14:01:07Z</time></trkpt><trkpt lat="21.82801129210878" lon="-102.53321731490385"><ele>1940.0</ele><time>2026-03-22T14:01:08Z</time></trkpt><trkpt lat="21.827936361848383" lon="-102.5331930871621"><ele>1940.0</ele><time>2026-03-22T14:01:09Z</time></trkpt><trkpt lat="21.82785391163216" lon="-102.53316549227283"><ele>1940.0</ele><time>2026-03-22T14:01:10Z</time></trkpt><trkpt lat="21.82778163736256" lon="-102.5331420528874"><ele>1939.9999999999998</ele><time>2026-03-22T14:01:11Z</time></trkpt><trkpt lat="21.827698823314332" lon="-102.5330920831681"><ele>1940.0</ele><time>2026-03-22T14:01:12Z</time></trkpt><trkpt lat="21.82758059611632" lon="-102.53299858633268"><ele>1939.8</ele><time>2026-03-22T14:01:13Z</time></trkpt><trkpt lat="21.827507963087992" lon="-102.53298207955136"><ele>1939.6</ele><time>2026-03-22T14:01:14Z</time></trkpt><trkpt lat="21.82740770494363" lon="-102.53294916376622"><ele>1939.4</ele><time>2026-03-22T14:01:15Z</time></trkpt><trkpt lat="21.827279304022476" lon="-102.53293541712895"><ele>1939.2</ele><time>2026-03-22T14:01:17Z</time></trkpt><trkpt lat="21.82720475593705" lon="-102.53288296307075"><ele>1939.0</ele><time>2026-03-22T14:01:18Z</time></trkpt><trkpt lat="21.827109894782765" lon="-102.53287184739592"><ele>1939.0</ele><time>2026-03-22T14:01:19Z</time></trkpt><trkpt lat="21.82700325058749" lon="-102.53289803825058"><ele>1939.0</ele><time>2026-03-22T14:01:20Z</time></trkpt><trkpt lat="21.826930469327685" lon="-102.53280778390949"><ele>1939.0</ele><time>2026-03-22T14:01:22Z</time></trkpt><trkpt lat="21.826878904171128" lon="-102.5327024320987"><ele>1939.0</ele><time>2026-03-22T14:01:23Z</time></trkpt><trkpt lat="21.82679979241986" lon="-102.53268316203237"><ele>1939.0</ele><time>2026-03-22T14:01:24Z</time></trkpt><trkpt lat="21.826696871983756" lon="-102.53259708270521"><ele>1939.8000000000002</ele><time>2026-03-22T14:01:26Z</time></trkpt><trkpt lat="21.826593017665857" lon="-102.53249739048587"><ele>1940.6000000000001</ele><time>2026-03-22T14:01:28Z</time></trkpt><trkpt lat="21.82653933848738" lon="-102.53244320504452"><ele>1941.4</ele><time>2026-03-22T14:01:29Z</time></trkpt><trkpt lat="21.826464165271872" lon="-102.5323665876492"><ele>1942.2</ele><time>2026-03-22T14:01:31Z</time></trkpt><trkpt lat="21.82639850660234" lon="-102.53229648847714"><ele>1943.0</ele><time>2026-03-22T14:01:33Z</time></trkpt><trkpt lat="21.826321449527395" lon="-102.53221708421721"><ele>1943.0</ele><time>2026-03-22T14:01:35Z</time></trkpt><trkpt lat="21.826295036917532" lon="-102.53213249696508"><ele>1943.0000000000002</ele><time>2026-03-22T14:01:36Z</time></trkpt><trkpt lat="21.82624559111576" lon="-102.53201601017376"><ele>1943.0000000000002</ele><time>2026-03-22T14:01:38Z</time></trkpt><trkpt lat="21.82620804912129" lon="-102.53195712315748"><ele>1943.0</ele><time>2026-03-22T14:01:39Z</time></trkpt><trkpt lat="21.82613675636655" lon="-102.53187638989225"><ele>1943.0</ele><time>2026-03-22T14:01:41Z</time></trkpt><trkpt lat="21.82609128903483" lon="-102.5317825053284"><ele>1942.3333333333333</ele><time>2026-03-22T14:01:43Z</time></trkpt><trkpt lat="21.826108642945236" lon="-102.53168963191631"><ele>1941.6666666666665</ele><time>2026-03-22T14:01:44Z</time></trkpt><trkpt lat="21.82610339168946" lon="-102.53154244012174"><ele>1941.0</ele><time>2026-03-22T14:01:46Z</time></trkpt><trkpt lat="21.826206429537137" lon="-102.53176150098385"><ele>1941.0</ele><time>2026-03-22T14:01:47Z</time></trkpt><trkpt lat="21.826258053445947" lon="-102.53167685956085"><ele>1941.0</ele><time>2026-03-22T14:01:49Z</time></trkpt><trkpt lat="21.826304964789834" lon="-102.53160071966153"><ele>1941.0</ele><time>2026-03-22T14:01:51Z</time></trkpt><trkpt lat="21.826233586670632" lon="-102.53138042426968"><ele>1941.0</ele><time>2026-03-22T14:01:56Z</time></trkpt><trkpt lat="21.826178441986457" lon="-102.53124744601901"><ele>1941.0</ele><time>2026-03-22T14:01:57Z</time></trkpt><trkpt lat="21.826140637516747" lon="-102.53117364742175"><ele>1941.0</ele><time>2026-03-22T14:01:58Z</time></trkpt><trkpt lat="21.826125389466636" lon="-102.53126687300558"><ele>1941.0</ele><time>2026-03-22T14:02:00Z</time></trkpt><trkpt lat="21.826026597138902" lon="-102.53112655247104"><ele>1941.0</ele><time>2026-03-22T14:02:02Z</time></trkpt><trkpt lat="21.825988137814736" lon="-102.53102298041637"><ele>1941.0</ele><time>2026-03-22T14:02:03Z</time></trkpt><trkpt lat="21.825986191174753" lon="-102.53094689740907"><ele>1942.75</ele><time>2026-03-22T14:02:04Z</time></trkpt><trkpt lat="21.825965327876663" lon="-102.5308414940781"><ele>1944.5</ele><time>2026-03-22T14:02:05Z</time></trkpt><trkpt lat="21.825947444098887" lon="-102.53071379942486"><ele>1946.25</ele><time>2026-03-22T14:02:07Z</time></trkpt><trkpt lat="21.82584877032749" lon="-102.53052368107971"><ele>1948.0</ele><time>2026-03-22T14:02:09Z</time></trkpt><trkpt lat="21.825834552462222" lon="-102.5303850041496"><ele>1948.4</ele><time>2026-03-22T14:02:11Z</time></trkpt><trkpt lat="21.825789187648258" lon="-102.53028089743705"><ele>1948.8000000000002</ele><time>2026-03-22T14:02:13Z</time></trkpt><trkpt lat="21.82579192226157" lon="-102.53016171014096"><ele>1949.2</ele><time>2026-03-22T14:02:15Z</time></trkpt><trkpt lat="21.82573415434832" lon="-102.53006713360683"><ele>1949.6</ele><time>2026-03-22T14:02:17Z</time></trkpt><trkpt lat="21.8257382428736" lon="-102.52997293584514"><ele>1950.0</ele><time>2026-03-22T14:02:18Z</time></trkpt><trkpt lat="21.825745404026847" lon="-102.53015324657345"><ele>1950.0</ele><time>2026-03-22T14:02:20Z</time></trkpt><trkpt lat="21.825666177015464" lon="-102.53000021069514"><ele>1950.0</ele><time>2026-03-22T14:02:21Z</time></trkpt><trkpt lat="21.825574645281666" lon="-102.52995524639212"><ele>1950.0</ele><time>2026-03-22T14:02:25Z</time></trkpt><trkpt lat="21.825548760066926" lon="-102.52983067980276"><ele>1950.0</ele><time>2026-03-22T14:02:27Z</time></trkpt><trkpt lat="21.8255024800034" lon="-102.52976583672408"><ele>1948.5</ele><time>2026-03-22T14:02:28Z</time></trkpt><trkpt lat="21.825582238473473" lon="-102.52938811681695"><ele>1947.0</ele><time>2026-03-22T14:02:29Z</time></trkpt><trkpt lat="21.825562771590715" lon="-102.52927653063972"><ele>1947.0</ele><time>2026-03-22T14:02:30Z</time></trkpt><trkpt lat="21.82549175536612" lon="-102.52918184141261"><ele>1946.9999999999998</ele><time>2026-03-22T14:02:32Z</time></trkpt><trkpt lat="21.825413269643413" lon="-102.52909334552103"><ele>1946.9999999999998</ele><time>2026-03-22T14:02:34Z</time></trkpt><trkpt lat="21.825347841438287" lon="-102.52910029744486"><ele>1947.0</ele><time>2026-03-22T14:02:35Z</time></trkpt><trkpt lat="21.825306034502198" lon="-102.52903171436523"><ele>1947.0</ele><time>2026-03-22T14:02:37Z</time></trkpt><trkpt lat="21.825267199358013" lon="-102.52895252460881"><ele>1947.0</ele><time>2026-03-22T14:02:40Z</time></trkpt><trkpt lat="21.825185105256903" lon="-102.52890535642224"><ele>1947.0</ele><time>2026-03-22T14:02:42Z</time></trkpt><trkpt lat="21.82512703717507" lon="-102.52885221293623"><ele>1947.0</ele><time>2026-03-22T14:02:43Z</time></trkpt><trkpt lat="21.82505619204633" lon="-102.52884897032722"><ele>1947.0</ele><time>2026-03-22T14:02:45Z</time></trkpt><trkpt lat="21.82498368288115" lon="-102.52886888022776"><ele>1947.0</ele><time>2026-03-22T14:02:46Z</time></trkpt><trkpt lat="21.824905785072993" lon="-102.52887298204585"><ele>1947.0</ele><time>2026-03-22T14:02:48Z</time></trkpt><trkpt lat="21.824803052565503" lon="-102.52887193940684"><ele>1949.0</ele><time>2026-03-22T14:02:50Z</time></trkpt><trkpt lat="21.82472808344464" lon="-102.52886597878458"><ele>1951.0</ele><time>2026-03-22T14:02:52Z</time></trkpt><trkpt lat="21.824655971561548" lon="-102.52884981008437"><ele>1953.0</ele><time>2026-03-22T14:02:54Z</time></trkpt><trkpt lat="21.824576780696557" lon="-102.52881547678065"><ele>1955.0</ele><time>2026-03-22T14:02:57Z</time></trkpt><trkpt lat="21.824537818473033" lon="-102.52875792122542"><ele>1957.0</ele><time>2026-03-22T14:02:59Z</time></trkpt><trkpt lat="21.824465613708057" lon="-102.52874022419255"><ele>1959.0</ele><time>2026-03-22T14:03:00Z</time></trkpt><trkpt lat="21.824358193523963" lon="-102.52874911758215"><ele>1958.6</ele><time>2026-03-22T14:03:02Z</time></trkpt><trkpt lat="21.824253071113937" lon="-102.52876474353164"><ele>1958.2</ele><time>2026-03-22T14:03:04Z</time></trkpt><trkpt lat="21.824159844003866" lon="-102.52876424377585"><ele>1957.7999999999997</ele><time>2026-03-22T14:03:06Z</time></trkpt><trkpt lat="21.824068053677177" lon="-102.52870598201612"><ele>1957.3999999999999</ele><time>2026-03-22T14:03:08Z</time></trkpt><trkpt lat="21.823991649506326" lon="-102.52877384415667"><ele>1957.0</ele><time>2026-03-22T14:03:10Z</time></trkpt><trkpt lat="21.823923590723982" lon="-102.52879148815055"><ele>1959.1999999999998</ele><time>2026-03-22T14:03:13Z</time></trkpt><trkpt lat="21.823854081503132" lon="-102.52884746995754"><ele>1961.3999999999999</ele><time>2026-03-22T14:03:15Z</time></trkpt><trkpt lat="21.823754760676074" lon="-102.52885110376458"><ele>1963.6000000000001</ele><time>2026-03-22T14:03:19Z</time></trkpt><trkpt lat="21.823625422190627" lon="-102.5288994819231"><ele>1965.8000000000002</ele><time>2026-03-22T14:03:21Z</time></trkpt><trkpt lat="21.82355598023166" lon="-102.52892797547638"><ele>1968.0</ele><time>2026-03-22T14:03:22Z</time></trkpt><trkpt lat="21.82349976163473" lon="-102.52896084875385"><ele>1969.25</ele><time>2026-03-22T14:03:23Z</time></trkpt><trkpt lat="21.823418787563746" lon="-102.52903262234801"><ele>1970.5</ele><time>2026-03-22T14:03:24Z</time></trkpt><trkpt lat="21.823340412608868" lon="-102.52911369407457"><ele>1971.75</ele><time>2026-03-22T14:03:25Z</time></trkpt><trkpt lat="21.82313422064096" lon="-102.52918768500282"><ele>1973.0</ele><time>2026-03-22T14:03:26Z</time></trkpt><trkpt lat="21.82302757880949" lon="-102.52923421854251"><ele>1973.0</ele><time>2026-03-22T14:03:27Z</time></trkpt><trkpt lat="21.82285743219619" lon="-102.52931114198807"><ele>1973.0</ele><time>2026-03-22T14:03:28Z</time></trkpt><trkpt lat="21.822713467350766" lon="-102.52937168323596"><ele>1973.0</ele><time>2026-03-22T14:03:29Z</time></trkpt><trkpt lat="21.82255239987353" lon="-102.52941156637145"><ele>1970.75</ele><time>2026-03-22T14:03:30Z</time></trkpt><trkpt lat="21.82239880073984" lon="-102.52939446366443"><ele>1968.5</ele><time>2026-03-22T14:03:31Z</time></trkpt><trkpt lat="21.822291209384336" lon="-102.52940964324745"><ele>1966.25</ele><time>2026-03-22T14:03:32Z</time></trkpt><trkpt lat="21.822182041964492" lon="-102.52942054676296"><ele>1964.0</ele><time>2026-03-22T14:03:33Z</time></trkpt><trkpt lat="21.822081107126554" lon="-102.5294498519908"><ele>1964.0</ele><time>2026-03-22T14:03:34Z</time></trkpt><trkpt lat="21.821950874023024" lon="-102.52942961270728"><ele>1964.0</ele><time>2026-03-22T14:03:35Z</time></trkpt><trkpt lat="21.82177875414222" lon="-102.5293819922384"><ele>1964.0</ele><time>2026-03-22T14:03:36Z</time></trkpt><trkpt lat="21.821566868387553" lon="-102.52929377386786"><ele>1962.2</ele><time>2026-03-22T14:03:37Z</time></trkpt><trkpt lat="21.82144252478916" lon="-102.52925374234013"><ele>1960.4</ele><time>2026-03-22T14:03:38Z</time></trkpt><trkpt lat="21.821331533546534" lon="-102.52920903945589"><ele>1958.6</ele><time>2026-03-22T14:03:39Z</time></trkpt><trkpt lat="21.82125834469092" lon="-102.52913579883497"><ele>1956.8</ele><time>2026-03-22T14:03:40Z</time></trkpt><trkpt lat="21.8211688861057" lon="-102.52909562781254"><ele>1955.0</ele><time>2026-03-22T14:03:41Z</time></trkpt><trkpt lat="21.821089793486163" lon="-102.52905768574136"><ele>1954.9999999999998</ele><time>2026-03-22T14:03:42Z</time></trkpt><trkpt lat="21.821014491975703" lon="-102.52902083565145"><ele>1955.0</ele><time>2026-03-22T14:03:43Z</time></trkpt><trkpt lat="21.82094148367518" lon="-102.52899285936215"><ele>1955.0</ele><time>2026-03-22T14:03:44Z</time></trkpt><trkpt lat="21.820892595032426" lon="-102.52894048821315"><ele>1955.0</ele><time>2026-03-22T14:03:45Z</time></trkpt><trkpt lat="21.82084453871825" lon="-102.52888926658136"><ele>1954.9999999999998</ele><time>2026-03-22T14:03:46Z</time></trkpt><trkpt lat="21.820743341791047" lon="-102.5287894216603"><ele>1955.0</ele><time>2026-03-22T14:03:48Z</time></trkpt><trkpt lat="21.82068427712385" lon="-102.52868663130246"><ele>1955.2</ele><time>2026-03-22T14:03:50Z</time></trkpt><trkpt lat="21.8206386212759" lon="-102.52859817915541"><ele>1955.4</ele><time>2026-03-22T14:03:52Z</time></trkpt><trkpt lat="21.820575329112955" lon="-102.52849208414086"><ele>1955.6</ele><time>2026-03-22T14:03:54Z</time></trkpt><trkpt lat="21.820567114358358" lon="-102.52841206584914"><ele>1955.8</ele><time>2026-03-22T14:03:55Z</time></trkpt><trkpt lat="21.820549150510345" lon="-102.52833706486273"><ele>1956.0</ele><time>2026-03-22T14:03:56Z</time></trkpt><trkpt lat="21.82050794590974" lon="-102.52824696359714"><ele>1956.0</ele><time>2026-03-22T14:03:58Z</time></trkpt><trkpt lat="21.820454229666776" lon="-102.52820327785115"><ele>1956.0</ele><time>2026-03-22T14:03:59Z</time></trkpt><trkpt lat="21.82039746146666" lon="-102.52812270524228"><ele>1956.0</ele><time>2026-03-22T14:04:01Z</time></trkpt><trkpt lat="21.82038335063849" lon="-102.52802257722989"><ele>1956.0</ele><time>2026-03-22T14:04:02Z</time></trkpt><trkpt lat="21.820348192748618" lon="-102.52791683193777"><ele>1956.0</ele><time>2026-03-22T14:04:04Z</time></trkpt><trkpt lat="21.82029902828654" lon="-102.52782815183996"><ele>1956.0</ele><time>2026-03-22T14:04:06Z</time></trkpt><trkpt lat="21.820190700480705" lon="-102.52763014796291"><ele>1956.0</ele><time>2026-03-22T14:04:15Z</time></trkpt><trkpt lat="21.820187966908502" lon="-102.52754835250371"><ele>1956.0</ele><time>2026-03-22T14:04:18Z</time></trkpt><trkpt lat="21.82014947162318" lon="-102.52749024309516"><ele>1956.0</ele><time>2026-03-22T14:04:21Z</time></trkpt><trkpt lat="21.820088990927342" lon="-102.52745275299503"><ele>1956.0</ele><time>2026-03-22T14:04:24Z</time></trkpt><trkpt lat="21.819960932692958" lon="-102.52748547465559"><ele>1957.1666666666667</ele><time>2026-03-22T14:04:25Z</time></trkpt><trkpt lat="21.819901150047176" lon="-102.52745406849812"><ele>1958.3333333333335</ele><time>2026-03-22T14:04:28Z</time></trkpt><trkpt lat="21.819791623105115" lon="-102.52741928799382"><ele>1959.5</ele><time>2026-03-22T14:04:31Z</time></trkpt><trkpt lat="21.819679356319487" lon="-102.52740655661881"><ele>1960.6666666666667</ele><time>2026-03-22T14:04:33Z</time></trkpt><trkpt lat="21.81960069880679" lon="-102.52741487462202"><ele>1961.8333333333335</ele><time>2026-03-22T14:04:35Z</time></trkpt><trkpt lat="21.819551395446325" lon="-102.52735380663783"><ele>1963.0</ele><time>2026-03-22T14:04:36Z</time></trkpt><trkpt lat="21.81948251690554" lon="-102.52727635429058"><ele>1963.0000000000002</ele><time>2026-03-22T14:04:39Z</time></trkpt><trkpt lat="21.819374059233304" lon="-102.527306403995"><ele>1963.0</ele><time>2026-03-22T14:04:42Z</time></trkpt><trkpt lat="21.81934227829356" lon="-102.52723674568672"><ele>1963.0</ele><time>2026-03-22T14:04:44Z</time></trkpt><trkpt lat="21.819298110523953" lon="-102.52714571646635"><ele>1963.0</ele><time>2026-03-22T14:04:46Z</time></trkpt><trkpt lat="21.81926194400347" lon="-102.52708553524097"><ele>1963.0000000000002</ele><time>2026-03-22T14:04:48Z</time></trkpt><trkpt lat="21.81920007262307" lon="-102.52700907082797"><ele>1963.0</ele><time>2026-03-22T14:04:50Z</time></trkpt><trkpt lat="21.819143823642307" lon="-102.52695875201736"><ele>1964.6000000000001</ele><time>2026-03-22T14:04:53Z</time></trkpt><trkpt lat="21.81907915068997" lon="-102.52692987005338"><ele>1966.2000000000003</ele><time>2026-03-22T14:04:55Z</time></trkpt><trkpt lat="21.818949346146237" lon="-102.5269947764858"><ele>1967.8</ele><time>2026-03-22T14:04:56Z</time></trkpt><trkpt lat="21.818848447386777" lon="-102.52697538580976"><ele>1969.4</ele><time>2026-03-22T14:05:00Z</time></trkpt><trkpt lat="21.818785629808858" lon="-102.52696629958074"><ele>1971.0</ele><time>2026-03-22T14:05:01Z</time></trkpt><trkpt lat="21.818700186151656" lon="-102.52690758294955"><ele>1971.0</ele><time>2026-03-22T14:05:02Z</time></trkpt><trkpt lat="21.818648201567953" lon="-102.52674642072407"><ele>1971.0</ele><time>2026-03-22T14:05:03Z</time></trkpt><trkpt lat="21.818574902557533" lon="-102.52668174179325"><ele>1971.0</ele><time>2026-03-22T14:05:05Z</time></trkpt><trkpt lat="21.818477550673443" lon="-102.52656544989942"><ele>1971.0</ele><time>2026-03-22T14:05:07Z</time></trkpt><trkpt lat="21.81837277713116" lon="-102.52656434952107"><ele>1972.1666666666667</ele><time>2026-03-22T14:05:09Z</time></trkpt><trkpt lat="21.81830401994854" lon="-102.5265463132803"><ele>1973.3333333333335</ele><time>2026-03-22T14:05:10Z</time></trkpt><trkpt lat="21.818226536766243" lon="-102.5265175782534"><ele>1974.5</ele><time>2026-03-22T14:05:11Z</time></trkpt><trkpt lat="21.81813947158406" lon="-102.52650544216432"><ele>1975.6666666666667</ele><time>2026-03-22T14:05:12Z</time></trkpt><trkpt lat="21.81805803109889" lon="-102.52652159545639"><ele>1976.8333333333335</ele><time>2026-03-22T14:05:14Z</time></trkpt><trkpt lat="21.81797190924871" lon="-102.52652222252928"><ele>1978.0</ele><time>2026-03-22T14:05:16Z</time></trkpt><trkpt lat="21.81787911904227" lon="-102.52655937999991"><ele>1978.0000000000002</ele><time>2026-03-22T14:05:18Z</time></trkpt><trkpt lat="21.817783810433426" lon="-102.52650820166487"><ele>1978.0</ele><time>2026-03-22T14:05:20Z</time></trkpt><trkpt lat="21.81771312023617" lon="-102.52644805631004"><ele>1978.0</ele><time>2026-03-22T14:05:22Z</time></trkpt><trkpt lat="21.817622420842543" lon="-102.52644928986649"><ele>1978.0</ele><time>2026-03-22T14:05:24Z</time></trkpt><trkpt lat="21.817542538252727" lon="-102.52643609823664"><ele>1978.0000000000002</ele><time>2026-03-22T14:05:26Z</time></trkpt><trkpt lat="21.817482478436865" lon="-102.52640540277106"><ele>1978.0</ele><time>2026-03-22T14:05:28Z</time></trkpt><trkpt lat="21.817409236756745" lon="-102.52640699893628"><ele>1979.0</ele><time>2026-03-22T14:05:30Z</time></trkpt><trkpt lat="21.817337039321686" lon="-102.52641003668232"><ele>1980.0000000000002</ele><time>2026-03-22T14:05:32Z</time></trkpt><trkpt lat="21.817261991814938" lon="-102.52644688892548"><ele>1981.0000000000002</ele><time>2026-03-22T14:05:34Z</time></trkpt><trkpt lat="21.817189073510864" lon="-102.52644590389812"><ele>1982.0</ele><time>2026-03-22T14:05:36Z</time></trkpt><trkpt lat="21.8171202234381" lon="-102.52648449457425"><ele>1983.0</ele><time>2026-03-22T14:05:38Z</time></trkpt><trkpt lat="21.817073892890374" lon="-102.52667090169427"><ele>1983.0</ele><time>2026-03-22T14:05:40Z</time></trkpt><trkpt lat="21.817005323083617" lon="-102.52677835686245"><ele>1983.0000000000002</ele><time>2026-03-22T14:05:41Z</time></trkpt><trkpt lat="21.817082425905724" lon="-102.5266634002991"><ele>1983.0000000000002</ele><time>2026-03-22T14:05:42Z</time></trkpt><trkpt lat="21.817009781777564" lon="-102.526661915795"><ele>1983.0</ele><time>2026-03-22T14:05:44Z</time></trkpt><trkpt lat="21.816931382660712" lon="-102.5266651574235"><ele>1983.0</ele><time>2026-03-22T14:05:46Z</time></trkpt><trkpt lat="21.816849594692002" lon="-102.5266449785442"><ele>1984.4</ele><time>2026-03-22T14:05:48Z</time></trkpt><trkpt lat="21.816759669998387" lon="-102.52657945114835"><ele>1985.8000000000002</ele><time>2026-03-22T14:05:50Z</time></trkpt><trkpt lat="21.81669812248941" lon="-102.5265428092708"><ele>1987.2</ele><time>2026-03-22T14:05:51Z</time></trkpt><trkpt lat="21.816593496734214" lon="-102.52651612951264"><ele>1988.6</ele><time>2026-03-22T14:05:53Z</time></trkpt><trkpt lat="21.81652452096111" lon="-102.52647665596044"><ele>1990.0</ele><time>2026-03-22T14:05:58Z</time></trkpt><trkpt lat="21.816431662352276" lon="-102.52642543618526"><ele>1990.0</ele><time>2026-03-22T14:06:00Z</time></trkpt><trkpt lat="21.81636130374723" lon="-102.52638079325777"><ele>1990.0</ele><time>2026-03-22T14:06:02Z</time></trkpt><trkpt lat="21.81627180118875" lon="-102.5263301368593"><ele>1990.0</ele><time>2026-03-22T14:06:04Z</time></trkpt><trkpt lat="21.816192139078225" lon="-102.52629054575304"><ele>1990.0</ele><time>2026-03-22T14:06:06Z</time></trkpt><trkpt lat="21.816133278206877" lon="-102.52625759648737"><ele>1990.0</ele><time>2026-03-22T14:06:07Z</time></trkpt><trkpt lat="21.81614885433712" lon="-102.52651586315277"><ele>1990.0000000000002</ele><time>2026-03-22T14:06:08Z</time></trkpt><trkpt lat="21.81607361574854" lon="-102.52653420528287"><ele>1990.0</ele><time>2026-03-22T14:06:10Z</time></trkpt><trkpt lat="21.81599151346642" lon="-102.52653154044135"><ele>1990.0</ele><time>2026-03-22T14:06:12Z</time></trkpt><trkpt lat="21.81592550099613" lon="-102.52653020446198"><ele>1990.0</ele><time>2026-03-22T14:06:13Z</time></trkpt><trkpt lat="21.815816695875128" lon="-102.52648236339822"><ele>1990.0000000000002</ele><time>2026-03-22T14:06:15Z</time></trkpt><trkpt lat="21.8157320681681" lon="-102.52642059495825"><ele>1990.0</ele><time>2026-03-22T14:06:20Z</time></trkpt><trkpt lat="21.81566383179584" lon="-102.52638636524227"><ele>1989.2</ele><time>2026-03-22T14:06:22Z</time></trkpt><trkpt lat="21.81559829734646" lon="-102.5263799310334"><ele>1988.4</ele><time>2026-03-22T14:06:23Z</time></trkpt><trkpt lat="21.815532580782286" lon="-102.52635942351729"><ele>1987.6</ele><time>2026-03-22T14:06:26Z</time></trkpt><trkpt lat="21.815446911626804" lon="-102.52634056613272"><ele>1986.8</ele><time>2026-03-22T14:06:30Z</time></trkpt><trkpt lat="21.815341468314973" lon="-102.52631563317995"><ele>1986.0</ele><time>2026-03-22T14:06:32Z</time></trkpt><trkpt lat="21.815266587979902" lon="-102.52620461996929"><ele>1986.0</ele><time>2026-03-22T14:06:34Z</time></trkpt><trkpt lat="21.815221634687184" lon="-102.52601424150812"><ele>1986.0</ele><time>2026-03-22T14:06:35Z</time></trkpt><trkpt lat="21.815165868154608" lon="-102.52584826328943"><ele>1986.0</ele><time>2026-03-22T14:06:36Z</time></trkpt><trkpt lat="21.81510563428091" lon="-102.52574173987796"><ele>1987.6</ele><time>2026-03-22T14:06:37Z</time></trkpt><trkpt lat="21.815062723567898" lon="-102.52567302536555"><ele>1989.1999999999998</ele><time>2026-03-22T14:06:38Z</time></trkpt><trkpt lat="21.81498473075206" lon="-102.52550335413746"><ele>1990.8000000000002</ele><time>2026-03-22T14:06:40Z</time></trkpt><trkpt lat="21.814922973965263" lon="-102.52553401700523"><ele>1992.4</ele><time>2026-03-22T14:06:45Z</time></trkpt><trkpt lat="21.81492782234633" lon="-102.52544873655332"><ele>1994.0</ele><time>2026-03-22T14:06:48Z</time></trkpt><trkpt lat="21.814835408867157" lon="-102.52541694201828"><ele>1989.6666666666665</ele><time>2026-03-22T14:06:52Z</time></trkpt><trkpt lat="21.81475775103674" lon="-102.52536989801531"><ele>1985.3333333333335</ele><time>2026-03-22T14:06:56Z</time></trkpt><trkpt lat="21.814620383042143" lon="-102.52534844104855"><ele>1981.0</ele><time>2026-03-22T14:06:58Z</time></trkpt><trkpt lat="21.81439115587771" lon="-102.52537727592626"><ele>1983.1999999999998</ele><time>2026-03-22T14:06:59Z</time></trkpt><trkpt lat="21.814247887359517" lon="-102.52535719244374"><ele>1985.3999999999999</ele><time>2026-03-22T14:07:00Z</time></trkpt><trkpt lat="21.814182162864952" lon="-102.52536838666956"><ele>1987.6</ele><time>2026-03-22T14:07:03Z</time></trkpt><trkpt lat="21.81409191041666" lon="-102.52538391180184"><ele>1989.8</ele><time>2026-03-22T14:07:05Z</time></trkpt><trkpt lat="21.814029234767524" lon="-102.52536281006128"><ele>1992.0</ele><time>2026-03-22T14:07:06Z</time></trkpt><trkpt lat="21.81391622229441" lon="-102.5252597203151"><ele>1992.0</ele><time>2026-03-22T14:07:08Z</time></trkpt><trkpt lat="21.813789900823988" lon="-102.52530337697264"><ele>1991.9999999999998</ele><time>2026-03-22T14:07:10Z</time></trkpt><trkpt lat="21.813702950747945" lon="-102.52530515376897"><ele>1991.9999999999998</ele><time>2026-03-22T14:07:12Z</time></trkpt><trkpt lat="21.81362761038998" lon="-102.52523749758714"><ele>1992.0</ele><time>2026-03-22T14:07:13Z</time></trkpt><trkpt lat="21.813609951731628" lon="-102.52515881805923"><ele>1992.0</ele><time>2026-03-22T14:07:14Z</time></trkpt><trkpt lat="21.813515774819418" lon="-102.52511175019168"><ele>1993.5</ele><time>2026-03-22T14:07:16Z</time></trkpt><trkpt lat="21.8134154501436" lon="-102.52511119903758"><ele>1995.0</ele><time>2026-03-22T14:07:18Z</time></trkpt><trkpt lat="21.813327016892686" lon="-102.52508641248109"><ele>1996.5</ele><time>2026-03-22T14:07:20Z</time></trkpt><trkpt lat="21.813243752008674" lon="-102.5250718293211"><ele>1998.0</ele><time>2026-03-22T14:07:22Z</time></trkpt><trkpt lat="21.81315625508788" lon="-102.52508318553436"><ele>1999.5</ele><time>2026-03-22T14:07:24Z</time></trkpt><trkpt lat="21.813075943520623" lon="-102.52505260994468"><ele>2001.0</ele><time>2026-03-22T14:07:26Z</time></trkpt><trkpt lat="21.812979531437975" lon="-102.5250426437031"><ele>2001.0</ele><time>2026-03-22T14:07:28Z</time></trkpt><trkpt lat="21.812899049244674" lon="-102.52505773516941"><ele>2001.0</ele><time>2026-03-22T14:07:29Z</time></trkpt><trkpt lat="21.812823465039916" lon="-102.52508934872138"><ele>2001.0</ele><time>2026-03-22T14:07:31Z</time></trkpt><trkpt lat="21.812733513824625" lon="-102.52508029352427"><ele>2001.0</ele><time>2026-03-22T14:07:33Z</time></trkpt><trkpt lat="21.81264786444151" lon="-102.52509269745862"><ele>2001.0</ele><time>2026-03-22T14:07:35Z</time></trkpt><trkpt lat="21.81259227828993" lon="-102.5251817781724"><ele>2001.0</ele><time>2026-03-22T14:07:36Z</time></trkpt><trkpt lat="21.81254381322568" lon="-102.52526334689779"><ele>2002.25</ele><time>2026-03-22T14:07:38Z</time></trkpt><trkpt lat="21.812468246675586" lon="-102.52534146459521"><ele>2003.5</ele><time>2026-03-22T14:07:41Z</time></trkpt><trkpt lat="21.812376992673517" lon="-102.5253015378185"><ele>2004.75</ele><time>2026-03-22T14:07:44Z</time></trkpt><trkpt lat="21.812241406815737" lon="-102.52529488969525"><ele>2006.0</ele><time>2026-03-22T14:07:47Z</time></trkpt><trkpt lat="21.81206445951339" lon="-102.5251913996293"><ele>2006.0</ele><time>2026-03-22T14:07:48Z</time></trkpt><trkpt lat="21.811979695778607" lon="-102.52517940268191"><ele>2006.0</ele><time>2026-03-22T14:07:50Z</time></trkpt><trkpt lat="21.811885414515935" lon="-102.52517038657254"><ele>2006.0</ele><time>2026-03-22T14:07:52Z</time></trkpt><trkpt lat="21.811783953502413" lon="-102.5251608820943"><ele>2006.0</ele><time>2026-03-22T14:07:54Z</time></trkpt><trkpt lat="21.811693940642215" lon="-102.52515000106303"><ele>2006.0</ele><time>2026-03-22T14:07:56Z</time></trkpt><trkpt lat="21.811977726509596" lon="-102.52503618290214"><ele>2008.3333333333333</ele><time>2026-03-22T14:07:57Z</time></trkpt><trkpt lat="21.811718653117218" lon="-102.52534247480779"><ele>2010.6666666666665</ele><time>2026-03-22T14:08:03Z</time></trkpt><trkpt lat="21.811669661003165" lon="-102.52538656107457"><ele>2013.0</ele><time>2026-03-22T14:08:04Z</time></trkpt><trkpt lat="21.81157849941245" lon="-102.52543587714233"><ele>2017.2857142857142</ele><time>2026-03-22T14:08:06Z</time></trkpt><trkpt lat="21.81153260355009" lon="-102.52548838969125"><ele>2021.5714285714284</ele><time>2026-03-22T14:08:08Z</time></trkpt><trkpt lat="21.8114666425124" lon="-102.52548717608819"><ele>2025.8571428571427</ele><time>2026-03-22T14:08:10Z</time></trkpt><trkpt lat="21.81139316251028" lon="-102.52548734520829"><ele>2030.1428571428569</ele><time>2026-03-22T14:08:12Z</time></trkpt><trkpt lat="21.811317102838732" lon="-102.5255137181012"><ele>2034.4285714285713</ele><time>2026-03-22T14:08:14Z</time></trkpt><trkpt lat="21.81125232534978" lon="-102.52553276178234"><ele>2038.7142857142853</ele><time>2026-03-22T14:08:16Z</time></trkpt><trkpt lat="21.81119779207561" lon="-102.52549132814237"><ele>2042.9999999999998</ele><time>2026-03-22T14:08:18Z</time></trkpt><trkpt lat="21.81113156397425" lon="-102.52546737699595"><ele>2043.0</ele><time>2026-03-22T14:08:20Z</time></trkpt><trkpt lat="21.811201535819848" lon="-102.5254342317846"><ele>2043.0000000000002</ele><time>2026-03-22T14:08:21Z</time></trkpt><trkpt lat="21.811125662408458" lon="-102.52546854156824"><ele>2043.0000000000002</ele><time>2026-03-22T14:08:22Z</time></trkpt><trkpt lat="21.811026936246865" lon="-102.52549276652474"><ele>2043.0</ele><time>2026-03-22T14:08:24Z</time></trkpt><trkpt lat="21.81092660761813" lon="-102.52545591752755"><ele>2043.0</ele><time>2026-03-22T14:08:25Z</time></trkpt><trkpt lat="21.81108252628651" lon="-102.52550207499195"><ele>2043.0</ele><time>2026-03-22T14:08:26Z</time></trkpt><trkpt lat="21.811016045650415" lon="-102.52546619697875"><ele>2043.0</ele><time>2026-03-22T14:08:28Z</time></trkpt><trkpt lat="21.81092807551565" lon="-102.52543614853457"><ele>2043.0</ele><time>2026-03-22T14:08:30Z</time></trkpt><trkpt lat="21.810852282344836" lon="-102.52542213670341"><ele>2043.0</ele><time>2026-03-22T14:08:33Z</time></trkpt><trkpt lat="21.810781881026724" lon="-102.52537735247668"><ele>2043.0</ele><time>2026-03-22T14:08:34Z</time></trkpt><trkpt lat="21.81071581202272" lon="-102.5253343037469"><ele>2043.0</ele><time>2026-03-22T14:08:37Z</time></trkpt><trkpt lat="21.810555950853214" lon="-102.52528117657535"><ele>2037.8000000000002</ele><time>2026-03-22T14:08:41Z</time></trkpt><trkpt lat="21.810654114197096" lon="-102.52522450454374"><ele>2032.6000000000001</ele><time>2026-03-22T14:08:43Z</time></trkpt><trkpt lat="21.810737001262414" lon="-102.52516909972749"><ele>2027.3999999999999</ele><time>2026-03-22T14:08:44Z</time></trkpt><trkpt lat="21.810684251829805" lon="-102.52502177530538"><ele>2022.1999999999998</ele><time>2026-03-22T14:08:46Z</time></trkpt><trkpt lat="21.8106553871213" lon="-102.52495561184865"><ele>2017.0</ele><time>2026-03-22T14:08:48Z</time></trkpt><trkpt lat="21.81059461216951" lon="-102.52491251274934"><ele>2017.0000000000002</ele><time>2026-03-22T14:08:50Z</time></trkpt><trkpt lat="21.810585139351407" lon="-102.52478393111808"><ele>2017.0</ele><time>2026-03-22T14:08:52Z</time></trkpt><trkpt lat="21.810515814944143" lon="-102.52476942477247"><ele>2017.0</ele><time>2026-03-22T14:08:54Z</time></trkpt><trkpt lat="21.810428718316945" lon="-102.52474823986414"><ele>2017.0</ele><time>2026-03-22T14:08:55Z</time></trkpt><trkpt lat="21.810383389505706" lon="-102.52480650657215"><ele>2017.0000000000002</ele><time>2026-03-22T14:08:57Z</time></trkpt><trkpt lat="21.810324572922312" lon="-102.52477957434463"><ele>2017.0</ele><time>2026-03-22T14:09:01Z</time></trkpt><trkpt lat="21.81024739234275" lon="-102.52481739720592"><ele>2017.0</ele><time>2026-03-22T14:09:05Z</time></trkpt><trkpt lat="21.810197633077056" lon="-102.5248606038754"><ele>2017.0</ele><time>2026-03-22T14:09:08Z</time></trkpt><trkpt lat="21.80997282413079" lon="-102.52505677705729"><ele>2017.0</ele><time>2026-03-22T14:09:11Z</time></trkpt><trkpt lat="21.809917518152393" lon="-102.52510170106797"><ele>2017.0</ele><time>2026-03-22T14:09:12Z</time></trkpt><trkpt lat="21.80984679650491" lon="-102.52515231313663"><ele>2019.3333333333335</ele><time>2026-03-22T14:09:14Z</time></trkpt><trkpt lat="21.809783591691914" lon="-102.52515998243398"><ele>2021.6666666666667</ele><time>2026-03-22T14:09:15Z</time></trkpt><trkpt lat="21.809703237540468" lon="-102.52520177692018"><ele>2024.0</ele><time>2026-03-22T14:09:17Z</time></trkpt><trkpt lat="21.809626565205484" lon="-102.52522948897399"><ele>2026.3333333333335</ele><time>2026-03-22T14:09:19Z</time></trkpt><trkpt lat="21.809550948215172" lon="-102.5252764449887"><ele>2028.6666666666667</ele><time>2026-03-22T14:09:21Z</time></trkpt><trkpt lat="21.809474832379763" lon="-102.52526633622523"><ele>2031.0</ele><time>2026-03-22T14:09:24Z</time></trkpt><trkpt lat="21.80939339503694" lon="-102.52523941247478"><ele>2029.5</ele><time>2026-03-22T14:09:25Z</time></trkpt><trkpt lat="21.809239556523153" lon="-102.52520305667338"><ele>2028.0</ele><time>2026-03-22T14:09:26Z</time></trkpt><trkpt lat="21.80924126770583" lon="-102.52532318720485"><ele>2026.5</ele><time>2026-03-22T14:09:31Z</time></trkpt><trkpt lat="21.809183400427013" lon="-102.52536963105129"><ele>2025.0</ele><time>2026-03-22T14:09:33Z</time></trkpt><trkpt lat="21.809070472468875" lon="-102.52539797438605"><ele>2027.8333333333333</ele><time>2026-03-22T14:09:36Z</time></trkpt><trkpt lat="21.808982146709297" lon="-102.52548877045568"><ele>2030.6666666666665</ele><time>2026-03-22T14:09:38Z</time></trkpt><trkpt lat="21.808939334158076" lon="-102.52554030655868"><ele>2033.5</ele><time>2026-03-22T14:09:41Z</time></trkpt><trkpt lat="21.808883315593473" lon="-102.52558761753478"><ele>2036.3333333333333</ele><time>2026-03-22T14:09:44Z</time></trkpt><trkpt lat="21.808833773436866" lon="-102.52563937862314"><ele>2039.1666666666665</ele><time>2026-03-22T14:09:47Z</time></trkpt><trkpt lat="21.80875690436548" lon="-102.52563754888705"><ele>2042.0</ele><time>2026-03-22T14:09:48Z</time></trkpt><trkpt lat="21.80871319225272" lon="-102.52570163005477"><ele>2041.9999999999998</ele><time>2026-03-22T14:09:50Z</time></trkpt><trkpt lat="21.80865809124586" lon="-102.52575300653697"><ele>2042.0</ele><time>2026-03-22T14:09:52Z</time></trkpt><trkpt lat="21.808672287850644" lon="-102.52582401579063"><ele>2042.0</ele><time>2026-03-22T14:09:54Z</time></trkpt><trkpt lat="21.808647173731462" lon="-102.5259022973562"><ele>2042.0</ele><time>2026-03-22T14:09:56Z</time></trkpt><trkpt lat="21.808563647415873" lon="-102.52587653203764"><ele>2041.9999999999998</ele><time>2026-03-22T14:09:59Z</time></trkpt><trkpt lat="21.80852944964855" lon="-102.5259517460468"><ele>2042.0</ele><time>2026-03-22T14:10:01Z</time></trkpt><trkpt lat="21.808472190969155" lon="-102.52602846531158"><ele>2041.1999999999998</ele><time>2026-03-22T14:10:03Z</time></trkpt><trkpt lat="21.808418910494083" lon="-102.52606522393893"><ele>2040.3999999999999</ele><time>2026-03-22T14:10:05Z</time></trkpt><trkpt lat="21.80831640690244" lon="-102.52611400786881"><ele>2039.6000000000001</ele><time>2026-03-22T14:10:08Z</time></trkpt><trkpt lat="21.808423894708312" lon="-102.52615813397593"><ele>2038.8000000000002</ele><time>2026-03-22T14:10:22Z</time></trkpt><trkpt lat="21.80836486505928" lon="-102.52626312872809"><ele>2038.0</ele><time>2026-03-22T14:10:24Z</time></trkpt><trkpt lat="21.808290544416913" lon="-102.52635126294305"><ele>2041.5</ele><time>2026-03-22T14:10:26Z</time></trkpt><trkpt lat="21.808256341350436" lon="-102.52641736523904"><ele>2045.0</ele><time>2026-03-22T14:10:28Z</time></trkpt><trkpt lat="21.808156576426086" lon="-102.52658256229543"><ele>2048.5</ele><time>2026-03-22T14:10:30Z</time></trkpt><trkpt lat="21.808117222639922" lon="-102.52664794649945"><ele>2052.0</ele><time>2026-03-22T14:10:34Z</time></trkpt><trkpt lat="21.807827581364855" lon="-102.52662151530107"><ele>2052.0</ele><time>2026-03-22T14:10:38Z</time></trkpt><trkpt lat="21.807747590389685" lon="-102.52663307450753"><ele>2052.0</ele><time>2026-03-22T14:10:41Z</time></trkpt><trkpt lat="21.807654464844056" lon="-102.52663450839434"><ele>2052.0</ele><time>2026-03-22T14:10:43Z</time></trkpt><trkpt lat="21.807577475614202" lon="-102.52663519596642"><ele>2052.0</ele><time>2026-03-22T14:10:45Z</time></trkpt><trkpt lat="21.807508768353326" lon="-102.5266890138612"><ele>2052.0</ele><time>2026-03-22T14:10:47Z</time></trkpt><trkpt lat="21.807420902388763" lon="-102.52671789223669"><ele>2052.0</ele><time>2026-03-22T14:10:49Z</time></trkpt><trkpt lat="21.807329921204836" lon="-102.52671127760638"><ele>2052.0</ele><time>2026-03-22T14:10:51Z</time></trkpt><trkpt lat="21.807238101196454" lon="-102.52671959139079"><ele>2052.0</ele><time>2026-03-22T14:10:53Z</time></trkpt><trkpt lat="21.807206546291603" lon="-102.52679701110505"><ele>2052.0</ele><time>2026-03-22T14:10:54Z</time></trkpt><trkpt lat="21.80714167756419" lon="-102.52678172976044"><ele>2052.0</ele><time>2026-03-22T14:10:55Z</time></trkpt><trkpt lat="21.807141895655636" lon="-102.52667828702607"><ele>2052.0</ele><time>2026-03-22T14:10:56Z</time></trkpt><trkpt lat="21.80708388922205" lon="-102.52664885356579"><ele>2052.0</ele><time>2026-03-22T14:10:57Z</time></trkpt><trkpt lat="21.807011464021638" lon="-102.52663844039343"><ele>2052.0</ele><time>2026-03-22T14:10:59Z</time></trkpt><trkpt lat="21.806924669634498" lon="-102.52661416301227"><ele>2052.0</ele><time>2026-03-22T14:11:01Z</time></trkpt><trkpt lat="21.80683454674235" lon="-102.52659922369334"><ele>2052.0</ele><time>2026-03-22T14:11:03Z</time></trkpt><trkpt lat="21.806759215058722" lon="-102.52660772430959"><ele>2052.0</ele><time>2026-03-22T14:11:04Z</time></trkpt><trkpt lat="21.8066907097806" lon="-102.5265988884184"><ele>2052.0</ele><time>2026-03-22T14:11:05Z</time></trkpt><trkpt lat="21.80658908637375" lon="-102.52656830700074"><ele>2052.0</ele><time>2026-03-22T14:11:07Z</time></trkpt><trkpt lat="21.80647807302354" lon="-102.52655565799127"><ele>2052.5</ele><time>2026-03-22T14:11:09Z</time></trkpt><trkpt lat="21.80636552214149" lon="-102.52651935957826"><ele>2053.0</ele><time>2026-03-22T14:11:11Z</time></trkpt><trkpt lat="21.806300925657393" lon="-102.526508526688"><ele>2053.5</ele><time>2026-03-22T14:11:12Z</time></trkpt><trkpt lat="21.806236355643062" lon="-102.52648450067203"><ele>2054.0</ele><time>2026-03-22T14:11:13Z</time></trkpt><trkpt lat="21.80612682547913" lon="-102.52644567597721"><ele>2054.5</ele><time>2026-03-22T14:11:15Z</time></trkpt><trkpt lat="21.806073359569197" lon="-102.52639575233897"><ele>2055.0</ele><time>2026-03-22T14:11:16Z</time></trkpt><trkpt lat="21.80597195534888" lon="-102.52634711360608"><ele>2055.0</ele><time>2026-03-22T14:11:18Z</time></trkpt><trkpt lat="21.805886350057428" lon="-102.52629645465097"><ele>2055.0</ele><time>2026-03-22T14:11:20Z</time></trkpt><trkpt lat="21.805794854571126" lon="-102.52621543992267"><ele>2055.0</ele><time>2026-03-22T14:11:22Z</time></trkpt><trkpt lat="21.805728630039965" lon="-102.52616402298807"><ele>2055.0</ele><time>2026-03-22T14:11:23Z</time></trkpt><trkpt lat="21.805658072170118" lon="-102.52611761630763"><ele>2055.0</ele><time>2026-03-22T14:11:24Z</time></trkpt><trkpt lat="21.805540205779703" lon="-102.52603423581085"><ele>2052.6</ele><time>2026-03-22T14:11:27Z</time></trkpt><trkpt lat="21.805496439789795" lon="-102.52598348448242"><ele>2050.2</ele><time>2026-03-22T14:11:28Z</time></trkpt><trkpt lat="21.8054931082401" lon="-102.52574784750311"><ele>2047.8000000000002</ele><time>2026-03-22T14:11:29Z</time></trkpt><trkpt lat="21.80541785501394" lon="-102.52569985382567"><ele>2045.4</ele><time>2026-03-22T14:11:30Z</time></trkpt><trkpt lat="21.805347530780676" lon="-102.52571346969565"><ele>2043.0</ele><time>2026-03-22T14:11:31Z</time></trkpt><trkpt lat="21.805238327298646" lon="-102.5257172851605"><ele>2043.0</ele><time>2026-03-22T14:11:33Z</time></trkpt><trkpt lat="21.805177141627812" lon="-102.52567775247762"><ele>2043.0</ele><time>2026-03-22T14:11:34Z</time></trkpt><trkpt lat="21.80511644463322" lon="-102.52563831052908"><ele>2043.0</ele><time>2026-03-22T14:11:35Z</time></trkpt><trkpt lat="21.805025955444297" lon="-102.52566522787835"><ele>2043.0</ele><time>2026-03-22T14:11:37Z</time></trkpt><trkpt lat="21.804959223950142" lon="-102.5256318916233"><ele>2043.0</ele><time>2026-03-22T14:11:38Z</time></trkpt><trkpt lat="21.804900242794883" lon="-102.52558473252954"><ele>2043.0</ele><time>2026-03-22T14:11:39Z</time></trkpt><trkpt lat="21.804832256528996" lon="-102.52554590837963"><ele>2043.2</ele><time>2026-03-22T14:11:40Z</time></trkpt><trkpt lat="21.80476577338201" lon="-102.5255438346503"><ele>2043.4</ele><time>2026-03-22T14:11:41Z</time></trkpt><trkpt lat="21.804657106565227" lon="-102.52547239113146"><ele>2043.6000000000001</ele><time>2026-03-22T14:11:43Z</time></trkpt><trkpt lat="21.804560085765594" lon="-102.52540505669103"><ele>2043.8000000000002</ele><time>2026-03-22T14:11:45Z</time></trkpt><trkpt lat="21.804442377073254" lon="-102.52533875427513"><ele>2044.0</ele><time>2026-03-22T14:11:47Z</time></trkpt><trkpt lat="21.804379601677198" lon="-102.52530397896452"><ele>2045.0</ele><time>2026-03-22T14:11:48Z</time></trkpt><trkpt lat="21.804274427883165" lon="-102.52524531880596"><ele>2046.0</ele><time>2026-03-22T14:11:50Z</time></trkpt><trkpt lat="21.804159792491934" lon="-102.5251737900693"><ele>2047.0</ele><time>2026-03-22T14:11:52Z</time></trkpt><trkpt lat="21.804061034767308" lon="-102.52513401569948"><ele>2048.0</ele><time>2026-03-22T14:11:54Z</time></trkpt><trkpt lat="21.80394864495112" lon="-102.52508229671666"><ele>2048.0</ele><time>2026-03-22T14:11:56Z</time></trkpt><trkpt lat="21.803828077653286" lon="-102.52503041397412"><ele>2048.0</ele><time>2026-03-22T14:11:58Z</time></trkpt><trkpt lat="21.80376040774713" lon="-102.52500416959012"><ele>2048.0</ele><time>2026-03-22T14:11:59Z</time></trkpt><trkpt lat="21.803696150834703" lon="-102.52497326498585"><ele>2048.0</ele><time>2026-03-22T14:12:00Z</time></trkpt><trkpt lat="21.80363561140402" lon="-102.52494975312086"><ele>2048.0</ele><time>2026-03-22T14:12:01Z</time></trkpt><trkpt lat="21.80350448505884" lon="-102.52488236745319"><ele>2046.6000000000001</ele><time>2026-03-22T14:12:03Z</time></trkpt><trkpt lat="21.803437383201246" lon="-102.52483608129135"><ele>2045.2000000000003</ele><time>2026-03-22T14:12:04Z</time></trkpt><trkpt lat="21.803356497346204" lon="-102.52480311450195"><ele>2043.8</ele><time>2026-03-22T14:12:05Z</time></trkpt><trkpt lat="21.803259575465628" lon="-102.52479079609026"><ele>2042.4</ele><time>2026-03-22T14:12:06Z</time></trkpt><trkpt lat="21.803151225024394" lon="-102.5246827864069"><ele>2041.0</ele><time>2026-03-22T14:12:08Z</time></trkpt><trkpt lat="21.803076506836547" lon="-102.52468844170784"><ele>2041.0000000000002</ele><time>2026-03-22T14:12:09Z</time></trkpt><trkpt lat="21.802988487935618" lon="-102.52468719054701"><ele>2041.0</ele><time>2026-03-22T14:12:10Z</time></trkpt><trkpt lat="21.80290167981424" lon="-102.52474283710255"><ele>2041.0</ele><time>2026-03-22T14:12:11Z</time></trkpt><trkpt lat="21.802831067865288" lon="-102.52469284424596"><ele>2041.0</ele><time>2026-03-22T14:12:12Z</time></trkpt><trkpt lat="21.802759413551822" lon="-102.52464383738761"><ele>2041.0000000000002</ele><time>2026-03-22T14:12:13Z</time></trkpt><trkpt lat="21.802688495346484" lon="-102.5246114427594"><ele>2041.0</ele><time>2026-03-22T14:12:14Z</time></trkpt><trkpt lat="21.802601290604343" lon="-102.52457942839605"><ele>2040.1999999999998</ele><time>2026-03-22T14:12:15Z</time></trkpt><trkpt lat="21.8025117389111" lon="-102.52460382912322"><ele>2039.3999999999999</ele><time>2026-03-22T14:12:16Z</time></trkpt><trkpt lat="21.80243430277309" lon="-102.52457157159785"><ele>2038.6</ele><time>2026-03-22T14:12:17Z</time></trkpt><trkpt lat="21.80233288022337" lon="-102.52455686881444"><ele>2037.8</ele><time>2026-03-22T14:12:18Z</time></trkpt><trkpt lat="21.802220206046655" lon="-102.52446760752373"><ele>2037.0</ele><time>2026-03-22T14:12:19Z</time></trkpt><trkpt lat="21.802115972628297" lon="-102.52445310929154"><ele>2037.1999999999998</ele><time>2026-03-22T14:12:20Z</time></trkpt><trkpt lat="21.802010331230857" lon="-102.52441180966194"><ele>2037.3999999999999</ele><time>2026-03-22T14:12:21Z</time></trkpt><trkpt lat="21.80188498798366" lon="-102.52442136117924"><ele>2037.6000000000001</ele><time>2026-03-22T14:12:22Z</time></trkpt><trkpt lat="21.801791018464062" lon="-102.52436747483709"><ele>2037.8000000000002</ele><time>2026-03-22T14:12:23Z</time></trkpt><trkpt lat="21.80168968002136" lon="-102.52436014769377"><ele>2038.0</ele><time>2026-03-22T14:12:24Z</time></trkpt><trkpt lat="21.801600314446596" lon="-102.52433504756372"><ele>2038.0</ele><time>2026-03-22T14:12:25Z</time></trkpt><trkpt lat="21.801504103902452" lon="-102.52431427743176"><ele>2038.0000000000002</ele><time>2026-03-22T14:12:26Z</time></trkpt><trkpt lat="21.801383695557718" lon="-102.52428605422206"><ele>2038.0000000000002</ele><time>2026-03-22T14:12:27Z</time></trkpt><trkpt lat="21.801278718565943" lon="-102.52427374642477"><ele>2038.0</ele><time>2026-03-22T14:12:28Z</time></trkpt><trkpt lat="21.80118197612362" lon="-102.52426201982327"><ele>2038.0</ele><time>2026-03-22T14:12:29Z</time></trkpt><trkpt lat="21.80105777141825" lon="-102.52428160886227"><ele>2036.75</ele><time>2026-03-22T14:12:30Z</time></trkpt><trkpt lat="21.800948667397854" lon="-102.52427716433023"><ele>2035.5</ele><time>2026-03-22T14:12:31Z</time></trkpt><trkpt lat="21.80082128657985" lon="-102.52426931726976"><ele>2034.25</ele><time>2026-03-22T14:12:32Z</time></trkpt><trkpt lat="21.800696172521285" lon="-102.52422782777201"><ele>2033.0</ele><time>2026-03-22T14:12:33Z</time></trkpt><trkpt lat="21.800576139933458" lon="-102.52420763427915"><ele>2033.0</ele><time>2026-03-22T14:12:34Z</time></trkpt><trkpt lat="21.80046780232165" lon="-102.52420403039437"><ele>2033.0</ele><time>2026-03-22T14:12:35Z</time></trkpt><trkpt lat="21.800333874291123" lon="-102.52415628974427"><ele>2033.0</ele><time>2026-03-22T14:12:36Z</time></trkpt><trkpt lat="21.800226308139347" lon="-102.52418722385721"><ele>2033.0</ele><time>2026-03-22T14:12:37Z</time></trkpt><trkpt lat="21.800142440519846" lon="-102.52414459787957"><ele>2033.4</ele><time>2026-03-22T14:12:38Z</time></trkpt><trkpt lat="21.800041968092632" lon="-102.5241195040565"><ele>2033.8000000000002</ele><time>2026-03-22T14:12:39Z</time></trkpt><trkpt lat="21.799936090679775" lon="-102.52408868725654"><ele>2034.2</ele><time>2026-03-22T14:12:40Z</time></trkpt><trkpt lat="21.799834409243562" lon="-102.52408127998967"><ele>2034.6</ele><time>2026-03-22T14:12:41Z</time></trkpt><trkpt lat="21.799740227789897" lon="-102.52409585839669"><ele>2035.0</ele><time>2026-03-22T14:12:42Z</time></trkpt><trkpt lat="21.79965940347328" lon="-102.52410566938315"><ele>2035.0</ele><time>2026-03-22T14:12:43Z</time></trkpt><trkpt lat="21.79956325457823" lon="-102.52410019417927"><ele>2035.0</ele><time>2026-03-22T14:12:44Z</time></trkpt><trkpt lat="21.799466922306877" lon="-102.52405800073143"><ele>2035.0</ele><time>2026-03-22T14:12:45Z</time></trkpt><trkpt lat="21.799371747066164" lon="-102.52402850526126"><ele>2035.0</ele><time>2026-03-22T14:12:46Z</time></trkpt><trkpt lat="21.799274493117814" lon="-102.52407175040996"><ele>2035.0</ele><time>2026-03-22T14:12:47Z</time></trkpt><trkpt lat="21.799178289552113" lon="-102.52414333139406"><ele>2034.3333333333335</ele><time>2026-03-22T14:12:48Z</time></trkpt><trkpt lat="21.799112310021705" lon="-102.52416498188539"><ele>2033.6666666666667</ele><time>2026-03-22T14:12:49Z</time></trkpt><trkpt lat="21.7990385429649" lon="-102.52416873999752"><ele>2033.0</ele><time>2026-03-22T14:12:50Z</time></trkpt><trkpt lat="21.79895638020915" lon="-102.5241628514889"><ele>2032.3333333333335</ele><time>2026-03-22T14:12:51Z</time></trkpt><trkpt lat="21.798869865746013" lon="-102.52411966815033"><ele>2031.6666666666667</ele><time>2026-03-22T14:12:52Z</time></trkpt><trkpt lat="21.798791410452512" lon="-102.52411840241575"><ele>2031.0</ele><time>2026-03-22T14:12:53Z</time></trkpt><trkpt lat="21.79867140357652" lon="-102.5240868358529"><ele>2031.0</ele><time>2026-03-22T14:12:54Z</time></trkpt><trkpt lat="21.798546600978636" lon="-102.52405786120983"><ele>2031.0</ele><time>2026-03-22T14:12:55Z</time></trkpt><trkpt lat="21.798440104371302" lon="-102.52403844440755"><ele>2031.0</ele><time>2026-03-22T14:12:56Z</time></trkpt><trkpt lat="21.79832479188768" lon="-102.5240189723028"><ele>2031.0</ele><time>2026-03-22T14:12:57Z</time></trkpt><trkpt lat="21.79822167584981" lon="-102.5240203169846"><ele>2029.5</ele><time>2026-03-22T14:12:58Z</time></trkpt><trkpt lat="21.79810791299253" lon="-102.52398569623875"><ele>2028.0</ele><time>2026-03-22T14:12:59Z</time></trkpt><trkpt lat="21.79794206352924" lon="-102.52398270863837"><ele>2026.5</ele><time>2026-03-22T14:13:01Z</time></trkpt><trkpt lat="21.797833646987286" lon="-102.52398579115003"><ele>2025.0</ele><time>2026-03-22T14:13:02Z</time></trkpt><trkpt lat="21.797741020772232" lon="-102.523965216882"><ele>2024.4</ele><time>2026-03-22T14:13:03Z</time></trkpt><trkpt lat="21.79763649424567" lon="-102.52395964533251"><ele>2023.8</ele><time>2026-03-22T14:13:04Z</time></trkpt><trkpt lat="21.797528587097787" lon="-102.52398046803944"><ele>2023.1999999999998</ele><time>2026-03-22T14:13:05Z</time></trkpt><trkpt lat="21.797429600637795" lon="-102.52397791657336"><ele>2022.6</ele><time>2026-03-22T14:13:06Z</time></trkpt><trkpt lat="21.797327644056583" lon="-102.5239781629536"><ele>2022.0</ele><time>2026-03-22T14:13:07Z</time></trkpt><trkpt lat="21.797229986248347" lon="-102.5239694091257"><ele>2022.0</ele><time>2026-03-22T14:13:08Z</time></trkpt><trkpt lat="21.797107818970407" lon="-102.52398576594926"><ele>2021.9999999999998</ele><time>2026-03-22T14:13:09Z</time></trkpt><trkpt lat="21.797013846156716" lon="-102.52400156655341"><ele>2021.9999999999998</ele><time>2026-03-22T14:13:10Z</time></trkpt><trkpt lat="21.79690598599669" lon="-102.52399048683048"><ele>2022.0</ele><time>2026-03-22T14:13:11Z</time></trkpt><trkpt lat="21.79679797068332" lon="-102.52398607256944"><ele>2022.0</ele><time>2026-03-22T14:13:12Z</time></trkpt><trkpt lat="21.796690082633482" lon="-102.52398927355446"><ele>2022.0</ele><time>2026-03-22T14:13:13Z</time></trkpt><trkpt lat="21.79658417136219" lon="-102.52399183954138"><ele>2021.9999999999998</ele><time>2026-03-22T14:13:14Z</time></trkpt><trkpt lat="21.796476371936873" lon="-102.52400351084518"><ele>2021.9999999999998</ele><time>2026-03-22T14:13:15Z</time></trkpt><trkpt lat="21.796361706218377" lon="-102.52400426718246"><ele>2022.0</ele><time>2026-03-22T14:13:16Z</time></trkpt><trkpt lat="21.79625191610747" lon="-102.52403698399324"><ele>2022.0</ele><time>2026-03-22T14:13:17Z</time></trkpt><trkpt lat="21.796140836775837" lon="-102.52408544144471"><ele>2022.0</ele><time>2026-03-22T14:13:18Z</time></trkpt><trkpt lat="21.79604536448704" lon="-102.52410548420652"><ele>2021.9999999999998</ele><time>2026-03-22T14:13:19Z</time></trkpt><trkpt lat="21.795937026806993" lon="-102.52412175386553"><ele>2021.9999999999998</ele><time>2026-03-22T14:13:20Z</time></trkpt><trkpt lat="21.795854677735296" lon="-102.52417129864372"><ele>2022.0</ele><time>2026-03-22T14:13:21Z</time></trkpt><trkpt lat="21.795799694902925" lon="-102.52426335737941"><ele>2022.0</ele><time>2026-03-22T14:13:22Z</time></trkpt><trkpt lat="21.79571585508375" lon="-102.52433336050163"><ele>2024.1999999999998</ele><time>2026-03-22T14:13:23Z</time></trkpt><trkpt lat="21.795586160498846" lon="-102.52434007860764"><ele>2026.3999999999999</ele><time>2026-03-22T14:13:25Z</time></trkpt><trkpt lat="21.795499768161278" lon="-102.52441505760092"><ele>2028.6000000000001</ele><time>2026-03-22T14:13:26Z</time></trkpt><trkpt lat="21.795420004976865" lon="-102.52443734101641"><ele>2030.8000000000002</ele><time>2026-03-22T14:13:27Z</time></trkpt><trkpt lat="21.795309633959516" lon="-102.52444154939477"><ele>2033.0</ele><time>2026-03-22T14:13:28Z</time></trkpt><trkpt lat="21.795219095238707" lon="-102.52446144405833"><ele>2035.0</ele><time>2026-03-22T14:13:29Z</time></trkpt><trkpt lat="21.795118851296433" lon="-102.52449228879195"><ele>2037.0000000000002</ele><time>2026-03-22T14:13:30Z</time></trkpt><trkpt lat="21.795023014892998" lon="-102.5245024589111"><ele>2039.0000000000002</ele><time>2026-03-22T14:13:31Z</time></trkpt><trkpt lat="21.7949174330209" lon="-102.52456303485555"><ele>2041.0</ele><time>2026-03-22T14:13:32Z</time></trkpt><trkpt lat="21.794814028087114" lon="-102.52462423532673"><ele>2043.0</ele><time>2026-03-22T14:13:33Z</time></trkpt><trkpt lat="21.79466743089109" lon="-102.52463997784992"><ele>2038.0</ele><time>2026-03-22T14:13:34Z</time></trkpt><trkpt lat="21.794582369273233" lon="-102.52467942291732"><ele>2033.0000000000002</ele><time>2026-03-22T14:13:35Z</time></trkpt><trkpt lat="21.794498508422915" lon="-102.52469725310407"><ele>2028.0000000000002</ele><time>2026-03-22T14:13:36Z</time></trkpt><trkpt lat="21.794426162666028" lon="-102.52479840251236"><ele>2023.0</ele><time>2026-03-22T14:13:37Z</time></trkpt><trkpt lat="21.794317711702845" lon="-102.52480707950919"><ele>2018.0</ele><time>2026-03-22T14:13:38Z</time></trkpt><trkpt lat="21.794266868999006" lon="-102.52485751054233"><ele>2018.0</ele><time>2026-03-22T14:13:39Z</time></trkpt><trkpt lat="21.794184071316774" lon="-102.52485010380875"><ele>2018.0000000000002</ele><time>2026-03-22T14:13:40Z</time></trkpt><trkpt lat="21.794067200014677" lon="-102.52479637691776"><ele>2018.0000000000002</ele><time>2026-03-22T14:13:41Z</time></trkpt><trkpt lat="21.793958005569944" lon="-102.52482249691965"><ele>2018.0</ele><time>2026-03-22T14:13:42Z</time></trkpt><trkpt lat="21.79386181958863" lon="-102.52481815178493"><ele>2018.0</ele><time>2026-03-22T14:13:43Z</time></trkpt><trkpt lat="21.79372963106924" lon="-102.52476887051041"><ele>2018.0</ele><time>2026-03-22T14:13:44Z</time></trkpt><trkpt lat="21.793639423924898" lon="-102.52476097475162"><ele>2018.0000000000002</ele><time>2026-03-22T14:13:45Z</time></trkpt><trkpt lat="21.793544278724998" lon="-102.52472289908982"><ele>2018.0000000000002</ele><time>2026-03-22T14:13:46Z</time></trkpt><trkpt lat="21.793464533058774" lon="-102.52473047526088"><ele>2018.0</ele><time>2026-03-22T14:13:47Z</time></trkpt><trkpt lat="21.793374711818554" lon="-102.52469081299097"><ele>2018.0</ele><time>2026-03-22T14:13:48Z</time></trkpt><trkpt lat="21.793273292702942" lon="-102.52467440441357"><ele>2018.0</ele><time>2026-03-22T14:13:49Z</time></trkpt><trkpt lat="21.793183748173416" lon="-102.52462209827128"><ele>2018.0000000000002</ele><time>2026-03-22T14:13:50Z</time></trkpt><trkpt lat="21.79310137962069" lon="-102.52458443494895"><ele>2018.0000000000002</ele><time>2026-03-22T14:13:51Z</time></trkpt><trkpt lat="21.793034530395293" lon="-102.52451290115651"><ele>2018.0</ele><time>2026-03-22T14:13:52Z</time></trkpt><trkpt lat="21.792947547296514" lon="-102.52446198224868"><ele>2018.0</ele><time>2026-03-22T14:13:53Z</time></trkpt><trkpt lat="21.792879982919136" lon="-102.52439394219897"><ele>2018.3333333333333</ele><time>2026-03-22T14:13:54Z</time></trkpt><trkpt lat="21.7928070892935" lon="-102.52432419038769"><ele>2018.6666666666665</ele><time>2026-03-22T14:13:55Z</time></trkpt><trkpt lat="21.79272920629151" lon="-102.52428404692137"><ele>2019.0</ele><time>2026-03-22T14:13:56Z</time></trkpt><trkpt lat="21.79265447808492" lon="-102.52422017374126"><ele>2019.3333333333335</ele><time>2026-03-22T14:13:57Z</time></trkpt><trkpt lat="21.792597408179486" lon="-102.5241700618189"><ele>2019.6666666666667</ele><time>2026-03-22T14:13:58Z</time></trkpt><trkpt lat="21.792551305291322" lon="-102.52412318877117"><ele>2020.0</ele><time>2026-03-22T14:13:59Z</time></trkpt><trkpt lat="21.79250323985987" lon="-102.52407338203112"><ele>2020.0</ele><time>2026-03-22T14:14:00Z</time></trkpt><trkpt lat="21.79246555235613" lon="-102.52400513296193"><ele>2020.0</ele><time>2026-03-22T14:14:01Z</time></trkpt><trkpt lat="21.792432024466173" lon="-102.52387341282264"><ele>2020.0</ele><time>2026-03-22T14:14:02Z</time></trkpt><trkpt lat="21.79236486297473" lon="-102.52376453695737"><ele>2020.0</ele><time>2026-03-22T14:14:03Z</time></trkpt><trkpt lat="21.792320182944867" lon="-102.5236241169335"><ele>2021.2</ele><time>2026-03-22T14:14:04Z</time></trkpt><trkpt lat="21.792274780180357" lon="-102.52353355320771"><ele>2022.4</ele><time>2026-03-22T14:14:05Z</time></trkpt><trkpt lat="21.79224337167889" lon="-102.52345038230969"><ele>2023.6</ele><time>2026-03-22T14:14:06Z</time></trkpt><trkpt lat="21.79223707071192" lon="-102.52332542596332"><ele>2024.8</ele><time>2026-03-22T14:14:07Z</time></trkpt><trkpt lat="21.7921988590505" lon="-102.52325416085299"><ele>2026.0</ele><time>2026-03-22T14:14:08Z</time></trkpt><trkpt lat="21.792160388306062" lon="-102.52317118334518"><ele>2026.0000000000002</ele><time>2026-03-22T14:14:09Z</time></trkpt><trkpt lat="21.79212861677639" lon="-102.52310528280935"><ele>2026.0</ele><time>2026-03-22T14:14:10Z</time></trkpt><trkpt lat="21.792084081426292" lon="-102.52302997677532"><ele>2026.0</ele><time>2026-03-22T14:14:11Z</time></trkpt><trkpt lat="21.792055259692553" lon="-102.52296641965849"><ele>2026.0</ele><time>2026-03-22T14:14:12Z</time></trkpt><trkpt lat="21.792018187553374" lon="-102.52289960353173"><ele>2026.0000000000002</ele><time>2026-03-22T14:14:13Z</time></trkpt><trkpt lat="21.79200830975394" lon="-102.52279154922071"><ele>2026.0</ele><time>2026-03-22T14:14:14Z</time></trkpt><trkpt lat="21.792087227747228" lon="-102.52260350773666"><ele>2025.8</ele><time>2026-03-22T14:14:15Z</time></trkpt><trkpt lat="21.792137599275147" lon="-102.52249201844488"><ele>2025.6</ele><time>2026-03-22T14:14:16Z</time></trkpt><trkpt lat="21.79209359648812" lon="-102.52241896326441"><ele>2025.4</ele><time>2026-03-22T14:14:17Z</time></trkpt><trkpt lat="21.792062223405" lon="-102.52227946233032"><ele>2025.2</ele><time>2026-03-22T14:14:19Z</time></trkpt><trkpt lat="21.792050902017632" lon="-102.52218412695623"><ele>2025.0</ele><time>2026-03-22T14:14:20Z</time></trkpt><trkpt lat="21.79204302391226" lon="-102.52209404778793"><ele>2025.2</ele><time>2026-03-22T14:14:21Z</time></trkpt><trkpt lat="21.791984602475296" lon="-102.52197230716942"><ele>2025.4</ele><time>2026-03-22T14:14:23Z</time></trkpt><trkpt lat="21.7919543074702" lon="-102.52183327007573"><ele>2025.6</ele><time>2026-03-22T14:14:25Z</time></trkpt><trkpt lat="21.7919322552743" lon="-102.52176375803816"><ele>2025.8</ele><time>2026-03-22T14:14:26Z</time></trkpt><trkpt lat="21.79191887599438" lon="-102.5216829139659"><ele>2026.0</ele><time>2026-03-22T14:14:27Z</time></trkpt><trkpt lat="21.79190560290586" lon="-102.52159039067975"><ele>2026.0000000000002</ele><time>2026-03-22T14:14:28Z</time></trkpt><trkpt lat="21.791906997910992" lon="-102.52151362383435"><ele>2026.0</ele><time>2026-03-22T14:14:29Z</time></trkpt><trkpt lat="21.791894829858972" lon="-102.52143252612946"><ele>2026.0</ele><time>2026-03-22T14:14:30Z</time></trkpt><trkpt lat="21.791882683941385" lon="-102.5213487208505"><ele>2026.0</ele><time>2026-03-22T14:14:31Z</time></trkpt><trkpt lat="21.79187542598136" lon="-102.52126894958357"><ele>2026.0000000000002</ele><time>2026-03-22T14:14:32Z</time></trkpt><trkpt lat="21.79185718910321" lon="-102.52111826830685"><ele>2026.0</ele><time>2026-03-22T14:14:34Z</time></trkpt><trkpt lat="21.791851538588606" lon="-102.5210326154356"><ele>2026.1999999999998</ele><time>2026-03-22T14:14:35Z</time></trkpt><trkpt lat="21.79183657226803" lon="-102.52092256745071"><ele>2026.3999999999999</ele><time>2026-03-22T14:14:37Z</time></trkpt><trkpt lat="21.791829188799056" lon="-102.52084356120203"><ele>2026.6</ele><time>2026-03-22T14:14:38Z</time></trkpt><trkpt lat="21.79180959283327" lon="-102.52067465442217"><ele>2026.8</ele><time>2026-03-22T14:14:40Z</time></trkpt><trkpt lat="21.79179930310131" lon="-102.52060615847356"><ele>2027.0</ele><time>2026-03-22T14:14:41Z</time></trkpt><trkpt lat="21.791714378737833" lon="-102.52058532708497"><ele>2027.0</ele><time>2026-03-22T14:14:42Z</time></trkpt><trkpt lat="21.79170191867652" lon="-102.5205068332646"><ele>2026.9999999999998</ele><time>2026-03-22T14:14:43Z</time></trkpt><trkpt lat="21.791720301596616" lon="-102.52035676604667"><ele>2026.9999999999998</ele><time>2026-03-22T14:14:45Z</time></trkpt><trkpt lat="21.79172552741187" lon="-102.52022486121388"><ele>2027.0</ele><time>2026-03-22T14:14:47Z</time></trkpt><trkpt lat="21.791732536722353" lon="-102.5201520588916"><ele>2027.0</ele><time>2026-03-22T14:14:48Z</time></trkpt><trkpt lat="21.791724796988213" lon="-102.52006582762186"><ele>2027.0</ele><time>2026-03-22T14:14:49Z</time></trkpt><trkpt lat="21.79171887809442" lon="-102.51994975074776"><ele>2026.9999999999998</ele><time>2026-03-22T14:14:51Z</time></trkpt><trkpt lat="21.791701918952217" lon="-102.5198677625268"><ele>2026.9999999999998</ele><time>2026-03-22T14:14:52Z</time></trkpt><trkpt lat="21.791683070881678" lon="-102.51980115638756"><ele>2027.0</ele><time>2026-03-22T14:14:53Z</time></trkpt><trkpt lat="21.791638035237035" lon="-102.5197075021661"><ele>2027.0</ele><time>2026-03-22T14:14:55Z</time></trkpt><trkpt lat="21.791616525027433" lon="-102.51956743324578"><ele>2028.0</ele><time>2026-03-22T14:14:57Z</time></trkpt><trkpt lat="21.791602925994862" lon="-102.51943224804471"><ele>2028.9999999999998</ele><time>2026-03-22T14:14:59Z</time></trkpt><trkpt lat="21.79156566126496" lon="-102.51930026329161"><ele>2029.9999999999998</ele><time>2026-03-22T14:15:01Z</time></trkpt><trkpt lat="21.791535367800144" lon="-102.51937701633457"><ele>2031.0</ele><time>2026-03-22T14:15:05Z</time></trkpt><trkpt lat="21.791496070995436" lon="-102.51928688705907"><ele>2032.0</ele><time>2026-03-22T14:15:07Z</time></trkpt><trkpt lat="21.791404734544127" lon="-102.51929193939937"><ele>2032.0000000000002</ele><time>2026-03-22T14:15:11Z</time></trkpt><trkpt lat="21.791330135854512" lon="-102.51927861526242"><ele>2032.0</ele><time>2026-03-22T14:15:12Z</time></trkpt><trkpt lat="21.791269498735986" lon="-102.51922273085175"><ele>2032.0</ele><time>2026-03-22T14:15:14Z</time></trkpt><trkpt lat="21.791209826060534" lon="-102.51918505683547"><ele>2032.0</ele><time>2026-03-22T14:15:16Z</time></trkpt><trkpt lat="21.791099766607868" lon="-102.51920740116739"><ele>2032.0000000000002</ele><time>2026-03-22T14:15:19Z</time></trkpt><trkpt lat="21.791024320689207" lon="-102.51918773951739"><ele>2032.0</ele><time>2026-03-22T14:15:22Z</time></trkpt><trkpt lat="21.79096029724424" lon="-102.51915507460009"><ele>2031.8333333333335</ele><time>2026-03-22T14:15:23Z</time></trkpt><trkpt lat="21.79087862628026" lon="-102.51913157280933"><ele>2031.6666666666667</ele><time>2026-03-22T14:15:24Z</time></trkpt><trkpt lat="21.790769579680845" lon="-102.51910377643605"><ele>2031.5</ele><time>2026-03-22T14:15:26Z</time></trkpt><trkpt lat="21.7907031207713" lon="-102.51908136454232"><ele>2031.3333333333335</ele><time>2026-03-22T14:15:27Z</time></trkpt><trkpt lat="21.790652611198897" lon="-102.51901533022998"><ele>2031.1666666666667</ele><time>2026-03-22T14:15:28Z</time></trkpt><trkpt lat="21.790591779266293" lon="-102.51897990041785"><ele>2031.0</ele><time>2026-03-22T14:15:29Z</time></trkpt><trkpt lat="21.79050958817856" lon="-102.51897618675933"><ele>2031.0</ele><time>2026-03-22T14:15:30Z</time></trkpt><trkpt lat="21.790396378018368" lon="-102.51893264496455"><ele>2031.0</ele><time>2026-03-22T14:15:32Z</time></trkpt><trkpt lat="21.790311850409942" lon="-102.51888922666046"><ele>2031.0</ele><time>2026-03-22T14:15:34Z</time></trkpt><trkpt lat="21.790200297047562" lon="-102.51891617636727"><ele>2031.0</ele><time>2026-03-22T14:15:37Z</time></trkpt><trkpt lat="21.79014631123942" lon="-102.51886120786244"><ele>2031.0</ele><time>2026-03-22T14:15:39Z</time></trkpt><trkpt lat="21.790078366721044" lon="-102.51885590154156"><ele>2031.0</ele><time>2026-03-22T14:15:43Z</time></trkpt><trkpt lat="21.78999095840025" lon="-102.51879156781513"><ele>2031.0</ele><time>2026-03-22T14:15:45Z</time></trkpt><trkpt lat="21.789925761272382" lon="-102.5187980711605"><ele>2031.0</ele><time>2026-03-22T14:15:49Z</time></trkpt><trkpt lat="21.789841262844917" lon="-102.51877300550021"><ele>2031.0</ele><time>2026-03-22T14:15:52Z</time></trkpt><trkpt lat="21.789741166111348" lon="-102.51877727209765"><ele>2031.0</ele><time>2026-03-22T14:15:56Z</time></trkpt><trkpt lat="21.789695468358214" lon="-102.51871282753756"><ele>2031.0</ele><time>2026-03-22T14:16:00Z</time></trkpt><trkpt lat="21.789623039181862" lon="-102.51873074806234"><ele>2032.8</ele><time>2026-03-22T14:16:04Z</time></trkpt><trkpt lat="21.789558292978494" lon="-102.51872698183567"><ele>2034.6</ele><time>2026-03-22T14:16:06Z</time></trkpt><trkpt lat="21.789417119382616" lon="-102.51872659103185"><ele>2036.4</ele><time>2026-03-22T14:16:09Z</time></trkpt><trkpt lat="21.789344089899576" lon="-102.51869120312399"><ele>2038.2</ele><time>2026-03-22T14:16:12Z</time></trkpt><trkpt lat="21.78926371746714" lon="-102.5187121942324"><ele>2040.0</ele><time>2026-03-22T14:16:13Z</time></trkpt><trkpt lat="21.789303878911653" lon="-102.51851783598204"><ele>2040.2</ele><time>2026-03-22T14:16:14Z</time></trkpt><trkpt lat="21.789162138265056" lon="-102.51851721318513"><ele>2040.4</ele><time>2026-03-22T14:16:17Z</time></trkpt><trkpt lat="21.78909105636169" lon="-102.51853689212602"><ele>2040.6</ele><time>2026-03-22T14:16:20Z</time></trkpt><trkpt lat="21.78899629424805" lon="-102.51857441010655"><ele>2040.8</ele><time>2026-03-22T14:16:21Z</time></trkpt><trkpt lat="21.788927973744165" lon="-102.51861076499483"><ele>2041.0</ele><time>2026-03-22T14:16:22Z</time></trkpt><trkpt lat="21.788865366197655" lon="-102.51862938910634"><ele>2041.0</ele><time>2026-03-22T14:16:23Z</time></trkpt><trkpt lat="21.788791330120848" lon="-102.51864137735328"><ele>2041.0</ele><time>2026-03-22T14:16:24Z</time></trkpt><trkpt lat="21.78851793960924" lon="-102.51865761293017"><ele>2041.0</ele><time>2026-03-22T14:16:27Z</time></trkpt><trkpt lat="21.788406880572378" lon="-102.5186673515423"><ele>2040.75</ele><time>2026-03-22T14:16:28Z</time></trkpt><trkpt lat="21.7882146285328" lon="-102.51872538576673"><ele>2040.5</ele><time>2026-03-22T14:16:29Z</time></trkpt><trkpt lat="21.788113280110437" lon="-102.51875712478213"><ele>2040.25</ele><time>2026-03-22T14:16:30Z</time></trkpt><trkpt lat="21.788009670177768" lon="-102.51878742447663"><ele>2040.0</ele><time>2026-03-22T14:16:31Z</time></trkpt><trkpt lat="21.787902350364053" lon="-102.51881270727236"><ele>2039.5</ele><time>2026-03-22T14:16:32Z</time></trkpt><trkpt lat="21.78771149148482" lon="-102.51895275824867"><ele>2039.0</ele><time>2026-03-22T14:16:33Z</time></trkpt><trkpt lat="21.787490065669033" lon="-102.51896477131886"><ele>2039.0</ele><time>2026-03-22T14:16:34Z</time></trkpt><trkpt lat="21.78721709405206" lon="-102.51884682845862"><ele>2039.0</ele><time>2026-03-22T14:16:35Z</time></trkpt><trkpt lat="21.78708734244051" lon="-102.51887278583858"><ele>2039.0</ele><time>2026-03-22T14:16:36Z</time></trkpt><trkpt lat="21.786979445155026" lon="-102.51883803976278"><ele>2039.0</ele><time>2026-03-22T14:16:37Z</time></trkpt><trkpt lat="21.78686291665729" lon="-102.51880200712384"><ele>2039.0</ele><time>2026-03-22T14:16:38Z</time></trkpt><trkpt lat="21.786624481454556" lon="-102.51832295083835"><ele>2038.6666666666665</ele><time>2026-03-22T14:16:39Z</time></trkpt><trkpt lat="21.786542959893865" lon="-102.51839986200511"><ele>2038.3333333333335</ele><time>2026-03-22T14:16:40Z</time></trkpt><trkpt lat="21.78628015336629" lon="-102.51838890897949"><ele>2038.0</ele><time>2026-03-22T14:16:42Z</time></trkpt><trkpt lat="21.786178819079876" lon="-102.51835429640494"><ele>2038.0</ele><time>2026-03-22T14:16:43Z</time></trkpt><trkpt lat="21.786089562563113" lon="-102.51837626019423"><ele>2038.0000000000002</ele><time>2026-03-22T14:16:44Z</time></trkpt><trkpt lat="21.786003738011402" lon="-102.51837076623937"><ele>2038.0000000000002</ele><time>2026-03-22T14:16:45Z</time></trkpt><trkpt lat="21.785915260360298" lon="-102.51836775573888"><ele>2038.0</ele><time>2026-03-22T14:16:46Z</time></trkpt><trkpt lat="21.785827307790385" lon="-102.51836543592418"><ele>2038.0</ele><time>2026-03-22T14:16:47Z</time></trkpt><trkpt lat="21.785716477440022" lon="-102.51838497565274"><ele>2037.25</ele><time>2026-03-22T14:16:48Z</time></trkpt><trkpt lat="21.785632367386018" lon="-102.51833168346484"><ele>2036.5</ele><time>2026-03-22T14:16:49Z</time></trkpt><trkpt lat="21.78558679183191" lon="-102.51828173237442"><ele>2035.75</ele><time>2026-03-22T14:16:51Z</time></trkpt><trkpt lat="21.785467384592618" lon="-102.51812061739"><ele>2035.0</ele><time>2026-03-22T14:16:52Z</time></trkpt><trkpt lat="21.78536270840928" lon="-102.51815110741776"><ele>2035.0</ele><time>2026-03-22T14:16:53Z</time></trkpt><trkpt lat="21.785255363614425" lon="-102.5182210644688"><ele>2035.0</ele><time>2026-03-22T14:16:54Z</time></trkpt><trkpt lat="21.785133167931082" lon="-102.51832941636697"><ele>2035.0</ele><time>2026-03-22T14:16:55Z</time></trkpt><trkpt lat="21.785024624964414" lon="-102.51832462482112"><ele>2035.0</ele><time>2026-03-22T14:16:56Z</time></trkpt><trkpt lat="21.784921896658762" lon="-102.51831084721513"><ele>2035.5</ele><time>2026-03-22T14:16:57Z</time></trkpt><trkpt lat="21.784820587577478" lon="-102.51830632314955"><ele>2036.0</ele><time>2026-03-22T14:16:58Z</time></trkpt><trkpt lat="21.784723675690476" lon="-102.51830811688347"><ele>2036.5</ele><time>2026-03-22T14:16:59Z</time></trkpt><trkpt lat="21.784564996203407" lon="-102.51825261722401"><ele>2037.0</ele><time>2026-03-22T14:17:00Z</time></trkpt><trkpt lat="21.784474393607162" lon="-102.51823138914547"><ele>2037.0</ele><time>2026-03-22T14:17:01Z</time></trkpt><trkpt lat="21.784358367285297" lon="-102.51822912757444"><ele>2037.0</ele><time>2026-03-22T14:17:02Z</time></trkpt><trkpt lat="21.78424032761176" lon="-102.51810417335507"><ele>2037.0</ele><time>2026-03-22T14:17:03Z</time></trkpt><trkpt lat="21.784103576243233" lon="-102.51804468011758"><ele>2037.0</ele><time>2026-03-22T14:17:04Z</time></trkpt><trkpt lat="21.783958128012532" lon="-102.51799693192488"><ele>2036.0</ele><time>2026-03-22T14:17:05Z</time></trkpt><trkpt lat="21.783847122269492" lon="-102.51794866682864"><ele>2035.0</ele><time>2026-03-22T14:17:06Z</time></trkpt><trkpt lat="21.783732364865784" lon="-102.5178942178821"><ele>2034.0</ele><time>2026-03-22T14:17:07Z</time></trkpt><trkpt lat="21.783624060773374" lon="-102.51785365141922"><ele>2033.0</ele><time>2026-03-22T14:17:08Z</time></trkpt><trkpt lat="21.78352077480174" lon="-102.51783650367271"><ele>2030.5</ele><time>2026-03-22T14:17:09Z</time></trkpt><trkpt lat="21.783400652989314" lon="-102.5177941387167"><ele>2028.0</ele><time>2026-03-22T14:17:10Z</time></trkpt><trkpt lat="21.783265424982464" lon="-102.51779188367146"><ele>2025.5</ele><time>2026-03-22T14:17:11Z</time></trkpt><trkpt lat="21.78308412131323" lon="-102.5177785609322"><ele>2023.0</ele><time>2026-03-22T14:17:12Z</time></trkpt><trkpt lat="21.78305013101309" lon="-102.51765889955789"><ele>2023.0</ele><time>2026-03-22T14:17:13Z</time></trkpt><trkpt lat="21.782930305240757" lon="-102.51761528476072"><ele>2023.0</ele><time>2026-03-22T14:17:14Z</time></trkpt><trkpt lat="21.782828050299386" lon="-102.51758549549174"><ele>2023.0</ele><time>2026-03-22T14:17:15Z</time></trkpt><trkpt lat="21.78272172342554" lon="-102.51754195440338"><ele>2023.0</ele><time>2026-03-22T14:17:16Z</time></trkpt><trkpt lat="21.782615230146735" lon="-102.51750090756215"><ele>2023.0</ele><time>2026-03-22T14:17:17Z</time></trkpt><trkpt lat="21.78250775791238" lon="-102.51746171422842"><ele>2023.0</ele><time>2026-03-22T14:17:18Z</time></trkpt><trkpt lat="21.78240039713858" lon="-102.51741110968537"><ele>2023.0</ele><time>2026-03-22T14:17:19Z</time></trkpt><trkpt lat="21.782293801945535" lon="-102.5173726502676"><ele>2023.0</ele><time>2026-03-22T14:17:20Z</time></trkpt><trkpt lat="21.7821897457176" lon="-102.51732731247891"><ele>2023.0</ele><time>2026-03-22T14:17:21Z</time></trkpt><trkpt lat="21.78209984994001" lon="-102.51727185106408"><ele>2023.0000000000002</ele><time>2026-03-22T14:17:22Z</time></trkpt><trkpt lat="21.781990156543905" lon="-102.51731555504432"><ele>2023.0000000000002</ele><time>2026-03-22T14:17:23Z</time></trkpt><trkpt lat="21.781922183216285" lon="-102.51734508522321"><ele>2023.0</ele><time>2026-03-22T14:17:25Z</time></trkpt><trkpt lat="21.781796211160728" lon="-102.51740820752298"><ele>2023.0</ele><time>2026-03-22T14:17:27Z</time></trkpt><trkpt lat="21.781724521344156" lon="-102.51738425932608"><ele>2022.8000000000002</ele><time>2026-03-22T14:17:28Z</time></trkpt><trkpt lat="21.781732598561558" lon="-102.51726483706965"><ele>2022.6000000000001</ele><time>2026-03-22T14:17:29Z</time></trkpt><trkpt lat="21.78170702104052" lon="-102.51718700962422"><ele>2022.3999999999999</ele><time>2026-03-22T14:17:30Z</time></trkpt><trkpt lat="21.781667229384176" lon="-102.51712611459942"><ele>2022.1999999999998</ele><time>2026-03-22T14:17:31Z</time></trkpt><trkpt lat="21.781605314498393" lon="-102.51699902614462"><ele>2022.0</ele><time>2026-03-22T14:17:33Z</time></trkpt><trkpt lat="21.781565375362366" lon="-102.51692268750625"><ele>2021.5</ele><time>2026-03-22T14:17:34Z</time></trkpt><trkpt lat="21.781529560252455" lon="-102.51684256905571"><ele>2021.0</ele><time>2026-03-22T14:17:35Z</time></trkpt><trkpt lat="21.781506075670553" lon="-102.51677322497461"><ele>2020.5</ele><time>2026-03-22T14:17:36Z</time></trkpt><trkpt lat="21.781490325314856" lon="-102.51669764235794"><ele>2020.0</ele><time>2026-03-22T14:17:37Z</time></trkpt><trkpt lat="21.781451912846684" lon="-102.51658069558304"><ele>2019.5</ele><time>2026-03-22T14:17:39Z</time></trkpt><trkpt lat="21.781411049269487" lon="-102.51651335083072"><ele>2019.0</ele><time>2026-03-22T14:17:40Z</time></trkpt><trkpt lat="21.781379805150717" lon="-102.516444537004"><ele>2019.0</ele><time>2026-03-22T14:17:41Z</time></trkpt><trkpt lat="21.781347238804692" lon="-102.5163756296581"><ele>2019.0</ele><time>2026-03-22T14:17:42Z</time></trkpt><trkpt lat="21.78144686093425" lon="-102.51607541658026"><ele>2019.0</ele><time>2026-03-22T14:17:43Z</time></trkpt><trkpt lat="21.781479897042214" lon="-102.51594744110663"><ele>2018.6666666666665</ele><time>2026-03-22T14:17:44Z</time></trkpt><trkpt lat="21.781693687798036" lon="-102.51571104147264"><ele>2018.3333333333333</ele><time>2026-03-22T14:17:45Z</time></trkpt><trkpt lat="21.781689878616504" lon="-102.51559067634071"><ele>2018.0</ele><time>2026-03-22T14:17:46Z</time></trkpt><trkpt lat="21.781805861732916" lon="-102.51546995533666"><ele>2016.4</ele><time>2026-03-22T14:17:47Z</time></trkpt><trkpt lat="21.781843693265806" lon="-102.51537445356685"><ele>2014.8000000000002</ele><time>2026-03-22T14:17:48Z</time></trkpt><trkpt lat="21.78187367010956" lon="-102.51529268926498"><ele>2013.2</ele><time>2026-03-22T14:17:49Z</time></trkpt><trkpt lat="21.781917960747656" lon="-102.51519400468035"><ele>2011.6</ele><time>2026-03-22T14:17:50Z</time></trkpt><trkpt lat="21.781954606006313" lon="-102.51511959306421"><ele>2010.0</ele><time>2026-03-22T14:17:51Z</time></trkpt><trkpt lat="21.782006754186302" lon="-102.51501559797624"><ele>2010.0</ele><time>2026-03-22T14:17:52Z</time></trkpt><trkpt lat="21.782047043293787" lon="-102.5149172500695"><ele>2010.0</ele><time>2026-03-22T14:17:53Z</time></trkpt><trkpt lat="21.782071729805132" lon="-102.51482833640405"><ele>2010.0</ele><time>2026-03-22T14:17:54Z</time></trkpt><trkpt lat="21.782102195211007" lon="-102.51475520876411"><ele>2010.0</ele><time>2026-03-22T14:17:55Z</time></trkpt><trkpt lat="21.782779462180535" lon="-102.5144936659752"><ele>2012.2</ele><time>2026-03-22T14:17:56Z</time></trkpt><trkpt lat="21.78287472835158" lon="-102.51442577845437"><ele>2014.4</ele><time>2026-03-22T14:17:57Z</time></trkpt><trkpt lat="21.782948662790666" lon="-102.514334030603"><ele>2016.6</ele><time>2026-03-22T14:17:58Z</time></trkpt><trkpt lat="21.782988354670508" lon="-102.51422266630766"><ele>2018.8</ele><time>2026-03-22T14:17:59Z</time></trkpt><trkpt lat="21.782940428906617" lon="-102.51415923445383"><ele>2021.0</ele><time>2026-03-22T14:18:00Z</time></trkpt><trkpt lat="21.782788659505865" lon="-102.51412838554977"><ele>2021.0</ele><time>2026-03-22T14:18:01Z</time></trkpt><trkpt lat="21.782696930739352" lon="-102.51413648382312"><ele>2021.0</ele><time>2026-03-22T14:18:02Z</time></trkpt><trkpt lat="21.7825312110272" lon="-102.51420714990162"><ele>2021.0</ele><time>2026-03-22T14:18:03Z</time></trkpt><trkpt lat="21.782389412845134" lon="-102.51427831431651"><ele>2021.0</ele><time>2026-03-22T14:18:04Z</time></trkpt><trkpt lat="21.78219733843541" lon="-102.51431661445277"><ele>2020.0</ele><time>2026-03-22T14:18:05Z</time></trkpt><trkpt lat="21.782027033989625" lon="-102.51437606856977"><ele>2019.0</ele><time>2026-03-22T14:18:06Z</time></trkpt><trkpt lat="21.781928153859788" lon="-102.51435414177801"><ele>2018.0</ele><time>2026-03-22T14:18:07Z</time></trkpt><trkpt lat="21.78176487644107" lon="-102.51442588072828"><ele>2017.25</ele><time>2026-03-22T14:18:08Z</time></trkpt><trkpt lat="21.781628879396614" lon="-102.51435033611345"><ele>2016.5</ele><time>2026-03-22T14:18:09Z</time></trkpt><trkpt lat="21.781502370113856" lon="-102.51435455363192"><ele>2015.75</ele><time>2026-03-22T14:18:10Z</time></trkpt><trkpt lat="21.781378577914644" lon="-102.51432890900615"><ele>2015.0</ele><time>2026-03-22T14:18:11Z</time></trkpt><trkpt lat="21.781258402520496" lon="-102.51427711193193"><ele>2015.0</ele><time>2026-03-22T14:18:12Z</time></trkpt><trkpt lat="21.78111842716708" lon="-102.51426643497759"><ele>2015.0</ele><time>2026-03-22T14:18:13Z</time></trkpt><trkpt lat="21.780991886674446" lon="-102.51422194501845"><ele>2015.0</ele><time>2026-03-22T14:18:14Z</time></trkpt><trkpt lat="21.78085435906646" lon="-102.51421779282208"><ele>2015.0</ele><time>2026-03-22T14:18:15Z</time></trkpt><trkpt lat="21.78073882251974" lon="-102.51418658977659"><ele>2011.75</ele><time>2026-03-22T14:18:16Z</time></trkpt><trkpt lat="21.780611787338255" lon="-102.5140856259589"><ele>2008.5</ele><time>2026-03-22T14:18:17Z</time></trkpt><trkpt lat="21.780532608188455" lon="-102.51420691910175"><ele>2005.25</ele><time>2026-03-22T14:18:18Z</time></trkpt><trkpt lat="21.780447218550727" lon="-102.51410515251582"><ele>2002.0</ele><time>2026-03-22T14:18:19Z</time></trkpt><trkpt lat="21.780393757475778" lon="-102.51399721842567"><ele>2002.0</ele><time>2026-03-22T14:18:20Z</time></trkpt><trkpt lat="21.78034285466988" lon="-102.51387448350073"><ele>2002.0</ele><time>2026-03-22T14:18:21Z</time></trkpt><trkpt lat="21.7802253966813" lon="-102.51385131627465"><ele>2002.0</ele><time>2026-03-22T14:18:22Z</time></trkpt><trkpt lat="21.78012275492701" lon="-102.51378433413232"><ele>2002.0</ele><time>2026-03-22T14:18:23Z</time></trkpt><trkpt lat="21.78002768605477" lon="-102.51373141446219"><ele>2002.75</ele><time>2026-03-22T14:18:24Z</time></trkpt><trkpt lat="21.77993456890049" lon="-102.51366338401775"><ele>2003.5</ele><time>2026-03-22T14:18:25Z</time></trkpt><trkpt lat="21.779816140511077" lon="-102.51358934349255"><ele>2004.25</ele><time>2026-03-22T14:18:26Z</time></trkpt><trkpt lat="21.77970803846072" lon="-102.51352955423535"><ele>2005.0</ele><time>2026-03-22T14:18:27Z</time></trkpt><trkpt lat="21.779598465523637" lon="-102.51350135411586"><ele>2005.0</ele><time>2026-03-22T14:18:28Z</time></trkpt><trkpt lat="21.779471441030726" lon="-102.51347400246566"><ele>2005.0</ele><time>2026-03-22T14:18:29Z</time></trkpt><trkpt lat="21.779351909775677" lon="-102.51342630735498"><ele>2005.0</ele><time>2026-03-22T14:18:30Z</time></trkpt><trkpt lat="21.779246669222548" lon="-102.51339419701777"><ele>2005.0</ele><time>2026-03-22T14:18:31Z</time></trkpt><trkpt lat="21.7791296128271" lon="-102.51337029483213"><ele>2002.0</ele><time>2026-03-22T14:18:32Z</time></trkpt><trkpt lat="21.77903689713873" lon="-102.5133015923256"><ele>1999.0</ele><time>2026-03-22T14:18:33Z</time></trkpt><trkpt lat="21.778918266202197" lon="-102.51326279403581"><ele>1996.0</ele><time>2026-03-22T14:18:34Z</time></trkpt><trkpt lat="21.778810012807856" lon="-102.51323176625289"><ele>1993.0</ele><time>2026-03-22T14:18:35Z</time></trkpt><trkpt lat="21.778694462765728" lon="-102.51317583299904"><ele>1993.0</ele><time>2026-03-22T14:18:36Z</time></trkpt><trkpt lat="21.778590922303422" lon="-102.51312443044644"><ele>1993.0</ele><time>2026-03-22T14:18:37Z</time></trkpt><trkpt lat="21.77848550440177" lon="-102.51309330314336"><ele>1993.0</ele><time>2026-03-22T14:18:38Z</time></trkpt><trkpt lat="21.778369119898276" lon="-102.51304052355879"><ele>1993.0</ele><time>2026-03-22T14:18:39Z</time></trkpt><trkpt lat="21.778269537104382" lon="-102.51299272261386"><ele>1992.0</ele><time>2026-03-22T14:18:40Z</time></trkpt><trkpt lat="21.778175961067845" lon="-102.51291787162359"><ele>1991.0</ele><time>2026-03-22T14:18:41Z</time></trkpt><trkpt lat="21.7780726402623" lon="-102.51283995918104"><ele>1990.0</ele><time>2026-03-22T14:18:42Z</time></trkpt><trkpt lat="21.77796744263456" lon="-102.5127835491613"><ele>1989.0</ele><time>2026-03-22T14:18:43Z</time></trkpt><trkpt lat="21.777843064209698" lon="-102.5127586395034"><ele>1988.5</ele><time>2026-03-22T14:18:44Z</time></trkpt><trkpt lat="21.777745241890663" lon="-102.51268857253983"><ele>1988.0</ele><time>2026-03-22T14:18:45Z</time></trkpt><trkpt lat="21.77762887868443" lon="-102.51264207390578"><ele>1987.5</ele><time>2026-03-22T14:18:46Z</time></trkpt><trkpt lat="21.77750995268091" lon="-102.51259758246056"><ele>1987.0</ele><time>2026-03-22T14:18:47Z</time></trkpt><trkpt lat="21.777446695795636" lon="-102.51243201658697"><ele>1987.0</ele><time>2026-03-22T14:18:48Z</time></trkpt><trkpt lat="21.777307990803834" lon="-102.5124594799096"><ele>1987.0</ele><time>2026-03-22T14:18:51Z</time></trkpt><trkpt lat="21.77717630224208" lon="-102.51245722285056"><ele>1987.0</ele><time>2026-03-22T14:18:52Z</time></trkpt><trkpt lat="21.777063506063623" lon="-102.51244383948816"><ele>1987.0</ele><time>2026-03-22T14:18:53Z</time></trkpt><trkpt lat="21.776945930802338" lon="-102.5124259475212"><ele>1986.75</ele><time>2026-03-22T14:18:54Z</time></trkpt><trkpt lat="21.776834565552655" lon="-102.51239911768083"><ele>1986.5</ele><time>2026-03-22T14:18:55Z</time></trkpt><trkpt lat="21.77672206670345" lon="-102.5123769388672"><ele>1986.25</ele><time>2026-03-22T14:18:56Z</time></trkpt><trkpt lat="21.776598196082798" lon="-102.51239116056476"><ele>1986.0</ele><time>2026-03-22T14:18:57Z</time></trkpt><trkpt lat="21.776420417747815" lon="-102.51274482864086"><ele>1986.0</ele><time>2026-03-22T14:18:58Z</time></trkpt><trkpt lat="21.776320286210602" lon="-102.5127816186015"><ele>1986.0</ele><time>2026-03-22T14:18:59Z</time></trkpt><trkpt lat="21.776192412976744" lon="-102.51278348874173"><ele>1986.0</ele><time>2026-03-22T14:19:00Z</time></trkpt><trkpt lat="21.776001098085118" lon="-102.51275456258236"><ele>1986.0</ele><time>2026-03-22T14:19:01Z</time></trkpt><trkpt lat="21.7758700950401" lon="-102.51275564151842"><ele>1985.6</ele><time>2026-03-22T14:19:02Z</time></trkpt><trkpt lat="21.775770808658915" lon="-102.51279207098865"><ele>1985.1999999999998</ele><time>2026-03-22T14:19:03Z</time></trkpt><trkpt lat="21.775685269129227" lon="-102.51283778457264"><ele>1984.8000000000002</ele><time>2026-03-22T14:19:04Z</time></trkpt><trkpt lat="21.775573900089505" lon="-102.5128752035715"><ele>1984.4</ele><time>2026-03-22T14:19:05Z</time></trkpt><trkpt lat="21.775472531381922" lon="-102.51285805817217"><ele>1984.0</ele><time>2026-03-22T14:19:06Z</time></trkpt><trkpt lat="21.775350393356305" lon="-102.51285762612282"><ele>1982.6666666666667</ele><time>2026-03-22T14:19:07Z</time></trkpt><trkpt lat="21.77517579516969" lon="-102.51283952238043"><ele>1981.3333333333335</ele><time>2026-03-22T14:19:08Z</time></trkpt><trkpt lat="21.775029625595245" lon="-102.5128123297747"><ele>1980.0</ele><time>2026-03-22T14:19:09Z</time></trkpt><trkpt lat="21.774888510486793" lon="-102.51281975782588"><ele>1980.0</ele><time>2026-03-22T14:19:10Z</time></trkpt><trkpt lat="21.774766559273004" lon="-102.5128477107539"><ele>1980.0</ele><time>2026-03-22T14:19:11Z</time></trkpt><trkpt lat="21.77463853167553" lon="-102.51287373855773"><ele>1980.0</ele><time>2026-03-22T14:19:12Z</time></trkpt><trkpt lat="21.77453017525263" lon="-102.5128922894863"><ele>1980.0</ele><time>2026-03-22T14:19:13Z</time></trkpt><trkpt lat="21.774427054548635" lon="-102.51290868237464"><ele>1979.5</ele><time>2026-03-22T14:19:14Z</time></trkpt><trkpt lat="21.774310059786202" lon="-102.51290382448059"><ele>1979.0</ele><time>2026-03-22T14:19:15Z</time></trkpt><trkpt lat="21.7741576650034" lon="-102.51289167870655"><ele>1978.5</ele><time>2026-03-22T14:19:16Z</time></trkpt><trkpt lat="21.77403387176654" lon="-102.51288198508875"><ele>1978.0</ele><time>2026-03-22T14:19:17Z</time></trkpt><trkpt lat="21.773889661251648" lon="-102.51288018564026"><ele>1977.5</ele><time>2026-03-22T14:19:18Z</time></trkpt><trkpt lat="21.773796196349597" lon="-102.51290889697002"><ele>1977.0</ele><time>2026-03-22T14:19:19Z</time></trkpt><trkpt lat="21.773690536462617" lon="-102.51293832835759"><ele>1976.5</ele><time>2026-03-22T14:19:20Z</time></trkpt><trkpt lat="21.773517656387778" lon="-102.51292472314043"><ele>1976.0</ele><time>2026-03-22T14:19:21Z</time></trkpt><trkpt lat="21.773390794964833" lon="-102.51293110938144"><ele>1974.0</ele><time>2026-03-22T14:19:22Z</time></trkpt><trkpt lat="21.773232879142952" lon="-102.51290222710561"><ele>1972.0</ele><time>2026-03-22T14:19:23Z</time></trkpt><trkpt lat="21.77308680103102" lon="-102.51289238422024"><ele>1970.0</ele><time>2026-03-22T14:19:24Z</time></trkpt><trkpt lat="21.772932831561615" lon="-102.51289036823184"><ele>1970.5</ele><time>2026-03-22T14:19:25Z</time></trkpt><trkpt lat="21.772832956129225" lon="-102.51294036891797"><ele>1971.0</ele><time>2026-03-22T14:19:26Z</time></trkpt><trkpt lat="21.772715543127784" lon="-102.51296550955554"><ele>1971.5</ele><time>2026-03-22T14:19:27Z</time></trkpt><trkpt lat="21.772582508217106" lon="-102.51294809890273"><ele>1972.0</ele><time>2026-03-22T14:19:28Z</time></trkpt><trkpt lat="21.772438806683116" lon="-102.51293624443213"><ele>1972.0</ele><time>2026-03-22T14:19:29Z</time></trkpt><trkpt lat="21.772316507329666" lon="-102.5129401507011"><ele>1972.0</ele><time>2026-03-22T14:19:30Z</time></trkpt><trkpt lat="21.77220142868712" lon="-102.51295947125669"><ele>1972.0</ele><time>2026-03-22T14:19:31Z</time></trkpt><trkpt lat="21.772080594876275" lon="-102.5129707614065"><ele>1972.0</ele><time>2026-03-22T14:19:32Z</time></trkpt><trkpt lat="21.771957729472682" lon="-102.51297381044218"><ele>1971.0</ele><time>2026-03-22T14:19:33Z</time></trkpt><trkpt lat="21.771817729064335" lon="-102.51298630082069"><ele>1970.0</ele><time>2026-03-22T14:19:34Z</time></trkpt><trkpt lat="21.771705225177797" lon="-102.51299781803016"><ele>1969.0</ele><time>2026-03-22T14:19:35Z</time></trkpt><trkpt lat="21.771577406777" lon="-102.51301536457464"><ele>1968.0</ele><time>2026-03-22T14:19:36Z</time></trkpt><trkpt lat="21.77145349890157" lon="-102.513023067467"><ele>1968.0</ele><time>2026-03-22T14:19:37Z</time></trkpt><trkpt lat="21.771316078715557" lon="-102.51300720819475"><ele>1968.0</ele><time>2026-03-22T14:19:38Z</time></trkpt><trkpt lat="21.77118650366875" lon="-102.51300005315811"><ele>1968.0</ele><time>2026-03-22T14:19:39Z</time></trkpt><trkpt lat="21.77106949659799" lon="-102.51298558903122"><ele>1968.0</ele><time>2026-03-22T14:19:40Z</time></trkpt><trkpt lat="21.770939715594377" lon="-102.51298597056136"><ele>1966.0</ele><time>2026-03-22T14:19:41Z</time></trkpt><trkpt lat="21.77079874342124" lon="-102.51277718705093"><ele>1964.0</ele><time>2026-03-22T14:19:42Z</time></trkpt><trkpt lat="21.77066766573887" lon="-102.51278385693948"><ele>1962.0</ele><time>2026-03-22T14:19:43Z</time></trkpt><trkpt lat="21.77056251256408" lon="-102.51276154315423"><ele>1962.0</ele><time>2026-03-22T14:19:44Z</time></trkpt><trkpt lat="21.770412624742615" lon="-102.51277845878721"><ele>1962.0</ele><time>2026-03-22T14:19:45Z</time></trkpt><trkpt lat="21.770294493428207" lon="-102.51278365710996"><ele>1962.0</ele><time>2026-03-22T14:19:46Z</time></trkpt><trkpt lat="21.77016759135038" lon="-102.51279023065412"><ele>1962.0</ele><time>2026-03-22T14:19:47Z</time></trkpt><trkpt lat="21.770043210964577" lon="-102.5127965665446"><ele>1962.0</ele><time>2026-03-22T14:19:48Z</time></trkpt><trkpt lat="21.769916754283745" lon="-102.51279121519846"><ele>1962.0</ele><time>2026-03-22T14:19:50Z</time></trkpt><trkpt lat="21.7698427575682" lon="-102.51281782525415"><ele>1962.0</ele><time>2026-03-22T14:19:51Z</time></trkpt><trkpt lat="21.769711979050882" lon="-102.51281343940487"><ele>1962.0</ele><time>2026-03-22T14:19:52Z</time></trkpt><trkpt lat="21.769596209793374" lon="-102.51280136166028"><ele>1962.0</ele><time>2026-03-22T14:19:53Z</time></trkpt><trkpt lat="21.769489642828745" lon="-102.51281096738947"><ele>1962.0</ele><time>2026-03-22T14:19:54Z</time></trkpt><trkpt lat="21.769355288419728" lon="-102.51282140599616"><ele>1962.0</ele><time>2026-03-22T14:19:55Z</time></trkpt><trkpt lat="21.76924653139788" lon="-102.51284206598747"><ele>1962.0</ele><time>2026-03-22T14:19:56Z</time></trkpt><trkpt lat="21.76912760276724" lon="-102.51284072223936"><ele>1961.0</ele><time>2026-03-22T14:19:57Z</time></trkpt><trkpt lat="21.76900830052298" lon="-102.51282867136017"><ele>1960.0</ele><time>2026-03-22T14:19:58Z</time></trkpt><trkpt lat="21.76887751844457" lon="-102.5128345138942"><ele>1959.0</ele><time>2026-03-22T14:19:59Z</time></trkpt><trkpt lat="21.768767587832777" lon="-102.51285065140772"><ele>1958.0</ele><time>2026-03-22T14:20:00Z</time></trkpt><trkpt lat="21.76867051322366" lon="-102.51285781544439"><ele>1958.0</ele><time>2026-03-22T14:20:01Z</time></trkpt><trkpt lat="21.76854373112712" lon="-102.51287370443549"><ele>1958.0</ele><time>2026-03-22T14:20:02Z</time></trkpt><trkpt lat="21.768430456149527" lon="-102.51290473260036"><ele>1958.0</ele><time>2026-03-22T14:20:03Z</time></trkpt><trkpt lat="21.768307002754696" lon="-102.5129085272173"><ele>1958.0</ele><time>2026-03-22T14:20:04Z</time></trkpt><trkpt lat="21.76818104997939" lon="-102.51291745430888"><ele>1958.5</ele><time>2026-03-22T14:20:05Z</time></trkpt><trkpt lat="21.76806438161204" lon="-102.51290620542278"><ele>1959.0</ele><time>2026-03-22T14:20:06Z</time></trkpt><trkpt lat="21.767932922430212" lon="-102.51291288674501"><ele>1959.5</ele><time>2026-03-22T14:20:07Z</time></trkpt><trkpt lat="21.767805950722018" lon="-102.51291880980142"><ele>1960.0</ele><time>2026-03-22T14:20:08Z</time></trkpt><trkpt lat="21.767673645571197" lon="-102.51292552528558"><ele>1959.0</ele><time>2026-03-22T14:20:09Z</time></trkpt><trkpt lat="21.767543070460537" lon="-102.5129304132316"><ele>1958.0</ele><time>2026-03-22T14:20:10Z</time></trkpt><trkpt lat="21.767413677192057" lon="-102.51293753320348"><ele>1957.0</ele><time>2026-03-22T14:20:11Z</time></trkpt><trkpt lat="21.76726687251841" lon="-102.51293508190031"><ele>1956.0</ele><time>2026-03-22T14:20:12Z</time></trkpt><trkpt lat="21.767141595667265" lon="-102.5129331996121"><ele>1956.0</ele><time>2026-03-22T14:20:13Z</time></trkpt><trkpt lat="21.76702125749538" lon="-102.51292995027968"><ele>1956.0</ele><time>2026-03-22T14:20:14Z</time></trkpt><trkpt lat="21.76692718355967" lon="-102.51286120802564"><ele>1956.0</ele><time>2026-03-22T14:20:15Z</time></trkpt><trkpt lat="21.766787925306705" lon="-102.51277836370313"><ele>1956.0</ele><time>2026-03-22T14:20:16Z</time></trkpt><trkpt lat="21.76669228699342" lon="-102.51276264831453"><ele>1955.5</ele><time>2026-03-22T14:20:17Z</time></trkpt><trkpt lat="21.76659050174094" lon="-102.51269280702932"><ele>1955.0</ele><time>2026-03-22T14:20:18Z</time></trkpt><trkpt lat="21.76646892061117" lon="-102.51262126765407"><ele>1954.5</ele><time>2026-03-22T14:20:19Z</time></trkpt><trkpt lat="21.76637888075806" lon="-102.51255672923944"><ele>1954.0</ele><time>2026-03-22T14:20:20Z</time></trkpt><trkpt lat="21.766289429816595" lon="-102.51248982642913"><ele>1954.0</ele><time>2026-03-22T14:20:21Z</time></trkpt><trkpt lat="21.76624147646935" lon="-102.51238351165158"><ele>1954.0</ele><time>2026-03-22T14:20:22Z</time></trkpt><trkpt lat="21.766169330367013" lon="-102.51227128947225"><ele>1954.0</ele><time>2026-03-22T14:20:23Z</time></trkpt><trkpt lat="21.76610091189567" lon="-102.51218245186023"><ele>1954.0</ele><time>2026-03-22T14:20:24Z</time></trkpt><trkpt lat="21.766106540123978" lon="-102.512050700027"><ele>1953.6</ele><time>2026-03-22T14:20:25Z</time></trkpt><trkpt lat="21.766097469553664" lon="-102.5119826368315"><ele>1953.2</ele><time>2026-03-22T14:20:26Z</time></trkpt><trkpt lat="21.76610854681633" lon="-102.51189857182119"><ele>1952.7999999999997</ele><time>2026-03-22T14:20:27Z</time></trkpt><trkpt lat="21.76611378253049" lon="-102.51179485654187"><ele>1952.3999999999999</ele><time>2026-03-22T14:20:28Z</time></trkpt><trkpt lat="21.76611454671245" lon="-102.51165073393523"><ele>1952.0</ele><time>2026-03-22T14:20:29Z</time></trkpt><trkpt lat="21.76611041515962" lon="-102.51156296527658"><ele>1952.0</ele><time>2026-03-22T14:20:30Z</time></trkpt><trkpt lat="21.766103810399436" lon="-102.51144216849211"><ele>1952.0</ele><time>2026-03-22T14:20:31Z</time></trkpt><trkpt lat="21.766120966690256" lon="-102.51128118748034"><ele>1952.0</ele><time>2026-03-22T14:20:33Z</time></trkpt><trkpt lat="21.766172393244158" lon="-102.5111411992313"><ele>1952.0</ele><time>2026-03-22T14:20:34Z</time></trkpt><trkpt lat="21.766262203239425" lon="-102.51093812525488"><ele>1951.25</ele><time>2026-03-22T14:20:35Z</time></trkpt><trkpt lat="21.76637681048259" lon="-102.51081419338448"><ele>1950.5</ele><time>2026-03-22T14:20:36Z</time></trkpt><trkpt lat="21.766376729856297" lon="-102.51074509922366"><ele>1949.75</ele><time>2026-03-22T14:20:37Z</time></trkpt><trkpt lat="21.766403609039084" lon="-102.51064517454613"><ele>1949.0</ele><time>2026-03-22T14:20:38Z</time></trkpt><trkpt lat="21.76643178867679" lon="-102.51050990280271"><ele>1949.0</ele><time>2026-03-22T14:20:39Z</time></trkpt><trkpt lat="21.76641311732514" lon="-102.51042074270089"><ele>1949.0</ele><time>2026-03-22T14:20:40Z</time></trkpt><trkpt lat="21.766405592801334" lon="-102.51029472850261"><ele>1949.0</ele><time>2026-03-22T14:20:41Z</time></trkpt><trkpt lat="21.766449982667886" lon="-102.51017029480118"><ele>1949.0</ele><time>2026-03-22T14:20:42Z</time></trkpt><trkpt lat="21.7664992923708" lon="-102.51005225362405"><ele>1949.0</ele><time>2026-03-22T14:20:43Z</time></trkpt><trkpt lat="21.766530090178925" lon="-102.50993357201662"><ele>1949.0</ele><time>2026-03-22T14:20:44Z</time></trkpt><trkpt lat="21.766543432870606" lon="-102.50982320421316"><ele>1949.0</ele><time>2026-03-22T14:20:45Z</time></trkpt><trkpt lat="21.766524156584044" lon="-102.50969828587124"><ele>1949.0</ele><time>2026-03-22T14:20:46Z</time></trkpt><trkpt lat="21.76662523306158" lon="-102.50951863976097"><ele>1949.0</ele><time>2026-03-22T14:20:47Z</time></trkpt><trkpt lat="21.76670918240367" lon="-102.50935244504603"><ele>1947.0</ele><time>2026-03-22T14:20:48Z</time></trkpt><trkpt lat="21.7669868617998" lon="-102.50923745327728"><ele>1945.0</ele><time>2026-03-22T14:20:49Z</time></trkpt><trkpt lat="21.767004198821127" lon="-102.50913095460443"><ele>1943.0</ele><time>2026-03-22T14:20:50Z</time></trkpt><trkpt lat="21.76701972752858" lon="-102.50902230167685"><ele>1943.0</ele><time>2026-03-22T14:20:51Z</time></trkpt><trkpt lat="21.7670447333699" lon="-102.50891463980527"><ele>1943.0000000000002</ele><time>2026-03-22T14:20:52Z</time></trkpt><trkpt lat="21.767064276547625" lon="-102.50881947711785"><ele>1943.0000000000002</ele><time>2026-03-22T14:20:53Z</time></trkpt><trkpt lat="21.76708511639583" lon="-102.50873137033749"><ele>1943.0</ele><time>2026-03-22T14:20:54Z</time></trkpt><trkpt lat="21.767102228529183" lon="-102.50863160002996"><ele>1943.0</ele><time>2026-03-22T14:20:55Z</time></trkpt><trkpt lat="21.76712361217347" lon="-102.50852719107856"><ele>1942.4</ele><time>2026-03-22T14:20:56Z</time></trkpt><trkpt lat="21.76711299818132" lon="-102.5084412982525"><ele>1941.8000000000002</ele><time>2026-03-22T14:20:57Z</time></trkpt><trkpt lat="21.76710995494044" lon="-102.5083396386957"><ele>1941.2</ele><time>2026-03-22T14:20:58Z</time></trkpt><trkpt lat="21.767103248043266" lon="-102.50824602645415"><ele>1940.6</ele><time>2026-03-22T14:20:59Z</time></trkpt><trkpt lat="21.767071450619447" lon="-102.50810559046407"><ele>1940.0</ele><time>2026-03-22T14:21:01Z</time></trkpt><trkpt lat="21.767057979925447" lon="-102.5080345355124"><ele>1940.0</ele><time>2026-03-22T14:21:02Z</time></trkpt><trkpt lat="21.766990240612134" lon="-102.50793197131821"><ele>1940.0</ele><time>2026-03-22T14:21:03Z</time></trkpt><trkpt lat="21.766944756514427" lon="-102.50784274868543"><ele>1940.0</ele><time>2026-03-22T14:21:04Z</time></trkpt><trkpt lat="21.76680178904382" lon="-102.50769661264779"><ele>1940.0</ele><time>2026-03-22T14:21:05Z</time></trkpt><trkpt lat="21.766723797793205" lon="-102.50760292454616"><ele>1941.0</ele><time>2026-03-22T14:21:06Z</time></trkpt><trkpt lat="21.76658879299899" lon="-102.50743883440856"><ele>1942.0</ele><time>2026-03-22T14:21:07Z</time></trkpt><trkpt lat="21.76649344200152" lon="-102.50730505328023"><ele>1943.0</ele><time>2026-03-22T14:21:08Z</time></trkpt><trkpt lat="21.766422095114045" lon="-102.50720639853562"><ele>1943.0</ele><time>2026-03-22T14:21:09Z</time></trkpt><trkpt lat="21.766368452962237" lon="-102.50714757891842"><ele>1943.0000000000002</ele><time>2026-03-22T14:21:10Z</time></trkpt><trkpt lat="21.766302517092363" lon="-102.5070640645626"><ele>1943.0000000000002</ele><time>2026-03-22T14:21:11Z</time></trkpt><trkpt lat="21.76622922207428" lon="-102.50696510116002"><ele>1943.0</ele><time>2026-03-22T14:21:12Z</time></trkpt><trkpt lat="21.76615111821557" lon="-102.50687077380431"><ele>1943.0</ele><time>2026-03-22T14:21:13Z</time></trkpt><trkpt lat="21.766082016044813" lon="-102.50680107131485"><ele>1943.6000000000001</ele><time>2026-03-22T14:21:14Z</time></trkpt><trkpt lat="21.765996336713894" lon="-102.50670199537053"><ele>1944.2000000000003</ele><time>2026-03-22T14:21:15Z</time></trkpt><trkpt lat="21.765928505297868" lon="-102.50661618008269"><ele>1944.8</ele><time>2026-03-22T14:21:16Z</time></trkpt><trkpt lat="21.765856508124454" lon="-102.5065491814183"><ele>1945.4</ele><time>2026-03-22T14:21:17Z</time></trkpt><trkpt lat="21.76579635918507" lon="-102.50649059033388"><ele>1946.0</ele><time>2026-03-22T14:21:18Z</time></trkpt><trkpt lat="21.765732546137407" lon="-102.50641025741977"><ele>1946.0</ele><time>2026-03-22T14:21:19Z</time></trkpt><trkpt lat="21.765658575427643" lon="-102.5063335896705"><ele>1946.0</ele><time>2026-03-22T14:21:20Z</time></trkpt><trkpt lat="21.765571930623057" lon="-102.50625430221713"><ele>1946.0</ele><time>2026-03-22T14:21:21Z</time></trkpt><trkpt lat="21.765512604843" lon="-102.50615894689831"><ele>1946.0</ele><time>2026-03-22T14:21:22Z</time></trkpt><trkpt lat="21.765439651195063" lon="-102.5060706050234"><ele>1946.0</ele><time>2026-03-22T14:21:23Z</time></trkpt><trkpt lat="21.765350471846318" lon="-102.5059636623365"><ele>1945.6</ele><time>2026-03-22T14:21:24Z</time></trkpt><trkpt lat="21.76528379804128" lon="-102.50587922743097"><ele>1945.1999999999998</ele><time>2026-03-22T14:21:25Z</time></trkpt><trkpt lat="21.76520947697999" lon="-102.50578469318147"><ele>1944.8000000000002</ele><time>2026-03-22T14:21:26Z</time></trkpt><trkpt lat="21.765141088032763" lon="-102.50569821524527"><ele>1944.4</ele><time>2026-03-22T14:21:27Z</time></trkpt><trkpt lat="21.76507198543505" lon="-102.50561091216741"><ele>1944.0</ele><time>2026-03-22T14:21:28Z</time></trkpt><trkpt lat="21.76500226302656" lon="-102.50552319390853"><ele>1944.0</ele><time>2026-03-22T14:21:29Z</time></trkpt><trkpt lat="21.764905714639266" lon="-102.50542682398144"><ele>1944.0</ele><time>2026-03-22T14:21:30Z</time></trkpt><trkpt lat="21.764794596202176" lon="-102.50528371398325"><ele>1944.0</ele><time>2026-03-22T14:21:31Z</time></trkpt><trkpt lat="21.764678671162187" lon="-102.5051541395809"><ele>1941.5</ele><time>2026-03-22T14:21:32Z</time></trkpt><trkpt lat="21.764569660161225" lon="-102.50501555938611"><ele>1939.0</ele><time>2026-03-22T14:21:34Z</time></trkpt><trkpt lat="21.764494641257315" lon="-102.50492370871798"><ele>1936.5</ele><time>2026-03-22T14:21:35Z</time></trkpt><trkpt lat="21.764443684731848" lon="-102.50486104861793"><ele>1934.0</ele><time>2026-03-22T14:21:36Z</time></trkpt><trkpt lat="21.76435808672593" lon="-102.50475632615972"><ele>1934.0</ele><time>2026-03-22T14:21:37Z</time></trkpt><trkpt lat="21.76426295219213" lon="-102.5046490892212"><ele>1934.0</ele><time>2026-03-22T14:21:38Z</time></trkpt><trkpt lat="21.764167443519963" lon="-102.5045334763423"><ele>1934.0</ele><time>2026-03-22T14:21:39Z</time></trkpt><trkpt lat="21.764071945766663" lon="-102.50442364458391"><ele>1934.0</ele><time>2026-03-22T14:21:40Z</time></trkpt><trkpt lat="21.763960285055628" lon="-102.50431661534856"><ele>1931.3333333333333</ele><time>2026-03-22T14:21:41Z</time></trkpt><trkpt lat="21.763859858381625" lon="-102.50419671027132"><ele>1928.6666666666665</ele><time>2026-03-22T14:21:42Z</time></trkpt><trkpt lat="21.763780318016522" lon="-102.50407826886367"><ele>1926.0</ele><time>2026-03-22T14:21:43Z</time></trkpt><trkpt lat="21.763667698579717" lon="-102.50393915732094"><ele>1926.0</ele><time>2026-03-22T14:21:44Z</time></trkpt><trkpt lat="21.763577866854423" lon="-102.50382800781131"><ele>1926.0</ele><time>2026-03-22T14:21:45Z</time></trkpt><trkpt lat="21.763512493924118" lon="-102.50374625365349"><ele>1926.0</ele><time>2026-03-22T14:21:46Z</time></trkpt><trkpt lat="21.763431662725555" lon="-102.50364471078402"><ele>1926.0</ele><time>2026-03-22T14:21:47Z</time></trkpt><trkpt lat="21.763335333396668" lon="-102.50352369825433"><ele>1923.3333333333335</ele><time>2026-03-22T14:21:48Z</time></trkpt><trkpt lat="21.763227819696898" lon="-102.50341764514337"><ele>1920.6666666666667</ele><time>2026-03-22T14:21:49Z</time></trkpt><trkpt lat="21.76314595702628" lon="-102.50326859658612"><ele>1918.0</ele><time>2026-03-22T14:21:50Z</time></trkpt><trkpt lat="21.763051760139167" lon="-102.50313697382347"><ele>1918.0</ele><time>2026-03-22T14:21:51Z</time></trkpt><trkpt lat="21.762955837636593" lon="-102.5029945110598"><ele>1918.0</ele><time>2026-03-22T14:21:52Z</time></trkpt><trkpt lat="21.76286233751946" lon="-102.50284321152618"><ele>1918.0</ele><time>2026-03-22T14:21:53Z</time></trkpt><trkpt lat="21.762766239699143" lon="-102.50268730056233"><ele>1916.75</ele><time>2026-03-22T14:21:54Z</time></trkpt><trkpt lat="21.76266940667452" lon="-102.50256066477435"><ele>1915.5</ele><time>2026-03-22T14:21:55Z</time></trkpt><trkpt lat="21.762532905351254" lon="-102.50258234154218"><ele>1914.25</ele><time>2026-03-22T14:21:56Z</time></trkpt><trkpt lat="21.762397714686944" lon="-102.50260382450365"><ele>1913.0</ele><time>2026-03-22T14:21:57Z</time></trkpt><trkpt lat="21.762298502044693" lon="-102.50242406079593"><ele>1913.0</ele><time>2026-03-22T14:21:58Z</time></trkpt><trkpt lat="21.762245329825692" lon="-102.50228629387371"><ele>1913.0</ele><time>2026-03-22T14:21:59Z</time></trkpt><trkpt lat="21.762156092821883" lon="-102.50218461702482"><ele>1913.0</ele><time>2026-03-22T14:22:00Z</time></trkpt><trkpt lat="21.76206933092203" lon="-102.50207324545013"><ele>1913.0</ele><time>2026-03-22T14:22:01Z</time></trkpt><trkpt lat="21.761986947788895" lon="-102.50195104929934"><ele>1913.25</ele><time>2026-03-22T14:22:02Z</time></trkpt><trkpt lat="21.761909894425038" lon="-102.50182896405278"><ele>1913.5</ele><time>2026-03-22T14:22:03Z</time></trkpt><trkpt lat="21.761836932410834" lon="-102.5017242150745"><ele>1913.75</ele><time>2026-03-22T14:22:04Z</time></trkpt><trkpt lat="21.76176873313247" lon="-102.50162129841753"><ele>1914.0</ele><time>2026-03-22T14:22:05Z</time></trkpt><trkpt lat="21.761694893734102" lon="-102.50149473320482"><ele>1912.6666666666665</ele><time>2026-03-22T14:22:06Z</time></trkpt><trkpt lat="21.761659286245084" lon="-102.50137132838145"><ele>1911.3333333333333</ele><time>2026-03-22T14:22:07Z</time></trkpt><trkpt lat="21.761431867237576" lon="-102.50145336804309"><ele>1910.0</ele><time>2026-03-22T14:22:08Z</time></trkpt><trkpt lat="21.76132368109893" lon="-102.50143428603916"><ele>1910.0</ele><time>2026-03-22T14:22:09Z</time></trkpt><trkpt lat="21.761243516982812" lon="-102.50146315194326"><ele>1910.0</ele><time>2026-03-22T14:22:10Z</time></trkpt><trkpt lat="21.761142018929274" lon="-102.50138892926974"><ele>1910.0</ele><time>2026-03-22T14:22:11Z</time></trkpt><trkpt lat="21.761090969606684" lon="-102.5013079702211"><ele>1910.0</ele><time>2026-03-22T14:22:12Z</time></trkpt><trkpt lat="21.761034842610844" lon="-102.50123215100304"><ele>1910.0</ele><time>2026-03-22T14:22:13Z</time></trkpt><trkpt lat="21.76100787614828" lon="-102.50110117695941"><ele>1910.3333333333333</ele><time>2026-03-22T14:22:14Z</time></trkpt><trkpt lat="21.76094200418742" lon="-102.50104774473459"><ele>1910.6666666666665</ele><time>2026-03-22T14:22:15Z</time></trkpt><trkpt lat="21.760885724297506" lon="-102.5009787725412"><ele>1911.0</ele><time>2026-03-22T14:22:16Z</time></trkpt><trkpt lat="21.760781938560637" lon="-102.50094717884309"><ele>1911.3333333333335</ele><time>2026-03-22T14:22:17Z</time></trkpt><trkpt lat="21.760717759822374" lon="-102.50090903703405"><ele>1911.6666666666667</ele><time>2026-03-22T14:22:18Z</time></trkpt><trkpt lat="21.760665187828863" lon="-102.50082681193518"><ele>1912.0</ele><time>2026-03-22T14:22:19Z</time></trkpt><trkpt lat="21.76057666574056" lon="-102.50077506600213"><ele>1912.0</ele><time>2026-03-22T14:22:20Z</time></trkpt><trkpt lat="21.760538867255107" lon="-102.50065849637053"><ele>1912.0</ele><time>2026-03-22T14:22:21Z</time></trkpt><trkpt lat="21.760447306931432" lon="-102.50060513258386"><ele>1912.0</ele><time>2026-03-22T14:22:22Z</time></trkpt><trkpt lat="21.760362521646346" lon="-102.50054140723401"><ele>1912.0</ele><time>2026-03-22T14:22:23Z</time></trkpt><trkpt lat="21.760310175269186" lon="-102.5004138562295"><ele>1912.0</ele><time>2026-03-22T14:22:24Z</time></trkpt><trkpt lat="21.760224910284613" lon="-102.50037020442578"><ele>1911.9999999999998</ele><time>2026-03-22T14:22:25Z</time></trkpt><trkpt lat="21.760146942662054" lon="-102.50032633056685"><ele>1911.9999999999998</ele><time>2026-03-22T14:22:26Z</time></trkpt><trkpt lat="21.760057800119228" lon="-102.50024542152993"><ele>1912.0</ele><time>2026-03-22T14:22:27Z</time></trkpt><trkpt lat="21.75996440582823" lon="-102.50016955272078"><ele>1912.0</ele><time>2026-03-22T14:22:28Z</time></trkpt><trkpt lat="21.75989172310573" lon="-102.50010867448097"><ele>1912.0</ele><time>2026-03-22T14:22:29Z</time></trkpt><trkpt lat="21.759788275231013" lon="-102.50003994488624"><ele>1912.0</ele><time>2026-03-22T14:22:30Z</time></trkpt><trkpt lat="21.75969214899854" lon="-102.49994428021154"><ele>1912.0</ele><time>2026-03-22T14:22:31Z</time></trkpt><trkpt lat="21.75960015007929" lon="-102.49987371190551"><ele>1912.0</ele><time>2026-03-22T14:22:32Z</time></trkpt><trkpt lat="21.75953071128212" lon="-102.49980208620018"><ele>1912.0</ele><time>2026-03-22T14:22:33Z</time></trkpt><trkpt lat="21.759455939304754" lon="-102.49968840556231"><ele>1912.0</ele><time>2026-03-22T14:22:34Z</time></trkpt><trkpt lat="21.759371441637427" lon="-102.499598698977"><ele>1912.0</ele><time>2026-03-22T14:22:35Z</time></trkpt><trkpt lat="21.759301694326762" lon="-102.49950541057814"><ele>1912.0</ele><time>2026-03-22T14:22:36Z</time></trkpt><trkpt lat="21.75922813730604" lon="-102.49942039490007"><ele>1911.0</ele><time>2026-03-22T14:22:37Z</time></trkpt><trkpt lat="21.759161731941123" lon="-102.49935384014026"><ele>1909.9999999999998</ele><time>2026-03-22T14:22:38Z</time></trkpt><trkpt lat="21.75909609018845" lon="-102.49929600771345"><ele>1908.9999999999998</ele><time>2026-03-22T14:22:39Z</time></trkpt><trkpt lat="21.75910398594728" lon="-102.49913596128394"><ele>1908.0</ele><time>2026-03-22T14:22:40Z</time></trkpt><trkpt lat="21.759067965439677" lon="-102.49902102283161"><ele>1907.0</ele><time>2026-03-22T14:22:41Z</time></trkpt><trkpt lat="21.759032066752454" lon="-102.49890206510571"><ele>1907.0</ele><time>2026-03-22T14:22:42Z</time></trkpt><trkpt lat="21.75897237711066" lon="-102.49881429329629"><ele>1906.9999999999998</ele><time>2026-03-22T14:22:43Z</time></trkpt><trkpt lat="21.758992447121578" lon="-102.49871949755924"><ele>1906.9999999999998</ele><time>2026-03-22T14:22:44Z</time></trkpt><trkpt lat="21.7589462518594" lon="-102.49863563711816"><ele>1907.0</ele><time>2026-03-22T14:22:45Z</time></trkpt><trkpt lat="21.758923369236005" lon="-102.498545154106"><ele>1907.0</ele><time>2026-03-22T14:22:46Z</time></trkpt><trkpt lat="21.75890840575696" lon="-102.49843643438632"><ele>1907.6</ele><time>2026-03-22T14:22:47Z</time></trkpt><trkpt lat="21.7588945816025" lon="-102.49834183801808"><ele>1908.1999999999998</ele><time>2026-03-22T14:22:48Z</time></trkpt><trkpt lat="21.758898644034407" lon="-102.49823471806968"><ele>1908.8</ele><time>2026-03-22T14:22:49Z</time></trkpt><trkpt lat="21.75889941646016" lon="-102.4981206915935"><ele>1909.4</ele><time>2026-03-22T14:22:50Z</time></trkpt><trkpt lat="21.758898477686607" lon="-102.4980273752961"><ele>1910.0</ele><time>2026-03-22T14:22:51Z</time></trkpt><trkpt lat="21.758889275626732" lon="-102.49792572676257"><ele>1910.6666666666665</ele><time>2026-03-22T14:22:52Z</time></trkpt><trkpt lat="21.758918746734278" lon="-102.4978626412131"><ele>1911.3333333333333</ele><time>2026-03-22T14:22:54Z</time></trkpt><trkpt lat="21.758931129574577" lon="-102.49776639242423"><ele>1912.0</ele><time>2026-03-22T14:22:55Z</time></trkpt><trkpt lat="21.75895963888454" lon="-102.49765087852117"><ele>1912.6666666666665</ele><time>2026-03-22T14:22:56Z</time></trkpt><trkpt lat="21.758988842438775" lon="-102.49757479389163"><ele>1913.3333333333333</ele><time>2026-03-22T14:22:57Z</time></trkpt><trkpt lat="21.758985832177807" lon="-102.49750566593089"><ele>1914.0</ele><time>2026-03-22T14:22:58Z</time></trkpt><trkpt lat="21.75898826931268" lon="-102.49743110474726"><ele>1914.0</ele><time>2026-03-22T14:22:59Z</time></trkpt><trkpt lat="21.758957031067403" lon="-102.49733215262307"><ele>1914.0</ele><time>2026-03-22T14:23:01Z</time></trkpt><trkpt lat="21.758960954172917" lon="-102.49720609228746"><ele>1914.0</ele><time>2026-03-22T14:23:03Z</time></trkpt><trkpt lat="21.758976905613835" lon="-102.4970791924403"><ele>1914.0</ele><time>2026-03-22T14:23:05Z</time></trkpt><trkpt lat="21.75897415743307" lon="-102.49695309181132"><ele>1914.3333333333333</ele><time>2026-03-22T14:23:07Z</time></trkpt><trkpt lat="21.75888596862407" lon="-102.49686107315948"><ele>1914.6666666666665</ele><time>2026-03-22T14:23:08Z</time></trkpt><trkpt lat="21.75889337111588" lon="-102.49677888742043"><ele>1915.0</ele><time>2026-03-22T14:23:10Z</time></trkpt><trkpt lat="21.758882221944834" lon="-102.49670160999403"><ele>1915.3333333333333</ele><time>2026-03-22T14:23:11Z</time></trkpt><trkpt lat="21.758875166772388" lon="-102.4966241916751"><ele>1915.6666666666665</ele><time>2026-03-22T14:23:12Z</time></trkpt><trkpt lat="21.758867903351653" lon="-102.49653333861626"><ele>1916.0</ele><time>2026-03-22T14:23:13Z</time></trkpt><trkpt lat="21.75886551110636" lon="-102.49646391001068"><ele>1915.9999999999998</ele><time>2026-03-22T14:23:14Z</time></trkpt><trkpt lat="21.758862791976807" lon="-102.496390313573"><ele>1916.0</ele><time>2026-03-22T14:23:15Z</time></trkpt><trkpt lat="21.758854057240853" lon="-102.49629971998102"><ele>1916.0</ele><time>2026-03-22T14:23:16Z</time></trkpt><trkpt lat="21.758842679473958" lon="-102.49620150023145"><ele>1916.0</ele><time>2026-03-22T14:23:17Z</time></trkpt><trkpt lat="21.758847089341014" lon="-102.49611142776166"><ele>1915.9999999999998</ele><time>2026-03-22T14:23:18Z</time></trkpt><trkpt lat="21.758847044687336" lon="-102.49603314285578"><ele>1916.0</ele><time>2026-03-22T14:23:19Z</time></trkpt><trkpt lat="21.758849877188872" lon="-102.49595980936962"><ele>1915.8333333333333</ele><time>2026-03-22T14:23:20Z</time></trkpt><trkpt lat="21.758848183268423" lon="-102.49587572843343"><ele>1915.6666666666665</ele><time>2026-03-22T14:23:21Z</time></trkpt><trkpt lat="21.75884271394828" lon="-102.49580663229258"><ele>1915.5</ele><time>2026-03-22T14:23:22Z</time></trkpt><trkpt lat="21.758850839512288" lon="-102.49571552816401"><ele>1915.3333333333335</ele><time>2026-03-22T14:23:23Z</time></trkpt><trkpt lat="21.75884526616117" lon="-102.49562372716086"><ele>1915.1666666666667</ele><time>2026-03-22T14:23:24Z</time></trkpt><trkpt lat="21.758842793280465" lon="-102.49554563208576"><ele>1915.0</ele><time>2026-03-22T14:23:25Z</time></trkpt><trkpt lat="21.75883917928029" lon="-102.49546926411996"><ele>1914.8333333333335</ele><time>2026-03-22T14:23:26Z</time></trkpt><trkpt lat="21.758833047418086" lon="-102.49537467841056"><ele>1914.6666666666667</ele><time>2026-03-22T14:23:27Z</time></trkpt><trkpt lat="21.75882364458572" lon="-102.49528450075124"><ele>1914.5</ele><time>2026-03-22T14:23:28Z</time></trkpt><trkpt lat="21.75881643719212" lon="-102.49521622229102"><ele>1914.3333333333335</ele><time>2026-03-22T14:23:29Z</time></trkpt><trkpt lat="21.758798964414783" lon="-102.4950899705625"><ele>1914.1666666666667</ele><time>2026-03-22T14:23:30Z</time></trkpt><trkpt lat="21.758775397648186" lon="-102.49500925948553"><ele>1914.0</ele><time>2026-03-22T14:23:31Z</time></trkpt><trkpt lat="21.7587421116102" lon="-102.49493468812837"><ele>1914.0</ele><time>2026-03-22T14:23:32Z</time></trkpt><trkpt lat="21.758718984470182" lon="-102.49486516291729"><ele>1914.0</ele><time>2026-03-22T14:23:33Z</time></trkpt><trkpt lat="21.758707109953995" lon="-102.4947772077767"><ele>1914.0</ele><time>2026-03-22T14:23:34Z</time></trkpt><trkpt lat="21.758675912957266" lon="-102.49469911618495"><ele>1914.0</ele><time>2026-03-22T14:23:35Z</time></trkpt><trkpt lat="21.758659521433117" lon="-102.49461209890973"><ele>1914.0</ele><time>2026-03-22T14:23:36Z</time></trkpt><trkpt lat="21.75864120684466" lon="-102.49452784180124"><ele>1914.0</ele><time>2026-03-22T14:23:37Z</time></trkpt><trkpt lat="21.75862427518385" lon="-102.49444460990247"><ele>1914.0</ele><time>2026-03-22T14:23:38Z</time></trkpt><trkpt lat="21.75860620938052" lon="-102.49433576893121"><ele>1914.0</ele><time>2026-03-22T14:23:39Z</time></trkpt><trkpt lat="21.758573022116632" lon="-102.4942427374466"><ele>1914.0</ele><time>2026-03-22T14:23:40Z</time></trkpt><trkpt lat="21.758548511391616" lon="-102.4941617736458"><ele>1914.0</ele><time>2026-03-22T14:23:41Z</time></trkpt><trkpt lat="21.758523803864957" lon="-102.49408680043872"><ele>1914.0</ele><time>2026-03-22T14:23:42Z</time></trkpt><trkpt lat="21.758496121174844" lon="-102.49400823340821"><ele>1914.0</ele><time>2026-03-22T14:23:43Z</time></trkpt><trkpt lat="21.758461760627423" lon="-102.49392106777528"><ele>1914.0</ele><time>2026-03-22T14:23:44Z</time></trkpt><trkpt lat="21.75844304494857" lon="-102.49384064020153"><ele>1914.0</ele><time>2026-03-22T14:23:45Z</time></trkpt><trkpt lat="21.758408687649915" lon="-102.49376143209705"><ele>1914.0</ele><time>2026-03-22T14:23:46Z</time></trkpt><trkpt lat="21.758382017563072" lon="-102.49367054364191"><ele>1914.0</ele><time>2026-03-22T14:23:47Z</time></trkpt><trkpt lat="21.758356400556856" lon="-102.4935819281879"><ele>1914.0</ele><time>2026-03-22T14:23:48Z</time></trkpt><trkpt lat="21.758341046477284" lon="-102.49350179158988"><ele>1914.0</ele><time>2026-03-22T14:23:49Z</time></trkpt><trkpt lat="21.75831369636961" lon="-102.4934149293108"><ele>1914.0</ele><time>2026-03-22T14:23:50Z</time></trkpt><trkpt lat="21.758283787713367" lon="-102.49331994130955"><ele>1914.0</ele><time>2026-03-22T14:23:51Z</time></trkpt><trkpt lat="21.75823143986469" lon="-102.4932042077765"><ele>1914.0</ele><time>2026-03-22T14:23:52Z</time></trkpt><trkpt lat="21.75820423103869" lon="-102.49311065292589"><ele>1914.0</ele><time>2026-03-22T14:23:53Z</time></trkpt><trkpt lat="21.758191069250834" lon="-102.49302390112197"><ele>1914.0</ele><time>2026-03-22T14:23:54Z</time></trkpt><trkpt lat="21.758162718899374" lon="-102.49293337287132"><ele>1913.8000000000002</ele><time>2026-03-22T14:23:55Z</time></trkpt><trkpt lat="21.758133216795976" lon="-102.49283932282795"><ele>1913.6000000000001</ele><time>2026-03-22T14:23:56Z</time></trkpt><trkpt lat="21.758100984771637" lon="-102.49273897639729"><ele>1913.4</ele><time>2026-03-22T14:23:57Z</time></trkpt><trkpt lat="21.758069756354203" lon="-102.49264175443"><ele>1913.2</ele><time>2026-03-22T14:23:58Z</time></trkpt><trkpt lat="21.758023446598244" lon="-102.49254471267767"><ele>1913.0</ele><time>2026-03-22T14:23:59Z</time></trkpt><trkpt lat="21.757992358957104" lon="-102.49243690928817"><ele>1913.0</ele><time>2026-03-22T14:24:00Z</time></trkpt><trkpt lat="21.757961889903047" lon="-102.49233067704533"><ele>1913.0000000000002</ele><time>2026-03-22T14:24:01Z</time></trkpt><trkpt lat="21.757932378662396" lon="-102.49224299681954"><ele>1913.0000000000002</ele><time>2026-03-22T14:24:02Z</time></trkpt><trkpt lat="21.757904897825842" lon="-102.49212888151737"><ele>1913.0</ele><time>2026-03-22T14:24:03Z</time></trkpt><trkpt lat="21.757877999980604" lon="-102.49202469153215"><ele>1913.0</ele><time>2026-03-22T14:24:04Z</time></trkpt><trkpt lat="21.757840082138355" lon="-102.49193338550644"><ele>1912.8000000000002</ele><time>2026-03-22T14:24:05Z</time></trkpt><trkpt lat="21.75779418835126" lon="-102.49184573574851"><ele>1912.6000000000001</ele><time>2026-03-22T14:24:06Z</time></trkpt><trkpt lat="21.75778233316278" lon="-102.49176499422991"><ele>1912.3999999999999</ele><time>2026-03-22T14:24:07Z</time></trkpt><trkpt lat="21.757742563855675" lon="-102.49163189884074"><ele>1912.1999999999998</ele><time>2026-03-22T14:24:08Z</time></trkpt><trkpt lat="21.757714090095263" lon="-102.49148897701774"><ele>1912.0</ele><time>2026-03-22T14:24:09Z</time></trkpt><trkpt lat="21.757733752216044" lon="-102.49156586108118"><ele>1911.3999999999999</ele><time>2026-03-22T14:24:10Z</time></trkpt><trkpt lat="21.75769993177927" lon="-102.49146430110521"><ele>1910.7999999999997</ele><time>2026-03-22T14:24:12Z</time></trkpt><trkpt lat="21.757667516498774" lon="-102.49136774830798"><ele>1910.2</ele><time>2026-03-22T14:24:13Z</time></trkpt><trkpt lat="21.757642172821253" lon="-102.49129227987594"><ele>1909.6</ele><time>2026-03-22T14:24:14Z</time></trkpt><trkpt lat="21.757613021987588" lon="-102.49120547447818"><ele>1909.0</ele><time>2026-03-22T14:24:15Z</time></trkpt><trkpt lat="21.757560835588997" lon="-102.4910500512914"><ele>1908.6666666666667</ele><time>2026-03-22T14:24:17Z</time></trkpt><trkpt lat="21.757533540060493" lon="-102.49096810978298"><ele>1908.3333333333335</ele><time>2026-03-22T14:24:18Z</time></trkpt><trkpt lat="21.75750352644114" lon="-102.49087845232508"><ele>1908.0</ele><time>2026-03-22T14:24:19Z</time></trkpt><trkpt lat="21.757493415927566" lon="-102.49079775852128"><ele>1907.6666666666665</ele><time>2026-03-22T14:24:20Z</time></trkpt><trkpt lat="21.757448199829497" lon="-102.49067984552715"><ele>1907.3333333333333</ele><time>2026-03-22T14:24:21Z</time></trkpt><trkpt lat="21.757401270030588" lon="-102.49063103809179"><ele>1907.0</ele><time>2026-03-22T14:24:23Z</time></trkpt><trkpt lat="21.75737508403045" lon="-102.4905505963402"><ele>1907.0</ele><time>2026-03-22T14:24:25Z</time></trkpt><trkpt lat="21.757261852684938" lon="-102.4906547006661"><ele>1907.0</ele><time>2026-03-22T14:24:36Z</time></trkpt><trkpt lat="21.756779359750002" lon="-102.49120196290478"><ele>1907.25</ele><time>2026-03-22T14:24:37Z</time></trkpt><trkpt lat="21.75674080823143" lon="-102.49128483400003"><ele>1907.5</ele><time>2026-03-22T14:24:38Z</time></trkpt><trkpt lat="21.756565717827183" lon="-102.49123801765914"><ele>1907.75</ele><time>2026-03-22T14:24:39Z</time></trkpt><trkpt lat="21.75656291056187" lon="-102.49142967519745"><ele>1908.0</ele><time>2026-03-22T14:24:41Z</time></trkpt><trkpt lat="21.75651406425051" lon="-102.49150980057395"><ele>1908.2</ele><time>2026-03-22T14:24:42Z</time></trkpt><trkpt lat="21.756362911460272" lon="-102.49147426483242"><ele>1908.4</ele><time>2026-03-22T14:24:43Z</time></trkpt><trkpt lat="21.75631778871682" lon="-102.49152683490587"><ele>1908.6000000000001</ele><time>2026-03-22T14:24:44Z</time></trkpt><trkpt lat="21.75625965814258" lon="-102.49159464247204"><ele>1908.8000000000002</ele><time>2026-03-22T14:24:45Z</time></trkpt><trkpt lat="21.75620687945494" lon="-102.49165620722086"><ele>1909.0</ele><time>2026-03-22T14:24:46Z</time></trkpt><trkpt lat="21.756154921479595" lon="-102.49171681461459"><ele>1909.0</ele><time>2026-03-22T14:24:47Z</time></trkpt><trkpt lat="21.756106702001084" lon="-102.4917730611886"><ele>1909.0</ele><time>2026-03-22T14:24:48Z</time></trkpt><trkpt lat="21.756030828261533" lon="-102.49186130663935"><ele>1909.0</ele><time>2026-03-22T14:24:49Z</time></trkpt><trkpt lat="21.755974159647817" lon="-102.49192701501315"><ele>1909.0</ele><time>2026-03-22T14:24:50Z</time></trkpt><trkpt lat="21.75593090473123" lon="-102.49197716994402"><ele>1909.0</ele><time>2026-03-22T14:24:51Z</time></trkpt><trkpt lat="21.75583877393553" lon="-102.49208399743422"><ele>1908.5</ele><time>2026-03-22T14:24:53Z</time></trkpt><trkpt lat="21.755723299199698" lon="-102.49221813612397"><ele>1908.0</ele><time>2026-03-22T14:24:55Z</time></trkpt><trkpt lat="21.75566359233626" lon="-102.49228764024579"><ele>1907.5</ele><time>2026-03-22T14:24:56Z</time></trkpt><trkpt lat="21.755584528356316" lon="-102.49237967783517"><ele>1907.0</ele><time>2026-03-22T14:24:58Z</time></trkpt><trkpt lat="21.75550721286293" lon="-102.49246790411067"><ele>1907.0</ele><time>2026-03-22T14:24:59Z</time></trkpt><trkpt lat="21.755439710570073" lon="-102.49246867769038"><ele>1906.9999999999998</ele><time>2026-03-22T14:25:00Z</time></trkpt><trkpt lat="21.755366748433982" lon="-102.49254594525176"><ele>1906.9999999999998</ele><time>2026-03-22T14:25:01Z</time></trkpt><trkpt lat="21.755296172529118" lon="-102.49263403493953"><ele>1907.0</ele><time>2026-03-22T14:25:02Z</time></trkpt><trkpt lat="21.75523108886195" lon="-102.49271260431222"><ele>1907.0</ele><time>2026-03-22T14:25:03Z</time></trkpt><trkpt lat="21.755145076270985" lon="-102.49274044803882"><ele>1907.25</ele><time>2026-03-22T14:25:04Z</time></trkpt><trkpt lat="21.755042915498358" lon="-102.49283173551827"><ele>1907.5</ele><time>2026-03-22T14:25:05Z</time></trkpt><trkpt lat="21.754974079395208" lon="-102.49296081455554"><ele>1907.75</ele><time>2026-03-22T14:25:06Z</time></trkpt><trkpt lat="21.754896328782987" lon="-102.49302264441224"><ele>1908.0</ele><time>2026-03-22T14:25:07Z</time></trkpt><trkpt lat="21.754830328949705" lon="-102.49310168390885"><ele>1907.3333333333335</ele><time>2026-03-22T14:25:08Z</time></trkpt><trkpt lat="21.754687098793305" lon="-102.49332025383552"><ele>1906.6666666666667</ele><time>2026-03-22T14:25:09Z</time></trkpt><trkpt lat="21.754805331304755" lon="-102.49343857447016"><ele>1906.0</ele><time>2026-03-22T14:25:10Z</time></trkpt><trkpt lat="21.754735372472144" lon="-102.49351059650175"><ele>1906.0</ele><time>2026-03-22T14:25:11Z</time></trkpt><trkpt lat="21.75468222581991" lon="-102.49360689685035"><ele>1906.0</ele><time>2026-03-22T14:25:12Z</time></trkpt><trkpt lat="21.754579551997036" lon="-102.49368134630399"><ele>1906.0</ele><time>2026-03-22T14:25:14Z</time></trkpt><trkpt lat="21.75448955209819" lon="-102.49375220598654"><ele>1906.0</ele><time>2026-03-22T14:25:15Z</time></trkpt><trkpt lat="21.75441853949487" lon="-102.49380745610667"><ele>1906.0</ele><time>2026-03-22T14:25:16Z</time></trkpt><trkpt lat="21.754335551897732" lon="-102.49387316102987"><ele>1904.5</ele><time>2026-03-22T14:25:17Z</time></trkpt><trkpt lat="21.75427059279216" lon="-102.49397840757479"><ele>1903.0</ele><time>2026-03-22T14:25:18Z</time></trkpt><trkpt lat="21.75420463741703" lon="-102.49407389209708"><ele>1901.5</ele><time>2026-03-22T14:25:19Z</time></trkpt><trkpt lat="21.754123634718212" lon="-102.49419061105607"><ele>1900.0</ele><time>2026-03-22T14:25:20Z</time></trkpt><trkpt lat="21.754037701580113" lon="-102.4943017373766"><ele>1900.0</ele><time>2026-03-22T14:25:21Z</time></trkpt><trkpt lat="21.753949571190446" lon="-102.49442567054079"><ele>1900.0</ele><time>2026-03-22T14:25:22Z</time></trkpt><trkpt lat="21.753893809877432" lon="-102.49453102734941"><ele>1900.0</ele><time>2026-03-22T14:25:23Z</time></trkpt><trkpt lat="21.753845296336483" lon="-102.4946184502364"><ele>1900.0</ele><time>2026-03-22T14:25:24Z</time></trkpt><trkpt lat="21.75374737430716" lon="-102.49470438344471"><ele>1900.0</ele><time>2026-03-22T14:25:25Z</time></trkpt><trkpt lat="21.753651806251863" lon="-102.49478543747213"><ele>1900.0</ele><time>2026-03-22T14:25:26Z</time></trkpt><trkpt lat="21.75363007921261" lon="-102.49486644969383"><ele>1900.0</ele><time>2026-03-22T14:25:27Z</time></trkpt><trkpt lat="21.753557355068413" lon="-102.4949512964751"><ele>1900.0</ele><time>2026-03-22T14:25:28Z</time></trkpt><trkpt lat="21.753473195584654" lon="-102.49503997060901"><ele>1900.0</ele><time>2026-03-22T14:25:29Z</time></trkpt><trkpt lat="21.753393751719017" lon="-102.49511344230136"><ele>1900.0</ele><time>2026-03-22T14:25:30Z</time></trkpt><trkpt lat="21.753324272147356" lon="-102.4951937794932"><ele>1900.0</ele><time>2026-03-22T14:25:31Z</time></trkpt><trkpt lat="21.7532619371263" lon="-102.49523902368036"><ele>1900.0</ele><time>2026-03-22T14:25:32Z</time></trkpt><trkpt lat="21.75317028050144" lon="-102.49532857792573"><ele>1900.0</ele><time>2026-03-22T14:25:34Z</time></trkpt><trkpt lat="21.75309179591448" lon="-102.49538342723784"><ele>1900.0</ele><time>2026-03-22T14:25:35Z</time></trkpt><trkpt lat="21.752948716175748" lon="-102.4953836434627"><ele>1900.6</ele><time>2026-03-22T14:25:37Z</time></trkpt><trkpt lat="21.752889431190862" lon="-102.49542539561251"><ele>1901.2</ele><time>2026-03-22T14:25:38Z</time></trkpt><trkpt lat="21.75275600964184" lon="-102.49548593560554"><ele>1901.8000000000002</ele><time>2026-03-22T14:25:40Z</time></trkpt><trkpt lat="21.752669724598867" lon="-102.49551799971117"><ele>1902.4</ele><time>2026-03-22T14:25:41Z</time></trkpt><trkpt lat="21.752600020909803" lon="-102.49553983685188"><ele>1903.0</ele><time>2026-03-22T14:25:42Z</time></trkpt><trkpt lat="21.752518251771203" lon="-102.49555947914314"><ele>1903.0</ele><time>2026-03-22T14:25:43Z</time></trkpt><trkpt lat="21.752439291112285" lon="-102.49556928583752"><ele>1903.0000000000002</ele><time>2026-03-22T14:25:44Z</time></trkpt><trkpt lat="21.752336786404282" lon="-102.49559132262289"><ele>1903.0000000000002</ele><time>2026-03-22T14:25:45Z</time></trkpt><trkpt lat="21.752247205258247" lon="-102.49558251395393"><ele>1903.0</ele><time>2026-03-22T14:25:46Z</time></trkpt><trkpt lat="21.75216694470676" lon="-102.49556628710295"><ele>1903.0</ele><time>2026-03-22T14:25:47Z</time></trkpt><trkpt lat="21.75206271577262" lon="-102.49556519748388"><ele>1903.0</ele><time>2026-03-22T14:25:48Z</time></trkpt><trkpt lat="21.751972326767344" lon="-102.49553144772561"><ele>1903.0000000000002</ele><time>2026-03-22T14:25:49Z</time></trkpt><trkpt lat="21.75186137529243" lon="-102.49550712518086"><ele>1903.0000000000002</ele><time>2026-03-22T14:25:50Z</time></trkpt><trkpt lat="21.75178265005752" lon="-102.49548889017726"><ele>1903.0</ele><time>2026-03-22T14:25:51Z</time></trkpt><trkpt lat="21.75168081517424" lon="-102.49546530224625"><ele>1903.0</ele><time>2026-03-22T14:25:52Z</time></trkpt><trkpt lat="21.75159567429173" lon="-102.49545909737182"><ele>1902.4</ele><time>2026-03-22T14:25:53Z</time></trkpt><trkpt lat="21.751500747981638" lon="-102.49542634780299"><ele>1901.8000000000002</ele><time>2026-03-22T14:25:54Z</time></trkpt><trkpt lat="21.751412045885857" lon="-102.4954220978842"><ele>1901.2</ele><time>2026-03-22T14:25:55Z</time></trkpt><trkpt lat="21.751321369210267" lon="-102.49538451088735"><ele>1900.6</ele><time>2026-03-22T14:25:56Z</time></trkpt><trkpt lat="21.75123205289728" lon="-102.49535439362069"><ele>1900.0</ele><time>2026-03-22T14:25:57Z</time></trkpt><trkpt lat="21.75112445114545" lon="-102.49533988384157"><ele>1899.6</ele><time>2026-03-22T14:25:58Z</time></trkpt><trkpt lat="21.751031400563424" lon="-102.49531746943705"><ele>1899.2</ele><time>2026-03-22T14:25:59Z</time></trkpt><trkpt lat="21.75093982360642" lon="-102.49531339449453"><ele>1898.8000000000002</ele><time>2026-03-22T14:26:00Z</time></trkpt><trkpt lat="21.750837853155925" lon="-102.49527227710927"><ele>1898.4</ele><time>2026-03-22T14:26:01Z</time></trkpt><trkpt lat="21.7507473596371" lon="-102.49525130226728"><ele>1898.0</ele><time>2026-03-22T14:26:02Z</time></trkpt><trkpt lat="21.750637857387574" lon="-102.49522526273824"><ele>1898.0</ele><time>2026-03-22T14:26:03Z</time></trkpt><trkpt lat="21.75055494201567" lon="-102.49520551217475"><ele>1898.0000000000002</ele><time>2026-03-22T14:26:04Z</time></trkpt><trkpt lat="21.750458623451646" lon="-102.49518231137006"><ele>1898.0000000000002</ele><time>2026-03-22T14:26:05Z</time></trkpt><trkpt lat="21.75036203091583" lon="-102.4951594716686"><ele>1898.0</ele><time>2026-03-22T14:26:06Z</time></trkpt><trkpt lat="21.750265345367477" lon="-102.49513676171051"><ele>1898.0</ele><time>2026-03-22T14:26:07Z</time></trkpt><trkpt lat="21.750159102568762" lon="-102.49512530029098"><ele>1897.2</ele><time>2026-03-22T14:26:08Z</time></trkpt><trkpt lat="21.750058595450913" lon="-102.49509372095343"><ele>1896.4</ele><time>2026-03-22T14:26:09Z</time></trkpt><trkpt lat="21.749957154212673" lon="-102.4950631704669"><ele>1895.6000000000001</ele><time>2026-03-22T14:26:10Z</time></trkpt><trkpt lat="21.749855907545587" lon="-102.49502849027658"><ele>1894.8000000000002</ele><time>2026-03-22T14:26:11Z</time></trkpt><trkpt lat="21.749779298164007" lon="-102.49502202643704"><ele>1894.0</ele><time>2026-03-22T14:26:12Z</time></trkpt><trkpt lat="21.749658232074957" lon="-102.49499328413027"><ele>1894.0</ele><time>2026-03-22T14:26:13Z</time></trkpt><trkpt lat="21.749546684302885" lon="-102.49496687317497"><ele>1894.0</ele><time>2026-03-22T14:26:14Z</time></trkpt><trkpt lat="21.749448405227533" lon="-102.49494360382218"><ele>1894.0</ele><time>2026-03-22T14:26:15Z</time></trkpt><trkpt lat="21.749379781337236" lon="-102.49492735589114"><ele>1894.0</ele><time>2026-03-22T14:26:16Z</time></trkpt><trkpt lat="21.74928508515316" lon="-102.4949226742296"><ele>1894.0</ele><time>2026-03-22T14:26:17Z</time></trkpt><trkpt lat="21.74919258482518" lon="-102.49484818600537"><ele>1894.1666666666667</ele><time>2026-03-22T14:26:18Z</time></trkpt><trkpt lat="21.74911944773914" lon="-102.49481824066915"><ele>1894.3333333333335</ele><time>2026-03-22T14:26:19Z</time></trkpt><trkpt lat="21.749051688766503" lon="-102.49482214123844"><ele>1894.5</ele><time>2026-03-22T14:26:20Z</time></trkpt><trkpt lat="21.74895109493247" lon="-102.49482663563084"><ele>1894.6666666666665</ele><time>2026-03-22T14:26:21Z</time></trkpt><trkpt lat="21.748856395505815" lon="-102.49480324525386"><ele>1894.8333333333333</ele><time>2026-03-22T14:26:22Z</time></trkpt><trkpt lat="21.748752531795564" lon="-102.49481989184122"><ele>1895.0</ele><time>2026-03-22T14:26:23Z</time></trkpt><trkpt lat="21.748653946934134" lon="-102.49480916835253"><ele>1895.0</ele><time>2026-03-22T14:26:24Z</time></trkpt><trkpt lat="21.748572282419783" lon="-102.49477252285249"><ele>1895.0</ele><time>2026-03-22T14:26:25Z</time></trkpt><trkpt lat="21.748492264600475" lon="-102.4947400732961"><ele>1895.0</ele><time>2026-03-22T14:26:26Z</time></trkpt><trkpt lat="21.748400012363742" lon="-102.49470650794734"><ele>1895.0</ele><time>2026-03-22T14:26:27Z</time></trkpt><trkpt lat="21.748316632091672" lon="-102.49469045756703"><ele>1895.0</ele><time>2026-03-22T14:26:28Z</time></trkpt><trkpt lat="21.74823440125623" lon="-102.49462907874276"><ele>1894.4</ele><time>2026-03-22T14:26:29Z</time></trkpt><trkpt lat="21.74811450749234" lon="-102.49463567527759"><ele>1893.8</ele><time>2026-03-22T14:26:30Z</time></trkpt><trkpt lat="21.74801601427042" lon="-102.49462414977984"><ele>1893.1999999999998</ele><time>2026-03-22T14:26:31Z</time></trkpt><trkpt lat="21.747925400871427" lon="-102.49458856838937"><ele>1892.6</ele><time>2026-03-22T14:26:32Z</time></trkpt><trkpt lat="21.747824341772944" lon="-102.49456216557948"><ele>1892.0</ele><time>2026-03-22T14:26:33Z</time></trkpt><trkpt lat="21.747721676360268" lon="-102.49451883090377"><ele>1891.3999999999999</ele><time>2026-03-22T14:26:34Z</time></trkpt><trkpt lat="21.7476207505379" lon="-102.49449929942251"><ele>1890.7999999999997</ele><time>2026-03-22T14:26:35Z</time></trkpt><trkpt lat="21.747525921618163" lon="-102.49449729323995"><ele>1890.2</ele><time>2026-03-22T14:26:36Z</time></trkpt><trkpt lat="21.747425133435154" lon="-102.49447146248713"><ele>1889.6</ele><time>2026-03-22T14:26:37Z</time></trkpt><trkpt lat="21.74731020814645" lon="-102.4944465551898"><ele>1889.0</ele><time>2026-03-22T14:26:38Z</time></trkpt><trkpt lat="21.747201306452858" lon="-102.49441071072202"><ele>1889.0</ele><time>2026-03-22T14:26:39Z</time></trkpt><trkpt lat="21.747075664358004" lon="-102.49439002305766"><ele>1889.0</ele><time>2026-03-22T14:26:40Z</time></trkpt><trkpt lat="21.746972472769396" lon="-102.49434748283814"><ele>1889.0</ele><time>2026-03-22T14:26:41Z</time></trkpt><trkpt lat="21.746866383711403" lon="-102.49432806289494"><ele>1889.0</ele><time>2026-03-22T14:26:42Z</time></trkpt><trkpt lat="21.74678360594896" lon="-102.49431430354392"><ele>1889.0</ele><time>2026-03-22T14:26:43Z</time></trkpt><trkpt lat="21.746701481889193" lon="-102.49429483300497"><ele>1888.8000000000002</ele><time>2026-03-22T14:26:44Z</time></trkpt><trkpt lat="21.746601540183214" lon="-102.49427109698307"><ele>1888.6000000000001</ele><time>2026-03-22T14:26:45Z</time></trkpt><trkpt lat="21.746497639269656" lon="-102.49427655336228"><ele>1888.4</ele><time>2026-03-22T14:26:46Z</time></trkpt><trkpt lat="21.74638372669123" lon="-102.49425576807222"><ele>1888.2</ele><time>2026-03-22T14:26:47Z</time></trkpt><trkpt lat="21.74627122703054" lon="-102.49427577623682"><ele>1888.0</ele><time>2026-03-22T14:26:48Z</time></trkpt><trkpt lat="21.74616751135226" lon="-102.49426595339077"><ele>1888.0</ele><time>2026-03-22T14:26:49Z</time></trkpt><trkpt lat="21.746057321530934" lon="-102.49423974770734"><ele>1888.0000000000002</ele><time>2026-03-22T14:26:50Z</time></trkpt><trkpt lat="21.745967834490994" lon="-102.49423054817844"><ele>1888.0000000000002</ele><time>2026-03-22T14:26:51Z</time></trkpt><trkpt lat="21.745867196822886" lon="-102.49421813454076"><ele>1888.0</ele><time>2026-03-22T14:26:52Z</time></trkpt><trkpt lat="21.74575012097995" lon="-102.49419897783102"><ele>1888.0</ele><time>2026-03-22T14:26:53Z</time></trkpt><trkpt lat="21.745641723048152" lon="-102.49417420479892"><ele>1887.6000000000001</ele><time>2026-03-22T14:26:54Z</time></trkpt><trkpt lat="21.74553554706385" lon="-102.49415207786691"><ele>1887.2000000000003</ele><time>2026-03-22T14:26:55Z</time></trkpt><trkpt lat="21.745429161412545" lon="-102.49412988084741"><ele>1886.8</ele><time>2026-03-22T14:26:56Z</time></trkpt><trkpt lat="21.74531666392817" lon="-102.49410434891136"><ele>1886.4</ele><time>2026-03-22T14:26:57Z</time></trkpt><trkpt lat="21.745215498225118" lon="-102.49407262601352"><ele>1886.0</ele><time>2026-03-22T14:26:58Z</time></trkpt><trkpt lat="21.745107056276023" lon="-102.49404900978409"><ele>1885.5</ele><time>2026-03-22T14:26:59Z</time></trkpt><trkpt lat="21.744992158655766" lon="-102.49402373806939"><ele>1885.0</ele><time>2026-03-22T14:27:00Z</time></trkpt><trkpt lat="21.744882341908486" lon="-102.49398765948344"><ele>1884.5</ele><time>2026-03-22T14:27:01Z</time></trkpt><trkpt lat="21.744770038054266" lon="-102.49396564667519"><ele>1884.0</ele><time>2026-03-22T14:27:02Z</time></trkpt><trkpt lat="21.74466549846954" lon="-102.49393801750385"><ele>1884.0</ele><time>2026-03-22T14:27:03Z</time></trkpt><trkpt lat="21.744559386517174" lon="-102.49388922483793"><ele>1884.0</ele><time>2026-03-22T14:27:04Z</time></trkpt><trkpt lat="21.744464334822542" lon="-102.49385782324767"><ele>1884.0</ele><time>2026-03-22T14:27:05Z</time></trkpt><trkpt lat="21.744400479353374" lon="-102.49389409050121"><ele>1884.0</ele><time>2026-03-22T14:27:06Z</time></trkpt><trkpt lat="21.744307351056545" lon="-102.49389002891591"><ele>1884.0</ele><time>2026-03-22T14:27:07Z</time></trkpt><trkpt lat="21.744197531431567" lon="-102.49384773521807"><ele>1883.5</ele><time>2026-03-22T14:27:08Z</time></trkpt><trkpt lat="21.744134689790297" lon="-102.49368282008749"><ele>1883.0</ele><time>2026-03-22T14:27:09Z</time></trkpt><trkpt lat="21.744047868746875" lon="-102.49366131541127"><ele>1882.5</ele><time>2026-03-22T14:27:10Z</time></trkpt><trkpt lat="21.743947261192037" lon="-102.49363644332875"><ele>1882.0</ele><time>2026-03-22T14:27:11Z</time></trkpt><trkpt lat="21.743831524010705" lon="-102.49364672225163"><ele>1882.0</ele><time>2026-03-22T14:27:12Z</time></trkpt><trkpt lat="21.74371563656219" lon="-102.49362099566736"><ele>1881.9999999999998</ele><time>2026-03-22T14:27:13Z</time></trkpt><trkpt lat="21.74365602525787" lon="-102.49356485847943"><ele>1881.9999999999998</ele><time>2026-03-22T14:27:14Z</time></trkpt><trkpt lat="21.74356228295952" lon="-102.49354197559903"><ele>1882.0</ele><time>2026-03-22T14:27:15Z</time></trkpt><trkpt lat="21.74346429400464" lon="-102.49351822326675"><ele>1882.0</ele><time>2026-03-22T14:27:16Z</time></trkpt><trkpt lat="21.74336347775774" lon="-102.49349393905617"><ele>1881.8</ele><time>2026-03-22T14:27:17Z</time></trkpt><trkpt lat="21.743265257118633" lon="-102.49347082589534"><ele>1881.6</ele><time>2026-03-22T14:27:18Z</time></trkpt><trkpt lat="21.743181353150035" lon="-102.49345084878281"><ele>1881.3999999999999</ele><time>2026-03-22T14:27:19Z</time></trkpt><trkpt lat="21.74308465105536" lon="-102.493427845733"><ele>1881.1999999999998</ele><time>2026-03-22T14:27:20Z</time></trkpt><trkpt lat="21.742984918212063" lon="-102.49340414272729"><ele>1881.0</ele><time>2026-03-22T14:27:21Z</time></trkpt><trkpt lat="21.74291017615369" lon="-102.49338637916766"><ele>1881.0</ele><time>2026-03-22T14:27:22Z</time></trkpt><trkpt lat="21.742810540041283" lon="-102.49336261841621"><ele>1881.0</ele><time>2026-03-22T14:27:23Z</time></trkpt><trkpt lat="21.74272727058808" lon="-102.49334320046214"><ele>1881.0</ele><time>2026-03-22T14:27:24Z</time></trkpt><trkpt lat="21.74264190228562" lon="-102.49332329302715"><ele>1881.0</ele><time>2026-03-22T14:27:25Z</time></trkpt><trkpt lat="21.74256288201308" lon="-102.49330486595524"><ele>1881.0</ele><time>2026-03-22T14:27:26Z</time></trkpt><trkpt lat="21.742476877053022" lon="-102.49328480693342"><ele>1881.0</ele><time>2026-03-22T14:27:27Z</time></trkpt><trkpt lat="21.742400000984535" lon="-102.49326687985774"><ele>1881.1666666666667</ele><time>2026-03-22T14:27:28Z</time></trkpt><trkpt lat="21.74230737771048" lon="-102.49324528064327"><ele>1881.3333333333335</ele><time>2026-03-22T14:27:29Z</time></trkpt><trkpt lat="21.74222215307727" lon="-102.49322549285846"><ele>1881.5</ele><time>2026-03-22T14:27:30Z</time></trkpt><trkpt lat="21.742132388114296" lon="-102.49320475850504"><ele>1881.6666666666667</ele><time>2026-03-22T14:27:31Z</time></trkpt><trkpt lat="21.742041702629674" lon="-102.4931838115584"><ele>1881.8333333333335</ele><time>2026-03-22T14:27:32Z</time></trkpt><trkpt lat="21.741962949466828" lon="-102.49316562078364"><ele>1882.0</ele><time>2026-03-22T14:27:33Z</time></trkpt><trkpt lat="21.741867237410116" lon="-102.49314351274485"><ele>1881.3999999999999</ele><time>2026-03-22T14:27:34Z</time></trkpt><trkpt lat="21.7417161850382" lon="-102.49310862200359"><ele>1880.7999999999997</ele><time>2026-03-22T14:27:36Z</time></trkpt><trkpt lat="21.741626507646043" lon="-102.4930884204708"><ele>1880.2</ele><time>2026-03-22T14:27:37Z</time></trkpt><trkpt lat="21.74155632787182" lon="-102.49307177989814"><ele>1879.6</ele><time>2026-03-22T14:27:38Z</time></trkpt><trkpt lat="21.741466882698706" lon="-102.49305105490923"><ele>1879.0</ele><time>2026-03-22T14:27:39Z</time></trkpt><trkpt lat="21.741374599322167" lon="-102.49302988343048"><ele>1879.0</ele><time>2026-03-22T14:27:40Z</time></trkpt><trkpt lat="21.741291448341148" lon="-102.49301080704184"><ele>1879.0</ele><time>2026-03-22T14:27:41Z</time></trkpt><trkpt lat="21.741189413594213" lon="-102.49298739839688"><ele>1879.0</ele><time>2026-03-22T14:27:42Z</time></trkpt><trkpt lat="21.741088967708354" lon="-102.49296433850554"><ele>1879.0</ele><time>2026-03-22T14:27:43Z</time></trkpt><trkpt lat="21.74100246079816" lon="-102.49294390225243"><ele>1879.0</ele><time>2026-03-22T14:27:44Z</time></trkpt><trkpt lat="21.74090306933694" lon="-102.49292085177072"><ele>1879.4</ele><time>2026-03-22T14:27:45Z</time></trkpt><trkpt lat="21.740818579122035" lon="-102.49290152393372"><ele>1879.8000000000002</ele><time>2026-03-22T14:27:46Z</time></trkpt><trkpt lat="21.74072461946362" lon="-102.49288002989204"><ele>1880.1999999999998</ele><time>2026-03-22T14:27:47Z</time></trkpt><trkpt lat="21.74063465630023" lon="-102.49285905166806"><ele>1880.6</ele><time>2026-03-22T14:27:48Z</time></trkpt><trkpt lat="21.740544895609123" lon="-102.49283780901558"><ele>1881.0</ele><time>2026-03-22T14:27:49Z</time></trkpt><trkpt lat="21.740459745907675" lon="-102.49281765759156"><ele>1881.0</ele><time>2026-03-22T14:27:50Z</time></trkpt><trkpt lat="21.740363918903885" lon="-102.49279582099273"><ele>1881.0</ele><time>2026-03-22T14:27:51Z</time></trkpt><trkpt lat="21.740267403756736" lon="-102.49277374862884"><ele>1881.0</ele><time>2026-03-22T14:27:52Z</time></trkpt><trkpt lat="21.740165402064374" lon="-102.4927501930542"><ele>1881.0</ele><time>2026-03-22T14:27:53Z</time></trkpt><trkpt lat="21.740073568487446" lon="-102.49272825854199"><ele>1881.0</ele><time>2026-03-22T14:27:54Z</time></trkpt><trkpt lat="21.739971244905686" lon="-102.49270360338647"><ele>1879.8</ele><time>2026-03-22T14:27:55Z</time></trkpt><trkpt lat="21.739878492442653" lon="-102.49268000631456"><ele>1878.6</ele><time>2026-03-22T14:27:56Z</time></trkpt><trkpt lat="21.73977860832801" lon="-102.49265459488589"><ele>1877.4</ele><time>2026-03-22T14:27:57Z</time></trkpt><trkpt lat="21.739677979355264" lon="-102.49263054080085"><ele>1876.2</ele><time>2026-03-22T14:27:58Z</time></trkpt><trkpt lat="21.73957137990718" lon="-102.49260419039523"><ele>1875.0</ele><time>2026-03-22T14:27:59Z</time></trkpt><trkpt lat="21.739463108913824" lon="-102.49257820545347"><ele>1874.4</ele><time>2026-03-22T14:28:00Z</time></trkpt><trkpt lat="21.73935258328746" lon="-102.49256911246306"><ele>1873.8</ele><time>2026-03-22T14:28:01Z</time></trkpt><trkpt lat="21.739251155935918" lon="-102.49254232257324"><ele>1873.1999999999998</ele><time>2026-03-22T14:28:02Z</time></trkpt><trkpt lat="21.739157356289347" lon="-102.49252190971573"><ele>1872.6</ele><time>2026-03-22T14:28:03Z</time></trkpt><trkpt lat="21.739044043694452" lon="-102.49249278257668"><ele>1872.0</ele><time>2026-03-22T14:28:04Z</time></trkpt><trkpt lat="21.738932421302003" lon="-102.49245807505291"><ele>1872.0</ele><time>2026-03-22T14:28:05Z</time></trkpt><trkpt lat="21.738832032423307" lon="-102.49242726461397"><ele>1872.0</ele><time>2026-03-22T14:28:06Z</time></trkpt><trkpt lat="21.738711884502912" lon="-102.49238935579852"><ele>1872.0</ele><time>2026-03-22T14:28:07Z</time></trkpt><trkpt lat="21.738595650782717" lon="-102.49234926428525"><ele>1872.0</ele><time>2026-03-22T14:28:08Z</time></trkpt><trkpt lat="21.738475808248214" lon="-102.49230987918214"><ele>1871.5</ele><time>2026-03-22T14:28:09Z</time></trkpt><trkpt lat="21.738403921978552" lon="-102.49230542548162"><ele>1871.0</ele><time>2026-03-22T14:28:10Z</time></trkpt><trkpt lat="21.73829389722533" lon="-102.49227097799528"><ele>1870.5</ele><time>2026-03-22T14:28:11Z</time></trkpt><trkpt lat="21.738221500620405" lon="-102.49229560170356"><ele>1870.0</ele><time>2026-03-22T14:28:12Z</time></trkpt><trkpt lat="21.738115604302635" lon="-102.49227169845113"><ele>1869.5</ele><time>2026-03-22T14:28:13Z</time></trkpt><trkpt lat="21.73804580583688" lon="-102.4922564025295"><ele>1869.0</ele><time>2026-03-22T14:28:14Z</time></trkpt><trkpt lat="21.737952279690557" lon="-102.49223601274741"><ele>1869.0</ele><time>2026-03-22T14:28:15Z</time></trkpt><trkpt lat="21.737856996900035" lon="-102.49221422291154"><ele>1869.0</ele><time>2026-03-22T14:28:16Z</time></trkpt><trkpt lat="21.737753970106564" lon="-102.49219122776975"><ele>1869.0</ele><time>2026-03-22T14:28:17Z</time></trkpt><trkpt lat="21.737629820795085" lon="-102.49216290520735"><ele>1869.0</ele><time>2026-03-22T14:28:18Z</time></trkpt><trkpt lat="21.737532902061552" lon="-102.49214127711156"><ele>1869.0</ele><time>2026-03-22T14:28:19Z</time></trkpt><trkpt lat="21.73741531773801" lon="-102.49211503525176"><ele>1869.0</ele><time>2026-03-22T14:28:20Z</time></trkpt><trkpt lat="21.73730423677469" lon="-102.49209024476673"><ele>1869.0</ele><time>2026-03-22T14:28:21Z</time></trkpt><trkpt lat="21.737208730527765" lon="-102.4920685693394"><ele>1869.0</ele><time>2026-03-22T14:28:22Z</time></trkpt><trkpt lat="21.7371104576349" lon="-102.4920459433782"><ele>1869.0</ele><time>2026-03-22T14:28:23Z</time></trkpt><trkpt lat="21.737009508708105" lon="-102.49202384956683"><ele>1869.0</ele><time>2026-03-22T14:28:24Z</time></trkpt><trkpt lat="21.736901122679058" lon="-102.49199956039642"><ele>1868.8000000000002</ele><time>2026-03-22T14:28:25Z</time></trkpt><trkpt lat="21.73680911100327" lon="-102.49197839567518"><ele>1868.6000000000001</ele><time>2026-03-22T14:28:26Z</time></trkpt><trkpt lat="21.736709709489485" lon="-102.49195513806738"><ele>1868.4</ele><time>2026-03-22T14:28:27Z</time></trkpt><trkpt lat="21.73658713896624" lon="-102.49192693166574"><ele>1868.2</ele><time>2026-03-22T14:28:28Z</time></trkpt><trkpt lat="21.736473898420353" lon="-102.49190092207962"><ele>1868.0</ele><time>2026-03-22T14:28:29Z</time></trkpt><trkpt lat="21.736371919336868" lon="-102.49187732260725"><ele>1868.0</ele><time>2026-03-22T14:28:30Z</time></trkpt><trkpt lat="21.736276173039048" lon="-102.49185471326632"><ele>1868.0000000000002</ele><time>2026-03-22T14:28:31Z</time></trkpt><trkpt lat="21.73616841665957" lon="-102.49182900922929"><ele>1868.0000000000002</ele><time>2026-03-22T14:28:32Z</time></trkpt><trkpt lat="21.73605327560225" lon="-102.49180074002815"><ele>1868.0</ele><time>2026-03-22T14:28:33Z</time></trkpt><trkpt lat="21.73595611794618" lon="-102.49177687719497"><ele>1868.0</ele><time>2026-03-22T14:28:34Z</time></trkpt><trkpt lat="21.735858891069352" lon="-102.49175299731492"><ele>1867.0</ele><time>2026-03-22T14:28:35Z</time></trkpt><trkpt lat="21.735756124916374" lon="-102.49172775704861"><ele>1866.0000000000002</ele><time>2026-03-22T14:28:36Z</time></trkpt><trkpt lat="21.735639223069967" lon="-102.49169904580681"><ele>1865.0000000000002</ele><time>2026-03-22T14:28:37Z</time></trkpt><trkpt lat="21.735534238429796" lon="-102.49167389467009"><ele>1864.0</ele><time>2026-03-22T14:28:38Z</time></trkpt><trkpt lat="21.735464847906076" lon="-102.49165695566103"><ele>1863.0</ele><time>2026-03-22T14:28:39Z</time></trkpt><trkpt lat="21.735401680975684" lon="-102.49164164786882"><ele>1863.0</ele><time>2026-03-22T14:28:40Z</time></trkpt><trkpt lat="21.735342129077413" lon="-102.49160694971229"><ele>1863.0000000000002</ele><time>2026-03-22T14:28:41Z</time></trkpt><trkpt lat="21.735308178314114" lon="-102.49153047496475"><ele>1863.0000000000002</ele><time>2026-03-22T14:28:42Z</time></trkpt><trkpt lat="21.735213405723986" lon="-102.49151366636298"><ele>1863.0</ele><time>2026-03-22T14:28:43Z</time></trkpt><trkpt lat="21.7351312382022" lon="-102.49134953663821"><ele>1863.0</ele><time>2026-03-22T14:28:44Z</time></trkpt><trkpt lat="21.735114884440165" lon="-102.49124920572412"><ele>1861.6000000000001</ele><time>2026-03-22T14:28:45Z</time></trkpt><trkpt lat="21.735089963732374" lon="-102.49112615183304"><ele>1860.2000000000003</ele><time>2026-03-22T14:28:46Z</time></trkpt><trkpt lat="21.735076163091193" lon="-102.49100590767752"><ele>1858.8</ele><time>2026-03-22T14:28:47Z</time></trkpt><trkpt lat="21.735040597073258" lon="-102.49089931440162"><ele>1857.4</ele><time>2026-03-22T14:28:48Z</time></trkpt><trkpt lat="21.73502118675049" lon="-102.49078364214107"><ele>1856.0</ele><time>2026-03-22T14:28:49Z</time></trkpt><trkpt lat="21.735001702597003" lon="-102.49066741548222"><ele>1856.0</ele><time>2026-03-22T14:28:50Z</time></trkpt><trkpt lat="21.734980351058493" lon="-102.49054953577237"><ele>1856.0</ele><time>2026-03-22T14:28:51Z</time></trkpt><trkpt lat="21.734957664025305" lon="-102.49043294076257"><ele>1856.0</ele><time>2026-03-22T14:28:52Z</time></trkpt><trkpt lat="21.73493181341132" lon="-102.4903065897532"><ele>1856.0</ele><time>2026-03-22T14:28:53Z</time></trkpt><trkpt lat="21.734892380447597" lon="-102.49019029008318"><ele>1855.75</ele><time>2026-03-22T14:28:54Z</time></trkpt><trkpt lat="21.734862103228725" lon="-102.49001934410155"><ele>1855.5</ele><time>2026-03-22T14:28:55Z</time></trkpt><trkpt lat="21.734839577634222" lon="-102.48988739348152"><ele>1855.25</ele><time>2026-03-22T14:28:56Z</time></trkpt><trkpt lat="21.73482401840223" lon="-102.489748236022"><ele>1855.0</ele><time>2026-03-22T14:28:57Z</time></trkpt><trkpt lat="21.734802574812868" lon="-102.48961702624366"><ele>1855.5</ele><time>2026-03-22T14:28:58Z</time></trkpt><trkpt lat="21.73478125075155" lon="-102.48950098565314"><ele>1856.0</ele><time>2026-03-22T14:28:59Z</time></trkpt><trkpt lat="21.734757590657658" lon="-102.489373614355"><ele>1856.5</ele><time>2026-03-22T14:29:00Z</time></trkpt><trkpt lat="21.734720133118294" lon="-102.48926301942252"><ele>1857.0</ele><time>2026-03-22T14:29:01Z</time></trkpt><trkpt lat="21.73470138050636" lon="-102.4891403591876"><ele>1857.0</ele><time>2026-03-22T14:29:02Z</time></trkpt><trkpt lat="21.734656301550007" lon="-102.48905472348395"><ele>1856.9999999999998</ele><time>2026-03-22T14:29:03Z</time></trkpt><trkpt lat="21.734563573345035" lon="-102.4889479095427"><ele>1856.9999999999998</ele><time>2026-03-22T14:29:07Z</time></trkpt><trkpt lat="21.734498863935023" lon="-102.48890444550742"><ele>1857.0</ele><time>2026-03-22T14:29:08Z</time></trkpt><trkpt lat="21.734427158514592" lon="-102.48883882558195"><ele>1857.0</ele><time>2026-03-22T14:29:09Z</time></trkpt><trkpt lat="21.734350880476523" lon="-102.48878906692585"><ele>1857.0</ele><time>2026-03-22T14:29:10Z</time></trkpt><trkpt lat="21.73426963233385" lon="-102.48874401968398"><ele>1857.0</ele><time>2026-03-22T14:29:11Z</time></trkpt><trkpt lat="21.734199892046387" lon="-102.48871521353898"><ele>1857.0</ele><time>2026-03-22T14:29:12Z</time></trkpt><trkpt lat="21.73411194781634" lon="-102.4886766216307"><ele>1857.0</ele><time>2026-03-22T14:29:13Z</time></trkpt><trkpt lat="21.734034034308745" lon="-102.48864065096696"><ele>1857.0</ele><time>2026-03-22T14:29:14Z</time></trkpt><trkpt lat="21.733967980203676" lon="-102.48860950932757"><ele>1857.0</ele><time>2026-03-22T14:29:15Z</time></trkpt><trkpt lat="21.733894943913743" lon="-102.4885764702254"><ele>1857.0</ele><time>2026-03-22T14:29:16Z</time></trkpt><trkpt lat="21.733817774746914" lon="-102.48853941089085"><ele>1856.9999999999998</ele><time>2026-03-22T14:29:17Z</time></trkpt><trkpt lat="21.733710293042368" lon="-102.48850971567394"><ele>1856.9999999999998</ele><time>2026-03-22T14:29:18Z</time></trkpt><trkpt lat="21.733577642036444" lon="-102.48847041365688"><ele>1857.0</ele><time>2026-03-22T14:29:21Z</time></trkpt><trkpt lat="21.73349877572101" lon="-102.48843861971157"><ele>1857.0</ele><time>2026-03-22T14:29:22Z</time></trkpt><trkpt lat="21.73343167971128" lon="-102.4884079742178"><ele>1857.0</ele><time>2026-03-22T14:29:23Z</time></trkpt><trkpt lat="21.73336817054105" lon="-102.48837555056448"><ele>1857.0</ele><time>2026-03-22T14:29:24Z</time></trkpt><trkpt lat="21.733299567397705" lon="-102.4883405266471"><ele>1857.0</ele><time>2026-03-22T14:29:25Z</time></trkpt><trkpt lat="21.733233619582307" lon="-102.48829087364867"><ele>1857.0</ele><time>2026-03-22T14:29:26Z</time></trkpt><trkpt lat="21.733166520153105" lon="-102.48821554722237"><ele>1857.0</ele><time>2026-03-22T14:29:28Z</time></trkpt><trkpt lat="21.733125810209454" lon="-102.4881635439525"><ele>1857.0</ele><time>2026-03-22T14:29:29Z</time></trkpt><trkpt lat="21.733081812419776" lon="-102.48810577429924"><ele>1857.0</ele><time>2026-03-22T14:29:30Z</time></trkpt><trkpt lat="21.7330349264417" lon="-102.4880404661103"><ele>1856.9999999999998</ele><time>2026-03-22T14:29:31Z</time></trkpt><trkpt lat="21.732978058396625" lon="-102.48794003944153"><ele>1856.9999999999998</ele><time>2026-03-22T14:29:32Z</time></trkpt><trkpt lat="21.732925496633914" lon="-102.48785114675043"><ele>1857.0</ele><time>2026-03-22T14:29:33Z</time></trkpt><trkpt lat="21.732886265929913" lon="-102.48776180708032"><ele>1857.0</ele><time>2026-03-22T14:29:34Z</time></trkpt><trkpt lat="21.732832130461627" lon="-102.48765396325348"><ele>1856.8</ele><time>2026-03-22T14:29:35Z</time></trkpt><trkpt lat="21.73278541139601" lon="-102.48754737380882"><ele>1856.6</ele><time>2026-03-22T14:29:36Z</time></trkpt><trkpt lat="21.73275692194038" lon="-102.48744384404971"><ele>1856.3999999999999</ele><time>2026-03-22T14:29:37Z</time></trkpt><trkpt lat="21.732714048770323" lon="-102.48733946691819"><ele>1856.1999999999998</ele><time>2026-03-22T14:29:38Z</time></trkpt><trkpt lat="21.732671860191335" lon="-102.48723675645115"><ele>1856.0</ele><time>2026-03-22T14:29:39Z</time></trkpt><trkpt lat="21.73259803089309" lon="-102.48705294707803"><ele>1855.25</ele><time>2026-03-22T14:29:40Z</time></trkpt><trkpt lat="21.732580721259843" lon="-102.48692336371869"><ele>1854.5</ele><time>2026-03-22T14:29:42Z</time></trkpt><trkpt lat="21.73255896406323" lon="-102.4867936824113"><ele>1853.75</ele><time>2026-03-22T14:29:43Z</time></trkpt><trkpt lat="21.73253459911568" lon="-102.48667421261905"><ele>1853.0</ele><time>2026-03-22T14:29:44Z</time></trkpt><trkpt lat="21.73253484669937" lon="-102.48654964414011"><ele>1853.0</ele><time>2026-03-22T14:29:45Z</time></trkpt><trkpt lat="21.73257358386326" lon="-102.4863868753404"><ele>1853.0</ele><time>2026-03-22T14:29:46Z</time></trkpt><trkpt lat="21.732646646755228" lon="-102.48616132051741"><ele>1853.0</ele><time>2026-03-22T14:29:47Z</time></trkpt><trkpt lat="21.732738102160667" lon="-102.4859891416281"><ele>1851.5</ele><time>2026-03-22T14:29:48Z</time></trkpt><trkpt lat="21.732767023683902" lon="-102.48586598031197"><ele>1850.0</ele><time>2026-03-22T14:29:49Z</time></trkpt><trkpt lat="21.732811844118302" lon="-102.48571164962185"><ele>1848.5</ele><time>2026-03-22T14:29:50Z</time></trkpt><trkpt lat="21.732879066414306" lon="-102.48557153996478"><ele>1847.0</ele><time>2026-03-22T14:29:51Z</time></trkpt><trkpt lat="21.732900178905307" lon="-102.48541149444921"><ele>1845.75</ele><time>2026-03-22T14:29:52Z</time></trkpt><trkpt lat="21.7329740016577" lon="-102.48526257304198"><ele>1844.5</ele><time>2026-03-22T14:29:53Z</time></trkpt><trkpt lat="21.733012276596476" lon="-102.48515334749368"><ele>1843.25</ele><time>2026-03-22T14:29:54Z</time></trkpt><trkpt lat="21.73306033367012" lon="-102.48502193941286"><ele>1842.0</ele><time>2026-03-22T14:29:55Z</time></trkpt><trkpt lat="21.733115326176424" lon="-102.48487624734985"><ele>1842.0</ele><time>2026-03-22T14:29:56Z</time></trkpt><trkpt lat="21.733180055586256" lon="-102.48474726775355"><ele>1842.0</ele><time>2026-03-22T14:29:57Z</time></trkpt><trkpt lat="21.733235730258674" lon="-102.48462911633428"><ele>1842.0</ele><time>2026-03-22T14:29:58Z</time></trkpt><trkpt lat="21.733281558154964" lon="-102.48449253144581"><ele>1842.0</ele><time>2026-03-22T14:29:59Z</time></trkpt><trkpt lat="21.733343510351578" lon="-102.48435412855069"><ele>1841.75</ele><time>2026-03-22T14:30:00Z</time></trkpt><trkpt lat="21.73340480076951" lon="-102.48422180744892"><ele>1841.5</ele><time>2026-03-22T14:30:01Z</time></trkpt><trkpt lat="21.733452880826263" lon="-102.48408076427961"><ele>1841.25</ele><time>2026-03-22T14:30:02Z</time></trkpt><trkpt lat="21.73349658995897" lon="-102.48396473849255"><ele>1841.0</ele><time>2026-03-22T14:30:03Z</time></trkpt><trkpt lat="21.733556188623034" lon="-102.48383894960328"><ele>1840.25</ele><time>2026-03-22T14:30:04Z</time></trkpt><trkpt lat="21.733591922861006" lon="-102.48371731570145"><ele>1839.5</ele><time>2026-03-22T14:30:05Z</time></trkpt><trkpt lat="21.733628813895127" lon="-102.48359664990393"><ele>1838.75</ele><time>2026-03-22T14:30:06Z</time></trkpt><trkpt lat="21.733668234137205" lon="-102.48347070029183"><ele>1838.0</ele><time>2026-03-22T14:30:07Z</time></trkpt><trkpt lat="21.733716276015194" lon="-102.48334192908315"><ele>1838.0</ele><time>2026-03-22T14:30:08Z</time></trkpt><trkpt lat="21.73375393806836" lon="-102.48321993195654"><ele>1838.0</ele><time>2026-03-22T14:30:09Z</time></trkpt><trkpt lat="21.733801454023304" lon="-102.4830871781373"><ele>1838.0</ele><time>2026-03-22T14:30:10Z</time></trkpt><trkpt lat="21.733941610053666" lon="-102.48273039855343"><ele>1838.0</ele><time>2026-03-22T14:30:11Z</time></trkpt><trkpt lat="21.734011161068512" lon="-102.48259776902381"><ele>1838.0</ele><time>2026-03-22T14:30:12Z</time></trkpt><trkpt lat="21.734068393094148" lon="-102.48244214735108"><ele>1838.0</ele><time>2026-03-22T14:30:13Z</time></trkpt><trkpt lat="21.73410300629865" lon="-102.48234957658981"><ele>1838.0</ele><time>2026-03-22T14:30:14Z</time></trkpt><trkpt lat="21.73414397842869" lon="-102.48224041118718"><ele>1838.0</ele><time>2026-03-22T14:30:15Z</time></trkpt><trkpt lat="21.734188405614663" lon="-102.48212190102798"><ele>1838.0000000000002</ele><time>2026-03-22T14:30:16Z</time></trkpt><trkpt lat="21.73422704415615" lon="-102.48202177605097"><ele>1838.0000000000002</ele><time>2026-03-22T14:30:17Z</time></trkpt><trkpt lat="21.734277322134236" lon="-102.48189305365288"><ele>1838.0</ele><time>2026-03-22T14:30:18Z</time></trkpt><trkpt lat="21.73431595272005" lon="-102.4817941510845"><ele>1838.0</ele><time>2026-03-22T14:30:19Z</time></trkpt><trkpt lat="21.7343573510878" lon="-102.48169001407007"><ele>1836.0</ele><time>2026-03-22T14:30:20Z</time></trkpt><trkpt lat="21.7343961921917" lon="-102.48158738281717"><ele>1834.0</ele><time>2026-03-22T14:30:21Z</time></trkpt><trkpt lat="21.73445300591596" lon="-102.48143385769265"><ele>1832.0</ele><time>2026-03-22T14:30:22Z</time></trkpt><trkpt lat="21.734481033178593" lon="-102.48135165189387"><ele>1830.0</ele><time>2026-03-22T14:30:23Z</time></trkpt><trkpt lat="21.734521175829887" lon="-102.48122423408743"><ele>1829.8</ele><time>2026-03-22T14:30:24Z</time></trkpt><trkpt lat="21.734548164724593" lon="-102.48113030243493"><ele>1829.6</ele><time>2026-03-22T14:30:25Z</time></trkpt><trkpt lat="21.734585813523328" lon="-102.4809784027458"><ele>1829.4</ele><time>2026-03-22T14:30:26Z</time></trkpt><trkpt lat="21.734603821843734" lon="-102.48087024289981"><ele>1829.2</ele><time>2026-03-22T14:30:27Z</time></trkpt><trkpt lat="21.734608718496116" lon="-102.48078002845179"><ele>1829.0</ele><time>2026-03-22T14:30:28Z</time></trkpt><trkpt lat="21.734609905152848" lon="-102.48066209971861"><ele>1829.0</ele><time>2026-03-22T14:30:29Z</time></trkpt><trkpt lat="21.7346091970316" lon="-102.4805504504936"><ele>1829.0</ele><time>2026-03-22T14:30:30Z</time></trkpt><trkpt lat="21.734603452937115" lon="-102.48044555871437"><ele>1829.0</ele><time>2026-03-22T14:30:31Z</time></trkpt><trkpt lat="21.73460069006511" lon="-102.48035814017189"><ele>1829.0</ele><time>2026-03-22T14:30:32Z</time></trkpt><trkpt lat="21.73456833967228" lon="-102.48023718565977"><ele>1829.0</ele><time>2026-03-22T14:30:33Z</time></trkpt><trkpt lat="21.73454152945045" lon="-102.48006962129234"><ele>1828.6666666666665</ele><time>2026-03-22T14:30:34Z</time></trkpt><trkpt lat="21.734525242147228" lon="-102.4799678243927"><ele>1828.3333333333335</ele><time>2026-03-22T14:30:35Z</time></trkpt><trkpt lat="21.734506159131644" lon="-102.479840557118"><ele>1828.0</ele><time>2026-03-22T14:30:36Z</time></trkpt><trkpt lat="21.734839343882562" lon="-102.4796535641597"><ele>1826.75</ele><time>2026-03-22T14:30:37Z</time></trkpt><trkpt lat="21.73482563104774" lon="-102.4795207668436"><ele>1825.5</ele><time>2026-03-22T14:30:38Z</time></trkpt><trkpt lat="21.73481311976926" lon="-102.47937855916622"><ele>1824.25</ele><time>2026-03-22T14:30:39Z</time></trkpt><trkpt lat="21.73480149784187" lon="-102.47923238452817"><ele>1823.0</ele><time>2026-03-22T14:30:40Z</time></trkpt><trkpt lat="21.734638376986528" lon="-102.47911802187919"><ele>1823.0</ele><time>2026-03-22T14:30:41Z</time></trkpt><trkpt lat="21.734627402894937" lon="-102.47897208618895"><ele>1823.0</ele><time>2026-03-22T14:30:42Z</time></trkpt><trkpt lat="21.73466075492888" lon="-102.47879556233224"><ele>1823.0</ele><time>2026-03-22T14:30:43Z</time></trkpt><trkpt lat="21.734692918046335" lon="-102.47870715660132"><ele>1823.0</ele><time>2026-03-22T14:30:44Z</time></trkpt><trkpt lat="21.734626862238933" lon="-102.4786271735457"><ele>1823.0</ele><time>2026-03-22T14:30:45Z</time></trkpt><trkpt lat="21.734629653700463" lon="-102.478473223955"><ele>1823.0</ele><time>2026-03-22T14:30:46Z</time></trkpt><trkpt lat="21.734565908396792" lon="-102.47836629571488"><ele>1823.0</ele><time>2026-03-22T14:30:47Z</time></trkpt><trkpt lat="21.73447957996967" lon="-102.47829031978452"><ele>1823.0</ele><time>2026-03-22T14:30:48Z</time></trkpt><trkpt lat="21.734219946908173" lon="-102.47822914041134"><ele>1823.0</ele><time>2026-03-22T14:30:49Z</time></trkpt><trkpt lat="21.734198083547298" lon="-102.47810708489591"><ele>1823.0</ele><time>2026-03-22T14:30:50Z</time></trkpt><trkpt lat="21.734181883495094" lon="-102.47801320764015"><ele>1823.0</ele><time>2026-03-22T14:30:51Z</time></trkpt><trkpt lat="21.73415098177329" lon="-102.47788184090264"><ele>1823.0</ele><time>2026-03-22T14:30:52Z</time></trkpt><trkpt lat="21.73412175767685" lon="-102.47775155997782"><ele>1822.0</ele><time>2026-03-22T14:30:53Z</time></trkpt><trkpt lat="21.734095209751022" lon="-102.4776359253114"><ele>1821.0</ele><time>2026-03-22T14:30:54Z</time></trkpt><trkpt lat="21.7340676813146" lon="-102.47748438931718"><ele>1820.0</ele><time>2026-03-22T14:30:55Z</time></trkpt><trkpt lat="21.734044081507367" lon="-102.477357697041"><ele>1819.0</ele><time>2026-03-22T14:30:56Z</time></trkpt><trkpt lat="21.734031194524423" lon="-102.47722573395667"><ele>1819.0</ele><time>2026-03-22T14:30:57Z</time></trkpt><trkpt lat="21.73400984869668" lon="-102.47709061588061"><ele>1819.0</ele><time>2026-03-22T14:30:58Z</time></trkpt><trkpt lat="21.733991804026413" lon="-102.47700717284756"><ele>1819.0</ele><time>2026-03-22T14:30:59Z</time></trkpt><trkpt lat="21.733976308222847" lon="-102.47692288093097"><ele>1819.0</ele><time>2026-03-22T14:31:00Z</time></trkpt><trkpt lat="21.73395492389736" lon="-102.4767898529688"><ele>1819.0</ele><time>2026-03-22T14:31:01Z</time></trkpt><trkpt lat="21.733945101864833" lon="-102.47662882490103"><ele>1819.0</ele><time>2026-03-22T14:31:02Z</time></trkpt><trkpt lat="21.733903544363674" lon="-102.47644738608201"><ele>1819.0</ele><time>2026-03-22T14:31:03Z</time></trkpt><trkpt lat="21.73387121607837" lon="-102.47628444716348"><ele>1819.0</ele><time>2026-03-22T14:31:04Z</time></trkpt><trkpt lat="21.733844670863757" lon="-102.47613103599623"><ele>1819.0</ele><time>2026-03-22T14:31:05Z</time></trkpt><trkpt lat="21.733818283491722" lon="-102.47597946851158"><ele>1819.0</ele><time>2026-03-22T14:31:06Z</time></trkpt><trkpt lat="21.73379908066674" lon="-102.47585071332448"><ele>1819.0</ele><time>2026-03-22T14:31:07Z</time></trkpt><trkpt lat="21.733776847844137" lon="-102.47571893426677"><ele>1819.0</ele><time>2026-03-22T14:31:08Z</time></trkpt><trkpt lat="21.733755139122703" lon="-102.47559458787227"><ele>1818.75</ele><time>2026-03-22T14:31:09Z</time></trkpt><trkpt lat="21.73372686504577" lon="-102.47543719593551"><ele>1818.5</ele><time>2026-03-22T14:31:10Z</time></trkpt><trkpt lat="21.733702054887157" lon="-102.47529563243414"><ele>1818.25</ele><time>2026-03-22T14:31:11Z</time></trkpt><trkpt lat="21.733679288725902" lon="-102.47516643836965"><ele>1818.0</ele><time>2026-03-22T14:31:12Z</time></trkpt><trkpt lat="21.733671674895763" lon="-102.47502695154088"><ele>1818.0</ele><time>2026-03-22T14:31:13Z</time></trkpt><trkpt lat="21.73363351747773" lon="-102.4749081589381"><ele>1818.0</ele><time>2026-03-22T14:31:14Z</time></trkpt><trkpt lat="21.73362447885986" lon="-102.47476239624483"><ele>1818.0</ele><time>2026-03-22T14:31:15Z</time></trkpt><trkpt lat="21.73359210186973" lon="-102.47467458443703"><ele>1818.0</ele><time>2026-03-22T14:31:16Z</time></trkpt><trkpt lat="21.733569324341513" lon="-102.47454508998091"><ele>1817.6000000000001</ele><time>2026-03-22T14:31:17Z</time></trkpt><trkpt lat="21.733546372607087" lon="-102.47441232786105"><ele>1817.2000000000003</ele><time>2026-03-22T14:31:18Z</time></trkpt><trkpt lat="21.733523917847037" lon="-102.47428267908003"><ele>1816.8</ele><time>2026-03-22T14:31:19Z</time></trkpt><trkpt lat="21.733505543544346" lon="-102.47417902897213"><ele>1816.4</ele><time>2026-03-22T14:31:20Z</time></trkpt><trkpt lat="21.733492659241115" lon="-102.474108334967"><ele>1816.0</ele><time>2026-03-22T14:31:22Z</time></trkpt><trkpt lat="21.733470785889715" lon="-102.47398831975113"><ele>1816.0</ele><time>2026-03-22T14:31:25Z</time></trkpt><trkpt lat="21.733455705428824" lon="-102.47390557589293"><ele>1816.0</ele><time>2026-03-22T14:31:26Z</time></trkpt><trkpt lat="21.733437260570213" lon="-102.47380437219984"><ele>1816.0</ele><time>2026-03-22T14:31:27Z</time></trkpt><trkpt lat="21.73344049519258" lon="-102.47370002739058"><ele>1816.0</ele><time>2026-03-22T14:31:28Z</time></trkpt><trkpt lat="21.7334232377213" lon="-102.47359958795667"><ele>1816.0</ele><time>2026-03-22T14:31:29Z</time></trkpt><trkpt lat="21.733406217937052" lon="-102.47349875623179"><ele>1816.25</ele><time>2026-03-22T14:31:30Z</time></trkpt><trkpt lat="21.7333702507891" lon="-102.47337040658692"><ele>1816.5</ele><time>2026-03-22T14:31:31Z</time></trkpt><trkpt lat="21.733359126658357" lon="-102.47324904157527"><ele>1816.75</ele><time>2026-03-22T14:31:32Z</time></trkpt><trkpt lat="21.733340907346175" lon="-102.47312540697014"><ele>1817.0</ele><time>2026-03-22T14:31:33Z</time></trkpt><trkpt lat="21.733315215983502" lon="-102.4730231107841"><ele>1817.5</ele><time>2026-03-22T14:31:34Z</time></trkpt><trkpt lat="21.73330679663777" lon="-102.47290625340082"><ele>1818.0</ele><time>2026-03-22T14:31:35Z</time></trkpt><trkpt lat="21.7332839010938" lon="-102.47279072945105"><ele>1818.5</ele><time>2026-03-22T14:31:36Z</time></trkpt><trkpt lat="21.73326338750525" lon="-102.47264955603458"><ele>1819.0</ele><time>2026-03-22T14:31:37Z</time></trkpt><trkpt lat="21.73324834289867" lon="-102.47253084086552"><ele>1819.0</ele><time>2026-03-22T14:31:38Z</time></trkpt><trkpt lat="21.733180238445087" lon="-102.47243528403231"><ele>1819.0</ele><time>2026-03-22T14:31:39Z</time></trkpt><trkpt lat="21.733179580389432" lon="-102.47232724885356"><ele>1819.0</ele><time>2026-03-22T14:31:40Z</time></trkpt><trkpt lat="21.733139601531015" lon="-102.47219719774921"><ele>1819.0</ele><time>2026-03-22T14:31:41Z</time></trkpt><trkpt lat="21.73313156317664" lon="-102.47209035350859"><ele>1819.0</ele><time>2026-03-22T14:31:42Z</time></trkpt><trkpt lat="21.733127037494842" lon="-102.47198627327838"><ele>1819.4</ele><time>2026-03-22T14:31:43Z</time></trkpt><trkpt lat="21.733093727951807" lon="-102.47187122426809"><ele>1819.8000000000002</ele><time>2026-03-22T14:31:44Z</time></trkpt><trkpt lat="21.733034691391175" lon="-102.47178044213348"><ele>1820.1999999999998</ele><time>2026-03-22T14:31:45Z</time></trkpt><trkpt lat="21.733013553432784" lon="-102.4716959760577"><ele>1820.6</ele><time>2026-03-22T14:31:46Z</time></trkpt><trkpt lat="21.733038407667866" lon="-102.47162088652753"><ele>1821.0</ele><time>2026-03-22T14:31:47Z</time></trkpt><trkpt lat="21.732985487717897" lon="-102.47150357095691"><ele>1821.0</ele><time>2026-03-22T14:31:48Z</time></trkpt><trkpt lat="21.732816025271475" lon="-102.47153083174496"><ele>1821.0</ele><time>2026-03-22T14:31:49Z</time></trkpt><trkpt lat="21.732750114816643" lon="-102.47144538390138"><ele>1821.0</ele><time>2026-03-22T14:31:50Z</time></trkpt><trkpt lat="21.732723753427955" lon="-102.47134342589561"><ele>1821.0</ele><time>2026-03-22T14:31:51Z</time></trkpt><trkpt lat="21.732648746265877" lon="-102.47128908665134"><ele>1820.6</ele><time>2026-03-22T14:31:52Z</time></trkpt><trkpt lat="21.732626299914887" lon="-102.47118408082065"><ele>1820.1999999999998</ele><time>2026-03-22T14:31:53Z</time></trkpt><trkpt lat="21.732561040210243" lon="-102.471151512828"><ele>1819.8000000000002</ele><time>2026-03-22T14:31:54Z</time></trkpt><trkpt lat="21.732492607314683" lon="-102.47110998167271"><ele>1819.4</ele><time>2026-03-22T14:31:55Z</time></trkpt><trkpt lat="21.732424300337243" lon="-102.47104725353985"><ele>1819.0</ele><time>2026-03-22T14:31:56Z</time></trkpt><trkpt lat="21.73240229889361" lon="-102.47092704197148"><ele>1819.0</ele><time>2026-03-22T14:31:57Z</time></trkpt><trkpt lat="21.732353356154395" lon="-102.47083962238221"><ele>1819.0</ele><time>2026-03-22T14:31:58Z</time></trkpt><trkpt lat="21.732309489702267" lon="-102.47073818244405"><ele>1819.0</ele><time>2026-03-22T14:31:59Z</time></trkpt><trkpt lat="21.732249811281026" lon="-102.47066368436681"><ele>1819.0</ele><time>2026-03-22T14:32:00Z</time></trkpt><trkpt lat="21.732127491311623" lon="-102.47063826868637"><ele>1819.0</ele><time>2026-03-22T14:32:01Z</time></trkpt><trkpt lat="21.73210433362645" lon="-102.47054340247057"><ele>1819.0000000000002</ele><time>2026-03-22T14:32:02Z</time></trkpt><trkpt lat="21.732046841427795" lon="-102.47047099555608"><ele>1819.0</ele><time>2026-03-22T14:32:03Z</time></trkpt><trkpt lat="21.731995611582747" lon="-102.47040283197029"><ele>1819.0</ele><time>2026-03-22T14:32:04Z</time></trkpt><trkpt lat="21.731938107432693" lon="-102.47031912615154"><ele>1819.0</ele><time>2026-03-22T14:32:05Z</time></trkpt><trkpt lat="21.731887929261706" lon="-102.4702390719529"><ele>1819.0000000000002</ele><time>2026-03-22T14:32:06Z</time></trkpt><trkpt lat="21.73185015383963" lon="-102.47017485385186"><ele>1819.0</ele><time>2026-03-22T14:32:07Z</time></trkpt><trkpt lat="21.731760841904602" lon="-102.47016077868555"><ele>1818.2</ele><time>2026-03-22T14:32:08Z</time></trkpt><trkpt lat="21.73168092530588" lon="-102.47009209464801"><ele>1817.4</ele><time>2026-03-22T14:32:09Z</time></trkpt><trkpt lat="21.731637238516694" lon="-102.47002352562663"><ele>1816.6</ele><time>2026-03-22T14:32:10Z</time></trkpt><trkpt lat="21.731632184893385" lon="-102.46991027805561"><ele>1815.8</ele><time>2026-03-22T14:32:11Z</time></trkpt><trkpt lat="21.731576124471275" lon="-102.46983838229968"><ele>1815.0</ele><time>2026-03-22T14:32:12Z</time></trkpt><trkpt lat="21.731569102915113" lon="-102.46972037811076"><ele>1815.2</ele><time>2026-03-22T14:32:13Z</time></trkpt><trkpt lat="21.731474646397764" lon="-102.46959770312141"><ele>1815.4</ele><time>2026-03-22T14:32:15Z</time></trkpt><trkpt lat="21.731421578719452" lon="-102.46952234344386"><ele>1815.6</ele><time>2026-03-22T14:32:16Z</time></trkpt><trkpt lat="21.73136037830483" lon="-102.4694827063645"><ele>1815.8</ele><time>2026-03-22T14:32:17Z</time></trkpt><trkpt lat="21.731274843773186" lon="-102.46944326864109"><ele>1816.0</ele><time>2026-03-22T14:32:18Z</time></trkpt><trkpt lat="21.73120958682163" lon="-102.46938640143759"><ele>1816.0000000000002</ele><time>2026-03-22T14:32:19Z</time></trkpt><trkpt lat="21.731189163194642" lon="-102.46926826948979"><ele>1816.0</ele><time>2026-03-22T14:32:20Z</time></trkpt><trkpt lat="21.73114886487002" lon="-102.46917710834762"><ele>1816.0</ele><time>2026-03-22T14:32:21Z</time></trkpt><trkpt lat="21.731147461558102" lon="-102.46909954842994"><ele>1816.0</ele><time>2026-03-22T14:32:22Z</time></trkpt><trkpt lat="21.731104981282705" lon="-102.46902763226399"><ele>1816.0000000000002</ele><time>2026-03-22T14:32:23Z</time></trkpt><trkpt lat="21.731031574121722" lon="-102.46897029150392"><ele>1816.0</ele><time>2026-03-22T14:32:24Z</time></trkpt><trkpt lat="21.73100222255176" lon="-102.46890219472847"><ele>1815.1999999999998</ele><time>2026-03-22T14:32:25Z</time></trkpt><trkpt lat="21.73093343582874" lon="-102.46884168802477"><ele>1814.3999999999999</ele><time>2026-03-22T14:32:26Z</time></trkpt><trkpt lat="21.730811484212285" lon="-102.46904642451904"><ele>1813.6</ele><time>2026-03-22T14:32:27Z</time></trkpt><trkpt lat="21.730763649557428" lon="-102.46899974691091"><ele>1812.8</ele><time>2026-03-22T14:32:28Z</time></trkpt><trkpt lat="21.730711083657372" lon="-102.46895613398762"><ele>1812.0</ele><time>2026-03-22T14:32:29Z</time></trkpt><trkpt lat="21.730662743891987" lon="-102.4689074493639"><ele>1812.0</ele><time>2026-03-22T14:32:30Z</time></trkpt><trkpt lat="21.73060984626081" lon="-102.4688554308971"><ele>1812.0</ele><time>2026-03-22T14:32:31Z</time></trkpt><trkpt lat="21.730549034920088" lon="-102.46876807003935"><ele>1812.0</ele><time>2026-03-22T14:32:32Z</time></trkpt><trkpt lat="21.730607484197257" lon="-102.46859762709066"><ele>1812.0</ele><time>2026-03-22T14:32:34Z</time></trkpt><trkpt lat="21.730668450127183" lon="-102.46841555108438"><ele>1813.0</ele><time>2026-03-22T14:32:35Z</time></trkpt><trkpt lat="21.730609314704786" lon="-102.46838736012802"><ele>1814.0</ele><time>2026-03-22T14:32:36Z</time></trkpt><trkpt lat="21.730567899133796" lon="-102.468315470187"><ele>1815.0</ele><time>2026-03-22T14:32:37Z</time></trkpt><trkpt lat="21.730529624181923" lon="-102.46824023599187"><ele>1816.0</ele><time>2026-03-22T14:32:38Z</time></trkpt><trkpt lat="21.730455916340937" lon="-102.46822036685246"><ele>1817.0</ele><time>2026-03-22T14:32:39Z</time></trkpt><trkpt lat="21.730483504793632" lon="-102.46808580057882"><ele>1818.0</ele><time>2026-03-22T14:32:40Z</time></trkpt><trkpt lat="21.73041267126023" lon="-102.4680601412439"><ele>1818.0</ele><time>2026-03-22T14:32:41Z</time></trkpt><trkpt lat="21.730404976684362" lon="-102.46797769510938"><ele>1818.0</ele><time>2026-03-22T14:32:42Z</time></trkpt><trkpt lat="21.730334560411787" lon="-102.46788592131486"><ele>1818.0</ele><time>2026-03-22T14:32:44Z</time></trkpt><trkpt lat="21.73034063013595" lon="-102.46780017560044"><ele>1818.0</ele><time>2026-03-22T14:32:45Z</time></trkpt><trkpt lat="21.73028294417417" lon="-102.46774846993537"><ele>1818.0</ele><time>2026-03-22T14:32:46Z</time></trkpt><trkpt lat="21.73024715930035" lon="-102.46767360965873"><ele>1818.0</ele><time>2026-03-22T14:32:47Z</time></trkpt><trkpt lat="21.730214716265895" lon="-102.46761485141889"><ele>1817.6666666666667</ele><time>2026-03-22T14:32:48Z</time></trkpt><trkpt lat="21.73020466796997" lon="-102.46753854088286"><ele>1817.3333333333335</ele><time>2026-03-22T14:32:49Z</time></trkpt><trkpt lat="21.73017937392132" lon="-102.46744662484568"><ele>1817.0</ele><time>2026-03-22T14:32:50Z</time></trkpt><trkpt lat="21.73015414995345" lon="-102.4673809419715"><ele>1816.6666666666667</ele><time>2026-03-22T14:32:51Z</time></trkpt><trkpt lat="21.730130102344937" lon="-102.46731389905385"><ele>1816.3333333333335</ele><time>2026-03-22T14:32:52Z</time></trkpt><trkpt lat="21.730109235421374" lon="-102.46723200036138"><ele>1816.0</ele><time>2026-03-22T14:32:53Z</time></trkpt><trkpt lat="21.730065030473185" lon="-102.46713957841558"><ele>1816.4</ele><time>2026-03-22T14:32:54Z</time></trkpt><trkpt lat="21.73006532583902" lon="-102.46702231333181"><ele>1816.8</ele><time>2026-03-22T14:32:55Z</time></trkpt><trkpt lat="21.730146627686253" lon="-102.46690992335819"><ele>1817.2000000000003</ele><time>2026-03-22T14:32:56Z</time></trkpt><trkpt lat="21.730085355148358" lon="-102.46679252423552"><ele>1817.6000000000001</ele><time>2026-03-22T14:32:58Z</time></trkpt><trkpt lat="21.730061238548195" lon="-102.46672022886365"><ele>1818.0</ele><time>2026-03-22T14:32:59Z</time></trkpt><trkpt lat="21.73004173897121" lon="-102.46664468438817"><ele>1818.0</ele><time>2026-03-22T14:33:00Z</time></trkpt><trkpt lat="21.730024510173052" lon="-102.46656423692718"><ele>1818.0</ele><time>2026-03-22T14:33:01Z</time></trkpt><trkpt lat="21.730006535222195" lon="-102.4664825907416"><ele>1818.0</ele><time>2026-03-22T14:33:02Z</time></trkpt><trkpt lat="21.729967343956087" lon="-102.4663920998471"><ele>1818.0</ele><time>2026-03-22T14:33:04Z</time></trkpt><trkpt lat="21.72995529070633" lon="-102.46631641889402"><ele>1818.0</ele><time>2026-03-22T14:33:05Z</time></trkpt><trkpt lat="21.729916432776324" lon="-102.46624180215808"><ele>1818.0</ele><time>2026-03-22T14:33:06Z</time></trkpt><trkpt lat="21.729903979617692" lon="-102.46614741383972"><ele>1818.2</ele><time>2026-03-22T14:33:07Z</time></trkpt><trkpt lat="21.72982151282795" lon="-102.46610276598643"><ele>1818.4</ele><time>2026-03-22T14:33:09Z</time></trkpt><trkpt lat="21.729798547624583" lon="-102.4660361402165"><ele>1818.6000000000001</ele><time>2026-03-22T14:33:10Z</time></trkpt><trkpt lat="21.7297459675509" lon="-102.4658667662002"><ele>1818.8000000000002</ele><time>2026-03-22T14:33:12Z</time></trkpt><trkpt lat="21.729724280108506" lon="-102.46578069536848"><ele>1819.0</ele><time>2026-03-22T14:33:13Z</time></trkpt><trkpt lat="21.729712770710236" lon="-102.46569851661864"><ele>1819.0</ele><time>2026-03-22T14:33:14Z</time></trkpt><trkpt lat="21.729705051912045" lon="-102.46560818950891"><ele>1819.0</ele><time>2026-03-22T14:33:15Z</time></trkpt><trkpt lat="21.729689790440872" lon="-102.46552353627399"><ele>1819.0</ele><time>2026-03-22T14:33:16Z</time></trkpt><trkpt lat="21.729782786447167" lon="-102.46528596902318"><ele>1819.0</ele><time>2026-03-22T14:33:17Z</time></trkpt><trkpt lat="21.72975476596217" lon="-102.46516150378594"><ele>1818.6</ele><time>2026-03-22T14:33:18Z</time></trkpt><trkpt lat="21.729732857912495" lon="-102.46507238040832"><ele>1818.2</ele><time>2026-03-22T14:33:19Z</time></trkpt><trkpt lat="21.729734867823336" lon="-102.4649618451272"><ele>1817.7999999999997</ele><time>2026-03-22T14:33:20Z</time></trkpt><trkpt lat="21.72972537587626" lon="-102.4648610128463"><ele>1817.3999999999999</ele><time>2026-03-22T14:33:21Z</time></trkpt><trkpt lat="21.729682756943525" lon="-102.46495362322547"><ele>1817.0</ele><time>2026-03-22T14:33:22Z</time></trkpt><trkpt lat="21.729626686604004" lon="-102.464815665834"><ele>1817.0</ele><time>2026-03-22T14:33:23Z</time></trkpt><trkpt lat="21.72962154350177" lon="-102.46469228711268"><ele>1817.0</ele><time>2026-03-22T14:33:24Z</time></trkpt><trkpt lat="21.72948701388982" lon="-102.46458536139752"><ele>1817.0</ele><time>2026-03-22T14:33:26Z</time></trkpt><trkpt lat="21.729463198581115" lon="-102.46438609680237"><ele>1816.25</ele><time>2026-03-22T14:33:27Z</time></trkpt><trkpt lat="21.72943691159774" lon="-102.46427628273267"><ele>1815.5</ele><time>2026-03-22T14:33:28Z</time></trkpt><trkpt lat="21.72939969556431" lon="-102.46418417823459"><ele>1814.75</ele><time>2026-03-22T14:33:29Z</time></trkpt><trkpt lat="21.729368327610754" lon="-102.46407425573102"><ele>1814.0</ele><time>2026-03-22T14:33:30Z</time></trkpt><trkpt lat="21.729484525430475" lon="-102.46375724857432"><ele>1812.5</ele><time>2026-03-22T14:33:31Z</time></trkpt><trkpt lat="21.729433731041933" lon="-102.46359920559814"><ele>1811.0</ele><time>2026-03-22T14:33:32Z</time></trkpt><trkpt lat="21.729376679171256" lon="-102.46345133160406"><ele>1809.5</ele><time>2026-03-22T14:33:33Z</time></trkpt><trkpt lat="21.72931008292483" lon="-102.46332879719075"><ele>1808.0</ele><time>2026-03-22T14:33:34Z</time></trkpt><trkpt lat="21.729254328181863" lon="-102.46320404483428"><ele>1808.0</ele><time>2026-03-22T14:33:35Z</time></trkpt><trkpt lat="21.729174714613592" lon="-102.4630525973467"><ele>1808.0</ele><time>2026-03-22T14:33:36Z</time></trkpt><trkpt lat="21.729089286916942" lon="-102.46292927427542"><ele>1808.0</ele><time>2026-03-22T14:33:37Z</time></trkpt><trkpt lat="21.7290163264869" lon="-102.46279993630291"><ele>1808.0</ele><time>2026-03-22T14:33:38Z</time></trkpt><trkpt lat="21.728946563750576" lon="-102.46265711420706"><ele>1807.0</ele><time>2026-03-22T14:33:39Z</time></trkpt><trkpt lat="21.728869007831456" lon="-102.46251853323115"><ele>1806.0</ele><time>2026-03-22T14:33:40Z</time></trkpt><trkpt lat="21.728798825977467" lon="-102.46238820661394"><ele>1805.0</ele><time>2026-03-22T14:33:41Z</time></trkpt><trkpt lat="21.728720164022185" lon="-102.46228273409136"><ele>1804.0</ele><time>2026-03-22T14:33:42Z</time></trkpt><trkpt lat="21.728657413875425" lon="-102.46215871185147"><ele>1803.6</ele><time>2026-03-22T14:33:43Z</time></trkpt><trkpt lat="21.7285876982745" lon="-102.46208427052365"><ele>1803.2</ele><time>2026-03-22T14:33:44Z</time></trkpt><trkpt lat="21.72848766184878" lon="-102.46202548484544"><ele>1802.7999999999997</ele><time>2026-03-22T14:33:47Z</time></trkpt><trkpt lat="21.728435610264402" lon="-102.46193512593875"><ele>1802.3999999999999</ele><time>2026-03-22T14:33:48Z</time></trkpt><trkpt lat="21.728320435352924" lon="-102.46186194923536"><ele>1802.0</ele><time>2026-03-22T14:33:49Z</time></trkpt><trkpt lat="21.728206777650534" lon="-102.46176417717832"><ele>1802.0</ele><time>2026-03-22T14:33:50Z</time></trkpt><trkpt lat="21.728087432436553" lon="-102.46164894987012"><ele>1802.0</ele><time>2026-03-22T14:33:51Z</time></trkpt><trkpt lat="21.72807094717445" lon="-102.46134328995934"><ele>1802.0</ele><time>2026-03-22T14:33:52Z</time></trkpt><trkpt lat="21.72803789973494" lon="-102.46118467764398"><ele>1802.0</ele><time>2026-03-22T14:33:53Z</time></trkpt><trkpt lat="21.727899511530396" lon="-102.4611004927362"><ele>1802.0</ele><time>2026-03-22T14:33:54Z</time></trkpt><trkpt lat="21.727834346875866" lon="-102.46100853732582"><ele>1802.0</ele><time>2026-03-22T14:33:55Z</time></trkpt><trkpt lat="21.727789656228907" lon="-102.46090838141376"><ele>1802.0</ele><time>2026-03-22T14:33:56Z</time></trkpt><trkpt lat="21.727725133293443" lon="-102.4608288358418"><ele>1802.0</ele><time>2026-03-22T14:33:57Z</time></trkpt><trkpt lat="21.727694028956567" lon="-102.4607166326357"><ele>1802.0</ele><time>2026-03-22T14:33:58Z</time></trkpt><trkpt lat="21.727678227726866" lon="-102.46059269733499"><ele>1802.0</ele><time>2026-03-22T14:33:59Z</time></trkpt><trkpt lat="21.727594134224326" lon="-102.46050995243665"><ele>1802.0</ele><time>2026-03-22T14:34:00Z</time></trkpt><trkpt lat="21.727546954232768" lon="-102.46039758575637"><ele>1800.75</ele><time>2026-03-22T14:34:01Z</time></trkpt><trkpt lat="21.72753935471143" lon="-102.46025654629038"><ele>1799.5</ele><time>2026-03-22T14:34:02Z</time></trkpt><trkpt lat="21.727529879658846" lon="-102.46012979621203"><ele>1798.25</ele><time>2026-03-22T14:34:03Z</time></trkpt><trkpt lat="21.727503973469137" lon="-102.46002019389876"><ele>1797.0</ele><time>2026-03-22T14:34:04Z</time></trkpt><trkpt lat="21.727458110268895" lon="-102.45991757146558"><ele>1797.0</ele><time>2026-03-22T14:34:05Z</time></trkpt><trkpt lat="21.72742175711119" lon="-102.45981717098908"><ele>1796.9999999999998</ele><time>2026-03-22T14:34:06Z</time></trkpt><trkpt lat="21.727381373154884" lon="-102.45970984635815"><ele>1796.9999999999998</ele><time>2026-03-22T14:34:07Z</time></trkpt><trkpt lat="21.7273463326334" lon="-102.45959611858528"><ele>1797.0</ele><time>2026-03-22T14:34:08Z</time></trkpt><trkpt lat="21.72731220556542" lon="-102.45948679042024"><ele>1797.0</ele><time>2026-03-22T14:34:09Z</time></trkpt><trkpt lat="21.72726763491358" lon="-102.45936088650589"><ele>1796.0</ele><time>2026-03-22T14:34:10Z</time></trkpt><trkpt lat="21.72722712607189" lon="-102.45924704807588"><ele>1794.9999999999998</ele><time>2026-03-22T14:34:11Z</time></trkpt><trkpt lat="21.727222065866567" lon="-102.45916865207725"><ele>1793.9999999999998</ele><time>2026-03-22T14:34:12Z</time></trkpt><trkpt lat="21.727200758221194" lon="-102.45906678426843"><ele>1793.0</ele><time>2026-03-22T14:34:13Z</time></trkpt><trkpt lat="21.727180061304786" lon="-102.45892908124331"><ele>1792.0</ele><time>2026-03-22T14:34:14Z</time></trkpt><trkpt lat="21.727132518954686" lon="-102.4588613200737"><ele>1792.0</ele><time>2026-03-22T14:34:15Z</time></trkpt><trkpt lat="21.72718850084493" lon="-102.45863787235811"><ele>1792.0</ele><time>2026-03-22T14:34:16Z</time></trkpt><trkpt lat="21.727238342745615" lon="-102.45846582320387"><ele>1792.0</ele><time>2026-03-22T14:34:17Z</time></trkpt><trkpt lat="21.72722611455671" lon="-102.45835437390362"><ele>1792.0</ele><time>2026-03-22T14:34:18Z</time></trkpt><trkpt lat="21.727180582160738" lon="-102.45826147432624"><ele>1791.9999999999998</ele><time>2026-03-22T14:34:19Z</time></trkpt><trkpt lat="21.727183735979185" lon="-102.45817474551576"><ele>1791.9999999999998</ele><time>2026-03-22T14:34:20Z</time></trkpt><trkpt lat="21.72718338359862" lon="-102.45806389779719"><ele>1792.0</ele><time>2026-03-22T14:34:21Z</time></trkpt><trkpt lat="21.727186514401293" lon="-102.45795027086638"><ele>1792.0</ele><time>2026-03-22T14:34:22Z</time></trkpt><trkpt lat="21.727180863475514" lon="-102.45783739516129"><ele>1791.6666666666667</ele><time>2026-03-22T14:34:23Z</time></trkpt><trkpt lat="21.727162713723736" lon="-102.4577626747802"><ele>1791.3333333333335</ele><time>2026-03-22T14:34:24Z</time></trkpt><trkpt lat="21.727156995624284" lon="-102.4576552839702"><ele>1791.0</ele><time>2026-03-22T14:34:25Z</time></trkpt><trkpt lat="21.727156971292395" lon="-102.4575421920832"><ele>1790.6666666666665</ele><time>2026-03-22T14:34:26Z</time></trkpt><trkpt lat="21.727148978595842" lon="-102.4574476123883"><ele>1790.3333333333333</ele><time>2026-03-22T14:34:27Z</time></trkpt><trkpt lat="21.727144928955138" lon="-102.45735884839208"><ele>1790.0</ele><time>2026-03-22T14:34:28Z</time></trkpt><trkpt lat="21.727085168938054" lon="-102.45743296512613"><ele>1790.0</ele><time>2026-03-22T14:34:29Z</time></trkpt><trkpt lat="21.727008157158206" lon="-102.45747552200304"><ele>1790.0</ele><time>2026-03-22T14:34:32Z</time></trkpt><trkpt lat="21.727001925915864" lon="-102.45727163762584"><ele>1790.0</ele><time>2026-03-22T14:34:33Z</time></trkpt><trkpt lat="21.726976403969637" lon="-102.45720350371784"><ele>1790.0</ele><time>2026-03-22T14:34:34Z</time></trkpt><trkpt lat="21.72694192581966" lon="-102.45711195077915"><ele>1790.0</ele><time>2026-03-22T14:34:35Z</time></trkpt><trkpt lat="21.726936140682795" lon="-102.45702118855941"><ele>1790.25</ele><time>2026-03-22T14:34:36Z</time></trkpt><trkpt lat="21.72677062121731" lon="-102.45689699894932"><ele>1790.5</ele><time>2026-03-22T14:34:37Z</time></trkpt><trkpt lat="21.726874652696456" lon="-102.45682019081157"><ele>1790.75</ele><time>2026-03-22T14:34:38Z</time></trkpt><trkpt lat="21.726837172182396" lon="-102.4567256201864"><ele>1791.0</ele><time>2026-03-22T14:34:39Z</time></trkpt><trkpt lat="21.726850024386835" lon="-102.45664884757835"><ele>1791.0</ele><time>2026-03-22T14:34:40Z</time></trkpt><trkpt lat="21.726846081660927" lon="-102.456562483744"><ele>1791.0</ele><time>2026-03-22T14:34:41Z</time></trkpt><trkpt lat="21.726854515339536" lon="-102.45649204287818"><ele>1791.0</ele><time>2026-03-22T14:34:42Z</time></trkpt><trkpt lat="21.72687122149374" lon="-102.45637809514321"><ele>1791.0</ele><time>2026-03-22T14:34:44Z</time></trkpt><trkpt lat="21.726866049802343" lon="-102.45618768952895"><ele>1791.0</ele><time>2026-03-22T14:34:46Z</time></trkpt><trkpt lat="21.726899529992785" lon="-102.4560992846837"><ele>1791.4</ele><time>2026-03-22T14:34:47Z</time></trkpt><trkpt lat="21.726901994584043" lon="-102.45597241776176"><ele>1791.8</ele><time>2026-03-22T14:34:49Z</time></trkpt><trkpt lat="21.726903467784563" lon="-102.45583586190051"><ele>1792.2000000000003</ele><time>2026-03-22T14:34:51Z</time></trkpt><trkpt lat="21.72690583302883" lon="-102.45574410323971"><ele>1792.6000000000001</ele><time>2026-03-22T14:34:53Z</time></trkpt><trkpt lat="21.72690649161986" lon="-102.45561920516084"><ele>1793.0</ele><time>2026-03-22T14:34:55Z</time></trkpt><trkpt lat="21.726940334108054" lon="-102.45555695691147"><ele>1795.0</ele><time>2026-03-22T14:34:56Z</time></trkpt><trkpt lat="21.726985929660916" lon="-102.45544106954004"><ele>1797.0</ele><time>2026-03-22T14:34:57Z</time></trkpt><trkpt lat="21.726977523715302" lon="-102.45535301836044"><ele>1799.0</ele><time>2026-03-22T14:34:58Z</time></trkpt><trkpt lat="21.727033780585334" lon="-102.45521649115665"><ele>1801.0</ele><time>2026-03-22T14:34:59Z</time></trkpt><trkpt lat="21.72693716842785" lon="-102.45531092526303"><ele>1801.0</ele><time>2026-03-22T14:35:01Z</time></trkpt><trkpt lat="21.7268600201247" lon="-102.45522227782561"><ele>1801.0</ele><time>2026-03-22T14:35:09Z</time></trkpt><trkpt lat="21.726867973779214" lon="-102.45515395204214"><ele>1801.0</ele><time>2026-03-22T14:35:10Z</time></trkpt><trkpt lat="21.726959315792776" lon="-102.4550247255695"><ele>1801.0</ele><time>2026-03-22T14:35:11Z</time></trkpt><trkpt lat="21.727018946065748" lon="-102.45496722553834"><ele>1801.0</ele><time>2026-03-22T14:35:12Z</time></trkpt><trkpt lat="21.72705259440575" lon="-102.45489664748389"><ele>1801.0</ele><time>2026-03-22T14:35:13Z</time></trkpt><trkpt lat="21.72701032976669" lon="-102.4548344286586"><ele>1801.0</ele><time>2026-03-22T14:35:15Z</time></trkpt><trkpt lat="21.726954211424907" lon="-102.45475881259371"><ele>1801.0</ele><time>2026-03-22T14:35:17Z</time></trkpt><trkpt lat="21.726902756940206" lon="-102.45469107734435"><ele>1801.0</ele><time>2026-03-22T14:35:21Z</time></trkpt><trkpt lat="21.726890887259948" lon="-102.45449130701412"><ele>1801.0</ele><time>2026-03-22T14:35:23Z</time></trkpt><trkpt lat="21.726882237681146" lon="-102.45440400245099"><ele>1800.8333333333335</ele><time>2026-03-22T14:35:24Z</time></trkpt><trkpt lat="21.726882169159428" lon="-102.45431616837529"><ele>1800.6666666666667</ele><time>2026-03-22T14:35:25Z</time></trkpt><trkpt lat="21.726874638616195" lon="-102.45424536118385"><ele>1800.5</ele><time>2026-03-22T14:35:26Z</time></trkpt><trkpt lat="21.726833353382574" lon="-102.45435857609465"><ele>1800.3333333333335</ele><time>2026-03-22T14:35:27Z</time></trkpt><trkpt lat="21.726783304906018" lon="-102.45426914066618"><ele>1800.1666666666667</ele><time>2026-03-22T14:35:29Z</time></trkpt><trkpt lat="21.726734351266828" lon="-102.45422484387615"><ele>1800.0</ele><time>2026-03-22T14:35:30Z</time></trkpt><trkpt lat="21.726702718623" lon="-102.45416304478358"><ele>1800.0</ele><time>2026-03-22T14:35:31Z</time></trkpt><trkpt lat="21.726664352429296" lon="-102.45406699595732"><ele>1800.0</ele><time>2026-03-22T14:35:32Z</time></trkpt><trkpt lat="21.7266164369016" lon="-102.45400026283819"><ele>1800.0</ele><time>2026-03-22T14:35:33Z</time></trkpt><trkpt lat="21.726546280060514" lon="-102.453923196969"><ele>1800.0</ele><time>2026-03-22T14:35:37Z</time></trkpt><trkpt lat="21.726616182994277" lon="-102.45375246151056"><ele>1800.0</ele><time>2026-03-22T14:35:38Z</time></trkpt><trkpt lat="21.726683449149736" lon="-102.4536176533354"><ele>1805.0</ele><time>2026-03-22T14:35:39Z</time></trkpt><trkpt lat="21.72691030903528" lon="-102.4529887543589"><ele>1805.0</ele><time>2026-03-22T14:35:40Z</time></trkpt><trkpt lat="21.726914310242716" lon="-102.45291896550654"><ele>1805.0</ele><time>2026-03-22T14:35:41Z</time></trkpt><trkpt lat="21.72686038324057" lon="-102.45279571655936"><ele>1805.0</ele><time>2026-03-22T14:35:43Z</time></trkpt><trkpt lat="21.72684935333427" lon="-102.45272864085057"><ele>1805.0</ele><time>2026-03-22T14:35:44Z</time></trkpt><trkpt lat="21.72691274995774" lon="-102.45264118396427"><ele>1805.0</ele><time>2026-03-22T14:35:46Z</time></trkpt><trkpt lat="21.72692039037745" lon="-102.45253016635421"><ele>1805.0</ele><time>2026-03-22T14:35:48Z</time></trkpt><trkpt lat="21.726922851661357" lon="-102.45241216629823"><ele>1805.0</ele><time>2026-03-22T14:35:50Z</time></trkpt><trkpt lat="21.72693577472856" lon="-102.45232585750429"><ele>1805.0</ele><time>2026-03-22T14:35:52Z</time></trkpt><trkpt lat="21.726958738014307" lon="-102.45226103875645"><ele>1805.0</ele><time>2026-03-22T14:35:53Z</time></trkpt><trkpt lat="21.727005904053087" lon="-102.452147086517"><ele>1805.0</ele><time>2026-03-22T14:35:55Z</time></trkpt><trkpt lat="21.727059590960614" lon="-102.45204220831151"><ele>1805.3333333333333</ele><time>2026-03-22T14:35:57Z</time></trkpt><trkpt lat="21.727119063362988" lon="-102.4519284301235"><ele>1805.6666666666665</ele><time>2026-03-22T14:35:59Z</time></trkpt><trkpt lat="21.727154322608087" lon="-102.45186946663047"><ele>1806.0</ele><time>2026-03-22T14:36:00Z</time></trkpt><trkpt lat="21.727201292567003" lon="-102.45182061361129"><ele>1806.3333333333335</ele><time>2026-03-22T14:36:01Z</time></trkpt><trkpt lat="21.727226710147868" lon="-102.45175359623937"><ele>1806.6666666666667</ele><time>2026-03-22T14:36:02Z</time></trkpt><trkpt lat="21.72731695576482" lon="-102.45167080308232"><ele>1807.0</ele><time>2026-03-22T14:36:04Z</time></trkpt><trkpt lat="21.72735518354218" lon="-102.45161314308058"><ele>1807.0000000000002</ele><time>2026-03-22T14:36:05Z</time></trkpt><trkpt lat="21.727394176786195" lon="-102.45155798041932"><ele>1807.0</ele><time>2026-03-22T14:36:06Z</time></trkpt><trkpt lat="21.72747526436921" lon="-102.45146711753499"><ele>1807.0</ele><time>2026-03-22T14:36:08Z</time></trkpt><trkpt lat="21.72751513943314" lon="-102.4514071591826"><ele>1807.0</ele><time>2026-03-22T14:36:09Z</time></trkpt><trkpt lat="21.72755767879607" lon="-102.4513504170936"><ele>1807.0000000000002</ele><time>2026-03-22T14:36:10Z</time></trkpt><trkpt lat="21.727601191731072" lon="-102.45129613968899"><ele>1807.0</ele><time>2026-03-22T14:36:11Z</time></trkpt><trkpt lat="21.727646292155715" lon="-102.4512420319784"><ele>1807.1428571428573</ele><time>2026-03-22T14:36:12Z</time></trkpt><trkpt lat="21.727692412408018" lon="-102.45118750872291"><ele>1807.2857142857142</ele><time>2026-03-22T14:36:13Z</time></trkpt><trkpt lat="21.727737414865416" lon="-102.45112594653597"><ele>1807.4285714285716</ele><time>2026-03-22T14:36:14Z</time></trkpt><trkpt lat="21.72777969813744" lon="-102.45106623685943"><ele>1807.5714285714287</ele><time>2026-03-22T14:36:15Z</time></trkpt><trkpt lat="21.727823535906595" lon="-102.45101032570578"><ele>1807.7142857142858</ele><time>2026-03-22T14:36:16Z</time></trkpt><trkpt lat="21.727862617379877" lon="-102.45095576028068"><ele>1807.857142857143</ele><time>2026-03-22T14:36:17Z</time></trkpt><trkpt lat="21.727910342224227" lon="-102.45090267610473"><ele>1808.0</ele><time>2026-03-22T14:36:18Z</time></trkpt><trkpt lat="21.727957536552655" lon="-102.45084852700943"><ele>1808.0</ele><time>2026-03-22T14:36:19Z</time></trkpt><trkpt lat="21.728005451427794" lon="-102.45078960799115"><ele>1808.0</ele><time>2026-03-22T14:36:20Z</time></trkpt><trkpt lat="21.72804858203976" lon="-102.45072701517087"><ele>1808.0</ele><time>2026-03-22T14:36:21Z</time></trkpt><trkpt lat="21.72809430664549" lon="-102.45066982814205"><ele>1808.0</ele><time>2026-03-22T14:36:22Z</time></trkpt><trkpt lat="21.7281485729476" lon="-102.45061418388867"><ele>1808.0</ele><time>2026-03-22T14:36:23Z</time></trkpt><trkpt lat="21.728207719261842" lon="-102.45056323553507"><ele>1808.0</ele><time>2026-03-22T14:36:24Z</time></trkpt><trkpt lat="21.72826476847562" lon="-102.45050835832369"><ele>1808.0</ele><time>2026-03-22T14:36:25Z</time></trkpt><trkpt lat="21.72832622679927" lon="-102.45045914324933"><ele>1807.1666666666665</ele><time>2026-03-22T14:36:26Z</time></trkpt><trkpt lat="21.728385609330804" lon="-102.45040938885016"><ele>1806.3333333333333</ele><time>2026-03-22T14:36:27Z</time></trkpt><trkpt lat="21.728451191536195" lon="-102.45036235907344"><ele>1805.5</ele><time>2026-03-22T14:36:28Z</time></trkpt><trkpt lat="21.72851925919283" lon="-102.45031726060597"><ele>1804.6666666666665</ele><time>2026-03-22T14:36:29Z</time></trkpt><trkpt lat="21.728595429046294" lon="-102.45028451782308"><ele>1803.8333333333333</ele><time>2026-03-22T14:36:30Z</time></trkpt><trkpt lat="21.728669308842623" lon="-102.45024207593926"><ele>1803.0</ele><time>2026-03-22T14:36:31Z</time></trkpt><trkpt lat="21.728746291639307" lon="-102.4502102593492"><ele>1803.0</ele><time>2026-03-22T14:36:32Z</time></trkpt><trkpt lat="21.72882693753783" lon="-102.45017419053899"><ele>1803.0</ele><time>2026-03-22T14:36:33Z</time></trkpt><trkpt lat="21.728908376562917" lon="-102.45014321046679"><ele>1803.0</ele><time>2026-03-22T14:36:34Z</time></trkpt><trkpt lat="21.728992306824047" lon="-102.45011998546994"><ele>1803.0</ele><time>2026-03-22T14:36:35Z</time></trkpt><trkpt lat="21.729075730839767" lon="-102.45009362548588"><ele>1803.0</ele><time>2026-03-22T14:36:36Z</time></trkpt><trkpt lat="21.729157763265572" lon="-102.45006205056679"><ele>1803.0</ele><time>2026-03-22T14:36:37Z</time></trkpt><trkpt lat="21.729243190488223" lon="-102.4500288331777"><ele>1803.0</ele><time>2026-03-22T14:36:38Z</time></trkpt><trkpt lat="21.729328081700483" lon="-102.44999873414702"><ele>1803.0</ele><time>2026-03-22T14:36:39Z</time></trkpt><trkpt lat="21.729408665897065" lon="-102.44997330330291"><ele>1803.0</ele><time>2026-03-22T14:36:40Z</time></trkpt><trkpt lat="21.729485851661913" lon="-102.44994301832236"><ele>1803.0</ele><time>2026-03-22T14:36:41Z</time></trkpt><trkpt lat="21.729572295981882" lon="-102.4499093124389"><ele>1803.0</ele><time>2026-03-22T14:36:42Z</time></trkpt><trkpt lat="21.729654158602607" lon="-102.4498770571622"><ele>1803.0</ele><time>2026-03-22T14:36:43Z</time></trkpt><trkpt lat="21.72973464150243" lon="-102.44983224022577"><ele>1803.6000000000001</ele><time>2026-03-22T14:36:44Z</time></trkpt><trkpt lat="21.729816658991005" lon="-102.44978265312686"><ele>1804.2000000000003</ele><time>2026-03-22T14:36:45Z</time></trkpt><trkpt lat="21.729877989134877" lon="-102.44971203627304"><ele>1804.8</ele><time>2026-03-22T14:36:46Z</time></trkpt><trkpt lat="21.729934045432685" lon="-102.4496375939934"><ele>1805.4</ele><time>2026-03-22T14:36:47Z</time></trkpt><trkpt lat="21.72997868882891" lon="-102.44955663304484"><ele>1806.0</ele><time>2026-03-22T14:36:48Z</time></trkpt><trkpt lat="21.73003382093501" lon="-102.44947314603546"><ele>1803.8</ele><time>2026-03-22T14:36:49Z</time></trkpt><trkpt lat="21.730057515761178" lon="-102.44937632912132"><ele>1801.6</ele><time>2026-03-22T14:36:50Z</time></trkpt><trkpt lat="21.730075791486872" lon="-102.44928438747338"><ele>1799.4</ele><time>2026-03-22T14:36:51Z</time></trkpt><trkpt lat="21.730089982886057" lon="-102.44919336252754"><ele>1797.2</ele><time>2026-03-22T14:36:52Z</time></trkpt><trkpt lat="21.73004213412934" lon="-102.4490981190521"><ele>1795.0</ele><time>2026-03-22T14:36:53Z</time></trkpt><trkpt lat="21.7300459135169" lon="-102.44900217302704"><ele>1795.0000000000002</ele><time>2026-03-22T14:36:54Z</time></trkpt><trkpt lat="21.730047447610033" lon="-102.44890696460475"><ele>1795.0</ele><time>2026-03-22T14:36:55Z</time></trkpt><trkpt lat="21.730048657471094" lon="-102.44881552281302"><ele>1795.0</ele><time>2026-03-22T14:36:56Z</time></trkpt><trkpt lat="21.730050618199858" lon="-102.44871787101168"><ele>1795.0</ele><time>2026-03-22T14:36:57Z</time></trkpt><trkpt lat="21.730051508899106" lon="-102.4486204421006"><ele>1795.0000000000002</ele><time>2026-03-22T14:36:58Z</time></trkpt><trkpt lat="21.73005210651832" lon="-102.4485242988284"><ele>1795.0</ele><time>2026-03-22T14:36:59Z</time></trkpt><trkpt lat="21.730052678368473" lon="-102.44842717956249"><ele>1795.2</ele><time>2026-03-22T14:37:00Z</time></trkpt><trkpt lat="21.73005279693075" lon="-102.44832579489426"><ele>1795.4</ele><time>2026-03-22T14:37:01Z</time></trkpt><trkpt lat="21.73005279692927" lon="-102.44822530463479"><ele>1795.6</ele><time>2026-03-22T14:37:02Z</time></trkpt><trkpt lat="21.7300527969304" lon="-102.44812474548712"><ele>1795.8</ele><time>2026-03-22T14:37:03Z</time></trkpt><trkpt lat="21.73005265195495" lon="-102.44802481542526"><ele>1796.0</ele><time>2026-03-22T14:37:04Z</time></trkpt><trkpt lat="21.730051975177677" lon="-102.44792421908676"><ele>1796.4999999999998</ele><time>2026-03-22T14:37:05Z</time></trkpt><trkpt lat="21.73005134165166" lon="-102.44783005180057"><ele>1797.0</ele><time>2026-03-22T14:37:06Z</time></trkpt><trkpt lat="21.730050701128405" lon="-102.44773484439195"><ele>1797.5</ele><time>2026-03-22T14:37:07Z</time></trkpt><trkpt lat="21.73004952044808" lon="-102.44763847390334"><ele>1798.0</ele><time>2026-03-22T14:37:08Z</time></trkpt><trkpt lat="21.730049096931857" lon="-102.44753844349457"><ele>1798.4999999999998</ele><time>2026-03-22T14:37:09Z</time></trkpt><trkpt lat="21.73004909693211" lon="-102.44744618030141"><ele>1799.0</ele><time>2026-03-22T14:37:10Z</time></trkpt><trkpt lat="21.730049096930824" lon="-102.44735839801972"><ele>1798.9999999999998</ele><time>2026-03-22T14:37:11Z</time></trkpt><trkpt lat="21.730049096931058" lon="-102.44726751031925"><ele>1799.0</ele><time>2026-03-22T14:37:12Z</time></trkpt><trkpt lat="21.730049096929406" lon="-102.44718068885332"><ele>1799.0</ele><time>2026-03-22T14:37:13Z</time></trkpt><trkpt lat="21.73004947465096" lon="-102.44709224949197"><ele>1799.0</ele><time>2026-03-22T14:37:14Z</time></trkpt><trkpt lat="21.730050439185558" lon="-102.44700582718578"><ele>1798.9999999999998</ele><time>2026-03-22T14:37:15Z</time></trkpt><trkpt lat="21.73005138747068" lon="-102.44692086093602"><ele>1799.0</ele><time>2026-03-22T14:37:16Z</time></trkpt><trkpt lat="21.7300524153619" lon="-102.44683413296215"><ele>1798.6666666666665</ele><time>2026-03-22T14:37:17Z</time></trkpt><trkpt lat="21.7300534720688" lon="-102.44674639774088"><ele>1798.3333333333333</ele><time>2026-03-22T14:37:18Z</time></trkpt><trkpt lat="21.73005446740249" lon="-102.44666375822004"><ele>1798.0</ele><time>2026-03-22T14:37:19Z</time></trkpt><trkpt lat="21.730055296932655" lon="-102.44658010959316"><ele>1797.6666666666665</ele><time>2026-03-22T14:37:20Z</time></trkpt><trkpt lat="21.730055470463384" lon="-102.44649749370677"><ele>1797.3333333333333</ele><time>2026-03-22T14:37:21Z</time></trkpt><trkpt lat="21.730057079220813" lon="-102.44641574338081"><ele>1797.0</ele><time>2026-03-22T14:37:22Z</time></trkpt><trkpt lat="21.730058771989462" lon="-102.44632972405304"><ele>1797.6666666666667</ele><time>2026-03-22T14:37:23Z</time></trkpt><trkpt lat="21.73005958007501" lon="-102.44624255453957"><ele>1798.3333333333335</ele><time>2026-03-22T14:37:24Z</time></trkpt><trkpt lat="21.73007357703801" lon="-102.44615236698517"><ele>1799.0</ele><time>2026-03-22T14:37:25Z</time></trkpt><trkpt lat="21.73007438807284" lon="-102.4460684553442"><ele>1799.6666666666667</ele><time>2026-03-22T14:37:26Z</time></trkpt><trkpt lat="21.730063635095455" lon="-102.4459831852281"><ele>1800.3333333333335</ele><time>2026-03-22T14:37:27Z</time></trkpt><trkpt lat="21.73005420522742" lon="-102.44590053351938"><ele>1801.0</ele><time>2026-03-22T14:37:28Z</time></trkpt><trkpt lat="21.73004110690135" lon="-102.44581826151634"><ele>1801.0000000000002</ele><time>2026-03-22T14:37:29Z</time></trkpt><trkpt lat="21.73001662853102" lon="-102.4457340204831"><ele>1801.0</ele><time>2026-03-22T14:37:30Z</time></trkpt><trkpt lat="21.72998704611514" lon="-102.44565380148741"><ele>1801.0</ele><time>2026-03-22T14:37:31Z</time></trkpt><trkpt lat="21.729949812534777" lon="-102.44557551103122"><ele>1801.0</ele><time>2026-03-22T14:37:32Z</time></trkpt><trkpt lat="21.7299036576601" lon="-102.44550494849432"><ele>1801.0000000000002</ele><time>2026-03-22T14:37:33Z</time></trkpt><trkpt lat="21.72985712957179" lon="-102.44543742473057"><ele>1801.0</ele><time>2026-03-22T14:37:34Z</time></trkpt><trkpt lat="21.72980258588437" lon="-102.44537336981855"><ele>1801.1666666666667</ele><time>2026-03-22T14:37:35Z</time></trkpt><trkpt lat="21.72975008231866" lon="-102.44531046074883"><ele>1801.3333333333335</ele><time>2026-03-22T14:37:36Z</time></trkpt><trkpt lat="21.729699563707868" lon="-102.44524893066918"><ele>1801.5</ele><time>2026-03-22T14:37:37Z</time></trkpt><trkpt lat="21.72963637589258" lon="-102.44519627608214"><ele>1801.6666666666665</ele><time>2026-03-22T14:37:38Z</time></trkpt><trkpt lat="21.72957919238034" lon="-102.44513678946653"><ele>1801.8333333333333</ele><time>2026-03-22T14:37:39Z</time></trkpt><trkpt lat="21.72952556519438" lon="-102.445077279179"><ele>1802.0</ele><time>2026-03-22T14:37:40Z</time></trkpt><trkpt lat="21.72947349130733" lon="-102.44501860526712"><ele>1801.9999999999998</ele><time>2026-03-22T14:37:41Z</time></trkpt><trkpt lat="21.72941934471838" lon="-102.4449578480401"><ele>1802.0</ele><time>2026-03-22T14:37:42Z</time></trkpt><trkpt lat="21.729364780177637" lon="-102.44490277178625"><ele>1802.0</ele><time>2026-03-22T14:37:43Z</time></trkpt><trkpt lat="21.729304098070987" lon="-102.44484552324536"><ele>1802.0</ele><time>2026-03-22T14:37:44Z</time></trkpt><trkpt lat="21.729247103082386" lon="-102.44478886089708"><ele>1801.9999999999998</ele><time>2026-03-22T14:37:45Z</time></trkpt><trkpt lat="21.729193414060006" lon="-102.44473449153713"><ele>1802.0</ele><time>2026-03-22T14:37:46Z</time></trkpt><trkpt lat="21.729138838329096" lon="-102.4446846237054"><ele>1802.1666666666665</ele><time>2026-03-22T14:37:47Z</time></trkpt><trkpt lat="21.729084218100358" lon="-102.44463520728223"><ele>1802.3333333333333</ele><time>2026-03-22T14:37:48Z</time></trkpt><trkpt lat="21.729026701873" lon="-102.44458388470366"><ele>1802.5</ele><time>2026-03-22T14:37:49Z</time></trkpt><trkpt lat="21.728969989338097" lon="-102.44452813722886"><ele>1802.6666666666665</ele><time>2026-03-22T14:37:50Z</time></trkpt><trkpt lat="21.728910853129445" lon="-102.44447681582812"><ele>1802.8333333333333</ele><time>2026-03-22T14:37:51Z</time></trkpt><trkpt lat="21.728850510866863" lon="-102.44442324510042"><ele>1803.0</ele><time>2026-03-22T14:37:52Z</time></trkpt><trkpt lat="21.728792757438093" lon="-102.44436505030464"><ele>1803.0</ele><time>2026-03-22T14:37:53Z</time></trkpt><trkpt lat="21.72873258548207" lon="-102.44431202899085"><ele>1803.0</ele><time>2026-03-22T14:37:54Z</time></trkpt><trkpt lat="21.728670150506712" lon="-102.4442566341463"><ele>1803.0</ele><time>2026-03-22T14:37:55Z</time></trkpt><trkpt lat="21.728613297322372" lon="-102.44420028293679"><ele>1803.0</ele><time>2026-03-22T14:37:56Z</time></trkpt><trkpt lat="21.72855142321824" lon="-102.44414287950015"><ele>1803.0</ele><time>2026-03-22T14:37:57Z</time></trkpt><trkpt lat="21.72849381677448" lon="-102.44408972760588"><ele>1803.0</ele><time>2026-03-22T14:37:58Z</time></trkpt><trkpt lat="21.72843267028973" lon="-102.4440388915246"><ele>1803.0</ele><time>2026-03-22T14:37:59Z</time></trkpt><trkpt lat="21.728370956441513" lon="-102.443980547295"><ele>1803.0</ele><time>2026-03-22T14:38:00Z</time></trkpt><trkpt lat="21.728326610256378" lon="-102.44391880398636"><ele>1803.0</ele><time>2026-03-22T14:38:01Z</time></trkpt><trkpt lat="21.728279408859212" lon="-102.4438509654276"><ele>1803.0</ele><time>2026-03-22T14:38:02Z</time></trkpt><trkpt lat="21.72823108120406" lon="-102.44378510275992"><ele>1803.0</ele><time>2026-03-22T14:38:03Z</time></trkpt><trkpt lat="21.72818517918659" lon="-102.44371622922299"><ele>1803.0</ele><time>2026-03-22T14:38:04Z</time></trkpt><trkpt lat="21.728139336266395" lon="-102.44364703522106"><ele>1803.3333333333333</ele><time>2026-03-22T14:38:05Z</time></trkpt><trkpt lat="21.72809322904466" lon="-102.44357535756264"><ele>1803.6666666666665</ele><time>2026-03-22T14:38:06Z</time></trkpt><trkpt lat="21.728048736603483" lon="-102.44350208925512"><ele>1804.0</ele><time>2026-03-22T14:38:07Z</time></trkpt><trkpt lat="21.728007895389396" lon="-102.44342682017638"><ele>1804.3333333333333</ele><time>2026-03-22T14:38:08Z</time></trkpt><trkpt lat="21.727972193121648" lon="-102.44335536838561"><ele>1804.6666666666665</ele><time>2026-03-22T14:38:09Z</time></trkpt><trkpt lat="21.727929791429364" lon="-102.44328256579803"><ele>1805.0</ele><time>2026-03-22T14:38:10Z</time></trkpt><trkpt lat="21.727900090209964" lon="-102.44321051610581"><ele>1804.9999999999998</ele><time>2026-03-22T14:38:11Z</time></trkpt><trkpt lat="21.727872655363168" lon="-102.44313964125449"><ele>1805.0</ele><time>2026-03-22T14:38:12Z</time></trkpt><trkpt lat="21.72784522402911" lon="-102.44306997846704"><ele>1805.0</ele><time>2026-03-22T14:38:13Z</time></trkpt><trkpt lat="21.727815157402304" lon="-102.44300156368159"><ele>1805.0</ele><time>2026-03-22T14:38:14Z</time></trkpt><trkpt lat="21.72778428781574" lon="-102.44293427807159"><ele>1804.9999999999998</ele><time>2026-03-22T14:38:15Z</time></trkpt><trkpt lat="21.727758079895416" lon="-102.44287111014998"><ele>1805.0</ele><time>2026-03-22T14:38:16Z</time></trkpt><trkpt lat="21.72770839146623" lon="-102.44274945188772"><ele>1805.0</ele><time>2026-03-22T14:38:18Z</time></trkpt><trkpt lat="21.727664553190703" lon="-102.4426299093812"><ele>1805.0</ele><time>2026-03-22T14:38:20Z</time></trkpt><trkpt lat="21.72761460626755" lon="-102.44252312517001"><ele>1805.0</ele><time>2026-03-22T14:38:22Z</time></trkpt><trkpt lat="21.727575753935067" lon="-102.4424210426733"><ele>1805.0</ele><time>2026-03-22T14:38:24Z</time></trkpt><trkpt lat="21.72753390808638" lon="-102.44234200318508"><ele>1805.0</ele><time>2026-03-22T14:38:26Z</time></trkpt><trkpt lat="21.727505291790887" lon="-102.44226380527508"><ele>1804.9999999999998</ele><time>2026-03-22T14:38:28Z</time></trkpt><trkpt lat="21.727471625226972" lon="-102.44218578300097"><ele>1805.0</ele><time>2026-03-22T14:38:30Z</time></trkpt><trkpt lat="21.727449503986605" lon="-102.44211145089946"><ele>1805.0</ele><time>2026-03-22T14:38:32Z</time></trkpt><trkpt lat="21.727428465764543" lon="-102.44203593701893"><ele>1805.0</ele><time>2026-03-22T14:38:34Z</time></trkpt><trkpt lat="21.7273908773565" lon="-102.44196592369764"><ele>1804.9999999999998</ele><time>2026-03-22T14:38:37Z</time></trkpt><trkpt lat="21.72735125066331" lon="-102.44189514519623"><ele>1805.0</ele><time>2026-03-22T14:38:40Z</time></trkpt><trkpt lat="21.727320435817003" lon="-102.4418202130843"><ele>1806.6666666666665</ele><time>2026-03-22T14:38:43Z</time></trkpt><trkpt lat="21.727282564119452" lon="-102.441750990675"><ele>1808.3333333333333</ele><time>2026-03-22T14:38:46Z</time></trkpt><trkpt lat="21.7272521859195" lon="-102.4416821556153"><ele>1810.0</ele><time>2026-03-22T14:38:48Z</time></trkpt><trkpt lat="21.727219505043447" lon="-102.44158711856281"><ele>1811.6666666666665</ele><time>2026-03-22T14:38:51Z</time></trkpt><trkpt lat="21.72719687059143" lon="-102.44146965858006"><ele>1813.3333333333333</ele><time>2026-03-22T14:38:53Z</time></trkpt><trkpt lat="21.72717576033921" lon="-102.44137126429175"><ele>1815.0</ele><time>2026-03-22T14:38:56Z</time></trkpt><trkpt lat="21.727157181168025" lon="-102.44130512698632"><ele>1815.6666666666667</ele><time>2026-03-22T14:38:57Z</time></trkpt><trkpt lat="21.727142578771033" lon="-102.4412113857724"><ele>1816.3333333333335</ele><time>2026-03-22T14:38:59Z</time></trkpt><trkpt lat="21.72712403220571" lon="-102.44112676694789"><ele>1817.0</ele><time>2026-03-22T14:39:01Z</time></trkpt><trkpt lat="21.727108297562086" lon="-102.44103264201351"><ele>1817.6666666666667</ele><time>2026-03-22T14:39:03Z</time></trkpt><trkpt lat="21.727080693692667" lon="-102.440936693493"><ele>1818.3333333333335</ele><time>2026-03-22T14:39:05Z</time></trkpt><trkpt lat="21.727063955334287" lon="-102.44083268664058"><ele>1819.0</ele><time>2026-03-22T14:39:07Z</time></trkpt><trkpt lat="21.727064499515496" lon="-102.44071713675608"><ele>1819.0</ele><time>2026-03-22T14:39:09Z</time></trkpt><trkpt lat="21.72700373089902" lon="-102.44061044976297"><ele>1819.0</ele><time>2026-03-22T14:39:11Z</time></trkpt><trkpt lat="21.727001496978392" lon="-102.4405146903311"><ele>1819.0</ele><time>2026-03-22T14:39:13Z</time></trkpt><trkpt lat="21.72700149697826" lon="-102.44042613068949"><ele>1819.0</ele><time>2026-03-22T14:39:14Z</time></trkpt><trkpt lat="21.72700424507584" lon="-102.44028722029863"><ele>1819.0</ele><time>2026-03-22T14:39:16Z</time></trkpt><trkpt lat="21.727022802672945" lon="-102.44021422527727"><ele>1818.9999999999998</ele><time>2026-03-22T14:39:17Z</time></trkpt><trkpt lat="21.72702730182881" lon="-102.4401421712226"><ele>1819.0</ele><time>2026-03-22T14:39:18Z</time></trkpt><trkpt lat="21.7270319707914" lon="-102.44006557740789"><ele>1818.9999999999998</ele><time>2026-03-22T14:39:19Z</time></trkpt><trkpt lat="21.7270381904897" lon="-102.43998935472456"><ele>1818.9999999999998</ele><time>2026-03-22T14:39:20Z</time></trkpt><trkpt lat="21.727028909517887" lon="-102.43990956291279"><ele>1819.0</ele><time>2026-03-22T14:39:21Z</time></trkpt><trkpt lat="21.727052316927967" lon="-102.43982916274481"><ele>1818.9999999999998</ele><time>2026-03-22T14:39:22Z</time></trkpt><trkpt lat="21.72705255420984" lon="-102.43974607530848"><ele>1818.9999999999998</ele><time>2026-03-22T14:39:23Z</time></trkpt><trkpt lat="21.72706620640085" lon="-102.43965475214438"><ele>1818.8333333333335</ele><time>2026-03-22T14:39:24Z</time></trkpt><trkpt lat="21.727073602139853" lon="-102.43956539518446"><ele>1818.6666666666667</ele><time>2026-03-22T14:39:25Z</time></trkpt><trkpt lat="21.727076692900933" lon="-102.43947478702238"><ele>1818.5</ele><time>2026-03-22T14:39:26Z</time></trkpt><trkpt lat="21.727070902358463" lon="-102.4393767183987"><ele>1818.3333333333335</ele><time>2026-03-22T14:39:27Z</time></trkpt><trkpt lat="21.72706914435958" lon="-102.43927850935322"><ele>1818.1666666666667</ele><time>2026-03-22T14:39:28Z</time></trkpt><trkpt lat="21.7270558013883" lon="-102.43917842099206"><ele>1818.0</ele><time>2026-03-22T14:39:29Z</time></trkpt><trkpt lat="21.727015849330115" lon="-102.43908655496608"><ele>1818.0</ele><time>2026-03-22T14:39:30Z</time></trkpt><trkpt lat="21.726982261536666" lon="-102.43899281360031"><ele>1818.0000000000002</ele><time>2026-03-22T14:39:31Z</time></trkpt><trkpt lat="21.726938050283476" lon="-102.43890610797924"><ele>1818.0000000000002</ele><time>2026-03-22T14:39:32Z</time></trkpt><trkpt lat="21.726883843764348" lon="-102.43883133801344"><ele>1818.0</ele><time>2026-03-22T14:39:33Z</time></trkpt><trkpt lat="21.726834551716166" lon="-102.43874694520457"><ele>1818.0</ele><time>2026-03-22T14:39:34Z</time></trkpt><trkpt lat="21.72676401534393" lon="-102.43868604555387"><ele>1816.2</ele><time>2026-03-22T14:39:35Z</time></trkpt><trkpt lat="21.726680799712735" lon="-102.43863317435482"><ele>1814.4</ele><time>2026-03-22T14:39:36Z</time></trkpt><trkpt lat="21.726598037939407" lon="-102.43858745768068"><ele>1812.6000000000001</ele><time>2026-03-22T14:39:37Z</time></trkpt><trkpt lat="21.726512789611473" lon="-102.43854572954338"><ele>1810.8000000000002</ele><time>2026-03-22T14:39:38Z</time></trkpt><trkpt lat="21.72642327289449" lon="-102.43851885708709"><ele>1809.0</ele><time>2026-03-22T14:39:39Z</time></trkpt><trkpt lat="21.726328104810598" lon="-102.43848983790365"><ele>1809.0</ele><time>2026-03-22T14:39:40Z</time></trkpt><trkpt lat="21.726230248052026" lon="-102.43846542866099"><ele>1809.0</ele><time>2026-03-22T14:39:41Z</time></trkpt><trkpt lat="21.72613112038664" lon="-102.43844081676039"><ele>1809.0</ele><time>2026-03-22T14:39:42Z</time></trkpt><trkpt lat="21.726034513327733" lon="-102.43841676084323"><ele>1809.0</ele><time>2026-03-22T14:39:43Z</time></trkpt><trkpt lat="21.725941447634852" lon="-102.43839235828916"><ele>1809.0</ele><time>2026-03-22T14:39:44Z</time></trkpt><trkpt lat="21.72584044942697" lon="-102.43835852419375"><ele>1808.0</ele><time>2026-03-22T14:39:45Z</time></trkpt><trkpt lat="21.725742506213756" lon="-102.43833494049741"><ele>1807.0</ele><time>2026-03-22T14:39:46Z</time></trkpt><trkpt lat="21.725641517962913" lon="-102.43831295118927"><ele>1806.0</ele><time>2026-03-22T14:39:47Z</time></trkpt><trkpt lat="21.725541877065243" lon="-102.43828392972371"><ele>1805.0</ele><time>2026-03-22T14:39:48Z</time></trkpt><trkpt lat="21.725443767331498" lon="-102.43825044323796"><ele>1804.0</ele><time>2026-03-22T14:39:49Z</time></trkpt><trkpt lat="21.72534448022549" lon="-102.43821549511279"><ele>1804.0</ele><time>2026-03-22T14:39:50Z</time></trkpt><trkpt lat="21.725254483260827" lon="-102.43817246747471"><ele>1804.0</ele><time>2026-03-22T14:39:51Z</time></trkpt><trkpt lat="21.72517040916865" lon="-102.43811101980921"><ele>1804.0</ele><time>2026-03-22T14:39:52Z</time></trkpt><trkpt lat="21.725092945123293" lon="-102.43804599495496"><ele>1804.0</ele><time>2026-03-22T14:39:53Z</time></trkpt><trkpt lat="21.725020761661114" lon="-102.43797214387739"><ele>1804.0</ele><time>2026-03-22T14:39:54Z</time></trkpt><trkpt lat="21.72495903787493" lon="-102.43788540689333"><ele>1804.0</ele><time>2026-03-22T14:39:55Z</time></trkpt><trkpt lat="21.724906665345248" lon="-102.43779547176531"><ele>1804.0</ele><time>2026-03-22T14:39:56Z</time></trkpt><trkpt lat="21.724863093485105" lon="-102.43769633583901"><ele>1804.0</ele><time>2026-03-22T14:39:57Z</time></trkpt><trkpt lat="21.72483020465818" lon="-102.4375913935071"><ele>1804.0</ele><time>2026-03-22T14:39:58Z</time></trkpt><trkpt lat="21.724805216496204" lon="-102.43748626769498"><ele>1804.0</ele><time>2026-03-22T14:39:59Z</time></trkpt><trkpt lat="21.724800367771063" lon="-102.4373765639912"><ele>1804.0</ele><time>2026-03-22T14:40:00Z</time></trkpt><trkpt lat="21.72479890046404" lon="-102.43726737359448"><ele>1804.0</ele><time>2026-03-22T14:40:01Z</time></trkpt><trkpt lat="21.724792362727623" lon="-102.43716022856292"><ele>1804.0</ele><time>2026-03-22T14:40:02Z</time></trkpt><trkpt lat="21.724784763133062" lon="-102.43705420700888"><ele>1804.0</ele><time>2026-03-22T14:40:03Z</time></trkpt><trkpt lat="21.72477576298767" lon="-102.43694870633799"><ele>1804.0</ele><time>2026-03-22T14:40:04Z</time></trkpt><trkpt lat="21.724774885907514" lon="-102.43684253293988"><ele>1804.2</ele><time>2026-03-22T14:40:05Z</time></trkpt><trkpt lat="21.72477174929069" lon="-102.43673670799734"><ele>1804.4</ele><time>2026-03-22T14:40:06Z</time></trkpt><trkpt lat="21.724771013593788" lon="-102.43663225334437"><ele>1804.6</ele><time>2026-03-22T14:40:07Z</time></trkpt><trkpt lat="21.72477093144509" lon="-102.43652846390503"><ele>1804.8</ele><time>2026-03-22T14:40:08Z</time></trkpt><trkpt lat="21.724770958775434" lon="-102.43642730020176"><ele>1805.0</ele><time>2026-03-22T14:40:09Z</time></trkpt><trkpt lat="21.724779129404588" lon="-102.43632203633146"><ele>1803.6</ele><time>2026-03-22T14:40:10Z</time></trkpt><trkpt lat="21.724788243540765" lon="-102.4362199060672"><ele>1802.2</ele><time>2026-03-22T14:40:11Z</time></trkpt><trkpt lat="21.72480992508963" lon="-102.4361214915508"><ele>1800.8000000000002</ele><time>2026-03-22T14:40:12Z</time></trkpt><trkpt lat="21.724840125225775" lon="-102.4360209847056"><ele>1799.4</ele><time>2026-03-22T14:40:13Z</time></trkpt><trkpt lat="21.72487392869033" lon="-102.43592370495647"><ele>1798.0</ele><time>2026-03-22T14:40:14Z</time></trkpt><trkpt lat="21.724914158088293" lon="-102.43582524227585"><ele>1798.0</ele><time>2026-03-22T14:40:15Z</time></trkpt><trkpt lat="21.724961168007784" lon="-102.4357258394243"><ele>1798.0000000000002</ele><time>2026-03-22T14:40:16Z</time></trkpt><trkpt lat="21.725021039257253" lon="-102.43563414549124"><ele>1798.0000000000002</ele><time>2026-03-22T14:40:17Z</time></trkpt><trkpt lat="21.72509085114359" lon="-102.43554779056922"><ele>1798.0</ele><time>2026-03-22T14:40:18Z</time></trkpt><trkpt lat="21.725167775874116" lon="-102.43546303031975"><ele>1798.0</ele><time>2026-03-22T14:40:19Z</time></trkpt><trkpt lat="21.725253661956877" lon="-102.43537893329605"><ele>1796.25</ele><time>2026-03-22T14:40:20Z</time></trkpt><trkpt lat="21.72533749280626" lon="-102.43529942721621"><ele>1794.5</ele><time>2026-03-22T14:40:21Z</time></trkpt><trkpt lat="21.725426774213837" lon="-102.43522657210475"><ele>1792.75</ele><time>2026-03-22T14:40:22Z</time></trkpt><trkpt lat="21.72551692207021" lon="-102.4351470303266"><ele>1791.0</ele><time>2026-03-22T14:40:23Z</time></trkpt><trkpt lat="21.725609562003157" lon="-102.43506481481506"><ele>1791.0</ele><time>2026-03-22T14:40:24Z</time></trkpt><trkpt lat="21.725699738685716" lon="-102.43498492599663"><ele>1791.0</ele><time>2026-03-22T14:40:25Z</time></trkpt><trkpt lat="21.725795485142555" lon="-102.43490024498358"><ele>1791.0</ele><time>2026-03-22T14:40:26Z</time></trkpt><trkpt lat="21.72589502552826" lon="-102.43481576180967"><ele>1791.0</ele><time>2026-03-22T14:40:27Z</time></trkpt><trkpt lat="21.725994763954052" lon="-102.43472839836525"><ele>1792.0</ele><time>2026-03-22T14:40:28Z</time></trkpt><trkpt lat="21.726090195335196" lon="-102.43464193996293"><ele>1793.0</ele><time>2026-03-22T14:40:29Z</time></trkpt><trkpt lat="21.726186447077772" lon="-102.4345538399459"><ele>1794.0</ele><time>2026-03-22T14:40:30Z</time></trkpt><trkpt lat="21.726279513574028" lon="-102.43446344606562"><ele>1795.0</ele><time>2026-03-22T14:40:31Z</time></trkpt><trkpt lat="21.72637820058168" lon="-102.43437532888035"><ele>1793.0</ele><time>2026-03-22T14:40:32Z</time></trkpt><trkpt lat="21.726464809347657" lon="-102.43428219124145"><ele>1791.0</ele><time>2026-03-22T14:40:33Z</time></trkpt><trkpt lat="21.726545300358236" lon="-102.43417804294187"><ele>1789.0</ele><time>2026-03-22T14:40:34Z</time></trkpt><trkpt lat="21.726613512773678" lon="-102.4340674279051"><ele>1787.0</ele><time>2026-03-22T14:40:35Z</time></trkpt><trkpt lat="21.726655063914755" lon="-102.43394858845696"><ele>1787.0</ele><time>2026-03-22T14:40:36Z</time></trkpt><trkpt lat="21.72670233926046" lon="-102.43383979695932"><ele>1786.9999999999998</ele><time>2026-03-22T14:40:37Z</time></trkpt><trkpt lat="21.72675311046743" lon="-102.43373663483048"><ele>1786.9999999999998</ele><time>2026-03-22T14:40:38Z</time></trkpt><trkpt lat="21.72677693415986" lon="-102.43362731485279"><ele>1787.0</ele><time>2026-03-22T14:40:39Z</time></trkpt><trkpt lat="21.726773542539846" lon="-102.43351809424753"><ele>1787.0</ele><time>2026-03-22T14:40:40Z</time></trkpt><trkpt lat="21.72677810184613" lon="-102.43341568669848"><ele>1788.3333333333333</ele><time>2026-03-22T14:40:41Z</time></trkpt><trkpt lat="21.726793518593396" lon="-102.43331467764256"><ele>1789.6666666666665</ele><time>2026-03-22T14:40:42Z</time></trkpt><trkpt lat="21.72678416511091" lon="-102.43321604442797"><ele>1791.0</ele><time>2026-03-22T14:40:43Z</time></trkpt><trkpt lat="21.72677880003495" lon="-102.4331230077084"><ele>1792.3333333333335</ele><time>2026-03-22T14:40:44Z</time></trkpt><trkpt lat="21.726778455124535" lon="-102.43303807632327"><ele>1793.6666666666667</ele><time>2026-03-22T14:40:45Z</time></trkpt><trkpt lat="21.726773671174726" lon="-102.43295707509962"><ele>1795.0</ele><time>2026-03-22T14:40:46Z</time></trkpt><trkpt lat="21.726760146855103" lon="-102.43287786100157"><ele>1795.4285714285716</ele><time>2026-03-22T14:40:47Z</time></trkpt><trkpt lat="21.726741227440975" lon="-102.4327987055095"><ele>1795.8571428571431</ele><time>2026-03-22T14:40:48Z</time></trkpt><trkpt lat="21.72672519969873" lon="-102.43272572368602"><ele>1796.2857142857142</ele><time>2026-03-22T14:40:49Z</time></trkpt><trkpt lat="21.72670501290997" lon="-102.43265398007257"><ele>1796.7142857142858</ele><time>2026-03-22T14:40:50Z</time></trkpt><trkpt lat="21.72665892291703" lon="-102.43258329523518"><ele>1797.142857142857</ele><time>2026-03-22T14:40:51Z</time></trkpt><trkpt lat="21.726611984158364" lon="-102.43252575864555"><ele>1797.5714285714284</ele><time>2026-03-22T14:40:52Z</time></trkpt><trkpt lat="21.72654699712971" lon="-102.43247313600288"><ele>1797.9999999999998</ele><time>2026-03-22T14:40:53Z</time></trkpt><trkpt lat="21.726482891715868" lon="-102.43243387449444"><ele>1798.0000000000002</ele><time>2026-03-22T14:40:54Z</time></trkpt><trkpt lat="21.72639843191847" lon="-102.43241398870384"><ele>1798.0</ele><time>2026-03-22T14:40:55Z</time></trkpt><trkpt lat="21.726321650496065" lon="-102.43238650550268"><ele>1798.0</ele><time>2026-03-22T14:40:56Z</time></trkpt><trkpt lat="21.726245726194843" lon="-102.43235614251259"><ele>1798.0</ele><time>2026-03-22T14:40:57Z</time></trkpt><trkpt lat="21.726162660734154" lon="-102.43234541442148"><ele>1798.0000000000002</ele><time>2026-03-22T14:40:58Z</time></trkpt><trkpt lat="21.726076423553504" lon="-102.43233542222596"><ele>1798.0</ele><time>2026-03-22T14:40:59Z</time></trkpt><trkpt lat="21.725987937159974" lon="-102.43231896974525"><ele>1797.0</ele><time>2026-03-22T14:41:00Z</time></trkpt><trkpt lat="21.725901476020127" lon="-102.43230395607466"><ele>1796.0000000000002</ele><time>2026-03-22T14:41:01Z</time></trkpt><trkpt lat="21.725805969156582" lon="-102.43228279914592"><ele>1795.0000000000002</ele><time>2026-03-22T14:41:02Z</time></trkpt><trkpt lat="21.725713470228094" lon="-102.43225349454974"><ele>1794.0</ele><time>2026-03-22T14:41:03Z</time></trkpt><trkpt lat="21.725621358967643" lon="-102.4321961977851"><ele>1793.0</ele><time>2026-03-22T14:41:04Z</time></trkpt><trkpt lat="21.72553275734923" lon="-102.43213654188456"><ele>1790.5</ele><time>2026-03-22T14:41:05Z</time></trkpt><trkpt lat="21.72546111819281" lon="-102.43204367692556"><ele>1788.0</ele><time>2026-03-22T14:41:06Z</time></trkpt><trkpt lat="21.725418403216416" lon="-102.43191759963179"><ele>1785.5</ele><time>2026-03-22T14:41:07Z</time></trkpt><trkpt lat="21.72539081568499" lon="-102.43179372280807"><ele>1783.0</ele><time>2026-03-22T14:41:08Z</time></trkpt><trkpt lat="21.725403477814375" lon="-102.43165700828565"><ele>1783.0</ele><time>2026-03-22T14:41:09Z</time></trkpt><trkpt lat="21.72545206851068" lon="-102.43154277061889"><ele>1783.0</ele><time>2026-03-22T14:41:10Z</time></trkpt><trkpt lat="21.725474522233462" lon="-102.43141890742419"><ele>1783.0</ele><time>2026-03-22T14:41:11Z</time></trkpt><trkpt lat="21.72551310299283" lon="-102.43130441856313"><ele>1783.0</ele><time>2026-03-22T14:41:12Z</time></trkpt><trkpt lat="21.725557029258795" lon="-102.43119046782074"><ele>1782.4</ele><time>2026-03-22T14:41:13Z</time></trkpt><trkpt lat="21.72560726064515" lon="-102.4310792255906"><ele>1781.8000000000002</ele><time>2026-03-22T14:41:14Z</time></trkpt><trkpt lat="21.72565969432224" lon="-102.4309688106848"><ele>1781.2</ele><time>2026-03-22T14:41:15Z</time></trkpt><trkpt lat="21.725712559228867" lon="-102.43086747821226"><ele>1780.6</ele><time>2026-03-22T14:41:16Z</time></trkpt><trkpt lat="21.725770425794053" lon="-102.43076506637483"><ele>1780.0</ele><time>2026-03-22T14:41:17Z</time></trkpt><trkpt lat="21.725829515690478" lon="-102.43067055412257"><ele>1780.0</ele><time>2026-03-22T14:41:18Z</time></trkpt><trkpt lat="21.7258967846482" lon="-102.43058573959851"><ele>1780.0</ele><time>2026-03-22T14:41:19Z</time></trkpt><trkpt lat="21.72597272254465" lon="-102.430520689705"><ele>1780.0</ele><time>2026-03-22T14:41:20Z</time></trkpt><trkpt lat="21.72604313629537" lon="-102.43044960783001"><ele>1780.0</ele><time>2026-03-22T14:41:21Z</time></trkpt><trkpt lat="21.726111121531144" lon="-102.43038401842179"><ele>1780.0</ele><time>2026-03-22T14:41:22Z</time></trkpt><trkpt lat="21.726180568091653" lon="-102.43032449248425"><ele>1780.4285714285716</ele><time>2026-03-22T14:41:23Z</time></trkpt><trkpt lat="21.726246231269332" lon="-102.4302725007127"><ele>1780.8571428571427</ele><time>2026-03-22T14:41:24Z</time></trkpt><trkpt lat="21.726306021249528" lon="-102.43022082506927"><ele>1781.2857142857142</ele><time>2026-03-22T14:41:25Z</time></trkpt><trkpt lat="21.726359444650527" lon="-102.43016750755126"><ele>1781.7142857142858</ele><time>2026-03-22T14:41:26Z</time></trkpt><trkpt lat="21.72641094880155" lon="-102.43012157807664"><ele>1782.1428571428573</ele><time>2026-03-22T14:41:27Z</time></trkpt><trkpt lat="21.72646352357631" lon="-102.43007661571822"><ele>1782.5714285714284</ele><time>2026-03-22T14:41:28Z</time></trkpt><trkpt lat="21.72651757002956" lon="-102.43003582780432"><ele>1783.0</ele><time>2026-03-22T14:41:29Z</time></trkpt><trkpt lat="21.726607174584135" lon="-102.42994630062566"><ele>1783.0</ele><time>2026-03-22T14:41:31Z</time></trkpt><trkpt lat="21.726679668728792" lon="-102.42985005273188"><ele>1783.0000000000002</ele><time>2026-03-22T14:41:33Z</time></trkpt><trkpt lat="21.726741111593473" lon="-102.42976052706996"><ele>1783.0000000000002</ele><time>2026-03-22T14:41:35Z</time></trkpt><trkpt lat="21.72677730020487" lon="-102.42966143903404"><ele>1783.0</ele><time>2026-03-22T14:41:37Z</time></trkpt><trkpt lat="21.72680147605939" lon="-102.42957198199348"><ele>1783.0</ele><time>2026-03-22T14:41:39Z</time></trkpt><trkpt lat="21.726824902507296" lon="-102.42948972032795"><ele>1783.5000000000002</ele><time>2026-03-22T14:41:41Z</time></trkpt><trkpt lat="21.72683382534064" lon="-102.4294142862195"><ele>1784.0</ele><time>2026-03-22T14:41:43Z</time></trkpt><trkpt lat="21.72684643856105" lon="-102.42932622854873"><ele>1784.5</ele><time>2026-03-22T14:41:45Z</time></trkpt><trkpt lat="21.726868327049765" lon="-102.42923674047388"><ele>1785.0</ele><time>2026-03-22T14:41:47Z</time></trkpt><trkpt lat="21.726897962440198" lon="-102.42915254869696"><ele>1785.5000000000002</ele><time>2026-03-22T14:41:49Z</time></trkpt><trkpt lat="21.726910693429563" lon="-102.42906835305307"><ele>1786.0</ele><time>2026-03-22T14:41:51Z</time></trkpt><trkpt lat="21.726923921630075" lon="-102.42898118374487"><ele>1786.0000000000002</ele><time>2026-03-22T14:41:53Z</time></trkpt><trkpt lat="21.726941184857573" lon="-102.42888748148974"><ele>1786.0</ele><time>2026-03-22T14:41:55Z</time></trkpt><trkpt lat="21.726950244139857" lon="-102.4287946774134"><ele>1786.0</ele><time>2026-03-22T14:41:57Z</time></trkpt><trkpt lat="21.726968663916697" lon="-102.4287080188869"><ele>1786.0</ele><time>2026-03-22T14:41:59Z</time></trkpt><trkpt lat="21.726985636366226" lon="-102.42862138465385"><ele>1786.0000000000002</ele><time>2026-03-22T14:42:01Z</time></trkpt><trkpt lat="21.727001835475534" lon="-102.42853658369225"><ele>1786.0</ele><time>2026-03-22T14:42:03Z</time></trkpt><trkpt lat="21.727017341520007" lon="-102.42845362098078"><ele>1787.6666666666667</ele><time>2026-03-22T14:42:05Z</time></trkpt><trkpt lat="21.727028013250894" lon="-102.42836777687529"><ele>1789.3333333333335</ele><time>2026-03-22T14:42:07Z</time></trkpt><trkpt lat="21.72704779414886" lon="-102.42829509154257"><ele>1791.0</ele><time>2026-03-22T14:42:10Z</time></trkpt><trkpt lat="21.727075425729332" lon="-102.4281707549804"><ele>1792.6666666666665</ele><time>2026-03-22T14:42:12Z</time></trkpt><trkpt lat="21.72707855471712" lon="-102.42808859394415"><ele>1794.3333333333333</ele><time>2026-03-22T14:42:14Z</time></trkpt><trkpt lat="21.72709795597021" lon="-102.42800056846517"><ele>1796.0</ele><time>2026-03-22T14:42:16Z</time></trkpt><trkpt lat="21.727113782795712" lon="-102.42791315288899"><ele>1796.8571428571427</ele><time>2026-03-22T14:42:18Z</time></trkpt><trkpt lat="21.727134266261316" lon="-102.42782531300836"><ele>1797.7142857142856</ele><time>2026-03-22T14:42:21Z</time></trkpt><trkpt lat="21.727150204485465" lon="-102.42774997874294"><ele>1798.5714285714284</ele><time>2026-03-22T14:42:23Z</time></trkpt><trkpt lat="21.727164757906905" lon="-102.42767415526596"><ele>1799.4285714285716</ele><time>2026-03-22T14:42:25Z</time></trkpt><trkpt lat="21.72717848449017" lon="-102.42759444443222"><ele>1800.2857142857144</ele><time>2026-03-22T14:42:27Z</time></trkpt><trkpt lat="21.727192336565203" lon="-102.42752460482772"><ele>1801.1428571428573</ele><time>2026-03-22T14:42:29Z</time></trkpt><trkpt lat="21.72721046577443" lon="-102.42745563507708"><ele>1802.0</ele><time>2026-03-22T14:42:31Z</time></trkpt><trkpt lat="21.72722622883733" lon="-102.42734204412191"><ele>1801.9999999999998</ele><time>2026-03-22T14:42:34Z</time></trkpt><trkpt lat="21.727243628882373" lon="-102.42724984796085"><ele>1802.0</ele><time>2026-03-22T14:42:36Z</time></trkpt><trkpt lat="21.72727136143835" lon="-102.42718664741254"><ele>1802.0</ele><time>2026-03-22T14:42:38Z</time></trkpt><trkpt lat="21.727286609880395" lon="-102.42711683237015"><ele>1802.0</ele><time>2026-03-22T14:42:40Z</time></trkpt><trkpt lat="21.72729971844675" lon="-102.42704412282153"><ele>1801.9999999999998</ele><time>2026-03-22T14:42:42Z</time></trkpt><trkpt lat="21.727325525905393" lon="-102.42695410421304"><ele>1802.0</ele><time>2026-03-22T14:42:45Z</time></trkpt><trkpt lat="21.727350423962946" lon="-102.42687435624273"><ele>1803.3333333333333</ele><time>2026-03-22T14:42:48Z</time></trkpt><trkpt lat="21.727371447304307" lon="-102.426804501397"><ele>1804.6666666666665</ele><time>2026-03-22T14:42:50Z</time></trkpt><trkpt lat="21.727373928347774" lon="-102.42672940063672"><ele>1806.0</ele><time>2026-03-22T14:42:53Z</time></trkpt><trkpt lat="21.727396919724786" lon="-102.42664048953938"><ele>1807.3333333333335</ele><time>2026-03-22T14:42:56Z</time></trkpt><trkpt lat="21.727409431551305" lon="-102.42655667427974"><ele>1808.6666666666667</ele><time>2026-03-22T14:42:59Z</time></trkpt><trkpt lat="21.72742217117403" lon="-102.42647015192762"><ele>1810.0</ele><time>2026-03-22T14:43:02Z</time></trkpt><trkpt lat="21.727435607002448" lon="-102.42637999549747"><ele>1810.8333333333335</ele><time>2026-03-22T14:43:05Z</time></trkpt><trkpt lat="21.727451941165192" lon="-102.42629020707022"><ele>1811.6666666666667</ele><time>2026-03-22T14:43:08Z</time></trkpt><trkpt lat="21.727457946054134" lon="-102.42619911129059"><ele>1812.5</ele><time>2026-03-22T14:43:11Z</time></trkpt><trkpt lat="21.727461009196848" lon="-102.42610800550948"><ele>1813.3333333333335</ele><time>2026-03-22T14:43:14Z</time></trkpt><trkpt lat="21.727456073147327" lon="-102.42601442128937"><ele>1814.1666666666667</ele><time>2026-03-22T14:43:17Z</time></trkpt><trkpt lat="21.7274453207508" lon="-102.42592847704695"><ele>1815.0</ele><time>2026-03-22T14:43:20Z</time></trkpt><trkpt lat="21.727444158132084" lon="-102.42583806616271"><ele>1815.0</ele><time>2026-03-22T14:43:23Z</time></trkpt><trkpt lat="21.727430086377368" lon="-102.42575441467564"><ele>1815.0</ele><time>2026-03-22T14:43:26Z</time></trkpt><trkpt lat="21.72740905110066" lon="-102.42568499022731"><ele>1815.0</ele><time>2026-03-22T14:43:29Z</time></trkpt><trkpt lat="21.727386215543675" lon="-102.4256071979371"><ele>1815.0</ele><time>2026-03-22T14:43:32Z</time></trkpt><trkpt lat="21.727352468615685" lon="-102.42552711142082"><ele>1815.0</ele><time>2026-03-22T14:43:35Z</time></trkpt><trkpt lat="21.727323633011036" lon="-102.42544072636315"><ele>1815.0</ele><time>2026-03-22T14:43:38Z</time></trkpt><trkpt lat="21.72728669725733" lon="-102.42535167307625"><ele>1816.1666666666667</ele><time>2026-03-22T14:43:41Z</time></trkpt><trkpt lat="21.72724045291131" lon="-102.42528658575661"><ele>1817.3333333333335</ele><time>2026-03-22T14:43:44Z</time></trkpt><trkpt lat="21.72719701575302" lon="-102.42522275457252"><ele>1818.5</ele><time>2026-03-22T14:43:47Z</time></trkpt><trkpt lat="21.72713437648411" lon="-102.42514461912762"><ele>1819.6666666666667</ele><time>2026-03-22T14:43:50Z</time></trkpt><trkpt lat="21.727080296429545" lon="-102.42508861458002"><ele>1820.8333333333335</ele><time>2026-03-22T14:43:53Z</time></trkpt><trkpt lat="21.727022573675914" lon="-102.42502399688887"><ele>1822.0</ele><time>2026-03-22T14:43:56Z</time></trkpt><trkpt lat="21.726980072398774" lon="-102.42497201885053"><ele>1822.0000000000002</ele><time>2026-03-22T14:43:58Z</time></trkpt><trkpt lat="21.726921857213565" lon="-102.42491209739836"><ele>1822.0</ele><time>2026-03-22T14:44:01Z</time></trkpt><trkpt lat="21.72686007557062" lon="-102.4248464035482"><ele>1822.0</ele><time>2026-03-22T14:44:04Z</time></trkpt><trkpt lat="21.726799002551996" lon="-102.42479150958748"><ele>1822.0</ele><time>2026-03-22T14:44:07Z</time></trkpt><trkpt lat="21.726732018138716" lon="-102.42473035154723"><ele>1822.0000000000002</ele><time>2026-03-22T14:44:10Z</time></trkpt><trkpt lat="21.726668685293735" lon="-102.4246681909862"><ele>1822.0</ele><time>2026-03-22T14:44:13Z</time></trkpt><trkpt lat="21.726604770115163" lon="-102.42460391630617"><ele>1823.0000000000002</ele><time>2026-03-22T14:44:16Z</time></trkpt><trkpt lat="21.72654351905502" lon="-102.42455167750636"><ele>1824.0</ele><time>2026-03-22T14:44:19Z</time></trkpt><trkpt lat="21.72648329465322" lon="-102.42449018622393"><ele>1825.0</ele><time>2026-03-22T14:44:22Z</time></trkpt><trkpt lat="21.726411239440285" lon="-102.42444666989117"><ele>1826.0</ele><time>2026-03-22T14:44:25Z</time></trkpt><trkpt lat="21.72634793727322" lon="-102.42439082807658"><ele>1827.0000000000002</ele><time>2026-03-22T14:44:28Z</time></trkpt><trkpt lat="21.726281782780966" lon="-102.4243283788785"><ele>1828.0</ele><time>2026-03-22T14:44:31Z</time></trkpt><trkpt lat="21.726211163817265" lon="-102.42427374802665"><ele>1828.0000000000002</ele><time>2026-03-22T14:44:34Z</time></trkpt><trkpt lat="21.726144022179767" lon="-102.42421689001064"><ele>1828.0</ele><time>2026-03-22T14:44:37Z</time></trkpt><trkpt lat="21.726078259843536" lon="-102.42415111810571"><ele>1828.0</ele><time>2026-03-22T14:44:40Z</time></trkpt><trkpt lat="21.72598337355103" lon="-102.42407968696226"><ele>1828.0</ele><time>2026-03-22T14:44:43Z</time></trkpt><trkpt lat="21.725917565871864" lon="-102.42402704380747"><ele>1828.0000000000002</ele><time>2026-03-22T14:44:45Z</time></trkpt><trkpt lat="21.725865646446874" lon="-102.42398178054815"><ele>1828.0</ele><time>2026-03-22T14:44:46Z</time></trkpt><trkpt lat="21.725807711933456" lon="-102.4239514116535"><ele>1831.0</ele><time>2026-03-22T14:44:48Z</time></trkpt><trkpt lat="21.72542685385273" lon="-102.42339908603738"><ele>1831.0</ele><time>2026-03-22T14:44:51Z</time></trkpt><trkpt lat="21.72534567649996" lon="-102.42334377972809"><ele>1831.0</ele><time>2026-03-22T14:44:53Z</time></trkpt><trkpt lat="21.725266824765022" lon="-102.42327218194679"><ele>1831.0</ele><time>2026-03-22T14:44:55Z</time></trkpt><trkpt lat="21.72520151418859" lon="-102.4231910256112"><ele>1831.0</ele><time>2026-03-22T14:44:57Z</time></trkpt><trkpt lat="21.72513804144524" lon="-102.42314193076783"><ele>1831.0</ele><time>2026-03-22T14:44:59Z</time></trkpt><trkpt lat="21.725068143874232" lon="-102.4230917787684"><ele>1831.1999999999998</ele><time>2026-03-22T14:45:01Z</time></trkpt><trkpt lat="21.724996500234063" lon="-102.42302672598738"><ele>1831.3999999999999</ele><time>2026-03-22T14:45:03Z</time></trkpt><trkpt lat="21.724916338758046" lon="-102.42294516965913"><ele>1831.6</ele><time>2026-03-22T14:45:05Z</time></trkpt><trkpt lat="21.724850963237888" lon="-102.42287855747588"><ele>1831.8</ele><time>2026-03-22T14:45:07Z</time></trkpt><trkpt lat="21.72476000231471" lon="-102.4228115024283"><ele>1832.0</ele><time>2026-03-22T14:45:09Z</time></trkpt><trkpt lat="21.724674773863764" lon="-102.42273222637189"><ele>1831.9999999999998</ele><time>2026-03-22T14:45:12Z</time></trkpt><trkpt lat="21.724626292832905" lon="-102.42268173616996"><ele>1832.0</ele><time>2026-03-22T14:45:13Z</time></trkpt><trkpt lat="21.724570755190374" lon="-102.42263479118331"><ele>1832.0</ele><time>2026-03-22T14:45:14Z</time></trkpt><trkpt lat="21.724479271770893" lon="-102.42255254789849"><ele>1832.0</ele><time>2026-03-22T14:45:16Z</time></trkpt><trkpt lat="21.724428755309535" lon="-102.4225084781809"><ele>1831.9999999999998</ele><time>2026-03-22T14:45:17Z</time></trkpt><trkpt lat="21.724378824183383" lon="-102.42246587337709"><ele>1832.0</ele><time>2026-03-22T14:45:18Z</time></trkpt><trkpt lat="21.724283690298005" lon="-102.42239420962898"><ele>1832.0</ele><time>2026-03-22T14:45:21Z</time></trkpt><trkpt lat="21.72423432399412" lon="-102.42233836176788"><ele>1832.0</ele><time>2026-03-22T14:45:22Z</time></trkpt><trkpt lat="21.724168155208126" lon="-102.42230057844428"><ele>1832.0</ele><time>2026-03-22T14:45:23Z</time></trkpt><trkpt lat="21.72412199345309" lon="-102.42223827362197"><ele>1832.0</ele><time>2026-03-22T14:45:24Z</time></trkpt><trkpt lat="21.72406769871399" lon="-102.42218994790485"><ele>1832.0</ele><time>2026-03-22T14:45:25Z</time></trkpt><trkpt lat="21.724002181165318" lon="-102.42214822227264"><ele>1832.0</ele><time>2026-03-22T14:45:26Z</time></trkpt><trkpt lat="21.72394190926253" lon="-102.42209004418952"><ele>1832.0</ele><time>2026-03-22T14:45:27Z</time></trkpt><trkpt lat="21.72389776208623" lon="-102.42202309645806"><ele>1831.6666666666665</ele><time>2026-03-22T14:45:28Z</time></trkpt><trkpt lat="21.72382735695107" lon="-102.42197782695273"><ele>1831.3333333333333</ele><time>2026-03-22T14:45:29Z</time></trkpt><trkpt lat="21.723773654925225" lon="-102.4219137065902"><ele>1831.0</ele><time>2026-03-22T14:45:30Z</time></trkpt><trkpt lat="21.72371023647427" lon="-102.42185270734204"><ele>1830.6666666666665</ele><time>2026-03-22T14:45:31Z</time></trkpt><trkpt lat="21.723644985412758" lon="-102.42179442234614"><ele>1830.3333333333333</ele><time>2026-03-22T14:45:32Z</time></trkpt><trkpt lat="21.723584735986215" lon="-102.42173084220448"><ele>1830.0</ele><time>2026-03-22T14:45:33Z</time></trkpt><trkpt lat="21.723515462095378" lon="-102.42166219038263"><ele>1830.0</ele><time>2026-03-22T14:45:34Z</time></trkpt><trkpt lat="21.723449144814005" lon="-102.421600722531"><ele>1830.0</ele><time>2026-03-22T14:45:35Z</time></trkpt><trkpt lat="21.723376178176085" lon="-102.4215401885769"><ele>1830.0</ele><time>2026-03-22T14:45:36Z</time></trkpt><trkpt lat="21.723309153539468" lon="-102.42148156757294"><ele>1830.0</ele><time>2026-03-22T14:45:37Z</time></trkpt><trkpt lat="21.72323807729666" lon="-102.42141711125105"><ele>1830.0</ele><time>2026-03-22T14:45:38Z</time></trkpt><trkpt lat="21.723167689972538" lon="-102.4213543816846"><ele>1829.2</ele><time>2026-03-22T14:45:39Z</time></trkpt><trkpt lat="21.72310131259648" lon="-102.42128787550155"><ele>1828.4</ele><time>2026-03-22T14:45:40Z</time></trkpt><trkpt lat="21.723031268571937" lon="-102.42121502813934"><ele>1827.6</ele><time>2026-03-22T14:45:41Z</time></trkpt><trkpt lat="21.72296315365655" lon="-102.42114303483757"><ele>1826.8</ele><time>2026-03-22T14:45:42Z</time></trkpt><trkpt lat="21.72289366736377" lon="-102.42106688512732"><ele>1826.0</ele><time>2026-03-22T14:45:43Z</time></trkpt><trkpt lat="21.722830743857337" lon="-102.4209871244793"><ele>1826.0</ele><time>2026-03-22T14:45:44Z</time></trkpt><trkpt lat="21.722773234846386" lon="-102.42090711457924"><ele>1826.0</ele><time>2026-03-22T14:45:45Z</time></trkpt><trkpt lat="21.72270434614698" lon="-102.42081929527951"><ele>1826.0</ele><time>2026-03-22T14:45:46Z</time></trkpt><trkpt lat="21.722645251166075" lon="-102.42072609839133"><ele>1826.0</ele><time>2026-03-22T14:45:47Z</time></trkpt><trkpt lat="21.722588411193563" lon="-102.42063230939678"><ele>1826.0</ele><time>2026-03-22T14:45:48Z</time></trkpt><trkpt lat="21.722536296275205" lon="-102.42053603300518"><ele>1824.75</ele><time>2026-03-22T14:45:49Z</time></trkpt><trkpt lat="21.722489155659126" lon="-102.42043470906206"><ele>1823.5</ele><time>2026-03-22T14:45:50Z</time></trkpt><trkpt lat="21.72243997978726" lon="-102.42032240168551"><ele>1822.25</ele><time>2026-03-22T14:45:51Z</time></trkpt><trkpt lat="21.722396675858807" lon="-102.42020504624217"><ele>1821.0</ele><time>2026-03-22T14:45:52Z</time></trkpt><trkpt lat="21.722345835316883" lon="-102.4200927373789"><ele>1821.0</ele><time>2026-03-22T14:45:53Z</time></trkpt><trkpt lat="21.722308272111015" lon="-102.4199792576625"><ele>1821.0</ele><time>2026-03-22T14:45:54Z</time></trkpt><trkpt lat="21.722291749665608" lon="-102.41985710990264"><ele>1821.0</ele><time>2026-03-22T14:45:55Z</time></trkpt><trkpt lat="21.72226868438428" lon="-102.41973492285774"><ele>1821.0</ele><time>2026-03-22T14:45:56Z</time></trkpt><trkpt lat="21.722245059403775" lon="-102.41961293224665"><ele>1820.0</ele><time>2026-03-22T14:45:57Z</time></trkpt><trkpt lat="21.72223498284691" lon="-102.4194842514641"><ele>1819.0</ele><time>2026-03-22T14:45:58Z</time></trkpt><trkpt lat="21.722227943910724" lon="-102.41935184985238"><ele>1818.0</ele><time>2026-03-22T14:45:59Z</time></trkpt><trkpt lat="21.722216654324523" lon="-102.41922011565502"><ele>1817.0</ele><time>2026-03-22T14:46:00Z</time></trkpt><trkpt lat="21.72220698821076" lon="-102.41909128265048"><ele>1817.0</ele><time>2026-03-22T14:46:01Z</time></trkpt><trkpt lat="21.722206826583772" lon="-102.41896308961765"><ele>1817.0</ele><time>2026-03-22T14:46:02Z</time></trkpt><trkpt lat="21.72218826822669" lon="-102.41883001617987"><ele>1817.0</ele><time>2026-03-22T14:46:03Z</time></trkpt><trkpt lat="21.722193301429876" lon="-102.41869217099845"><ele>1817.0</ele><time>2026-03-22T14:46:04Z</time></trkpt><trkpt lat="21.722188189825932" lon="-102.41854151572377"><ele>1816.0</ele><time>2026-03-22T14:46:05Z</time></trkpt><trkpt lat="21.722164109378827" lon="-102.41839695036226"><ele>1815.0</ele><time>2026-03-22T14:46:06Z</time></trkpt><trkpt lat="21.722155002521855" lon="-102.41824858855898"><ele>1814.0</ele><time>2026-03-22T14:46:07Z</time></trkpt><trkpt lat="21.722146776394798" lon="-102.41809737445249"><ele>1813.0</ele><time>2026-03-22T14:46:08Z</time></trkpt><trkpt lat="21.722137613643408" lon="-102.41794323617802"><ele>1811.75</ele><time>2026-03-22T14:46:09Z</time></trkpt><trkpt lat="21.722127880401665" lon="-102.41778857512116"><ele>1810.5</ele><time>2026-03-22T14:46:10Z</time></trkpt><trkpt lat="21.72211732656357" lon="-102.41762924234922"><ele>1809.25</ele><time>2026-03-22T14:46:11Z</time></trkpt><trkpt lat="21.72210585347055" lon="-102.41746542107961"><ele>1808.0</ele><time>2026-03-22T14:46:12Z</time></trkpt><trkpt lat="21.722093105725904" lon="-102.41729997462832"><ele>1805.0</ele><time>2026-03-22T14:46:13Z</time></trkpt><trkpt lat="21.722077401959186" lon="-102.41713006845735"><ele>1802.0</ele><time>2026-03-22T14:46:14Z</time></trkpt><trkpt lat="21.722062213098187" lon="-102.41696456226012"><ele>1799.0</ele><time>2026-03-22T14:46:15Z</time></trkpt><trkpt lat="21.722047920265343" lon="-102.41679526405919"><ele>1799.0</ele><time>2026-03-22T14:46:16Z</time></trkpt><trkpt lat="21.722035325463732" lon="-102.41662722241243"><ele>1799.0</ele><time>2026-03-22T14:46:17Z</time></trkpt><trkpt lat="21.722024077603443" lon="-102.41646343674036"><ele>1799.0</ele><time>2026-03-22T14:46:18Z</time></trkpt><trkpt lat="21.72201313044453" lon="-102.4162977469454"><ele>1799.3333333333333</ele><time>2026-03-22T14:46:19Z</time></trkpt><trkpt lat="21.722002755377073" lon="-102.41613153699123"><ele>1799.6666666666665</ele><time>2026-03-22T14:46:20Z</time></trkpt><trkpt lat="21.72199380691794" lon="-102.4159695044874"><ele>1800.0</ele><time>2026-03-22T14:46:21Z</time></trkpt><trkpt lat="21.721983710204324" lon="-102.41581333707981"><ele>1800.0</ele><time>2026-03-22T14:46:22Z</time></trkpt><trkpt lat="21.72197377651611" lon="-102.41565947128383"><ele>1800.0</ele><time>2026-03-22T14:46:23Z</time></trkpt><trkpt lat="21.721964434428234" lon="-102.41551474376182"><ele>1800.0</ele><time>2026-03-22T14:46:24Z</time></trkpt><trkpt lat="21.721953443117723" lon="-102.41537584920415"><ele>1800.0</ele><time>2026-03-22T14:46:25Z</time></trkpt><trkpt lat="21.721942485261177" lon="-102.41523883214425"><ele>1801.5</ele><time>2026-03-22T14:46:26Z</time></trkpt><trkpt lat="21.721932139956696" lon="-102.41510538515203"><ele>1803.0</ele><time>2026-03-22T14:46:27Z</time></trkpt><trkpt lat="21.721931848634863" lon="-102.41498201890217"><ele>1804.5</ele><time>2026-03-22T14:46:28Z</time></trkpt><trkpt lat="21.72192437203956" lon="-102.41486472557314"><ele>1806.0</ele><time>2026-03-22T14:46:29Z</time></trkpt><trkpt lat="21.721917255245405" lon="-102.41475492165026"><ele>1806.0</ele><time>2026-03-22T14:46:30Z</time></trkpt><trkpt lat="21.721911595937794" lon="-102.4146536004292"><ele>1806.0</ele><time>2026-03-22T14:46:31Z</time></trkpt><trkpt lat="21.721903027085812" lon="-102.41455109181518"><ele>1806.0</ele><time>2026-03-22T14:46:32Z</time></trkpt><trkpt lat="21.721900332705786" lon="-102.41445138579537"><ele>1806.0</ele><time>2026-03-22T14:46:33Z</time></trkpt><trkpt lat="21.72189536991526" lon="-102.41436382076857"><ele>1806.0</ele><time>2026-03-22T14:46:34Z</time></trkpt><trkpt lat="21.7218846266785" lon="-102.41427596996533"><ele>1806.0</ele><time>2026-03-22T14:46:35Z</time></trkpt><trkpt lat="21.72187755105465" lon="-102.41419104134611"><ele>1806.0</ele><time>2026-03-22T14:46:36Z</time></trkpt><trkpt lat="21.7218719456421" lon="-102.41410845539559"><ele>1806.0</ele><time>2026-03-22T14:46:37Z</time></trkpt><trkpt lat="21.72186654928469" lon="-102.41402712556092"><ele>1806.0</ele><time>2026-03-22T14:46:38Z</time></trkpt><trkpt lat="21.721865520837806" lon="-102.41394687121414"><ele>1806.0</ele><time>2026-03-22T14:46:39Z</time></trkpt><trkpt lat="21.721858938330946" lon="-102.41386806198835"><ele>1806.0</ele><time>2026-03-22T14:46:40Z</time></trkpt><trkpt lat="21.72185721941264" lon="-102.41379526332582"><ele>1806.0</ele><time>2026-03-22T14:46:41Z</time></trkpt><trkpt lat="21.721851319919317" lon="-102.41372344922661"><ele>1806.0</ele><time>2026-03-22T14:46:42Z</time></trkpt><trkpt lat="21.72184764048133" lon="-102.41365172304074"><ele>1806.142857142857</ele><time>2026-03-22T14:46:43Z</time></trkpt><trkpt lat="21.72184345946788" lon="-102.41357604196001"><ele>1806.2857142857142</ele><time>2026-03-22T14:46:44Z</time></trkpt><trkpt lat="21.72183912440091" lon="-102.41350637584266"><ele>1806.4285714285716</ele><time>2026-03-22T14:46:45Z</time></trkpt><trkpt lat="21.72184130043489" lon="-102.41343784572854"><ele>1806.5714285714287</ele><time>2026-03-22T14:46:46Z</time></trkpt><trkpt lat="21.72183078272744" lon="-102.41337071386819"><ele>1806.7142857142858</ele><time>2026-03-22T14:46:47Z</time></trkpt><trkpt lat="21.721821420871507" lon="-102.4133023665773"><ele>1806.8571428571431</ele><time>2026-03-22T14:46:48Z</time></trkpt><trkpt lat="21.721808360598743" lon="-102.41323391595141"><ele>1807.0000000000002</ele><time>2026-03-22T14:46:49Z</time></trkpt><trkpt lat="21.721798161726614" lon="-102.41316246332786"><ele>1807.0000000000002</ele><time>2026-03-22T14:46:50Z</time></trkpt><trkpt lat="21.72177073835653" lon="-102.41309803407984"><ele>1807.0</ele><time>2026-03-22T14:46:51Z</time></trkpt><trkpt lat="21.721759017460677" lon="-102.41302973195432"><ele>1807.0</ele><time>2026-03-22T14:46:52Z</time></trkpt><trkpt lat="21.721763073888066" lon="-102.41295555875068"><ele>1807.0</ele><time>2026-03-22T14:46:53Z</time></trkpt><trkpt lat="21.72173511971452" lon="-102.41289047126544"><ele>1807.0000000000002</ele><time>2026-03-22T14:46:54Z</time></trkpt><trkpt lat="21.721719044061654" lon="-102.41279679277687"><ele>1807.0</ele><time>2026-03-22T14:46:56Z</time></trkpt><trkpt lat="21.721900877129844" lon="-102.41272438515888"><ele>1807.1999999999998</ele><time>2026-03-22T14:46:58Z</time></trkpt><trkpt lat="21.72200794429525" lon="-102.4127400527259"><ele>1807.3999999999999</ele><time>2026-03-22T14:47:00Z</time></trkpt><trkpt lat="21.722124023097365" lon="-102.41273831436878"><ele>1807.6000000000001</ele><time>2026-03-22T14:47:02Z</time></trkpt><trkpt lat="21.722232641059072" lon="-102.41274908311276"><ele>1807.8000000000002</ele><time>2026-03-22T14:47:04Z</time></trkpt><trkpt lat="21.72234225366132" lon="-102.41275820244088"><ele>1808.0</ele><time>2026-03-22T14:47:06Z</time></trkpt><trkpt lat="21.722463288184315" lon="-102.41275073611456"><ele>1808.0</ele><time>2026-03-22T14:47:08Z</time></trkpt><trkpt lat="21.72252653349441" lon="-102.41275374040049"><ele>1808.0</ele><time>2026-03-22T14:47:09Z</time></trkpt><trkpt lat="21.722645655183182" lon="-102.41276334727188"><ele>1808.0</ele><time>2026-03-22T14:47:11Z</time></trkpt><trkpt lat="21.72271273967939" lon="-102.41277450142078"><ele>1808.0</ele><time>2026-03-22T14:47:12Z</time></trkpt><trkpt lat="21.722777778679802" lon="-102.41279121324341"><ele>1808.0</ele><time>2026-03-22T14:47:13Z</time></trkpt><trkpt lat="21.722838865252353" lon="-102.41281300407834"><ele>1808.0</ele><time>2026-03-22T14:47:14Z</time></trkpt><trkpt lat="21.722905038575778" lon="-102.41282400958771"><ele>1808.0</ele><time>2026-03-22T14:47:15Z</time></trkpt><trkpt lat="21.722974169552803" lon="-102.41283735666929"><ele>1807.9999999999998</ele><time>2026-03-22T14:47:16Z</time></trkpt><trkpt lat="21.723041754360025" lon="-102.41285322434211"><ele>1808.0</ele><time>2026-03-22T14:47:17Z</time></trkpt><trkpt lat="21.723173863666794" lon="-102.41287749116643"><ele>1808.0</ele><time>2026-03-22T14:47:19Z</time></trkpt><trkpt lat="21.72323662813961" lon="-102.41289887483069"><ele>1808.0</ele><time>2026-03-22T14:47:20Z</time></trkpt><trkpt lat="21.723301407214986" lon="-102.41291696032498"><ele>1807.9999999999998</ele><time>2026-03-22T14:47:21Z</time></trkpt><trkpt lat="21.72336763007321" lon="-102.41292959662957"><ele>1808.0</ele><time>2026-03-22T14:47:22Z</time></trkpt><trkpt lat="21.723434623188368" lon="-102.4129469702268"><ele>1808.0</ele><time>2026-03-22T14:47:23Z</time></trkpt><trkpt lat="21.723557635411694" lon="-102.41298088756723"><ele>1808.0000000000002</ele><time>2026-03-22T14:47:25Z</time></trkpt><trkpt lat="21.723624410349633" lon="-102.41299583093976"><ele>1808.0000000000002</ele><time>2026-03-22T14:47:26Z</time></trkpt><trkpt lat="21.723687091951604" lon="-102.41301274506623"><ele>1808.0</ele><time>2026-03-22T14:47:27Z</time></trkpt><trkpt lat="21.723813761711725" lon="-102.4130565317589"><ele>1808.0</ele><time>2026-03-22T14:47:29Z</time></trkpt><trkpt lat="21.723883219205007" lon="-102.41307136878468"><ele>1808.4285714285716</ele><time>2026-03-22T14:47:30Z</time></trkpt><trkpt lat="21.723955882662537" lon="-102.41308278184158"><ele>1808.8571428571427</ele><time>2026-03-22T14:47:31Z</time></trkpt><trkpt lat="21.724026732611605" lon="-102.41309407168629"><ele>1809.2857142857142</ele><time>2026-03-22T14:47:32Z</time></trkpt><trkpt lat="21.724098641388757" lon="-102.4131121361577"><ele>1809.7142857142858</ele><time>2026-03-22T14:47:33Z</time></trkpt><trkpt lat="21.724168084480894" lon="-102.41312395641582"><ele>1810.1428571428573</ele><time>2026-03-22T14:47:34Z</time></trkpt><trkpt lat="21.724232380218098" lon="-102.4131442291816"><ele>1810.5714285714284</ele><time>2026-03-22T14:47:35Z</time></trkpt><trkpt lat="21.724303500031787" lon="-102.41315713984304"><ele>1811.0</ele><time>2026-03-22T14:47:36Z</time></trkpt><trkpt lat="21.724370869158648" lon="-102.41317172016649"><ele>1811.8</ele><time>2026-03-22T14:47:37Z</time></trkpt><trkpt lat="21.72443919290818" lon="-102.41318263751526"><ele>1812.6</ele><time>2026-03-22T14:47:38Z</time></trkpt><trkpt lat="21.724503935235973" lon="-102.41319602286734"><ele>1813.4</ele><time>2026-03-22T14:47:39Z</time></trkpt><trkpt lat="21.724570512009386" lon="-102.41320751484264"><ele>1814.2</ele><time>2026-03-22T14:47:40Z</time></trkpt><trkpt lat="21.724694418442596" lon="-102.4132388305499"><ele>1815.0</ele><time>2026-03-22T14:47:42Z</time></trkpt><trkpt lat="21.724818127634386" lon="-102.41326296381564"><ele>1815.0</ele><time>2026-03-22T14:47:44Z</time></trkpt><trkpt lat="21.72493762634222" lon="-102.41328171872104"><ele>1815.0</ele><time>2026-03-22T14:47:46Z</time></trkpt><trkpt lat="21.725047363257076" lon="-102.41330556486302"><ele>1815.0</ele><time>2026-03-22T14:47:48Z</time></trkpt><trkpt lat="21.72514768899973" lon="-102.41333111054423"><ele>1815.0</ele><time>2026-03-22T14:47:50Z</time></trkpt><trkpt lat="21.725250220725993" lon="-102.4133559285028"><ele>1815.0</ele><time>2026-03-22T14:47:52Z</time></trkpt><trkpt lat="21.725342329676106" lon="-102.41337809861886"><ele>1815.0</ele><time>2026-03-22T14:47:54Z</time></trkpt><trkpt lat="21.725439150030354" lon="-102.41340624910649"><ele>1815.0</ele><time>2026-03-22T14:47:56Z</time></trkpt><trkpt lat="21.725538923541503" lon="-102.4134340646659"><ele>1815.0</ele><time>2026-03-22T14:47:58Z</time></trkpt><trkpt lat="21.725643508490016" lon="-102.41346159352887"><ele>1815.0</ele><time>2026-03-22T14:48:00Z</time></trkpt><trkpt lat="21.725743920827995" lon="-102.41347955426264"><ele>1815.0</ele><time>2026-03-22T14:48:02Z</time></trkpt><trkpt lat="21.725849821791208" lon="-102.4134980030819"><ele>1815.0</ele><time>2026-03-22T14:48:04Z</time></trkpt><trkpt lat="21.72593350102928" lon="-102.41353305455429"><ele>1815.0</ele><time>2026-03-22T14:48:08Z</time></trkpt><trkpt lat="21.726000001019667" lon="-102.41354797248411"><ele>1815.0</ele><time>2026-03-22T14:48:10Z</time></trkpt><trkpt lat="21.726082824191025" lon="-102.41357464651077"><ele>1815.0</ele><time>2026-03-22T14:48:12Z</time></trkpt><trkpt lat="21.726151918614228" lon="-102.41357357822028"><ele>1815.0</ele><time>2026-03-22T14:48:14Z</time></trkpt><trkpt lat="21.726243229649256" lon="-102.41359293470867"><ele>1815.0</ele><time>2026-03-22T14:48:15Z</time></trkpt><trkpt lat="21.726327823373524" lon="-102.4136100388963"><ele>1815.0</ele><time>2026-03-22T14:48:16Z</time></trkpt><trkpt lat="21.726393588655785" lon="-102.41364025970735"><ele>1815.0</ele><time>2026-03-22T14:48:17Z</time></trkpt><trkpt lat="21.726464315578" lon="-102.41364594650777"><ele>1815.0</ele><time>2026-03-22T14:48:18Z</time></trkpt><trkpt lat="21.726533527356164" lon="-102.41365510968562"><ele>1815.0</ele><time>2026-03-22T14:48:19Z</time></trkpt><trkpt lat="21.72660539592306" lon="-102.41365708922046"><ele>1815.0</ele><time>2026-03-22T14:48:20Z</time></trkpt><trkpt lat="21.726675533624167" lon="-102.41366397960815"><ele>1815.0</ele><time>2026-03-22T14:48:21Z</time></trkpt><trkpt lat="21.726746798550288" lon="-102.41366943239156"><ele>1815.0</ele><time>2026-03-22T14:48:22Z</time></trkpt><trkpt lat="21.726816850819667" lon="-102.41367488116498"><ele>1815.0</ele><time>2026-03-22T14:48:23Z</time></trkpt><trkpt lat="21.72688491540559" lon="-102.41367721146386"><ele>1815.0</ele><time>2026-03-22T14:48:24Z</time></trkpt><trkpt lat="21.726956765597293" lon="-102.41367846990573"><ele>1815.0</ele><time>2026-03-22T14:48:25Z</time></trkpt><trkpt lat="21.727030803763274" lon="-102.41367790561357"><ele>1815.0</ele><time>2026-03-22T14:48:26Z</time></trkpt><trkpt lat="21.727104777563305" lon="-102.4136787576313"><ele>1815.0</ele><time>2026-03-22T14:48:27Z</time></trkpt><trkpt lat="21.727179464026104" lon="-102.41367614553694"><ele>1815.0</ele><time>2026-03-22T14:48:28Z</time></trkpt><trkpt lat="21.727250736735996" lon="-102.41367987371245"><ele>1815.0</ele><time>2026-03-22T14:48:29Z</time></trkpt><trkpt lat="21.727328866989833" lon="-102.41367840380998"><ele>1815.0</ele><time>2026-03-22T14:48:30Z</time></trkpt><trkpt lat="21.727404471005762" lon="-102.4136812432309"><ele>1815.0</ele><time>2026-03-22T14:48:31Z</time></trkpt><trkpt lat="21.72748160755633" lon="-102.41368187614566"><ele>1815.0</ele><time>2026-03-22T14:48:32Z</time></trkpt><trkpt lat="21.72755946894463" lon="-102.41368375695431"><ele>1815.0</ele><time>2026-03-22T14:48:33Z</time></trkpt><trkpt lat="21.7276402679736" lon="-102.41368486177754"><ele>1815.0</ele><time>2026-03-22T14:48:34Z</time></trkpt><trkpt lat="21.72771982155776" lon="-102.4136897744169"><ele>1815.0</ele><time>2026-03-22T14:48:35Z</time></trkpt><trkpt lat="21.727797069565828" lon="-102.413691703061"><ele>1815.0</ele><time>2026-03-22T14:48:36Z</time></trkpt><trkpt lat="21.727879271133112" lon="-102.413690745651"><ele>1815.0</ele><time>2026-03-22T14:48:37Z</time></trkpt><trkpt lat="21.727957419603058" lon="-102.41369660119237"><ele>1815.0</ele><time>2026-03-22T14:48:38Z</time></trkpt><trkpt lat="21.728034697852767" lon="-102.41370051812726"><ele>1815.0</ele><time>2026-03-22T14:48:39Z</time></trkpt><trkpt lat="21.728108020770307" lon="-102.41370123642466"><ele>1815.0</ele><time>2026-03-22T14:48:40Z</time></trkpt><trkpt lat="21.728185908089216" lon="-102.41369840988612"><ele>1815.0</ele><time>2026-03-22T14:48:41Z</time></trkpt><trkpt lat="21.72826177643977" lon="-102.41370398332779"><ele>1815.0</ele><time>2026-03-22T14:48:42Z</time></trkpt><trkpt lat="21.72833223780102" lon="-102.41370903581662"><ele>1815.0</ele><time>2026-03-22T14:48:43Z</time></trkpt><trkpt lat="21.72840007918815" lon="-102.41371167406204"><ele>1815.0</ele><time>2026-03-22T14:48:44Z</time></trkpt><trkpt lat="21.728535001309425" lon="-102.41370759102116"><ele>1815.0</ele><time>2026-03-22T14:48:46Z</time></trkpt><trkpt lat="21.728607914733736" lon="-102.41370734109087"><ele>1815.0</ele><time>2026-03-22T14:48:47Z</time></trkpt><trkpt lat="21.728682153615434" lon="-102.41371156869339"><ele>1815.0</ele><time>2026-03-22T14:48:48Z</time></trkpt><trkpt lat="21.72875313477556" lon="-102.41371406956289"><ele>1815.4285714285716</ele><time>2026-03-22T14:48:49Z</time></trkpt><trkpt lat="21.728825006164698" lon="-102.41371712427139"><ele>1815.8571428571427</ele><time>2026-03-22T14:48:50Z</time></trkpt><trkpt lat="21.72889726304386" lon="-102.41371741246064"><ele>1816.2857142857142</ele><time>2026-03-22T14:48:51Z</time></trkpt><trkpt lat="21.728978175200954" lon="-102.41371132809392"><ele>1816.7142857142858</ele><time>2026-03-22T14:48:52Z</time></trkpt><trkpt lat="21.729049296942094" lon="-102.41371955752632"><ele>1817.1428571428573</ele><time>2026-03-22T14:48:53Z</time></trkpt><trkpt lat="21.729123538932257" lon="-102.4137294658402"><ele>1817.5714285714284</ele><time>2026-03-22T14:48:54Z</time></trkpt><trkpt lat="21.72918704027408" lon="-102.41373971290187"><ele>1818.0</ele><time>2026-03-22T14:48:55Z</time></trkpt><trkpt lat="21.729271802558127" lon="-102.41373281396206"><ele>1818.0</ele><time>2026-03-22T14:48:56Z</time></trkpt><trkpt lat="21.729347561743737" lon="-102.41372987767988"><ele>1818.0</ele><time>2026-03-22T14:48:57Z</time></trkpt><trkpt lat="21.729427611755316" lon="-102.4137278679398"><ele>1818.0</ele><time>2026-03-22T14:48:58Z</time></trkpt><trkpt lat="21.729502777985637" lon="-102.41372829033882"><ele>1818.0</ele><time>2026-03-22T14:48:59Z</time></trkpt><trkpt lat="21.729575756271505" lon="-102.41373206297651"><ele>1818.0</ele><time>2026-03-22T14:49:00Z</time></trkpt><trkpt lat="21.729648541034706" lon="-102.41373447917766"><ele>1818.0</ele><time>2026-03-22T14:49:01Z</time></trkpt><trkpt lat="21.7297239993334" lon="-102.4137329954853"><ele>1818.142857142857</ele><time>2026-03-22T14:49:02Z</time></trkpt><trkpt lat="21.729800194703188" lon="-102.41372902744139"><ele>1818.2857142857142</ele><time>2026-03-22T14:49:03Z</time></trkpt><trkpt lat="21.72987556705956" lon="-102.41373117134809"><ele>1818.4285714285713</ele><time>2026-03-22T14:49:04Z</time></trkpt><trkpt lat="21.729946755076217" lon="-102.41373811064109"><ele>1818.5714285714284</ele><time>2026-03-22T14:49:05Z</time></trkpt><trkpt lat="21.730016238392793" lon="-102.41373398540617"><ele>1818.7142857142858</ele><time>2026-03-22T14:49:06Z</time></trkpt><trkpt lat="21.73008963454121" lon="-102.41373365232914"><ele>1818.8571428571427</ele><time>2026-03-22T14:49:07Z</time></trkpt><trkpt lat="21.73015395487605" lon="-102.41373116810465"><ele>1818.9999999999998</ele><time>2026-03-22T14:49:08Z</time></trkpt><trkpt lat="21.73022457349136" lon="-102.41373527273467"><ele>1819.0</ele><time>2026-03-22T14:49:09Z</time></trkpt><trkpt lat="21.730292822061248" lon="-102.41373738820214"><ele>1819.0</ele><time>2026-03-22T14:49:10Z</time></trkpt><trkpt lat="21.730422763492026" lon="-102.41373780636475"><ele>1819.0</ele><time>2026-03-22T14:49:12Z</time></trkpt><trkpt lat="21.73055015627236" lon="-102.41373729226683"><ele>1819.0</ele><time>2026-03-22T14:49:14Z</time></trkpt><trkpt lat="21.730665723581986" lon="-102.4137440550339"><ele>1819.0</ele><time>2026-03-22T14:49:16Z</time></trkpt><trkpt lat="21.73078442972119" lon="-102.41374699266011"><ele>1819.0</ele><time>2026-03-22T14:49:18Z</time></trkpt><trkpt lat="21.730847420812974" lon="-102.41374231528549"><ele>1819.0</ele><time>2026-03-22T14:49:19Z</time></trkpt><trkpt lat="21.730971238078173" lon="-102.413745181479"><ele>1819.0</ele><time>2026-03-22T14:49:21Z</time></trkpt><trkpt lat="21.73103488346484" lon="-102.4137484747696"><ele>1819.0</ele><time>2026-03-22T14:49:22Z</time></trkpt><trkpt lat="21.731159570683676" lon="-102.41374598753366"><ele>1819.0</ele><time>2026-03-22T14:49:24Z</time></trkpt><trkpt lat="21.731280908114755" lon="-102.41374941843323"><ele>1819.25</ele><time>2026-03-22T14:49:26Z</time></trkpt><trkpt lat="21.731400635931923" lon="-102.41375213834192"><ele>1819.5</ele><time>2026-03-22T14:49:28Z</time></trkpt><trkpt lat="21.731519334584807" lon="-102.41375210643251"><ele>1819.75</ele><time>2026-03-22T14:49:30Z</time></trkpt><trkpt lat="21.731639257395592" lon="-102.41375534675288"><ele>1820.0</ele><time>2026-03-22T14:49:32Z</time></trkpt><trkpt lat="21.73175001830423" lon="-102.41376614143635"><ele>1820.0</ele><time>2026-03-22T14:49:34Z</time></trkpt><trkpt lat="21.73185466682401" lon="-102.41376654726429"><ele>1820.0</ele><time>2026-03-22T14:49:36Z</time></trkpt><trkpt lat="21.73197121529859" lon="-102.41376473262062"><ele>1820.0</ele><time>2026-03-22T14:49:38Z</time></trkpt><trkpt lat="21.73208733217531" lon="-102.41377247071429"><ele>1820.0</ele><time>2026-03-22T14:49:40Z</time></trkpt><trkpt lat="21.732199169347574" lon="-102.41377972028242"><ele>1820.4</ele><time>2026-03-22T14:49:42Z</time></trkpt><trkpt lat="21.73231054465944" lon="-102.41377610159228"><ele>1820.8</ele><time>2026-03-22T14:49:44Z</time></trkpt><trkpt lat="21.732415679795544" lon="-102.41377768083716"><ele>1821.1999999999998</ele><time>2026-03-22T14:49:46Z</time></trkpt><trkpt lat="21.73253667794377" lon="-102.41378605252616"><ele>1821.6</ele><time>2026-03-22T14:49:48Z</time></trkpt><trkpt lat="21.732642043018547" lon="-102.41378713530109"><ele>1822.0</ele><time>2026-03-22T14:49:50Z</time></trkpt><trkpt lat="21.732750731746577" lon="-102.41378460963709"><ele>1822.1999999999998</ele><time>2026-03-22T14:49:52Z</time></trkpt><trkpt lat="21.732861417492842" lon="-102.41377843821732"><ele>1822.3999999999999</ele><time>2026-03-22T14:49:54Z</time></trkpt><trkpt lat="21.732966203031925" lon="-102.4137810926284"><ele>1822.6000000000001</ele><time>2026-03-22T14:49:56Z</time></trkpt><trkpt lat="21.73307416259349" lon="-102.41377958030768"><ele>1822.8000000000002</ele><time>2026-03-22T14:49:58Z</time></trkpt><trkpt lat="21.733183074020314" lon="-102.4137814620154"><ele>1823.0</ele><time>2026-03-22T14:50:00Z</time></trkpt><trkpt lat="21.73328792230137" lon="-102.41378096430243"><ele>1823.0</ele><time>2026-03-22T14:50:02Z</time></trkpt><trkpt lat="21.73339313716025" lon="-102.41378659266152"><ele>1823.0000000000002</ele><time>2026-03-22T14:50:04Z</time></trkpt><trkpt lat="21.733495375395766" lon="-102.41379497100554"><ele>1823.0000000000002</ele><time>2026-03-22T14:50:06Z</time></trkpt><trkpt lat="21.733601184687473" lon="-102.4137920163511"><ele>1823.0</ele><time>2026-03-22T14:50:08Z</time></trkpt><trkpt lat="21.73370840748392" lon="-102.41378467795685"><ele>1823.0</ele><time>2026-03-22T14:50:10Z</time></trkpt><trkpt lat="21.733804952702375" lon="-102.41377966353409"><ele>1823.8000000000002</ele><time>2026-03-22T14:50:12Z</time></trkpt><trkpt lat="21.733919460614953" lon="-102.41378698210124"><ele>1824.6000000000001</ele><time>2026-03-22T14:50:14Z</time></trkpt><trkpt lat="21.734027279438546" lon="-102.4137873410616"><ele>1825.3999999999999</ele><time>2026-03-22T14:50:16Z</time></trkpt><trkpt lat="21.734130950810236" lon="-102.41379568763897"><ele>1826.1999999999998</ele><time>2026-03-22T14:50:18Z</time></trkpt><trkpt lat="21.734233947843506" lon="-102.41379906437668"><ele>1827.0</ele><time>2026-03-22T14:50:20Z</time></trkpt><trkpt lat="21.734341086692964" lon="-102.41378974029588"><ele>1827.8</ele><time>2026-03-22T14:50:22Z</time></trkpt><trkpt lat="21.734444154599604" lon="-102.41378367247333"><ele>1828.6</ele><time>2026-03-22T14:50:24Z</time></trkpt><trkpt lat="21.734551376208877" lon="-102.41378742006451"><ele>1829.3999999999999</ele><time>2026-03-22T14:50:26Z</time></trkpt><trkpt lat="21.73466010834099" lon="-102.41378621895215"><ele>1830.1999999999998</ele><time>2026-03-22T14:50:28Z</time></trkpt><trkpt lat="21.734763888226126" lon="-102.41379058566156"><ele>1831.0</ele><time>2026-03-22T14:50:30Z</time></trkpt><trkpt lat="21.734878509923423" lon="-102.41379426632795"><ele>1831.0</ele><time>2026-03-22T14:50:32Z</time></trkpt><trkpt lat="21.734994976899088" lon="-102.41379098232463"><ele>1831.0</ele><time>2026-03-22T14:50:34Z</time></trkpt><trkpt lat="21.735107903423014" lon="-102.41379479964398"><ele>1831.0</ele><time>2026-03-22T14:50:36Z</time></trkpt><trkpt lat="21.735220938221694" lon="-102.41379833292264"><ele>1831.0</ele><time>2026-03-22T14:50:38Z</time></trkpt><trkpt lat="21.735332833653253" lon="-102.41380623458569"><ele>1831.6</ele><time>2026-03-22T14:50:40Z</time></trkpt><trkpt lat="21.735438263088874" lon="-102.41380720762659"><ele>1832.1999999999998</ele><time>2026-03-22T14:50:42Z</time></trkpt><trkpt lat="21.735548483856366" lon="-102.41380259385552"><ele>1832.8000000000002</ele><time>2026-03-22T14:50:44Z</time></trkpt><trkpt lat="21.73565216055054" lon="-102.41381621255948"><ele>1833.4</ele><time>2026-03-22T14:50:46Z</time></trkpt><trkpt lat="21.73575490916876" lon="-102.41381759424246"><ele>1834.0</ele><time>2026-03-22T14:50:48Z</time></trkpt><trkpt lat="21.735862042377008" lon="-102.41381787262506"><ele>1834.0</ele><time>2026-03-22T14:50:50Z</time></trkpt><trkpt lat="21.735963847316707" lon="-102.41381773605774"><ele>1834.0</ele><time>2026-03-22T14:50:52Z</time></trkpt><trkpt lat="21.7360650328595" lon="-102.413828161995"><ele>1834.0</ele><time>2026-03-22T14:50:54Z</time></trkpt><trkpt lat="21.736166784233504" lon="-102.41383099880879"><ele>1834.0</ele><time>2026-03-22T14:50:56Z</time></trkpt><trkpt lat="21.736271353811762" lon="-102.41383165544708"><ele>1834.0</ele><time>2026-03-22T14:50:58Z</time></trkpt><trkpt lat="21.73633741578101" lon="-102.41383324928134"><ele>1834.5000000000002</ele><time>2026-03-22T14:51:01Z</time></trkpt><trkpt lat="21.736404086744198" lon="-102.41384557382283"><ele>1835.0</ele><time>2026-03-22T14:51:03Z</time></trkpt><trkpt lat="21.736470392734784" lon="-102.41383876096134"><ele>1835.5</ele><time>2026-03-22T14:51:05Z</time></trkpt><trkpt lat="21.736539804463725" lon="-102.41384673398758"><ele>1836.0</ele><time>2026-03-22T14:51:07Z</time></trkpt><trkpt lat="21.73662141847295" lon="-102.41384878866086"><ele>1836.5000000000002</ele><time>2026-03-22T14:51:10Z</time></trkpt><trkpt lat="21.736700039555075" lon="-102.41385169130773"><ele>1837.0</ele><time>2026-03-22T14:51:12Z</time></trkpt><trkpt lat="21.73703002737161" lon="-102.41386295341812"><ele>1837.1999999999998</ele><time>2026-03-22T14:51:13Z</time></trkpt><trkpt lat="21.737139475806444" lon="-102.41385100312154"><ele>1837.3999999999999</ele><time>2026-03-22T14:51:15Z</time></trkpt><trkpt lat="21.737248630312695" lon="-102.41386212866415"><ele>1837.6000000000001</ele><time>2026-03-22T14:51:17Z</time></trkpt><trkpt lat="21.737351605339622" lon="-102.41387227520096"><ele>1837.8000000000002</ele><time>2026-03-22T14:51:19Z</time></trkpt><trkpt lat="21.737461392472294" lon="-102.41387145253927"><ele>1838.0</ele><time>2026-03-22T14:51:21Z</time></trkpt><trkpt lat="21.73757151508464" lon="-102.4138719814714"><ele>1838.0</ele><time>2026-03-22T14:51:23Z</time></trkpt><trkpt lat="21.737682738484796" lon="-102.41385834246792"><ele>1838.0000000000002</ele><time>2026-03-22T14:51:25Z</time></trkpt><trkpt lat="21.73775354889134" lon="-102.41384974004637"><ele>1838.0000000000002</ele><time>2026-03-22T14:51:27Z</time></trkpt><trkpt lat="21.73787233235317" lon="-102.41385403015873"><ele>1838.0</ele><time>2026-03-22T14:51:29Z</time></trkpt><trkpt lat="21.737981595333856" lon="-102.4138592654622"><ele>1838.0</ele><time>2026-03-22T14:51:31Z</time></trkpt><trkpt lat="21.738092025703658" lon="-102.41385698737504"><ele>1838.2</ele><time>2026-03-22T14:51:33Z</time></trkpt><trkpt lat="21.73817456850995" lon="-102.41385558601054"><ele>1838.4</ele><time>2026-03-22T14:51:35Z</time></trkpt><trkpt lat="21.738287428500573" lon="-102.41385666935487"><ele>1838.6000000000001</ele><time>2026-03-22T14:51:37Z</time></trkpt><trkpt lat="21.738394064164893" lon="-102.41385727513097"><ele>1838.8000000000002</ele><time>2026-03-22T14:51:39Z</time></trkpt><trkpt lat="21.738501307687073" lon="-102.41386080084743"><ele>1839.0</ele><time>2026-03-22T14:51:41Z</time></trkpt><trkpt lat="21.738610856691224" lon="-102.41385168080515"><ele>1839.4</ele><time>2026-03-22T14:51:43Z</time></trkpt><trkpt lat="21.738720696750836" lon="-102.41385835971526"><ele>1839.8000000000002</ele><time>2026-03-22T14:51:45Z</time></trkpt><trkpt lat="21.738828550196573" lon="-102.4138634762503"><ele>1840.1999999999998</ele><time>2026-03-22T14:51:47Z</time></trkpt><trkpt lat="21.73893643143377" lon="-102.41386453326658"><ele>1840.6</ele><time>2026-03-22T14:51:49Z</time></trkpt><trkpt lat="21.73904703841951" lon="-102.41386225968442"><ele>1841.0</ele><time>2026-03-22T14:51:51Z</time></trkpt><trkpt lat="21.73915725009914" lon="-102.413860197955"><ele>1841.0</ele><time>2026-03-22T14:51:53Z</time></trkpt><trkpt lat="21.739262737321216" lon="-102.41386004776471"><ele>1841.0</ele><time>2026-03-22T14:51:55Z</time></trkpt><trkpt lat="21.739366049185335" lon="-102.41385421942377"><ele>1841.0</ele><time>2026-03-22T14:51:57Z</time></trkpt><trkpt lat="21.739470600646435" lon="-102.41385823402923"><ele>1841.0</ele><time>2026-03-22T14:51:59Z</time></trkpt><trkpt lat="21.739568476677775" lon="-102.41386728382966"><ele>1841.0</ele><time>2026-03-22T14:52:01Z</time></trkpt><trkpt lat="21.739672618390053" lon="-102.41386343225804"><ele>1841.1999999999998</ele><time>2026-03-22T14:52:03Z</time></trkpt><trkpt lat="21.73977580946381" lon="-102.41386677957065"><ele>1841.3999999999999</ele><time>2026-03-22T14:52:05Z</time></trkpt><trkpt lat="21.739880298250824" lon="-102.41386526351589"><ele>1841.6</ele><time>2026-03-22T14:52:07Z</time></trkpt><trkpt lat="21.739998721372423" lon="-102.41387277455233"><ele>1841.8</ele><time>2026-03-22T14:52:09Z</time></trkpt><trkpt lat="21.740105239758297" lon="-102.41387476692569"><ele>1842.0</ele><time>2026-03-22T14:52:11Z</time></trkpt><trkpt lat="21.740213208116717" lon="-102.41387565407442"><ele>1842.3999999999999</ele><time>2026-03-22T14:52:13Z</time></trkpt><trkpt lat="21.74031604654038" lon="-102.41387675972238"><ele>1842.7999999999997</ele><time>2026-03-22T14:52:15Z</time></trkpt><trkpt lat="21.74042402734665" lon="-102.41387565238973"><ele>1843.2</ele><time>2026-03-22T14:52:17Z</time></trkpt><trkpt lat="21.74053722580294" lon="-102.41387310097687"><ele>1843.6</ele><time>2026-03-22T14:52:19Z</time></trkpt><trkpt lat="21.74064702029682" lon="-102.41386999811428"><ele>1844.0</ele><time>2026-03-22T14:52:21Z</time></trkpt><trkpt lat="21.740752648348867" lon="-102.41387493799033"><ele>1844.0</ele><time>2026-03-22T14:52:23Z</time></trkpt><trkpt lat="21.740862445028267" lon="-102.41386908234418"><ele>1844.0</ele><time>2026-03-22T14:52:25Z</time></trkpt><trkpt lat="21.740972111101698" lon="-102.4138805276485"><ele>1844.0</ele><time>2026-03-22T14:52:27Z</time></trkpt><trkpt lat="21.741063435688538" lon="-102.41390390074959"><ele>1844.0</ele><time>2026-03-22T14:52:31Z</time></trkpt><trkpt lat="21.741166391251" lon="-102.41390683270093"><ele>1844.0</ele><time>2026-03-22T14:52:33Z</time></trkpt><trkpt lat="21.74126318833519" lon="-102.41390518864512"><ele>1844.2</ele><time>2026-03-22T14:52:34Z</time></trkpt><trkpt lat="21.74133046831765" lon="-102.41389899630806"><ele>1844.4</ele><time>2026-03-22T14:52:35Z</time></trkpt><trkpt lat="21.74145437921281" lon="-102.4139034432157"><ele>1844.6</ele><time>2026-03-22T14:52:37Z</time></trkpt><trkpt lat="21.741579144196017" lon="-102.41390045145803"><ele>1844.8</ele><time>2026-03-22T14:52:39Z</time></trkpt><trkpt lat="21.741703856704927" lon="-102.41390524564713"><ele>1845.0</ele><time>2026-03-22T14:52:41Z</time></trkpt><trkpt lat="21.74182831932895" lon="-102.41390664345799"><ele>1845.1666666666667</ele><time>2026-03-22T14:52:43Z</time></trkpt><trkpt lat="21.741893605685853" lon="-102.41390405120113"><ele>1845.3333333333335</ele><time>2026-03-22T14:52:44Z</time></trkpt><trkpt lat="21.741958103415516" lon="-102.41390416165491"><ele>1845.5</ele><time>2026-03-22T14:52:45Z</time></trkpt><trkpt lat="21.742079850767805" lon="-102.41390880908604"><ele>1845.6666666666667</ele><time>2026-03-22T14:52:47Z</time></trkpt><trkpt lat="21.742143940187088" lon="-102.41390886868002"><ele>1845.8333333333335</ele><time>2026-03-22T14:52:48Z</time></trkpt><trkpt lat="21.742261492007533" lon="-102.4139063154094"><ele>1846.0</ele><time>2026-03-22T14:52:50Z</time></trkpt><trkpt lat="21.74238135464016" lon="-102.41389526851722"><ele>1846.0</ele><time>2026-03-22T14:52:52Z</time></trkpt><trkpt lat="21.742505905525803" lon="-102.41390094427301"><ele>1846.0</ele><time>2026-03-22T14:52:54Z</time></trkpt><trkpt lat="21.742627462707752" lon="-102.41390219456618"><ele>1846.0</ele><time>2026-03-22T14:52:56Z</time></trkpt><trkpt lat="21.742745090517747" lon="-102.41390815329535"><ele>1846.0</ele><time>2026-03-22T14:52:58Z</time></trkpt><trkpt lat="21.742809530572565" lon="-102.41390850876986"><ele>1846.0</ele><time>2026-03-22T14:52:59Z</time></trkpt><trkpt lat="21.74287400162995" lon="-102.41390837956018"><ele>1846.25</ele><time>2026-03-22T14:53:00Z</time></trkpt><trkpt lat="21.742994452870587" lon="-102.41390551301026"><ele>1846.5</ele><time>2026-03-22T14:53:02Z</time></trkpt><trkpt lat="21.74310618963235" lon="-102.41391366112629"><ele>1846.75</ele><time>2026-03-22T14:53:04Z</time></trkpt><trkpt lat="21.743224185312556" lon="-102.413914971884"><ele>1847.0</ele><time>2026-03-22T14:53:06Z</time></trkpt><trkpt lat="21.74334811298717" lon="-102.41391488089889"><ele>1847.0</ele><time>2026-03-22T14:53:08Z</time></trkpt><trkpt lat="21.743471683620484" lon="-102.41392343401516"><ele>1846.9999999999998</ele><time>2026-03-22T14:53:10Z</time></trkpt><trkpt lat="21.74353611991512" lon="-102.41392735035873"><ele>1846.9999999999998</ele><time>2026-03-22T14:53:11Z</time></trkpt><trkpt lat="21.74366464689842" lon="-102.41392821432653"><ele>1847.0</ele><time>2026-03-22T14:53:13Z</time></trkpt><trkpt lat="21.74372935620125" lon="-102.41392777143989"><ele>1847.0</ele><time>2026-03-22T14:53:14Z</time></trkpt><trkpt lat="21.743852689307186" lon="-102.41393443965711"><ele>1847.3999999999999</ele><time>2026-03-22T14:53:16Z</time></trkpt><trkpt lat="21.743976094094794" lon="-102.41395612090719"><ele>1847.7999999999997</ele><time>2026-03-22T14:53:18Z</time></trkpt><trkpt lat="21.744099277264002" lon="-102.41397080331397"><ele>1848.2</ele><time>2026-03-22T14:53:20Z</time></trkpt><trkpt lat="21.744220604587284" lon="-102.41400412859868"><ele>1848.6</ele><time>2026-03-22T14:53:22Z</time></trkpt><trkpt lat="21.744284013227237" lon="-102.4140183244019"><ele>1849.0</ele><time>2026-03-22T14:53:23Z</time></trkpt><trkpt lat="21.74434610843717" lon="-102.41403784518869"><ele>1849.75</ele><time>2026-03-22T14:53:24Z</time></trkpt><trkpt lat="21.744466133037925" lon="-102.41407303987876"><ele>1850.5</ele><time>2026-03-22T14:53:26Z</time></trkpt><trkpt lat="21.74458037494306" lon="-102.41411777158343"><ele>1851.25</ele><time>2026-03-22T14:53:28Z</time></trkpt><trkpt lat="21.744691414216312" lon="-102.41416366429802"><ele>1852.0</ele><time>2026-03-22T14:53:30Z</time></trkpt><trkpt lat="21.7447941414959" lon="-102.41421473613684"><ele>1852.0</ele><time>2026-03-22T14:53:32Z</time></trkpt><trkpt lat="21.74489190531018" lon="-102.41425236018164"><ele>1851.9999999999998</ele><time>2026-03-22T14:53:34Z</time></trkpt><trkpt lat="21.744982608372737" lon="-102.41428800859498"><ele>1851.9999999999998</ele><time>2026-03-22T14:53:36Z</time></trkpt><trkpt lat="21.745068802047555" lon="-102.41432447247145"><ele>1852.0</ele><time>2026-03-22T14:53:38Z</time></trkpt><trkpt lat="21.745155439983314" lon="-102.41435946673573"><ele>1852.0</ele><time>2026-03-22T14:53:40Z</time></trkpt><trkpt lat="21.74523436768399" lon="-102.41441062704574"><ele>1852.8</ele><time>2026-03-22T14:53:42Z</time></trkpt><trkpt lat="21.745320439759347" lon="-102.41445136918847"><ele>1853.6</ele><time>2026-03-22T14:53:44Z</time></trkpt><trkpt lat="21.745409942230168" lon="-102.41447513409163"><ele>1854.3999999999999</ele><time>2026-03-22T14:53:46Z</time></trkpt><trkpt lat="21.745494894973504" lon="-102.4145177140094"><ele>1855.1999999999998</ele><time>2026-03-22T14:53:48Z</time></trkpt><trkpt lat="21.745580772882068" lon="-102.41457184443408"><ele>1856.0</ele><time>2026-03-22T14:53:51Z</time></trkpt><trkpt lat="21.74564545686003" lon="-102.4146166456522"><ele>1856.1999999999998</ele><time>2026-03-22T14:53:54Z</time></trkpt><trkpt lat="21.745727327147705" lon="-102.41466499056033"><ele>1856.3999999999999</ele><time>2026-03-22T14:53:57Z</time></trkpt><trkpt lat="21.74581560028076" lon="-102.41470154340568"><ele>1856.6</ele><time>2026-03-22T14:53:59Z</time></trkpt><trkpt lat="21.74590369767583" lon="-102.41475026468432"><ele>1856.8</ele><time>2026-03-22T14:54:02Z</time></trkpt><trkpt lat="21.74596015634063" lon="-102.41478043571995"><ele>1857.0</ele><time>2026-03-22T14:54:04Z</time></trkpt><trkpt lat="21.74604931535089" lon="-102.41482801322483"><ele>1857.75</ele><time>2026-03-22T14:54:06Z</time></trkpt><trkpt lat="21.746162314688636" lon="-102.41487635086028"><ele>1858.5</ele><time>2026-03-22T14:54:08Z</time></trkpt><trkpt lat="21.74627084794588" lon="-102.41492468241022"><ele>1859.25</ele><time>2026-03-22T14:54:10Z</time></trkpt><trkpt lat="21.746383776660107" lon="-102.41497598899042"><ele>1860.0</ele><time>2026-03-22T14:54:12Z</time></trkpt><trkpt lat="21.746465724963866" lon="-102.41501540142146"><ele>1860.0</ele><time>2026-03-22T14:54:14Z</time></trkpt><trkpt lat="21.746571894488145" lon="-102.41507584440774"><ele>1860.0</ele><time>2026-03-22T14:54:17Z</time></trkpt><trkpt lat="21.746709487742283" lon="-102.41514111467282"><ele>1860.0</ele><time>2026-03-22T14:54:19Z</time></trkpt><trkpt lat="21.74682590361444" lon="-102.41519196689207"><ele>1860.0</ele><time>2026-03-22T14:54:21Z</time></trkpt><trkpt lat="21.746911197483364" lon="-102.41522826106643"><ele>1860.0</ele><time>2026-03-22T14:54:22Z</time></trkpt><trkpt lat="21.747026144875175" lon="-102.41526731567168"><ele>1860.0</ele><time>2026-03-22T14:54:24Z</time></trkpt><trkpt lat="21.747085617046906" lon="-102.41530301138985"><ele>1860.0</ele><time>2026-03-22T14:54:26Z</time></trkpt><trkpt lat="21.74714458413324" lon="-102.41533992086552"><ele>1860.0</ele><time>2026-03-22T14:54:27Z</time></trkpt><trkpt lat="21.74721123196621" lon="-102.41536947031246"><ele>1860.0</ele><time>2026-03-22T14:54:29Z</time></trkpt><trkpt lat="21.74732596746327" lon="-102.4154286687593"><ele>1860.0</ele><time>2026-03-22T14:54:31Z</time></trkpt><trkpt lat="21.747411869866443" lon="-102.41545457801908"><ele>1860.0</ele><time>2026-03-22T14:54:33Z</time></trkpt><trkpt lat="21.74753083814999" lon="-102.41551305994739"><ele>1860.0</ele><time>2026-03-22T14:54:35Z</time></trkpt><trkpt lat="21.747589974948518" lon="-102.41554210757637"><ele>1860.0</ele><time>2026-03-22T14:54:36Z</time></trkpt><trkpt lat="21.74769413366197" lon="-102.41560259245891"><ele>1860.0</ele><time>2026-03-22T14:54:38Z</time></trkpt><trkpt lat="21.74779576867503" lon="-102.41565388221521"><ele>1860.75</ele><time>2026-03-22T14:54:40Z</time></trkpt><trkpt lat="21.74790634240758" lon="-102.41570187956393"><ele>1861.5</ele><time>2026-03-22T14:54:42Z</time></trkpt><trkpt lat="21.74801411277697" lon="-102.41575116774607"><ele>1862.25</ele><time>2026-03-22T14:54:44Z</time></trkpt><trkpt lat="21.74812433301082" lon="-102.4157914074161"><ele>1863.0</ele><time>2026-03-22T14:54:46Z</time></trkpt><trkpt lat="21.748232619806096" lon="-102.41583596400817"><ele>1863.0</ele><time>2026-03-22T14:54:48Z</time></trkpt><trkpt lat="21.7483427184094" lon="-102.41588617975097"><ele>1863.0</ele><time>2026-03-22T14:54:50Z</time></trkpt><trkpt lat="21.74844733516843" lon="-102.41592974358048"><ele>1863.0</ele><time>2026-03-22T14:54:52Z</time></trkpt><trkpt lat="21.748554615587025" lon="-102.41596607772165"><ele>1863.0</ele><time>2026-03-22T14:54:54Z</time></trkpt><trkpt lat="21.748659074342207" lon="-102.41599672731253"><ele>1863.6000000000001</ele><time>2026-03-22T14:54:56Z</time></trkpt><trkpt lat="21.748764991483775" lon="-102.41602404144164"><ele>1864.2000000000003</ele><time>2026-03-22T14:54:58Z</time></trkpt><trkpt lat="21.74887630756071" lon="-102.4160383710388"><ele>1864.8</ele><time>2026-03-22T14:55:00Z</time></trkpt><trkpt lat="21.748982682257356" lon="-102.41604970780358"><ele>1865.4</ele><time>2026-03-22T14:55:02Z</time></trkpt><trkpt lat="21.7490916126564" lon="-102.41606264987352"><ele>1866.0</ele><time>2026-03-22T14:55:04Z</time></trkpt><trkpt lat="21.74920629562576" lon="-102.41607127533864"><ele>1866.0</ele><time>2026-03-22T14:55:06Z</time></trkpt><trkpt lat="21.74931283396609" lon="-102.41608066108269"><ele>1866.0</ele><time>2026-03-22T14:55:08Z</time></trkpt><trkpt lat="21.74941830720542" lon="-102.41608306032111"><ele>1866.0</ele><time>2026-03-22T14:55:10Z</time></trkpt><trkpt lat="21.749494518994645" lon="-102.41609237972568"><ele>1866.0</ele><time>2026-03-22T14:55:13Z</time></trkpt><trkpt lat="21.74959260234133" lon="-102.4160899171899"><ele>1866.0</ele><time>2026-03-22T14:55:15Z</time></trkpt><trkpt lat="21.749673877541113" lon="-102.4160759332807"><ele>1866.8</ele><time>2026-03-22T14:55:16Z</time></trkpt><trkpt lat="21.74973773344199" lon="-102.41606495784931"><ele>1867.6</ele><time>2026-03-22T14:55:17Z</time></trkpt><trkpt lat="21.74980298504567" lon="-102.41604943763679"><ele>1868.4</ele><time>2026-03-22T14:55:18Z</time></trkpt><trkpt lat="21.749916891525316" lon="-102.41605138302711"><ele>1869.2</ele><time>2026-03-22T14:55:20Z</time></trkpt><trkpt lat="21.75002056873168" lon="-102.41602918660934"><ele>1870.0</ele><time>2026-03-22T14:55:22Z</time></trkpt><trkpt lat="21.75013018644426" lon="-102.41602533256807"><ele>1870.4</ele><time>2026-03-22T14:55:24Z</time></trkpt><trkpt lat="21.750234657675865" lon="-102.41601962509431"><ele>1870.8</ele><time>2026-03-22T14:55:26Z</time></trkpt><trkpt lat="21.75032661716282" lon="-102.41601599300272"><ele>1871.1999999999998</ele><time>2026-03-22T14:55:30Z</time></trkpt><trkpt lat="21.750397934776217" lon="-102.41600022772846"><ele>1871.6</ele><time>2026-03-22T14:55:32Z</time></trkpt><trkpt lat="21.750555788115868" lon="-102.41601566872528"><ele>1872.0</ele><time>2026-03-22T14:55:33Z</time></trkpt><trkpt lat="21.75064930819648" lon="-102.41600636930498"><ele>1872.0</ele><time>2026-03-22T14:55:35Z</time></trkpt><trkpt lat="21.750743185513073" lon="-102.41599035986481"><ele>1871.9999999999998</ele><time>2026-03-22T14:55:37Z</time></trkpt><trkpt lat="21.75083513751513" lon="-102.41598009063263"><ele>1871.9999999999998</ele><time>2026-03-22T14:55:39Z</time></trkpt><trkpt lat="21.750928319679712" lon="-102.41596208576377"><ele>1872.0</ele><time>2026-03-22T14:55:41Z</time></trkpt><trkpt lat="21.751018731432005" lon="-102.4159520349225"><ele>1872.0</ele><time>2026-03-22T14:55:43Z</time></trkpt><trkpt lat="21.75111098563081" lon="-102.4159439585076"><ele>1872.3333333333333</ele><time>2026-03-22T14:55:45Z</time></trkpt><trkpt lat="21.75119824401992" lon="-102.41592902019377"><ele>1872.6666666666665</ele><time>2026-03-22T14:55:47Z</time></trkpt><trkpt lat="21.751290938141878" lon="-102.41592150061663"><ele>1873.0</ele><time>2026-03-22T14:55:49Z</time></trkpt><trkpt lat="21.751414280915274" lon="-102.41588259711403"><ele>1873.3333333333333</ele><time>2026-03-22T14:55:51Z</time></trkpt><trkpt lat="21.75147455784942" lon="-102.41585913584004"><ele>1873.6666666666665</ele><time>2026-03-22T14:55:54Z</time></trkpt><trkpt lat="21.7515448423228" lon="-102.41585093821536"><ele>1874.0</ele><time>2026-03-22T14:55:56Z</time></trkpt><trkpt lat="21.751611346042136" lon="-102.41583680277444"><ele>1874.0</ele><time>2026-03-22T14:55:58Z</time></trkpt><trkpt lat="21.75171044152259" lon="-102.41582593224996"><ele>1874.0</ele><time>2026-03-22T14:56:01Z</time></trkpt><trkpt lat="21.751820347254913" lon="-102.41580799310688"><ele>1874.0</ele><time>2026-03-22T14:56:04Z</time></trkpt><trkpt lat="21.751928009599766" lon="-102.41578996887256"><ele>1874.0</ele><time>2026-03-22T14:56:07Z</time></trkpt><trkpt lat="21.75202041678582" lon="-102.41578226141147"><ele>1874.0</ele><time>2026-03-22T14:56:09Z</time></trkpt><trkpt lat="21.752092829969808" lon="-102.41578238329853"><ele>1873.8000000000002</ele><time>2026-03-22T14:56:11Z</time></trkpt><trkpt lat="21.752183499580575" lon="-102.41576839855792"><ele>1873.6000000000001</ele><time>2026-03-22T14:56:13Z</time></trkpt><trkpt lat="21.75228179626282" lon="-102.41576912574351"><ele>1873.4</ele><time>2026-03-22T14:56:16Z</time></trkpt><trkpt lat="21.7523544255903" lon="-102.41577601865576"><ele>1873.2</ele><time>2026-03-22T14:56:18Z</time></trkpt><trkpt lat="21.752435513059066" lon="-102.41579276654656"><ele>1873.0</ele><time>2026-03-22T14:56:21Z</time></trkpt><trkpt lat="21.752567784263555" lon="-102.41579189422714"><ele>1873.0</ele><time>2026-03-22T14:56:23Z</time></trkpt><trkpt lat="21.75270395013966" lon="-102.41577007036348"><ele>1873.0000000000002</ele><time>2026-03-22T14:56:25Z</time></trkpt><trkpt lat="21.752793217544557" lon="-102.41577541503764"><ele>1873.0000000000002</ele><time>2026-03-22T14:56:26Z</time></trkpt><trkpt lat="21.75286613842416" lon="-102.41578020843957"><ele>1873.0</ele><time>2026-03-22T14:56:27Z</time></trkpt><trkpt lat="21.752938714595594" lon="-102.41580460295468"><ele>1873.0</ele><time>2026-03-22T14:56:28Z</time></trkpt><trkpt lat="21.75306720751487" lon="-102.41580345492672"><ele>1873.5</ele><time>2026-03-22T14:56:30Z</time></trkpt><trkpt lat="21.75318428970995" lon="-102.41582109540789"><ele>1874.0</ele><time>2026-03-22T14:56:32Z</time></trkpt><trkpt lat="21.753296535856744" lon="-102.41584703120259"><ele>1874.5</ele><time>2026-03-22T14:56:34Z</time></trkpt><trkpt lat="21.75341032849857" lon="-102.41585757421264"><ele>1875.0</ele><time>2026-03-22T14:56:36Z</time></trkpt><trkpt lat="21.75351675942044" lon="-102.41586871920384"><ele>1875.6</ele><time>2026-03-22T14:56:38Z</time></trkpt><trkpt lat="21.753624861713632" lon="-102.41588440865951"><ele>1876.2</ele><time>2026-03-22T14:56:40Z</time></trkpt><trkpt lat="21.75372986051909" lon="-102.41589733750016"><ele>1876.8000000000002</ele><time>2026-03-22T14:56:42Z</time></trkpt><trkpt lat="21.753834808889955" lon="-102.41590752585269"><ele>1877.4</ele><time>2026-03-22T14:56:44Z</time></trkpt><trkpt lat="21.753939858369165" lon="-102.41592905103178"><ele>1878.0</ele><time>2026-03-22T14:56:46Z</time></trkpt><trkpt lat="21.75405049261884" lon="-102.41593793208956"><ele>1878.0</ele><time>2026-03-22T14:56:48Z</time></trkpt><trkpt lat="21.754157581983055" lon="-102.41595737489364"><ele>1878.0000000000002</ele><time>2026-03-22T14:56:50Z</time></trkpt><trkpt lat="21.75426457145502" lon="-102.41596324864231"><ele>1878.0000000000002</ele><time>2026-03-22T14:56:52Z</time></trkpt><trkpt lat="21.75437904196205" lon="-102.41597712923921"><ele>1878.0</ele><time>2026-03-22T14:56:54Z</time></trkpt><trkpt lat="21.75448260016076" lon="-102.41600078753227"><ele>1878.0</ele><time>2026-03-22T14:56:56Z</time></trkpt><trkpt lat="21.75458952967266" lon="-102.4160216689526"><ele>1878.0</ele><time>2026-03-22T14:56:58Z</time></trkpt><trkpt lat="21.754697720523392" lon="-102.41602879636339"><ele>1878.0000000000002</ele><time>2026-03-22T14:57:00Z</time></trkpt><trkpt lat="21.754810676158048" lon="-102.41604955766103"><ele>1878.0000000000002</ele><time>2026-03-22T14:57:02Z</time></trkpt><trkpt lat="21.75491952480818" lon="-102.41606113113119"><ele>1878.0</ele><time>2026-03-22T14:57:04Z</time></trkpt><trkpt lat="21.755033495419095" lon="-102.41607236654568"><ele>1878.0</ele><time>2026-03-22T14:57:06Z</time></trkpt><trkpt lat="21.75514143267574" lon="-102.41609656791351"><ele>1878.4</ele><time>2026-03-22T14:57:08Z</time></trkpt><trkpt lat="21.755252701924444" lon="-102.4161083785497"><ele>1878.8000000000002</ele><time>2026-03-22T14:57:10Z</time></trkpt><trkpt lat="21.75535282464914" lon="-102.41612160900061"><ele>1879.2</ele><time>2026-03-22T14:57:12Z</time></trkpt><trkpt lat="21.755459023618137" lon="-102.41613275431972"><ele>1879.6</ele><time>2026-03-22T14:57:14Z</time></trkpt><trkpt lat="21.75556332027807" lon="-102.4161568984738"><ele>1880.0</ele><time>2026-03-22T14:57:16Z</time></trkpt><trkpt lat="21.755666874254317" lon="-102.41616964995991"><ele>1880.0</ele><time>2026-03-22T14:57:18Z</time></trkpt><trkpt lat="21.755784917447777" lon="-102.41618850190578"><ele>1880.0</ele><time>2026-03-22T14:57:20Z</time></trkpt><trkpt lat="21.755894664802007" lon="-102.41620636053544"><ele>1880.0</ele><time>2026-03-22T14:57:22Z</time></trkpt><trkpt lat="21.755966707679494" lon="-102.41622817848166"><ele>1880.0</ele><time>2026-03-22T14:57:23Z</time></trkpt><trkpt lat="21.75607123912178" lon="-102.416230513857"><ele>1880.0</ele><time>2026-03-22T14:57:25Z</time></trkpt><trkpt lat="21.756186032411147" lon="-102.41624878440493"><ele>1880.0</ele><time>2026-03-22T14:57:27Z</time></trkpt><trkpt lat="21.756310083052657" lon="-102.41625606715705"><ele>1880.0</ele><time>2026-03-22T14:57:29Z</time></trkpt><trkpt lat="21.756425807751963" lon="-102.41628275252607"><ele>1880.0</ele><time>2026-03-22T14:57:31Z</time></trkpt><trkpt lat="21.756545405794366" lon="-102.41629867161785"><ele>1880.0</ele><time>2026-03-22T14:57:33Z</time></trkpt><trkpt lat="21.75666277163655" lon="-102.41632263324483"><ele>1880.75</ele><time>2026-03-22T14:57:35Z</time></trkpt><trkpt lat="21.756786022727173" lon="-102.41633424372552"><ele>1881.5</ele><time>2026-03-22T14:57:37Z</time></trkpt><trkpt lat="21.756903412160558" lon="-102.41635266519222"><ele>1882.25</ele><time>2026-03-22T14:57:39Z</time></trkpt><trkpt lat="21.757017246799716" lon="-102.41637121265869"><ele>1883.0</ele><time>2026-03-22T14:57:41Z</time></trkpt><trkpt lat="21.757136230596718" lon="-102.41639009636539"><ele>1883.25</ele><time>2026-03-22T14:57:43Z</time></trkpt><trkpt lat="21.757250603788954" lon="-102.41640160387115"><ele>1883.5</ele><time>2026-03-22T14:57:45Z</time></trkpt><trkpt lat="21.75736790830825" lon="-102.41642370679253"><ele>1883.75</ele><time>2026-03-22T14:57:47Z</time></trkpt><trkpt lat="21.757482246013502" lon="-102.41644120373822"><ele>1884.0</ele><time>2026-03-22T14:57:49Z</time></trkpt><trkpt lat="21.757598463847007" lon="-102.41644673234083"><ele>1884.5</ele><time>2026-03-22T14:57:51Z</time></trkpt><trkpt lat="21.757713251862835" lon="-102.41646109947702"><ele>1885.0</ele><time>2026-03-22T14:57:53Z</time></trkpt><trkpt lat="21.7578227818536" lon="-102.4164818087159"><ele>1885.5</ele><time>2026-03-22T14:57:55Z</time></trkpt><trkpt lat="21.75793521410671" lon="-102.41649217671517"><ele>1886.0</ele><time>2026-03-22T14:57:57Z</time></trkpt><trkpt lat="21.758050897727397" lon="-102.4165060470026"><ele>1886.0</ele><time>2026-03-22T14:57:59Z</time></trkpt><trkpt lat="21.75815465023104" lon="-102.4165280101954"><ele>1886.0</ele><time>2026-03-22T14:58:01Z</time></trkpt><trkpt lat="21.758260125220744" lon="-102.41654916523048"><ele>1886.0</ele><time>2026-03-22T14:58:03Z</time></trkpt><trkpt lat="21.758368529611253" lon="-102.41656758834904"><ele>1886.0</ele><time>2026-03-22T14:58:05Z</time></trkpt><trkpt lat="21.758478090260237" lon="-102.41658240336812"><ele>1886.0</ele><time>2026-03-22T14:58:07Z</time></trkpt><trkpt lat="21.758581918022752" lon="-102.41660304227455"><ele>1886.1999999999998</ele><time>2026-03-22T14:58:09Z</time></trkpt><trkpt lat="21.75867890444161" lon="-102.41662011771518"><ele>1886.3999999999999</ele><time>2026-03-22T14:58:11Z</time></trkpt><trkpt lat="21.758781443441098" lon="-102.41665855209122"><ele>1886.6</ele><time>2026-03-22T14:58:13Z</time></trkpt><trkpt lat="21.75888800143929" lon="-102.41668846588092"><ele>1886.8</ele><time>2026-03-22T14:58:15Z</time></trkpt><trkpt lat="21.758990685367976" lon="-102.41672614956576"><ele>1887.0</ele><time>2026-03-22T14:58:17Z</time></trkpt><trkpt lat="21.759095848709716" lon="-102.41676693064366"><ele>1887.0</ele><time>2026-03-22T14:58:19Z</time></trkpt><trkpt lat="21.759200868840445" lon="-102.41681704911429"><ele>1887.0</ele><time>2026-03-22T14:58:21Z</time></trkpt><trkpt lat="21.759309066390948" lon="-102.4168704066882"><ele>1887.0</ele><time>2026-03-22T14:58:23Z</time></trkpt><trkpt lat="21.75941819540071" lon="-102.41692895334451"><ele>1887.0</ele><time>2026-03-22T14:58:25Z</time></trkpt><trkpt lat="21.759522345175792" lon="-102.41699153958362"><ele>1887.3333333333333</ele><time>2026-03-22T14:58:27Z</time></trkpt><trkpt lat="21.75962158553162" lon="-102.4170600136764"><ele>1887.6666666666665</ele><time>2026-03-22T14:58:29Z</time></trkpt><trkpt lat="21.75972593079478" lon="-102.41713495841833"><ele>1888.0</ele><time>2026-03-22T14:58:31Z</time></trkpt><trkpt lat="21.759781053742078" lon="-102.41717333317388"><ele>1888.3333333333333</ele><time>2026-03-22T14:58:32Z</time></trkpt><trkpt lat="21.759835240025563" lon="-102.41721351710102"><ele>1888.6666666666665</ele><time>2026-03-22T14:58:33Z</time></trkpt><trkpt lat="21.759888641384574" lon="-102.41725225685775"><ele>1889.0</ele><time>2026-03-22T14:58:34Z</time></trkpt><trkpt lat="21.759943176364406" lon="-102.4172886635217"><ele>1888.9999999999998</ele><time>2026-03-22T14:58:35Z</time></trkpt><trkpt lat="21.760002590419695" lon="-102.41732403240773"><ele>1889.0</ele><time>2026-03-22T14:58:36Z</time></trkpt><trkpt lat="21.760053830861295" lon="-102.41736401755801"><ele>1888.9999999999998</ele><time>2026-03-22T14:58:37Z</time></trkpt><trkpt lat="21.760110559436974" lon="-102.4173997308292"><ele>1888.9999999999998</ele><time>2026-03-22T14:58:38Z</time></trkpt><trkpt lat="21.760162591290396" lon="-102.41744107537535"><ele>1889.0</ele><time>2026-03-22T14:58:39Z</time></trkpt><trkpt lat="21.76021676108144" lon="-102.41747960113995"><ele>1888.9999999999998</ele><time>2026-03-22T14:58:40Z</time></trkpt><trkpt lat="21.760267177990137" lon="-102.41752158718504"><ele>1888.9999999999998</ele><time>2026-03-22T14:58:41Z</time></trkpt><trkpt lat="21.760320611198264" lon="-102.41756139381216"><ele>1889.0</ele><time>2026-03-22T14:58:42Z</time></trkpt><trkpt lat="21.760370574695102" lon="-102.41760291684626"><ele>1889.0</ele><time>2026-03-22T14:58:43Z</time></trkpt><trkpt lat="21.760461324847423" lon="-102.4176830102085"><ele>1889.0</ele><time>2026-03-22T14:58:45Z</time></trkpt><trkpt lat="21.760551812522426" lon="-102.4177728481996"><ele>1889.0</ele><time>2026-03-22T14:58:47Z</time></trkpt><trkpt lat="21.760639934864784" lon="-102.41786206321954"><ele>1889.0</ele><time>2026-03-22T14:58:49Z</time></trkpt><trkpt lat="21.76072935826565" lon="-102.41794773682568"><ele>1889.0</ele><time>2026-03-22T14:58:51Z</time></trkpt><trkpt lat="21.760804734974634" lon="-102.41804446653522"><ele>1889.0</ele><time>2026-03-22T14:58:53Z</time></trkpt><trkpt lat="21.760880842761065" lon="-102.41813349634796"><ele>1889.0</ele><time>2026-03-22T14:58:55Z</time></trkpt><trkpt lat="21.76094425615648" lon="-102.41823533603335"><ele>1889.0</ele><time>2026-03-22T14:58:57Z</time></trkpt><trkpt lat="21.761005075295728" lon="-102.4183361124895"><ele>1889.25</ele><time>2026-03-22T14:58:59Z</time></trkpt><trkpt lat="21.761075418723458" lon="-102.4184397414573"><ele>1889.5</ele><time>2026-03-22T14:59:01Z</time></trkpt><trkpt lat="21.76114032062312" lon="-102.41854484876977"><ele>1889.75</ele><time>2026-03-22T14:59:03Z</time></trkpt><trkpt lat="21.76120886330619" lon="-102.41864695117106"><ele>1890.0</ele><time>2026-03-22T14:59:05Z</time></trkpt><trkpt lat="21.76127168219083" lon="-102.4187501776242"><ele>1890.5</ele><time>2026-03-22T14:59:07Z</time></trkpt><trkpt lat="21.76134027892747" lon="-102.41885128860326"><ele>1891.0</ele><time>2026-03-22T14:59:09Z</time></trkpt><trkpt lat="21.761403383991848" lon="-102.41895663699826"><ele>1891.5</ele><time>2026-03-22T14:59:11Z</time></trkpt><trkpt lat="21.761471343777494" lon="-102.41905926001571"><ele>1892.0</ele><time>2026-03-22T14:59:13Z</time></trkpt><trkpt lat="21.761546375265965" lon="-102.41916193991098"><ele>1892.0</ele><time>2026-03-22T14:59:15Z</time></trkpt><trkpt lat="21.761615398914078" lon="-102.41925303906993"><ele>1892.0</ele><time>2026-03-22T14:59:17Z</time></trkpt><trkpt lat="21.76168896027009" lon="-102.41934277313227"><ele>1892.0</ele><time>2026-03-22T14:59:19Z</time></trkpt><trkpt lat="21.761766744604667" lon="-102.41943324697863"><ele>1892.0</ele><time>2026-03-22T14:59:21Z</time></trkpt><trkpt lat="21.761851952199734" lon="-102.41951929437666"><ele>1892.25</ele><time>2026-03-22T14:59:23Z</time></trkpt><trkpt lat="21.76194441994841" lon="-102.4195990615828"><ele>1892.5</ele><time>2026-03-22T14:59:25Z</time></trkpt><trkpt lat="21.76203599868316" lon="-102.41968243948723"><ele>1892.75</ele><time>2026-03-22T14:59:27Z</time></trkpt><trkpt lat="21.76213280428074" lon="-102.41975887381695"><ele>1893.0</ele><time>2026-03-22T14:59:29Z</time></trkpt><trkpt lat="21.762232971142037" lon="-102.41983669519139"><ele>1893.0</ele><time>2026-03-22T14:59:31Z</time></trkpt><trkpt lat="21.762328561375565" lon="-102.41991209811833"><ele>1893.0000000000002</ele><time>2026-03-22T14:59:33Z</time></trkpt><trkpt lat="21.762390406086276" lon="-102.41992954461286"><ele>1893.0000000000002</ele><time>2026-03-22T14:59:34Z</time></trkpt><trkpt lat="21.762500061793013" lon="-102.4199860581799"><ele>1893.0</ele><time>2026-03-22T14:59:36Z</time></trkpt><trkpt lat="21.762612888581668" lon="-102.42003991124443"><ele>1893.0</ele><time>2026-03-22T14:59:38Z</time></trkpt><trkpt lat="21.762671202554678" lon="-102.42006747388969"><ele>1893.5</ele><time>2026-03-22T14:59:39Z</time></trkpt><trkpt lat="21.762722528023485" lon="-102.42010700235684"><ele>1894.0</ele><time>2026-03-22T14:59:40Z</time></trkpt><trkpt lat="21.762785227478055" lon="-102.42012737137061"><ele>1894.5</ele><time>2026-03-22T14:59:41Z</time></trkpt><trkpt lat="21.762845737457454" lon="-102.42015152371013"><ele>1895.0</ele><time>2026-03-22T14:59:42Z</time></trkpt><trkpt lat="21.76295829723046" lon="-102.42018875946215"><ele>1895.5</ele><time>2026-03-22T14:59:44Z</time></trkpt><trkpt lat="21.7630669656016" lon="-102.42022053645574"><ele>1896.0</ele><time>2026-03-22T14:59:46Z</time></trkpt><trkpt lat="21.76317366706859" lon="-102.42024249545406"><ele>1896.0</ele><time>2026-03-22T14:59:48Z</time></trkpt><trkpt lat="21.76328186601584" lon="-102.42026864021588"><ele>1896.0</ele><time>2026-03-22T14:59:50Z</time></trkpt><trkpt lat="21.763395899364085" lon="-102.42028219408381"><ele>1896.0</ele><time>2026-03-22T14:59:52Z</time></trkpt><trkpt lat="21.763505186017056" lon="-102.42027834890435"><ele>1896.0</ele><time>2026-03-22T14:59:54Z</time></trkpt><trkpt lat="21.76361260613015" lon="-102.42029751511306"><ele>1896.0</ele><time>2026-03-22T14:59:56Z</time></trkpt><trkpt lat="21.763722188306012" lon="-102.42029673482295"><ele>1895.6</ele><time>2026-03-22T14:59:58Z</time></trkpt><trkpt lat="21.763832440581076" lon="-102.42029995924206"><ele>1895.1999999999998</ele><time>2026-03-22T15:00:00Z</time></trkpt><trkpt lat="21.763944495336958" lon="-102.42029218062646"><ele>1894.8000000000002</ele><time>2026-03-22T15:00:02Z</time></trkpt><trkpt lat="21.764051682774184" lon="-102.4202690747413"><ele>1894.4</ele><time>2026-03-22T15:00:04Z</time></trkpt><trkpt lat="21.764168746028233" lon="-102.42026054257393"><ele>1894.0</ele><time>2026-03-22T15:00:06Z</time></trkpt><trkpt lat="21.764281099143375" lon="-102.42025164536743"><ele>1894.25</ele><time>2026-03-22T15:00:08Z</time></trkpt><trkpt lat="21.764395007395915" lon="-102.42024254606915"><ele>1894.5</ele><time>2026-03-22T15:00:10Z</time></trkpt><trkpt lat="21.764513805543544" lon="-102.42023919231517"><ele>1894.75</ele><time>2026-03-22T15:00:12Z</time></trkpt><trkpt lat="21.76463797207332" lon="-102.4202307654391"><ele>1895.0</ele><time>2026-03-22T15:00:14Z</time></trkpt><trkpt lat="21.764760664355634" lon="-102.4202203530328"><ele>1895.0</ele><time>2026-03-22T15:00:16Z</time></trkpt><trkpt lat="21.7648819903303" lon="-102.42021479558211"><ele>1895.0</ele><time>2026-03-22T15:00:18Z</time></trkpt><trkpt lat="21.765005125835206" lon="-102.42019500042505"><ele>1895.0</ele><time>2026-03-22T15:00:20Z</time></trkpt><trkpt lat="21.765128997763412" lon="-102.42018552024909"><ele>1895.0</ele><time>2026-03-22T15:00:22Z</time></trkpt><trkpt lat="21.765252181491963" lon="-102.42017557868361"><ele>1895.3333333333333</ele><time>2026-03-22T15:00:24Z</time></trkpt><trkpt lat="21.765375022619313" lon="-102.42016338685417"><ele>1895.6666666666665</ele><time>2026-03-22T15:00:26Z</time></trkpt><trkpt lat="21.765501356023695" lon="-102.42015148034899"><ele>1896.0</ele><time>2026-03-22T15:00:28Z</time></trkpt><trkpt lat="21.76556444077216" lon="-102.42014570792725"><ele>1896.3333333333335</ele><time>2026-03-22T15:00:29Z</time></trkpt><trkpt lat="21.765630258976255" lon="-102.4201380390368"><ele>1896.6666666666667</ele><time>2026-03-22T15:00:30Z</time></trkpt><trkpt lat="21.76569492113918" lon="-102.42012978253581"><ele>1897.0</ele><time>2026-03-22T15:00:31Z</time></trkpt><trkpt lat="21.765818938790975" lon="-102.42012162747899"><ele>1897.0000000000002</ele><time>2026-03-22T15:00:33Z</time></trkpt><trkpt lat="21.765882292872174" lon="-102.42011842413889"><ele>1897.0</ele><time>2026-03-22T15:00:34Z</time></trkpt><trkpt lat="21.766007774787614" lon="-102.42011221354163"><ele>1897.0</ele><time>2026-03-22T15:00:36Z</time></trkpt><trkpt lat="21.76607197955458" lon="-102.42010764124556"><ele>1897.0</ele><time>2026-03-22T15:00:37Z</time></trkpt><trkpt lat="21.766136957335004" lon="-102.42010568906521"><ele>1897.0000000000002</ele><time>2026-03-22T15:00:38Z</time></trkpt><trkpt lat="21.766260003775834" lon="-102.42009927620576"><ele>1897.0</ele><time>2026-03-22T15:00:40Z</time></trkpt><trkpt lat="21.76638264618061" lon="-102.4201026070225"><ele>1897.3999999999999</ele><time>2026-03-22T15:00:42Z</time></trkpt><trkpt lat="21.76644533604426" lon="-102.42011332206052"><ele>1897.7999999999997</ele><time>2026-03-22T15:00:43Z</time></trkpt><trkpt lat="21.76657270918033" lon="-102.42013064561482"><ele>1898.2</ele><time>2026-03-22T15:00:45Z</time></trkpt><trkpt lat="21.766636012509924" lon="-102.42013956222243"><ele>1898.6</ele><time>2026-03-22T15:00:46Z</time></trkpt><trkpt lat="21.76675710650803" lon="-102.42016862180962"><ele>1899.0</ele><time>2026-03-22T15:00:48Z</time></trkpt><trkpt lat="21.766865331808503" lon="-102.4202038403202"><ele>1899.75</ele><time>2026-03-22T15:00:50Z</time></trkpt><trkpt lat="21.766964752304386" lon="-102.42023910142022"><ele>1900.5</ele><time>2026-03-22T15:00:52Z</time></trkpt><trkpt lat="21.767073784194757" lon="-102.420273718159"><ele>1901.25</ele><time>2026-03-22T15:00:54Z</time></trkpt><trkpt lat="21.767181033675538" lon="-102.42032422927372"><ele>1902.0</ele><time>2026-03-22T15:00:56Z</time></trkpt><trkpt lat="21.76730115702631" lon="-102.42036879211682"><ele>1902.0</ele><time>2026-03-22T15:00:58Z</time></trkpt><trkpt lat="21.767362837590415" lon="-102.42039302550549"><ele>1902.0</ele><time>2026-03-22T15:00:59Z</time></trkpt><trkpt lat="21.767423382930982" lon="-102.42041901682005"><ele>1902.0</ele><time>2026-03-22T15:01:00Z</time></trkpt><trkpt lat="21.76748583392978" lon="-102.42043851759692"><ele>1902.0</ele><time>2026-03-22T15:01:01Z</time></trkpt><trkpt lat="21.767550643289315" lon="-102.42046107620791"><ele>1902.0</ele><time>2026-03-22T15:01:02Z</time></trkpt><trkpt lat="21.767613286632507" lon="-102.42048267373603"><ele>1902.0</ele><time>2026-03-22T15:01:03Z</time></trkpt><trkpt lat="21.76767801057002" lon="-102.42050582231312"><ele>1902.0</ele><time>2026-03-22T15:01:04Z</time></trkpt><trkpt lat="21.767739448329614" lon="-102.42052918318129"><ele>1901.7142857142858</ele><time>2026-03-22T15:01:05Z</time></trkpt><trkpt lat="21.76780601885855" lon="-102.4205503240129"><ele>1901.4285714285716</ele><time>2026-03-22T15:01:06Z</time></trkpt><trkpt lat="21.767869951501662" lon="-102.42056907438194"><ele>1901.1428571428573</ele><time>2026-03-22T15:01:07Z</time></trkpt><trkpt lat="21.7679354071699" lon="-102.42058467668501"><ele>1900.857142857143</ele><time>2026-03-22T15:01:08Z</time></trkpt><trkpt lat="21.76799821630623" lon="-102.42059868486474"><ele>1900.571428571429</ele><time>2026-03-22T15:01:09Z</time></trkpt><trkpt lat="21.76806332898593" lon="-102.42060541054053"><ele>1900.2857142857144</ele><time>2026-03-22T15:01:10Z</time></trkpt><trkpt lat="21.768125436317398" lon="-102.42061725713675"><ele>1900.0</ele><time>2026-03-22T15:01:11Z</time></trkpt><trkpt lat="21.768188908622314" lon="-102.42062970832599"><ele>1900.0000000000002</ele><time>2026-03-22T15:01:12Z</time></trkpt><trkpt lat="21.768316259641683" lon="-102.42064928950319"><ele>1900.0</ele><time>2026-03-22T15:01:14Z</time></trkpt><trkpt lat="21.76837920428748" lon="-102.4206527643537"><ele>1900.0</ele><time>2026-03-22T15:01:15Z</time></trkpt><trkpt lat="21.768443761389985" lon="-102.42065517883279"><ele>1900.0</ele><time>2026-03-22T15:01:16Z</time></trkpt><trkpt lat="21.768509539563485" lon="-102.42065424620817"><ele>1900.0000000000002</ele><time>2026-03-22T15:01:17Z</time></trkpt><trkpt lat="21.76857257526048" lon="-102.42065216510416"><ele>1900.0</ele><time>2026-03-22T15:01:18Z</time></trkpt><trkpt lat="21.768637206002374" lon="-102.42064671721002"><ele>1900.0000000000002</ele><time>2026-03-22T15:01:19Z</time></trkpt><trkpt lat="21.768701863577377" lon="-102.42063838833782"><ele>1900.0</ele><time>2026-03-22T15:01:20Z</time></trkpt><trkpt lat="21.76876627886116" lon="-102.4206277083302"><ele>1900.0</ele><time>2026-03-22T15:01:21Z</time></trkpt><trkpt lat="21.768832844168596" lon="-102.42061518429738"><ele>1900.0</ele><time>2026-03-22T15:01:22Z</time></trkpt><trkpt lat="21.768956100046182" lon="-102.42058827520687"><ele>1900.0000000000002</ele><time>2026-03-22T15:01:24Z</time></trkpt><trkpt lat="21.769076122927956" lon="-102.4205662482943"><ele>1900.0</ele><time>2026-03-22T15:01:26Z</time></trkpt><trkpt lat="21.76919659752292" lon="-102.42053643898453"><ele>1900.0</ele><time>2026-03-22T15:01:28Z</time></trkpt><trkpt lat="21.76926029572301" lon="-102.42052093751518"><ele>1900.0</ele><time>2026-03-22T15:01:29Z</time></trkpt><trkpt lat="21.769378873374816" lon="-102.42048352571167"><ele>1900.0</ele><time>2026-03-22T15:01:31Z</time></trkpt><trkpt lat="21.769496274418213" lon="-102.4204384919569"><ele>1900.0</ele><time>2026-03-22T15:01:33Z</time></trkpt><trkpt lat="21.76960981291762" lon="-102.4203849405524"><ele>1900.0</ele><time>2026-03-22T15:01:35Z</time></trkpt><trkpt lat="21.769670299735594" lon="-102.42035717055884"><ele>1900.4</ele><time>2026-03-22T15:01:36Z</time></trkpt><trkpt lat="21.76978172799145" lon="-102.42029694977744"><ele>1900.8</ele><time>2026-03-22T15:01:38Z</time></trkpt><trkpt lat="21.769890204339433" lon="-102.42022959066891"><ele>1901.1999999999998</ele><time>2026-03-22T15:01:40Z</time></trkpt><trkpt lat="21.769946767779327" lon="-102.42019530724407"><ele>1901.6</ele><time>2026-03-22T15:01:41Z</time></trkpt><trkpt lat="21.770002331490502" lon="-102.42016240318863"><ele>1902.0</ele><time>2026-03-22T15:01:42Z</time></trkpt><trkpt lat="21.770112882798248" lon="-102.42009915257005"><ele>1902.0</ele><time>2026-03-22T15:01:44Z</time></trkpt><trkpt lat="21.770167776284687" lon="-102.42006393370458"><ele>1902.0</ele><time>2026-03-22T15:01:45Z</time></trkpt><trkpt lat="21.770222568979932" lon="-102.42003047182737"><ele>1902.0</ele><time>2026-03-22T15:01:46Z</time></trkpt><trkpt lat="21.770269126961757" lon="-102.41997987192428"><ele>1902.0</ele><time>2026-03-22T15:01:47Z</time></trkpt><trkpt lat="21.770373636089804" lon="-102.41991086512033"><ele>1902.0</ele><time>2026-03-22T15:01:49Z</time></trkpt><trkpt lat="21.770483509007775" lon="-102.41983900841659"><ele>1902.0</ele><time>2026-03-22T15:01:51Z</time></trkpt><trkpt lat="21.770591680157192" lon="-102.41977018841828"><ele>1902.0</ele><time>2026-03-22T15:01:53Z</time></trkpt><trkpt lat="21.77064814602006" lon="-102.41973517909844"><ele>1901.9999999999998</ele><time>2026-03-22T15:01:54Z</time></trkpt><trkpt lat="21.77070629058344" lon="-102.41969912897565"><ele>1901.9999999999998</ele><time>2026-03-22T15:01:55Z</time></trkpt><trkpt lat="21.77081594503763" lon="-102.41963139831394"><ele>1902.0</ele><time>2026-03-22T15:01:57Z</time></trkpt><trkpt lat="21.770923638145337" lon="-102.41956527359095"><ele>1902.0</ele><time>2026-03-22T15:01:59Z</time></trkpt><trkpt lat="21.77102371038886" lon="-102.41950382815403"><ele>1902.8</ele><time>2026-03-22T15:02:01Z</time></trkpt><trkpt lat="21.771111596542248" lon="-102.41944986510971"><ele>1903.6</ele><time>2026-03-22T15:02:03Z</time></trkpt><trkpt lat="21.77119995138898" lon="-102.41939561428204"><ele>1904.3999999999999</ele><time>2026-03-22T15:02:05Z</time></trkpt><trkpt lat="21.77128770152484" lon="-102.4193417347603"><ele>1905.1999999999998</ele><time>2026-03-22T15:02:07Z</time></trkpt><trkpt lat="21.77137770581628" lon="-102.41928610560402"><ele>1906.0</ele><time>2026-03-22T15:02:09Z</time></trkpt><trkpt lat="21.771466859876387" lon="-102.41923019098698"><ele>1906.0</ele><time>2026-03-22T15:02:11Z</time></trkpt><trkpt lat="21.771553241025256" lon="-102.41917601496777"><ele>1906.0</ele><time>2026-03-22T15:02:13Z</time></trkpt><trkpt lat="21.771619525583958" lon="-102.4191488059366"><ele>1906.0</ele><time>2026-03-22T15:02:16Z</time></trkpt><trkpt lat="21.771716401876073" lon="-102.41907314700562"><ele>1906.0</ele><time>2026-03-22T15:02:17Z</time></trkpt><trkpt lat="21.771805459456154" lon="-102.41901744792233"><ele>1906.0</ele><time>2026-03-22T15:02:19Z</time></trkpt><trkpt lat="21.7719078315313" lon="-102.41896898398637"><ele>1906.0</ele><time>2026-03-22T15:02:21Z</time></trkpt><trkpt lat="21.771993114069506" lon="-102.41891173719867"><ele>1906.0</ele><time>2026-03-22T15:02:23Z</time></trkpt><trkpt lat="21.772077847509802" lon="-102.41885794902824"><ele>1906.0</ele><time>2026-03-22T15:02:25Z</time></trkpt><trkpt lat="21.772166030062774" lon="-102.41881317930054"><ele>1906.0</ele><time>2026-03-22T15:02:27Z</time></trkpt><trkpt lat="21.77225233747125" lon="-102.41875897554306"><ele>1906.0</ele><time>2026-03-22T15:02:29Z</time></trkpt><trkpt lat="21.772340185778877" lon="-102.41870166221335"><ele>1906.8</ele><time>2026-03-22T15:02:31Z</time></trkpt><trkpt lat="21.772440501637607" lon="-102.41864377026243"><ele>1907.6</ele><time>2026-03-22T15:02:33Z</time></trkpt><trkpt lat="21.772532317384332" lon="-102.41856725849216"><ele>1908.4</ele><time>2026-03-22T15:02:35Z</time></trkpt><trkpt lat="21.77262558403282" lon="-102.41850847902121"><ele>1909.2</ele><time>2026-03-22T15:02:37Z</time></trkpt><trkpt lat="21.772719805316825" lon="-102.41845000205683"><ele>1910.0</ele><time>2026-03-22T15:02:39Z</time></trkpt><trkpt lat="21.772808850466763" lon="-102.41839438772419"><ele>1910.2</ele><time>2026-03-22T15:02:41Z</time></trkpt><trkpt lat="21.7729021233217" lon="-102.41833656404069"><ele>1910.4</ele><time>2026-03-22T15:02:43Z</time></trkpt><trkpt lat="21.773000263333337" lon="-102.41829715561364"><ele>1910.6</ele><time>2026-03-22T15:02:45Z</time></trkpt><trkpt lat="21.773082891207178" lon="-102.41822849114068"><ele>1910.8</ele><time>2026-03-22T15:02:47Z</time></trkpt><trkpt lat="21.773177127080217" lon="-102.41819063693578"><ele>1911.0</ele><time>2026-03-22T15:02:49Z</time></trkpt><trkpt lat="21.773264015860416" lon="-102.41812858269999"><ele>1911.0</ele><time>2026-03-22T15:02:51Z</time></trkpt><trkpt lat="21.773362291416607" lon="-102.41807037083993"><ele>1911.0</ele><time>2026-03-22T15:02:53Z</time></trkpt><trkpt lat="21.77345758056169" lon="-102.41801779651976"><ele>1911.0</ele><time>2026-03-22T15:02:55Z</time></trkpt><trkpt lat="21.773548250199568" lon="-102.4179570753503"><ele>1911.0</ele><time>2026-03-22T15:02:57Z</time></trkpt><trkpt lat="21.77364621391794" lon="-102.41790267530281"><ele>1911.0</ele><time>2026-03-22T15:02:59Z</time></trkpt><trkpt lat="21.773743625357888" lon="-102.41784851542917"><ele>1911.6</ele><time>2026-03-22T15:03:01Z</time></trkpt><trkpt lat="21.77383356327367" lon="-102.41778275149349"><ele>1912.1999999999998</ele><time>2026-03-22T15:03:03Z</time></trkpt><trkpt lat="21.77392511284552" lon="-102.41772767681606"><ele>1912.8000000000002</ele><time>2026-03-22T15:03:05Z</time></trkpt><trkpt lat="21.774025250541772" lon="-102.41766743566934"><ele>1913.4</ele><time>2026-03-22T15:03:07Z</time></trkpt><trkpt lat="21.774127840210042" lon="-102.41760514926104"><ele>1914.0</ele><time>2026-03-22T15:03:09Z</time></trkpt><trkpt lat="21.77423188027232" lon="-102.41753900030284"><ele>1914.0</ele><time>2026-03-22T15:03:11Z</time></trkpt><trkpt lat="21.77433280485486" lon="-102.41746779987562"><ele>1914.0</ele><time>2026-03-22T15:03:13Z</time></trkpt><trkpt lat="21.774439773506636" lon="-102.41740315945523"><ele>1914.0</ele><time>2026-03-22T15:03:15Z</time></trkpt><trkpt lat="21.774523894322677" lon="-102.4173017685904"><ele>1914.0</ele><time>2026-03-22T15:03:17Z</time></trkpt><trkpt lat="21.774569576043618" lon="-102.41724957679025"><ele>1914.0</ele><time>2026-03-22T15:03:18Z</time></trkpt><trkpt lat="21.774615400252205" lon="-102.41719567168751"><ele>1914.0</ele><time>2026-03-22T15:03:19Z</time></trkpt><trkpt lat="21.77463245288056" lon="-102.41712825539902"><ele>1914.0</ele><time>2026-03-22T15:03:20Z</time></trkpt><trkpt lat="21.77465742079081" lon="-102.4170656883916"><ele>1914.0</ele><time>2026-03-22T15:03:21Z</time></trkpt><trkpt lat="21.774704892857567" lon="-102.41694236645212"><ele>1914.0</ele><time>2026-03-22T15:03:23Z</time></trkpt><trkpt lat="21.77472693820741" lon="-102.41687820648737"><ele>1914.0</ele><time>2026-03-22T15:03:24Z</time></trkpt><trkpt lat="21.774759155095005" lon="-102.41675306383425"><ele>1914.0</ele><time>2026-03-22T15:03:26Z</time></trkpt><trkpt lat="21.774790025539108" lon="-102.41663918806732"><ele>1914.0</ele><time>2026-03-22T15:03:28Z</time></trkpt><trkpt lat="21.774819724104784" lon="-102.41653407899155"><ele>1914.0</ele><time>2026-03-22T15:03:30Z</time></trkpt><trkpt lat="21.774848283227094" lon="-102.41643237394425"><ele>1914.0</ele><time>2026-03-22T15:03:32Z</time></trkpt><trkpt lat="21.774878425936954" lon="-102.41632430052135"><ele>1914.0</ele><time>2026-03-22T15:03:34Z</time></trkpt><trkpt lat="21.774909026960785" lon="-102.41622152373503"><ele>1914.0</ele><time>2026-03-22T15:03:36Z</time></trkpt><trkpt lat="21.774943518628028" lon="-102.41612809745679"><ele>1914.0</ele><time>2026-03-22T15:03:38Z</time></trkpt><trkpt lat="21.7749862899217" lon="-102.4160318731275"><ele>1914.0</ele><time>2026-03-22T15:03:40Z</time></trkpt><trkpt lat="21.775041724827048" lon="-102.41593492387669"><ele>1914.0</ele><time>2026-03-22T15:03:42Z</time></trkpt><trkpt lat="21.77510975189878" lon="-102.41583957857317"><ele>1914.0</ele><time>2026-03-22T15:03:44Z</time></trkpt><trkpt lat="21.77517432904093" lon="-102.41575001253979"><ele>1914.0</ele><time>2026-03-22T15:03:46Z</time></trkpt><trkpt lat="21.775238507205557" lon="-102.4157179869195"><ele>1914.4</ele><time>2026-03-22T15:03:47Z</time></trkpt><trkpt lat="21.775331563015527" lon="-102.41564857739773"><ele>1914.8000000000002</ele><time>2026-03-22T15:03:49Z</time></trkpt><trkpt lat="21.775424193134185" lon="-102.41558004382316"><ele>1915.1999999999998</ele><time>2026-03-22T15:03:51Z</time></trkpt><trkpt lat="21.775510815543562" lon="-102.41551731426082"><ele>1915.6</ele><time>2026-03-22T15:03:53Z</time></trkpt><trkpt lat="21.775604379985175" lon="-102.41544987158346"><ele>1916.0</ele><time>2026-03-22T15:03:55Z</time></trkpt><trkpt lat="21.77569610498407" lon="-102.41538375479738"><ele>1915.9999999999998</ele><time>2026-03-22T15:03:57Z</time></trkpt><trkpt lat="21.77578930702386" lon="-102.41531651891569"><ele>1916.0</ele><time>2026-03-22T15:03:59Z</time></trkpt><trkpt lat="21.775841803759803" lon="-102.41527848609869"><ele>1916.0</ele><time>2026-03-22T15:04:00Z</time></trkpt><trkpt lat="21.77594526687501" lon="-102.41520352917274"><ele>1916.0</ele><time>2026-03-22T15:04:02Z</time></trkpt><trkpt lat="21.775999214226125" lon="-102.41516363700723"><ele>1915.9999999999998</ele><time>2026-03-22T15:04:03Z</time></trkpt><trkpt lat="21.776051781147977" lon="-102.41512353208398"><ele>1916.0</ele><time>2026-03-22T15:04:04Z</time></trkpt><trkpt lat="21.776152853974608" lon="-102.41504526451874"><ele>1915.6</ele><time>2026-03-22T15:04:06Z</time></trkpt><trkpt lat="21.77625464332022" lon="-102.41496393249564"><ele>1915.1999999999998</ele><time>2026-03-22T15:04:08Z</time></trkpt><trkpt lat="21.776354208638573" lon="-102.41488444146951"><ele>1914.8000000000002</ele><time>2026-03-22T15:04:10Z</time></trkpt><trkpt lat="21.776406506991552" lon="-102.41484300143998"><ele>1914.4</ele><time>2026-03-22T15:04:11Z</time></trkpt><trkpt lat="21.77645779125015" lon="-102.41480252033064"><ele>1914.0</ele><time>2026-03-22T15:04:12Z</time></trkpt><trkpt lat="21.776567072721342" lon="-102.41473730609485"><ele>1914.5</ele><time>2026-03-22T15:04:14Z</time></trkpt><trkpt lat="21.776651513035567" lon="-102.41464985833348"><ele>1915.0</ele><time>2026-03-22T15:04:16Z</time></trkpt><trkpt lat="21.776739617706028" lon="-102.41458151565143"><ele>1915.5</ele><time>2026-03-22T15:04:18Z</time></trkpt><trkpt lat="21.77683290925991" lon="-102.41451012737672"><ele>1916.0</ele><time>2026-03-22T15:04:20Z</time></trkpt><trkpt lat="21.776932976915045" lon="-102.414435592892"><ele>1916.0</ele><time>2026-03-22T15:04:22Z</time></trkpt><trkpt lat="21.777035599443224" lon="-102.41435929460066"><ele>1916.0</ele><time>2026-03-22T15:04:24Z</time></trkpt><trkpt lat="21.777137076660544" lon="-102.41428198142728"><ele>1916.0</ele><time>2026-03-22T15:04:26Z</time></trkpt><trkpt lat="21.77723806555558" lon="-102.41420376582712"><ele>1916.0</ele><time>2026-03-22T15:04:28Z</time></trkpt><trkpt lat="21.77733842395971" lon="-102.41412407695762"><ele>1916.0</ele><time>2026-03-22T15:04:30Z</time></trkpt><trkpt lat="21.77738918623163" lon="-102.41408376954057"><ele>1916.0</ele><time>2026-03-22T15:04:31Z</time></trkpt><trkpt lat="21.77744158297331" lon="-102.4140421643022"><ele>1916.0</ele><time>2026-03-22T15:04:32Z</time></trkpt><trkpt lat="21.777495048750776" lon="-102.4140003105947"><ele>1916.0</ele><time>2026-03-22T15:04:33Z</time></trkpt><trkpt lat="21.777550652270197" lon="-102.41395767053561"><ele>1916.0</ele><time>2026-03-22T15:04:34Z</time></trkpt><trkpt lat="21.777605823544476" lon="-102.41391536187533"><ele>1916.0</ele><time>2026-03-22T15:04:35Z</time></trkpt><trkpt lat="21.777660112014907" lon="-102.41387373794285"><ele>1916.0</ele><time>2026-03-22T15:04:36Z</time></trkpt><trkpt lat="21.77771753491013" lon="-102.4138302258864"><ele>1916.6</ele><time>2026-03-22T15:04:37Z</time></trkpt><trkpt lat="21.777772900849232" lon="-102.41378902851419"><ele>1917.1999999999998</ele><time>2026-03-22T15:04:38Z</time></trkpt><trkpt lat="21.777824957134044" lon="-102.4137504827239"><ele>1917.8000000000002</ele><time>2026-03-22T15:04:39Z</time></trkpt><trkpt lat="21.777935963960918" lon="-102.41368991330906"><ele>1918.4</ele><time>2026-03-22T15:04:41Z</time></trkpt><trkpt lat="21.778023259788363" lon="-102.41360364672167"><ele>1919.0</ele><time>2026-03-22T15:04:43Z</time></trkpt><trkpt lat="21.77811835752698" lon="-102.41353323024423"><ele>1919.0</ele><time>2026-03-22T15:04:45Z</time></trkpt><trkpt lat="21.778216588904563" lon="-102.41346020617571"><ele>1919.0</ele><time>2026-03-22T15:04:47Z</time></trkpt><trkpt lat="21.778314005212493" lon="-102.41338801288227"><ele>1919.0</ele><time>2026-03-22T15:04:49Z</time></trkpt><trkpt lat="21.778417476738664" lon="-102.41331133216738"><ele>1919.0</ele><time>2026-03-22T15:04:51Z</time></trkpt><trkpt lat="21.77846994523701" lon="-102.41327244880867"><ele>1919.0</ele><time>2026-03-22T15:04:52Z</time></trkpt><trkpt lat="21.77857427677301" lon="-102.41319513078504"><ele>1918.6666666666665</ele><time>2026-03-22T15:04:54Z</time></trkpt><trkpt lat="21.778677295725675" lon="-102.413116897924"><ele>1918.3333333333333</ele><time>2026-03-22T15:04:56Z</time></trkpt><trkpt lat="21.77872938952699" lon="-102.41307672579745"><ele>1918.0</ele><time>2026-03-22T15:04:57Z</time></trkpt><trkpt lat="21.7787821592127" lon="-102.41303570996374"><ele>1917.6666666666665</ele><time>2026-03-22T15:04:58Z</time></trkpt><trkpt lat="21.778836244782674" lon="-102.41299353618727"><ele>1917.3333333333333</ele><time>2026-03-22T15:04:59Z</time></trkpt><trkpt lat="21.77888906511002" lon="-102.41295234900079"><ele>1917.0</ele><time>2026-03-22T15:05:00Z</time></trkpt><trkpt lat="21.778943903436854" lon="-102.4129095882588"><ele>1916.8</ele><time>2026-03-22T15:05:01Z</time></trkpt><trkpt lat="21.778998840501767" lon="-102.41286675050934"><ele>1916.6</ele><time>2026-03-22T15:05:02Z</time></trkpt><trkpt lat="21.77910049918443" lon="-102.41278744684296"><ele>1916.3999999999999</ele><time>2026-03-22T15:05:04Z</time></trkpt><trkpt lat="21.77919790440104" lon="-102.41271138539568"><ele>1916.1999999999998</ele><time>2026-03-22T15:05:06Z</time></trkpt><trkpt lat="21.77929942384754" lon="-102.41263211122813"><ele>1916.0</ele><time>2026-03-22T15:05:08Z</time></trkpt><trkpt lat="21.779350719100808" lon="-102.41259205596079"><ele>1916.2857142857142</ele><time>2026-03-22T15:05:09Z</time></trkpt><trkpt lat="21.779402676534897" lon="-102.41255144284759"><ele>1916.5714285714287</ele><time>2026-03-22T15:05:10Z</time></trkpt><trkpt lat="21.77945456726944" lon="-102.41251060402871"><ele>1916.857142857143</ele><time>2026-03-22T15:05:11Z</time></trkpt><trkpt lat="21.779506731532084" lon="-102.41246954990217"><ele>1917.142857142857</ele><time>2026-03-22T15:05:12Z</time></trkpt><trkpt lat="21.779560722927155" lon="-102.41242705782439"><ele>1917.4285714285716</ele><time>2026-03-22T15:05:13Z</time></trkpt><trkpt lat="21.779615651462972" lon="-102.41238465737877"><ele>1917.7142857142858</ele><time>2026-03-22T15:05:14Z</time></trkpt><trkpt lat="21.779669183645026" lon="-102.41234353629261"><ele>1918.0</ele><time>2026-03-22T15:05:15Z</time></trkpt><trkpt lat="21.779721831705345" lon="-102.4123035474867"><ele>1918.0000000000002</ele><time>2026-03-22T15:05:16Z</time></trkpt><trkpt lat="21.7797751598318" lon="-102.41226626059348"><ele>1918.0</ele><time>2026-03-22T15:05:17Z</time></trkpt><trkpt lat="21.77983152548546" lon="-102.41222760162441"><ele>1918.0</ele><time>2026-03-22T15:05:18Z</time></trkpt><trkpt lat="21.77988539067419" lon="-102.41219092513651"><ele>1918.0</ele><time>2026-03-22T15:05:19Z</time></trkpt><trkpt lat="21.78000123483949" lon="-102.41213036468332"><ele>1918.0000000000002</ele><time>2026-03-22T15:05:21Z</time></trkpt><trkpt lat="21.78005714696565" lon="-102.4120865438459"><ele>1918.0</ele><time>2026-03-22T15:05:22Z</time></trkpt><trkpt lat="21.78011314985366" lon="-102.41204354486293"><ele>1917.7142857142858</ele><time>2026-03-22T15:05:23Z</time></trkpt><trkpt lat="21.78016669585557" lon="-102.41199776658922"><ele>1917.4285714285716</ele><time>2026-03-22T15:05:24Z</time></trkpt><trkpt lat="21.780220425743504" lon="-102.41195472280943"><ele>1917.142857142857</ele><time>2026-03-22T15:05:25Z</time></trkpt><trkpt lat="21.780274817011204" lon="-102.41191379767059"><ele>1916.857142857143</ele><time>2026-03-22T15:05:26Z</time></trkpt><trkpt lat="21.78032646492766" lon="-102.41187355014327"><ele>1916.5714285714287</ele><time>2026-03-22T15:05:27Z</time></trkpt><trkpt lat="21.78036805207154" lon="-102.4118199084105"><ele>1916.2857142857142</ele><time>2026-03-22T15:05:28Z</time></trkpt><trkpt lat="21.780418020083843" lon="-102.41177622424932"><ele>1916.0</ele><time>2026-03-22T15:05:29Z</time></trkpt><trkpt lat="21.780469065318268" lon="-102.4117289355215"><ele>1916.0</ele><time>2026-03-22T15:05:30Z</time></trkpt><trkpt lat="21.78053140534113" lon="-102.41169403558192"><ele>1916.0</ele><time>2026-03-22T15:05:31Z</time></trkpt><trkpt lat="21.78057961780109" lon="-102.41164041391254"><ele>1916.0</ele><time>2026-03-22T15:05:32Z</time></trkpt><trkpt lat="21.78063085021354" lon="-102.41158900497535"><ele>1916.0</ele><time>2026-03-22T15:05:33Z</time></trkpt><trkpt lat="21.780686737322196" lon="-102.41153856124154"><ele>1916.0</ele><time>2026-03-22T15:05:34Z</time></trkpt><trkpt lat="21.780736374553943" lon="-102.41148369470044"><ele>1916.0</ele><time>2026-03-22T15:05:35Z</time></trkpt><trkpt lat="21.78079301229434" lon="-102.41142627231521"><ele>1916.0</ele><time>2026-03-22T15:05:36Z</time></trkpt><trkpt lat="21.78085055441672" lon="-102.41137121201658"><ele>1915.9999999999998</ele><time>2026-03-22T15:05:37Z</time></trkpt><trkpt lat="21.78090663997634" lon="-102.41131341807898"><ele>1916.0</ele><time>2026-03-22T15:05:38Z</time></trkpt><trkpt lat="21.780961923830166" lon="-102.4112519355195"><ele>1916.0</ele><time>2026-03-22T15:05:39Z</time></trkpt><trkpt lat="21.78101986404176" lon="-102.41119391291176"><ele>1916.0</ele><time>2026-03-22T15:05:40Z</time></trkpt><trkpt lat="21.781080060368584" lon="-102.41113027392328"><ele>1915.9999999999998</ele><time>2026-03-22T15:05:41Z</time></trkpt><trkpt lat="21.78114354426853" lon="-102.41106628007451"><ele>1916.0</ele><time>2026-03-22T15:05:42Z</time></trkpt><trkpt lat="21.781206356084965" lon="-102.41100298606958"><ele>1915.9999999999998</ele><time>2026-03-22T15:05:43Z</time></trkpt><trkpt lat="21.781269293000296" lon="-102.4109365804407"><ele>1916.0</ele><time>2026-03-22T15:05:44Z</time></trkpt><trkpt lat="21.78133515062844" lon="-102.41087147477805"><ele>1916.0</ele><time>2026-03-22T15:05:45Z</time></trkpt><trkpt lat="21.781400025006" lon="-102.41080642076913"><ele>1916.0</ele><time>2026-03-22T15:05:46Z</time></trkpt><trkpt lat="21.781461953082918" lon="-102.41074237417406"><ele>1915.9999999999998</ele><time>2026-03-22T15:05:47Z</time></trkpt><trkpt lat="21.7815227679982" lon="-102.41068005146676"><ele>1916.0</ele><time>2026-03-22T15:05:48Z</time></trkpt><trkpt lat="21.78158345485538" lon="-102.41061629751262"><ele>1915.9999999999998</ele><time>2026-03-22T15:05:49Z</time></trkpt><trkpt lat="21.781644440918527" lon="-102.41055538491557"><ele>1916.0</ele><time>2026-03-22T15:05:50Z</time></trkpt><trkpt lat="21.781701296904313" lon="-102.4104943991074"><ele>1916.0</ele><time>2026-03-22T15:05:51Z</time></trkpt><trkpt lat="21.781759003953443" lon="-102.41043326079716"><ele>1916.0</ele><time>2026-03-22T15:05:52Z</time></trkpt><trkpt lat="21.78181420455258" lon="-102.41037171571912"><ele>1915.9999999999998</ele><time>2026-03-22T15:05:53Z</time></trkpt><trkpt lat="21.78186763291151" lon="-102.41030865649843"><ele>1916.0</ele><time>2026-03-22T15:05:54Z</time></trkpt><trkpt lat="21.781926178299667" lon="-102.41025111687826"><ele>1916.1666666666665</ele><time>2026-03-22T15:05:55Z</time></trkpt><trkpt lat="21.781987552552536" lon="-102.41019546136353"><ele>1916.3333333333333</ele><time>2026-03-22T15:05:56Z</time></trkpt><trkpt lat="21.782043050449907" lon="-102.41013796309637"><ele>1916.5</ele><time>2026-03-22T15:05:57Z</time></trkpt><trkpt lat="21.782101403881978" lon="-102.41008217185423"><ele>1916.6666666666665</ele><time>2026-03-22T15:05:58Z</time></trkpt><trkpt lat="21.782155875352615" lon="-102.41002663911402"><ele>1916.8333333333333</ele><time>2026-03-22T15:05:59Z</time></trkpt><trkpt lat="21.782206347212192" lon="-102.4099701421153"><ele>1917.0</ele><time>2026-03-22T15:06:00Z</time></trkpt><trkpt lat="21.782256202055297" lon="-102.40991598432186"><ele>1916.9999999999998</ele><time>2026-03-22T15:06:01Z</time></trkpt><trkpt lat="21.782311901316035" lon="-102.40986134862715"><ele>1917.0</ele><time>2026-03-22T15:06:02Z</time></trkpt><trkpt lat="21.782359530203383" lon="-102.409811900779"><ele>1916.9999999999998</ele><time>2026-03-22T15:06:03Z</time></trkpt><trkpt lat="21.78241050116934" lon="-102.40976300106666"><ele>1916.9999999999998</ele><time>2026-03-22T15:06:04Z</time></trkpt><trkpt lat="21.782459190120893" lon="-102.40971106550643"><ele>1917.0</ele><time>2026-03-22T15:06:05Z</time></trkpt><trkpt lat="21.782508900426112" lon="-102.40966397644293"><ele>1916.9999999999998</ele><time>2026-03-22T15:06:06Z</time></trkpt><trkpt lat="21.782558746990375" lon="-102.40961741879964"><ele>1916.9999999999998</ele><time>2026-03-22T15:06:07Z</time></trkpt><trkpt lat="21.78260724619367" lon="-102.40957022178645"><ele>1917.1428571428569</ele><time>2026-03-22T15:06:08Z</time></trkpt><trkpt lat="21.782658071293405" lon="-102.40952386867849"><ele>1917.2857142857142</ele><time>2026-03-22T15:06:09Z</time></trkpt><trkpt lat="21.782699474023957" lon="-102.40947251244256"><ele>1917.4285714285713</ele><time>2026-03-22T15:06:10Z</time></trkpt><trkpt lat="21.782738169575154" lon="-102.40941861796121"><ele>1917.5714285714284</ele><time>2026-03-22T15:06:11Z</time></trkpt><trkpt lat="21.782788688178027" lon="-102.40937393868337"><ele>1917.7142857142858</ele><time>2026-03-22T15:06:12Z</time></trkpt><trkpt lat="21.78283965027508" lon="-102.40933044993525"><ele>1917.857142857143</ele><time>2026-03-22T15:06:13Z</time></trkpt><trkpt lat="21.782892072963154" lon="-102.4092868733846"><ele>1918.0</ele><time>2026-03-22T15:06:14Z</time></trkpt><trkpt lat="21.782930136280427" lon="-102.4092283577003"><ele>1918.0000000000002</ele><time>2026-03-22T15:06:15Z</time></trkpt><trkpt lat="21.783022445786667" lon="-102.40913225043836"><ele>1918.0</ele><time>2026-03-22T15:06:17Z</time></trkpt><trkpt lat="21.78306949076693" lon="-102.40908326998661"><ele>1918.0</ele><time>2026-03-22T15:06:18Z</time></trkpt><trkpt lat="21.783117436292113" lon="-102.40903335191275"><ele>1918.0</ele><time>2026-03-22T15:06:19Z</time></trkpt><trkpt lat="21.783164934905784" lon="-102.40898389913946"><ele>1918.0000000000002</ele><time>2026-03-22T15:06:20Z</time></trkpt><trkpt lat="21.78321297091364" lon="-102.40893421109068"><ele>1918.0</ele><time>2026-03-22T15:06:21Z</time></trkpt><trkpt lat="21.783260960513555" lon="-102.40888479149751"><ele>1918.0</ele><time>2026-03-22T15:06:22Z</time></trkpt><trkpt lat="21.7833064876125" lon="-102.40883790776014"><ele>1918.0000000000002</ele><time>2026-03-22T15:06:23Z</time></trkpt><trkpt lat="21.783392164704733" lon="-102.40874949759572"><ele>1918.0000000000002</ele><time>2026-03-22T15:06:25Z</time></trkpt><trkpt lat="21.783477941902472" lon="-102.4086596222926"><ele>1918.0</ele><time>2026-03-22T15:06:27Z</time></trkpt><trkpt lat="21.783566098514125" lon="-102.40856861785096"><ele>1918.0</ele><time>2026-03-22T15:06:29Z</time></trkpt><trkpt lat="21.78361218040873" lon="-102.40852104734027"><ele>1918.5000000000002</ele><time>2026-03-22T15:06:30Z</time></trkpt><trkpt lat="21.78365780836712" lon="-102.4084739454108"><ele>1919.0</ele><time>2026-03-22T15:06:31Z</time></trkpt><trkpt lat="21.783746469960157" lon="-102.40838024543682"><ele>1919.5</ele><time>2026-03-22T15:06:33Z</time></trkpt><trkpt lat="21.783791767132694" lon="-102.40833185078185"><ele>1920.0</ele><time>2026-03-22T15:06:34Z</time></trkpt><trkpt lat="21.78383958324305" lon="-102.40828076494611"><ele>1920.5000000000002</ele><time>2026-03-22T15:06:35Z</time></trkpt><trkpt lat="21.783886458853047" lon="-102.40823183965553"><ele>1921.0</ele><time>2026-03-22T15:06:36Z</time></trkpt><trkpt lat="21.783934146360586" lon="-102.40818277514107"><ele>1921.0</ele><time>2026-03-22T15:06:37Z</time></trkpt><trkpt lat="21.783980586117334" lon="-102.40813630581786"><ele>1921.0000000000002</ele><time>2026-03-22T15:06:38Z</time></trkpt><trkpt lat="21.784028180292328" lon="-102.40808868128713"><ele>1921.0</ele><time>2026-03-22T15:06:39Z</time></trkpt><trkpt lat="21.784076233173742" lon="-102.40804059781715"><ele>1921.0</ele><time>2026-03-22T15:06:40Z</time></trkpt><trkpt lat="21.784126761001964" lon="-102.40799010065126"><ele>1921.0000000000002</ele><time>2026-03-22T15:06:41Z</time></trkpt><trkpt lat="21.78417592558407" lon="-102.40794096766166"><ele>1921.0</ele><time>2026-03-22T15:06:42Z</time></trkpt><trkpt lat="21.7842250863186" lon="-102.40789183845285"><ele>1921.0</ele><time>2026-03-22T15:06:43Z</time></trkpt><trkpt lat="21.78427536933277" lon="-102.40784114670284"><ele>1920.6666666666667</ele><time>2026-03-22T15:06:44Z</time></trkpt><trkpt lat="21.784325882267183" lon="-102.4077905492104"><ele>1920.3333333333335</ele><time>2026-03-22T15:06:45Z</time></trkpt><trkpt lat="21.784376647996215" lon="-102.40773994648875"><ele>1920.0</ele><time>2026-03-22T15:06:46Z</time></trkpt><trkpt lat="21.784428836057486" lon="-102.40768792597711"><ele>1919.6666666666665</ele><time>2026-03-22T15:06:47Z</time></trkpt><trkpt lat="21.78448048834726" lon="-102.40763643955474"><ele>1919.3333333333333</ele><time>2026-03-22T15:06:48Z</time></trkpt><trkpt lat="21.78453157269584" lon="-102.40758557869297"><ele>1919.0</ele><time>2026-03-22T15:06:49Z</time></trkpt><trkpt lat="21.784621854574784" lon="-102.40749362654526"><ele>1919.0</ele><time>2026-03-22T15:06:51Z</time></trkpt><trkpt lat="21.78470996547097" lon="-102.40740179711973"><ele>1919.0</ele><time>2026-03-22T15:06:53Z</time></trkpt><trkpt lat="21.784795723606766" lon="-102.40731236028316"><ele>1919.0</ele><time>2026-03-22T15:06:55Z</time></trkpt><trkpt lat="21.784885941647907" lon="-102.40721819153995"><ele>1919.0</ele><time>2026-03-22T15:06:57Z</time></trkpt><trkpt lat="21.784931688429406" lon="-102.4071704921586"><ele>1919.0</ele><time>2026-03-22T15:06:58Z</time></trkpt><trkpt lat="21.784977650692184" lon="-102.4071225680615"><ele>1919.1428571428573</ele><time>2026-03-22T15:06:59Z</time></trkpt><trkpt lat="21.7850246625584" lon="-102.4070735496447"><ele>1919.2857142857142</ele><time>2026-03-22T15:07:00Z</time></trkpt><trkpt lat="21.78507282114629" lon="-102.40702330744224"><ele>1919.4285714285716</ele><time>2026-03-22T15:07:01Z</time></trkpt><trkpt lat="21.78512205019541" lon="-102.40697209193529"><ele>1919.5714285714287</ele><time>2026-03-22T15:07:02Z</time></trkpt><trkpt lat="21.785171640782018" lon="-102.4069205813962"><ele>1919.7142857142858</ele><time>2026-03-22T15:07:03Z</time></trkpt><trkpt lat="21.785221251934555" lon="-102.40686892242744"><ele>1919.857142857143</ele><time>2026-03-22T15:07:04Z</time></trkpt><trkpt lat="21.78527251377559" lon="-102.40681543172958"><ele>1920.0</ele><time>2026-03-22T15:07:05Z</time></trkpt><trkpt lat="21.785324762914343" lon="-102.40676091906602"><ele>1920.1428571428573</ele><time>2026-03-22T15:07:06Z</time></trkpt><trkpt lat="21.78537606809563" lon="-102.40670746149424"><ele>1920.2857142857142</ele><time>2026-03-22T15:07:07Z</time></trkpt><trkpt lat="21.785428134948756" lon="-102.4066532625833"><ele>1920.4285714285716</ele><time>2026-03-22T15:07:08Z</time></trkpt><trkpt lat="21.785480262162995" lon="-102.40659900085241"><ele>1920.5714285714287</ele><time>2026-03-22T15:07:09Z</time></trkpt><trkpt lat="21.785533402139478" lon="-102.40654368481185"><ele>1920.7142857142858</ele><time>2026-03-22T15:07:10Z</time></trkpt><trkpt lat="21.78558727117841" lon="-102.40648743161032"><ele>1920.857142857143</ele><time>2026-03-22T15:07:11Z</time></trkpt><trkpt lat="21.78564263863513" lon="-102.40642958999557"><ele>1921.0</ele><time>2026-03-22T15:07:12Z</time></trkpt><trkpt lat="21.78569737942592" lon="-102.40637240307488"><ele>1920.8333333333335</ele><time>2026-03-22T15:07:13Z</time></trkpt><trkpt lat="21.785752313926963" lon="-102.4063150646343"><ele>1920.6666666666667</ele><time>2026-03-22T15:07:14Z</time></trkpt><trkpt lat="21.7858074572101" lon="-102.40625751668072"><ele>1920.5</ele><time>2026-03-22T15:07:15Z</time></trkpt><trkpt lat="21.785858585860023" lon="-102.40620415845686"><ele>1920.3333333333335</ele><time>2026-03-22T15:07:16Z</time></trkpt><trkpt lat="21.785917642207963" lon="-102.4061425689324"><ele>1920.1666666666667</ele><time>2026-03-22T15:07:17Z</time></trkpt><trkpt lat="21.78597538049881" lon="-102.40608254027455"><ele>1920.0</ele><time>2026-03-22T15:07:18Z</time></trkpt><trkpt lat="21.786032758445003" lon="-102.40602301315778"><ele>1920.3333333333333</ele><time>2026-03-22T15:07:19Z</time></trkpt><trkpt lat="21.78609280424137" lon="-102.40596102384697"><ele>1920.6666666666665</ele><time>2026-03-22T15:07:20Z</time></trkpt><trkpt lat="21.786148969643254" lon="-102.40590366631592"><ele>1921.0</ele><time>2026-03-22T15:07:21Z</time></trkpt><trkpt lat="21.78620809883517" lon="-102.40584346580553"><ele>1921.3333333333333</ele><time>2026-03-22T15:07:22Z</time></trkpt><trkpt lat="21.786265487173182" lon="-102.40578642701811"><ele>1921.6666666666665</ele><time>2026-03-22T15:07:23Z</time></trkpt><trkpt lat="21.78632030671069" lon="-102.40573230778384"><ele>1922.0</ele><time>2026-03-22T15:07:24Z</time></trkpt><trkpt lat="21.78637977355411" lon="-102.40567360032266"><ele>1921.9999999999998</ele><time>2026-03-22T15:07:25Z</time></trkpt><trkpt lat="21.786435010155156" lon="-102.4056183451995"><ele>1922.0</ele><time>2026-03-22T15:07:26Z</time></trkpt><trkpt lat="21.786505062190574" lon="-102.40557237328366"><ele>1922.0</ele><time>2026-03-22T15:07:27Z</time></trkpt><trkpt lat="21.786558310213827" lon="-102.40551658652092"><ele>1922.0</ele><time>2026-03-22T15:07:28Z</time></trkpt><trkpt lat="21.786615122416453" lon="-102.4054591097368"><ele>1921.9999999999998</ele><time>2026-03-22T15:07:29Z</time></trkpt><trkpt lat="21.78667228318966" lon="-102.40540563002064"><ele>1922.0</ele><time>2026-03-22T15:07:30Z</time></trkpt><trkpt lat="21.786725762242146" lon="-102.40535136480545"><ele>1921.8571428571427</ele><time>2026-03-22T15:07:31Z</time></trkpt><trkpt lat="21.786777346395688" lon="-102.4052971413201"><ele>1921.7142857142856</ele><time>2026-03-22T15:07:32Z</time></trkpt><trkpt lat="21.786828506640525" lon="-102.40524678049832"><ele>1921.5714285714284</ele><time>2026-03-22T15:07:33Z</time></trkpt><trkpt lat="21.78688061839998" lon="-102.40519459652039"><ele>1921.4285714285716</ele><time>2026-03-22T15:07:34Z</time></trkpt><trkpt lat="21.786933507912035" lon="-102.4051409904429"><ele>1921.2857142857144</ele><time>2026-03-22T15:07:35Z</time></trkpt><trkpt lat="21.786986244332862" lon="-102.40508877748567"><ele>1921.1428571428573</ele><time>2026-03-22T15:07:36Z</time></trkpt><trkpt lat="21.787041752298798" lon="-102.40503300987271"><ele>1921.0</ele><time>2026-03-22T15:07:37Z</time></trkpt><trkpt lat="21.78709150371337" lon="-102.40498466331115"><ele>1921.0</ele><time>2026-03-22T15:07:38Z</time></trkpt><trkpt lat="21.787143213637233" lon="-102.40493043740679"><ele>1921.0000000000002</ele><time>2026-03-22T15:07:39Z</time></trkpt><trkpt lat="21.787192001376386" lon="-102.40487197694942"><ele>1921.0</ele><time>2026-03-22T15:07:40Z</time></trkpt><trkpt lat="21.78724117495686" lon="-102.40481637610769"><ele>1921.0</ele><time>2026-03-22T15:07:41Z</time></trkpt><trkpt lat="21.787293121822202" lon="-102.40476278864809"><ele>1921.0000000000002</ele><time>2026-03-22T15:07:42Z</time></trkpt><trkpt lat="21.787343875520637" lon="-102.40471065125111"><ele>1921.0</ele><time>2026-03-22T15:07:43Z</time></trkpt><trkpt lat="21.78739687305478" lon="-102.40465951159229"><ele>1921.0</ele><time>2026-03-22T15:07:44Z</time></trkpt><trkpt lat="21.787454048278363" lon="-102.40460927152718"><ele>1921.0000000000002</ele><time>2026-03-22T15:07:45Z</time></trkpt><trkpt lat="21.7875004612344" lon="-102.40455878808828"><ele>1921.0</ele><time>2026-03-22T15:07:46Z</time></trkpt><trkpt lat="21.787581108542362" lon="-102.40444460753734"><ele>1921.0</ele><time>2026-03-22T15:07:48Z</time></trkpt><trkpt lat="21.787633179203418" lon="-102.40439567610606"><ele>1921.0</ele><time>2026-03-22T15:07:49Z</time></trkpt><trkpt lat="21.78770599368565" lon="-102.4043597651648"><ele>1921.0000000000002</ele><time>2026-03-22T15:07:50Z</time></trkpt><trkpt lat="21.787781562243495" lon="-102.40435100031665"><ele>1921.0</ele><time>2026-03-22T15:07:51Z</time></trkpt><trkpt lat="21.78785635703072" lon="-102.40436201648234"><ele>1920.857142857143</ele><time>2026-03-22T15:07:52Z</time></trkpt><trkpt lat="21.78792980541024" lon="-102.40438086899073"><ele>1920.7142857142858</ele><time>2026-03-22T15:07:53Z</time></trkpt><trkpt lat="21.787983315788782" lon="-102.40446277341769"><ele>1920.5714285714287</ele><time>2026-03-22T15:07:54Z</time></trkpt><trkpt lat="21.788034642465615" lon="-102.40451298221615"><ele>1920.4285714285716</ele><time>2026-03-22T15:07:55Z</time></trkpt><trkpt lat="21.7880847404312" lon="-102.40456607188051"><ele>1920.2857142857142</ele><time>2026-03-22T15:07:56Z</time></trkpt><trkpt lat="21.78813554590573" lon="-102.40461701092227"><ele>1920.1428571428573</ele><time>2026-03-22T15:07:57Z</time></trkpt><trkpt lat="21.788184841662964" lon="-102.40466490530487"><ele>1920.0</ele><time>2026-03-22T15:07:58Z</time></trkpt><trkpt lat="21.788233031853622" lon="-102.40471242735707"><ele>1920.0</ele><time>2026-03-22T15:07:59Z</time></trkpt><trkpt lat="21.788280247028815" lon="-102.40476300116454"><ele>1920.0</ele><time>2026-03-22T15:08:00Z</time></trkpt><trkpt lat="21.78832970159583" lon="-102.40481195381919"><ele>1920.0</ele><time>2026-03-22T15:08:01Z</time></trkpt><trkpt lat="21.788381346658422" lon="-102.40486005989142"><ele>1920.0</ele><time>2026-03-22T15:08:02Z</time></trkpt><trkpt lat="21.788431458541005" lon="-102.40491028937939"><ele>1920.0</ele><time>2026-03-22T15:08:03Z</time></trkpt><trkpt lat="21.788480628841953" lon="-102.40496080474684"><ele>1920.0</ele><time>2026-03-22T15:08:04Z</time></trkpt><trkpt lat="21.788531157524048" lon="-102.40501018013737"><ele>1920.0</ele><time>2026-03-22T15:08:05Z</time></trkpt><trkpt lat="21.78858410481303" lon="-102.40506022270858"><ele>1920.0</ele><time>2026-03-22T15:08:06Z</time></trkpt><trkpt lat="21.78863631549635" lon="-102.40510840874667"><ele>1920.0</ele><time>2026-03-22T15:08:07Z</time></trkpt><trkpt lat="21.788685358628612" lon="-102.4051599649648"><ele>1920.0</ele><time>2026-03-22T15:08:08Z</time></trkpt><trkpt lat="21.788734633421914" lon="-102.40521504913697"><ele>1920.0</ele><time>2026-03-22T15:08:09Z</time></trkpt><trkpt lat="21.788786348842777" lon="-102.40526735819856"><ele>1920.0</ele><time>2026-03-22T15:08:10Z</time></trkpt><trkpt lat="21.78883958558283" lon="-102.40531564862077"><ele>1920.0</ele><time>2026-03-22T15:08:11Z</time></trkpt><trkpt lat="21.788892200563183" lon="-102.40536793806442"><ele>1920.0</ele><time>2026-03-22T15:08:12Z</time></trkpt><trkpt lat="21.78894631593221" lon="-102.40541856594825"><ele>1920.0</ele><time>2026-03-22T15:08:13Z</time></trkpt><trkpt lat="21.78899900813465" lon="-102.40546823561505"><ele>1920.0</ele><time>2026-03-22T15:08:14Z</time></trkpt><trkpt lat="21.789050871831485" lon="-102.40551901985668"><ele>1920.0</ele><time>2026-03-22T15:08:15Z</time></trkpt><trkpt lat="21.789102651531252" lon="-102.40557080235783"><ele>1920.0</ele><time>2026-03-22T15:08:16Z</time></trkpt><trkpt lat="21.78915172508647" lon="-102.40562215452861"><ele>1920.0</ele><time>2026-03-22T15:08:17Z</time></trkpt><trkpt lat="21.789202895345184" lon="-102.40567115097457"><ele>1920.0</ele><time>2026-03-22T15:08:18Z</time></trkpt><trkpt lat="21.789253846026586" lon="-102.40571880815439"><ele>1920.0</ele><time>2026-03-22T15:08:19Z</time></trkpt><trkpt lat="21.789308965157254" lon="-102.40576346181561"><ele>1920.0</ele><time>2026-03-22T15:08:20Z</time></trkpt><trkpt lat="21.789358217968896" lon="-102.4058161909556"><ele>1920.0</ele><time>2026-03-22T15:08:21Z</time></trkpt><trkpt lat="21.789407392283128" lon="-102.4058693368675"><ele>1920.0</ele><time>2026-03-22T15:08:22Z</time></trkpt><trkpt lat="21.78945877971573" lon="-102.40592044775332"><ele>1920.0</ele><time>2026-03-22T15:08:23Z</time></trkpt><trkpt lat="21.78950913648766" lon="-102.40597070529122"><ele>1920.0</ele><time>2026-03-22T15:08:24Z</time></trkpt><trkpt lat="21.789559722981604" lon="-102.40602154233187"><ele>1920.0</ele><time>2026-03-22T15:08:25Z</time></trkpt><trkpt lat="21.78961361749846" lon="-102.40606813794355"><ele>1920.0</ele><time>2026-03-22T15:08:26Z</time></trkpt><trkpt lat="21.78966137755037" lon="-102.40611772709102"><ele>1920.0</ele><time>2026-03-22T15:08:27Z</time></trkpt><trkpt lat="21.789707818229243" lon="-102.40616825182113"><ele>1920.0</ele><time>2026-03-22T15:08:28Z</time></trkpt><trkpt lat="21.789759659105147" lon="-102.4062160228941"><ele>1920.0</ele><time>2026-03-22T15:08:29Z</time></trkpt><trkpt lat="21.789810079755956" lon="-102.40626309607413"><ele>1920.0</ele><time>2026-03-22T15:08:30Z</time></trkpt><trkpt lat="21.789854054010046" lon="-102.40631313308556"><ele>1920.0</ele><time>2026-03-22T15:08:31Z</time></trkpt><trkpt lat="21.789948018450264" lon="-102.40639536689882"><ele>1920.0</ele><time>2026-03-22T15:08:33Z</time></trkpt><trkpt lat="21.790035829290535" lon="-102.40647523297373"><ele>1920.0</ele><time>2026-03-22T15:08:35Z</time></trkpt><trkpt lat="21.79012081454693" lon="-102.40656449464355"><ele>1920.0</ele><time>2026-03-22T15:08:37Z</time></trkpt><trkpt lat="21.790211441056" lon="-102.4066454571521"><ele>1920.0</ele><time>2026-03-22T15:08:39Z</time></trkpt><trkpt lat="21.790297722055847" lon="-102.40673832796169"><ele>1920.0</ele><time>2026-03-22T15:08:41Z</time></trkpt><trkpt lat="21.790389250402047" lon="-102.40682443449323"><ele>1920.0</ele><time>2026-03-22T15:08:43Z</time></trkpt><trkpt lat="21.790483877578946" lon="-102.4069101119972"><ele>1920.0</ele><time>2026-03-22T15:08:45Z</time></trkpt><trkpt lat="21.790577983512026" lon="-102.40699788715433"><ele>1920.0</ele><time>2026-03-22T15:08:47Z</time></trkpt><trkpt lat="21.79062977110375" lon="-102.40703670596582"><ele>1920.0</ele><time>2026-03-22T15:08:48Z</time></trkpt><trkpt lat="21.79068245567413" lon="-102.40707711028236"><ele>1920.0</ele><time>2026-03-22T15:08:49Z</time></trkpt><trkpt lat="21.790789464787526" lon="-102.40714301820671"><ele>1920.0</ele><time>2026-03-22T15:08:51Z</time></trkpt><trkpt lat="21.790898292935594" lon="-102.40718990041081"><ele>1920.0</ele><time>2026-03-22T15:08:53Z</time></trkpt><trkpt lat="21.790960974571693" lon="-102.40720169224251"><ele>1920.0</ele><time>2026-03-22T15:08:54Z</time></trkpt><trkpt lat="21.791027619336685" lon="-102.4072026187115"><ele>1920.0</ele><time>2026-03-22T15:08:55Z</time></trkpt><trkpt lat="21.791152093098628" lon="-102.40718554818737"><ele>1920.0</ele><time>2026-03-22T15:08:57Z</time></trkpt><trkpt lat="21.791221529327863" lon="-102.40717349018705"><ele>1920.0</ele><time>2026-03-22T15:08:58Z</time></trkpt><trkpt lat="21.79134229722998" lon="-102.4071485467279"><ele>1920.0</ele><time>2026-03-22T15:09:00Z</time></trkpt><trkpt lat="21.791466050018713" lon="-102.40713412715398"><ele>1920.0</ele><time>2026-03-22T15:09:02Z</time></trkpt><trkpt lat="21.791590005999698" lon="-102.40713662464476"><ele>1920.0</ele><time>2026-03-22T15:09:04Z</time></trkpt><trkpt lat="21.791714058594547" lon="-102.4071508776159"><ele>1920.0</ele><time>2026-03-22T15:09:06Z</time></trkpt><trkpt lat="21.791839696290932" lon="-102.40717187295553"><ele>1921.0</ele><time>2026-03-22T15:09:08Z</time></trkpt><trkpt lat="21.79196125614361" lon="-102.40718723049886"><ele>1922.0</ele><time>2026-03-22T15:09:10Z</time></trkpt><trkpt lat="21.792087034150708" lon="-102.40720555806186"><ele>1923.0</ele><time>2026-03-22T15:09:12Z</time></trkpt><trkpt lat="21.792149320228493" lon="-102.40723562509332"><ele>1924.0</ele><time>2026-03-22T15:09:13Z</time></trkpt><trkpt lat="21.792214204136013" lon="-102.40723427518218"><ele>1925.0</ele><time>2026-03-22T15:09:14Z</time></trkpt><trkpt lat="21.7922786069938" lon="-102.40724900478257"><ele>1926.0</ele><time>2026-03-22T15:09:15Z</time></trkpt><trkpt lat="21.792343889827343" lon="-102.40726489755325"><ele>1926.0</ele><time>2026-03-22T15:09:16Z</time></trkpt><trkpt lat="21.792405666015128" lon="-102.40728066749932"><ele>1926.0</ele><time>2026-03-22T15:09:17Z</time></trkpt><trkpt lat="21.792461775262634" lon="-102.4073126220519"><ele>1926.0</ele><time>2026-03-22T15:09:18Z</time></trkpt><trkpt lat="21.792575658618702" lon="-102.40734159453565"><ele>1926.0</ele><time>2026-03-22T15:09:20Z</time></trkpt><trkpt lat="21.792686583462665" lon="-102.40737255706263"><ele>1926.0</ele><time>2026-03-22T15:09:22Z</time></trkpt><trkpt lat="21.792787645844037" lon="-102.40739983983205"><ele>1926.0</ele><time>2026-03-22T15:09:24Z</time></trkpt><trkpt lat="21.792894902164466" lon="-102.40742388254928"><ele>1926.0</ele><time>2026-03-22T15:09:26Z</time></trkpt><trkpt lat="21.793002536883993" lon="-102.40745937973134"><ele>1926.0</ele><time>2026-03-22T15:09:28Z</time></trkpt><trkpt lat="21.793108647412925" lon="-102.40748760608862"><ele>1926.0</ele><time>2026-03-22T15:09:30Z</time></trkpt><trkpt lat="21.793216325855994" lon="-102.40751890853143"><ele>1926.0</ele><time>2026-03-22T15:09:32Z</time></trkpt><trkpt lat="21.793320776351525" lon="-102.40755952236474"><ele>1926.0</ele><time>2026-03-22T15:09:34Z</time></trkpt><trkpt lat="21.79343090180231" lon="-102.4076003008381"><ele>1926.0</ele><time>2026-03-22T15:09:36Z</time></trkpt><trkpt lat="21.793548796311175" lon="-102.40763015462234"><ele>1926.0</ele><time>2026-03-22T15:09:38Z</time></trkpt><trkpt lat="21.793654434577576" lon="-102.40769386526051"><ele>1926.0</ele><time>2026-03-22T15:09:40Z</time></trkpt><trkpt lat="21.793765744843938" lon="-102.40774755589095"><ele>1926.1428571428573</ele><time>2026-03-22T15:09:42Z</time></trkpt><trkpt lat="21.793874725158766" lon="-102.40781480773619"><ele>1926.2857142857142</ele><time>2026-03-22T15:09:44Z</time></trkpt><trkpt lat="21.79392880007567" lon="-102.40785034788344"><ele>1926.4285714285716</ele><time>2026-03-22T15:09:45Z</time></trkpt><trkpt lat="21.79397764811813" lon="-102.40789455362511"><ele>1926.5714285714287</ele><time>2026-03-22T15:09:46Z</time></trkpt><trkpt lat="21.794031710189273" lon="-102.40793456160203"><ele>1926.7142857142858</ele><time>2026-03-22T15:09:47Z</time></trkpt><trkpt lat="21.794083724164963" lon="-102.40798060135981"><ele>1926.857142857143</ele><time>2026-03-22T15:09:48Z</time></trkpt><trkpt lat="21.794132344892972" lon="-102.40802482660811"><ele>1927.0</ele><time>2026-03-22T15:09:49Z</time></trkpt><trkpt lat="21.794181713994817" lon="-102.40806747166445"><ele>1927.0</ele><time>2026-03-22T15:09:50Z</time></trkpt><trkpt lat="21.794229669921393" lon="-102.40811141594388"><ele>1927.0</ele><time>2026-03-22T15:09:51Z</time></trkpt><trkpt lat="21.794276015862007" lon="-102.40815946337233"><ele>1927.0</ele><time>2026-03-22T15:09:52Z</time></trkpt><trkpt lat="21.794326710626613" lon="-102.40820463971211"><ele>1927.0</ele><time>2026-03-22T15:09:53Z</time></trkpt><trkpt lat="21.794376825803184" lon="-102.40824599128538"><ele>1927.0</ele><time>2026-03-22T15:09:54Z</time></trkpt><trkpt lat="21.79442516026145" lon="-102.40829407702766"><ele>1927.0</ele><time>2026-03-22T15:09:55Z</time></trkpt><trkpt lat="21.79451993972752" lon="-102.4083764202451"><ele>1927.0</ele><time>2026-03-22T15:09:57Z</time></trkpt><trkpt lat="21.7946107633582" lon="-102.40844609928322"><ele>1927.0000000000002</ele><time>2026-03-22T15:09:59Z</time></trkpt><trkpt lat="21.794713349167935" lon="-102.40849681087515"><ele>1927.0</ele><time>2026-03-22T15:10:01Z</time></trkpt><trkpt lat="21.794832138776574" lon="-102.40850200149615"><ele>1927.0</ele><time>2026-03-22T15:10:03Z</time></trkpt><trkpt lat="21.79489382852011" lon="-102.40851723229366"><ele>1927.0</ele><time>2026-03-22T15:10:04Z</time></trkpt><trkpt lat="21.794956699427118" lon="-102.4085068565648"><ele>1927.0000000000002</ele><time>2026-03-22T15:10:05Z</time></trkpt><trkpt lat="21.795022467333094" lon="-102.40849037489517"><ele>1927.0</ele><time>2026-03-22T15:10:06Z</time></trkpt><trkpt lat="21.795140154487896" lon="-102.40846194905524"><ele>1927.0000000000002</ele><time>2026-03-22T15:10:08Z</time></trkpt><trkpt lat="21.79519764362517" lon="-102.40843393483865"><ele>1927.0</ele><time>2026-03-22T15:10:09Z</time></trkpt><trkpt lat="21.7952522152828" lon="-102.408400037367"><ele>1927.0</ele><time>2026-03-22T15:10:10Z</time></trkpt><trkpt lat="21.795349206350878" lon="-102.4083141034343"><ele>1927.0</ele><time>2026-03-22T15:10:12Z</time></trkpt><trkpt lat="21.795398910277292" lon="-102.40826966596839"><ele>1927.0000000000002</ele><time>2026-03-22T15:10:13Z</time></trkpt><trkpt lat="21.7954340768796" lon="-102.4082068005137"><ele>1927.0</ele><time>2026-03-22T15:10:14Z</time></trkpt><trkpt lat="21.795480379446687" lon="-102.4081556256188"><ele>1927.0</ele><time>2026-03-22T15:10:15Z</time></trkpt><trkpt lat="21.795528528391618" lon="-102.40810224558288"><ele>1927.0</ele><time>2026-03-22T15:10:16Z</time></trkpt><trkpt lat="21.795576094167842" lon="-102.40804951201898"><ele>1927.0</ele><time>2026-03-22T15:10:17Z</time></trkpt><trkpt lat="21.79562572212979" lon="-102.40799449226041"><ele>1927.0</ele><time>2026-03-22T15:10:18Z</time></trkpt><trkpt lat="21.795672614004495" lon="-102.4079425819548"><ele>1927.0</ele><time>2026-03-22T15:10:19Z</time></trkpt><trkpt lat="21.795723102737213" lon="-102.40788717568239"><ele>1927.0</ele><time>2026-03-22T15:10:20Z</time></trkpt><trkpt lat="21.795777247818382" lon="-102.40782775702561"><ele>1927.0</ele><time>2026-03-22T15:10:21Z</time></trkpt><trkpt lat="21.795828530015875" lon="-102.40777102341914"><ele>1927.0</ele><time>2026-03-22T15:10:22Z</time></trkpt><trkpt lat="21.795874286866383" lon="-102.4077201470641"><ele>1927.0</ele><time>2026-03-22T15:10:23Z</time></trkpt><trkpt lat="21.795920968994995" lon="-102.40766825823923"><ele>1927.0</ele><time>2026-03-22T15:10:24Z</time></trkpt><trkpt lat="21.79596721826466" lon="-102.40761685050641"><ele>1927.0</ele><time>2026-03-22T15:10:25Z</time></trkpt><trkpt lat="21.796016066756366" lon="-102.40756052813359"><ele>1927.0</ele><time>2026-03-22T15:10:26Z</time></trkpt><trkpt lat="21.79606471541375" lon="-102.40750217204146"><ele>1927.0</ele><time>2026-03-22T15:10:27Z</time></trkpt><trkpt lat="21.796111940775496" lon="-102.40744552327958"><ele>1927.0</ele><time>2026-03-22T15:10:28Z</time></trkpt><trkpt lat="21.79616151945101" lon="-102.40738604412037"><ele>1926.8333333333335</ele><time>2026-03-22T15:10:29Z</time></trkpt><trkpt lat="21.79621098590518" lon="-102.40732669730495"><ele>1926.6666666666667</ele><time>2026-03-22T15:10:30Z</time></trkpt><trkpt lat="21.796260599114763" lon="-102.40726717438703"><ele>1926.5</ele><time>2026-03-22T15:10:31Z</time></trkpt><trkpt lat="21.796320912923676" lon="-102.40721590597026"><ele>1926.3333333333335</ele><time>2026-03-22T15:10:32Z</time></trkpt><trkpt lat="21.796356665928744" lon="-102.40714115309568"><ele>1926.1666666666667</ele><time>2026-03-22T15:10:33Z</time></trkpt><trkpt lat="21.79640416437923" lon="-102.40707778470758"><ele>1926.0</ele><time>2026-03-22T15:10:34Z</time></trkpt><trkpt lat="21.796452909855315" lon="-102.40701275254173"><ele>1925.8333333333333</ele><time>2026-03-22T15:10:35Z</time></trkpt><trkpt lat="21.796498728759378" lon="-102.40695162477047"><ele>1925.6666666666665</ele><time>2026-03-22T15:10:36Z</time></trkpt><trkpt lat="21.796559571307718" lon="-102.40689592463654"><ele>1925.5</ele><time>2026-03-22T15:10:37Z</time></trkpt><trkpt lat="21.796593245421167" lon="-102.40682113729859"><ele>1925.3333333333333</ele><time>2026-03-22T15:10:38Z</time></trkpt><trkpt lat="21.79664035376905" lon="-102.40675494214464"><ele>1925.1666666666665</ele><time>2026-03-22T15:10:39Z</time></trkpt><trkpt lat="21.79668793518672" lon="-102.40668808221993"><ele>1925.0</ele><time>2026-03-22T15:10:40Z</time></trkpt><trkpt lat="21.796736328473607" lon="-102.40662008145415"><ele>1924.9999999999998</ele><time>2026-03-22T15:10:41Z</time></trkpt><trkpt lat="21.796785713131076" lon="-102.40655074164478"><ele>1925.0</ele><time>2026-03-22T15:10:42Z</time></trkpt><trkpt lat="21.796836052293774" lon="-102.40648066092807"><ele>1925.0</ele><time>2026-03-22T15:10:43Z</time></trkpt><trkpt lat="21.796885446940326" lon="-102.40641218333334"><ele>1925.0</ele><time>2026-03-22T15:10:44Z</time></trkpt><trkpt lat="21.796934773879528" lon="-102.40634455384453"><ele>1924.9999999999998</ele><time>2026-03-22T15:10:45Z</time></trkpt><trkpt lat="21.796983098452582" lon="-102.40627829860055"><ele>1925.0</ele><time>2026-03-22T15:10:46Z</time></trkpt><trkpt lat="21.797032416212435" lon="-102.40621068169258"><ele>1924.3333333333333</ele><time>2026-03-22T15:10:47Z</time></trkpt><trkpt lat="21.797080660876578" lon="-102.40614556850782"><ele>1923.6666666666665</ele><time>2026-03-22T15:10:48Z</time></trkpt><trkpt lat="21.797142642746298" lon="-102.40608964835069"><ele>1923.0</ele><time>2026-03-22T15:10:49Z</time></trkpt><trkpt lat="21.797192681307386" lon="-102.40601909086969"><ele>1922.3333333333335</ele><time>2026-03-22T15:10:50Z</time></trkpt><trkpt lat="21.797244859228943" lon="-102.40595140146874"><ele>1921.6666666666667</ele><time>2026-03-22T15:10:51Z</time></trkpt><trkpt lat="21.79729870339964" lon="-102.40587164484856"><ele>1921.0</ele><time>2026-03-22T15:10:52Z</time></trkpt><trkpt lat="21.7973527263324" lon="-102.40580655211485"><ele>1921.0000000000002</ele><time>2026-03-22T15:10:53Z</time></trkpt><trkpt lat="21.79740265530649" lon="-102.4057385179585"><ele>1921.0</ele><time>2026-03-22T15:10:54Z</time></trkpt><trkpt lat="21.797448548835085" lon="-102.40566541926151"><ele>1921.0</ele><time>2026-03-22T15:10:55Z</time></trkpt><trkpt lat="21.79751125264429" lon="-102.40559796878081"><ele>1921.0</ele><time>2026-03-22T15:10:56Z</time></trkpt><trkpt lat="21.79756652268476" lon="-102.4055316644184"><ele>1921.0000000000002</ele><time>2026-03-22T15:10:57Z</time></trkpt><trkpt lat="21.797625882267255" lon="-102.40546830432409"><ele>1921.0</ele><time>2026-03-22T15:10:58Z</time></trkpt><trkpt lat="21.797682229343152" lon="-102.40540674697864"><ele>1920.3333333333335</ele><time>2026-03-22T15:10:59Z</time></trkpt><trkpt lat="21.79774060008254" lon="-102.40534335261582"><ele>1919.6666666666667</ele><time>2026-03-22T15:11:00Z</time></trkpt><trkpt lat="21.797799893566985" lon="-102.40528218965633"><ele>1919.0</ele><time>2026-03-22T15:11:01Z</time></trkpt><trkpt lat="21.797865012346925" lon="-102.40522531481874"><ele>1918.3333333333335</ele><time>2026-03-22T15:11:02Z</time></trkpt><trkpt lat="21.79792904889467" lon="-102.40516822369335"><ele>1917.6666666666667</ele><time>2026-03-22T15:11:03Z</time></trkpt><trkpt lat="21.797991249253823" lon="-102.40511534292807"><ele>1917.0</ele><time>2026-03-22T15:11:04Z</time></trkpt><trkpt lat="21.798062409877357" lon="-102.4050703270533"><ele>1917.0</ele><time>2026-03-22T15:11:05Z</time></trkpt><trkpt lat="21.798137067763584" lon="-102.40501871649283"><ele>1917.0</ele><time>2026-03-22T15:11:06Z</time></trkpt><trkpt lat="21.798217270600887" lon="-102.40497774363183"><ele>1917.0</ele><time>2026-03-22T15:11:07Z</time></trkpt><trkpt lat="21.798297033386067" lon="-102.40493543555756"><ele>1917.0</ele><time>2026-03-22T15:11:08Z</time></trkpt><trkpt lat="21.798377676985137" lon="-102.40490276786655"><ele>1917.0</ele><time>2026-03-22T15:11:09Z</time></trkpt><trkpt lat="21.798460678044865" lon="-102.40487944306683"><ele>1917.0</ele><time>2026-03-22T15:11:10Z</time></trkpt><trkpt lat="21.79853492991237" lon="-102.4048581471976"><ele>1916.6</ele><time>2026-03-22T15:11:11Z</time></trkpt><trkpt lat="21.79861145680532" lon="-102.4048253649823"><ele>1916.1999999999998</ele><time>2026-03-22T15:11:12Z</time></trkpt><trkpt lat="21.798685662122786" lon="-102.40477873821523"><ele>1915.8</ele><time>2026-03-22T15:11:13Z</time></trkpt><trkpt lat="21.798750058677225" lon="-102.40475550153795"><ele>1915.4</ele><time>2026-03-22T15:11:14Z</time></trkpt><trkpt lat="21.79880218935434" lon="-102.40454636828262"><ele>1915.0</ele><time>2026-03-22T15:11:16Z</time></trkpt><trkpt lat="21.798825391371437" lon="-102.40445390096319"><ele>1914.6666666666667</ele><time>2026-03-22T15:11:17Z</time></trkpt><trkpt lat="21.798843610165125" lon="-102.40436595759056"><ele>1914.3333333333335</ele><time>2026-03-22T15:11:18Z</time></trkpt><trkpt lat="21.79886745289112" lon="-102.40427358634118"><ele>1914.0</ele><time>2026-03-22T15:11:19Z</time></trkpt><trkpt lat="21.798886229898713" lon="-102.40418186153163"><ele>1913.6666666666665</ele><time>2026-03-22T15:11:20Z</time></trkpt><trkpt lat="21.798907841496124" lon="-102.40409091229375"><ele>1913.3333333333333</ele><time>2026-03-22T15:11:21Z</time></trkpt><trkpt lat="21.798937843406787" lon="-102.40399449216429"><ele>1913.0</ele><time>2026-03-22T15:11:22Z</time></trkpt><trkpt lat="21.79894902667617" lon="-102.40390070453256"><ele>1913.0</ele><time>2026-03-22T15:11:23Z</time></trkpt><trkpt lat="21.79897055362645" lon="-102.40380470569018"><ele>1913.0000000000002</ele><time>2026-03-22T15:11:24Z</time></trkpt><trkpt lat="21.79899492828852" lon="-102.40371029316663"><ele>1913.0000000000002</ele><time>2026-03-22T15:11:25Z</time></trkpt><trkpt lat="21.799020783500378" lon="-102.40361181235144"><ele>1913.0</ele><time>2026-03-22T15:11:26Z</time></trkpt><trkpt lat="21.799044338506544" lon="-102.40351588832046"><ele>1913.0</ele><time>2026-03-22T15:11:27Z</time></trkpt><trkpt lat="21.79907108426904" lon="-102.40341551225082"><ele>1913.0</ele><time>2026-03-22T15:11:28Z</time></trkpt><trkpt lat="21.799092846412954" lon="-102.40331913909392"><ele>1913.0000000000002</ele><time>2026-03-22T15:11:29Z</time></trkpt><trkpt lat="21.799116323519627" lon="-102.40321960360437"><ele>1913.0000000000002</ele><time>2026-03-22T15:11:30Z</time></trkpt><trkpt lat="21.799122892112834" lon="-102.40311518615064"><ele>1913.0</ele><time>2026-03-22T15:11:31Z</time></trkpt><trkpt lat="21.799143749408184" lon="-102.40302105233775"><ele>1913.0</ele><time>2026-03-22T15:11:32Z</time></trkpt><trkpt lat="21.799165060144986" lon="-102.40292487197519"><ele>1913.0</ele><time>2026-03-22T15:11:33Z</time></trkpt><trkpt lat="21.79918638704538" lon="-102.402828618712"><ele>1913.0000000000002</ele><time>2026-03-22T15:11:34Z</time></trkpt><trkpt lat="21.799207428412704" lon="-102.40273365409837"><ele>1913.0000000000002</ele><time>2026-03-22T15:11:35Z</time></trkpt><trkpt lat="21.799232251560866" lon="-102.40262193441893"><ele>1913.0</ele><time>2026-03-22T15:11:36Z</time></trkpt><trkpt lat="21.799252937414973" lon="-102.40252957036645"><ele>1913.0</ele><time>2026-03-22T15:11:37Z</time></trkpt><trkpt lat="21.799274025527687" lon="-102.40243541017384"><ele>1913.0</ele><time>2026-03-22T15:11:38Z</time></trkpt><trkpt lat="21.79929587118077" lon="-102.4023375124177"><ele>1913.0000000000002</ele><time>2026-03-22T15:11:39Z</time></trkpt><trkpt lat="21.79931767802537" lon="-102.40223740213077"><ele>1913.0000000000002</ele><time>2026-03-22T15:11:40Z</time></trkpt><trkpt lat="21.79933956457149" lon="-102.40213692590383"><ele>1913.0</ele><time>2026-03-22T15:11:41Z</time></trkpt><trkpt lat="21.799361844043442" lon="-102.40203476145766"><ele>1913.0</ele><time>2026-03-22T15:11:42Z</time></trkpt><trkpt lat="21.79938431323491" lon="-102.40193389376758"><ele>1912.2</ele><time>2026-03-22T15:11:43Z</time></trkpt><trkpt lat="21.799408489742934" lon="-102.40182764650679"><ele>1911.4</ele><time>2026-03-22T15:11:44Z</time></trkpt><trkpt lat="21.7994304644005" lon="-102.40172635228706"><ele>1910.6000000000001</ele><time>2026-03-22T15:11:45Z</time></trkpt><trkpt lat="21.79945261567354" lon="-102.40162473094117"><ele>1909.8000000000002</ele><time>2026-03-22T15:11:46Z</time></trkpt><trkpt lat="21.799475079206527" lon="-102.40152371066758"><ele>1909.0</ele><time>2026-03-22T15:11:47Z</time></trkpt><trkpt lat="21.79949726315341" lon="-102.40142451017036"><ele>1909.2</ele><time>2026-03-22T15:11:48Z</time></trkpt><trkpt lat="21.799519376570505" lon="-102.4013256250105"><ele>1909.4</ele><time>2026-03-22T15:11:49Z</time></trkpt><trkpt lat="21.79954152975198" lon="-102.40122485755309"><ele>1909.6</ele><time>2026-03-22T15:11:50Z</time></trkpt><trkpt lat="21.799563573547985" lon="-102.40112367162133"><ele>1909.8</ele><time>2026-03-22T15:11:51Z</time></trkpt><trkpt lat="21.799585243050796" lon="-102.40102420380082"><ele>1910.0</ele><time>2026-03-22T15:11:52Z</time></trkpt><trkpt lat="21.799606258206957" lon="-102.40092773961834"><ele>1910.0</ele><time>2026-03-22T15:11:53Z</time></trkpt><trkpt lat="21.799627682475045" lon="-102.40082819083248"><ele>1910.0</ele><time>2026-03-22T15:11:54Z</time></trkpt><trkpt lat="21.79964832448063" lon="-102.40073173995778"><ele>1910.0</ele><time>2026-03-22T15:11:55Z</time></trkpt><trkpt lat="21.79966945922069" lon="-102.40063298681754"><ele>1910.0</ele><time>2026-03-22T15:11:56Z</time></trkpt><trkpt lat="21.799690033666366" lon="-102.40053908486557"><ele>1910.0</ele><time>2026-03-22T15:11:57Z</time></trkpt><trkpt lat="21.799711001516233" lon="-102.40044429670381"><ele>1909.6</ele><time>2026-03-22T15:11:58Z</time></trkpt><trkpt lat="21.799731253214855" lon="-102.40035082454712"><ele>1909.2</ele><time>2026-03-22T15:11:59Z</time></trkpt><trkpt lat="21.799752041059676" lon="-102.40025360788565"><ele>1908.8000000000002</ele><time>2026-03-22T15:12:00Z</time></trkpt><trkpt lat="21.79977247064798" lon="-102.4001586092026"><ele>1908.4</ele><time>2026-03-22T15:12:01Z</time></trkpt><trkpt lat="21.79979355037717" lon="-102.400061177275"><ele>1908.0</ele><time>2026-03-22T15:12:02Z</time></trkpt><trkpt lat="21.799815236840665" lon="-102.39996629174767"><ele>1908.0</ele><time>2026-03-22T15:12:03Z</time></trkpt><trkpt lat="21.79983550674872" lon="-102.39987227694203"><ele>1908.0000000000002</ele><time>2026-03-22T15:12:04Z</time></trkpt><trkpt lat="21.799856645929395" lon="-102.3997742304294"><ele>1908.0000000000002</ele><time>2026-03-22T15:12:05Z</time></trkpt><trkpt lat="21.799877492191957" lon="-102.3996778584107"><ele>1908.0</ele><time>2026-03-22T15:12:06Z</time></trkpt><trkpt lat="21.79989796715354" lon="-102.39958323206761"><ele>1908.0</ele><time>2026-03-22T15:12:07Z</time></trkpt><trkpt lat="21.799918462101612" lon="-102.3994877108522"><ele>1907.6666666666667</ele><time>2026-03-22T15:12:08Z</time></trkpt><trkpt lat="21.79993903078792" lon="-102.39939358981552"><ele>1907.3333333333335</ele><time>2026-03-22T15:12:09Z</time></trkpt><trkpt lat="21.79995860631992" lon="-102.39930426365171"><ele>1907.0</ele><time>2026-03-22T15:12:10Z</time></trkpt><trkpt lat="21.799979190888045" lon="-102.39921033328079"><ele>1906.6666666666667</ele><time>2026-03-22T15:12:11Z</time></trkpt><trkpt lat="21.800000236831593" lon="-102.39911336104252"><ele>1906.3333333333335</ele><time>2026-03-22T15:12:12Z</time></trkpt><trkpt lat="21.800020724108794" lon="-102.39901831544908"><ele>1906.0</ele><time>2026-03-22T15:12:13Z</time></trkpt><trkpt lat="21.800041680591814" lon="-102.39892109275141"><ele>1905.4</ele><time>2026-03-22T15:12:14Z</time></trkpt><trkpt lat="21.800063797223437" lon="-102.39881925567934"><ele>1904.8</ele><time>2026-03-22T15:12:15Z</time></trkpt><trkpt lat="21.80008558858538" lon="-102.39871929289473"><ele>1904.2000000000003</ele><time>2026-03-22T15:12:16Z</time></trkpt><trkpt lat="21.80010767574548" lon="-102.39861808612427"><ele>1903.6000000000001</ele><time>2026-03-22T15:12:17Z</time></trkpt><trkpt lat="21.800130995698794" lon="-102.3985112724294"><ele>1903.0</ele><time>2026-03-22T15:12:18Z</time></trkpt><trkpt lat="21.80015442666897" lon="-102.39840348233699"><ele>1903.2</ele><time>2026-03-22T15:12:19Z</time></trkpt><trkpt lat="21.800177008586846" lon="-102.39830037124612"><ele>1903.4</ele><time>2026-03-22T15:12:20Z</time></trkpt><trkpt lat="21.800199610914007" lon="-102.3981974436598"><ele>1903.6000000000001</ele><time>2026-03-22T15:12:21Z</time></trkpt><trkpt lat="21.800222397807936" lon="-102.39809367577652"><ele>1903.8000000000002</ele><time>2026-03-22T15:12:22Z</time></trkpt><trkpt lat="21.80024618476683" lon="-102.39798535360093"><ele>1904.0</ele><time>2026-03-22T15:12:23Z</time></trkpt><trkpt lat="21.80027025944022" lon="-102.3978735179323"><ele>1903.5</ele><time>2026-03-22T15:12:24Z</time></trkpt><trkpt lat="21.80029546188471" lon="-102.39775608136358"><ele>1903.0</ele><time>2026-03-22T15:12:25Z</time></trkpt><trkpt lat="21.800320795059385" lon="-102.39763907872104"><ele>1902.5</ele><time>2026-03-22T15:12:26Z</time></trkpt><trkpt lat="21.800348619087398" lon="-102.39751139871771"><ele>1902.0</ele><time>2026-03-22T15:12:27Z</time></trkpt><trkpt lat="21.80037405723721" lon="-102.39739645089247"><ele>1902.0</ele><time>2026-03-22T15:12:28Z</time></trkpt><trkpt lat="21.800399595093513" lon="-102.39727862508683"><ele>1902.0</ele><time>2026-03-22T15:12:29Z</time></trkpt><trkpt lat="21.80042555505817" lon="-102.39715843626132"><ele>1902.0</ele><time>2026-03-22T15:12:30Z</time></trkpt><trkpt lat="21.800451417956893" lon="-102.39703869683"><ele>1902.0</ele><time>2026-03-22T15:12:31Z</time></trkpt><trkpt lat="21.800477756189494" lon="-102.39691843988703"><ele>1901.5</ele><time>2026-03-22T15:12:32Z</time></trkpt><trkpt lat="21.800503487692477" lon="-102.39679884843396"><ele>1901.0</ele><time>2026-03-22T15:12:33Z</time></trkpt><trkpt lat="21.80053063117362" lon="-102.3966738098917"><ele>1900.5</ele><time>2026-03-22T15:12:34Z</time></trkpt><trkpt lat="21.800557369615444" lon="-102.39655208427426"><ele>1900.0</ele><time>2026-03-22T15:12:35Z</time></trkpt><trkpt lat="21.800583393773834" lon="-102.39643226415937"><ele>1899.4</ele><time>2026-03-22T15:12:36Z</time></trkpt><trkpt lat="21.800623638041532" lon="-102.39631761347265"><ele>1898.8</ele><time>2026-03-22T15:12:37Z</time></trkpt><trkpt lat="21.800649231912868" lon="-102.39620000355009"><ele>1898.1999999999998</ele><time>2026-03-22T15:12:38Z</time></trkpt><trkpt lat="21.800674268294372" lon="-102.39608011818353"><ele>1897.6</ele><time>2026-03-22T15:12:39Z</time></trkpt><trkpt lat="21.80068432229321" lon="-102.39596738939802"><ele>1897.0</ele><time>2026-03-22T15:12:40Z</time></trkpt><trkpt lat="21.800709573306776" lon="-102.3958506218349"><ele>1897.0</ele><time>2026-03-22T15:12:41Z</time></trkpt><trkpt lat="21.800734363800892" lon="-102.39573520422509"><ele>1896.9999999999998</ele><time>2026-03-22T15:12:42Z</time></trkpt><trkpt lat="21.800774606647362" lon="-102.39562452753157"><ele>1896.9999999999998</ele><time>2026-03-22T15:12:43Z</time></trkpt><trkpt lat="21.8008001831024" lon="-102.39550836319867"><ele>1897.0</ele><time>2026-03-22T15:12:44Z</time></trkpt><trkpt lat="21.80082876490333" lon="-102.39539373199831"><ele>1897.0</ele><time>2026-03-22T15:12:45Z</time></trkpt><trkpt lat="21.80086157146863" lon="-102.39528345847856"><ele>1897.0</ele><time>2026-03-22T15:12:46Z</time></trkpt><trkpt lat="21.80090202078954" lon="-102.3951720359838"><ele>1897.0</ele><time>2026-03-22T15:12:47Z</time></trkpt><trkpt lat="21.800950253376076" lon="-102.39506030621956"><ele>1897.0</ele><time>2026-03-22T15:12:48Z</time></trkpt><trkpt lat="21.801000695761783" lon="-102.39494733599929"><ele>1897.0</ele><time>2026-03-22T15:12:49Z</time></trkpt><trkpt lat="21.8010527608969" lon="-102.3948384903088"><ele>1896.5</ele><time>2026-03-22T15:12:50Z</time></trkpt><trkpt lat="21.80111122960149" lon="-102.39473049742257"><ele>1896.0</ele><time>2026-03-22T15:12:51Z</time></trkpt><trkpt lat="21.80117487470131" lon="-102.3946290624827"><ele>1895.5</ele><time>2026-03-22T15:12:52Z</time></trkpt><trkpt lat="21.80124562818283" lon="-102.39452083797372"><ele>1895.0</ele><time>2026-03-22T15:12:53Z</time></trkpt><trkpt lat="21.801321832002298" lon="-102.39442183642315"><ele>1893.75</ele><time>2026-03-22T15:12:54Z</time></trkpt><trkpt lat="21.801407144977453" lon="-102.39432996820182"><ele>1892.5</ele><time>2026-03-22T15:12:55Z</time></trkpt><trkpt lat="21.801489527159443" lon="-102.39423396340602"><ele>1891.25</ele><time>2026-03-22T15:12:56Z</time></trkpt><trkpt lat="21.801579730926818" lon="-102.39415104620123"><ele>1890.0</ele><time>2026-03-22T15:12:57Z</time></trkpt><trkpt lat="21.801671660023867" lon="-102.3940633959897"><ele>1890.0</ele><time>2026-03-22T15:12:58Z</time></trkpt><trkpt lat="21.801768928884492" lon="-102.39396739471958"><ele>1890.0</ele><time>2026-03-22T15:12:59Z</time></trkpt><trkpt lat="21.801859680764522" lon="-102.39387176560993"><ele>1890.0</ele><time>2026-03-22T15:13:00Z</time></trkpt><trkpt lat="21.801959010813597" lon="-102.39378439514267"><ele>1890.0</ele><time>2026-03-22T15:13:01Z</time></trkpt><trkpt lat="21.80205729139168" lon="-102.39369498761124"><ele>1887.75</ele><time>2026-03-22T15:13:02Z</time></trkpt><trkpt lat="21.802154411019583" lon="-102.39359709401236"><ele>1885.5</ele><time>2026-03-22T15:13:03Z</time></trkpt><trkpt lat="21.802254186299088" lon="-102.39351004768044"><ele>1883.25</ele><time>2026-03-22T15:13:04Z</time></trkpt><trkpt lat="21.80235571679069" lon="-102.3934172189704"><ele>1881.0</ele><time>2026-03-22T15:13:05Z</time></trkpt><trkpt lat="21.802457297272117" lon="-102.39332260960373"><ele>1881.0</ele><time>2026-03-22T15:13:06Z</time></trkpt><trkpt lat="21.802559978222686" lon="-102.39322607087851"><ele>1881.0</ele><time>2026-03-22T15:13:07Z</time></trkpt><trkpt lat="21.80266315641799" lon="-102.3931308106331"><ele>1881.0</ele><time>2026-03-22T15:13:08Z</time></trkpt><trkpt lat="21.80277349149132" lon="-102.39303680340772"><ele>1881.0</ele><time>2026-03-22T15:13:09Z</time></trkpt><trkpt lat="21.802883403360298" lon="-102.39292892860537"><ele>1878.6666666666665</ele><time>2026-03-22T15:13:10Z</time></trkpt><trkpt lat="21.80299439007905" lon="-102.39282017934"><ele>1876.3333333333333</ele><time>2026-03-22T15:13:11Z</time></trkpt><trkpt lat="21.80310910414319" lon="-102.39271392512578"><ele>1874.0</ele><time>2026-03-22T15:13:12Z</time></trkpt><trkpt lat="21.803211181647786" lon="-102.39259248896323"><ele>1874.0</ele><time>2026-03-22T15:13:13Z</time></trkpt><trkpt lat="21.803332830229273" lon="-102.3924954065287"><ele>1874.0</ele><time>2026-03-22T15:13:14Z</time></trkpt><trkpt lat="21.803444091689105" lon="-102.39238735958277"><ele>1874.0</ele><time>2026-03-22T15:13:15Z</time></trkpt><trkpt lat="21.80355755262416" lon="-102.39228340377413"><ele>1873.25</ele><time>2026-03-22T15:13:16Z</time></trkpt><trkpt lat="21.803670399043135" lon="-102.3921794120714"><ele>1872.5</ele><time>2026-03-22T15:13:17Z</time></trkpt><trkpt lat="21.803780321280737" lon="-102.39207233165413"><ele>1871.75</ele><time>2026-03-22T15:13:18Z</time></trkpt><trkpt lat="21.803895649514907" lon="-102.39196696230029"><ele>1871.0</ele><time>2026-03-22T15:13:19Z</time></trkpt><trkpt lat="21.804011487754156" lon="-102.39186246024975"><ele>1870.0</ele><time>2026-03-22T15:13:20Z</time></trkpt><trkpt lat="21.804127388050127" lon="-102.3917510898418"><ele>1869.0</ele><time>2026-03-22T15:13:21Z</time></trkpt><trkpt lat="21.8042428963426" lon="-102.39164400642461"><ele>1868.0</ele><time>2026-03-22T15:13:22Z</time></trkpt><trkpt lat="21.804355928929173" lon="-102.39154091840157"><ele>1865.3333333333333</ele><time>2026-03-22T15:13:23Z</time></trkpt><trkpt lat="21.804473497507807" lon="-102.3914405314399"><ele>1862.6666666666665</ele><time>2026-03-22T15:13:24Z</time></trkpt><trkpt lat="21.80459079971695" lon="-102.39132946456084"><ele>1860.0</ele><time>2026-03-22T15:13:25Z</time></trkpt><trkpt lat="21.804703235201544" lon="-102.3912255504633"><ele>1859.6666666666665</ele><time>2026-03-22T15:13:26Z</time></trkpt><trkpt lat="21.804817806822424" lon="-102.39111672772948"><ele>1859.3333333333333</ele><time>2026-03-22T15:13:27Z</time></trkpt><trkpt lat="21.804933751936783" lon="-102.3910100855715"><ele>1859.0</ele><time>2026-03-22T15:13:28Z</time></trkpt><trkpt lat="21.805055493656212" lon="-102.39089565507459"><ele>1857.3333333333333</ele><time>2026-03-22T15:13:29Z</time></trkpt><trkpt lat="21.805169858435324" lon="-102.39078412925834"><ele>1855.6666666666665</ele><time>2026-03-22T15:13:30Z</time></trkpt><trkpt lat="21.805290700289405" lon="-102.39067933362986"><ele>1854.0</ele><time>2026-03-22T15:13:31Z</time></trkpt><trkpt lat="21.805408944666297" lon="-102.39056670268111"><ele>1853.0</ele><time>2026-03-22T15:13:32Z</time></trkpt><trkpt lat="21.805526726248623" lon="-102.39045458281"><ele>1852.0</ele><time>2026-03-22T15:13:33Z</time></trkpt><trkpt lat="21.805645252759458" lon="-102.39034537924007"><ele>1851.0</ele><time>2026-03-22T15:13:34Z</time></trkpt><trkpt lat="21.80576199967645" lon="-102.39023125536906"><ele>1851.0</ele><time>2026-03-22T15:13:35Z</time></trkpt><trkpt lat="21.805875069620303" lon="-102.39011226218733"><ele>1851.0</ele><time>2026-03-22T15:13:36Z</time></trkpt><trkpt lat="21.805991391658882" lon="-102.39000404600354"><ele>1851.0</ele><time>2026-03-22T15:13:37Z</time></trkpt><trkpt lat="21.80610987925359" lon="-102.38989348438744"><ele>1850.75</ele><time>2026-03-22T15:13:38Z</time></trkpt><trkpt lat="21.80623126585375" lon="-102.38978463530161"><ele>1850.5</ele><time>2026-03-22T15:13:39Z</time></trkpt><trkpt lat="21.8063404231018" lon="-102.38968379128778"><ele>1850.25</ele><time>2026-03-22T15:13:40Z</time></trkpt><trkpt lat="21.806449165315467" lon="-102.38957719149245"><ele>1850.0</ele><time>2026-03-22T15:13:41Z</time></trkpt><trkpt lat="21.806553756684863" lon="-102.38947277029472"><ele>1849.5</ele><time>2026-03-22T15:13:42Z</time></trkpt><trkpt lat="21.80665508976499" lon="-102.38937635669451"><ele>1849.0</ele><time>2026-03-22T15:13:43Z</time></trkpt><trkpt lat="21.806753695358605" lon="-102.38928119769446"><ele>1848.5</ele><time>2026-03-22T15:13:44Z</time></trkpt><trkpt lat="21.80684420850344" lon="-102.3891895936435"><ele>1848.0</ele><time>2026-03-22T15:13:45Z</time></trkpt><trkpt lat="21.806931606287325" lon="-102.38911156631302"><ele>1848.6000000000001</ele><time>2026-03-22T15:13:46Z</time></trkpt><trkpt lat="21.807025294152194" lon="-102.3890295964269"><ele>1849.2000000000003</ele><time>2026-03-22T15:13:47Z</time></trkpt><trkpt lat="21.80711062381107" lon="-102.3889513446104"><ele>1849.8</ele><time>2026-03-22T15:13:48Z</time></trkpt><trkpt lat="21.807193103186112" lon="-102.3888767036959"><ele>1850.4</ele><time>2026-03-22T15:13:49Z</time></trkpt><trkpt lat="21.807271501412927" lon="-102.38879900416359"><ele>1851.0</ele><time>2026-03-22T15:13:50Z</time></trkpt><trkpt lat="21.80735079044528" lon="-102.3887276866048"><ele>1851.0</ele><time>2026-03-22T15:13:51Z</time></trkpt><trkpt lat="21.807425435404085" lon="-102.38866626234238"><ele>1851.0</ele><time>2026-03-22T15:13:52Z</time></trkpt><trkpt lat="21.80749277280783" lon="-102.38859955423024"><ele>1851.0</ele><time>2026-03-22T15:13:53Z</time></trkpt><trkpt lat="21.807562524308686" lon="-102.38852953519002"><ele>1851.0</ele><time>2026-03-22T15:13:54Z</time></trkpt><trkpt lat="21.807625133011015" lon="-102.38847187580869"><ele>1851.0</ele><time>2026-03-22T15:13:55Z</time></trkpt><trkpt lat="21.807695761650045" lon="-102.38842168253134"><ele>1851.0</ele><time>2026-03-22T15:13:56Z</time></trkpt><trkpt lat="21.807755058945506" lon="-102.38836481928801"><ele>1852.1666666666667</ele><time>2026-03-22T15:13:57Z</time></trkpt><trkpt lat="21.807815648360805" lon="-102.38830804218738"><ele>1853.3333333333335</ele><time>2026-03-22T15:13:58Z</time></trkpt><trkpt lat="21.807869445247537" lon="-102.38825714969006"><ele>1854.5</ele><time>2026-03-22T15:13:59Z</time></trkpt><trkpt lat="21.807918964094384" lon="-102.38820734980602"><ele>1855.6666666666667</ele><time>2026-03-22T15:14:00Z</time></trkpt><trkpt lat="21.807972472844227" lon="-102.3881611676641"><ele>1856.8333333333335</ele><time>2026-03-22T15:14:01Z</time></trkpt><trkpt lat="21.808023221819187" lon="-102.38811601653525"><ele>1858.0</ele><time>2026-03-22T15:14:02Z</time></trkpt><trkpt lat="21.80811139907854" lon="-102.38803133305505"><ele>1857.8000000000002</ele><time>2026-03-22T15:14:04Z</time></trkpt><trkpt lat="21.808197418230932" lon="-102.38794550511754"><ele>1857.6000000000001</ele><time>2026-03-22T15:14:06Z</time></trkpt><trkpt lat="21.808279323084726" lon="-102.38787715381407"><ele>1857.3999999999999</ele><time>2026-03-22T15:14:08Z</time></trkpt><trkpt lat="21.80835326169474" lon="-102.38781221065894"><ele>1857.1999999999998</ele><time>2026-03-22T15:14:10Z</time></trkpt><trkpt lat="21.808421419340828" lon="-102.38775054287363"><ele>1857.0</ele><time>2026-03-22T15:14:12Z</time></trkpt><trkpt lat="21.808512414696594" lon="-102.38767019924555"><ele>1857.8</ele><time>2026-03-22T15:14:15Z</time></trkpt><trkpt lat="21.80859611880224" lon="-102.38758564389668"><ele>1858.6</ele><time>2026-03-22T15:14:17Z</time></trkpt><trkpt lat="21.808665992375673" lon="-102.38751286850717"><ele>1859.3999999999999</ele><time>2026-03-22T15:14:19Z</time></trkpt><trkpt lat="21.80875620420156" lon="-102.38744174088144"><ele>1860.1999999999998</ele><time>2026-03-22T15:14:21Z</time></trkpt><trkpt lat="21.808812413018757" lon="-102.38739948482404"><ele>1861.0</ele><time>2026-03-22T15:14:24Z</time></trkpt><trkpt lat="21.808874111648805" lon="-102.38733843192529"><ele>1861.0</ele><time>2026-03-22T15:14:25Z</time></trkpt><trkpt lat="21.808941940004228" lon="-102.38726925385072"><ele>1861.0</ele><time>2026-03-22T15:14:27Z</time></trkpt><trkpt lat="21.809009092702823" lon="-102.38721124279499"><ele>1861.0</ele><time>2026-03-22T15:14:28Z</time></trkpt><trkpt lat="21.809090338787893" lon="-102.38713576369472"><ele>1861.0</ele><time>2026-03-22T15:14:30Z</time></trkpt><trkpt lat="21.80917600851479" lon="-102.38705315798276"><ele>1861.0</ele><time>2026-03-22T15:14:32Z</time></trkpt><trkpt lat="21.809258362945883" lon="-102.38695862010094"><ele>1861.0000000000002</ele><time>2026-03-22T15:14:34Z</time></trkpt><trkpt lat="21.809349285920096" lon="-102.38687324935519"><ele>1861.0</ele><time>2026-03-22T15:14:36Z</time></trkpt><trkpt lat="21.8093972454687" lon="-102.38682831666505"><ele>1861.0</ele><time>2026-03-22T15:14:37Z</time></trkpt><trkpt lat="21.809445783824046" lon="-102.38678282825535"><ele>1861.0</ele><time>2026-03-22T15:14:38Z</time></trkpt><trkpt lat="21.809497636753424" lon="-102.38673462614271"><ele>1861.0000000000002</ele><time>2026-03-22T15:14:39Z</time></trkpt><trkpt lat="21.809548342681683" lon="-102.38668767470115"><ele>1861.0</ele><time>2026-03-22T15:14:40Z</time></trkpt><trkpt lat="21.809601181977698" lon="-102.3866395574647"><ele>1861.0000000000002</ele><time>2026-03-22T15:14:41Z</time></trkpt><trkpt lat="21.809656336097543" lon="-102.38658858317639"><ele>1861.0</ele><time>2026-03-22T15:14:42Z</time></trkpt><trkpt lat="21.809709007992236" lon="-102.38654073902809"><ele>1861.0</ele><time>2026-03-22T15:14:43Z</time></trkpt><trkpt lat="21.809766213050516" lon="-102.38648815719078"><ele>1861.0</ele><time>2026-03-22T15:14:44Z</time></trkpt><trkpt lat="21.809824643493542" lon="-102.38643444900416"><ele>1861.0000000000002</ele><time>2026-03-22T15:14:45Z</time></trkpt><trkpt lat="21.80988725580781" lon="-102.38637685898647"><ele>1861.0</ele><time>2026-03-22T15:14:46Z</time></trkpt><trkpt lat="21.809951869810156" lon="-102.38631707516407"><ele>1860.8333333333335</ele><time>2026-03-22T15:14:47Z</time></trkpt><trkpt lat="21.810016754353267" lon="-102.38625704102469"><ele>1860.6666666666667</ele><time>2026-03-22T15:14:48Z</time></trkpt><trkpt lat="21.810081665883345" lon="-102.38619698191499"><ele>1860.5</ele><time>2026-03-22T15:14:49Z</time></trkpt><trkpt lat="21.810146383254892" lon="-102.38613710245275"><ele>1860.3333333333335</ele><time>2026-03-22T15:14:50Z</time></trkpt><trkpt lat="21.810206000481344" lon="-102.38608194187155"><ele>1860.1666666666667</ele><time>2026-03-22T15:14:51Z</time></trkpt><trkpt lat="21.810271095277496" lon="-102.38602171319808"><ele>1860.0</ele><time>2026-03-22T15:14:52Z</time></trkpt><trkpt lat="21.810334193192624" lon="-102.38596333212523"><ele>1860.0</ele><time>2026-03-22T15:14:53Z</time></trkpt><trkpt lat="21.810399218816208" lon="-102.38590327595907"><ele>1860.0</ele><time>2026-03-22T15:14:54Z</time></trkpt><trkpt lat="21.810465542218612" lon="-102.38584205434994"><ele>1860.0</ele><time>2026-03-22T15:14:55Z</time></trkpt><trkpt lat="21.810534650549872" lon="-102.38577797508823"><ele>1860.0</ele><time>2026-03-22T15:14:56Z</time></trkpt><trkpt lat="21.81061257212174" lon="-102.38572737788677"><ele>1860.0</ele><time>2026-03-22T15:14:57Z</time></trkpt><trkpt lat="21.810679441857513" lon="-102.38566345594464"><ele>1860.0</ele><time>2026-03-22T15:14:58Z</time></trkpt><trkpt lat="21.810747037179087" lon="-102.38559813628723"><ele>1860.0</ele><time>2026-03-22T15:14:59Z</time></trkpt><trkpt lat="21.810813742198476" lon="-102.38553746880824"><ele>1860.0</ele><time>2026-03-22T15:15:00Z</time></trkpt><trkpt lat="21.81086558999894" lon="-102.38546908733457"><ele>1860.0</ele><time>2026-03-22T15:15:01Z</time></trkpt><trkpt lat="21.810931202616388" lon="-102.38540767974362"><ele>1860.0</ele><time>2026-03-22T15:15:02Z</time></trkpt><trkpt lat="21.8110043820358" lon="-102.38535901565089"><ele>1860.0</ele><time>2026-03-22T15:15:03Z</time></trkpt><trkpt lat="21.811067203598192" lon="-102.38529971455723"><ele>1860.0</ele><time>2026-03-22T15:15:04Z</time></trkpt><trkpt lat="21.811133529994606" lon="-102.385239328216"><ele>1859.4</ele><time>2026-03-22T15:15:05Z</time></trkpt><trkpt lat="21.81118925419609" lon="-102.38516520056943"><ele>1858.8</ele><time>2026-03-22T15:15:06Z</time></trkpt><trkpt lat="21.811252750769494" lon="-102.3851055811891"><ele>1858.1999999999998</ele><time>2026-03-22T15:15:07Z</time></trkpt><trkpt lat="21.811323650523725" lon="-102.38503901068405"><ele>1857.6</ele><time>2026-03-22T15:15:08Z</time></trkpt><trkpt lat="21.811401171350703" lon="-102.38498335956511"><ele>1857.0</ele><time>2026-03-22T15:15:09Z</time></trkpt><trkpt lat="21.811471303934514" lon="-102.38492171369242"><ele>1857.0</ele><time>2026-03-22T15:15:10Z</time></trkpt><trkpt lat="21.811538778282635" lon="-102.38485413121929"><ele>1856.9999999999998</ele><time>2026-03-22T15:15:11Z</time></trkpt><trkpt lat="21.81161123882063" lon="-102.38478062783821"><ele>1856.9999999999998</ele><time>2026-03-22T15:15:12Z</time></trkpt><trkpt lat="21.811680166352357" lon="-102.38471100889622"><ele>1857.0</ele><time>2026-03-22T15:15:13Z</time></trkpt><trkpt lat="21.81175066495387" lon="-102.38464859879547"><ele>1857.0</ele><time>2026-03-22T15:15:14Z</time></trkpt><trkpt lat="21.81182065705144" lon="-102.384583507453"><ele>1856.3999999999999</ele><time>2026-03-22T15:15:15Z</time></trkpt><trkpt lat="21.811895051093256" lon="-102.38451792419173"><ele>1855.7999999999997</ele><time>2026-03-22T15:15:16Z</time></trkpt><trkpt lat="21.811966765655175" lon="-102.38444728555721"><ele>1855.2</ele><time>2026-03-22T15:15:17Z</time></trkpt><trkpt lat="21.81203613073053" lon="-102.38437610889932"><ele>1854.6</ele><time>2026-03-22T15:15:18Z</time></trkpt><trkpt lat="21.81210604801938" lon="-102.38430323973125"><ele>1854.0</ele><time>2026-03-22T15:15:19Z</time></trkpt><trkpt lat="21.81217845573759" lon="-102.38424137134524"><ele>1854.0</ele><time>2026-03-22T15:15:20Z</time></trkpt><trkpt lat="21.81225335043387" lon="-102.38417111466876"><ele>1854.0</ele><time>2026-03-22T15:15:21Z</time></trkpt><trkpt lat="21.812327108645682" lon="-102.38409901879764"><ele>1854.0</ele><time>2026-03-22T15:15:22Z</time></trkpt><trkpt lat="21.812402490762516" lon="-102.38402692744339"><ele>1854.0</ele><time>2026-03-22T15:15:23Z</time></trkpt><trkpt lat="21.81247797505138" lon="-102.38396001526097"><ele>1854.0</ele><time>2026-03-22T15:15:24Z</time></trkpt><trkpt lat="21.812554500003962" lon="-102.38389061084843"><ele>1854.0</ele><time>2026-03-22T15:15:25Z</time></trkpt><trkpt lat="21.812630877662162" lon="-102.38381879849851"><ele>1854.0</ele><time>2026-03-22T15:15:26Z</time></trkpt><trkpt lat="21.812701403169722" lon="-102.38374746313679"><ele>1854.0</ele><time>2026-03-22T15:15:27Z</time></trkpt><trkpt lat="21.812775534307278" lon="-102.38367658580226"><ele>1854.0</ele><time>2026-03-22T15:15:28Z</time></trkpt><trkpt lat="21.81285092556266" lon="-102.38360624671498"><ele>1854.0</ele><time>2026-03-22T15:15:29Z</time></trkpt><trkpt lat="21.812928178106453" lon="-102.38353442426514"><ele>1854.0</ele><time>2026-03-22T15:15:30Z</time></trkpt><trkpt lat="21.813000333469517" lon="-102.3834602787886"><ele>1854.0</ele><time>2026-03-22T15:15:31Z</time></trkpt><trkpt lat="21.813081368950833" lon="-102.38338748332103"><ele>1854.0</ele><time>2026-03-22T15:15:32Z</time></trkpt><trkpt lat="21.813161229661443" lon="-102.38331800847905"><ele>1854.0</ele><time>2026-03-22T15:15:33Z</time></trkpt><trkpt lat="21.813240835519395" lon="-102.3832427712267"><ele>1854.0</ele><time>2026-03-22T15:15:34Z</time></trkpt><trkpt lat="21.813316357368663" lon="-102.38316617605918"><ele>1854.0</ele><time>2026-03-22T15:15:35Z</time></trkpt><trkpt lat="21.813395908081535" lon="-102.38309048228363"><ele>1854.0</ele><time>2026-03-22T15:15:36Z</time></trkpt><trkpt lat="21.81347807691272" lon="-102.3830147452897"><ele>1854.0</ele><time>2026-03-22T15:15:37Z</time></trkpt><trkpt lat="21.813562177743883" lon="-102.38294571824099"><ele>1854.0</ele><time>2026-03-22T15:15:38Z</time></trkpt><trkpt lat="21.813643625570528" lon="-102.38286525366654"><ele>1854.0</ele><time>2026-03-22T15:15:39Z</time></trkpt><trkpt lat="21.81372775903595" lon="-102.38279152205381"><ele>1853.2</ele><time>2026-03-22T15:15:40Z</time></trkpt><trkpt lat="21.813807912822483" lon="-102.38271388679831"><ele>1852.4</ele><time>2026-03-22T15:15:41Z</time></trkpt><trkpt lat="21.813887825756783" lon="-102.38263519680017"><ele>1851.6</ele><time>2026-03-22T15:15:42Z</time></trkpt><trkpt lat="21.81396328960174" lon="-102.3825657491059"><ele>1850.8</ele><time>2026-03-22T15:15:43Z</time></trkpt><trkpt lat="21.814044868197946" lon="-102.38249557920489"><ele>1850.0</ele><time>2026-03-22T15:15:44Z</time></trkpt><trkpt lat="21.8141288402496" lon="-102.38241750509829"><ele>1850.0</ele><time>2026-03-22T15:15:45Z</time></trkpt><trkpt lat="21.814211505783227" lon="-102.38233457880136"><ele>1850.0</ele><time>2026-03-22T15:15:46Z</time></trkpt><trkpt lat="21.81429168127631" lon="-102.38225543689673"><ele>1850.0</ele><time>2026-03-22T15:15:47Z</time></trkpt><trkpt lat="21.814377530896305" lon="-102.38217547544447"><ele>1850.0</ele><time>2026-03-22T15:15:48Z</time></trkpt><trkpt lat="21.814461933610733" lon="-102.3820967840827"><ele>1850.0</ele><time>2026-03-22T15:15:49Z</time></trkpt><trkpt lat="21.814549843490415" lon="-102.3820196098779"><ele>1849.5</ele><time>2026-03-22T15:15:50Z</time></trkpt><trkpt lat="21.814634565938523" lon="-102.38194064606716"><ele>1849.0</ele><time>2026-03-22T15:15:51Z</time></trkpt><trkpt lat="21.814718950562444" lon="-102.38186170528381"><ele>1848.5</ele><time>2026-03-22T15:15:52Z</time></trkpt><trkpt lat="21.814804900338125" lon="-102.3817806312856"><ele>1848.0</ele><time>2026-03-22T15:15:53Z</time></trkpt><trkpt lat="21.814889036648257" lon="-102.38169927027931"><ele>1848.0</ele><time>2026-03-22T15:15:54Z</time></trkpt><trkpt lat="21.81497504648888" lon="-102.3816172695542"><ele>1848.0</ele><time>2026-03-22T15:15:55Z</time></trkpt><trkpt lat="21.81506524231485" lon="-102.38152554306905"><ele>1848.0</ele><time>2026-03-22T15:15:56Z</time></trkpt><trkpt lat="21.815159176547372" lon="-102.38143284354962"><ele>1848.0</ele><time>2026-03-22T15:15:57Z</time></trkpt><trkpt lat="21.81525293177955" lon="-102.38134456628416"><ele>1847.25</ele><time>2026-03-22T15:15:58Z</time></trkpt><trkpt lat="21.815346441295613" lon="-102.38125043130667"><ele>1846.5</ele><time>2026-03-22T15:15:59Z</time></trkpt><trkpt lat="21.815441522311772" lon="-102.3811595643232"><ele>1845.75</ele><time>2026-03-22T15:16:00Z</time></trkpt><trkpt lat="21.815536136229944" lon="-102.38107498603351"><ele>1845.0</ele><time>2026-03-22T15:16:01Z</time></trkpt><trkpt lat="21.815629703035107" lon="-102.38098226455261"><ele>1845.0</ele><time>2026-03-22T15:16:02Z</time></trkpt><trkpt lat="21.815723091681445" lon="-102.38090143654013"><ele>1845.0</ele><time>2026-03-22T15:16:03Z</time></trkpt><trkpt lat="21.81581540088308" lon="-102.38081517463786"><ele>1845.0</ele><time>2026-03-22T15:16:04Z</time></trkpt><trkpt lat="21.81590473907873" lon="-102.38073234736976"><ele>1845.0</ele><time>2026-03-22T15:16:05Z</time></trkpt><trkpt lat="21.815990876020724" lon="-102.38064627209"><ele>1845.5</ele><time>2026-03-22T15:16:06Z</time></trkpt><trkpt lat="21.816076019568523" lon="-102.38056447917292"><ele>1846.0</ele><time>2026-03-22T15:16:07Z</time></trkpt><trkpt lat="21.816164224149475" lon="-102.3804821659403"><ele>1846.5</ele><time>2026-03-22T15:16:08Z</time></trkpt><trkpt lat="21.816255261029333" lon="-102.38040467047917"><ele>1847.0</ele><time>2026-03-22T15:16:09Z</time></trkpt><trkpt lat="21.816337895596938" lon="-102.38032954998859"><ele>1846.1999999999998</ele><time>2026-03-22T15:16:10Z</time></trkpt><trkpt lat="21.816427818746728" lon="-102.38026368255893"><ele>1845.3999999999999</ele><time>2026-03-22T15:16:11Z</time></trkpt><trkpt lat="21.816520307196583" lon="-102.38019689501407"><ele>1844.6000000000001</ele><time>2026-03-22T15:16:12Z</time></trkpt><trkpt lat="21.81660543256924" lon="-102.38012744849918"><ele>1843.8000000000002</ele><time>2026-03-22T15:16:13Z</time></trkpt><trkpt lat="21.81669204378331" lon="-102.38006280685502"><ele>1843.0</ele><time>2026-03-22T15:16:14Z</time></trkpt><trkpt lat="21.816778080172174" lon="-102.3799978639041"><ele>1844.0</ele><time>2026-03-22T15:16:15Z</time></trkpt><trkpt lat="21.81686369409254" lon="-102.37993532599893"><ele>1845.0000000000002</ele><time>2026-03-22T15:16:16Z</time></trkpt><trkpt lat="21.8169483689526" lon="-102.37988295599024"><ele>1846.0000000000002</ele><time>2026-03-22T15:16:17Z</time></trkpt><trkpt lat="21.81703218414328" lon="-102.37983301315502"><ele>1847.0</ele><time>2026-03-22T15:16:18Z</time></trkpt><trkpt lat="21.817118921126273" lon="-102.37978864704924"><ele>1848.0</ele><time>2026-03-22T15:16:19Z</time></trkpt><trkpt lat="21.81720666262901" lon="-102.37974405640855"><ele>1848.0</ele><time>2026-03-22T15:16:20Z</time></trkpt><trkpt lat="21.817285804243795" lon="-102.37971566288594"><ele>1848.0</ele><time>2026-03-22T15:16:21Z</time></trkpt><trkpt lat="21.817356516099668" lon="-102.37965770767609"><ele>1848.0</ele><time>2026-03-22T15:16:22Z</time></trkpt><trkpt lat="21.81743010568095" lon="-102.37961886197834"><ele>1848.0</ele><time>2026-03-22T15:16:23Z</time></trkpt><trkpt lat="21.8175070230735" lon="-102.37959944576879"><ele>1848.0</ele><time>2026-03-22T15:16:24Z</time></trkpt><trkpt lat="21.81757548268485" lon="-102.37956043225466"><ele>1848.0</ele><time>2026-03-22T15:16:25Z</time></trkpt><trkpt lat="21.81764278005128" lon="-102.37952169779064"><ele>1848.3333333333333</ele><time>2026-03-22T15:16:26Z</time></trkpt><trkpt lat="21.81770653449011" lon="-102.3794958324735"><ele>1848.6666666666665</ele><time>2026-03-22T15:16:27Z</time></trkpt><trkpt lat="21.817765932301892" lon="-102.37947191040979"><ele>1849.0</ele><time>2026-03-22T15:16:28Z</time></trkpt><trkpt lat="21.817823912918236" lon="-102.37943846635527"><ele>1849.3333333333333</ele><time>2026-03-22T15:16:29Z</time></trkpt><trkpt lat="21.8179365526285" lon="-102.37938883006372"><ele>1849.6666666666665</ele><time>2026-03-22T15:16:31Z</time></trkpt><trkpt lat="21.81799666220387" lon="-102.37935807971404"><ele>1850.0</ele><time>2026-03-22T15:16:32Z</time></trkpt><trkpt lat="21.818100192291663" lon="-102.37930036008653"><ele>1849.9999999999998</ele><time>2026-03-22T15:16:34Z</time></trkpt><trkpt lat="21.81821476853338" lon="-102.37923621181375"><ele>1850.0</ele><time>2026-03-22T15:16:36Z</time></trkpt><trkpt lat="21.818274277486303" lon="-102.37920925872722"><ele>1850.0</ele><time>2026-03-22T15:16:37Z</time></trkpt><trkpt lat="21.818334201259383" lon="-102.3791790545217"><ele>1850.0</ele><time>2026-03-22T15:16:38Z</time></trkpt><trkpt lat="21.81839113600803" lon="-102.37914880605251"><ele>1849.9999999999998</ele><time>2026-03-22T15:16:39Z</time></trkpt><trkpt lat="21.81849422502891" lon="-102.37910002087666"><ele>1850.0</ele><time>2026-03-22T15:16:41Z</time></trkpt><trkpt lat="21.818605712896048" lon="-102.37905328463576"><ele>1850.5</ele><time>2026-03-22T15:16:43Z</time></trkpt><trkpt lat="21.818718321316407" lon="-102.37900526406598"><ele>1851.0</ele><time>2026-03-22T15:16:45Z</time></trkpt><trkpt lat="21.818826232972057" lon="-102.37894817355615"><ele>1851.5</ele><time>2026-03-22T15:16:47Z</time></trkpt><trkpt lat="21.81893841815904" lon="-102.37889299251539"><ele>1852.0</ele><time>2026-03-22T15:16:49Z</time></trkpt><trkpt lat="21.819049586248813" lon="-102.37883848963892"><ele>1851.75</ele><time>2026-03-22T15:16:51Z</time></trkpt><trkpt lat="21.819164689691107" lon="-102.37878582782574"><ele>1851.5</ele><time>2026-03-22T15:16:53Z</time></trkpt><trkpt lat="21.819273730204554" lon="-102.37873151804682"><ele>1851.25</ele><time>2026-03-22T15:16:55Z</time></trkpt><trkpt lat="21.819370875632963" lon="-102.37867839351573"><ele>1851.0</ele><time>2026-03-22T15:16:57Z</time></trkpt><trkpt lat="21.819479352230672" lon="-102.3786276024544"><ele>1851.0</ele><time>2026-03-22T15:16:59Z</time></trkpt><trkpt lat="21.819587426047683" lon="-102.37857075855382"><ele>1851.0</ele><time>2026-03-22T15:17:01Z</time></trkpt><trkpt lat="21.819695156752438" lon="-102.37851750518644"><ele>1851.0</ele><time>2026-03-22T15:17:03Z</time></trkpt><trkpt lat="21.81980766338749" lon="-102.37845966986328"><ele>1851.0</ele><time>2026-03-22T15:17:05Z</time></trkpt><trkpt lat="21.819917015573942" lon="-102.37840568447278"><ele>1851.0</ele><time>2026-03-22T15:17:07Z</time></trkpt><trkpt lat="21.820033162794708" lon="-102.37835719873144"><ele>1851.0</ele><time>2026-03-22T15:17:09Z</time></trkpt><trkpt lat="21.820141842286898" lon="-102.37829817595238"><ele>1851.0</ele><time>2026-03-22T15:17:11Z</time></trkpt><trkpt lat="21.820245897285293" lon="-102.37822933863052"><ele>1851.0</ele><time>2026-03-22T15:17:13Z</time></trkpt><trkpt lat="21.820303999039933" lon="-102.37820218965751"><ele>1851.0</ele><time>2026-03-22T15:17:14Z</time></trkpt><trkpt lat="21.820363581763523" lon="-102.37817763771457"><ele>1851.75</ele><time>2026-03-22T15:17:15Z</time></trkpt><trkpt lat="21.820473325381165" lon="-102.37812527234934"><ele>1852.5</ele><time>2026-03-22T15:17:17Z</time></trkpt><trkpt lat="21.820571148190535" lon="-102.37807145364712"><ele>1853.25</ele><time>2026-03-22T15:17:19Z</time></trkpt><trkpt lat="21.820675496995612" lon="-102.37802063390541"><ele>1854.0</ele><time>2026-03-22T15:17:21Z</time></trkpt><trkpt lat="21.820780287819876" lon="-102.3779701501833"><ele>1853.2</ele><time>2026-03-22T15:17:23Z</time></trkpt><trkpt lat="21.820891194668533" lon="-102.37792275599327"><ele>1852.4</ele><time>2026-03-22T15:17:25Z</time></trkpt><trkpt lat="21.821005962747037" lon="-102.37787994799083"><ele>1851.6</ele><time>2026-03-22T15:17:27Z</time></trkpt><trkpt lat="21.8210661397373" lon="-102.37785565052006"><ele>1850.8</ele><time>2026-03-22T15:17:28Z</time></trkpt><trkpt lat="21.82118084917789" lon="-102.37781437046343"><ele>1850.0</ele><time>2026-03-22T15:17:30Z</time></trkpt><trkpt lat="21.821301347401825" lon="-102.37778103570113"><ele>1850.0</ele><time>2026-03-22T15:17:32Z</time></trkpt><trkpt lat="21.82136320441445" lon="-102.37776339733037"><ele>1850.0</ele><time>2026-03-22T15:17:33Z</time></trkpt><trkpt lat="21.821482104051846" lon="-102.37772958791172"><ele>1850.0</ele><time>2026-03-22T15:17:35Z</time></trkpt><trkpt lat="21.821595964282245" lon="-102.37770806159214"><ele>1850.0</ele><time>2026-03-22T15:17:37Z</time></trkpt><trkpt lat="21.8217086565014" lon="-102.37768403416193"><ele>1850.0</ele><time>2026-03-22T15:17:39Z</time></trkpt><trkpt lat="21.821817526446164" lon="-102.37766743948619"><ele>1850.75</ele><time>2026-03-22T15:17:41Z</time></trkpt><trkpt lat="21.82192922801322" lon="-102.37764919168764"><ele>1851.5</ele><time>2026-03-22T15:17:43Z</time></trkpt><trkpt lat="21.82204453928417" lon="-102.37764029146759"><ele>1852.25</ele><time>2026-03-22T15:17:45Z</time></trkpt><trkpt lat="21.822163757705976" lon="-102.37762972244396"><ele>1853.0</ele><time>2026-03-22T15:17:47Z</time></trkpt><trkpt lat="21.82228571237269" lon="-102.3776119762619"><ele>1853.0</ele><time>2026-03-22T15:17:49Z</time></trkpt><trkpt lat="21.82240820571221" lon="-102.37759906888189"><ele>1853.0000000000002</ele><time>2026-03-22T15:17:51Z</time></trkpt><trkpt lat="21.82252808655668" lon="-102.37757763134971"><ele>1853.0000000000002</ele><time>2026-03-22T15:17:53Z</time></trkpt><trkpt lat="21.82259070273333" lon="-102.37756787275283"><ele>1853.0</ele><time>2026-03-22T15:17:54Z</time></trkpt><trkpt lat="21.822703463195335" lon="-102.377559769617"><ele>1853.0</ele><time>2026-03-22T15:17:56Z</time></trkpt><trkpt lat="21.822819834234956" lon="-102.37755459405899"><ele>1853.0</ele><time>2026-03-22T15:17:58Z</time></trkpt><trkpt lat="21.822937237525917" lon="-102.37754358605426"><ele>1853.0000000000002</ele><time>2026-03-22T15:18:00Z</time></trkpt><trkpt lat="21.823058191342735" lon="-102.37753527651434"><ele>1853.0000000000002</ele><time>2026-03-22T15:18:02Z</time></trkpt><trkpt lat="21.82318378450401" lon="-102.37752639634084"><ele>1853.0</ele><time>2026-03-22T15:18:04Z</time></trkpt><trkpt lat="21.82324957647229" lon="-102.37751808526785"><ele>1853.0</ele><time>2026-03-22T15:18:05Z</time></trkpt><trkpt lat="21.82332104307529" lon="-102.37750766046422"><ele>1853.0</ele><time>2026-03-22T15:18:06Z</time></trkpt><trkpt lat="21.823389474347902" lon="-102.37749813391173"><ele>1853.0</ele><time>2026-03-22T15:18:07Z</time></trkpt><trkpt lat="21.823465675745176" lon="-102.37748568821766"><ele>1853.0</ele><time>2026-03-22T15:18:08Z</time></trkpt><trkpt lat="21.823536048019495" lon="-102.37748436023905"><ele>1853.0</ele><time>2026-03-22T15:18:09Z</time></trkpt><trkpt lat="21.82360891196666" lon="-102.37748081805847"><ele>1853.0</ele><time>2026-03-22T15:18:10Z</time></trkpt><trkpt lat="21.82368392847268" lon="-102.37747513393371"><ele>1853.0</ele><time>2026-03-22T15:18:11Z</time></trkpt><trkpt lat="21.823767271621634" lon="-102.37745810793194"><ele>1853.0</ele><time>2026-03-22T15:18:12Z</time></trkpt><trkpt lat="21.823850861885216" lon="-102.37745332474259"><ele>1852.0</ele><time>2026-03-22T15:18:13Z</time></trkpt><trkpt lat="21.823944369831374" lon="-102.37744405939249"><ele>1851.0000000000002</ele><time>2026-03-22T15:18:14Z</time></trkpt><trkpt lat="21.824045432543812" lon="-102.37743435074408"><ele>1850.0000000000002</ele><time>2026-03-22T15:18:15Z</time></trkpt><trkpt lat="21.82414995871819" lon="-102.3774170865104"><ele>1849.0</ele><time>2026-03-22T15:18:16Z</time></trkpt><trkpt lat="21.824258865238157" lon="-102.37740592365178"><ele>1848.0</ele><time>2026-03-22T15:18:17Z</time></trkpt><trkpt lat="21.82437358935362" lon="-102.37739219149015"><ele>1847.0</ele><time>2026-03-22T15:18:18Z</time></trkpt><trkpt lat="21.824494851448385" lon="-102.3773796828402"><ele>1846.0</ele><time>2026-03-22T15:18:19Z</time></trkpt><trkpt lat="21.82461740317902" lon="-102.37736818015449"><ele>1845.0</ele><time>2026-03-22T15:18:20Z</time></trkpt><trkpt lat="21.824742389839464" lon="-102.37735092608915"><ele>1844.0</ele><time>2026-03-22T15:18:21Z</time></trkpt><trkpt lat="21.82487449607059" lon="-102.37733569389593"><ele>1844.0</ele><time>2026-03-22T15:18:22Z</time></trkpt><trkpt lat="21.82500439053182" lon="-102.3773255723193"><ele>1844.0</ele><time>2026-03-22T15:18:23Z</time></trkpt><trkpt lat="21.825130792637214" lon="-102.37732028306337"><ele>1844.0</ele><time>2026-03-22T15:18:24Z</time></trkpt><trkpt lat="21.8252562138807" lon="-102.37730681226469"><ele>1844.0</ele><time>2026-03-22T15:18:25Z</time></trkpt><trkpt lat="21.82537637951087" lon="-102.37730252487002"><ele>1844.0</ele><time>2026-03-22T15:18:26Z</time></trkpt><trkpt lat="21.825484782985065" lon="-102.37729795504227"><ele>1844.0</ele><time>2026-03-22T15:18:27Z</time></trkpt><trkpt lat="21.82559519447651" lon="-102.377293299973"><ele>1844.0</ele><time>2026-03-22T15:18:28Z</time></trkpt><trkpt lat="21.825698787793815" lon="-102.3772760489803"><ele>1844.0</ele><time>2026-03-22T15:18:29Z</time></trkpt><trkpt lat="21.825802494492024" lon="-102.37726300276675"><ele>1844.0</ele><time>2026-03-22T15:18:30Z</time></trkpt><trkpt lat="21.82589233085142" lon="-102.37724779536074"><ele>1843.9999999999998</ele><time>2026-03-22T15:18:31Z</time></trkpt><trkpt lat="21.825969468856965" lon="-102.37725470918534"><ele>1844.0</ele><time>2026-03-22T15:18:32Z</time></trkpt><trkpt lat="21.82604619140765" lon="-102.37725910995952"><ele>1844.0</ele><time>2026-03-22T15:18:33Z</time></trkpt><trkpt lat="21.826114399381833" lon="-102.37723484076734"><ele>1844.0</ele><time>2026-03-22T15:18:34Z</time></trkpt><trkpt lat="21.82618163296058" lon="-102.37722981871659"><ele>1843.9999999999998</ele><time>2026-03-22T15:18:35Z</time></trkpt><trkpt lat="21.826246431051057" lon="-102.37722091850907"><ele>1844.0</ele><time>2026-03-22T15:18:36Z</time></trkpt><trkpt lat="21.82636808037686" lon="-102.3772082243014"><ele>1844.75</ele><time>2026-03-22T15:18:38Z</time></trkpt><trkpt lat="21.826491017611346" lon="-102.3771974825905"><ele>1845.5</ele><time>2026-03-22T15:18:40Z</time></trkpt><trkpt lat="21.826601454236396" lon="-102.37720311468725"><ele>1846.25</ele><time>2026-03-22T15:18:42Z</time></trkpt><trkpt lat="21.82672056530026" lon="-102.37719663416954"><ele>1847.0</ele><time>2026-03-22T15:18:44Z</time></trkpt><trkpt lat="21.82683584560005" lon="-102.37718677058386"><ele>1848.1999999999998</ele><time>2026-03-22T15:18:46Z</time></trkpt><trkpt lat="21.826949197313134" lon="-102.37718246844096"><ele>1849.3999999999999</ele><time>2026-03-22T15:18:48Z</time></trkpt><trkpt lat="21.827056264820516" lon="-102.37716749789963"><ele>1850.6000000000001</ele><time>2026-03-22T15:18:50Z</time></trkpt><trkpt lat="21.827166340318378" lon="-102.3771559845265"><ele>1851.8000000000002</ele><time>2026-03-22T15:18:52Z</time></trkpt><trkpt lat="21.82727170566585" lon="-102.3771482624758"><ele>1853.0</ele><time>2026-03-22T15:18:54Z</time></trkpt><trkpt lat="21.827370519990218" lon="-102.37714320640232"><ele>1853.0</ele><time>2026-03-22T15:18:56Z</time></trkpt><trkpt lat="21.827492240617364" lon="-102.37713694898939"><ele>1853.0000000000002</ele><time>2026-03-22T15:18:59Z</time></trkpt><trkpt lat="21.827581795093995" lon="-102.37713360364602"><ele>1853.0000000000002</ele><time>2026-03-22T15:19:01Z</time></trkpt><trkpt lat="21.82767617207261" lon="-102.37712429403607"><ele>1853.0</ele><time>2026-03-22T15:19:03Z</time></trkpt><trkpt lat="21.8277595405359" lon="-102.37711291001946"><ele>1853.0</ele><time>2026-03-22T15:19:05Z</time></trkpt><trkpt lat="21.827855424249403" lon="-102.37710331387325"><ele>1853.6000000000001</ele><time>2026-03-22T15:19:07Z</time></trkpt><trkpt lat="21.827947095322056" lon="-102.3770969560533"><ele>1854.2000000000003</ele><time>2026-03-22T15:19:09Z</time></trkpt><trkpt lat="21.8280400604347" lon="-102.37709362148587"><ele>1854.8</ele><time>2026-03-22T15:19:11Z</time></trkpt><trkpt lat="21.82813013077412" lon="-102.37708102201876"><ele>1855.4</ele><time>2026-03-22T15:19:13Z</time></trkpt><trkpt lat="21.828226381437347" lon="-102.37706433399664"><ele>1856.0</ele><time>2026-03-22T15:19:15Z</time></trkpt><trkpt lat="21.82832150092751" lon="-102.37705078123228"><ele>1856.0</ele><time>2026-03-22T15:19:17Z</time></trkpt><trkpt lat="21.82842758339228" lon="-102.37703393509362"><ele>1856.0</ele><time>2026-03-22T15:19:19Z</time></trkpt><trkpt lat="21.828532012675968" lon="-102.37701926688783"><ele>1856.0</ele><time>2026-03-22T15:19:21Z</time></trkpt><trkpt lat="21.828636030384434" lon="-102.37700748548163"><ele>1856.0</ele><time>2026-03-22T15:19:23Z</time></trkpt><trkpt lat="21.828742247689114" lon="-102.37699433789373"><ele>1856.0</ele><time>2026-03-22T15:19:25Z</time></trkpt><trkpt lat="21.828848409707202" lon="-102.37698822056369"><ele>1856.25</ele><time>2026-03-22T15:19:27Z</time></trkpt><trkpt lat="21.829033040283136" lon="-102.37698890462443"><ele>1856.5</ele><time>2026-03-22T15:19:30Z</time></trkpt><trkpt lat="21.82912756171705" lon="-102.37697934899727"><ele>1856.75</ele><time>2026-03-22T15:19:32Z</time></trkpt><trkpt lat="21.82922182717524" lon="-102.37696852592411"><ele>1857.0</ele><time>2026-03-22T15:19:34Z</time></trkpt><trkpt lat="21.829320079772504" lon="-102.37696147070922"><ele>1857.3999999999999</ele><time>2026-03-22T15:19:36Z</time></trkpt><trkpt lat="21.829423714622767" lon="-102.37695511018353"><ele>1857.7999999999997</ele><time>2026-03-22T15:19:38Z</time></trkpt><trkpt lat="21.82952362222509" lon="-102.37694121660824"><ele>1858.2</ele><time>2026-03-22T15:19:40Z</time></trkpt><trkpt lat="21.829628521750035" lon="-102.37693166123383"><ele>1858.6</ele><time>2026-03-22T15:19:42Z</time></trkpt><trkpt lat="21.829737071055664" lon="-102.37692132649852"><ele>1859.0</ele><time>2026-03-22T15:19:44Z</time></trkpt><trkpt lat="21.829848369393904" lon="-102.37690564439416"><ele>1859.0</ele><time>2026-03-22T15:19:46Z</time></trkpt><trkpt lat="21.82995229399695" lon="-102.3768924678674"><ele>1859.0</ele><time>2026-03-22T15:19:48Z</time></trkpt><trkpt lat="21.830083256307066" lon="-102.37686534164907"><ele>1859.0</ele><time>2026-03-22T15:19:50Z</time></trkpt><trkpt lat="21.830200046348395" lon="-102.3768586413941"><ele>1859.0</ele><time>2026-03-22T15:19:52Z</time></trkpt><trkpt lat="21.830305432951686" lon="-102.37685268383227"><ele>1859.25</ele><time>2026-03-22T15:19:54Z</time></trkpt><trkpt lat="21.83041816956055" lon="-102.37684561233758"><ele>1859.5</ele><time>2026-03-22T15:19:56Z</time></trkpt><trkpt lat="21.83053108107951" lon="-102.37684157132422"><ele>1859.75</ele><time>2026-03-22T15:19:58Z</time></trkpt><trkpt lat="21.830652591915545" lon="-102.37682401818786"><ele>1860.0</ele><time>2026-03-22T15:20:00Z</time></trkpt><trkpt lat="21.83077249463948" lon="-102.37681534071275"><ele>1860.0</ele><time>2026-03-22T15:20:02Z</time></trkpt><trkpt lat="21.830893413502302" lon="-102.37681153183192"><ele>1860.0</ele><time>2026-03-22T15:20:04Z</time></trkpt><trkpt lat="21.831016179307085" lon="-102.37680931120639"><ele>1860.0</ele><time>2026-03-22T15:20:06Z</time></trkpt><trkpt lat="21.83113037613983" lon="-102.37680327191504"><ele>1860.0</ele><time>2026-03-22T15:20:08Z</time></trkpt><trkpt lat="21.83123944443882" lon="-102.3767970759861"><ele>1860.4</ele><time>2026-03-22T15:20:10Z</time></trkpt><trkpt lat="21.831354012741595" lon="-102.37678089136244"><ele>1860.8</ele><time>2026-03-22T15:20:12Z</time></trkpt><trkpt lat="21.831478493975013" lon="-102.37676457156489"><ele>1861.1999999999998</ele><time>2026-03-22T15:20:14Z</time></trkpt><trkpt lat="21.831602803077587" lon="-102.37675279144617"><ele>1861.6</ele><time>2026-03-22T15:20:16Z</time></trkpt><trkpt lat="21.831666660720103" lon="-102.37674488075561"><ele>1862.0</ele><time>2026-03-22T15:20:17Z</time></trkpt><trkpt lat="21.831730018107933" lon="-102.37673792423298"><ele>1862.0</ele><time>2026-03-22T15:20:18Z</time></trkpt><trkpt lat="21.831852481902512" lon="-102.37672429618613"><ele>1862.0</ele><time>2026-03-22T15:20:20Z</time></trkpt><trkpt lat="21.831977584651327" lon="-102.37670827340825"><ele>1862.0</ele><time>2026-03-22T15:20:22Z</time></trkpt><trkpt lat="21.832096735404658" lon="-102.37670410852604"><ele>1862.0</ele><time>2026-03-22T15:20:24Z</time></trkpt><trkpt lat="21.832213005765446" lon="-102.37670226141775"><ele>1862.0</ele><time>2026-03-22T15:20:26Z</time></trkpt><trkpt lat="21.83233199522098" lon="-102.37668585616044"><ele>1862.0</ele><time>2026-03-22T15:20:28Z</time></trkpt><trkpt lat="21.832450813602346" lon="-102.37667915540557"><ele>1862.0</ele><time>2026-03-22T15:20:30Z</time></trkpt><trkpt lat="21.832568303868992" lon="-102.37666804807702"><ele>1862.0</ele><time>2026-03-22T15:20:32Z</time></trkpt><trkpt lat="21.832687052966378" lon="-102.37665771116951"><ele>1862.25</ele><time>2026-03-22T15:20:34Z</time></trkpt><trkpt lat="21.83280451883534" lon="-102.37664440150458"><ele>1862.5</ele><time>2026-03-22T15:20:36Z</time></trkpt><trkpt lat="21.832919721057923" lon="-102.37663105839155"><ele>1862.75</ele><time>2026-03-22T15:20:38Z</time></trkpt><trkpt lat="21.83303482161137" lon="-102.37661722479558"><ele>1863.0</ele><time>2026-03-22T15:20:40Z</time></trkpt><trkpt lat="21.83315218845945" lon="-102.3766062657267"><ele>1863.0</ele><time>2026-03-22T15:20:42Z</time></trkpt><trkpt lat="21.833272746364308" lon="-102.37659701526962"><ele>1863.0000000000002</ele><time>2026-03-22T15:20:44Z</time></trkpt><trkpt lat="21.833335791501316" lon="-102.3765888514104"><ele>1863.0000000000002</ele><time>2026-03-22T15:20:45Z</time></trkpt><trkpt lat="21.833451430801567" lon="-102.37656733074515"><ele>1863.0</ele><time>2026-03-22T15:20:47Z</time></trkpt><trkpt lat="21.8335158148098" lon="-102.37656537732698"><ele>1863.0</ele><time>2026-03-22T15:20:48Z</time></trkpt><trkpt lat="21.83363668639185" lon="-102.37655833177357"><ele>1863.1428571428573</ele><time>2026-03-22T15:20:50Z</time></trkpt><trkpt lat="21.833699270489163" lon="-102.3765507734005"><ele>1863.2857142857142</ele><time>2026-03-22T15:20:51Z</time></trkpt><trkpt lat="21.833823399726285" lon="-102.37654429327621"><ele>1863.4285714285716</ele><time>2026-03-22T15:20:53Z</time></trkpt><trkpt lat="21.83388728979015" lon="-102.37653858011042"><ele>1863.5714285714287</ele><time>2026-03-22T15:20:54Z</time></trkpt><trkpt lat="21.833950335088836" lon="-102.37653457485654"><ele>1863.7142857142858</ele><time>2026-03-22T15:20:55Z</time></trkpt><trkpt lat="21.834014915404676" lon="-102.37653061948647"><ele>1863.857142857143</ele><time>2026-03-22T15:20:56Z</time></trkpt><trkpt lat="21.834079360416204" lon="-102.37652708876166"><ele>1864.0</ele><time>2026-03-22T15:20:57Z</time></trkpt><trkpt lat="21.834143799575298" lon="-102.37652127464095"><ele>1864.0</ele><time>2026-03-22T15:20:58Z</time></trkpt><trkpt lat="21.834270547879722" lon="-102.37651206888277"><ele>1864.0</ele><time>2026-03-22T15:21:00Z</time></trkpt><trkpt lat="21.834399873689613" lon="-102.37650085397365"><ele>1864.0</ele><time>2026-03-22T15:21:02Z</time></trkpt><trkpt lat="21.83446364039867" lon="-102.37649728770847"><ele>1864.0</ele><time>2026-03-22T15:21:03Z</time></trkpt><trkpt lat="21.834529571154643" lon="-102.37649608688895"><ele>1864.0</ele><time>2026-03-22T15:21:04Z</time></trkpt><trkpt lat="21.83459711941875" lon="-102.37648738397367"><ele>1864.1666666666667</ele><time>2026-03-22T15:21:05Z</time></trkpt><trkpt lat="21.834721762445096" lon="-102.37648048874892"><ele>1864.3333333333335</ele><time>2026-03-22T15:21:07Z</time></trkpt><trkpt lat="21.834784895467553" lon="-102.37647633797532"><ele>1864.5</ele><time>2026-03-22T15:21:08Z</time></trkpt><trkpt lat="21.834850587680155" lon="-102.37646426911576"><ele>1864.6666666666665</ele><time>2026-03-22T15:21:09Z</time></trkpt><trkpt lat="21.834913372550872" lon="-102.37645500942048"><ele>1864.8333333333333</ele><time>2026-03-22T15:21:10Z</time></trkpt><trkpt lat="21.835038631258616" lon="-102.37644527514257"><ele>1865.0</ele><time>2026-03-22T15:21:12Z</time></trkpt><trkpt lat="21.835102676510797" lon="-102.37643958263803"><ele>1865.1428571428573</ele><time>2026-03-22T15:21:13Z</time></trkpt><trkpt lat="21.83516696330488" lon="-102.37643602336165"><ele>1865.2857142857144</ele><time>2026-03-22T15:21:14Z</time></trkpt><trkpt lat="21.83523292817266" lon="-102.37642941286843"><ele>1865.4285714285716</ele><time>2026-03-22T15:21:15Z</time></trkpt><trkpt lat="21.83529655512343" lon="-102.37642610614763"><ele>1865.5714285714284</ele><time>2026-03-22T15:21:16Z</time></trkpt><trkpt lat="21.8353602240998" lon="-102.37642125313852"><ele>1865.7142857142856</ele><time>2026-03-22T15:21:17Z</time></trkpt><trkpt lat="21.83542386755471" lon="-102.37641148768697"><ele>1865.8571428571427</ele><time>2026-03-22T15:21:18Z</time></trkpt><trkpt lat="21.835489440355488" lon="-102.37640461073744"><ele>1866.0</ele><time>2026-03-22T15:21:19Z</time></trkpt><trkpt lat="21.83555261358408" lon="-102.37640057554832"><ele>1866.0</ele><time>2026-03-22T15:21:20Z</time></trkpt><trkpt lat="21.83567518191823" lon="-102.37638823896297"><ele>1866.0</ele><time>2026-03-22T15:21:22Z</time></trkpt><trkpt lat="21.8357899629246" lon="-102.37637404510708"><ele>1866.0</ele><time>2026-03-22T15:21:24Z</time></trkpt><trkpt lat="21.835902699243988" lon="-102.3763703495417"><ele>1866.0</ele><time>2026-03-22T15:21:26Z</time></trkpt><trkpt lat="21.836003728626718" lon="-102.37636700144888"><ele>1866.4</ele><time>2026-03-22T15:21:28Z</time></trkpt><trkpt lat="21.83610533931856" lon="-102.37635972339116"><ele>1866.8</ele><time>2026-03-22T15:21:30Z</time></trkpt><trkpt lat="21.836200752249947" lon="-102.37635132370391"><ele>1867.2000000000003</ele><time>2026-03-22T15:21:32Z</time></trkpt><trkpt lat="21.836298440148674" lon="-102.37634190143433"><ele>1867.6000000000001</ele><time>2026-03-22T15:21:34Z</time></trkpt><trkpt lat="21.83639140600907" lon="-102.3763395992647"><ele>1868.0</ele><time>2026-03-22T15:21:36Z</time></trkpt><trkpt lat="21.83648723609184" lon="-102.37633512977402"><ele>1868.0</ele><time>2026-03-22T15:21:38Z</time></trkpt><trkpt lat="21.836581041834116" lon="-102.37633039514543"><ele>1868.0000000000002</ele><time>2026-03-22T15:21:40Z</time></trkpt><trkpt lat="21.83667465265846" lon="-102.37632275631476"><ele>1868.0000000000002</ele><time>2026-03-22T15:21:42Z</time></trkpt><trkpt lat="21.83676794717187" lon="-102.37630865049697"><ele>1868.0</ele><time>2026-03-22T15:21:44Z</time></trkpt><trkpt lat="21.836859220775956" lon="-102.37630045616542"><ele>1868.0</ele><time>2026-03-22T15:21:46Z</time></trkpt><trkpt lat="21.836946386650844" lon="-102.37628960484246"><ele>1869.3333333333333</ele><time>2026-03-22T15:21:48Z</time></trkpt><trkpt lat="21.83703014244144" lon="-102.3762810155852"><ele>1870.6666666666665</ele><time>2026-03-22T15:21:50Z</time></trkpt><trkpt lat="21.837104682296168" lon="-102.37626837596515"><ele>1872.0</ele><time>2026-03-22T15:21:52Z</time></trkpt><trkpt lat="21.83717982175467" lon="-102.37626076768235"><ele>1873.3333333333335</ele><time>2026-03-22T15:21:54Z</time></trkpt><trkpt lat="21.837259215619802" lon="-102.3762557149638"><ele>1874.6666666666667</ele><time>2026-03-22T15:21:56Z</time></trkpt><trkpt lat="21.837337331880093" lon="-102.37625099609139"><ele>1876.0</ele><time>2026-03-22T15:21:58Z</time></trkpt><trkpt lat="21.83740867054043" lon="-102.37624638242289"><ele>1876.0000000000002</ele><time>2026-03-22T15:22:00Z</time></trkpt><trkpt lat="21.837496172498383" lon="-102.37624670278139"><ele>1876.0</ele><time>2026-03-22T15:22:03Z</time></trkpt><trkpt lat="21.83756482927684" lon="-102.37621923835982"><ele>1876.0</ele><time>2026-03-22T15:22:06Z</time></trkpt><trkpt lat="21.837650876803746" lon="-102.37621218986496"><ele>1876.0</ele><time>2026-03-22T15:22:09Z</time></trkpt><trkpt lat="21.837718374673138" lon="-102.37620433608177"><ele>1876.0000000000002</ele><time>2026-03-22T15:22:11Z</time></trkpt><trkpt lat="21.837796258402253" lon="-102.37620191371525"><ele>1876.0</ele><time>2026-03-22T15:22:13Z</time></trkpt><trkpt lat="21.837860256097933" lon="-102.37619681245542"><ele>1877.0000000000002</ele><time>2026-03-22T15:22:16Z</time></trkpt><trkpt lat="21.837954395873485" lon="-102.37618617828385"><ele>1878.0</ele><time>2026-03-22T15:22:18Z</time></trkpt><trkpt lat="21.83804197564742" lon="-102.37617812403393"><ele>1879.0</ele><time>2026-03-22T15:22:21Z</time></trkpt><trkpt lat="21.83812214766425" lon="-102.37616783479743"><ele>1880.0</ele><time>2026-03-22T15:22:23Z</time></trkpt><trkpt lat="21.838192288890614" lon="-102.37615460440858"><ele>1881.0000000000002</ele><time>2026-03-22T15:22:25Z</time></trkpt><trkpt lat="21.838296983387764" lon="-102.37614069043919"><ele>1882.0</ele><time>2026-03-22T15:22:27Z</time></trkpt><trkpt lat="21.83839615045382" lon="-102.37613087787751"><ele>1883.3999999999999</ele><time>2026-03-22T15:22:29Z</time></trkpt><trkpt lat="21.838523438043467" lon="-102.37612222834385"><ele>1884.7999999999997</ele><time>2026-03-22T15:22:31Z</time></trkpt><trkpt lat="21.83864070979813" lon="-102.3761149886202"><ele>1886.2</ele><time>2026-03-22T15:22:33Z</time></trkpt><trkpt lat="21.838734121813456" lon="-102.37611240201129"><ele>1887.6</ele><time>2026-03-22T15:22:35Z</time></trkpt><trkpt lat="21.838814108079227" lon="-102.3761098306906"><ele>1889.0</ele><time>2026-03-22T15:22:37Z</time></trkpt><trkpt lat="21.83889331825752" lon="-102.3761081089919"><ele>1888.9999999999998</ele><time>2026-03-22T15:22:39Z</time></trkpt><trkpt lat="21.83897169422828" lon="-102.37609618968932"><ele>1889.0</ele><time>2026-03-22T15:22:41Z</time></trkpt><trkpt lat="21.839045108814286" lon="-102.37608940093767"><ele>1888.9999999999998</ele><time>2026-03-22T15:22:43Z</time></trkpt><trkpt lat="21.839112262171543" lon="-102.37607825236694"><ele>1888.9999999999998</ele><time>2026-03-22T15:22:45Z</time></trkpt><trkpt lat="21.839178387983228" lon="-102.37606588388365"><ele>1889.0</ele><time>2026-03-22T15:22:47Z</time></trkpt><trkpt lat="21.83925286290936" lon="-102.37605885163336"><ele>1888.9999999999998</ele><time>2026-03-22T15:22:49Z</time></trkpt><trkpt lat="21.839328484670578" lon="-102.37605546956372"><ele>1888.9999999999998</ele><time>2026-03-22T15:22:51Z</time></trkpt><trkpt lat="21.83942274674204" lon="-102.37605047093962"><ele>1889.8000000000002</ele><time>2026-03-22T15:22:54Z</time></trkpt><trkpt lat="21.839505068252272" lon="-102.37603689298865"><ele>1890.6000000000001</ele><time>2026-03-22T15:22:57Z</time></trkpt><trkpt lat="21.839588294058196" lon="-102.37602893333447"><ele>1891.4</ele><time>2026-03-22T15:23:00Z</time></trkpt><trkpt lat="21.839680702757086" lon="-102.37601516160376"><ele>1892.2</ele><time>2026-03-22T15:23:03Z</time></trkpt><trkpt lat="21.83977330235656" lon="-102.37601695783788"><ele>1893.0</ele><time>2026-03-22T15:23:05Z</time></trkpt><trkpt lat="21.839897919204606" lon="-102.37600705989139"><ele>1893.0</ele><time>2026-03-22T15:23:08Z</time></trkpt><trkpt lat="21.83998103140045" lon="-102.37599711499506"><ele>1893.0</ele><time>2026-03-22T15:23:10Z</time></trkpt><trkpt lat="21.840087263718058" lon="-102.37599148536573"><ele>1893.0</ele><time>2026-03-22T15:23:12Z</time></trkpt><trkpt lat="21.840163241216626" lon="-102.37597662573424"><ele>1893.0</ele><time>2026-03-22T15:23:14Z</time></trkpt><trkpt lat="21.840243690451217" lon="-102.37596185778592"><ele>1893.0</ele><time>2026-03-22T15:23:16Z</time></trkpt><trkpt lat="21.8403122771892" lon="-102.3759455554889"><ele>1893.0</ele><time>2026-03-22T15:23:18Z</time></trkpt><trkpt lat="21.84068043303908" lon="-102.3758844703295"><ele>1893.0</ele><time>2026-03-22T15:23:21Z</time></trkpt><trkpt lat="21.840790228402813" lon="-102.37586555273306"><ele>1893.0000000000002</ele><time>2026-03-22T15:23:23Z</time></trkpt><trkpt lat="21.840901004630304" lon="-102.37585845116872"><ele>1893.0000000000002</ele><time>2026-03-22T15:23:25Z</time></trkpt><trkpt lat="21.841013346244694" lon="-102.37584041176754"><ele>1893.0</ele><time>2026-03-22T15:23:27Z</time></trkpt><trkpt lat="21.841081742482782" lon="-102.37583487782635"><ele>1893.0</ele><time>2026-03-22T15:23:28Z</time></trkpt><trkpt lat="21.841201368486665" lon="-102.37581246653696"><ele>1893.0</ele><time>2026-03-22T15:23:30Z</time></trkpt><trkpt lat="21.841270898871457" lon="-102.37579810644998"><ele>1893.0000000000002</ele><time>2026-03-22T15:23:31Z</time></trkpt><trkpt lat="21.841337158881874" lon="-102.375795264854"><ele>1893.0</ele><time>2026-03-22T15:23:32Z</time></trkpt><trkpt lat="21.84140504690886" lon="-102.37578342946674"><ele>1893.0</ele><time>2026-03-22T15:23:33Z</time></trkpt><trkpt lat="21.84147752914399" lon="-102.37577158013839"><ele>1893.0000000000002</ele><time>2026-03-22T15:23:34Z</time></trkpt><trkpt lat="21.84154059688931" lon="-102.37577021921258"><ele>1893.0</ele><time>2026-03-22T15:23:35Z</time></trkpt><trkpt lat="21.841631320913667" lon="-102.37573986674485"><ele>1893.0</ele><time>2026-03-22T15:23:36Z</time></trkpt><trkpt lat="21.84170807195614" lon="-102.37572981048211"><ele>1893.0</ele><time>2026-03-22T15:23:37Z</time></trkpt><trkpt lat="21.84178202303566" lon="-102.37572101669174"><ele>1893.0</ele><time>2026-03-22T15:23:38Z</time></trkpt><trkpt lat="21.84184754300612" lon="-102.3757125722188"><ele>1893.0</ele><time>2026-03-22T15:23:39Z</time></trkpt><trkpt lat="21.841934479533467" lon="-102.37569814574292"><ele>1893.0</ele><time>2026-03-22T15:23:40Z</time></trkpt><trkpt lat="21.842017947882532" lon="-102.37568377123269"><ele>1893.0</ele><time>2026-03-22T15:23:41Z</time></trkpt><trkpt lat="21.84210541568377" lon="-102.37567046194552"><ele>1893.0</ele><time>2026-03-22T15:23:42Z</time></trkpt><trkpt lat="21.842192336654254" lon="-102.37565583659044"><ele>1892.2</ele><time>2026-03-22T15:23:43Z</time></trkpt><trkpt lat="21.842277704304387" lon="-102.37564084811598"><ele>1891.4</ele><time>2026-03-22T15:23:44Z</time></trkpt><trkpt lat="21.84236867794806" lon="-102.37562478454879"><ele>1890.6000000000001</ele><time>2026-03-22T15:23:45Z</time></trkpt><trkpt lat="21.84246056743429" lon="-102.37561008815177"><ele>1889.8000000000002</ele><time>2026-03-22T15:23:46Z</time></trkpt><trkpt lat="21.842547768601065" lon="-102.37558808587694"><ele>1889.0</ele><time>2026-03-22T15:23:47Z</time></trkpt><trkpt lat="21.84264145781547" lon="-102.37556825104038"><ele>1888.4</ele><time>2026-03-22T15:23:48Z</time></trkpt><trkpt lat="21.842732992468076" lon="-102.37555521350318"><ele>1887.8000000000002</ele><time>2026-03-22T15:23:49Z</time></trkpt><trkpt lat="21.842823762203796" lon="-102.37554386262796"><ele>1887.1999999999998</ele><time>2026-03-22T15:23:50Z</time></trkpt><trkpt lat="21.842919387744082" lon="-102.37552392308109"><ele>1886.6</ele><time>2026-03-22T15:23:51Z</time></trkpt><trkpt lat="21.84301396337234" lon="-102.3755095995243"><ele>1886.0</ele><time>2026-03-22T15:23:52Z</time></trkpt><trkpt lat="21.843105134513035" lon="-102.3754973942711"><ele>1885.8</ele><time>2026-03-22T15:23:53Z</time></trkpt><trkpt lat="21.843196794348003" lon="-102.37548307223773"><ele>1885.6</ele><time>2026-03-22T15:23:54Z</time></trkpt><trkpt lat="21.843287252820208" lon="-102.37546912197071"><ele>1885.4</ele><time>2026-03-22T15:23:55Z</time></trkpt><trkpt lat="21.8433825172796" lon="-102.3754556049038"><ele>1885.2</ele><time>2026-03-22T15:23:56Z</time></trkpt><trkpt lat="21.843480654459256" lon="-102.37543234922178"><ele>1885.0</ele><time>2026-03-22T15:23:57Z</time></trkpt><trkpt lat="21.84357191963874" lon="-102.37542046677544"><ele>1884.8</ele><time>2026-03-22T15:23:58Z</time></trkpt><trkpt lat="21.84366937898202" lon="-102.3754009252285"><ele>1884.6</ele><time>2026-03-22T15:23:59Z</time></trkpt><trkpt lat="21.84376734558835" lon="-102.37537930320343"><ele>1884.4</ele><time>2026-03-22T15:24:00Z</time></trkpt><trkpt lat="21.843869455454747" lon="-102.37536345437209"><ele>1884.2</ele><time>2026-03-22T15:24:01Z</time></trkpt><trkpt lat="21.84397475436392" lon="-102.37534848758203"><ele>1884.0</ele><time>2026-03-22T15:24:02Z</time></trkpt><trkpt lat="21.84407445618132" lon="-102.37533100337596"><ele>1884.0</ele><time>2026-03-22T15:24:03Z</time></trkpt><trkpt lat="21.844172526222618" lon="-102.37531522610189"><ele>1884.0</ele><time>2026-03-22T15:24:04Z</time></trkpt><trkpt lat="21.84427101923868" lon="-102.37529500166902"><ele>1884.0</ele><time>2026-03-22T15:24:05Z</time></trkpt><trkpt lat="21.84436906059382" lon="-102.37527782888638"><ele>1884.0</ele><time>2026-03-22T15:24:06Z</time></trkpt><trkpt lat="21.844469634316884" lon="-102.37525983066733"><ele>1884.0</ele><time>2026-03-22T15:24:07Z</time></trkpt><trkpt lat="21.84457230414516" lon="-102.37524224187078"><ele>1883.6</ele><time>2026-03-22T15:24:08Z</time></trkpt><trkpt lat="21.844677969509338" lon="-102.37522360119192"><ele>1883.2</ele><time>2026-03-22T15:24:09Z</time></trkpt><trkpt lat="21.844785595853427" lon="-102.37520821915801"><ele>1882.7999999999997</ele><time>2026-03-22T15:24:10Z</time></trkpt><trkpt lat="21.84489186128492" lon="-102.37518559736148"><ele>1882.3999999999999</ele><time>2026-03-22T15:24:11Z</time></trkpt><trkpt lat="21.84499679838031" lon="-102.3751682165151"><ele>1882.0</ele><time>2026-03-22T15:24:12Z</time></trkpt><trkpt lat="21.84510336000943" lon="-102.37515417921576"><ele>1881.6</ele><time>2026-03-22T15:24:13Z</time></trkpt><trkpt lat="21.84520630158228" lon="-102.375133483657"><ele>1881.1999999999998</ele><time>2026-03-22T15:24:14Z</time></trkpt><trkpt lat="21.845311521837022" lon="-102.37510949485221"><ele>1880.8</ele><time>2026-03-22T15:24:15Z</time></trkpt><trkpt lat="21.84541812324956" lon="-102.37510386265141"><ele>1880.4</ele><time>2026-03-22T15:24:16Z</time></trkpt><trkpt lat="21.84552812021865" lon="-102.3750847890777"><ele>1880.0</ele><time>2026-03-22T15:24:17Z</time></trkpt><trkpt lat="21.84563398582226" lon="-102.37506876455362"><ele>1880.0</ele><time>2026-03-22T15:24:18Z</time></trkpt><trkpt lat="21.845742711861934" lon="-102.37504798238527"><ele>1880.0</ele><time>2026-03-22T15:24:19Z</time></trkpt><trkpt lat="21.84584451804652" lon="-102.37503186583577"><ele>1880.0</ele><time>2026-03-22T15:24:20Z</time></trkpt><trkpt lat="21.84594995795305" lon="-102.37500830117347"><ele>1880.0</ele><time>2026-03-22T15:24:21Z</time></trkpt><trkpt lat="21.84605483725031" lon="-102.37498722341942"><ele>1880.0</ele><time>2026-03-22T15:24:22Z</time></trkpt><trkpt lat="21.84615845923845" lon="-102.37496617214688"><ele>1880.0</ele><time>2026-03-22T15:24:23Z</time></trkpt><trkpt lat="21.846261036818397" lon="-102.37495585435197"><ele>1880.0</ele><time>2026-03-22T15:24:24Z</time></trkpt><trkpt lat="21.846355764431866" lon="-102.37493569609829"><ele>1880.0</ele><time>2026-03-22T15:24:25Z</time></trkpt><trkpt lat="21.846450737788484" lon="-102.37491976547327"><ele>1880.0</ele><time>2026-03-22T15:24:26Z</time></trkpt><trkpt lat="21.846547210498763" lon="-102.37490656429169"><ele>1880.0</ele><time>2026-03-22T15:24:27Z</time></trkpt><trkpt lat="21.84663644010455" lon="-102.37489363502563"><ele>1879.9999999999998</ele><time>2026-03-22T15:24:28Z</time></trkpt><trkpt lat="21.846726544396503" lon="-102.37487983105964"><ele>1880.0</ele><time>2026-03-22T15:24:29Z</time></trkpt><trkpt lat="21.846807439451556" lon="-102.37486562434631"><ele>1880.0</ele><time>2026-03-22T15:24:30Z</time></trkpt><trkpt lat="21.846890992289346" lon="-102.37484744790568"><ele>1880.0</ele><time>2026-03-22T15:24:31Z</time></trkpt><trkpt lat="21.846970974347606" lon="-102.37483089373069"><ele>1879.9999999999998</ele><time>2026-03-22T15:24:32Z</time></trkpt><trkpt lat="21.84705043825806" lon="-102.37481714618464"><ele>1880.0</ele><time>2026-03-22T15:24:33Z</time></trkpt><trkpt lat="21.84712660652129" lon="-102.37480377237668"><ele>1880.4999999999998</ele><time>2026-03-22T15:24:34Z</time></trkpt><trkpt lat="21.847200959044045" lon="-102.37479054435008"><ele>1881.0</ele><time>2026-03-22T15:24:35Z</time></trkpt><trkpt lat="21.84726954657821" lon="-102.37477968659974"><ele>1881.5</ele><time>2026-03-22T15:24:36Z</time></trkpt><trkpt lat="21.847336090518876" lon="-102.37476177737373"><ele>1882.0</ele><time>2026-03-22T15:24:37Z</time></trkpt><trkpt lat="21.847463429585044" lon="-102.37474170376888"><ele>1882.4999999999998</ele><time>2026-03-22T15:24:39Z</time></trkpt><trkpt lat="21.847531851088046" lon="-102.37473031449859"><ele>1883.0</ele><time>2026-03-22T15:24:40Z</time></trkpt><trkpt lat="21.847662160070445" lon="-102.37470992229434"><ele>1883.2</ele><time>2026-03-22T15:24:42Z</time></trkpt><trkpt lat="21.84778843069394" lon="-102.37469875720598"><ele>1883.4</ele><time>2026-03-22T15:24:44Z</time></trkpt><trkpt lat="21.84792350652421" lon="-102.37467890028921"><ele>1883.6000000000001</ele><time>2026-03-22T15:24:46Z</time></trkpt><trkpt lat="21.84799556559533" lon="-102.37466544451947"><ele>1883.8000000000002</ele><time>2026-03-22T15:24:47Z</time></trkpt><trkpt lat="21.84806537489774" lon="-102.37465310657178"><ele>1884.0</ele><time>2026-03-22T15:24:48Z</time></trkpt><trkpt lat="21.84813581035537" lon="-102.37464031375362"><ele>1884.0000000000002</ele><time>2026-03-22T15:24:49Z</time></trkpt><trkpt lat="21.84820623057065" lon="-102.37462976732704"><ele>1884.0</ele><time>2026-03-22T15:24:50Z</time></trkpt><trkpt lat="21.848274588909774" lon="-102.3746109076475"><ele>1884.0000000000002</ele><time>2026-03-22T15:24:51Z</time></trkpt><trkpt lat="21.848344443653037" lon="-102.37459877684947"><ele>1884.0000000000002</ele><time>2026-03-22T15:24:52Z</time></trkpt><trkpt lat="21.848412269021278" lon="-102.37459500280536"><ele>1884.0</ele><time>2026-03-22T15:24:53Z</time></trkpt><trkpt lat="21.848479129132993" lon="-102.37458143470431"><ele>1884.0000000000002</ele><time>2026-03-22T15:24:54Z</time></trkpt><trkpt lat="21.84854295121384" lon="-102.37456409165564"><ele>1884.0000000000002</ele><time>2026-03-22T15:24:55Z</time></trkpt><trkpt lat="21.848608200156743" lon="-102.374544217964"><ele>1884.0</ele><time>2026-03-22T15:24:56Z</time></trkpt><trkpt lat="21.848674759258213" lon="-102.3745315517939"><ele>1884.0</ele><time>2026-03-22T15:24:57Z</time></trkpt><trkpt lat="21.848740286732806" lon="-102.37452712557118"><ele>1884.0</ele><time>2026-03-22T15:24:58Z</time></trkpt><trkpt lat="21.848807596759503" lon="-102.37452306788849"><ele>1884.0</ele><time>2026-03-22T15:24:59Z</time></trkpt><trkpt lat="21.84887511230996" lon="-102.37450929318311"><ele>1884.0</ele><time>2026-03-22T15:25:00Z</time></trkpt><trkpt lat="21.848996545035735" lon="-102.37448672336699"><ele>1884.0</ele><time>2026-03-22T15:25:02Z</time></trkpt><trkpt lat="21.849062089908593" lon="-102.37447524807818"><ele>1884.0</ele><time>2026-03-22T15:25:03Z</time></trkpt><trkpt lat="21.849130383390033" lon="-102.37446015459996"><ele>1884.0</ele><time>2026-03-22T15:25:04Z</time></trkpt><trkpt lat="21.84919950785035" lon="-102.37444827150992"><ele>1884.0</ele><time>2026-03-22T15:25:05Z</time></trkpt><trkpt lat="21.849267669086338" lon="-102.37444060361138"><ele>1884.0</ele><time>2026-03-22T15:25:06Z</time></trkpt><trkpt lat="21.84933661391521" lon="-102.3744235650266"><ele>1884.0</ele><time>2026-03-22T15:25:07Z</time></trkpt><trkpt lat="21.84946659040253" lon="-102.37438875348622"><ele>1884.0</ele><time>2026-03-22T15:25:09Z</time></trkpt><trkpt lat="21.849536521537928" lon="-102.37437612536361"><ele>1884.2857142857147</ele><time>2026-03-22T15:25:10Z</time></trkpt><trkpt lat="21.84960952176807" lon="-102.37436462899392"><ele>1884.5714285714287</ele><time>2026-03-22T15:25:11Z</time></trkpt><trkpt lat="21.84967963660392" lon="-102.37435458739739"><ele>1884.8571428571431</ele><time>2026-03-22T15:25:12Z</time></trkpt><trkpt lat="21.84974966833282" lon="-102.37434089609458"><ele>1885.1428571428573</ele><time>2026-03-22T15:25:13Z</time></trkpt><trkpt lat="21.849818867777323" lon="-102.37432453209814"><ele>1885.4285714285716</ele><time>2026-03-22T15:25:14Z</time></trkpt><trkpt lat="21.849889615523647" lon="-102.37431082028249"><ele>1885.7142857142858</ele><time>2026-03-22T15:25:15Z</time></trkpt><trkpt lat="21.849960592547834" lon="-102.37430165885323"><ele>1886.0</ele><time>2026-03-22T15:25:16Z</time></trkpt><trkpt lat="21.85002987782333" lon="-102.37428444845878"><ele>1886.0</ele><time>2026-03-22T15:25:17Z</time></trkpt><trkpt lat="21.850098656120323" lon="-102.37426937853365"><ele>1886.0000000000002</ele><time>2026-03-22T15:25:18Z</time></trkpt><trkpt lat="21.850172744336867" lon="-102.37425855888598"><ele>1886.0</ele><time>2026-03-22T15:25:19Z</time></trkpt><trkpt lat="21.850243455494383" lon="-102.37424806205478"><ele>1886.0</ele><time>2026-03-22T15:25:20Z</time></trkpt><trkpt lat="21.850313021818998" lon="-102.37424159648745"><ele>1886.0000000000002</ele><time>2026-03-22T15:25:21Z</time></trkpt><trkpt lat="21.850384406131376" lon="-102.3742289652227"><ele>1886.0</ele><time>2026-03-22T15:25:22Z</time></trkpt><trkpt lat="21.850452611477753" lon="-102.37421523390566"><ele>1886.0</ele><time>2026-03-22T15:25:23Z</time></trkpt><trkpt lat="21.85052373664436" lon="-102.37420011811585"><ele>1886.0</ele><time>2026-03-22T15:25:24Z</time></trkpt><trkpt lat="21.850595942990342" lon="-102.37418787170023"><ele>1886.0000000000002</ele><time>2026-03-22T15:25:25Z</time></trkpt><trkpt lat="21.85067009934512" lon="-102.37417718526368"><ele>1886.0</ele><time>2026-03-22T15:25:26Z</time></trkpt><trkpt lat="21.850742093717976" lon="-102.37416820989533"><ele>1886.0</ele><time>2026-03-22T15:25:27Z</time></trkpt><trkpt lat="21.85081953072587" lon="-102.37415214002246"><ele>1886.0000000000002</ele><time>2026-03-22T15:25:28Z</time></trkpt><trkpt lat="21.850891866408492" lon="-102.37413790980006"><ele>1886.0</ele><time>2026-03-22T15:25:29Z</time></trkpt><trkpt lat="21.85096066244126" lon="-102.37412950118966"><ele>1886.0</ele><time>2026-03-22T15:25:30Z</time></trkpt><trkpt lat="21.851030263865386" lon="-102.37411776245759"><ele>1885.857142857143</ele><time>2026-03-22T15:25:31Z</time></trkpt><trkpt lat="21.85109829410057" lon="-102.37410360872484"><ele>1885.7142857142858</ele><time>2026-03-22T15:25:32Z</time></trkpt><trkpt lat="21.85116243554659" lon="-102.37409075562312"><ele>1885.5714285714287</ele><time>2026-03-22T15:25:33Z</time></trkpt><trkpt lat="21.851224781452984" lon="-102.37407750759348"><ele>1885.4285714285716</ele><time>2026-03-22T15:25:34Z</time></trkpt><trkpt lat="21.85128813394898" lon="-102.37406603606468"><ele>1885.2857142857142</ele><time>2026-03-22T15:25:35Z</time></trkpt><trkpt lat="21.851353221346844" lon="-102.37405785601678"><ele>1885.1428571428573</ele><time>2026-03-22T15:25:36Z</time></trkpt><trkpt lat="21.851420020848952" lon="-102.37404468975598"><ele>1885.0</ele><time>2026-03-22T15:25:37Z</time></trkpt><trkpt lat="21.851490039319977" lon="-102.37403273416301"><ele>1885.0</ele><time>2026-03-22T15:25:38Z</time></trkpt><trkpt lat="21.851558818097004" lon="-102.37402303008156"><ele>1885.0</ele><time>2026-03-22T15:25:39Z</time></trkpt><trkpt lat="21.851629369291746" lon="-102.37400981754186"><ele>1885.0</ele><time>2026-03-22T15:25:40Z</time></trkpt><trkpt lat="21.85170271639613" lon="-102.3739921842259"><ele>1885.0</ele><time>2026-03-22T15:25:41Z</time></trkpt><trkpt lat="21.851775949670557" lon="-102.37398655862188"><ele>1885.0</ele><time>2026-03-22T15:25:42Z</time></trkpt><trkpt lat="21.85185082894611" lon="-102.37397191699803"><ele>1885.0</ele><time>2026-03-22T15:25:43Z</time></trkpt><trkpt lat="21.85192368431304" lon="-102.37396467688296"><ele>1885.0</ele><time>2026-03-22T15:25:44Z</time></trkpt><trkpt lat="21.85199904472715" lon="-102.37395341104879"><ele>1885.0000000000002</ele><time>2026-03-22T15:25:45Z</time></trkpt><trkpt lat="21.85207344158273" lon="-102.37393795018028"><ele>1885.0</ele><time>2026-03-22T15:25:46Z</time></trkpt><trkpt lat="21.852152130638117" lon="-102.37392304836688"><ele>1885.0</ele><time>2026-03-22T15:25:47Z</time></trkpt><trkpt lat="21.85223044818174" lon="-102.37390926864173"><ele>1885.0</ele><time>2026-03-22T15:25:48Z</time></trkpt><trkpt lat="21.852309467977836" lon="-102.37389547188621"><ele>1885.0000000000002</ele><time>2026-03-22T15:25:49Z</time></trkpt><trkpt lat="21.852382028012507" lon="-102.3738836906922"><ele>1885.0</ele><time>2026-03-22T15:25:50Z</time></trkpt><trkpt lat="21.852463076467526" lon="-102.37387579500424"><ele>1885.0000000000002</ele><time>2026-03-22T15:25:51Z</time></trkpt><trkpt lat="21.852538284413566" lon="-102.3738609320002"><ele>1885.0</ele><time>2026-03-22T15:25:52Z</time></trkpt><trkpt lat="21.852617414625175" lon="-102.37384168912514"><ele>1885.0</ele><time>2026-03-22T15:25:53Z</time></trkpt><trkpt lat="21.85269515102026" lon="-102.37382564394295"><ele>1885.0</ele><time>2026-03-22T15:25:54Z</time></trkpt><trkpt lat="21.852776539285365" lon="-102.37381233365547"><ele>1885.0000000000002</ele><time>2026-03-22T15:25:55Z</time></trkpt><trkpt lat="21.85286072327224" lon="-102.37379854999838"><ele>1885.0</ele><time>2026-03-22T15:25:56Z</time></trkpt><trkpt lat="21.852942705109413" lon="-102.37378577349415"><ele>1884.1666666666667</ele><time>2026-03-22T15:25:57Z</time></trkpt><trkpt lat="21.85302520059459" lon="-102.37377010578648"><ele>1883.3333333333335</ele><time>2026-03-22T15:25:58Z</time></trkpt><trkpt lat="21.853109797830754" lon="-102.37375215669194"><ele>1882.5</ele><time>2026-03-22T15:25:59Z</time></trkpt><trkpt lat="21.853192153198076" lon="-102.37373807282958"><ele>1881.6666666666665</ele><time>2026-03-22T15:26:00Z</time></trkpt><trkpt lat="21.853277212744366" lon="-102.37372382989126"><ele>1880.8333333333333</ele><time>2026-03-22T15:26:01Z</time></trkpt><trkpt lat="21.8533635544228" lon="-102.37370731908345"><ele>1880.0</ele><time>2026-03-22T15:26:02Z</time></trkpt><trkpt lat="21.85344874030466" lon="-102.37369174518541"><ele>1879.4999999999998</ele><time>2026-03-22T15:26:03Z</time></trkpt><trkpt lat="21.85353456942653" lon="-102.37367820609192"><ele>1879.0</ele><time>2026-03-22T15:26:04Z</time></trkpt><trkpt lat="21.853618040007763" lon="-102.37366190010101"><ele>1878.5</ele><time>2026-03-22T15:26:05Z</time></trkpt><trkpt lat="21.853704689072725" lon="-102.37364873120919"><ele>1878.0</ele><time>2026-03-22T15:26:06Z</time></trkpt><trkpt lat="21.853790670961104" lon="-102.37363511420241"><ele>1877.4999999999998</ele><time>2026-03-22T15:26:07Z</time></trkpt><trkpt lat="21.85387482242412" lon="-102.37362306845365"><ele>1877.0</ele><time>2026-03-22T15:26:08Z</time></trkpt><trkpt lat="21.853959835068974" lon="-102.37360420391285"><ele>1876.9999999999998</ele><time>2026-03-22T15:26:09Z</time></trkpt><trkpt lat="21.85404429947388" lon="-102.37358781928334"><ele>1877.0</ele><time>2026-03-22T15:26:10Z</time></trkpt><trkpt lat="21.854132485515446" lon="-102.37357088171491"><ele>1877.0</ele><time>2026-03-22T15:26:11Z</time></trkpt><trkpt lat="21.854220373013842" lon="-102.37355505014632"><ele>1877.0</ele><time>2026-03-22T15:26:12Z</time></trkpt><trkpt lat="21.854306525265844" lon="-102.37354333162284"><ele>1876.9999999999998</ele><time>2026-03-22T15:26:13Z</time></trkpt><trkpt lat="21.85439717585164" lon="-102.37352654437892"><ele>1877.0</ele><time>2026-03-22T15:26:14Z</time></trkpt><trkpt lat="21.85448898537503" lon="-102.37350994605976"><ele>1877.1999999999998</ele><time>2026-03-22T15:26:15Z</time></trkpt><trkpt lat="21.85458319804219" lon="-102.37349182721582"><ele>1877.3999999999999</ele><time>2026-03-22T15:26:16Z</time></trkpt><trkpt lat="21.854676194455525" lon="-102.37347881734736"><ele>1877.6000000000001</ele><time>2026-03-22T15:26:17Z</time></trkpt><trkpt lat="21.854767821108616" lon="-102.37346339145316"><ele>1877.8000000000002</ele><time>2026-03-22T15:26:18Z</time></trkpt><trkpt lat="21.854861276947624" lon="-102.37344406816115"><ele>1878.0</ele><time>2026-03-22T15:26:19Z</time></trkpt><trkpt lat="21.854953717800367" lon="-102.37342765963223"><ele>1878.0</ele><time>2026-03-22T15:26:20Z</time></trkpt><trkpt lat="21.855039546367074" lon="-102.37341308881724"><ele>1878.0</ele><time>2026-03-22T15:26:21Z</time></trkpt><trkpt lat="21.855127786745232" lon="-102.37339296951241"><ele>1878.0</ele><time>2026-03-22T15:26:22Z</time></trkpt><trkpt lat="21.855213492747932" lon="-102.37337688876288"><ele>1878.0</ele><time>2026-03-22T15:26:23Z</time></trkpt><trkpt lat="21.855299851100465" lon="-102.37336799373819"><ele>1878.0</ele><time>2026-03-22T15:26:24Z</time></trkpt><trkpt lat="21.855382520956034" lon="-102.37335545904963"><ele>1878.0</ele><time>2026-03-22T15:26:25Z</time></trkpt><trkpt lat="21.855471441246813" lon="-102.37333765848615"><ele>1878.1666666666667</ele><time>2026-03-22T15:26:26Z</time></trkpt><trkpt lat="21.855556613317763" lon="-102.37332613345124"><ele>1878.3333333333335</ele><time>2026-03-22T15:26:27Z</time></trkpt><trkpt lat="21.85564019425308" lon="-102.37331326942694"><ele>1878.5</ele><time>2026-03-22T15:26:28Z</time></trkpt><trkpt lat="21.855723095135055" lon="-102.37330230351151"><ele>1878.6666666666667</ele><time>2026-03-22T15:26:29Z</time></trkpt><trkpt lat="21.855803386993976" lon="-102.3732894870425"><ele>1878.8333333333335</ele><time>2026-03-22T15:26:30Z</time></trkpt><trkpt lat="21.855884383223025" lon="-102.3732757415434"><ele>1879.0</ele><time>2026-03-22T15:26:31Z</time></trkpt><trkpt lat="21.855962989855698" lon="-102.37326259614335"><ele>1879.0000000000002</ele><time>2026-03-22T15:26:32Z</time></trkpt><trkpt lat="21.856039266593115" lon="-102.37325282581652"><ele>1879.0</ele><time>2026-03-22T15:26:33Z</time></trkpt><trkpt lat="21.856117567291534" lon="-102.37323689326394"><ele>1879.0</ele><time>2026-03-22T15:26:34Z</time></trkpt><trkpt lat="21.856196314514328" lon="-102.37322235087977"><ele>1879.0</ele><time>2026-03-22T15:26:35Z</time></trkpt><trkpt lat="21.856272081976797" lon="-102.37320933158801"><ele>1879.0000000000002</ele><time>2026-03-22T15:26:36Z</time></trkpt><trkpt lat="21.856350357246654" lon="-102.37320316272451"><ele>1879.0</ele><time>2026-03-22T15:26:37Z</time></trkpt><trkpt lat="21.856424219584873" lon="-102.37319084042876"><ele>1879.0</ele><time>2026-03-22T15:26:38Z</time></trkpt><trkpt lat="21.856501187137223" lon="-102.37317037761451"><ele>1879.0000000000002</ele><time>2026-03-22T15:26:39Z</time></trkpt><trkpt lat="21.85657692134078" lon="-102.37315259916097"><ele>1879.0</ele><time>2026-03-22T15:26:40Z</time></trkpt><trkpt lat="21.85665137723414" lon="-102.3731408969351"><ele>1879.0</ele><time>2026-03-22T15:26:41Z</time></trkpt><trkpt lat="21.85672495848198" lon="-102.37312884576991"><ele>1879.0000000000002</ele><time>2026-03-22T15:26:42Z</time></trkpt><trkpt lat="21.856795942391624" lon="-102.3731175992704"><ele>1879.0</ele><time>2026-03-22T15:26:43Z</time></trkpt><trkpt lat="21.8568643548659" lon="-102.37310556326815"><ele>1879.0</ele><time>2026-03-22T15:26:44Z</time></trkpt><trkpt lat="21.856933110298606" lon="-102.37309009942716"><ele>1879.2857142857144</ele><time>2026-03-22T15:26:45Z</time></trkpt><trkpt lat="21.857001810024858" lon="-102.37307228608638"><ele>1879.571428571429</ele><time>2026-03-22T15:26:46Z</time></trkpt><trkpt lat="21.857072124318282" lon="-102.373058573377"><ele>1879.857142857143</ele><time>2026-03-22T15:26:47Z</time></trkpt><trkpt lat="21.857140920833043" lon="-102.37304649445983"><ele>1880.1428571428573</ele><time>2026-03-22T15:26:48Z</time></trkpt><trkpt lat="21.85720813452811" lon="-102.37303257610176"><ele>1880.4285714285716</ele><time>2026-03-22T15:26:49Z</time></trkpt><trkpt lat="21.85727609204808" lon="-102.37302123308626"><ele>1880.7142857142858</ele><time>2026-03-22T15:26:50Z</time></trkpt><trkpt lat="21.85734237699689" lon="-102.3730059886543"><ele>1881.0</ele><time>2026-03-22T15:26:51Z</time></trkpt><trkpt lat="21.85740533017623" lon="-102.37298990987402"><ele>1881.142857142857</ele><time>2026-03-22T15:26:52Z</time></trkpt><trkpt lat="21.857468234253865" lon="-102.37297510298991"><ele>1881.2857142857142</ele><time>2026-03-22T15:26:53Z</time></trkpt><trkpt lat="21.857532498334372" lon="-102.37296331772482"><ele>1881.4285714285713</ele><time>2026-03-22T15:26:54Z</time></trkpt><trkpt lat="21.85759606471888" lon="-102.3729534124532"><ele>1881.5714285714284</ele><time>2026-03-22T15:26:55Z</time></trkpt><trkpt lat="21.857658466399666" lon="-102.37294252331877"><ele>1881.7142857142858</ele><time>2026-03-22T15:26:56Z</time></trkpt><trkpt lat="21.85772252037128" lon="-102.37293640076774"><ele>1881.8571428571427</ele><time>2026-03-22T15:26:57Z</time></trkpt><trkpt lat="21.857785598954578" lon="-102.37292570739042"><ele>1881.9999999999998</ele><time>2026-03-22T15:26:58Z</time></trkpt><trkpt lat="21.857908263664832" lon="-102.37289994257318"><ele>1882.5</ele><time>2026-03-22T15:27:00Z</time></trkpt><trkpt lat="21.858026577304194" lon="-102.37288428708905"><ele>1883.0</ele><time>2026-03-22T15:27:02Z</time></trkpt><trkpt lat="21.858142791061763" lon="-102.37286550983913"><ele>1883.5</ele><time>2026-03-22T15:27:04Z</time></trkpt><trkpt lat="21.858250754999776" lon="-102.3728410622061"><ele>1884.0</ele><time>2026-03-22T15:27:06Z</time></trkpt><trkpt lat="21.85835465877029" lon="-102.37282726970851"><ele>1883.8000000000002</ele><time>2026-03-22T15:27:08Z</time></trkpt><trkpt lat="21.858456915765842" lon="-102.37280444273547"><ele>1883.6000000000001</ele><time>2026-03-22T15:27:10Z</time></trkpt><trkpt lat="21.858542554079534" lon="-102.37279146629176"><ele>1883.4</ele><time>2026-03-22T15:27:13Z</time></trkpt><trkpt lat="21.85861308275977" lon="-102.37278630907122"><ele>1883.2</ele><time>2026-03-22T15:27:15Z</time></trkpt><trkpt lat="21.8587564340997" lon="-102.37275324337371"><ele>1883.0</ele><time>2026-03-22T15:27:16Z</time></trkpt><trkpt lat="21.858859049947363" lon="-102.37273414512092"><ele>1883.0</ele><time>2026-03-22T15:27:18Z</time></trkpt><trkpt lat="21.858960958070263" lon="-102.3727232967786"><ele>1883.0000000000002</ele><time>2026-03-22T15:27:20Z</time></trkpt><trkpt lat="21.85906289202896" lon="-102.3727036247072"><ele>1883.0000000000002</ele><time>2026-03-22T15:27:22Z</time></trkpt><trkpt lat="21.85916080553849" lon="-102.37268122520243"><ele>1883.0</ele><time>2026-03-22T15:27:24Z</time></trkpt><trkpt lat="21.859265465376534" lon="-102.37266166675356"><ele>1883.0</ele><time>2026-03-22T15:27:26Z</time></trkpt><trkpt lat="21.859366147934352" lon="-102.3726468304539"><ele>1883.4</ele><time>2026-03-22T15:27:28Z</time></trkpt><trkpt lat="21.859470538489475" lon="-102.37262776500816"><ele>1883.8000000000002</ele><time>2026-03-22T15:27:30Z</time></trkpt><trkpt lat="21.85957538621544" lon="-102.37260919602431"><ele>1884.2</ele><time>2026-03-22T15:27:32Z</time></trkpt><trkpt lat="21.85968052666612" lon="-102.37259954797332"><ele>1884.6</ele><time>2026-03-22T15:27:34Z</time></trkpt><trkpt lat="21.859770976029196" lon="-102.37258378524146"><ele>1885.0</ele><time>2026-03-22T15:27:36Z</time></trkpt><trkpt lat="21.8598765869867" lon="-102.37257254463044"><ele>1885.0</ele><time>2026-03-22T15:27:38Z</time></trkpt><trkpt lat="21.85998867939101" lon="-102.37255455888884"><ele>1885.0</ele><time>2026-03-22T15:27:40Z</time></trkpt><trkpt lat="21.86010274638738" lon="-102.37253397905964"><ele>1885.0</ele><time>2026-03-22T15:27:42Z</time></trkpt><trkpt lat="21.860216212772265" lon="-102.37250544270724"><ele>1885.0</ele><time>2026-03-22T15:27:44Z</time></trkpt><trkpt lat="21.86033261693769" lon="-102.37247975386067"><ele>1885.4</ele><time>2026-03-22T15:27:46Z</time></trkpt><trkpt lat="21.8604498775536" lon="-102.37245464957462"><ele>1885.8</ele><time>2026-03-22T15:27:48Z</time></trkpt><trkpt lat="21.860567319130016" lon="-102.37242182036401"><ele>1886.1999999999998</ele><time>2026-03-22T15:27:50Z</time></trkpt><trkpt lat="21.860690674579434" lon="-102.37239439591136"><ele>1886.6</ele><time>2026-03-22T15:27:52Z</time></trkpt><trkpt lat="21.860754752805967" lon="-102.37238494147587"><ele>1887.0</ele><time>2026-03-22T15:27:53Z</time></trkpt><trkpt lat="21.860874433133556" lon="-102.37236034194032"><ele>1887.0</ele><time>2026-03-22T15:27:55Z</time></trkpt><trkpt lat="21.86093772306526" lon="-102.37234491839386"><ele>1887.0</ele><time>2026-03-22T15:27:56Z</time></trkpt><trkpt lat="21.86099943258772" lon="-102.37232430947265"><ele>1887.0</ele><time>2026-03-22T15:27:57Z</time></trkpt><trkpt lat="21.861061114417502" lon="-102.37230525967122"><ele>1887.0</ele><time>2026-03-22T15:27:58Z</time></trkpt><trkpt lat="21.86118463569707" lon="-102.37227378667232"><ele>1887.0</ele><time>2026-03-22T15:28:00Z</time></trkpt><trkpt lat="21.861309112598793" lon="-102.37224310447677"><ele>1887.0</ele><time>2026-03-22T15:28:02Z</time></trkpt><trkpt lat="21.861374738734227" lon="-102.37223626536803"><ele>1886.8</ele><time>2026-03-22T15:28:03Z</time></trkpt><trkpt lat="21.861494659564386" lon="-102.37221970806283"><ele>1886.6</ele><time>2026-03-22T15:28:05Z</time></trkpt><trkpt lat="21.861610797408442" lon="-102.37219596824164"><ele>1886.3999999999999</ele><time>2026-03-22T15:28:07Z</time></trkpt><trkpt lat="21.861681354472495" lon="-102.3721730127138"><ele>1886.1999999999998</ele><time>2026-03-22T15:28:08Z</time></trkpt><trkpt lat="21.861746086210278" lon="-102.3721659416959"><ele>1886.0</ele><time>2026-03-22T15:28:09Z</time></trkpt><trkpt lat="21.861871441405157" lon="-102.37215080264407"><ele>1886.0</ele><time>2026-03-22T15:28:11Z</time></trkpt><trkpt lat="21.861994483598085" lon="-102.37212883401266"><ele>1886.0</ele><time>2026-03-22T15:28:13Z</time></trkpt><trkpt lat="21.8621118734976" lon="-102.37207891273482"><ele>1886.0</ele><time>2026-03-22T15:28:15Z</time></trkpt><trkpt lat="21.862226012380912" lon="-102.37201024856684"><ele>1886.0</ele><time>2026-03-22T15:28:17Z</time></trkpt><trkpt lat="21.86232980707924" lon="-102.37193104432731"><ele>1886.0</ele><time>2026-03-22T15:28:19Z</time></trkpt><trkpt lat="21.862412364655025" lon="-102.37183433356445"><ele>1886.0</ele><time>2026-03-22T15:28:21Z</time></trkpt><trkpt lat="21.862480108471754" lon="-102.37173289308305"><ele>1886.0</ele><time>2026-03-22T15:28:23Z</time></trkpt><trkpt lat="21.862531724915815" lon="-102.37161250497144"><ele>1886.0</ele><time>2026-03-22T15:28:25Z</time></trkpt><trkpt lat="21.862580954040666" lon="-102.3714948863439"><ele>1885.9999999999998</ele><time>2026-03-22T15:28:27Z</time></trkpt><trkpt lat="21.862593808087937" lon="-102.37136514490213"><ele>1886.0</ele><time>2026-03-22T15:28:29Z</time></trkpt><trkpt lat="21.862588125175836" lon="-102.371233969276"><ele>1886.0</ele><time>2026-03-22T15:28:31Z</time></trkpt><trkpt lat="21.862581447017508" lon="-102.37116171069142"><ele>1886.0</ele><time>2026-03-22T15:28:32Z</time></trkpt><trkpt lat="21.862569648308607" lon="-102.37108969012819"><ele>1885.9999999999998</ele><time>2026-03-22T15:28:33Z</time></trkpt><trkpt lat="21.86254007534093" lon="-102.37102390997087"><ele>1886.0</ele><time>2026-03-22T15:28:34Z</time></trkpt><trkpt lat="21.862514781184853" lon="-102.37095733582991"><ele>1886.1666666666665</ele><time>2026-03-22T15:28:35Z</time></trkpt><trkpt lat="21.862480783948506" lon="-102.37089684249347"><ele>1886.3333333333333</ele><time>2026-03-22T15:28:36Z</time></trkpt><trkpt lat="21.862441195452977" lon="-102.37084156709224"><ele>1886.5</ele><time>2026-03-22T15:28:37Z</time></trkpt><trkpt lat="21.862395468453826" lon="-102.37078867069897"><ele>1886.6666666666665</ele><time>2026-03-22T15:28:38Z</time></trkpt><trkpt lat="21.862348310071408" lon="-102.37073922808594"><ele>1886.8333333333333</ele><time>2026-03-22T15:28:39Z</time></trkpt><trkpt lat="21.862305290665923" lon="-102.37068669235482"><ele>1887.0</ele><time>2026-03-22T15:28:40Z</time></trkpt><trkpt lat="21.86222176474529" lon="-102.37058260613871"><ele>1886.8571428571427</ele><time>2026-03-22T15:28:42Z</time></trkpt><trkpt lat="21.862181005461107" lon="-102.37052457310466"><ele>1886.7142857142856</ele><time>2026-03-22T15:28:43Z</time></trkpt><trkpt lat="21.86213767162317" lon="-102.37046632881625"><ele>1886.5714285714284</ele><time>2026-03-22T15:28:44Z</time></trkpt><trkpt lat="21.862094002940335" lon="-102.37040733353503"><ele>1886.4285714285716</ele><time>2026-03-22T15:28:45Z</time></trkpt><trkpt lat="21.862051885625224" lon="-102.37034432794053"><ele>1886.2857142857144</ele><time>2026-03-22T15:28:46Z</time></trkpt><trkpt lat="21.862005933591" lon="-102.37027855074444"><ele>1886.1428571428573</ele><time>2026-03-22T15:28:47Z</time></trkpt><trkpt lat="21.86196632272891" lon="-102.37021041699778"><ele>1886.0</ele><time>2026-03-22T15:28:48Z</time></trkpt><trkpt lat="21.861928158745513" lon="-102.37013623051409"><ele>1885.9999999999998</ele><time>2026-03-22T15:28:49Z</time></trkpt><trkpt lat="21.86189094074337" lon="-102.37006383332196"><ele>1886.0</ele><time>2026-03-22T15:28:50Z</time></trkpt><trkpt lat="21.86185613839122" lon="-102.36998592454772"><ele>1886.0</ele><time>2026-03-22T15:28:51Z</time></trkpt><trkpt lat="21.861819319117927" lon="-102.36990963967641"><ele>1886.0</ele><time>2026-03-22T15:28:52Z</time></trkpt><trkpt lat="21.861780535011356" lon="-102.36982708964322"><ele>1885.9999999999998</ele><time>2026-03-22T15:28:53Z</time></trkpt><trkpt lat="21.861735415989678" lon="-102.36974963833605"><ele>1886.0</ele><time>2026-03-22T15:28:54Z</time></trkpt><trkpt lat="21.861695625086217" lon="-102.36967330386445"><ele>1884.8333333333333</ele><time>2026-03-22T15:28:55Z</time></trkpt><trkpt lat="21.861654537482792" lon="-102.36959281578424"><ele>1883.6666666666665</ele><time>2026-03-22T15:28:56Z</time></trkpt><trkpt lat="21.861608008343907" lon="-102.36951174978806"><ele>1882.5</ele><time>2026-03-22T15:28:57Z</time></trkpt><trkpt lat="21.86157537831706" lon="-102.36942767126259"><ele>1881.3333333333335</ele><time>2026-03-22T15:28:58Z</time></trkpt><trkpt lat="21.861535194900206" lon="-102.36934208205963"><ele>1880.1666666666667</ele><time>2026-03-22T15:28:59Z</time></trkpt><trkpt lat="21.861500953406185" lon="-102.36925657574088"><ele>1879.0</ele><time>2026-03-22T15:29:00Z</time></trkpt><trkpt lat="21.861467884693756" lon="-102.36917040446804"><ele>1879.0</ele><time>2026-03-22T15:29:01Z</time></trkpt><trkpt lat="21.861431880434065" lon="-102.36908333426504"><ele>1879.0</ele><time>2026-03-22T15:29:02Z</time></trkpt><trkpt lat="21.86139283532862" lon="-102.36899136608321"><ele>1879.0</ele><time>2026-03-22T15:29:03Z</time></trkpt><trkpt lat="21.861359283219656" lon="-102.36890112706585"><ele>1879.0</ele><time>2026-03-22T15:29:04Z</time></trkpt><trkpt lat="21.86132457382148" lon="-102.3688114110267"><ele>1879.0</ele><time>2026-03-22T15:29:05Z</time></trkpt><trkpt lat="21.861287342889028" lon="-102.36871912030468"><ele>1879.3333333333335</ele><time>2026-03-22T15:29:06Z</time></trkpt><trkpt lat="21.86125264731846" lon="-102.36862702683038"><ele>1879.6666666666667</ele><time>2026-03-22T15:29:07Z</time></trkpt><trkpt lat="21.861220894980796" lon="-102.36853806283442"><ele>1880.0</ele><time>2026-03-22T15:29:08Z</time></trkpt><trkpt lat="21.861184627125958" lon="-102.36845319979574"><ele>1880.3333333333335</ele><time>2026-03-22T15:29:09Z</time></trkpt><trkpt lat="21.8611425672803" lon="-102.36836751684119"><ele>1880.6666666666667</ele><time>2026-03-22T15:29:10Z</time></trkpt><trkpt lat="21.86111812314506" lon="-102.36827227866112"><ele>1881.0</ele><time>2026-03-22T15:29:11Z</time></trkpt><trkpt lat="21.861068059181168" lon="-102.36819073510954"><ele>1881.0</ele><time>2026-03-22T15:29:12Z</time></trkpt><trkpt lat="21.86103537495317" lon="-102.36810155493976"><ele>1881.0</ele><time>2026-03-22T15:29:13Z</time></trkpt><trkpt lat="21.861004227781397" lon="-102.36801688783542"><ele>1881.0</ele><time>2026-03-22T15:29:14Z</time></trkpt><trkpt lat="21.86096556758931" lon="-102.36792862614014"><ele>1881.0</ele><time>2026-03-22T15:29:15Z</time></trkpt><trkpt lat="21.86093151309367" lon="-102.36784211987326"><ele>1881.0</ele><time>2026-03-22T15:29:16Z</time></trkpt><trkpt lat="21.86089672861705" lon="-102.36775483531022"><ele>1881.0</ele><time>2026-03-22T15:29:17Z</time></trkpt><trkpt lat="21.860864363454077" lon="-102.36766851121524"><ele>1880.8333333333333</ele><time>2026-03-22T15:29:18Z</time></trkpt><trkpt lat="21.860826960842413" lon="-102.36758386225885"><ele>1880.6666666666665</ele><time>2026-03-22T15:29:19Z</time></trkpt><trkpt lat="21.86079183100414" lon="-102.36749711713244"><ele>1880.5</ele><time>2026-03-22T15:29:20Z</time></trkpt><trkpt lat="21.86075919554625" lon="-102.36740891748612"><ele>1880.3333333333333</ele><time>2026-03-22T15:29:21Z</time></trkpt><trkpt lat="21.86072068931468" lon="-102.36731854582744"><ele>1880.1666666666665</ele><time>2026-03-22T15:29:22Z</time></trkpt><trkpt lat="21.860687232415206" lon="-102.36723420845091"><ele>1880.0</ele><time>2026-03-22T15:29:23Z</time></trkpt><trkpt lat="21.86067098284154" lon="-102.36714094767801"><ele>1879.6666666666665</ele><time>2026-03-22T15:29:24Z</time></trkpt><trkpt lat="21.860639958926914" lon="-102.36706004547135"><ele>1879.3333333333333</ele><time>2026-03-22T15:29:25Z</time></trkpt><trkpt lat="21.86060839517247" lon="-102.36697977558686"><ele>1879.0</ele><time>2026-03-22T15:29:26Z</time></trkpt><trkpt lat="21.860576991697446" lon="-102.36689990415174"><ele>1878.6666666666665</ele><time>2026-03-22T15:29:27Z</time></trkpt><trkpt lat="21.860545697883758" lon="-102.36682038729239"><ele>1878.3333333333333</ele><time>2026-03-22T15:29:28Z</time></trkpt><trkpt lat="21.860513093526492" lon="-102.36673754322663"><ele>1878.0</ele><time>2026-03-22T15:29:29Z</time></trkpt><trkpt lat="21.860480706575586" lon="-102.36665914132887"><ele>1878.0</ele><time>2026-03-22T15:29:30Z</time></trkpt><trkpt lat="21.86044846583855" lon="-102.36657705693591"><ele>1878.0</ele><time>2026-03-22T15:29:31Z</time></trkpt><trkpt lat="21.860415972528788" lon="-102.36649432950051"><ele>1878.0</ele><time>2026-03-22T15:29:32Z</time></trkpt><trkpt lat="21.860383638869326" lon="-102.3664124035666"><ele>1878.0</ele><time>2026-03-22T15:29:33Z</time></trkpt><trkpt lat="21.860352255704356" lon="-102.36633324593419"><ele>1878.0</ele><time>2026-03-22T15:29:34Z</time></trkpt><trkpt lat="21.860318690797705" lon="-102.3662485853166"><ele>1878.0</ele><time>2026-03-22T15:29:35Z</time></trkpt><trkpt lat="21.86028510831293" lon="-102.36616388035358"><ele>1877.8333333333333</ele><time>2026-03-22T15:29:36Z</time></trkpt><trkpt lat="21.860251886209813" lon="-102.36608008438955"><ele>1877.6666666666665</ele><time>2026-03-22T15:29:37Z</time></trkpt><trkpt lat="21.86021738539734" lon="-102.36599306312218"><ele>1877.5</ele><time>2026-03-22T15:29:38Z</time></trkpt><trkpt lat="21.860184240681576" lon="-102.36590946235128"><ele>1877.3333333333333</ele><time>2026-03-22T15:29:39Z</time></trkpt><trkpt lat="21.860151743552276" lon="-102.36582619149348"><ele>1877.1666666666665</ele><time>2026-03-22T15:29:40Z</time></trkpt><trkpt lat="21.86012288771763" lon="-102.36575190871623"><ele>1877.0</ele><time>2026-03-22T15:29:41Z</time></trkpt><trkpt lat="21.86008479103589" lon="-102.36565573494518"><ele>1876.6666666666665</ele><time>2026-03-22T15:29:42Z</time></trkpt><trkpt lat="21.860051629721767" lon="-102.36557202027758"><ele>1876.3333333333333</ele><time>2026-03-22T15:29:43Z</time></trkpt><trkpt lat="21.86001647543146" lon="-102.36548384273065"><ele>1876.0</ele><time>2026-03-22T15:29:44Z</time></trkpt><trkpt lat="21.859981797873115" lon="-102.36540011580172"><ele>1875.6666666666665</ele><time>2026-03-22T15:29:45Z</time></trkpt><trkpt lat="21.859946036533294" lon="-102.36531313204544"><ele>1875.3333333333333</ele><time>2026-03-22T15:29:46Z</time></trkpt><trkpt lat="21.859910816254107" lon="-102.3652270220825"><ele>1875.0</ele><time>2026-03-22T15:29:47Z</time></trkpt><trkpt lat="21.85987548642788" lon="-102.36514102985507"><ele>1875.0</ele><time>2026-03-22T15:29:48Z</time></trkpt><trkpt lat="21.85984023869568" lon="-102.36505503664642"><ele>1875.0</ele><time>2026-03-22T15:29:49Z</time></trkpt><trkpt lat="21.859804817597702" lon="-102.36496768568549"><ele>1875.0</ele><time>2026-03-22T15:29:50Z</time></trkpt><trkpt lat="21.859768700966814" lon="-102.36487981847137"><ele>1875.0</ele><time>2026-03-22T15:29:51Z</time></trkpt><trkpt lat="21.859735297590657" lon="-102.36479917563787"><ele>1875.0</ele><time>2026-03-22T15:29:52Z</time></trkpt><trkpt lat="21.85969804955937" lon="-102.36470803683154"><ele>1875.0</ele><time>2026-03-22T15:29:53Z</time></trkpt><trkpt lat="21.85966039403049" lon="-102.36463020338199"><ele>1875.0</ele><time>2026-03-22T15:29:54Z</time></trkpt><trkpt lat="21.859623773405502" lon="-102.3645481753678"><ele>1875.0</ele><time>2026-03-22T15:29:55Z</time></trkpt><trkpt lat="21.859593781315123" lon="-102.3644627458825"><ele>1875.0</ele><time>2026-03-22T15:29:56Z</time></trkpt><trkpt lat="21.859555102071994" lon="-102.36437931898875"><ele>1875.0</ele><time>2026-03-22T15:29:57Z</time></trkpt><trkpt lat="21.85952362572659" lon="-102.3642959019303"><ele>1875.0</ele><time>2026-03-22T15:29:58Z</time></trkpt><trkpt lat="21.859483248439815" lon="-102.36421209540354"><ele>1875.0</ele><time>2026-03-22T15:29:59Z</time></trkpt><trkpt lat="21.859447146123838" lon="-102.36412880284502"><ele>1875.0</ele><time>2026-03-22T15:30:00Z</time></trkpt><trkpt lat="21.85941776431485" lon="-102.36404164932912"><ele>1875.0</ele><time>2026-03-22T15:30:01Z</time></trkpt><trkpt lat="21.859383798060254" lon="-102.3639570785516"><ele>1875.0</ele><time>2026-03-22T15:30:02Z</time></trkpt><trkpt lat="21.85935027689383" lon="-102.36387039771438"><ele>1875.0</ele><time>2026-03-22T15:30:03Z</time></trkpt><trkpt lat="21.859315373009615" lon="-102.36378528119144"><ele>1875.0</ele><time>2026-03-22T15:30:04Z</time></trkpt><trkpt lat="21.85928283812417" lon="-102.3636961560968"><ele>1875.0</ele><time>2026-03-22T15:30:05Z</time></trkpt><trkpt lat="21.859249950123434" lon="-102.36361302301397"><ele>1874.6666666666667</ele><time>2026-03-22T15:30:06Z</time></trkpt><trkpt lat="21.85920921255222" lon="-102.36352911149726"><ele>1874.3333333333335</ele><time>2026-03-22T15:30:07Z</time></trkpt><trkpt lat="21.859173997679328" lon="-102.3634445474908"><ele>1874.0</ele><time>2026-03-22T15:30:08Z</time></trkpt><trkpt lat="21.859143249985856" lon="-102.3633544516814"><ele>1873.6666666666667</ele><time>2026-03-22T15:30:09Z</time></trkpt><trkpt lat="21.85911061749748" lon="-102.36326823492739"><ele>1873.3333333333335</ele><time>2026-03-22T15:30:10Z</time></trkpt><trkpt lat="21.859076238803098" lon="-102.36317984047669"><ele>1873.0</ele><time>2026-03-22T15:30:11Z</time></trkpt><trkpt lat="21.859041379769756" lon="-102.36309299031086"><ele>1872.8000000000002</ele><time>2026-03-22T15:30:12Z</time></trkpt><trkpt lat="21.859005273760747" lon="-102.36300436747362"><ele>1872.6000000000001</ele><time>2026-03-22T15:30:13Z</time></trkpt><trkpt lat="21.858967797140824" lon="-102.36291442193426"><ele>1872.3999999999999</ele><time>2026-03-22T15:30:14Z</time></trkpt><trkpt lat="21.858932499224142" lon="-102.36282552868552"><ele>1872.1999999999998</ele><time>2026-03-22T15:30:15Z</time></trkpt><trkpt lat="21.858893181221944" lon="-102.36273307003677"><ele>1872.0</ele><time>2026-03-22T15:30:16Z</time></trkpt><trkpt lat="21.858856169786026" lon="-102.36264142039558"><ele>1872.0</ele><time>2026-03-22T15:30:17Z</time></trkpt><trkpt lat="21.8588184390417" lon="-102.3625495351319"><ele>1871.9999999999998</ele><time>2026-03-22T15:30:18Z</time></trkpt><trkpt lat="21.858780923304845" lon="-102.36245193398636"><ele>1871.9999999999998</ele><time>2026-03-22T15:30:19Z</time></trkpt><trkpt lat="21.85874899856222" lon="-102.36236348397317"><ele>1872.0</ele><time>2026-03-22T15:30:20Z</time></trkpt><trkpt lat="21.858714520992756" lon="-102.36226763534303"><ele>1872.0</ele><time>2026-03-22T15:30:21Z</time></trkpt><trkpt lat="21.858672913937458" lon="-102.36217388748271"><ele>1871.6</ele><time>2026-03-22T15:30:22Z</time></trkpt><trkpt lat="21.858632266019097" lon="-102.3620812309357"><ele>1871.1999999999998</ele><time>2026-03-22T15:30:23Z</time></trkpt><trkpt lat="21.85859347120219" lon="-102.36198791880183"><ele>1870.8</ele><time>2026-03-22T15:30:24Z</time></trkpt><trkpt lat="21.858563554811298" lon="-102.36189049190124"><ele>1870.4</ele><time>2026-03-22T15:30:25Z</time></trkpt><trkpt lat="21.85852449664625" lon="-102.36180177770687"><ele>1870.0</ele><time>2026-03-22T15:30:26Z</time></trkpt><trkpt lat="21.858487784767547" lon="-102.36171116659274"><ele>1870.0000000000002</ele><time>2026-03-22T15:30:27Z</time></trkpt><trkpt lat="21.858452055349055" lon="-102.36162199314563"><ele>1870.0</ele><time>2026-03-22T15:30:28Z</time></trkpt><trkpt lat="21.85841910023196" lon="-102.36152996240646"><ele>1870.0</ele><time>2026-03-22T15:30:29Z</time></trkpt><trkpt lat="21.85838048896259" lon="-102.36144054220219"><ele>1870.0</ele><time>2026-03-22T15:30:30Z</time></trkpt><trkpt lat="21.858346320997605" lon="-102.3613508519086"><ele>1870.0000000000002</ele><time>2026-03-22T15:30:31Z</time></trkpt><trkpt lat="21.85831451308707" lon="-102.3612647995591"><ele>1870.0</ele><time>2026-03-22T15:30:32Z</time></trkpt><trkpt lat="21.85828098915671" lon="-102.36118260557203"><ele>1869.8333333333335</ele><time>2026-03-22T15:30:33Z</time></trkpt><trkpt lat="21.858242742954012" lon="-102.36109810637663"><ele>1869.6666666666667</ele><time>2026-03-22T15:30:34Z</time></trkpt><trkpt lat="21.858209380152783" lon="-102.3610171602168"><ele>1869.5</ele><time>2026-03-22T15:30:35Z</time></trkpt><trkpt lat="21.858173301992824" lon="-102.36093925046248"><ele>1869.3333333333335</ele><time>2026-03-22T15:30:36Z</time></trkpt><trkpt lat="21.858138340748717" lon="-102.3608643815611"><ele>1869.1666666666667</ele><time>2026-03-22T15:30:37Z</time></trkpt><trkpt lat="21.85810361965715" lon="-102.36079144112718"><ele>1869.0</ele><time>2026-03-22T15:30:38Z</time></trkpt><trkpt lat="21.858075218822957" lon="-102.3607207823427"><ele>1869.0</ele><time>2026-03-22T15:30:39Z</time></trkpt><trkpt lat="21.85804089325435" lon="-102.36065792650028"><ele>1869.0</ele><time>2026-03-22T15:30:40Z</time></trkpt><trkpt lat="21.858003584727037" lon="-102.36058828837866"><ele>1869.0</ele><time>2026-03-22T15:30:41Z</time></trkpt><trkpt lat="21.85797243952793" lon="-102.36052119730215"><ele>1869.0</ele><time>2026-03-22T15:30:42Z</time></trkpt><trkpt lat="21.85793791965789" lon="-102.36045272615888"><ele>1869.0</ele><time>2026-03-22T15:30:43Z</time></trkpt><trkpt lat="21.857907582196358" lon="-102.36038356506491"><ele>1869.0</ele><time>2026-03-22T15:30:44Z</time></trkpt><trkpt lat="21.857873601822604" lon="-102.36031499773577"><ele>1869.0</ele><time>2026-03-22T15:30:45Z</time></trkpt><trkpt lat="21.8578303770941" lon="-102.36025036028705"><ele>1869.142857142857</ele><time>2026-03-22T15:30:46Z</time></trkpt><trkpt lat="21.857793792122358" lon="-102.36018532046594"><ele>1869.2857142857142</ele><time>2026-03-22T15:30:47Z</time></trkpt><trkpt lat="21.85776062673398" lon="-102.36012031666519"><ele>1869.4285714285716</ele><time>2026-03-22T15:30:48Z</time></trkpt><trkpt lat="21.857727591757488" lon="-102.36005590033575"><ele>1869.5714285714287</ele><time>2026-03-22T15:30:49Z</time></trkpt><trkpt lat="21.857688840818447" lon="-102.35999410549688"><ele>1869.7142857142858</ele><time>2026-03-22T15:30:50Z</time></trkpt><trkpt lat="21.857648658280088" lon="-102.35993140219254"><ele>1869.8571428571431</ele><time>2026-03-22T15:30:51Z</time></trkpt><trkpt lat="21.85761061101407" lon="-102.35987250164044"><ele>1870.0000000000002</ele><time>2026-03-22T15:30:52Z</time></trkpt><trkpt lat="21.857574327987013" lon="-102.3598096000975"><ele>1869.714285714286</ele><time>2026-03-22T15:30:53Z</time></trkpt><trkpt lat="21.857532809160936" lon="-102.35974573192482"><ele>1869.4285714285716</ele><time>2026-03-22T15:30:54Z</time></trkpt><trkpt lat="21.857497637366105" lon="-102.35967829077963"><ele>1869.142857142857</ele><time>2026-03-22T15:30:55Z</time></trkpt><trkpt lat="21.857461766432642" lon="-102.35961194725621"><ele>1868.857142857143</ele><time>2026-03-22T15:30:56Z</time></trkpt><trkpt lat="21.857430969396635" lon="-102.35954020652541"><ele>1868.5714285714284</ele><time>2026-03-22T15:30:57Z</time></trkpt><trkpt lat="21.857402288990624" lon="-102.35947410691202"><ele>1868.285714285714</ele><time>2026-03-22T15:30:58Z</time></trkpt><trkpt lat="21.857361871452774" lon="-102.35940580428546"><ele>1867.9999999999998</ele><time>2026-03-22T15:30:59Z</time></trkpt><trkpt lat="21.857318382125854" lon="-102.35933572536962"><ele>1867.9999999999998</ele><time>2026-03-22T15:31:00Z</time></trkpt><trkpt lat="21.857278122801667" lon="-102.35926519210686"><ele>1868.0</ele><time>2026-03-22T15:31:01Z</time></trkpt><trkpt lat="21.857232331128582" lon="-102.35919594720087"><ele>1868.0</ele><time>2026-03-22T15:31:02Z</time></trkpt><trkpt lat="21.857190896309376" lon="-102.35912204864864"><ele>1868.0</ele><time>2026-03-22T15:31:03Z</time></trkpt><trkpt lat="21.85714717411449" lon="-102.35905042452016"><ele>1867.9999999999998</ele><time>2026-03-22T15:31:04Z</time></trkpt><trkpt lat="21.85710676452025" lon="-102.35897741510412"><ele>1868.0</ele><time>2026-03-22T15:31:05Z</time></trkpt><trkpt lat="21.85706483934625" lon="-102.35890661618441"><ele>1868.1666666666665</ele><time>2026-03-22T15:31:06Z</time></trkpt><trkpt lat="21.85701958822413" lon="-102.35883184387347"><ele>1868.3333333333333</ele><time>2026-03-22T15:31:07Z</time></trkpt><trkpt lat="21.856973253178104" lon="-102.35875964661496"><ele>1868.5</ele><time>2026-03-22T15:31:08Z</time></trkpt><trkpt lat="21.856927924861274" lon="-102.35868386485043"><ele>1868.6666666666665</ele><time>2026-03-22T15:31:09Z</time></trkpt><trkpt lat="21.85688485386821" lon="-102.35860972209649"><ele>1868.8333333333333</ele><time>2026-03-22T15:31:10Z</time></trkpt><trkpt lat="21.85684208995989" lon="-102.35853446882739"><ele>1869.0</ele><time>2026-03-22T15:31:11Z</time></trkpt><trkpt lat="21.85679647866105" lon="-102.3584607313329"><ele>1869.0</ele><time>2026-03-22T15:31:12Z</time></trkpt><trkpt lat="21.856754532233825" lon="-102.35838667916232"><ele>1869.0</ele><time>2026-03-22T15:31:13Z</time></trkpt><trkpt lat="21.85670755172902" lon="-102.35831650004086"><ele>1869.0</ele><time>2026-03-22T15:31:14Z</time></trkpt><trkpt lat="21.856664761098" lon="-102.35823992665654"><ele>1869.0</ele><time>2026-03-22T15:31:15Z</time></trkpt><trkpt lat="21.856617942208103" lon="-102.3581668240115"><ele>1869.0</ele><time>2026-03-22T15:31:16Z</time></trkpt><trkpt lat="21.856572285271657" lon="-102.35809043580771"><ele>1869.0</ele><time>2026-03-22T15:31:17Z</time></trkpt><trkpt lat="21.85653257489165" lon="-102.35802080260368"><ele>1869.2857142857142</ele><time>2026-03-22T15:31:18Z</time></trkpt><trkpt lat="21.85649077491575" lon="-102.35795190049384"><ele>1869.5714285714284</ele><time>2026-03-22T15:31:19Z</time></trkpt><trkpt lat="21.856448830925217" lon="-102.35788237279064"><ele>1869.857142857143</ele><time>2026-03-22T15:31:20Z</time></trkpt><trkpt lat="21.856406174447603" lon="-102.35781956139144"><ele>1870.142857142857</ele><time>2026-03-22T15:31:21Z</time></trkpt><trkpt lat="21.85636602925465" lon="-102.3577552046527"><ele>1870.4285714285713</ele><time>2026-03-22T15:31:22Z</time></trkpt><trkpt lat="21.8563257844179" lon="-102.35768961272133"><ele>1870.7142857142858</ele><time>2026-03-22T15:31:23Z</time></trkpt><trkpt lat="21.856288075442475" lon="-102.35762387773454"><ele>1871.0</ele><time>2026-03-22T15:31:24Z</time></trkpt><trkpt lat="21.856251729849014" lon="-102.35755895088337"><ele>1871.0</ele><time>2026-03-22T15:31:25Z</time></trkpt><trkpt lat="21.856211183815894" lon="-102.3574943726002"><ele>1871.0</ele><time>2026-03-22T15:31:26Z</time></trkpt><trkpt lat="21.85617268809891" lon="-102.35742812137116"><ele>1871.0</ele><time>2026-03-22T15:31:27Z</time></trkpt><trkpt lat="21.856131403470144" lon="-102.3573620090271"><ele>1871.0</ele><time>2026-03-22T15:31:28Z</time></trkpt><trkpt lat="21.856093346416568" lon="-102.35729346991104"><ele>1871.0</ele><time>2026-03-22T15:31:29Z</time></trkpt><trkpt lat="21.856057231105115" lon="-102.35722017908158"><ele>1871.0</ele><time>2026-03-22T15:31:30Z</time></trkpt><trkpt lat="21.856012226744745" lon="-102.35716056096159"><ele>1871.0</ele><time>2026-03-22T15:31:31Z</time></trkpt><trkpt lat="21.8559747864246" lon="-102.35709255332078"><ele>1870.5714285714287</ele><time>2026-03-22T15:31:32Z</time></trkpt><trkpt lat="21.855932949802895" lon="-102.35702575500068"><ele>1870.1428571428569</ele><time>2026-03-22T15:31:33Z</time></trkpt><trkpt lat="21.855888456226797" lon="-102.3569648642871"><ele>1869.7142857142856</ele><time>2026-03-22T15:31:34Z</time></trkpt><trkpt lat="21.855844277928053" lon="-102.35689604780845"><ele>1869.2857142857142</ele><time>2026-03-22T15:31:35Z</time></trkpt><trkpt lat="21.855809564930592" lon="-102.35682177211072"><ele>1868.8571428571427</ele><time>2026-03-22T15:31:36Z</time></trkpt><trkpt lat="21.855770966503755" lon="-102.35675149394957"><ele>1868.428571428571</ele><time>2026-03-22T15:31:37Z</time></trkpt><trkpt lat="21.855728765067536" lon="-102.35668904139787"><ele>1867.9999999999998</ele><time>2026-03-22T15:31:38Z</time></trkpt><trkpt lat="21.855680515517417" lon="-102.35662427735615"><ele>1867.9999999999998</ele><time>2026-03-22T15:31:39Z</time></trkpt><trkpt lat="21.85563746369195" lon="-102.35654804883664"><ele>1868.0</ele><time>2026-03-22T15:31:40Z</time></trkpt><trkpt lat="21.85559402619773" lon="-102.3564779977023"><ele>1868.0</ele><time>2026-03-22T15:31:41Z</time></trkpt><trkpt lat="21.855549091783807" lon="-102.3564045166731"><ele>1868.0</ele><time>2026-03-22T15:31:42Z</time></trkpt><trkpt lat="21.855503740639563" lon="-102.35633222079889"><ele>1867.9999999999998</ele><time>2026-03-22T15:31:43Z</time></trkpt><trkpt lat="21.85545682487379" lon="-102.35625938631861"><ele>1868.0</ele><time>2026-03-22T15:31:44Z</time></trkpt><trkpt lat="21.855415970474176" lon="-102.35618486837468"><ele>1867.8333333333333</ele><time>2026-03-22T15:31:45Z</time></trkpt><trkpt lat="21.855371331072565" lon="-102.35610439936733"><ele>1867.6666666666665</ele><time>2026-03-22T15:31:46Z</time></trkpt><trkpt lat="21.85533051658026" lon="-102.35603063533426"><ele>1867.5</ele><time>2026-03-22T15:31:47Z</time></trkpt><trkpt lat="21.85526430166655" lon="-102.35596719701506"><ele>1867.3333333333335</ele><time>2026-03-22T15:31:48Z</time></trkpt><trkpt lat="21.855217976480105" lon="-102.35589360448239"><ele>1867.1666666666667</ele><time>2026-03-22T15:31:49Z</time></trkpt><trkpt lat="21.85516474932957" lon="-102.35582574035477"><ele>1867.0</ele><time>2026-03-22T15:31:50Z</time></trkpt><trkpt lat="21.855108702628947" lon="-102.35575860778211"><ele>1867.0000000000002</ele><time>2026-03-22T15:31:51Z</time></trkpt><trkpt lat="21.855070007344658" lon="-102.3556833175469"><ele>1867.0</ele><time>2026-03-22T15:31:52Z</time></trkpt><trkpt lat="21.8550044220528" lon="-102.35562912999525"><ele>1867.0</ele><time>2026-03-22T15:31:53Z</time></trkpt><trkpt lat="21.854952786352822" lon="-102.35556400631344"><ele>1867.0</ele><time>2026-03-22T15:31:54Z</time></trkpt><trkpt lat="21.854902607981735" lon="-102.35550378086046"><ele>1867.0000000000002</ele><time>2026-03-22T15:31:55Z</time></trkpt><trkpt lat="21.854850183212353" lon="-102.35543805093266"><ele>1867.0</ele><time>2026-03-22T15:31:56Z</time></trkpt><trkpt lat="21.854800693065354" lon="-102.3553745390733"><ele>1866.8333333333335</ele><time>2026-03-22T15:31:57Z</time></trkpt><trkpt lat="21.85474343894883" lon="-102.35531415315693"><ele>1866.6666666666667</ele><time>2026-03-22T15:31:58Z</time></trkpt><trkpt lat="21.85469131024399" lon="-102.35525027122391"><ele>1866.5</ele><time>2026-03-22T15:31:59Z</time></trkpt><trkpt lat="21.854628096370657" lon="-102.35519785936174"><ele>1866.3333333333335</ele><time>2026-03-22T15:32:00Z</time></trkpt><trkpt lat="21.854562419286836" lon="-102.35515063745257"><ele>1866.1666666666667</ele><time>2026-03-22T15:32:01Z</time></trkpt><trkpt lat="21.85449906403296" lon="-102.3550958309778"><ele>1866.0</ele><time>2026-03-22T15:32:02Z</time></trkpt><trkpt lat="21.854432518120447" lon="-102.35504853255999"><ele>1866.0</ele><time>2026-03-22T15:32:03Z</time></trkpt><trkpt lat="21.854373806019467" lon="-102.3550000325367"><ele>1866.0</ele><time>2026-03-22T15:32:04Z</time></trkpt><trkpt lat="21.85430934509069" lon="-102.35494599376041"><ele>1866.0</ele><time>2026-03-22T15:32:05Z</time></trkpt><trkpt lat="21.85424637117804" lon="-102.35489798920939"><ele>1866.0</ele><time>2026-03-22T15:32:06Z</time></trkpt><trkpt lat="21.854183833220723" lon="-102.35484891277517"><ele>1866.0</ele><time>2026-03-22T15:32:07Z</time></trkpt><trkpt lat="21.85412198266471" lon="-102.35480556571817"><ele>1866.0</ele><time>2026-03-22T15:32:08Z</time></trkpt><trkpt lat="21.854057353225596" lon="-102.35475843869897"><ele>1865.5</ele><time>2026-03-22T15:32:09Z</time></trkpt><trkpt lat="21.853991007949315" lon="-102.3547176744621"><ele>1865.0</ele><time>2026-03-22T15:32:10Z</time></trkpt><trkpt lat="21.853919513220216" lon="-102.35468422800751"><ele>1864.5</ele><time>2026-03-22T15:32:11Z</time></trkpt><trkpt lat="21.853849409915934" lon="-102.35464819500423"><ele>1864.0</ele><time>2026-03-22T15:32:12Z</time></trkpt><trkpt lat="21.853785845859807" lon="-102.35460220716062"><ele>1863.5</ele><time>2026-03-22T15:32:13Z</time></trkpt><trkpt lat="21.85372978982849" lon="-102.35455391065086"><ele>1863.0</ele><time>2026-03-22T15:32:14Z</time></trkpt><trkpt lat="21.85367424237589" lon="-102.35450504110435"><ele>1863.0000000000002</ele><time>2026-03-22T15:32:15Z</time></trkpt><trkpt lat="21.85362445878106" lon="-102.35445989779886"><ele>1863.0</ele><time>2026-03-22T15:32:16Z</time></trkpt><trkpt lat="21.853565705895168" lon="-102.35440925520024"><ele>1863.0000000000002</ele><time>2026-03-22T15:32:17Z</time></trkpt><trkpt lat="21.853507517138976" lon="-102.35436521153538"><ele>1863.0000000000002</ele><time>2026-03-22T15:32:18Z</time></trkpt><trkpt lat="21.853448158645612" lon="-102.35432477911155"><ele>1863.0</ele><time>2026-03-22T15:32:19Z</time></trkpt><trkpt lat="21.853392244133616" lon="-102.35428191847892"><ele>1863.0000000000002</ele><time>2026-03-22T15:32:20Z</time></trkpt><trkpt lat="21.85333145435522" lon="-102.35423865633638"><ele>1863.0000000000002</ele><time>2026-03-22T15:32:21Z</time></trkpt><trkpt lat="21.85326979293077" lon="-102.3541961852649"><ele>1863.0000000000002</ele><time>2026-03-22T15:32:22Z</time></trkpt><trkpt lat="21.853210825558065" lon="-102.35414841076556"><ele>1863.0</ele><time>2026-03-22T15:32:23Z</time></trkpt><trkpt lat="21.853154096339185" lon="-102.35410093722992"><ele>1863.0000000000002</ele><time>2026-03-22T15:32:24Z</time></trkpt><trkpt lat="21.853099725887116" lon="-102.35404897461271"><ele>1863.0000000000002</ele><time>2026-03-22T15:32:25Z</time></trkpt><trkpt lat="21.85302582931475" lon="-102.35402736076047"><ele>1863.0</ele><time>2026-03-22T15:32:26Z</time></trkpt><trkpt lat="21.85298466814032" lon="-102.35395494390744"><ele>1863.0000000000002</ele><time>2026-03-22T15:32:27Z</time></trkpt><trkpt lat="21.85292853885365" lon="-102.35391121119652"><ele>1863.0000000000002</ele><time>2026-03-22T15:32:28Z</time></trkpt><trkpt lat="21.852876687808656" lon="-102.35386351181388"><ele>1863.2</ele><time>2026-03-22T15:32:29Z</time></trkpt><trkpt lat="21.85282540291094" lon="-102.35381717629559"><ele>1863.4</ele><time>2026-03-22T15:32:30Z</time></trkpt><trkpt lat="21.852728524851354" lon="-102.35373264357177"><ele>1863.6000000000001</ele><time>2026-03-22T15:32:32Z</time></trkpt><trkpt lat="21.85264270920062" lon="-102.35364977978908"><ele>1863.8000000000002</ele><time>2026-03-22T15:32:34Z</time></trkpt><trkpt lat="21.852562954063146" lon="-102.353576252975"><ele>1864.0</ele><time>2026-03-22T15:32:36Z</time></trkpt><trkpt lat="21.852483612296993" lon="-102.35349460552104"><ele>1864.0</ele><time>2026-03-22T15:32:38Z</time></trkpt><trkpt lat="21.852396620038306" lon="-102.35341344221152"><ele>1864.0</ele><time>2026-03-22T15:32:40Z</time></trkpt><trkpt lat="21.852311723702293" lon="-102.35331440616221"><ele>1864.0</ele><time>2026-03-22T15:32:42Z</time></trkpt><trkpt lat="21.852230150528353" lon="-102.35320934074669"><ele>1864.0</ele><time>2026-03-22T15:32:44Z</time></trkpt><trkpt lat="21.85218058259766" lon="-102.35309155597088"><ele>1864.0000000000002</ele><time>2026-03-22T15:32:46Z</time></trkpt><trkpt lat="21.852105862734213" lon="-102.35308114637121"><ele>1864.0</ele><time>2026-03-22T15:32:47Z</time></trkpt><trkpt lat="21.852145892590325" lon="-102.35297847316146"><ele>1864.0</ele><time>2026-03-22T15:32:48Z</time></trkpt><trkpt lat="21.852188769742156" lon="-102.35286737573172"><ele>1864.0</ele><time>2026-03-22T15:32:50Z</time></trkpt><trkpt lat="21.852224268190813" lon="-102.35280754396226"><ele>1864.0000000000002</ele><time>2026-03-22T15:32:51Z</time></trkpt><trkpt lat="21.852278966040977" lon="-102.35276987450514"><ele>1864.0</ele><time>2026-03-22T15:32:52Z</time></trkpt><trkpt lat="21.85234220135776" lon="-102.35271964100528"><ele>1864.6</ele><time>2026-03-22T15:32:53Z</time></trkpt><trkpt lat="21.852398473226824" lon="-102.35268004169265"><ele>1865.2</ele><time>2026-03-22T15:32:54Z</time></trkpt><trkpt lat="21.852487703808876" lon="-102.35260936011247"><ele>1865.7999999999997</ele><time>2026-03-22T15:32:56Z</time></trkpt><trkpt lat="21.85257750410434" lon="-102.3525258178935"><ele>1866.3999999999999</ele><time>2026-03-22T15:32:58Z</time></trkpt><trkpt lat="21.852657466200363" lon="-102.3524496899244"><ele>1867.0</ele><time>2026-03-22T15:33:00Z</time></trkpt><trkpt lat="21.852740231916037" lon="-102.35236500327008"><ele>1867.0</ele><time>2026-03-22T15:33:02Z</time></trkpt><trkpt lat="21.852823105189838" lon="-102.35229482083243"><ele>1866.9999999999998</ele><time>2026-03-22T15:33:04Z</time></trkpt><trkpt lat="21.85290534413522" lon="-102.35221385045934"><ele>1866.9999999999998</ele><time>2026-03-22T15:33:06Z</time></trkpt><trkpt lat="21.852985891247258" lon="-102.35213454571176"><ele>1867.0</ele><time>2026-03-22T15:33:08Z</time></trkpt><trkpt lat="21.853067252887527" lon="-102.35206174303198"><ele>1867.0</ele><time>2026-03-22T15:33:10Z</time></trkpt><trkpt lat="21.853146231857277" lon="-102.3519818383956"><ele>1867.6</ele><time>2026-03-22T15:33:12Z</time></trkpt><trkpt lat="21.85322451447109" lon="-102.3519003150235"><ele>1868.1999999999998</ele><time>2026-03-22T15:33:14Z</time></trkpt><trkpt lat="21.85330903217694" lon="-102.35181255223267"><ele>1868.8</ele><time>2026-03-22T15:33:16Z</time></trkpt><trkpt lat="21.853377158325497" lon="-102.35171818625417"><ele>1869.4</ele><time>2026-03-22T15:33:18Z</time></trkpt><trkpt lat="21.85345797085471" lon="-102.35163842646477"><ele>1870.0</ele><time>2026-03-22T15:33:20Z</time></trkpt><trkpt lat="21.853545401341123" lon="-102.35156351842211"><ele>1870.0</ele><time>2026-03-22T15:33:22Z</time></trkpt><trkpt lat="21.853630828790855" lon="-102.35148469185748"><ele>1870.0</ele><time>2026-03-22T15:33:24Z</time></trkpt><trkpt lat="21.853716957825306" lon="-102.35140603239218"><ele>1870.0</ele><time>2026-03-22T15:33:26Z</time></trkpt><trkpt lat="21.85380077398287" lon="-102.35133173449582"><ele>1870.0</ele><time>2026-03-22T15:33:28Z</time></trkpt><trkpt lat="21.85387783991275" lon="-102.3512480737042"><ele>1870.0</ele><time>2026-03-22T15:33:30Z</time></trkpt><trkpt lat="21.853956056195432" lon="-102.35117586685939"><ele>1870.6</ele><time>2026-03-22T15:33:32Z</time></trkpt><trkpt lat="21.854033302530894" lon="-102.35110512388822"><ele>1871.2</ele><time>2026-03-22T15:33:34Z</time></trkpt><trkpt lat="21.854114124372014" lon="-102.35102483973156"><ele>1871.8000000000002</ele><time>2026-03-22T15:33:36Z</time></trkpt><trkpt lat="21.854193662946226" lon="-102.35094185732066"><ele>1872.4</ele><time>2026-03-22T15:33:38Z</time></trkpt><trkpt lat="21.85427975937145" lon="-102.35086297720831"><ele>1873.0</ele><time>2026-03-22T15:33:40Z</time></trkpt><trkpt lat="21.854363129117225" lon="-102.35078237446804"><ele>1873.2</ele><time>2026-03-22T15:33:42Z</time></trkpt><trkpt lat="21.854443820344777" lon="-102.35070476409933"><ele>1873.4</ele><time>2026-03-22T15:33:44Z</time></trkpt><trkpt lat="21.85452238794555" lon="-102.35063124289863"><ele>1873.6000000000001</ele><time>2026-03-22T15:33:46Z</time></trkpt><trkpt lat="21.85459921222469" lon="-102.35054790784372"><ele>1873.8000000000002</ele><time>2026-03-22T15:33:48Z</time></trkpt><trkpt lat="21.8546794858133" lon="-102.35047146788384"><ele>1874.0</ele><time>2026-03-22T15:33:50Z</time></trkpt><trkpt lat="21.854756368488466" lon="-102.35039389350858"><ele>1874.6</ele><time>2026-03-22T15:33:52Z</time></trkpt><trkpt lat="21.854834658660508" lon="-102.35031971606021"><ele>1875.2</ele><time>2026-03-22T15:33:54Z</time></trkpt><trkpt lat="21.854915070173895" lon="-102.35024713972788"><ele>1875.7999999999997</ele><time>2026-03-22T15:33:56Z</time></trkpt><trkpt lat="21.854993743814205" lon="-102.3501925220174"><ele>1876.3999999999999</ele><time>2026-03-22T15:33:58Z</time></trkpt><trkpt lat="21.855075932367253" lon="-102.35011129178908"><ele>1877.0</ele><time>2026-03-22T15:34:00Z</time></trkpt><trkpt lat="21.85515371575085" lon="-102.35002684229421"><ele>1877.0</ele><time>2026-03-22T15:34:02Z</time></trkpt><trkpt lat="21.85522751688409" lon="-102.34995133378992"><ele>1876.9999999999998</ele><time>2026-03-22T15:34:04Z</time></trkpt><trkpt lat="21.855307066847022" lon="-102.34987818843412"><ele>1876.9999999999998</ele><time>2026-03-22T15:34:06Z</time></trkpt><trkpt lat="21.855384828328987" lon="-102.34979909614297"><ele>1877.0</ele><time>2026-03-22T15:34:08Z</time></trkpt><trkpt lat="21.855468503427794" lon="-102.34972185886049"><ele>1877.0</ele><time>2026-03-22T15:34:10Z</time></trkpt><trkpt lat="21.855550043388583" lon="-102.34964525554437"><ele>1877.6</ele><time>2026-03-22T15:34:12Z</time></trkpt><trkpt lat="21.855627958878365" lon="-102.34956584712589"><ele>1878.1999999999998</ele><time>2026-03-22T15:34:14Z</time></trkpt><trkpt lat="21.855699257191702" lon="-102.34948419028139"><ele>1878.8</ele><time>2026-03-22T15:34:16Z</time></trkpt><trkpt lat="21.855778833993494" lon="-102.34940713524587"><ele>1879.4</ele><time>2026-03-22T15:34:18Z</time></trkpt><trkpt lat="21.855857820343818" lon="-102.34932721348618"><ele>1880.0</ele><time>2026-03-22T15:34:20Z</time></trkpt><trkpt lat="21.8559483138567" lon="-102.3492479756026"><ele>1880.0</ele><time>2026-03-22T15:34:22Z</time></trkpt><trkpt lat="21.856042286086733" lon="-102.3491742048048"><ele>1880.0</ele><time>2026-03-22T15:34:24Z</time></trkpt><trkpt lat="21.856124774674104" lon="-102.34908881979813"><ele>1880.0</ele><time>2026-03-22T15:34:26Z</time></trkpt><trkpt lat="21.85620109427827" lon="-102.3490098264916"><ele>1880.0</ele><time>2026-03-22T15:34:28Z</time></trkpt><trkpt lat="21.85627552575993" lon="-102.34894326693107"><ele>1880.0</ele><time>2026-03-22T15:34:30Z</time></trkpt><trkpt lat="21.856343767465297" lon="-102.34886557219227"><ele>1880.6</ele><time>2026-03-22T15:34:32Z</time></trkpt><trkpt lat="21.85641804778835" lon="-102.34879392479853"><ele>1881.2</ele><time>2026-03-22T15:34:34Z</time></trkpt><trkpt lat="21.856498752169575" lon="-102.3487261833025"><ele>1881.8000000000002</ele><time>2026-03-22T15:34:36Z</time></trkpt><trkpt lat="21.856581540999233" lon="-102.34864908485322"><ele>1882.4</ele><time>2026-03-22T15:34:38Z</time></trkpt><trkpt lat="21.856667626831882" lon="-102.34856855338487"><ele>1883.0</ele><time>2026-03-22T15:34:40Z</time></trkpt><trkpt lat="21.856753718631765" lon="-102.34848055300485"><ele>1883.0</ele><time>2026-03-22T15:34:42Z</time></trkpt><trkpt lat="21.85683859147837" lon="-102.34839038542253"><ele>1883.0000000000002</ele><time>2026-03-22T15:34:44Z</time></trkpt><trkpt lat="21.856922823562638" lon="-102.34829170023555"><ele>1883.0000000000002</ele><time>2026-03-22T15:34:46Z</time></trkpt><trkpt lat="21.856997765571638" lon="-102.34818281230481"><ele>1883.0</ele><time>2026-03-22T15:34:48Z</time></trkpt><trkpt lat="21.857034884525362" lon="-102.34812306970262"><ele>1883.0</ele><time>2026-03-22T15:34:49Z</time></trkpt><trkpt lat="21.857069414284688" lon="-102.34806154627677"><ele>1883.0</ele><time>2026-03-22T15:34:50Z</time></trkpt><trkpt lat="21.85710279247329" lon="-102.34799959657686"><ele>1883.0</ele><time>2026-03-22T15:34:51Z</time></trkpt><trkpt lat="21.857140025144485" lon="-102.3479379828176"><ele>1883.0</ele><time>2026-03-22T15:34:52Z</time></trkpt><trkpt lat="21.85717126070542" lon="-102.34786899864137"><ele>1883.0</ele><time>2026-03-22T15:34:53Z</time></trkpt><trkpt lat="21.857198632427774" lon="-102.34780304762985"><ele>1883.0</ele><time>2026-03-22T15:34:54Z</time></trkpt><trkpt lat="21.85722451021792" lon="-102.3477316480512"><ele>1883.0</ele><time>2026-03-22T15:34:55Z</time></trkpt><trkpt lat="21.857249417959757" lon="-102.34765983157381"><ele>1883.0</ele><time>2026-03-22T15:34:56Z</time></trkpt><trkpt lat="21.857272128932575" lon="-102.34758993036668"><ele>1883.0</ele><time>2026-03-22T15:34:57Z</time></trkpt><trkpt lat="21.85729547285805" lon="-102.3475130006411"><ele>1883.0</ele><time>2026-03-22T15:34:58Z</time></trkpt><trkpt lat="21.857329209766895" lon="-102.34744816668703"><ele>1883.0</ele><time>2026-03-22T15:34:59Z</time></trkpt><trkpt lat="21.857356373222284" lon="-102.34738430470924"><ele>1883.0</ele><time>2026-03-22T15:35:00Z</time></trkpt><trkpt lat="21.85736577776968" lon="-102.34730857961378"><ele>1883.0</ele><time>2026-03-22T15:35:01Z</time></trkpt><trkpt lat="21.857379027927816" lon="-102.34723726998689"><ele>1883.0</ele><time>2026-03-22T15:35:02Z</time></trkpt><trkpt lat="21.85739787056994" lon="-102.34716526028745"><ele>1883.0</ele><time>2026-03-22T15:35:03Z</time></trkpt><trkpt lat="21.857422305391463" lon="-102.34709342731003"><ele>1883.142857142857</ele><time>2026-03-22T15:35:04Z</time></trkpt><trkpt lat="21.857443435914597" lon="-102.34701947308787"><ele>1883.2857142857142</ele><time>2026-03-22T15:35:05Z</time></trkpt><trkpt lat="21.857456900248426" lon="-102.34695038537404"><ele>1883.4285714285716</ele><time>2026-03-22T15:35:06Z</time></trkpt><trkpt lat="21.857482624803904" lon="-102.3468757200912"><ele>1883.5714285714287</ele><time>2026-03-22T15:35:07Z</time></trkpt><trkpt lat="21.857501312591584" lon="-102.34680163883877"><ele>1883.7142857142858</ele><time>2026-03-22T15:35:08Z</time></trkpt><trkpt lat="21.857516053110004" lon="-102.34672526608624"><ele>1883.8571428571431</ele><time>2026-03-22T15:35:09Z</time></trkpt><trkpt lat="21.85753495266479" lon="-102.34665382440207"><ele>1884.0000000000002</ele><time>2026-03-22T15:35:10Z</time></trkpt><trkpt lat="21.857552191425903" lon="-102.34657754238029"><ele>1884.0000000000002</ele><time>2026-03-22T15:35:11Z</time></trkpt><trkpt lat="21.857577920942852" lon="-102.34650184319392"><ele>1884.0</ele><time>2026-03-22T15:35:12Z</time></trkpt><trkpt lat="21.857600028171767" lon="-102.34642510738612"><ele>1884.0000000000002</ele><time>2026-03-22T15:35:13Z</time></trkpt><trkpt lat="21.857620126503804" lon="-102.34634846351743"><ele>1884.0000000000002</ele><time>2026-03-22T15:35:14Z</time></trkpt><trkpt lat="21.85763744055244" lon="-102.34627140258122"><ele>1884.0</ele><time>2026-03-22T15:35:15Z</time></trkpt><trkpt lat="21.8576750652274" lon="-102.34619993261892"><ele>1884.0000000000002</ele><time>2026-03-22T15:35:16Z</time></trkpt><trkpt lat="21.857695969696618" lon="-102.3461261131222"><ele>1884.0000000000002</ele><time>2026-03-22T15:35:17Z</time></trkpt><trkpt lat="21.857704096776573" lon="-102.34604524991983"><ele>1883.8571428571431</ele><time>2026-03-22T15:35:18Z</time></trkpt><trkpt lat="21.85772967730833" lon="-102.34597285141724"><ele>1883.7142857142858</ele><time>2026-03-22T15:35:19Z</time></trkpt><trkpt lat="21.857753745177664" lon="-102.3459015810245"><ele>1883.5714285714287</ele><time>2026-03-22T15:35:20Z</time></trkpt><trkpt lat="21.857768262710657" lon="-102.34583191411103"><ele>1883.4285714285716</ele><time>2026-03-22T15:35:21Z</time></trkpt><trkpt lat="21.857787679291736" lon="-102.34575734391632"><ele>1883.2857142857142</ele><time>2026-03-22T15:35:22Z</time></trkpt><trkpt lat="21.857809975917064" lon="-102.34568387049778"><ele>1883.142857142857</ele><time>2026-03-22T15:35:23Z</time></trkpt><trkpt lat="21.857826493434914" lon="-102.34561028373365"><ele>1883.0</ele><time>2026-03-22T15:35:24Z</time></trkpt><trkpt lat="21.85784474850339" lon="-102.34553751899603"><ele>1882.857142857143</ele><time>2026-03-22T15:35:25Z</time></trkpt><trkpt lat="21.85786244468037" lon="-102.34546689644533"><ele>1882.7142857142858</ele><time>2026-03-22T15:35:26Z</time></trkpt><trkpt lat="21.857874945670464" lon="-102.34539752554443"><ele>1882.5714285714284</ele><time>2026-03-22T15:35:27Z</time></trkpt><trkpt lat="21.857895134016456" lon="-102.34532625558113"><ele>1882.4285714285713</ele><time>2026-03-22T15:35:28Z</time></trkpt><trkpt lat="21.857914236340886" lon="-102.34525387642384"><ele>1882.2857142857142</ele><time>2026-03-22T15:35:29Z</time></trkpt><trkpt lat="21.857931869816888" lon="-102.34518248384998"><ele>1882.1428571428569</ele><time>2026-03-22T15:35:30Z</time></trkpt><trkpt lat="21.85795342275561" lon="-102.34510813662737"><ele>1881.9999999999998</ele><time>2026-03-22T15:35:31Z</time></trkpt><trkpt lat="21.85796352219128" lon="-102.34503947659562"><ele>1881.9999999999998</ele><time>2026-03-22T15:35:32Z</time></trkpt><trkpt lat="21.857982670292547" lon="-102.34497291000872"><ele>1882.0</ele><time>2026-03-22T15:35:33Z</time></trkpt><trkpt lat="21.857999176094502" lon="-102.34490574600079"><ele>1881.9999999999998</ele><time>2026-03-22T15:35:34Z</time></trkpt><trkpt lat="21.858022596352086" lon="-102.34483663526112"><ele>1881.9999999999998</ele><time>2026-03-22T15:35:35Z</time></trkpt><trkpt lat="21.858042612310772" lon="-102.34476432560753"><ele>1882.0</ele><time>2026-03-22T15:35:36Z</time></trkpt><trkpt lat="21.858066731717745" lon="-102.34469133089928"><ele>1881.9999999999998</ele><time>2026-03-22T15:35:37Z</time></trkpt><trkpt lat="21.858083127392774" lon="-102.3446209610969"><ele>1881.9999999999998</ele><time>2026-03-22T15:35:38Z</time></trkpt><trkpt lat="21.858098937090997" lon="-102.34454767305823"><ele>1881.8571428571427</ele><time>2026-03-22T15:35:39Z</time></trkpt><trkpt lat="21.858117475934186" lon="-102.34447240825097"><ele>1881.7142857142858</ele><time>2026-03-22T15:35:40Z</time></trkpt><trkpt lat="21.858143473067337" lon="-102.34439834009073"><ele>1881.5714285714284</ele><time>2026-03-22T15:35:41Z</time></trkpt><trkpt lat="21.858161237199894" lon="-102.34432292555813"><ele>1881.4285714285713</ele><time>2026-03-22T15:35:42Z</time></trkpt><trkpt lat="21.858181348239757" lon="-102.34424766878843"><ele>1881.2857142857142</ele><time>2026-03-22T15:35:43Z</time></trkpt><trkpt lat="21.858201240642927" lon="-102.34417280784182"><ele>1881.142857142857</ele><time>2026-03-22T15:35:44Z</time></trkpt><trkpt lat="21.85822652025402" lon="-102.34409876308706"><ele>1881.0</ele><time>2026-03-22T15:35:45Z</time></trkpt><trkpt lat="21.85824297942187" lon="-102.34402312749202"><ele>1881.0</ele><time>2026-03-22T15:35:46Z</time></trkpt><trkpt lat="21.858260932762462" lon="-102.34394067973945"><ele>1881.0</ele><time>2026-03-22T15:35:47Z</time></trkpt><trkpt lat="21.858282179213365" lon="-102.34385810227512"><ele>1881.0</ele><time>2026-03-22T15:35:48Z</time></trkpt><trkpt lat="21.858303669233575" lon="-102.3437723176903"><ele>1881.0</ele><time>2026-03-22T15:35:49Z</time></trkpt><trkpt lat="21.858329221832516" lon="-102.34368782530522"><ele>1881.0</ele><time>2026-03-22T15:35:50Z</time></trkpt><trkpt lat="21.8583499329674" lon="-102.34359370830425"><ele>1881.0</ele><time>2026-03-22T15:35:51Z</time></trkpt><trkpt lat="21.858362009784184" lon="-102.3435008834639"><ele>1880.6666666666667</ele><time>2026-03-22T15:35:52Z</time></trkpt><trkpt lat="21.85837893793526" lon="-102.3434114406631"><ele>1880.3333333333335</ele><time>2026-03-22T15:35:53Z</time></trkpt><trkpt lat="21.858401250017423" lon="-102.34332533321941"><ele>1880.0</ele><time>2026-03-22T15:35:54Z</time></trkpt><trkpt lat="21.85841759069625" lon="-102.3432365844356"><ele>1879.6666666666667</ele><time>2026-03-22T15:35:55Z</time></trkpt><trkpt lat="21.858435272181893" lon="-102.343143372233"><ele>1879.3333333333335</ele><time>2026-03-22T15:35:56Z</time></trkpt><trkpt lat="21.858455223732328" lon="-102.3430474172728"><ele>1879.0</ele><time>2026-03-22T15:35:57Z</time></trkpt><trkpt lat="21.85847765075957" lon="-102.34294963093811"><ele>1878.0</ele><time>2026-03-22T15:35:58Z</time></trkpt><trkpt lat="21.85849576157164" lon="-102.34284613550275"><ele>1877.0</ele><time>2026-03-22T15:35:59Z</time></trkpt><trkpt lat="21.858514021850095" lon="-102.34274535469832"><ele>1876.0</ele><time>2026-03-22T15:36:00Z</time></trkpt><trkpt lat="21.858526276406586" lon="-102.34264016033798"><ele>1875.0</ele><time>2026-03-22T15:36:01Z</time></trkpt><trkpt lat="21.858546760354688" lon="-102.34253681360681"><ele>1874.0</ele><time>2026-03-22T15:36:02Z</time></trkpt><trkpt lat="21.85856259646457" lon="-102.3424335765066"><ele>1874.0</ele><time>2026-03-22T15:36:03Z</time></trkpt><trkpt lat="21.858583147377743" lon="-102.3423277453867"><ele>1874.0</ele><time>2026-03-22T15:36:04Z</time></trkpt><trkpt lat="21.858605592878497" lon="-102.34221678173809"><ele>1874.0</ele><time>2026-03-22T15:36:05Z</time></trkpt><trkpt lat="21.858624104129714" lon="-102.34210897274957"><ele>1874.0</ele><time>2026-03-22T15:36:06Z</time></trkpt><trkpt lat="21.858642562147857" lon="-102.34199669014393"><ele>1874.0</ele><time>2026-03-22T15:36:07Z</time></trkpt><trkpt lat="21.858662997951694" lon="-102.34188499881589"><ele>1873.8333333333333</ele><time>2026-03-22T15:36:08Z</time></trkpt><trkpt lat="21.858680378121214" lon="-102.34177812906024"><ele>1873.6666666666665</ele><time>2026-03-22T15:36:09Z</time></trkpt><trkpt lat="21.858696715690385" lon="-102.34168784516876"><ele>1873.5</ele><time>2026-03-22T15:36:10Z</time></trkpt><trkpt lat="21.858708580869465" lon="-102.34161358759624"><ele>1873.3333333333335</ele><time>2026-03-22T15:36:11Z</time></trkpt><trkpt lat="21.858722317882755" lon="-102.34153727511908"><ele>1873.1666666666667</ele><time>2026-03-22T15:36:12Z</time></trkpt><trkpt lat="21.858745624385808" lon="-102.34145383033552"><ele>1873.0</ele><time>2026-03-22T15:36:13Z</time></trkpt><trkpt lat="21.858761205869317" lon="-102.34136793797255"><ele>1872.3333333333335</ele><time>2026-03-22T15:36:14Z</time></trkpt><trkpt lat="21.858771557585214" lon="-102.34127911818607"><ele>1871.6666666666667</ele><time>2026-03-22T15:36:15Z</time></trkpt><trkpt lat="21.8587894710038" lon="-102.34118846831984"><ele>1871.0</ele><time>2026-03-22T15:36:16Z</time></trkpt><trkpt lat="21.858820489808167" lon="-102.3411001136163"><ele>1870.3333333333335</ele><time>2026-03-22T15:36:17Z</time></trkpt><trkpt lat="21.858840662792275" lon="-102.34101051223068"><ele>1869.6666666666667</ele><time>2026-03-22T15:36:18Z</time></trkpt><trkpt lat="21.858871244976978" lon="-102.34092106374682"><ele>1869.0</ele><time>2026-03-22T15:36:19Z</time></trkpt><trkpt lat="21.85890448339051" lon="-102.34082971980074"><ele>1869.0</ele><time>2026-03-22T15:36:20Z</time></trkpt><trkpt lat="21.858945447102858" lon="-102.34074856618204"><ele>1869.0</ele><time>2026-03-22T15:36:21Z</time></trkpt><trkpt lat="21.858990728657258" lon="-102.34066682802357"><ele>1869.0</ele><time>2026-03-22T15:36:22Z</time></trkpt><trkpt lat="21.859039854276464" lon="-102.34059058230945"><ele>1869.0</ele><time>2026-03-22T15:36:23Z</time></trkpt><trkpt lat="21.85908675124457" lon="-102.34051495908265"><ele>1869.0</ele><time>2026-03-22T15:36:24Z</time></trkpt><trkpt lat="21.859140901541082" lon="-102.34044018726574"><ele>1869.0</ele><time>2026-03-22T15:36:25Z</time></trkpt><trkpt lat="21.85919959234264" lon="-102.34036886597879"><ele>1868.8333333333333</ele><time>2026-03-22T15:36:26Z</time></trkpt><trkpt lat="21.859263475851673" lon="-102.34030480997582"><ele>1868.6666666666665</ele><time>2026-03-22T15:36:27Z</time></trkpt><trkpt lat="21.859327479454297" lon="-102.34024101530451"><ele>1868.5</ele><time>2026-03-22T15:36:28Z</time></trkpt><trkpt lat="21.859396145705862" lon="-102.34018343740277"><ele>1868.3333333333333</ele><time>2026-03-22T15:36:29Z</time></trkpt><trkpt lat="21.85946358592247" lon="-102.34012464508983"><ele>1868.1666666666665</ele><time>2026-03-22T15:36:30Z</time></trkpt><trkpt lat="21.859530978492568" lon="-102.34006409383825"><ele>1868.0</ele><time>2026-03-22T15:36:31Z</time></trkpt><trkpt lat="21.859596228290076" lon="-102.34000287431762"><ele>1868.6666666666665</ele><time>2026-03-22T15:36:32Z</time></trkpt><trkpt lat="21.859660711154827" lon="-102.33995358207743"><ele>1869.3333333333333</ele><time>2026-03-22T15:36:33Z</time></trkpt><trkpt lat="21.859724248166607" lon="-102.33990292617655"><ele>1870.0</ele><time>2026-03-22T15:36:34Z</time></trkpt><trkpt lat="21.85978244205754" lon="-102.3398626669094"><ele>1870.6666666666665</ele><time>2026-03-22T15:36:35Z</time></trkpt><trkpt lat="21.859843244237364" lon="-102.33981258668047"><ele>1871.3333333333333</ele><time>2026-03-22T15:36:36Z</time></trkpt><trkpt lat="21.85991016220029" lon="-102.33975646196748"><ele>1872.0</ele><time>2026-03-22T15:36:37Z</time></trkpt><trkpt lat="21.859974240075875" lon="-102.33971487910124"><ele>1872.1666666666667</ele><time>2026-03-22T15:36:38Z</time></trkpt><trkpt lat="21.860039223345076" lon="-102.33967226323736"><ele>1872.3333333333335</ele><time>2026-03-22T15:36:39Z</time></trkpt><trkpt lat="21.860099695176896" lon="-102.33962279316223"><ele>1872.5</ele><time>2026-03-22T15:36:40Z</time></trkpt><trkpt lat="21.860162537483866" lon="-102.33957387488957"><ele>1872.6666666666667</ele><time>2026-03-22T15:36:41Z</time></trkpt><trkpt lat="21.86022596872408" lon="-102.33952718159591"><ele>1872.8333333333335</ele><time>2026-03-22T15:36:42Z</time></trkpt><trkpt lat="21.860286244532585" lon="-102.33947747451496"><ele>1873.0</ele><time>2026-03-22T15:36:43Z</time></trkpt><trkpt lat="21.86034548319745" lon="-102.33943418859481"><ele>1873.142857142857</ele><time>2026-03-22T15:36:44Z</time></trkpt><trkpt lat="21.86040302745058" lon="-102.3393846645661"><ele>1873.2857142857142</ele><time>2026-03-22T15:36:45Z</time></trkpt><trkpt lat="21.860459959690207" lon="-102.33933219264055"><ele>1873.4285714285713</ele><time>2026-03-22T15:36:46Z</time></trkpt><trkpt lat="21.860520700218036" lon="-102.33928421980438"><ele>1873.5714285714284</ele><time>2026-03-22T15:36:47Z</time></trkpt><trkpt lat="21.860578310492155" lon="-102.33923380671013"><ele>1873.7142857142858</ele><time>2026-03-22T15:36:48Z</time></trkpt><trkpt lat="21.86063266583896" lon="-102.3391801446813"><ele>1873.8571428571427</ele><time>2026-03-22T15:36:49Z</time></trkpt><trkpt lat="21.860688341147984" lon="-102.33913105598418"><ele>1874.0</ele><time>2026-03-22T15:36:50Z</time></trkpt><trkpt lat="21.860754760743642" lon="-102.3390923362645"><ele>1874.0</ele><time>2026-03-22T15:36:51Z</time></trkpt><trkpt lat="21.860799593266353" lon="-102.33902907446603"><ele>1874.0</ele><time>2026-03-22T15:36:52Z</time></trkpt><trkpt lat="21.86085376319956" lon="-102.33897854975724"><ele>1874.0</ele><time>2026-03-22T15:36:53Z</time></trkpt><trkpt lat="21.86090722792576" lon="-102.33892688868775"><ele>1874.0</ele><time>2026-03-22T15:36:54Z</time></trkpt><trkpt lat="21.86096121043999" lon="-102.33887286711584"><ele>1874.0</ele><time>2026-03-22T15:36:55Z</time></trkpt><trkpt lat="21.861020305051213" lon="-102.33882865646471"><ele>1874.0</ele><time>2026-03-22T15:36:56Z</time></trkpt><trkpt lat="21.86107523125117" lon="-102.33877373026029"><ele>1874.0</ele><time>2026-03-22T15:36:57Z</time></trkpt><trkpt lat="21.86112906957452" lon="-102.33872035607679"><ele>1873.1666666666665</ele><time>2026-03-22T15:36:58Z</time></trkpt><trkpt lat="21.861185617203766" lon="-102.33866580985288"><ele>1872.3333333333333</ele><time>2026-03-22T15:36:59Z</time></trkpt><trkpt lat="21.861240756742482" lon="-102.3386126218791"><ele>1871.5</ele><time>2026-03-22T15:37:00Z</time></trkpt><trkpt lat="21.861296745051828" lon="-102.33855861526902"><ele>1870.6666666666665</ele><time>2026-03-22T15:37:01Z</time></trkpt><trkpt lat="21.86135548359445" lon="-102.33850369970752"><ele>1869.8333333333333</ele><time>2026-03-22T15:37:02Z</time></trkpt><trkpt lat="21.86141170762509" lon="-102.33845106201652"><ele>1869.0</ele><time>2026-03-22T15:37:03Z</time></trkpt><trkpt lat="21.861466524066962" lon="-102.33839974214293"><ele>1869.0</ele><time>2026-03-22T15:37:04Z</time></trkpt><trkpt lat="21.861523266362195" lon="-102.33834417701694"><ele>1869.0</ele><time>2026-03-22T15:37:05Z</time></trkpt><trkpt lat="21.86157328211014" lon="-102.33829391474853"><ele>1869.0</ele><time>2026-03-22T15:37:06Z</time></trkpt><trkpt lat="21.861625174517094" lon="-102.33824176658587"><ele>1869.0</ele><time>2026-03-22T15:37:07Z</time></trkpt><trkpt lat="21.861677573471958" lon="-102.3381891094422"><ele>1869.0</ele><time>2026-03-22T15:37:08Z</time></trkpt><trkpt lat="21.861733110106684" lon="-102.33813305722362"><ele>1869.0</ele><time>2026-03-22T15:37:09Z</time></trkpt><trkpt lat="21.86178841121464" lon="-102.33807705121761"><ele>1869.0</ele><time>2026-03-22T15:37:10Z</time></trkpt><trkpt lat="21.861843948432806" lon="-102.33802080611522"><ele>1870.0</ele><time>2026-03-22T15:37:11Z</time></trkpt><trkpt lat="21.8618986913999" lon="-102.33796536535493"><ele>1871.0</ele><time>2026-03-22T15:37:12Z</time></trkpt><trkpt lat="21.861944304219424" lon="-102.3378964487779"><ele>1872.0</ele><time>2026-03-22T15:37:13Z</time></trkpt><trkpt lat="21.862000126050585" lon="-102.33784178791042"><ele>1873.0</ele><time>2026-03-22T15:37:14Z</time></trkpt><trkpt lat="21.8620673169352" lon="-102.33779459050221"><ele>1874.0</ele><time>2026-03-22T15:37:15Z</time></trkpt><trkpt lat="21.8621237325741" lon="-102.33773745575598"><ele>1875.0</ele><time>2026-03-22T15:37:16Z</time></trkpt><trkpt lat="21.86217235795292" lon="-102.33766697189805"><ele>1875.0</ele><time>2026-03-22T15:37:17Z</time></trkpt><trkpt lat="21.862230176831577" lon="-102.33760752972545"><ele>1875.0</ele><time>2026-03-22T15:37:18Z</time></trkpt><trkpt lat="21.862289769881713" lon="-102.33755291362928"><ele>1875.0</ele><time>2026-03-22T15:37:19Z</time></trkpt><trkpt lat="21.862346324226003" lon="-102.33749079201394"><ele>1875.0</ele><time>2026-03-22T15:37:20Z</time></trkpt><trkpt lat="21.862414728115304" lon="-102.337439563378"><ele>1875.0</ele><time>2026-03-22T15:37:21Z</time></trkpt><trkpt lat="21.862473929706702" lon="-102.33737712313743"><ele>1875.0</ele><time>2026-03-22T15:37:22Z</time></trkpt><trkpt lat="21.86252101108582" lon="-102.33730850737135"><ele>1875.0</ele><time>2026-03-22T15:37:23Z</time></trkpt><trkpt lat="21.862576512654915" lon="-102.33724559572805"><ele>1875.0</ele><time>2026-03-22T15:37:24Z</time></trkpt><trkpt lat="21.86263326800752" lon="-102.33718217148372"><ele>1875.0</ele><time>2026-03-22T15:37:25Z</time></trkpt><trkpt lat="21.862681598833436" lon="-102.33711402813228"><ele>1875.0</ele><time>2026-03-22T15:37:26Z</time></trkpt><trkpt lat="21.862734005437023" lon="-102.33705063920597"><ele>1875.0</ele><time>2026-03-22T15:37:27Z</time></trkpt><trkpt lat="21.862779166066154" lon="-102.33698516410583"><ele>1875.0</ele><time>2026-03-22T15:37:28Z</time></trkpt><trkpt lat="21.86282162959933" lon="-102.33691585073335"><ele>1874.6666666666667</ele><time>2026-03-22T15:37:29Z</time></trkpt><trkpt lat="21.862862398386717" lon="-102.33684640875377"><ele>1874.3333333333335</ele><time>2026-03-22T15:37:30Z</time></trkpt><trkpt lat="21.862900549755942" lon="-102.33677601282534"><ele>1874.0</ele><time>2026-03-22T15:37:31Z</time></trkpt><trkpt lat="21.8629393743875" lon="-102.33670074482835"><ele>1873.6666666666667</ele><time>2026-03-22T15:37:32Z</time></trkpt><trkpt lat="21.86298282159492" lon="-102.33663098202231"><ele>1873.3333333333335</ele><time>2026-03-22T15:37:33Z</time></trkpt><trkpt lat="21.863015342797457" lon="-102.33654654835482"><ele>1873.0</ele><time>2026-03-22T15:37:34Z</time></trkpt><trkpt lat="21.863059500232524" lon="-102.33647439234306"><ele>1873.0000000000002</ele><time>2026-03-22T15:37:35Z</time></trkpt><trkpt lat="21.86310389874329" lon="-102.33639694769745"><ele>1873.0</ele><time>2026-03-22T15:37:36Z</time></trkpt><trkpt lat="21.86314726773023" lon="-102.33632277084229"><ele>1873.0</ele><time>2026-03-22T15:37:37Z</time></trkpt><trkpt lat="21.86319072556058" lon="-102.3362443878489"><ele>1873.0</ele><time>2026-03-22T15:37:38Z</time></trkpt><trkpt lat="21.863234550755543" lon="-102.33616143659691"><ele>1873.0000000000002</ele><time>2026-03-22T15:37:39Z</time></trkpt><trkpt lat="21.863274534436453" lon="-102.33607598100586"><ele>1873.0</ele><time>2026-03-22T15:37:40Z</time></trkpt><trkpt lat="21.863319735120456" lon="-102.3359872147668"><ele>1872.2</ele><time>2026-03-22T15:37:41Z</time></trkpt><trkpt lat="21.86336175119866" lon="-102.33589250276955"><ele>1871.4</ele><time>2026-03-22T15:37:42Z</time></trkpt><trkpt lat="21.863409089915997" lon="-102.33580012063769"><ele>1870.6000000000001</ele><time>2026-03-22T15:37:43Z</time></trkpt><trkpt lat="21.863458732911884" lon="-102.33569978570343"><ele>1869.8000000000002</ele><time>2026-03-22T15:37:44Z</time></trkpt><trkpt lat="21.86350392134097" lon="-102.33560032211444"><ele>1869.0</ele><time>2026-03-22T15:37:45Z</time></trkpt><trkpt lat="21.863554014983755" lon="-102.33550019703529"><ele>1867.2</ele><time>2026-03-22T15:37:46Z</time></trkpt><trkpt lat="21.86360308367205" lon="-102.33540084694812"><ele>1865.4</ele><time>2026-03-22T15:37:47Z</time></trkpt><trkpt lat="21.863652696442596" lon="-102.33530120717815"><ele>1863.6</ele><time>2026-03-22T15:37:48Z</time></trkpt><trkpt lat="21.863699896485514" lon="-102.33520268398766"><ele>1861.8</ele><time>2026-03-22T15:37:49Z</time></trkpt><trkpt lat="21.863747111961732" lon="-102.33511460348271"><ele>1860.0</ele><time>2026-03-22T15:37:50Z</time></trkpt><trkpt lat="21.86378017963909" lon="-102.3350290741654"><ele>1860.0</ele><time>2026-03-22T15:37:51Z</time></trkpt><trkpt lat="21.863807901508434" lon="-102.3349527637974"><ele>1860.0</ele><time>2026-03-22T15:37:52Z</time></trkpt><trkpt lat="21.86381216165662" lon="-102.3348669041498"><ele>1860.0</ele><time>2026-03-22T15:37:53Z</time></trkpt><trkpt lat="21.863890328273794" lon="-102.33483999453493"><ele>1860.0</ele><time>2026-03-22T15:37:54Z</time></trkpt><trkpt lat="21.863772933122338" lon="-102.33470755706026"><ele>1860.0</ele><time>2026-03-22T15:37:55Z</time></trkpt><trkpt lat="21.86371032941327" lon="-102.33465446659042"><ele>1860.1666666666667</ele><time>2026-03-22T15:37:56Z</time></trkpt><trkpt lat="21.863654429119165" lon="-102.33458958976438"><ele>1860.3333333333335</ele><time>2026-03-22T15:37:57Z</time></trkpt><trkpt lat="21.863600815126155" lon="-102.33451881111259"><ele>1860.5</ele><time>2026-03-22T15:37:58Z</time></trkpt><trkpt lat="21.863549826646324" lon="-102.33444548215962"><ele>1860.6666666666667</ele><time>2026-03-22T15:37:59Z</time></trkpt><trkpt lat="21.86350315995971" lon="-102.33437423744931"><ele>1860.8333333333335</ele><time>2026-03-22T15:38:00Z</time></trkpt><trkpt lat="21.863455432125246" lon="-102.33429788417733"><ele>1861.0</ele><time>2026-03-22T15:38:01Z</time></trkpt><trkpt lat="21.863410873154027" lon="-102.33422387261129"><ele>1861.0000000000002</ele><time>2026-03-22T15:38:02Z</time></trkpt><trkpt lat="21.863367226470913" lon="-102.33414698993354"><ele>1861.0</ele><time>2026-03-22T15:38:03Z</time></trkpt><trkpt lat="21.86332423492489" lon="-102.33406543755338"><ele>1861.0</ele><time>2026-03-22T15:38:04Z</time></trkpt><trkpt lat="21.863283445858933" lon="-102.33397958921452"><ele>1861.0</ele><time>2026-03-22T15:38:05Z</time></trkpt><trkpt lat="21.863245783793104" lon="-102.33389337478023"><ele>1861.0000000000002</ele><time>2026-03-22T15:38:06Z</time></trkpt><trkpt lat="21.863213508296624" lon="-102.33380383140378"><ele>1861.0</ele><time>2026-03-22T15:38:07Z</time></trkpt><trkpt lat="21.863196765099634" lon="-102.3337053111939"><ele>1860.6</ele><time>2026-03-22T15:38:08Z</time></trkpt><trkpt lat="21.86316575538656" lon="-102.33361300081934"><ele>1860.1999999999998</ele><time>2026-03-22T15:38:09Z</time></trkpt><trkpt lat="21.86313637764445" lon="-102.33351640830591"><ele>1859.8000000000002</ele><time>2026-03-22T15:38:10Z</time></trkpt><trkpt lat="21.86310447314933" lon="-102.33341783151846"><ele>1859.4</ele><time>2026-03-22T15:38:11Z</time></trkpt><trkpt lat="21.863078792636987" lon="-102.33331341024727"><ele>1859.0</ele><time>2026-03-22T15:38:12Z</time></trkpt><trkpt lat="21.863042239063873" lon="-102.3332144300717"><ele>1859.0</ele><time>2026-03-22T15:38:13Z</time></trkpt><trkpt lat="21.863029225163682" lon="-102.33310077422755"><ele>1859.0</ele><time>2026-03-22T15:38:14Z</time></trkpt><trkpt lat="21.86301301081545" lon="-102.3329887701067"><ele>1859.0</ele><time>2026-03-22T15:38:15Z</time></trkpt><trkpt lat="21.86299072264088" lon="-102.33287717018564"><ele>1859.0</ele><time>2026-03-22T15:38:16Z</time></trkpt><trkpt lat="21.862970943087756" lon="-102.33276421999197"><ele>1859.0</ele><time>2026-03-22T15:38:17Z</time></trkpt><trkpt lat="21.862944132665874" lon="-102.33265293659741"><ele>1857.8000000000002</ele><time>2026-03-22T15:38:18Z</time></trkpt><trkpt lat="21.86292952097983" lon="-102.33253638676933"><ele>1856.6000000000001</ele><time>2026-03-22T15:38:19Z</time></trkpt><trkpt lat="21.86291331536835" lon="-102.33242227754003"><ele>1855.4</ele><time>2026-03-22T15:38:20Z</time></trkpt><trkpt lat="21.8628907404848" lon="-102.332310562847"><ele>1854.2</ele><time>2026-03-22T15:38:21Z</time></trkpt><trkpt lat="21.862891585187437" lon="-102.33219782651612"><ele>1853.0</ele><time>2026-03-22T15:38:22Z</time></trkpt><trkpt lat="21.862877354101972" lon="-102.33208556433095"><ele>1852.8000000000002</ele><time>2026-03-22T15:38:23Z</time></trkpt><trkpt lat="21.862864588871666" lon="-102.33197090466912"><ele>1852.6000000000001</ele><time>2026-03-22T15:38:24Z</time></trkpt><trkpt lat="21.86284978151793" lon="-102.33185536599652"><ele>1852.3999999999999</ele><time>2026-03-22T15:38:25Z</time></trkpt><trkpt lat="21.862834974870772" lon="-102.33173460628896"><ele>1852.1999999999998</ele><time>2026-03-22T15:38:26Z</time></trkpt><trkpt lat="21.862820364422273" lon="-102.33161892999135"><ele>1852.0</ele><time>2026-03-22T15:38:27Z</time></trkpt><trkpt lat="21.86280591367175" lon="-102.33150215007149"><ele>1851.6</ele><time>2026-03-22T15:38:28Z</time></trkpt><trkpt lat="21.862791781318215" lon="-102.3313874605787"><ele>1851.1999999999998</ele><time>2026-03-22T15:38:29Z</time></trkpt><trkpt lat="21.862776614812702" lon="-102.33126727404378"><ele>1850.8</ele><time>2026-03-22T15:38:30Z</time></trkpt><trkpt lat="21.862761446933426" lon="-102.33114745651946"><ele>1850.4</ele><time>2026-03-22T15:38:31Z</time></trkpt><trkpt lat="21.86274636760455" lon="-102.33103050879176"><ele>1850.0</ele><time>2026-03-22T15:38:32Z</time></trkpt><trkpt lat="21.86273063875173" lon="-102.33091011306645"><ele>1850.0</ele><time>2026-03-22T15:38:33Z</time></trkpt><trkpt lat="21.86271467573591" lon="-102.33078792495681"><ele>1850.0</ele><time>2026-03-22T15:38:34Z</time></trkpt><trkpt lat="21.862700662969893" lon="-102.33068066494333"><ele>1850.0</ele><time>2026-03-22T15:38:35Z</time></trkpt><trkpt lat="21.862685552549074" lon="-102.33056601032769"><ele>1850.0</ele><time>2026-03-22T15:38:36Z</time></trkpt><trkpt lat="21.86267141987934" lon="-102.33045898268813"><ele>1850.0</ele><time>2026-03-22T15:38:37Z</time></trkpt><trkpt lat="21.862656468018475" lon="-102.33034510371623"><ele>1850.0</ele><time>2026-03-22T15:38:38Z</time></trkpt><trkpt lat="21.862641924284326" lon="-102.33023352791027"><ele>1850.0</ele><time>2026-03-22T15:38:39Z</time></trkpt><trkpt lat="21.862610591716365" lon="-102.33012732112184"><ele>1850.0</ele><time>2026-03-22T15:38:40Z</time></trkpt><trkpt lat="21.86259956545772" lon="-102.33001718446685"><ele>1850.0</ele><time>2026-03-22T15:38:41Z</time></trkpt><trkpt lat="21.862587586278156" lon="-102.32990836372119"><ele>1850.0</ele><time>2026-03-22T15:38:42Z</time></trkpt><trkpt lat="21.862580535861596" lon="-102.32980302132343"><ele>1849.6</ele><time>2026-03-22T15:38:43Z</time></trkpt><trkpt lat="21.86257147563867" lon="-102.32969773811801"><ele>1849.2</ele><time>2026-03-22T15:38:44Z</time></trkpt><trkpt lat="21.862559977753175" lon="-102.32959525893322"><ele>1848.8000000000002</ele><time>2026-03-22T15:38:45Z</time></trkpt><trkpt lat="21.8625472222808" lon="-102.32949592217685"><ele>1848.4</ele><time>2026-03-22T15:38:46Z</time></trkpt><trkpt lat="21.86252889712522" lon="-102.32939823667624"><ele>1848.0</ele><time>2026-03-22T15:38:47Z</time></trkpt><trkpt lat="21.862514760959964" lon="-102.32929997667226"><ele>1848.0</ele><time>2026-03-22T15:38:48Z</time></trkpt><trkpt lat="21.862497723985587" lon="-102.3292024988342"><ele>1848.0000000000002</ele><time>2026-03-22T15:38:49Z</time></trkpt><trkpt lat="21.86248459113055" lon="-102.32910338460898"><ele>1848.0000000000002</ele><time>2026-03-22T15:38:50Z</time></trkpt><trkpt lat="21.862473467105207" lon="-102.32900758976096"><ele>1848.0</ele><time>2026-03-22T15:38:51Z</time></trkpt><trkpt lat="21.862457925208037" lon="-102.3289100174934"><ele>1848.0</ele><time>2026-03-22T15:38:52Z</time></trkpt><trkpt lat="21.862449348255318" lon="-102.32880993171672"><ele>1847.6000000000001</ele><time>2026-03-22T15:38:53Z</time></trkpt><trkpt lat="21.86243622720136" lon="-102.32871466983744"><ele>1847.2000000000003</ele><time>2026-03-22T15:38:54Z</time></trkpt><trkpt lat="21.862421863255133" lon="-102.32861786017436"><ele>1846.8</ele><time>2026-03-22T15:38:55Z</time></trkpt><trkpt lat="21.862408037906985" lon="-102.32852062640654"><ele>1846.4</ele><time>2026-03-22T15:38:56Z</time></trkpt><trkpt lat="21.86239644786131" lon="-102.32842407537882"><ele>1846.0</ele><time>2026-03-22T15:38:57Z</time></trkpt><trkpt lat="21.86238456768987" lon="-102.32832996876736"><ele>1846.0</ele><time>2026-03-22T15:38:58Z</time></trkpt><trkpt lat="21.862369384517958" lon="-102.32822374942221"><ele>1846.0</ele><time>2026-03-22T15:38:59Z</time></trkpt><trkpt lat="21.862359849710067" lon="-102.32812739746481"><ele>1846.0</ele><time>2026-03-22T15:39:00Z</time></trkpt><trkpt lat="21.862356381037728" lon="-102.32805401878889"><ele>1846.0</ele><time>2026-03-22T15:39:01Z</time></trkpt><trkpt lat="21.862328496267743" lon="-102.32794394969596"><ele>1846.0</ele><time>2026-03-22T15:39:02Z</time></trkpt><trkpt lat="21.862332593074644" lon="-102.32784518646419"><ele>1846.0</ele><time>2026-03-22T15:39:03Z</time></trkpt><trkpt lat="21.862320944176375" lon="-102.32774775279019"><ele>1846.0</ele><time>2026-03-22T15:39:04Z</time></trkpt><trkpt lat="21.862309760089172" lon="-102.32764748315657"><ele>1846.0</ele><time>2026-03-22T15:39:05Z</time></trkpt><trkpt lat="21.86229932664455" lon="-102.32755009559685"><ele>1846.0</ele><time>2026-03-22T15:39:06Z</time></trkpt><trkpt lat="21.86228903386249" lon="-102.32745402101804"><ele>1846.0</ele><time>2026-03-22T15:39:07Z</time></trkpt><trkpt lat="21.86227840982304" lon="-102.32735485441019"><ele>1846.0000000000002</ele><time>2026-03-22T15:39:08Z</time></trkpt><trkpt lat="21.862267940761793" lon="-102.32725713403977"><ele>1846.0</ele><time>2026-03-22T15:39:09Z</time></trkpt><trkpt lat="21.86225746329733" lon="-102.32715958510133"><ele>1846.0</ele><time>2026-03-22T15:39:10Z</time></trkpt><trkpt lat="21.86224760751232" lon="-102.32706775609982"><ele>1846.0</ele><time>2026-03-22T15:39:11Z</time></trkpt><trkpt lat="21.86224003148967" lon="-102.32697812743531"><ele>1846.0000000000002</ele><time>2026-03-22T15:39:12Z</time></trkpt><trkpt lat="21.862232435682383" lon="-102.32688743302114"><ele>1846.0</ele><time>2026-03-22T15:39:13Z</time></trkpt><trkpt lat="21.8622320028747" lon="-102.32680466779644"><ele>1846.1666666666667</ele><time>2026-03-22T15:39:14Z</time></trkpt><trkpt lat="21.862231218921888" lon="-102.32671353330002"><ele>1846.3333333333335</ele><time>2026-03-22T15:39:15Z</time></trkpt><trkpt lat="21.86223007146244" lon="-102.32662281609109"><ele>1846.5</ele><time>2026-03-22T15:39:16Z</time></trkpt><trkpt lat="21.86223061935941" lon="-102.32653095209226"><ele>1846.6666666666665</ele><time>2026-03-22T15:39:17Z</time></trkpt><trkpt lat="21.862231786009108" lon="-102.32643796590793"><ele>1846.8333333333333</ele><time>2026-03-22T15:39:18Z</time></trkpt><trkpt lat="21.86223491771338" lon="-102.32634934711676"><ele>1847.0</ele><time>2026-03-22T15:39:19Z</time></trkpt><trkpt lat="21.86224306619619" lon="-102.32625337512901"><ele>1846.3999999999999</ele><time>2026-03-22T15:39:20Z</time></trkpt><trkpt lat="21.86225104942382" lon="-102.32615688641953"><ele>1845.7999999999997</ele><time>2026-03-22T15:39:21Z</time></trkpt><trkpt lat="21.862260816066726" lon="-102.32606078732294"><ele>1845.2</ele><time>2026-03-22T15:39:22Z</time></trkpt><trkpt lat="21.8622733205459" lon="-102.32596487895034"><ele>1844.6</ele><time>2026-03-22T15:39:23Z</time></trkpt><trkpt lat="21.862292203890924" lon="-102.32586784228131"><ele>1844.0</ele><time>2026-03-22T15:39:24Z</time></trkpt><trkpt lat="21.862314227732348" lon="-102.32577017494668"><ele>1844.0</ele><time>2026-03-22T15:39:25Z</time></trkpt><trkpt lat="21.862338866869916" lon="-102.32566840423526"><ele>1844.0</ele><time>2026-03-22T15:39:26Z</time></trkpt><trkpt lat="21.862366227428872" lon="-102.32557049313438"><ele>1844.0</ele><time>2026-03-22T15:39:27Z</time></trkpt><trkpt lat="21.86239380881018" lon="-102.32547037215475"><ele>1844.0</ele><time>2026-03-22T15:39:28Z</time></trkpt><trkpt lat="21.862422805213527" lon="-102.32537572070056"><ele>1844.0</ele><time>2026-03-22T15:39:29Z</time></trkpt><trkpt lat="21.862454673680364" lon="-102.32527670183627"><ele>1842.4</ele><time>2026-03-22T15:39:30Z</time></trkpt><trkpt lat="21.862485536551745" lon="-102.32518269732407"><ele>1840.8000000000002</ele><time>2026-03-22T15:39:31Z</time></trkpt><trkpt lat="21.86242628775104" lon="-102.32504629071383"><ele>1839.1999999999998</ele><time>2026-03-22T15:39:32Z</time></trkpt><trkpt lat="21.862443094379213" lon="-102.32494302204016"><ele>1837.6</ele><time>2026-03-22T15:39:33Z</time></trkpt><trkpt lat="21.8624724916776" lon="-102.32484041964351"><ele>1836.0</ele><time>2026-03-22T15:39:34Z</time></trkpt><trkpt lat="21.862520385259543" lon="-102.32474472799159"><ele>1836.8</ele><time>2026-03-22T15:39:35Z</time></trkpt><trkpt lat="21.862569008815285" lon="-102.32464561530408"><ele>1837.6</ele><time>2026-03-22T15:39:36Z</time></trkpt><trkpt lat="21.86261202516084" lon="-102.32454209250926"><ele>1838.4</ele><time>2026-03-22T15:39:37Z</time></trkpt><trkpt lat="21.862655937715147" lon="-102.3244370232549"><ele>1839.2</ele><time>2026-03-22T15:39:38Z</time></trkpt><trkpt lat="21.86270078951553" lon="-102.32433389750766"><ele>1840.0</ele><time>2026-03-22T15:39:39Z</time></trkpt><trkpt lat="21.862745539255723" lon="-102.32423705989278"><ele>1840.2</ele><time>2026-03-22T15:39:40Z</time></trkpt><trkpt lat="21.862791928229832" lon="-102.32414627169213"><ele>1840.4</ele><time>2026-03-22T15:39:41Z</time></trkpt><trkpt lat="21.86283213127753" lon="-102.32404870166191"><ele>1840.6</ele><time>2026-03-22T15:39:42Z</time></trkpt><trkpt lat="21.86287293369336" lon="-102.32395674777801"><ele>1840.8</ele><time>2026-03-22T15:39:43Z</time></trkpt><trkpt lat="21.862914663975918" lon="-102.32387090933408"><ele>1841.0</ele><time>2026-03-22T15:39:44Z</time></trkpt><trkpt lat="21.862949273941936" lon="-102.32378283339943"><ele>1840.9999999999998</ele><time>2026-03-22T15:39:45Z</time></trkpt><trkpt lat="21.862983834893733" lon="-102.32369978813438"><ele>1841.0</ele><time>2026-03-22T15:39:46Z</time></trkpt><trkpt lat="21.863010153490713" lon="-102.32361782575292"><ele>1841.0</ele><time>2026-03-22T15:39:47Z</time></trkpt><trkpt lat="21.86302589346525" lon="-102.32353247205195"><ele>1841.0</ele><time>2026-03-22T15:39:48Z</time></trkpt><trkpt lat="21.86303525730881" lon="-102.32344908214536"><ele>1840.9999999999998</ele><time>2026-03-22T15:39:49Z</time></trkpt><trkpt lat="21.863040737805253" lon="-102.32335692768886"><ele>1841.0</ele><time>2026-03-22T15:39:50Z</time></trkpt><trkpt lat="21.863061749479687" lon="-102.32327287435926"><ele>1840.9999999999998</ele><time>2026-03-22T15:39:51Z</time></trkpt><trkpt lat="21.863118261388834" lon="-102.32320425205134"><ele>1841.0</ele><time>2026-03-22T15:39:52Z</time></trkpt><trkpt lat="21.863177197624278" lon="-102.32313989664398"><ele>1841.0</ele><time>2026-03-22T15:39:53Z</time></trkpt><trkpt lat="21.86323588110482" lon="-102.32307670100911"><ele>1841.0</ele><time>2026-03-22T15:39:54Z</time></trkpt><trkpt lat="21.863281287034326" lon="-102.3230129794933"><ele>1840.9999999999998</ele><time>2026-03-22T15:39:55Z</time></trkpt><trkpt lat="21.86333340498526" lon="-102.32294673971435"><ele>1841.0</ele><time>2026-03-22T15:39:56Z</time></trkpt><trkpt lat="21.863375609281047" lon="-102.32287370524625"><ele>1840.1666666666665</ele><time>2026-03-22T15:39:57Z</time></trkpt><trkpt lat="21.863407502308345" lon="-102.32279640111993"><ele>1839.3333333333333</ele><time>2026-03-22T15:39:58Z</time></trkpt><trkpt lat="21.863441453408882" lon="-102.32271817395333"><ele>1838.5</ele><time>2026-03-22T15:39:59Z</time></trkpt><trkpt lat="21.86347473284242" lon="-102.32263982279635"><ele>1837.6666666666665</ele><time>2026-03-22T15:40:00Z</time></trkpt><trkpt lat="21.863509818738308" lon="-102.32256126343475"><ele>1836.8333333333333</ele><time>2026-03-22T15:40:01Z</time></trkpt><trkpt lat="21.863542297813897" lon="-102.32248515734673"><ele>1836.0</ele><time>2026-03-22T15:40:02Z</time></trkpt><trkpt lat="21.86358037379503" lon="-102.32241408067574"><ele>1836.0</ele><time>2026-03-22T15:40:03Z</time></trkpt><trkpt lat="21.863620768516277" lon="-102.32233666084801"><ele>1836.0</ele><time>2026-03-22T15:40:04Z</time></trkpt><trkpt lat="21.863656475916027" lon="-102.32226236517853"><ele>1836.0</ele><time>2026-03-22T15:40:05Z</time></trkpt><trkpt lat="21.863682976506787" lon="-102.32218541576687"><ele>1836.0</ele><time>2026-03-22T15:40:06Z</time></trkpt><trkpt lat="21.863716053275365" lon="-102.32211359377594"><ele>1836.0</ele><time>2026-03-22T15:40:07Z</time></trkpt><trkpt lat="21.86373649603736" lon="-102.32203699756637"><ele>1836.0</ele><time>2026-03-22T15:40:08Z</time></trkpt><trkpt lat="21.863740521772748" lon="-102.32195963842571"><ele>1835.8</ele><time>2026-03-22T15:40:09Z</time></trkpt><trkpt lat="21.86371744079333" lon="-102.32188671096894"><ele>1835.6</ele><time>2026-03-22T15:40:10Z</time></trkpt><trkpt lat="21.86363129685447" lon="-102.32178939880865"><ele>1835.4</ele><time>2026-03-22T15:40:12Z</time></trkpt><trkpt lat="21.863556063690275" lon="-102.32181113866748"><ele>1835.2</ele><time>2026-03-22T15:40:13Z</time></trkpt><trkpt lat="21.863444731425794" lon="-102.32181718369267"><ele>1835.0</ele><time>2026-03-22T15:40:15Z</time></trkpt><trkpt lat="21.863335802348345" lon="-102.32178077039508"><ele>1835.0</ele><time>2026-03-22T15:40:17Z</time></trkpt><trkpt lat="21.86324073396972" lon="-102.32171782625548"><ele>1835.0</ele><time>2026-03-22T15:40:19Z</time></trkpt><trkpt lat="21.863206618414765" lon="-102.3216572068285"><ele>1835.0</ele><time>2026-03-22T15:40:20Z</time></trkpt><trkpt lat="21.863185063039065" lon="-102.32152652612173"><ele>1835.0</ele><time>2026-03-22T15:40:22Z</time></trkpt><trkpt lat="21.86320404183528" lon="-102.32140093015234"><ele>1835.0</ele><time>2026-03-22T15:40:24Z</time></trkpt><trkpt lat="21.863239743715138" lon="-102.32129844814808"><ele>1835.3333333333333</ele><time>2026-03-22T15:40:26Z</time></trkpt><trkpt lat="21.863279260913096" lon="-102.32121687010401"><ele>1835.6666666666665</ele><time>2026-03-22T15:40:28Z</time></trkpt><trkpt lat="21.86325290086807" lon="-102.32113088638394"><ele>1836.0</ele><time>2026-03-22T15:40:30Z</time></trkpt><trkpt lat="21.863230558205736" lon="-102.3210593908708"><ele>1836.3333333333335</ele><time>2026-03-22T15:40:32Z</time></trkpt><trkpt lat="21.863191151385752" lon="-102.32099765866454"><ele>1836.6666666666667</ele><time>2026-03-22T15:40:34Z</time></trkpt><trkpt lat="21.863242629063812" lon="-102.32095327987138"><ele>1837.0</ele><time>2026-03-22T15:40:35Z</time></trkpt><trkpt lat="21.863297652866127" lon="-102.32088958125385"><ele>1837.0</ele><time>2026-03-22T15:40:37Z</time></trkpt><trkpt lat="21.863342609845255" lon="-102.32080758906808"><ele>1837.0</ele><time>2026-03-22T15:40:40Z</time></trkpt><trkpt lat="21.86337293627676" lon="-102.32074725934113"><ele>1837.0</ele><time>2026-03-22T15:41:00Z</time></trkpt><trkpt lat="21.86340620845313" lon="-102.3206860646938"><ele>1837.0</ele><time>2026-03-22T15:41:12Z</time></trkpt><trkpt lat="21.86342034811591" lon="-102.32061922791856"><ele>1837.0</ele><time>2026-03-22T15:41:23Z</time></trkpt><trkpt lat="21.86344119387742" lon="-102.32055049541259"><ele>1839.0</ele><time>2026-03-22T15:41:35Z</time></trkpt></trkseg></trk></gpx>